<?xml version="1.0" encoding="UTF-8" standalone="no" ?>
<gpx xmlns="http://www.topografix.com/GPX/1/1" xmlns:xsi="http://www.w3.org/2001/XMLSchema-instance" xsi:schemaLocation="http://www.topografix.com/GPX/1/1 http://www.topografix.com/GPX/1/1/gpx.xsd" version="1.1" creator="VisuGPX - https://www.visugpx.com">
  <metadata>
    <name>Tour d'Europe: étape 086</name>
    <desc><![CDATA[Étape 086]]></desc>
  </metadata>
  <trk>
    <name><![CDATA[Tour d'Europe: étape 086]]></name>
    <trkseg>
      <trkpt lat="66.43089" lon="20.59303">
        <ele>157.067796</ele>
        <time>2020-09-22T07:44:08.361Z</time>
      </trkpt>
      <trkpt lat="66.43096" lon="20.59319">
        <ele>157.067796</ele>
        <time>2020-09-22T07:44:13.355Z</time>
      </trkpt>
      <trkpt lat="66.43102" lon="20.5934">
        <ele>157.067796</ele>
        <time>2020-09-22T07:44:18.341Z</time>
      </trkpt>
      <trkpt lat="66.4311" lon="20.59355">
        <ele>157.067796</ele>
        <time>2020-09-22T07:44:23.353Z</time>
      </trkpt>
      <trkpt lat="66.4312" lon="20.59358">
        <ele>157.067796</ele>
        <time>2020-09-22T07:44:27.353Z</time>
      </trkpt>
      <trkpt lat="66.43128" lon="20.59384">
        <ele>157.067796</ele>
        <time>2020-09-22T07:44:31.349Z</time>
      </trkpt>
      <trkpt lat="66.43133" lon="20.59407">
        <ele>157.067796</ele>
        <time>2020-09-22T07:44:34.356Z</time>
      </trkpt>
      <trkpt lat="66.43136" lon="20.59431">
        <ele>157.067796</ele>
        <time>2020-09-22T07:44:37.351Z</time>
      </trkpt>
      <trkpt lat="66.4314" lon="20.59459">
        <ele>157.067796</ele>
        <time>2020-09-22T07:44:40.357Z</time>
      </trkpt>
      <trkpt lat="66.43143" lon="20.59485">
        <ele>156.937479</ele>
        <time>2020-09-22T07:44:43.357Z</time>
      </trkpt>
      <trkpt lat="66.43144" lon="20.59514">
        <ele>156.687703</ele>
        <time>2020-09-22T07:44:46.371Z</time>
      </trkpt>
      <trkpt lat="66.43147" lon="20.59546">
        <ele>156.4211</ele>
        <time>2020-09-22T07:44:49.338Z</time>
      </trkpt>
      <trkpt lat="66.4315" lon="20.59574">
        <ele>156.176553</ele>
        <time>2020-09-22T07:44:52.336Z</time>
      </trkpt>
      <trkpt lat="66.43151" lon="20.59603">
        <ele>155.936356</ele>
        <time>2020-09-22T07:44:55.356Z</time>
      </trkpt>
      <trkpt lat="66.43151" lon="20.59631">
        <ele>155.697434</ele>
        <time>2020-09-22T07:44:58.344Z</time>
      </trkpt>
      <trkpt lat="66.43149" lon="20.59659">
        <ele>155.461471</ele>
        <time>2020-09-22T07:45:01.370Z</time>
      </trkpt>
      <trkpt lat="66.43148" lon="20.59685">
        <ele>155.244751</ele>
        <time>2020-09-22T07:45:04.335Z</time>
      </trkpt>
      <trkpt lat="66.43147" lon="20.5971">
        <ele>155.034724</ele>
        <time>2020-09-22T07:45:07.363Z</time>
      </trkpt>
      <trkpt lat="66.43144" lon="20.59735">
        <ele>154.817298</ele>
        <time>2020-09-22T07:45:10.359Z</time>
      </trkpt>
      <trkpt lat="66.43142" lon="20.59759">
        <ele>154.613899</ele>
        <time>2020-09-22T07:45:13.349Z</time>
      </trkpt>
      <trkpt lat="66.43139" lon="20.59782">
        <ele>154.408866</ele>
        <time>2020-09-22T07:45:16.345Z</time>
      </trkpt>
      <trkpt lat="66.43137" lon="20.59806">
        <ele>154.202459</ele>
        <time>2020-09-22T07:45:19.357Z</time>
      </trkpt>
      <trkpt lat="66.43135" lon="20.59829">
        <ele>154.006984</ele>
        <time>2020-09-22T07:45:22.351Z</time>
      </trkpt>
      <trkpt lat="66.43133" lon="20.59853">
        <ele>153.80763</ele>
        <time>2020-09-22T07:45:25.342Z</time>
      </trkpt>
      <trkpt lat="66.43131" lon="20.59876">
        <ele>153.605546</ele>
        <time>2020-09-22T07:45:28.360Z</time>
      </trkpt>
      <trkpt lat="66.43128" lon="20.59898">
        <ele>153.413184</ele>
        <time>2020-09-22T07:45:31.358Z</time>
      </trkpt>
      <trkpt lat="66.43125" lon="20.59922">
        <ele>153.341575</ele>
        <time>2020-09-22T07:45:34.361Z</time>
      </trkpt>
      <trkpt lat="66.43122" lon="20.59946">
        <ele>153.402892</ele>
        <time>2020-09-22T07:45:37.343Z</time>
      </trkpt>
      <trkpt lat="66.43119" lon="20.59968">
        <ele>153.460071</ele>
        <time>2020-09-22T07:45:40.363Z</time>
      </trkpt>
      <trkpt lat="66.43116" lon="20.59992">
        <ele>153.522961</ele>
        <time>2020-09-22T07:45:43.371Z</time>
      </trkpt>
      <trkpt lat="66.43113" lon="20.60017">
        <ele>153.588051</ele>
        <time>2020-09-22T07:45:46.373Z</time>
      </trkpt>
      <trkpt lat="66.43111" lon="20.60043">
        <ele>153.652661</ele>
        <time>2020-09-22T07:45:49.372Z</time>
      </trkpt>
      <trkpt lat="66.43108" lon="20.60069">
        <ele>153.720447</ele>
        <time>2020-09-22T07:45:52.373Z</time>
      </trkpt>
      <trkpt lat="66.43104" lon="20.60095">
        <ele>153.788343</ele>
        <time>2020-09-22T07:45:55.360Z</time>
      </trkpt>
      <trkpt lat="66.431" lon="20.60123">
        <ele>153.863181</ele>
        <time>2020-09-22T07:45:58.359Z</time>
      </trkpt>
      <trkpt lat="66.43098" lon="20.60151">
        <ele>153.932843</ele>
        <time>2020-09-22T07:46:01.363Z</time>
      </trkpt>
      <trkpt lat="66.43095" lon="20.60177">
        <ele>154.001682</ele>
        <time>2020-09-22T07:46:04.342Z</time>
      </trkpt>
      <trkpt lat="66.43086" lon="20.60197">
        <ele>154.074311</ele>
        <time>2020-09-22T07:46:07.334Z</time>
      </trkpt>
      <trkpt lat="66.43076" lon="20.60211">
        <ele>154.143543</ele>
        <time>2020-09-22T07:46:10.373Z</time>
      </trkpt>
      <trkpt lat="66.43068" lon="20.6023">
        <ele>154.215017</ele>
        <time>2020-09-22T07:46:13.348Z</time>
      </trkpt>
      <trkpt lat="66.43067" lon="20.60258">
        <ele>154.283192</ele>
        <time>2020-09-22T07:46:16.357Z</time>
      </trkpt>
      <trkpt lat="66.43072" lon="20.6028">
        <ele>154.34502</ele>
        <time>2020-09-22T07:46:19.352Z</time>
      </trkpt>
      <trkpt lat="66.43075" lon="20.60304">
        <ele>154.408023</ele>
        <time>2020-09-22T07:46:22.379Z</time>
      </trkpt>
      <trkpt lat="66.43079" lon="20.60334">
        <ele>154.033193</ele>
        <time>2020-09-22T07:46:25.344Z</time>
      </trkpt>
      <trkpt lat="66.43079" lon="20.60366">
        <ele>153.54056</ele>
        <time>2020-09-22T07:46:28.333Z</time>
      </trkpt>
      <trkpt lat="66.43076" lon="20.6039">
        <ele>153.162047</ele>
        <time>2020-09-22T07:46:30.355Z</time>
      </trkpt>
      <trkpt lat="66.43073" lon="20.60413">
        <ele>152.782715</ele>
        <time>2020-09-22T07:46:32.354Z</time>
      </trkpt>
      <trkpt lat="66.4307" lon="20.60438">
        <ele>152.393981</ele>
        <time>2020-09-22T07:46:34.404Z</time>
      </trkpt>
      <trkpt lat="66.43066" lon="20.60464">
        <ele>151.98115</ele>
        <time>2020-09-22T07:46:36.345Z</time>
      </trkpt>
      <trkpt lat="66.43063" lon="20.60489">
        <ele>151.570578</ele>
        <time>2020-09-22T07:46:38.335Z</time>
      </trkpt>
      <trkpt lat="66.4306" lon="20.60515">
        <ele>151.165066</ele>
        <time>2020-09-22T07:46:40.338Z</time>
      </trkpt>
      <trkpt lat="66.43057" lon="20.60541">
        <ele>150.752235</ele>
        <time>2020-09-22T07:46:42.338Z</time>
      </trkpt>
      <trkpt lat="66.43054" lon="20.60567">
        <ele>150.330981</ele>
        <time>2020-09-22T07:46:44.359Z</time>
      </trkpt>
      <trkpt lat="66.43049" lon="20.60593">
        <ele>149.897891</ele>
        <time>2020-09-22T07:46:46.330Z</time>
      </trkpt>
      <trkpt lat="66.43045" lon="20.60621">
        <ele>149.44503</ele>
        <time>2020-09-22T07:46:48.341Z</time>
      </trkpt>
      <trkpt lat="66.43041" lon="20.6065">
        <ele>148.973644</ele>
        <time>2020-09-22T07:46:50.359Z</time>
      </trkpt>
      <trkpt lat="66.43037" lon="20.6068">
        <ele>148.491899</ele>
        <time>2020-09-22T07:46:52.350Z</time>
      </trkpt>
      <trkpt lat="66.43032" lon="20.60712">
        <ele>147.969163</ele>
        <time>2020-09-22T07:46:54.361Z</time>
      </trkpt>
      <trkpt lat="66.43028" lon="20.60747">
        <ele>147.355915</ele>
        <time>2020-09-22T07:46:56.370Z</time>
      </trkpt>
      <trkpt lat="66.43023" lon="20.60783">
        <ele>146.530237</ele>
        <time>2020-09-22T07:46:58.379Z</time>
      </trkpt>
      <trkpt lat="66.43019" lon="20.60821">
        <ele>145.675655</ele>
        <time>2020-09-22T07:47:00.346Z</time>
      </trkpt>
      <trkpt lat="66.43014" lon="20.60861">
        <ele>144.782498</ele>
        <time>2020-09-22T07:47:02.384Z</time>
      </trkpt>
      <trkpt lat="66.4301" lon="20.60902">
        <ele>143.867496</ele>
        <time>2020-09-22T07:47:04.356Z</time>
      </trkpt>
      <trkpt lat="66.43005" lon="20.60944">
        <ele>142.928952</ele>
        <time>2020-09-22T07:47:06.340Z</time>
      </trkpt>
      <trkpt lat="66.43003" lon="20.60989">
        <ele>141.961834</ele>
        <time>2020-09-22T07:47:08.337Z</time>
      </trkpt>
      <trkpt lat="66.43001" lon="20.61011">
        <ele>141.476341</ele>
        <time>2020-09-22T07:47:09.350Z</time>
      </trkpt>
      <trkpt lat="66.43" lon="20.61034">
        <ele>140.979722</ele>
        <time>2020-09-22T07:47:10.353Z</time>
      </trkpt>
      <trkpt lat="66.42999" lon="20.61057">
        <ele>140.478696</ele>
        <time>2020-09-22T07:47:11.337Z</time>
      </trkpt>
      <trkpt lat="66.42998" lon="20.61081">
        <ele>139.960517</ele>
        <time>2020-09-22T07:47:12.367Z</time>
      </trkpt>
      <trkpt lat="66.42997" lon="20.61104">
        <ele>139.452457</ele>
        <time>2020-09-22T07:47:13.347Z</time>
      </trkpt>
      <trkpt lat="66.42995" lon="20.61127">
        <ele>138.944388</ele>
        <time>2020-09-22T07:47:14.337Z</time>
      </trkpt>
      <trkpt lat="66.42994" lon="20.6115">
        <ele>138.438451</ele>
        <time>2020-09-22T07:47:15.340Z</time>
      </trkpt>
      <trkpt lat="66.42993" lon="20.61174">
        <ele>137.932514</ele>
        <time>2020-09-22T07:47:16.342Z</time>
      </trkpt>
      <trkpt lat="66.42991" lon="20.61197">
        <ele>137.653631</ele>
        <time>2020-09-22T07:47:17.345Z</time>
      </trkpt>
      <trkpt lat="66.4299" lon="20.61219">
        <ele>137.411514</ele>
        <time>2020-09-22T07:47:18.371Z</time>
      </trkpt>
      <trkpt lat="66.42988" lon="20.61242">
        <ele>137.174604</ele>
        <time>2020-09-22T07:47:19.353Z</time>
      </trkpt>
      <trkpt lat="66.42987" lon="20.61264">
        <ele>136.936653</ele>
        <time>2020-09-22T07:47:20.350Z</time>
      </trkpt>
      <trkpt lat="66.42986" lon="20.61286">
        <ele>136.699588</ele>
        <time>2020-09-22T07:47:21.359Z</time>
      </trkpt>
      <trkpt lat="66.42985" lon="20.6133">
        <ele>136.232588</ele>
        <time>2020-09-22T07:47:23.361Z</time>
      </trkpt>
      <trkpt lat="66.42983" lon="20.61373">
        <ele>135.780502</ele>
        <time>2020-09-22T07:47:25.330Z</time>
      </trkpt>
      <trkpt lat="66.42981" lon="20.61414">
        <ele>135.34373</ele>
        <time>2020-09-22T07:47:27.336Z</time>
      </trkpt>
      <trkpt lat="66.42979" lon="20.61454">
        <ele>134.921307</ele>
        <time>2020-09-22T07:47:29.351Z</time>
      </trkpt>
      <trkpt lat="66.42976" lon="20.61492">
        <ele>134.516991</ele>
        <time>2020-09-22T07:47:31.365Z</time>
      </trkpt>
      <trkpt lat="66.42974" lon="20.61528">
        <ele>134.131075</ele>
        <time>2020-09-22T07:47:33.355Z</time>
      </trkpt>
      <trkpt lat="66.4297" lon="20.61561">
        <ele>133.76501</ele>
        <time>2020-09-22T07:47:35.371Z</time>
      </trkpt>
      <trkpt lat="66.42967" lon="20.61591">
        <ele>133.446635</ele>
        <time>2020-09-22T07:47:37.345Z</time>
      </trkpt>
      <trkpt lat="66.42964" lon="20.61619">
        <ele>133.131348</ele>
        <time>2020-09-22T07:47:39.338Z</time>
      </trkpt>
      <trkpt lat="66.42959" lon="20.6165">
        <ele>133.196856</ele>
        <time>2020-09-22T07:47:41.380Z</time>
      </trkpt>
      <trkpt lat="66.42956" lon="20.61681">
        <ele>133.269635</ele>
        <time>2020-09-22T07:47:43.357Z</time>
      </trkpt>
      <trkpt lat="66.42952" lon="20.6171">
        <ele>133.33744</ele>
        <time>2020-09-22T07:47:45.401Z</time>
      </trkpt>
      <trkpt lat="66.42948" lon="20.61738">
        <ele>133.40252</ele>
        <time>2020-09-22T07:47:47.342Z</time>
      </trkpt>
      <trkpt lat="66.42945" lon="20.61765">
        <ele>133.465563</ele>
        <time>2020-09-22T07:47:49.375Z</time>
      </trkpt>
      <trkpt lat="66.42942" lon="20.61792">
        <ele>133.530389</ele>
        <time>2020-09-22T07:47:51.376Z</time>
      </trkpt>
      <trkpt lat="66.42939" lon="20.61822">
        <ele>133.597925</ele>
        <time>2020-09-22T07:47:53.351Z</time>
      </trkpt>
      <trkpt lat="66.42936" lon="20.61849">
        <ele>133.661316</ele>
        <time>2020-09-22T07:47:55.369Z</time>
      </trkpt>
      <trkpt lat="66.42934" lon="20.61875">
        <ele>133.719786</ele>
        <time>2020-09-22T07:47:57.336Z</time>
      </trkpt>
      <trkpt lat="66.42932" lon="20.61901">
        <ele>133.779347</ele>
        <time>2020-09-22T07:47:59.351Z</time>
      </trkpt>
      <trkpt lat="66.4293" lon="20.61927">
        <ele>133.83859</ele>
        <time>2020-09-22T07:48:01.337Z</time>
      </trkpt>
      <trkpt lat="66.42927" lon="20.61953">
        <ele>133.89837</ele>
        <time>2020-09-22T07:48:03.341Z</time>
      </trkpt>
      <trkpt lat="66.42925" lon="20.61979">
        <ele>133.957713</ele>
        <time>2020-09-22T07:48:05.356Z</time>
      </trkpt>
      <trkpt lat="66.42923" lon="20.62005">
        <ele>134.017514</ele>
        <time>2020-09-22T07:48:07.345Z</time>
      </trkpt>
      <trkpt lat="66.4292" lon="20.6203">
        <ele>134.074764</ele>
        <time>2020-09-22T07:48:09.334Z</time>
      </trkpt>
      <trkpt lat="66.42918" lon="20.62055">
        <ele>134.12981</ele>
        <time>2020-09-22T07:48:11.328Z</time>
      </trkpt>
      <trkpt lat="66.42915" lon="20.62081">
        <ele>134.138932</ele>
        <time>2020-09-22T07:48:13.357Z</time>
      </trkpt>
      <trkpt lat="66.42913" lon="20.62107">
        <ele>134.148179</ele>
        <time>2020-09-22T07:48:15.337Z</time>
      </trkpt>
      <trkpt lat="66.4291" lon="20.62133">
        <ele>134.157482</ele>
        <time>2020-09-22T07:48:17.354Z</time>
      </trkpt>
      <trkpt lat="66.42908" lon="20.62159">
        <ele>134.166772</ele>
        <time>2020-09-22T07:48:19.357Z</time>
      </trkpt>
      <trkpt lat="66.42906" lon="20.62184">
        <ele>134.175585</ele>
        <time>2020-09-22T07:48:21.345Z</time>
      </trkpt>
      <trkpt lat="66.42905" lon="20.62211">
        <ele>134.184894</ele>
        <time>2020-09-22T07:48:23.364Z</time>
      </trkpt>
      <trkpt lat="66.42902" lon="20.62237">
        <ele>134.194323</ele>
        <time>2020-09-22T07:48:25.354Z</time>
      </trkpt>
      <trkpt lat="66.429" lon="20.62265">
        <ele>134.204242</ele>
        <time>2020-09-22T07:48:27.373Z</time>
      </trkpt>
      <trkpt lat="66.42898" lon="20.62292">
        <ele>134.213615</ele>
        <time>2020-09-22T07:48:29.360Z</time>
      </trkpt>
      <trkpt lat="66.42896" lon="20.62317">
        <ele>134.222415</ele>
        <time>2020-09-22T07:48:31.376Z</time>
      </trkpt>
      <trkpt lat="66.42894" lon="20.62343">
        <ele>134.231383</ele>
        <time>2020-09-22T07:48:33.342Z</time>
      </trkpt>
      <trkpt lat="66.42891" lon="20.62368">
        <ele>134.240543</ele>
        <time>2020-09-22T07:48:35.338Z</time>
      </trkpt>
      <trkpt lat="66.42889" lon="20.62394">
        <ele>134.249612</ele>
        <time>2020-09-22T07:48:37.373Z</time>
      </trkpt>
      <trkpt lat="66.42887" lon="20.62419">
        <ele>134.258258</ele>
        <time>2020-09-22T07:48:39.361Z</time>
      </trkpt>
      <trkpt lat="66.42884" lon="20.62443">
        <ele>134.266996</ele>
        <time>2020-09-22T07:48:41.349Z</time>
      </trkpt>
      <trkpt lat="66.42882" lon="20.62468">
        <ele>134.275881</ele>
        <time>2020-09-22T07:48:43.330Z</time>
      </trkpt>
      <trkpt lat="66.42879" lon="20.62494">
        <ele>134.281982</ele>
        <time>2020-09-22T07:48:45.350Z</time>
      </trkpt>
      <trkpt lat="66.42877" lon="20.62518">
        <ele>134.154377</ele>
        <time>2020-09-22T07:48:47.333Z</time>
      </trkpt>
      <trkpt lat="66.42873" lon="20.62541">
        <ele>134.023897</ele>
        <time>2020-09-22T07:48:49.350Z</time>
      </trkpt>
      <trkpt lat="66.4287" lon="20.62566">
        <ele>133.891114</ele>
        <time>2020-09-22T07:48:51.372Z</time>
      </trkpt>
      <trkpt lat="66.42865" lon="20.62589">
        <ele>133.757213</ele>
        <time>2020-09-22T07:48:53.363Z</time>
      </trkpt>
      <trkpt lat="66.42859" lon="20.6261">
        <ele>133.623361</ele>
        <time>2020-09-22T07:48:55.355Z</time>
      </trkpt>
      <trkpt lat="66.42851" lon="20.62628">
        <ele>133.487133</ele>
        <time>2020-09-22T07:48:57.351Z</time>
      </trkpt>
      <trkpt lat="66.42843" lon="20.62645">
        <ele>133.348093</ele>
        <time>2020-09-22T07:48:59.356Z</time>
      </trkpt>
      <trkpt lat="66.42833" lon="20.62661">
        <ele>133.199192</ele>
        <time>2020-09-22T07:49:01.345Z</time>
      </trkpt>
      <trkpt lat="66.42823" lon="20.62676">
        <ele>133.052765</ele>
        <time>2020-09-22T07:49:03.355Z</time>
      </trkpt>
      <trkpt lat="66.42814" lon="20.62691">
        <ele>132.912494</ele>
        <time>2020-09-22T07:49:05.376Z</time>
      </trkpt>
      <trkpt lat="66.42805" lon="20.62707">
        <ele>132.766617</ele>
        <time>2020-09-22T07:49:07.351Z</time>
      </trkpt>
      <trkpt lat="66.42796" lon="20.62722">
        <ele>132.625856</ele>
        <time>2020-09-22T07:49:09.355Z</time>
      </trkpt>
      <trkpt lat="66.42786" lon="20.62737">
        <ele>132.478067</ele>
        <time>2020-09-22T07:49:11.362Z</time>
      </trkpt>
      <trkpt lat="66.42776" lon="20.62752">
        <ele>132.333277</ele>
        <time>2020-09-22T07:49:13.389Z</time>
      </trkpt>
      <trkpt lat="66.42766" lon="20.62768">
        <ele>132.181935</ele>
        <time>2020-09-22T07:49:15.374Z</time>
      </trkpt>
      <trkpt lat="66.42757" lon="20.62783">
        <ele>132.037419</ele>
        <time>2020-09-22T07:49:17.361Z</time>
      </trkpt>
      <trkpt lat="66.42748" lon="20.62797">
        <ele>131.89907</ele>
        <time>2020-09-22T07:49:19.382Z</time>
      </trkpt>
      <trkpt lat="66.42738" lon="20.62812">
        <ele>131.759597</ele>
        <time>2020-09-22T07:49:21.354Z</time>
      </trkpt>
      <trkpt lat="66.42728" lon="20.62828">
        <ele>131.615925</ele>
        <time>2020-09-22T07:49:23.346Z</time>
      </trkpt>
      <trkpt lat="66.42719" lon="20.62843">
        <ele>131.476162</ele>
        <time>2020-09-22T07:49:25.382Z</time>
      </trkpt>
      <trkpt lat="66.42709" lon="20.62859">
        <ele>131.334876</ele>
        <time>2020-09-22T07:49:27.358Z</time>
      </trkpt>
      <trkpt lat="66.42699" lon="20.62875">
        <ele>131.189932</ele>
        <time>2020-09-22T07:49:29.357Z</time>
      </trkpt>
      <trkpt lat="66.42689" lon="20.62891">
        <ele>131.043648</ele>
        <time>2020-09-22T07:49:31.356Z</time>
      </trkpt>
      <trkpt lat="66.4268" lon="20.62907">
        <ele>130.898125</ele>
        <time>2020-09-22T07:49:33.343Z</time>
      </trkpt>
      <trkpt lat="66.4267" lon="20.62923">
        <ele>130.751871</ele>
        <time>2020-09-22T07:49:35.349Z</time>
      </trkpt>
      <trkpt lat="66.4266" lon="20.62939">
        <ele>130.605881</ele>
        <time>2020-09-22T07:49:37.353Z</time>
      </trkpt>
      <trkpt lat="66.4265" lon="20.62954">
        <ele>130.462503</ele>
        <time>2020-09-22T07:49:39.368Z</time>
      </trkpt>
      <trkpt lat="66.4264" lon="20.62969">
        <ele>130.318607</ele>
        <time>2020-09-22T07:49:41.392Z</time>
      </trkpt>
      <trkpt lat="66.4263" lon="20.62985">
        <ele>130.174169</ele>
        <time>2020-09-22T07:49:43.345Z</time>
      </trkpt>
      <trkpt lat="66.4262" lon="20.63">
        <ele>130.034989</ele>
        <time>2020-09-22T07:49:45.348Z</time>
      </trkpt>
      <trkpt lat="66.42611" lon="20.63014">
        <ele>129.902103</ele>
        <time>2020-09-22T07:49:47.335Z</time>
      </trkpt>
      <trkpt lat="66.42602" lon="20.63028">
        <ele>129.770515</ele>
        <time>2020-09-22T07:49:49.371Z</time>
      </trkpt>
      <trkpt lat="66.42593" lon="20.63042">
        <ele>129.891842</ele>
        <time>2020-09-22T07:49:51.346Z</time>
      </trkpt>
      <trkpt lat="66.42584" lon="20.63057">
        <ele>130.078482</ele>
        <time>2020-09-22T07:49:53.369Z</time>
      </trkpt>
      <trkpt lat="66.42575" lon="20.63073">
        <ele>130.264572</ele>
        <time>2020-09-22T07:49:55.341Z</time>
      </trkpt>
      <trkpt lat="66.42566" lon="20.63088">
        <ele>130.445512</ele>
        <time>2020-09-22T07:49:57.353Z</time>
      </trkpt>
      <trkpt lat="66.42557" lon="20.63102">
        <ele>130.621796</ele>
        <time>2020-09-22T07:49:59.350Z</time>
      </trkpt>
      <trkpt lat="66.42548" lon="20.63116">
        <ele>130.797357</ele>
        <time>2020-09-22T07:50:01.375Z</time>
      </trkpt>
      <trkpt lat="66.42539" lon="20.63129">
        <ele>130.974096</ele>
        <time>2020-09-22T07:50:03.379Z</time>
      </trkpt>
      <trkpt lat="66.4253" lon="20.63143">
        <ele>131.155021</ele>
        <time>2020-09-22T07:50:05.341Z</time>
      </trkpt>
      <trkpt lat="66.42521" lon="20.63157">
        <ele>131.335569</ele>
        <time>2020-09-22T07:50:07.336Z</time>
      </trkpt>
      <trkpt lat="66.42512" lon="20.63172">
        <ele>131.51913</ele>
        <time>2020-09-22T07:50:09.354Z</time>
      </trkpt>
      <trkpt lat="66.42503" lon="20.63186">
        <ele>131.697538</ele>
        <time>2020-09-22T07:50:11.337Z</time>
      </trkpt>
      <trkpt lat="66.42494" lon="20.63201">
        <ele>131.880227</ele>
        <time>2020-09-22T07:50:13.362Z</time>
      </trkpt>
      <trkpt lat="66.42484" lon="20.63216">
        <ele>132.066504</ele>
        <time>2020-09-22T07:50:15.355Z</time>
      </trkpt>
      <trkpt lat="66.42475" lon="20.6323">
        <ele>132.251356</ele>
        <time>2020-09-22T07:50:17.398Z</time>
      </trkpt>
      <trkpt lat="66.42466" lon="20.63245">
        <ele>132.439853</ele>
        <time>2020-09-22T07:50:19.364Z</time>
      </trkpt>
      <trkpt lat="66.42456" lon="20.63261">
        <ele>132.628641</ele>
        <time>2020-09-22T07:50:21.363Z</time>
      </trkpt>
      <trkpt lat="66.42447" lon="20.63274">
        <ele>132.797756</ele>
        <time>2020-09-22T07:50:23.358Z</time>
      </trkpt>
      <trkpt lat="66.42438" lon="20.63289">
        <ele>132.912358</ele>
        <time>2020-09-22T07:50:25.341Z</time>
      </trkpt>
      <trkpt lat="66.42428" lon="20.63304">
        <ele>133.031353</ele>
        <time>2020-09-22T07:50:27.354Z</time>
      </trkpt>
      <trkpt lat="66.42419" lon="20.63319">
        <ele>133.145743</ele>
        <time>2020-09-22T07:50:29.342Z</time>
      </trkpt>
      <trkpt lat="66.42409" lon="20.63334">
        <ele>133.261444</ele>
        <time>2020-09-22T07:50:31.357Z</time>
      </trkpt>
      <trkpt lat="66.42399" lon="20.63348">
        <ele>133.380057</ele>
        <time>2020-09-22T07:50:33.339Z</time>
      </trkpt>
      <trkpt lat="66.42389" lon="20.63362">
        <ele>133.500111</ele>
        <time>2020-09-22T07:50:35.349Z</time>
      </trkpt>
      <trkpt lat="66.42378" lon="20.63372">
        <ele>133.616578</ele>
        <time>2020-09-22T07:50:37.357Z</time>
      </trkpt>
      <trkpt lat="66.42368" lon="20.63381">
        <ele>133.727411</ele>
        <time>2020-09-22T07:50:39.338Z</time>
      </trkpt>
      <trkpt lat="66.42358" lon="20.63387">
        <ele>133.8319</ele>
        <time>2020-09-22T07:50:41.393Z</time>
      </trkpt>
      <trkpt lat="66.42349" lon="20.63391">
        <ele>133.929626</ele>
        <time>2020-09-22T07:50:43.348Z</time>
      </trkpt>
      <trkpt lat="66.42337" lon="20.63395">
        <ele>134.059329</ele>
        <time>2020-09-22T07:50:46.353Z</time>
      </trkpt>
      <trkpt lat="66.42327" lon="20.63396">
        <ele>134.164044</ele>
        <time>2020-09-22T07:50:49.330Z</time>
      </trkpt>
      <trkpt lat="66.42315" lon="20.63397">
        <ele>134.280107</ele>
        <time>2020-09-22T07:50:53.340Z</time>
      </trkpt>
      <trkpt lat="66.42306" lon="20.63397">
        <ele>134.382633</ele>
        <time>2020-09-22T07:50:58.344Z</time>
      </trkpt>
      <trkpt lat="66.42296" lon="20.63396">
        <ele>134.481059</ele>
        <time>2020-09-22T07:51:03.369Z</time>
      </trkpt>
      <trkpt lat="66.42286" lon="20.63395">
        <ele>134.580727</ele>
        <time>2020-09-22T07:51:08.343Z</time>
      </trkpt>
      <trkpt lat="66.42276" lon="20.63394">
        <ele>134.794754</ele>
        <time>2020-09-22T07:51:13.351Z</time>
      </trkpt>
      <trkpt lat="66.42266" lon="20.63391">
        <ele>135.104664</ele>
        <time>2020-09-22T07:51:18.352Z</time>
      </trkpt>
      <trkpt lat="66.42257" lon="20.63385">
        <ele>135.403907</ele>
        <time>2020-09-22T07:51:23.344Z</time>
      </trkpt>
      <trkpt lat="66.42249" lon="20.63378">
        <ele>135.702337</ele>
        <time>2020-09-22T07:51:28.364Z</time>
      </trkpt>
      <trkpt lat="66.42239" lon="20.63373">
        <ele>136.022032</ele>
        <time>2020-09-22T07:51:33.332Z</time>
      </trkpt>
      <trkpt lat="66.42229" lon="20.63365">
        <ele>136.333216</ele>
        <time>2020-09-22T07:51:38.346Z</time>
      </trkpt>
      <trkpt lat="66.4222" lon="20.63374">
        <ele>136.645837</ele>
        <time>2020-09-22T07:51:42.341Z</time>
      </trkpt>
      <trkpt lat="66.42214" lon="20.63392">
        <ele>136.948373</ele>
        <time>2020-09-22T07:51:45.344Z</time>
      </trkpt>
      <trkpt lat="66.42208" lon="20.63415">
        <ele>137.293041</ele>
        <time>2020-09-22T07:51:48.365Z</time>
      </trkpt>
      <trkpt lat="66.42202" lon="20.63437">
        <ele>137.631363</ele>
        <time>2020-09-22T07:51:51.382Z</time>
      </trkpt>
      <trkpt lat="66.42197" lon="20.6346">
        <ele>137.973605</ele>
        <time>2020-09-22T07:51:54.366Z</time>
      </trkpt>
      <trkpt lat="66.42192" lon="20.63484">
        <ele>138.333765</ele>
        <time>2020-09-22T07:51:57.365Z</time>
      </trkpt>
      <trkpt lat="66.42185" lon="20.63509">
        <ele>138.711103</ele>
        <time>2020-09-22T07:52:00.367Z</time>
      </trkpt>
      <trkpt lat="66.42177" lon="20.63534">
        <ele>139.123467</ele>
        <time>2020-09-22T07:52:03.348Z</time>
      </trkpt>
      <trkpt lat="66.42169" lon="20.63559">
        <ele>139.529842</ele>
        <time>2020-09-22T07:52:06.338Z</time>
      </trkpt>
      <trkpt lat="66.42161" lon="20.63586">
        <ele>139.961904</ele>
        <time>2020-09-22T07:52:09.364Z</time>
      </trkpt>
      <trkpt lat="66.42156" lon="20.63606">
        <ele>140.272212</ele>
        <time>2020-09-22T07:52:11.342Z</time>
      </trkpt>
      <trkpt lat="66.42149" lon="20.63626">
        <ele>140.240429</ele>
        <time>2020-09-22T07:52:13.353Z</time>
      </trkpt>
      <trkpt lat="66.42142" lon="20.63646">
        <ele>139.998095</ele>
        <time>2020-09-22T07:52:15.346Z</time>
      </trkpt>
      <trkpt lat="66.42135" lon="20.63666">
        <ele>139.750794</ele>
        <time>2020-09-22T07:52:17.354Z</time>
      </trkpt>
      <trkpt lat="66.42127" lon="20.63687">
        <ele>139.490341</ele>
        <time>2020-09-22T07:52:19.350Z</time>
      </trkpt>
      <trkpt lat="66.42119" lon="20.6371">
        <ele>139.215365</ele>
        <time>2020-09-22T07:52:21.346Z</time>
      </trkpt>
      <trkpt lat="66.4211" lon="20.63733">
        <ele>138.930974</ele>
        <time>2020-09-22T07:52:23.345Z</time>
      </trkpt>
      <trkpt lat="66.42101" lon="20.63756">
        <ele>138.639073</ele>
        <time>2020-09-22T07:52:25.331Z</time>
      </trkpt>
      <trkpt lat="66.42091" lon="20.6378">
        <ele>138.335736</ele>
        <time>2020-09-22T07:52:27.341Z</time>
      </trkpt>
      <trkpt lat="66.42082" lon="20.63804">
        <ele>138.02567</ele>
        <time>2020-09-22T07:52:29.360Z</time>
      </trkpt>
      <trkpt lat="66.42071" lon="20.63828">
        <ele>137.702691</ele>
        <time>2020-09-22T07:52:31.372Z</time>
      </trkpt>
      <trkpt lat="66.4206" lon="20.63854">
        <ele>137.367589</ele>
        <time>2020-09-22T07:52:33.338Z</time>
      </trkpt>
      <trkpt lat="66.42049" lon="20.63879">
        <ele>137.028106</ele>
        <time>2020-09-22T07:52:35.352Z</time>
      </trkpt>
      <trkpt lat="66.42038" lon="20.63904">
        <ele>136.685855</ele>
        <time>2020-09-22T07:52:37.348Z</time>
      </trkpt>
      <trkpt lat="66.42026" lon="20.63929">
        <ele>136.343683</ele>
        <time>2020-09-22T07:52:39.348Z</time>
      </trkpt>
      <trkpt lat="66.42014" lon="20.63954">
        <ele>135.897706</ele>
        <time>2020-09-22T07:52:41.347Z</time>
      </trkpt>
      <trkpt lat="66.42002" lon="20.63979">
        <ele>135.447007</ele>
        <time>2020-09-22T07:52:43.335Z</time>
      </trkpt>
      <trkpt lat="66.4199" lon="20.64004">
        <ele>135.000712</ele>
        <time>2020-09-22T07:52:45.338Z</time>
      </trkpt>
      <trkpt lat="66.41978" lon="20.6403">
        <ele>134.553496</ele>
        <time>2020-09-22T07:52:47.350Z</time>
      </trkpt>
      <trkpt lat="66.41967" lon="20.64055">
        <ele>134.109379</ele>
        <time>2020-09-22T07:52:49.343Z</time>
      </trkpt>
      <trkpt lat="66.41955" lon="20.64081">
        <ele>133.671752</ele>
        <time>2020-09-22T07:52:51.338Z</time>
      </trkpt>
      <trkpt lat="66.41943" lon="20.64105">
        <ele>133.239392</ele>
        <time>2020-09-22T07:52:53.363Z</time>
      </trkpt>
      <trkpt lat="66.41932" lon="20.64128">
        <ele>132.812887</ele>
        <time>2020-09-22T07:52:55.357Z</time>
      </trkpt>
      <trkpt lat="66.41921" lon="20.64152">
        <ele>132.406139</ele>
        <time>2020-09-22T07:52:57.376Z</time>
      </trkpt>
      <trkpt lat="66.4191" lon="20.64174">
        <ele>132.003073</ele>
        <time>2020-09-22T07:52:59.335Z</time>
      </trkpt>
      <trkpt lat="66.41899" lon="20.64196">
        <ele>131.606556</ele>
        <time>2020-09-22T07:53:01.346Z</time>
      </trkpt>
      <trkpt lat="66.41889" lon="20.64216">
        <ele>131.223175</ele>
        <time>2020-09-22T07:53:03.344Z</time>
      </trkpt>
      <trkpt lat="66.41879" lon="20.64237">
        <ele>131.174012</ele>
        <time>2020-09-22T07:53:05.352Z</time>
      </trkpt>
      <trkpt lat="66.41869" lon="20.64256">
        <ele>131.1597</ele>
        <time>2020-09-22T07:53:07.348Z</time>
      </trkpt>
      <trkpt lat="66.4186" lon="20.64275">
        <ele>131.145863</ele>
        <time>2020-09-22T07:53:09.326Z</time>
      </trkpt>
      <trkpt lat="66.41852" lon="20.64294">
        <ele>131.132695</ele>
        <time>2020-09-22T07:53:11.365Z</time>
      </trkpt>
      <trkpt lat="66.41843" lon="20.64313">
        <ele>131.119389</ele>
        <time>2020-09-22T07:53:13.352Z</time>
      </trkpt>
      <trkpt lat="66.41834" lon="20.64332">
        <ele>131.105815</ele>
        <time>2020-09-22T07:53:15.344Z</time>
      </trkpt>
      <trkpt lat="66.41825" lon="20.6435">
        <ele>131.092715</ele>
        <time>2020-09-22T07:53:17.359Z</time>
      </trkpt>
      <trkpt lat="66.41817" lon="20.64368">
        <ele>131.079878</ele>
        <time>2020-09-22T07:53:19.340Z</time>
      </trkpt>
      <trkpt lat="66.41808" lon="20.64387">
        <ele>131.066954</ele>
        <time>2020-09-22T07:53:21.338Z</time>
      </trkpt>
      <trkpt lat="66.418" lon="20.64404">
        <ele>131.054326</ele>
        <time>2020-09-22T07:53:23.340Z</time>
      </trkpt>
      <trkpt lat="66.41791" lon="20.64422">
        <ele>131.041576</ele>
        <time>2020-09-22T07:53:25.379Z</time>
      </trkpt>
      <trkpt lat="66.41783" lon="20.64441">
        <ele>131.028873</ele>
        <time>2020-09-22T07:53:27.352Z</time>
      </trkpt>
      <trkpt lat="66.41776" lon="20.64459">
        <ele>131.016821</ele>
        <time>2020-09-22T07:53:29.342Z</time>
      </trkpt>
      <trkpt lat="66.41768" lon="20.64475">
        <ele>131.005402</ele>
        <time>2020-09-22T07:53:31.334Z</time>
      </trkpt>
      <trkpt lat="66.41761" lon="20.6449">
        <ele>130.994837</ele>
        <time>2020-09-22T07:53:33.369Z</time>
      </trkpt>
      <trkpt lat="66.41751" lon="20.64512">
        <ele>130.988035</ele>
        <time>2020-09-22T07:53:36.358Z</time>
      </trkpt>
      <trkpt lat="66.41743" lon="20.64531">
        <ele>131.324477</ele>
        <time>2020-09-22T07:53:39.340Z</time>
      </trkpt>
      <trkpt lat="66.41734" lon="20.64549">
        <ele>131.639875</ele>
        <time>2020-09-22T07:53:42.360Z</time>
      </trkpt>
      <trkpt lat="66.41727" lon="20.64565">
        <ele>131.927708</ele>
        <time>2020-09-22T07:53:45.365Z</time>
      </trkpt>
      <trkpt lat="66.41719" lon="20.64582">
        <ele>132.220752</ele>
        <time>2020-09-22T07:53:48.356Z</time>
      </trkpt>
      <trkpt lat="66.41712" lon="20.64599">
        <ele>132.508886</ele>
        <time>2020-09-22T07:53:51.364Z</time>
      </trkpt>
      <trkpt lat="66.41704" lon="20.64616">
        <ele>132.791232</ele>
        <time>2020-09-22T07:53:54.333Z</time>
      </trkpt>
      <trkpt lat="66.41697" lon="20.64632">
        <ele>133.069126</ele>
        <time>2020-09-22T07:53:57.342Z</time>
      </trkpt>
      <trkpt lat="66.4169" lon="20.64649">
        <ele>133.350483</ele>
        <time>2020-09-22T07:54:00.334Z</time>
      </trkpt>
      <trkpt lat="66.41683" lon="20.64666">
        <ele>133.636302</ele>
        <time>2020-09-22T07:54:03.374Z</time>
      </trkpt>
      <trkpt lat="66.41675" lon="20.64683">
        <ele>133.930103</ele>
        <time>2020-09-22T07:54:06.336Z</time>
      </trkpt>
      <trkpt lat="66.41669" lon="20.64699">
        <ele>134.202092</ele>
        <time>2020-09-22T07:54:09.340Z</time>
      </trkpt>
      <trkpt lat="66.41661" lon="20.64717">
        <ele>134.487918</ele>
        <time>2020-09-22T07:54:12.373Z</time>
      </trkpt>
      <trkpt lat="66.41655" lon="20.64735">
        <ele>134.772953</ele>
        <time>2020-09-22T07:54:15.378Z</time>
      </trkpt>
      <trkpt lat="66.41647" lon="20.64753">
        <ele>135.06612</ele>
        <time>2020-09-22T07:54:18.341Z</time>
      </trkpt>
      <trkpt lat="66.4164" lon="20.64771">
        <ele>135.36374</ele>
        <time>2020-09-22T07:54:21.338Z</time>
      </trkpt>
      <trkpt lat="66.41633" lon="20.6479">
        <ele>135.654358</ele>
        <time>2020-09-22T07:54:24.370Z</time>
      </trkpt>
      <trkpt lat="66.41626" lon="20.64808">
        <ele>135.948317</ele>
        <time>2020-09-22T07:54:27.369Z</time>
      </trkpt>
      <trkpt lat="66.41619" lon="20.64825">
        <ele>136.16384</ele>
        <time>2020-09-22T07:54:30.360Z</time>
      </trkpt>
      <trkpt lat="66.41611" lon="20.64844">
        <ele>136.212932</ele>
        <time>2020-09-22T07:54:33.340Z</time>
      </trkpt>
      <trkpt lat="66.41604" lon="20.64862">
        <ele>136.261173</ele>
        <time>2020-09-22T07:54:36.365Z</time>
      </trkpt>
      <trkpt lat="66.41597" lon="20.6488">
        <ele>136.308103</ele>
        <time>2020-09-22T07:54:39.357Z</time>
      </trkpt>
      <trkpt lat="66.4159" lon="20.64899">
        <ele>136.356171</ele>
        <time>2020-09-22T07:54:42.369Z</time>
      </trkpt>
      <trkpt lat="66.41582" lon="20.64918">
        <ele>136.405549</ele>
        <time>2020-09-22T07:54:45.350Z</time>
      </trkpt>
      <trkpt lat="66.41575" lon="20.64937">
        <ele>136.454773</ele>
        <time>2020-09-22T07:54:48.342Z</time>
      </trkpt>
      <trkpt lat="66.41568" lon="20.64956">
        <ele>136.502492</ele>
        <time>2020-09-22T07:54:51.349Z</time>
      </trkpt>
      <trkpt lat="66.4156" lon="20.64973">
        <ele>136.548729</ele>
        <time>2020-09-22T07:54:54.341Z</time>
      </trkpt>
      <trkpt lat="66.41554" lon="20.64992">
        <ele>136.596856</ele>
        <time>2020-09-22T07:54:57.375Z</time>
      </trkpt>
      <trkpt lat="66.41546" lon="20.65009">
        <ele>136.643528</ele>
        <time>2020-09-22T07:55:00.361Z</time>
      </trkpt>
      <trkpt lat="66.41538" lon="20.65027">
        <ele>136.692561</ele>
        <time>2020-09-22T07:55:03.371Z</time>
      </trkpt>
      <trkpt lat="66.41531" lon="20.65047">
        <ele>136.742619</ele>
        <time>2020-09-22T07:55:06.350Z</time>
      </trkpt>
      <trkpt lat="66.41523" lon="20.65068">
        <ele>136.795715</ele>
        <time>2020-09-22T07:55:09.338Z</time>
      </trkpt>
      <trkpt lat="66.41515" lon="20.65088">
        <ele>136.847311</ele>
        <time>2020-09-22T07:55:12.344Z</time>
      </trkpt>
      <trkpt lat="66.41508" lon="20.65107">
        <ele>136.89752</ele>
        <time>2020-09-22T07:55:15.353Z</time>
      </trkpt>
      <trkpt lat="66.415" lon="20.65128">
        <ele>136.949474</ele>
        <time>2020-09-22T07:55:18.376Z</time>
      </trkpt>
      <trkpt lat="66.41493" lon="20.65149">
        <ele>137.02254</ele>
        <time>2020-09-22T07:55:21.357Z</time>
      </trkpt>
      <trkpt lat="66.41485" lon="20.6517">
        <ele>137.135183</ele>
        <time>2020-09-22T07:55:24.401Z</time>
      </trkpt>
      <trkpt lat="66.41477" lon="20.6519">
        <ele>137.248217</ele>
        <time>2020-09-22T07:55:27.356Z</time>
      </trkpt>
      <trkpt lat="66.41469" lon="20.65211">
        <ele>137.360764</ele>
        <time>2020-09-22T07:55:30.345Z</time>
      </trkpt>
      <trkpt lat="66.41461" lon="20.65234">
        <ele>137.479343</ele>
        <time>2020-09-22T07:55:33.355Z</time>
      </trkpt>
      <trkpt lat="66.41452" lon="20.65257">
        <ele>137.601435</ele>
        <time>2020-09-22T07:55:36.338Z</time>
      </trkpt>
      <trkpt lat="66.41444" lon="20.65282">
        <ele>137.731198</ele>
        <time>2020-09-22T07:55:39.349Z</time>
      </trkpt>
      <trkpt lat="66.41438" lon="20.65299">
        <ele>137.818776</ele>
        <time>2020-09-22T07:55:41.357Z</time>
      </trkpt>
      <trkpt lat="66.41429" lon="20.65324">
        <ele>137.947308</ele>
        <time>2020-09-22T07:55:44.374Z</time>
      </trkpt>
      <trkpt lat="66.41421" lon="20.65349">
        <ele>138.078602</ele>
        <time>2020-09-22T07:55:47.346Z</time>
      </trkpt>
      <trkpt lat="66.41415" lon="20.65366">
        <ele>138.16643</ele>
        <time>2020-09-22T07:55:49.353Z</time>
      </trkpt>
      <trkpt lat="66.41409" lon="20.65384">
        <ele>138.253924</ele>
        <time>2020-09-22T07:55:51.354Z</time>
      </trkpt>
      <trkpt lat="66.41404" lon="20.65401">
        <ele>138.342351</ele>
        <time>2020-09-22T07:55:53.365Z</time>
      </trkpt>
      <trkpt lat="66.41397" lon="20.65418">
        <ele>138.432107</ele>
        <time>2020-09-22T07:55:55.367Z</time>
      </trkpt>
      <trkpt lat="66.41391" lon="20.65436">
        <ele>138.523685</ele>
        <time>2020-09-22T07:55:57.351Z</time>
      </trkpt>
      <trkpt lat="66.41385" lon="20.65453">
        <ele>138.613976</ele>
        <time>2020-09-22T07:55:59.341Z</time>
      </trkpt>
      <trkpt lat="66.41379" lon="20.6547">
        <ele>138.705713</ele>
        <time>2020-09-22T07:56:01.340Z</time>
      </trkpt>
      <trkpt lat="66.41373" lon="20.65488">
        <ele>138.785625</ele>
        <time>2020-09-22T07:56:03.355Z</time>
      </trkpt>
      <trkpt lat="66.41366" lon="20.65505">
        <ele>138.858521</ele>
        <time>2020-09-22T07:56:05.360Z</time>
      </trkpt>
      <trkpt lat="66.4136" lon="20.65523">
        <ele>138.934876</ele>
        <time>2020-09-22T07:56:07.352Z</time>
      </trkpt>
      <trkpt lat="66.41353" lon="20.65542">
        <ele>139.014277</ele>
        <time>2020-09-22T07:56:09.341Z</time>
      </trkpt>
      <trkpt lat="66.41346" lon="20.65562">
        <ele>139.094317</ele>
        <time>2020-09-22T07:56:11.363Z</time>
      </trkpt>
      <trkpt lat="66.41339" lon="20.65582">
        <ele>139.175826</ele>
        <time>2020-09-22T07:56:13.339Z</time>
      </trkpt>
      <trkpt lat="66.41332" lon="20.65602">
        <ele>139.25672</ele>
        <time>2020-09-22T07:56:15.379Z</time>
      </trkpt>
      <trkpt lat="66.41326" lon="20.65622">
        <ele>139.337757</ele>
        <time>2020-09-22T07:56:17.359Z</time>
      </trkpt>
      <trkpt lat="66.41319" lon="20.65642">
        <ele>139.41972</ele>
        <time>2020-09-22T07:56:19.347Z</time>
      </trkpt>
      <trkpt lat="66.41312" lon="20.65664">
        <ele>139.505317</ele>
        <time>2020-09-22T07:56:21.362Z</time>
      </trkpt>
      <trkpt lat="66.41305" lon="20.65686">
        <ele>139.590665</ele>
        <time>2020-09-22T07:56:23.358Z</time>
      </trkpt>
      <trkpt lat="66.41298" lon="20.65707">
        <ele>139.677011</ele>
        <time>2020-09-22T07:56:25.377Z</time>
      </trkpt>
      <trkpt lat="66.41291" lon="20.65729">
        <ele>139.764785</ele>
        <time>2020-09-22T07:56:27.359Z</time>
      </trkpt>
      <trkpt lat="66.41284" lon="20.65751">
        <ele>139.851843</ele>
        <time>2020-09-22T07:56:29.353Z</time>
      </trkpt>
      <trkpt lat="66.41277" lon="20.65772">
        <ele>139.937953</ele>
        <time>2020-09-22T07:56:31.357Z</time>
      </trkpt>
      <trkpt lat="66.4127" lon="20.65792">
        <ele>140.021645</ele>
        <time>2020-09-22T07:56:33.380Z</time>
      </trkpt>
      <trkpt lat="66.41263" lon="20.65812">
        <ele>140.103657</ele>
        <time>2020-09-22T07:56:35.337Z</time>
      </trkpt>
      <trkpt lat="66.41255" lon="20.65832">
        <ele>140.115203</ele>
        <time>2020-09-22T07:56:37.364Z</time>
      </trkpt>
      <trkpt lat="66.41248" lon="20.65852">
        <ele>140.079281</ele>
        <time>2020-09-22T07:56:39.354Z</time>
      </trkpt>
      <trkpt lat="66.41241" lon="20.65872">
        <ele>140.04296</ele>
        <time>2020-09-22T07:56:41.344Z</time>
      </trkpt>
      <trkpt lat="66.41233" lon="20.65893">
        <ele>140.005068</ele>
        <time>2020-09-22T07:56:43.334Z</time>
      </trkpt>
      <trkpt lat="66.41226" lon="20.65913">
        <ele>139.968622</ele>
        <time>2020-09-22T07:56:45.353Z</time>
      </trkpt>
      <trkpt lat="66.41219" lon="20.65935">
        <ele>139.93139</ele>
        <time>2020-09-22T07:56:47.337Z</time>
      </trkpt>
      <trkpt lat="66.41212" lon="20.65955">
        <ele>139.895105</ele>
        <time>2020-09-22T07:56:49.390Z</time>
      </trkpt>
      <trkpt lat="66.41205" lon="20.65975">
        <ele>139.859649</ele>
        <time>2020-09-22T07:56:51.346Z</time>
      </trkpt>
      <trkpt lat="66.41198" lon="20.65995">
        <ele>139.824206</ele>
        <time>2020-09-22T07:56:53.344Z</time>
      </trkpt>
      <trkpt lat="66.41192" lon="20.66015">
        <ele>139.79106</ele>
        <time>2020-09-22T07:56:55.357Z</time>
      </trkpt>
      <trkpt lat="66.41185" lon="20.66035">
        <ele>139.754319</ele>
        <time>2020-09-22T07:56:57.352Z</time>
      </trkpt>
      <trkpt lat="66.41177" lon="20.66054">
        <ele>139.717727</ele>
        <time>2020-09-22T07:56:59.352Z</time>
      </trkpt>
      <trkpt lat="66.4117" lon="20.66073">
        <ele>139.6833</ele>
        <time>2020-09-22T07:57:01.380Z</time>
      </trkpt>
      <trkpt lat="66.41163" lon="20.66093">
        <ele>139.648165</ele>
        <time>2020-09-22T07:57:03.341Z</time>
      </trkpt>
      <trkpt lat="66.41157" lon="20.66114">
        <ele>139.61273</ele>
        <time>2020-09-22T07:57:05.353Z</time>
      </trkpt>
      <trkpt lat="66.4115" lon="20.66133">
        <ele>139.579702</ele>
        <time>2020-09-22T07:57:07.368Z</time>
      </trkpt>
      <trkpt lat="66.41144" lon="20.66152">
        <ele>139.545615</ele>
        <time>2020-09-22T07:57:09.343Z</time>
      </trkpt>
      <trkpt lat="66.41137" lon="20.6617">
        <ele>139.710808</ele>
        <time>2020-09-22T07:57:11.341Z</time>
      </trkpt>
      <trkpt lat="66.41131" lon="20.66189">
        <ele>139.979685</ele>
        <time>2020-09-22T07:57:13.337Z</time>
      </trkpt>
      <trkpt lat="66.41125" lon="20.66207">
        <ele>140.245825</ele>
        <time>2020-09-22T07:57:15.346Z</time>
      </trkpt>
      <trkpt lat="66.41119" lon="20.66225">
        <ele>140.509399</ele>
        <time>2020-09-22T07:57:17.356Z</time>
      </trkpt>
      <trkpt lat="66.41114" lon="20.66242">
        <ele>140.767584</ele>
        <time>2020-09-22T07:57:19.368Z</time>
      </trkpt>
      <trkpt lat="66.41108" lon="20.66259">
        <ele>141.024023</ele>
        <time>2020-09-22T07:57:21.379Z</time>
      </trkpt>
      <trkpt lat="66.411" lon="20.66284">
        <ele>141.386877</ele>
        <time>2020-09-22T07:57:24.332Z</time>
      </trkpt>
      <trkpt lat="66.41092" lon="20.6631">
        <ele>141.754202</ele>
        <time>2020-09-22T07:57:27.356Z</time>
      </trkpt>
      <trkpt lat="66.41084" lon="20.66335">
        <ele>142.122425</ele>
        <time>2020-09-22T07:57:30.337Z</time>
      </trkpt>
      <trkpt lat="66.41075" lon="20.6636">
        <ele>142.495902</ele>
        <time>2020-09-22T07:57:33.365Z</time>
      </trkpt>
      <trkpt lat="66.41068" lon="20.66384">
        <ele>142.837469</ele>
        <time>2020-09-22T07:57:36.373Z</time>
      </trkpt>
      <trkpt lat="66.41061" lon="20.66406">
        <ele>143.167516</ele>
        <time>2020-09-22T07:57:39.351Z</time>
      </trkpt>
      <trkpt lat="66.41053" lon="20.66429">
        <ele>143.494942</ele>
        <time>2020-09-22T07:57:42.349Z</time>
      </trkpt>
      <trkpt lat="66.41046" lon="20.66451">
        <ele>143.813444</ele>
        <time>2020-09-22T07:57:45.364Z</time>
      </trkpt>
      <trkpt lat="66.41039" lon="20.66472">
        <ele>144.134695</ele>
        <time>2020-09-22T07:57:48.344Z</time>
      </trkpt>
      <trkpt lat="66.41032" lon="20.66494">
        <ele>144.45939</ele>
        <time>2020-09-22T07:57:51.348Z</time>
      </trkpt>
      <trkpt lat="66.41024" lon="20.66517">
        <ele>144.76503</ele>
        <time>2020-09-22T07:57:54.378Z</time>
      </trkpt>
      <trkpt lat="66.41017" lon="20.66541">
        <ele>145.045836</ele>
        <time>2020-09-22T07:57:57.350Z</time>
      </trkpt>
      <trkpt lat="66.4101" lon="20.66564">
        <ele>145.31163</ele>
        <time>2020-09-22T07:58:00.352Z</time>
      </trkpt>
      <trkpt lat="66.41002" lon="20.66587">
        <ele>145.582406</ele>
        <time>2020-09-22T07:58:03.340Z</time>
      </trkpt>
      <trkpt lat="66.40995" lon="20.6661">
        <ele>145.850317</ele>
        <time>2020-09-22T07:58:06.353Z</time>
      </trkpt>
      <trkpt lat="66.40987" lon="20.66634">
        <ele>146.135446</ele>
        <time>2020-09-22T07:58:09.330Z</time>
      </trkpt>
      <trkpt lat="66.40978" lon="20.66658">
        <ele>146.430347</ele>
        <time>2020-09-22T07:58:12.357Z</time>
      </trkpt>
      <trkpt lat="66.40971" lon="20.66681">
        <ele>146.705487</ele>
        <time>2020-09-22T07:58:15.343Z</time>
      </trkpt>
      <trkpt lat="66.40962" lon="20.66705">
        <ele>146.995734</ele>
        <time>2020-09-22T07:58:18.354Z</time>
      </trkpt>
      <trkpt lat="66.40955" lon="20.66729">
        <ele>147.273685</ele>
        <time>2020-09-22T07:58:21.372Z</time>
      </trkpt>
      <trkpt lat="66.40947" lon="20.66754">
        <ele>147.568177</ele>
        <time>2020-09-22T07:58:24.349Z</time>
      </trkpt>
      <trkpt lat="66.4094" lon="20.66779">
        <ele>147.849455</ele>
        <time>2020-09-22T07:58:27.335Z</time>
      </trkpt>
      <trkpt lat="66.40933" lon="20.66805">
        <ele>148.135996</ele>
        <time>2020-09-22T07:58:30.333Z</time>
      </trkpt>
      <trkpt lat="66.40925" lon="20.6683">
        <ele>148.426993</ele>
        <time>2020-09-22T07:58:33.365Z</time>
      </trkpt>
      <trkpt lat="66.40917" lon="20.66857">
        <ele>148.730193</ele>
        <time>2020-09-22T07:58:36.388Z</time>
      </trkpt>
      <trkpt lat="66.40912" lon="20.66875">
        <ele>148.577614</ele>
        <time>2020-09-22T07:58:38.375Z</time>
      </trkpt>
      <trkpt lat="66.40906" lon="20.66893">
        <ele>148.352532</ele>
        <time>2020-09-22T07:58:40.373Z</time>
      </trkpt>
      <trkpt lat="66.409" lon="20.66912">
        <ele>148.119063</ele>
        <time>2020-09-22T07:58:42.353Z</time>
      </trkpt>
      <trkpt lat="66.40894" lon="20.66931">
        <ele>147.877235</ele>
        <time>2020-09-22T07:58:44.377Z</time>
      </trkpt>
      <trkpt lat="66.40888" lon="20.6695">
        <ele>147.647508</ele>
        <time>2020-09-22T07:58:46.336Z</time>
      </trkpt>
      <trkpt lat="66.40882" lon="20.66969">
        <ele>147.407851</ele>
        <time>2020-09-22T07:58:48.359Z</time>
      </trkpt>
      <trkpt lat="66.40876" lon="20.66989">
        <ele>147.166631</ele>
        <time>2020-09-22T07:58:50.342Z</time>
      </trkpt>
      <trkpt lat="66.4087" lon="20.67009">
        <ele>146.922395</ele>
        <time>2020-09-22T07:58:52.379Z</time>
      </trkpt>
      <trkpt lat="66.40864" lon="20.6703">
        <ele>146.666891</ele>
        <time>2020-09-22T07:58:54.356Z</time>
      </trkpt>
      <trkpt lat="66.40857" lon="20.67052">
        <ele>146.403553</ele>
        <time>2020-09-22T07:58:56.341Z</time>
      </trkpt>
      <trkpt lat="66.40851" lon="20.67073">
        <ele>146.143431</ele>
        <time>2020-09-22T07:58:58.358Z</time>
      </trkpt>
      <trkpt lat="66.40844" lon="20.67094">
        <ele>145.883223</ele>
        <time>2020-09-22T07:59:00.355Z</time>
      </trkpt>
      <trkpt lat="66.40838" lon="20.67116">
        <ele>145.626524</ele>
        <time>2020-09-22T07:59:02.375Z</time>
      </trkpt>
      <trkpt lat="66.40832" lon="20.67137">
        <ele>145.367436</ele>
        <time>2020-09-22T07:59:04.357Z</time>
      </trkpt>
      <trkpt lat="66.40825" lon="20.67158">
        <ele>145.108093</ele>
        <time>2020-09-22T07:59:06.339Z</time>
      </trkpt>
      <trkpt lat="66.40819" lon="20.67178">
        <ele>144.84875</ele>
        <time>2020-09-22T07:59:08.340Z</time>
      </trkpt>
      <trkpt lat="66.40812" lon="20.67198">
        <ele>144.60537</ele>
        <time>2020-09-22T07:59:10.355Z</time>
      </trkpt>
      <trkpt lat="66.40806" lon="20.6722">
        <ele>144.327858</ele>
        <time>2020-09-22T07:59:12.342Z</time>
      </trkpt>
      <trkpt lat="66.408" lon="20.67242">
        <ele>143.928167</ele>
        <time>2020-09-22T07:59:14.347Z</time>
      </trkpt>
      <trkpt lat="66.40794" lon="20.67264">
        <ele>143.521299</ele>
        <time>2020-09-22T07:59:16.341Z</time>
      </trkpt>
      <trkpt lat="66.40787" lon="20.67287">
        <ele>143.113377</ele>
        <time>2020-09-22T07:59:18.372Z</time>
      </trkpt>
      <trkpt lat="66.40782" lon="20.67312">
        <ele>142.704982</ele>
        <time>2020-09-22T07:59:20.343Z</time>
      </trkpt>
      <trkpt lat="66.40776" lon="20.67335">
        <ele>142.28514</ele>
        <time>2020-09-22T07:59:22.344Z</time>
      </trkpt>
      <trkpt lat="66.40769" lon="20.67358">
        <ele>141.870126</ele>
        <time>2020-09-22T07:59:24.355Z</time>
      </trkpt>
      <trkpt lat="66.40762" lon="20.67381">
        <ele>141.441985</ele>
        <time>2020-09-22T07:59:26.367Z</time>
      </trkpt>
      <trkpt lat="66.40755" lon="20.67405">
        <ele>141.004447</ele>
        <time>2020-09-22T07:59:28.355Z</time>
      </trkpt>
      <trkpt lat="66.40748" lon="20.6743">
        <ele>140.544459</ele>
        <time>2020-09-22T07:59:30.331Z</time>
      </trkpt>
      <trkpt lat="66.40741" lon="20.67456">
        <ele>140.085023</ele>
        <time>2020-09-22T07:59:32.362Z</time>
      </trkpt>
      <trkpt lat="66.40734" lon="20.67481">
        <ele>139.6374</ele>
        <time>2020-09-22T07:59:34.357Z</time>
      </trkpt>
      <trkpt lat="66.40727" lon="20.67506">
        <ele>139.188881</ele>
        <time>2020-09-22T07:59:36.385Z</time>
      </trkpt>
      <trkpt lat="66.4072" lon="20.67531">
        <ele>138.749892</ele>
        <time>2020-09-22T07:59:38.349Z</time>
      </trkpt>
      <trkpt lat="66.40713" lon="20.67554">
        <ele>138.3246</ele>
        <time>2020-09-22T07:59:40.336Z</time>
      </trkpt>
      <trkpt lat="66.40707" lon="20.67577">
        <ele>137.913411</ele>
        <time>2020-09-22T07:59:42.342Z</time>
      </trkpt>
      <trkpt lat="66.407" lon="20.67598">
        <ele>137.732881</ele>
        <time>2020-09-22T07:59:44.360Z</time>
      </trkpt>
      <trkpt lat="66.40694" lon="20.6762">
        <ele>137.684809</ele>
        <time>2020-09-22T07:59:46.382Z</time>
      </trkpt>
      <trkpt lat="66.40687" lon="20.67642">
        <ele>137.635945</ele>
        <time>2020-09-22T07:59:48.347Z</time>
      </trkpt>
      <trkpt lat="66.40681" lon="20.67665">
        <ele>137.587184</ele>
        <time>2020-09-22T07:59:50.351Z</time>
      </trkpt>
      <trkpt lat="66.40674" lon="20.67688">
        <ele>137.537452</ele>
        <time>2020-09-22T07:59:52.345Z</time>
      </trkpt>
      <trkpt lat="66.40668" lon="20.6771">
        <ele>137.488816</ele>
        <time>2020-09-22T07:59:54.364Z</time>
      </trkpt>
      <trkpt lat="66.40661" lon="20.67731">
        <ele>137.440603</ele>
        <time>2020-09-22T07:59:56.352Z</time>
      </trkpt>
      <trkpt lat="66.40654" lon="20.67753">
        <ele>137.391701</ele>
        <time>2020-09-22T07:59:58.379Z</time>
      </trkpt>
      <trkpt lat="66.40648" lon="20.67775">
        <ele>137.343206</ele>
        <time>2020-09-22T08:00:00.341Z</time>
      </trkpt>
      <trkpt lat="66.40642" lon="20.67796">
        <ele>137.29742</ele>
        <time>2020-09-22T08:00:02.378Z</time>
      </trkpt>
      <trkpt lat="66.40636" lon="20.67818">
        <ele>137.25018</ele>
        <time>2020-09-22T08:00:04.345Z</time>
      </trkpt>
      <trkpt lat="66.40629" lon="20.6784">
        <ele>137.202798</ele>
        <time>2020-09-22T08:00:06.343Z</time>
      </trkpt>
      <trkpt lat="66.40622" lon="20.67861">
        <ele>137.153907</ele>
        <time>2020-09-22T08:00:08.367Z</time>
      </trkpt>
      <trkpt lat="66.40615" lon="20.67882">
        <ele>137.105295</ele>
        <time>2020-09-22T08:00:10.340Z</time>
      </trkpt>
      <trkpt lat="66.40609" lon="20.67904">
        <ele>137.057469</ele>
        <time>2020-09-22T08:00:12.344Z</time>
      </trkpt>
      <trkpt lat="66.40603" lon="20.67925">
        <ele>137.012583</ele>
        <time>2020-09-22T08:00:14.352Z</time>
      </trkpt>
      <trkpt lat="66.40597" lon="20.67945">
        <ele>136.968916</ele>
        <time>2020-09-22T08:00:16.368Z</time>
      </trkpt>
      <trkpt lat="66.40592" lon="20.67965">
        <ele>137.160278</ele>
        <time>2020-09-22T08:00:18.351Z</time>
      </trkpt>
      <trkpt lat="66.40586" lon="20.67985">
        <ele>137.355857</ele>
        <time>2020-09-22T08:00:20.354Z</time>
      </trkpt>
      <trkpt lat="66.4058" lon="20.68005">
        <ele>137.556588</ele>
        <time>2020-09-22T08:00:22.376Z</time>
      </trkpt>
      <trkpt lat="66.40574" lon="20.68026">
        <ele>137.76237</ele>
        <time>2020-09-22T08:00:24.355Z</time>
      </trkpt>
      <trkpt lat="66.40568" lon="20.68046">
        <ele>137.962559</ele>
        <time>2020-09-22T08:00:26.352Z</time>
      </trkpt>
      <trkpt lat="66.40562" lon="20.68066">
        <ele>138.15651</ele>
        <time>2020-09-22T08:00:28.368Z</time>
      </trkpt>
      <trkpt lat="66.40557" lon="20.68086">
        <ele>138.352289</ele>
        <time>2020-09-22T08:00:30.368Z</time>
      </trkpt>
      <trkpt lat="66.4055" lon="20.68105">
        <ele>138.547905</ele>
        <time>2020-09-22T08:00:32.364Z</time>
      </trkpt>
      <trkpt lat="66.40545" lon="20.68123">
        <ele>138.732274</ele>
        <time>2020-09-22T08:00:34.348Z</time>
      </trkpt>
      <trkpt lat="66.40539" lon="20.68141">
        <ele>138.921652</ele>
        <time>2020-09-22T08:00:36.363Z</time>
      </trkpt>
      <trkpt lat="66.40532" lon="20.68159">
        <ele>139.109949</ele>
        <time>2020-09-22T08:00:38.381Z</time>
      </trkpt>
      <trkpt lat="66.40527" lon="20.68176">
        <ele>139.289387</ele>
        <time>2020-09-22T08:00:40.368Z</time>
      </trkpt>
      <trkpt lat="66.40521" lon="20.68193">
        <ele>139.471339</ele>
        <time>2020-09-22T08:00:42.358Z</time>
      </trkpt>
      <trkpt lat="66.40514" lon="20.68209">
        <ele>139.655065</ele>
        <time>2020-09-22T08:00:44.357Z</time>
      </trkpt>
      <trkpt lat="66.40505" lon="20.68233">
        <ele>139.925031</ele>
        <time>2020-09-22T08:00:47.343Z</time>
      </trkpt>
      <trkpt lat="66.40496" lon="20.68257">
        <ele>140.187541</ele>
        <time>2020-09-22T08:00:50.348Z</time>
      </trkpt>
      <trkpt lat="66.40487" lon="20.68282">
        <ele>140.447711</ele>
        <time>2020-09-22T08:00:53.354Z</time>
      </trkpt>
      <trkpt lat="66.40481" lon="20.68298">
        <ele>140.664323</ele>
        <time>2020-09-22T08:00:55.343Z</time>
      </trkpt>
      <trkpt lat="66.40472" lon="20.68322">
        <ele>141.0747</ele>
        <time>2020-09-22T08:00:58.352Z</time>
      </trkpt>
      <trkpt lat="66.40466" lon="20.68338">
        <ele>141.360015</ele>
        <time>2020-09-22T08:01:00.377Z</time>
      </trkpt>
      <trkpt lat="66.40459" lon="20.68355">
        <ele>141.647681</ele>
        <time>2020-09-22T08:01:02.367Z</time>
      </trkpt>
      <trkpt lat="66.40453" lon="20.68372">
        <ele>141.932623</ele>
        <time>2020-09-22T08:01:04.331Z</time>
      </trkpt>
      <trkpt lat="66.40447" lon="20.68388">
        <ele>142.22102</ele>
        <time>2020-09-22T08:01:06.332Z</time>
      </trkpt>
      <trkpt lat="66.4044" lon="20.68405">
        <ele>142.508404</ele>
        <time>2020-09-22T08:01:08.366Z</time>
      </trkpt>
      <trkpt lat="66.40434" lon="20.68422">
        <ele>142.804749</ele>
        <time>2020-09-22T08:01:10.362Z</time>
      </trkpt>
      <trkpt lat="66.40427" lon="20.68438">
        <ele>143.095353</ele>
        <time>2020-09-22T08:01:12.367Z</time>
      </trkpt>
      <trkpt lat="66.4042" lon="20.68454">
        <ele>143.382981</ele>
        <time>2020-09-22T08:01:14.396Z</time>
      </trkpt>
      <trkpt lat="66.40414" lon="20.68469">
        <ele>143.66867</ele>
        <time>2020-09-22T08:01:16.342Z</time>
      </trkpt>
      <trkpt lat="66.40407" lon="20.68485">
        <ele>143.955196</ele>
        <time>2020-09-22T08:01:18.340Z</time>
      </trkpt>
      <trkpt lat="66.40399" lon="20.685">
        <ele>144.255904</ele>
        <time>2020-09-22T08:01:20.359Z</time>
      </trkpt>
      <trkpt lat="66.40393" lon="20.68516">
        <ele>144.544963</ele>
        <time>2020-09-22T08:01:22.353Z</time>
      </trkpt>
      <trkpt lat="66.40386" lon="20.68531">
        <ele>144.827499</ele>
        <time>2020-09-22T08:01:24.334Z</time>
      </trkpt>
      <trkpt lat="66.40376" lon="20.68552">
        <ele>145.239323</ele>
        <time>2020-09-22T08:01:27.340Z</time>
      </trkpt>
      <trkpt lat="66.40365" lon="20.68574">
        <ele>145.66715</ele>
        <time>2020-09-22T08:01:30.335Z</time>
      </trkpt>
      <trkpt lat="66.40358" lon="20.68589">
        <ele>145.95434</ele>
        <time>2020-09-22T08:01:32.366Z</time>
      </trkpt>
      <trkpt lat="66.40352" lon="20.68605">
        <ele>146.177142</ele>
        <time>2020-09-22T08:01:34.330Z</time>
      </trkpt>
      <trkpt lat="66.40342" lon="20.68625">
        <ele>146.156541</ele>
        <time>2020-09-22T08:01:37.346Z</time>
      </trkpt>
      <trkpt lat="66.40332" lon="20.68645">
        <ele>146.135363</ele>
        <time>2020-09-22T08:01:40.348Z</time>
      </trkpt>
      <trkpt lat="66.40321" lon="20.68664">
        <ele>146.114363</ele>
        <time>2020-09-22T08:01:43.352Z</time>
      </trkpt>
      <trkpt lat="66.40311" lon="20.68684">
        <ele>146.093307</ele>
        <time>2020-09-22T08:01:46.353Z</time>
      </trkpt>
      <trkpt lat="66.40301" lon="20.68704">
        <ele>146.072002</ele>
        <time>2020-09-22T08:01:49.336Z</time>
      </trkpt>
      <trkpt lat="66.4029" lon="20.68724">
        <ele>146.050885</ele>
        <time>2020-09-22T08:01:52.337Z</time>
      </trkpt>
      <trkpt lat="66.4028" lon="20.68745">
        <ele>146.029213</ele>
        <time>2020-09-22T08:01:55.350Z</time>
      </trkpt>
      <trkpt lat="66.4027" lon="20.68766">
        <ele>146.007497</ele>
        <time>2020-09-22T08:01:58.332Z</time>
      </trkpt>
      <trkpt lat="66.40262" lon="20.68778">
        <ele>145.992688</ele>
        <time>2020-09-22T08:02:00.338Z</time>
      </trkpt>
      <trkpt lat="66.40254" lon="20.68791">
        <ele>145.977397</ele>
        <time>2020-09-22T08:02:02.377Z</time>
      </trkpt>
      <trkpt lat="66.40246" lon="20.68804">
        <ele>145.962232</ele>
        <time>2020-09-22T08:02:04.344Z</time>
      </trkpt>
      <trkpt lat="66.40238" lon="20.68817">
        <ele>145.946941</ele>
        <time>2020-09-22T08:02:06.337Z</time>
      </trkpt>
      <trkpt lat="66.4023" lon="20.6883">
        <ele>145.931478</ele>
        <time>2020-09-22T08:02:08.356Z</time>
      </trkpt>
      <trkpt lat="66.40222" lon="20.68843">
        <ele>145.916222</ele>
        <time>2020-09-22T08:02:10.354Z</time>
      </trkpt>
      <trkpt lat="66.40215" lon="20.68855">
        <ele>145.900931</ele>
        <time>2020-09-22T08:02:12.348Z</time>
      </trkpt>
      <trkpt lat="66.40207" lon="20.68869">
        <ele>145.867294</ele>
        <time>2020-09-22T08:02:14.373Z</time>
      </trkpt>
      <trkpt lat="66.40198" lon="20.68883">
        <ele>145.754088</ele>
        <time>2020-09-22T08:02:16.355Z</time>
      </trkpt>
      <trkpt lat="66.4019" lon="20.68896">
        <ele>145.648626</ele>
        <time>2020-09-22T08:02:18.393Z</time>
      </trkpt>
      <trkpt lat="66.40181" lon="20.68907">
        <ele>145.53878</ele>
        <time>2020-09-22T08:02:20.342Z</time>
      </trkpt>
      <trkpt lat="66.40172" lon="20.68919">
        <ele>145.427334</ele>
        <time>2020-09-22T08:02:22.356Z</time>
      </trkpt>
      <trkpt lat="66.40163" lon="20.68931">
        <ele>145.314635</ele>
        <time>2020-09-22T08:02:24.334Z</time>
      </trkpt>
      <trkpt lat="66.40155" lon="20.68943">
        <ele>145.20529</ele>
        <time>2020-09-22T08:02:26.349Z</time>
      </trkpt>
      <trkpt lat="66.40147" lon="20.68957">
        <ele>145.094821</ele>
        <time>2020-09-22T08:02:28.348Z</time>
      </trkpt>
      <trkpt lat="66.40138" lon="20.68969">
        <ele>144.982008</ele>
        <time>2020-09-22T08:02:30.344Z</time>
      </trkpt>
      <trkpt lat="66.40129" lon="20.6898">
        <ele>144.874736</ele>
        <time>2020-09-22T08:02:32.337Z</time>
      </trkpt>
      <trkpt lat="66.40121" lon="20.68992">
        <ele>144.769766</ele>
        <time>2020-09-22T08:02:34.357Z</time>
      </trkpt>
      <trkpt lat="66.40113" lon="20.69004">
        <ele>144.663154</ele>
        <time>2020-09-22T08:02:36.348Z</time>
      </trkpt>
      <trkpt lat="66.40104" lon="20.69016">
        <ele>144.551502</ele>
        <time>2020-09-22T08:02:38.362Z</time>
      </trkpt>
      <trkpt lat="66.40095" lon="20.69028">
        <ele>144.440626</ele>
        <time>2020-09-22T08:02:40.351Z</time>
      </trkpt>
      <trkpt lat="66.40086" lon="20.69039">
        <ele>144.326797</ele>
        <time>2020-09-22T08:02:42.338Z</time>
      </trkpt>
      <trkpt lat="66.40077" lon="20.6905">
        <ele>144.212575</ele>
        <time>2020-09-22T08:02:44.377Z</time>
      </trkpt>
      <trkpt lat="66.40068" lon="20.69061">
        <ele>144.10491</ele>
        <time>2020-09-22T08:02:46.353Z</time>
      </trkpt>
      <trkpt lat="66.4006" lon="20.69071">
        <ele>144.003025</ele>
        <time>2020-09-22T08:02:48.340Z</time>
      </trkpt>
      <trkpt lat="66.40051" lon="20.69081">
        <ele>143.898902</ele>
        <time>2020-09-22T08:02:50.356Z</time>
      </trkpt>
      <trkpt lat="66.40043" lon="20.69091">
        <ele>144.113804</ele>
        <time>2020-09-22T08:02:52.379Z</time>
      </trkpt>
      <trkpt lat="66.40035" lon="20.691">
        <ele>144.369695</ele>
        <time>2020-09-22T08:02:54.338Z</time>
      </trkpt>
      <trkpt lat="66.40023" lon="20.69113">
        <ele>144.748936</ele>
        <time>2020-09-22T08:02:57.341Z</time>
      </trkpt>
      <trkpt lat="66.40011" lon="20.69125">
        <ele>145.107658</ele>
        <time>2020-09-22T08:03:00.337Z</time>
      </trkpt>
      <trkpt lat="66.4" lon="20.69137">
        <ele>145.44414</ele>
        <time>2020-09-22T08:03:03.363Z</time>
      </trkpt>
      <trkpt lat="66.39989" lon="20.69149">
        <ele>145.793697</ele>
        <time>2020-09-22T08:03:06.353Z</time>
      </trkpt>
      <trkpt lat="66.39978" lon="20.6916">
        <ele>146.135027</ele>
        <time>2020-09-22T08:03:09.363Z</time>
      </trkpt>
      <trkpt lat="66.39967" lon="20.6917">
        <ele>146.464367</ele>
        <time>2020-09-22T08:03:12.338Z</time>
      </trkpt>
      <trkpt lat="66.39956" lon="20.69179">
        <ele>146.779215</ele>
        <time>2020-09-22T08:03:15.351Z</time>
      </trkpt>
      <trkpt lat="66.39947" lon="20.69189">
        <ele>147.075556</ele>
        <time>2020-09-22T08:03:18.356Z</time>
      </trkpt>
      <trkpt lat="66.39937" lon="20.69197">
        <ele>147.362928</ele>
        <time>2020-09-22T08:03:21.396Z</time>
      </trkpt>
      <trkpt lat="66.39928" lon="20.69206">
        <ele>147.648043</ele>
        <time>2020-09-22T08:03:24.357Z</time>
      </trkpt>
      <trkpt lat="66.39919" lon="20.69215">
        <ele>147.919524</ele>
        <time>2020-09-22T08:03:27.368Z</time>
      </trkpt>
      <trkpt lat="66.3991" lon="20.69224">
        <ele>148.174818</ele>
        <time>2020-09-22T08:03:30.374Z</time>
      </trkpt>
      <trkpt lat="66.39902" lon="20.69232">
        <ele>148.437369</ele>
        <time>2020-09-22T08:03:33.348Z</time>
      </trkpt>
      <trkpt lat="66.39893" lon="20.6924">
        <ele>148.711363</ele>
        <time>2020-09-22T08:03:36.343Z</time>
      </trkpt>
      <trkpt lat="66.39883" lon="20.69247">
        <ele>148.984803</ele>
        <time>2020-09-22T08:03:39.358Z</time>
      </trkpt>
      <trkpt lat="66.39874" lon="20.69255">
        <ele>149.130994</ele>
        <time>2020-09-22T08:03:42.384Z</time>
      </trkpt>
      <trkpt lat="66.39865" lon="20.69262">
        <ele>149.27302</ele>
        <time>2020-09-22T08:03:45.376Z</time>
      </trkpt>
      <trkpt lat="66.39856" lon="20.69269">
        <ele>149.408863</ele>
        <time>2020-09-22T08:03:48.365Z</time>
      </trkpt>
      <trkpt lat="66.39847" lon="20.69275">
        <ele>149.545967</ele>
        <time>2020-09-22T08:03:51.353Z</time>
      </trkpt>
      <trkpt lat="66.39838" lon="20.69282">
        <ele>149.687835</ele>
        <time>2020-09-22T08:03:54.352Z</time>
      </trkpt>
      <trkpt lat="66.39828" lon="20.69288">
        <ele>149.839856</ele>
        <time>2020-09-22T08:03:57.352Z</time>
      </trkpt>
      <trkpt lat="66.39818" lon="20.69294">
        <ele>149.993864</ele>
        <time>2020-09-22T08:04:00.349Z</time>
      </trkpt>
      <trkpt lat="66.39809" lon="20.69299">
        <ele>150.136854</ele>
        <time>2020-09-22T08:04:03.341Z</time>
      </trkpt>
      <trkpt lat="66.39799" lon="20.69305">
        <ele>150.287704</ele>
        <time>2020-09-22T08:04:06.346Z</time>
      </trkpt>
      <trkpt lat="66.39788" lon="20.69311">
        <ele>150.451198</ele>
        <time>2020-09-22T08:04:09.381Z</time>
      </trkpt>
      <trkpt lat="66.39778" lon="20.69318">
        <ele>150.610237</ele>
        <time>2020-09-22T08:04:12.347Z</time>
      </trkpt>
      <trkpt lat="66.39767" lon="20.69323">
        <ele>150.767096</ele>
        <time>2020-09-22T08:04:15.372Z</time>
      </trkpt>
      <trkpt lat="66.39757" lon="20.69329">
        <ele>150.928726</ele>
        <time>2020-09-22T08:04:18.363Z</time>
      </trkpt>
      <trkpt lat="66.39746" lon="20.69334">
        <ele>151.084472</ele>
        <time>2020-09-22T08:04:21.346Z</time>
      </trkpt>
      <trkpt lat="66.39736" lon="20.69339">
        <ele>151.241556</ele>
        <time>2020-09-22T08:04:24.360Z</time>
      </trkpt>
      <trkpt lat="66.39726" lon="20.69345">
        <ele>151.400687</ele>
        <time>2020-09-22T08:04:27.365Z</time>
      </trkpt>
      <trkpt lat="66.39716" lon="20.6935">
        <ele>151.552324</ele>
        <time>2020-09-22T08:04:30.361Z</time>
      </trkpt>
      <trkpt lat="66.39705" lon="20.69355">
        <ele>151.570849</ele>
        <time>2020-09-22T08:04:33.387Z</time>
      </trkpt>
      <trkpt lat="66.39695" lon="20.6936">
        <ele>151.332121</ele>
        <time>2020-09-22T08:04:36.337Z</time>
      </trkpt>
      <trkpt lat="66.39685" lon="20.69365">
        <ele>151.089477</ele>
        <time>2020-09-22T08:04:39.368Z</time>
      </trkpt>
      <trkpt lat="66.39674" lon="20.69372">
        <ele>150.821214</ele>
        <time>2020-09-22T08:04:42.348Z</time>
      </trkpt>
      <trkpt lat="66.39662" lon="20.69375">
        <ele>150.546274</ele>
        <time>2020-09-22T08:04:45.331Z</time>
      </trkpt>
      <trkpt lat="66.39652" lon="20.6938">
        <ele>150.292826</ele>
        <time>2020-09-22T08:04:48.358Z</time>
      </trkpt>
      <trkpt lat="66.39641" lon="20.69385">
        <ele>150.029616</ele>
        <time>2020-09-22T08:04:51.346Z</time>
      </trkpt>
      <trkpt lat="66.39629" lon="20.69391">
        <ele>149.751103</ele>
        <time>2020-09-22T08:04:54.354Z</time>
      </trkpt>
      <trkpt lat="66.39617" lon="20.69397">
        <ele>149.464091</ele>
        <time>2020-09-22T08:04:57.373Z</time>
      </trkpt>
      <trkpt lat="66.39605" lon="20.69401">
        <ele>149.167301</ele>
        <time>2020-09-22T08:05:00.352Z</time>
      </trkpt>
      <trkpt lat="66.39596" lon="20.69404">
        <ele>148.956158</ele>
        <time>2020-09-22T08:05:02.366Z</time>
      </trkpt>
      <trkpt lat="66.39583" lon="20.6941">
        <ele>148.648321</ele>
        <time>2020-09-22T08:05:05.355Z</time>
      </trkpt>
      <trkpt lat="66.39571" lon="20.69416">
        <ele>148.363083</ele>
        <time>2020-09-22T08:05:08.369Z</time>
      </trkpt>
      <trkpt lat="66.39559" lon="20.69423">
        <ele>148.075863</ele>
        <time>2020-09-22T08:05:11.374Z</time>
      </trkpt>
      <trkpt lat="66.39547" lon="20.69429">
        <ele>147.783523</ele>
        <time>2020-09-22T08:05:14.336Z</time>
      </trkpt>
      <trkpt lat="66.39534" lon="20.69435">
        <ele>147.472877</ele>
        <time>2020-09-22T08:05:17.370Z</time>
      </trkpt>
      <trkpt lat="66.39525" lon="20.69439">
        <ele>147.221219</ele>
        <time>2020-09-22T08:05:19.376Z</time>
      </trkpt>
      <trkpt lat="66.39516" lon="20.69443">
        <ele>146.958591</ele>
        <time>2020-09-22T08:05:21.344Z</time>
      </trkpt>
      <trkpt lat="66.39504" lon="20.69449">
        <ele>146.589853</ele>
        <time>2020-09-22T08:05:24.353Z</time>
      </trkpt>
      <trkpt lat="66.39491" lon="20.69454">
        <ele>146.216199</ele>
        <time>2020-09-22T08:05:27.350Z</time>
      </trkpt>
      <trkpt lat="66.39478" lon="20.6946">
        <ele>145.844812</ele>
        <time>2020-09-22T08:05:30.350Z</time>
      </trkpt>
      <trkpt lat="66.39465" lon="20.69465">
        <ele>145.456271</ele>
        <time>2020-09-22T08:05:33.336Z</time>
      </trkpt>
      <trkpt lat="66.39456" lon="20.69469">
        <ele>145.185475</ele>
        <time>2020-09-22T08:05:35.340Z</time>
      </trkpt>
      <trkpt lat="66.39447" lon="20.69473">
        <ele>144.9204</ele>
        <time>2020-09-22T08:05:37.372Z</time>
      </trkpt>
      <trkpt lat="66.39438" lon="20.69477">
        <ele>144.656889</ele>
        <time>2020-09-22T08:05:39.339Z</time>
      </trkpt>
      <trkpt lat="66.39425" lon="20.69484">
        <ele>144.272152</ele>
        <time>2020-09-22T08:05:42.345Z</time>
      </trkpt>
      <trkpt lat="66.39413" lon="20.69492">
        <ele>143.902716</ele>
        <time>2020-09-22T08:05:45.342Z</time>
      </trkpt>
      <trkpt lat="66.394" lon="20.69501">
        <ele>143.51275</ele>
        <time>2020-09-22T08:05:48.393Z</time>
      </trkpt>
      <trkpt lat="66.39391" lon="20.69507">
        <ele>143.236819</ele>
        <time>2020-09-22T08:05:50.371Z</time>
      </trkpt>
      <trkpt lat="66.39381" lon="20.69512">
        <ele>142.955317</ele>
        <time>2020-09-22T08:05:52.363Z</time>
      </trkpt>
      <trkpt lat="66.39372" lon="20.69516">
        <ele>142.685654</ele>
        <time>2020-09-22T08:05:54.362Z</time>
      </trkpt>
      <trkpt lat="66.39363" lon="20.69522">
        <ele>142.410301</ele>
        <time>2020-09-22T08:05:56.372Z</time>
      </trkpt>
      <trkpt lat="66.39354" lon="20.69527">
        <ele>142.215355</ele>
        <time>2020-09-22T08:05:58.360Z</time>
      </trkpt>
      <trkpt lat="66.39345" lon="20.69534">
        <ele>142.252615</ele>
        <time>2020-09-22T08:06:00.361Z</time>
      </trkpt>
      <trkpt lat="66.39336" lon="20.6954">
        <ele>142.289994</ele>
        <time>2020-09-22T08:06:02.347Z</time>
      </trkpt>
      <trkpt lat="66.39327" lon="20.69546">
        <ele>142.326636</ele>
        <time>2020-09-22T08:06:04.355Z</time>
      </trkpt>
      <trkpt lat="66.39314" lon="20.69554">
        <ele>142.378481</ele>
        <time>2020-09-22T08:06:07.379Z</time>
      </trkpt>
      <trkpt lat="66.39301" lon="20.69563">
        <ele>142.430709</ele>
        <time>2020-09-22T08:06:10.356Z</time>
      </trkpt>
      <trkpt lat="66.39288" lon="20.69573">
        <ele>142.484899</ele>
        <time>2020-09-22T08:06:13.364Z</time>
      </trkpt>
      <trkpt lat="66.39279" lon="20.69581">
        <ele>142.523024</ele>
        <time>2020-09-22T08:06:15.385Z</time>
      </trkpt>
      <trkpt lat="66.3927" lon="20.69588">
        <ele>142.561424</ele>
        <time>2020-09-22T08:06:17.356Z</time>
      </trkpt>
      <trkpt lat="66.39261" lon="20.69595">
        <ele>142.598169</ele>
        <time>2020-09-22T08:06:19.341Z</time>
      </trkpt>
      <trkpt lat="66.39252" lon="20.69602">
        <ele>142.635717</ele>
        <time>2020-09-22T08:06:21.346Z</time>
      </trkpt>
      <trkpt lat="66.39243" lon="20.69609">
        <ele>142.673357</ele>
        <time>2020-09-22T08:06:23.352Z</time>
      </trkpt>
      <trkpt lat="66.39234" lon="20.69617">
        <ele>142.711707</ele>
        <time>2020-09-22T08:06:25.354Z</time>
      </trkpt>
      <trkpt lat="66.39225" lon="20.69624">
        <ele>142.748878</ele>
        <time>2020-09-22T08:06:27.335Z</time>
      </trkpt>
      <trkpt lat="66.39216" lon="20.69632">
        <ele>142.787379</ele>
        <time>2020-09-22T08:06:29.357Z</time>
      </trkpt>
      <trkpt lat="66.39207" lon="20.6964">
        <ele>142.825026</ele>
        <time>2020-09-22T08:06:31.363Z</time>
      </trkpt>
      <trkpt lat="66.39198" lon="20.69648">
        <ele>142.862136</ele>
        <time>2020-09-22T08:06:33.334Z</time>
      </trkpt>
      <trkpt lat="66.39189" lon="20.69656">
        <ele>142.899783</ele>
        <time>2020-09-22T08:06:35.369Z</time>
      </trkpt>
      <trkpt lat="66.3918" lon="20.69665">
        <ele>142.935006</ele>
        <time>2020-09-22T08:06:37.354Z</time>
      </trkpt>
      <trkpt lat="66.39171" lon="20.69674">
        <ele>142.967265</ele>
        <time>2020-09-22T08:06:39.368Z</time>
      </trkpt>
      <trkpt lat="66.39162" lon="20.69683">
        <ele>142.999573</ele>
        <time>2020-09-22T08:06:41.349Z</time>
      </trkpt>
      <trkpt lat="66.39152" lon="20.69692">
        <ele>143.033002</ele>
        <time>2020-09-22T08:06:43.343Z</time>
      </trkpt>
      <trkpt lat="66.39143" lon="20.69701">
        <ele>143.065821</ele>
        <time>2020-09-22T08:06:45.346Z</time>
      </trkpt>
      <trkpt lat="66.39133" lon="20.69711">
        <ele>143.09928</ele>
        <time>2020-09-22T08:06:47.349Z</time>
      </trkpt>
      <trkpt lat="66.39123" lon="20.69721">
        <ele>143.13395</ele>
        <time>2020-09-22T08:06:49.365Z</time>
      </trkpt>
      <trkpt lat="66.39113" lon="20.69731">
        <ele>143.168413</ele>
        <time>2020-09-22T08:06:51.352Z</time>
      </trkpt>
      <trkpt lat="66.39103" lon="20.69741">
        <ele>143.204887</ele>
        <time>2020-09-22T08:06:53.353Z</time>
      </trkpt>
      <trkpt lat="66.39093" lon="20.69752">
        <ele>143.241809</ele>
        <time>2020-09-22T08:06:55.340Z</time>
      </trkpt>
      <trkpt lat="66.39082" lon="20.69765">
        <ele>143.27997</ele>
        <time>2020-09-22T08:06:57.339Z</time>
      </trkpt>
      <trkpt lat="66.39071" lon="20.69777">
        <ele>143.319828</ele>
        <time>2020-09-22T08:06:59.338Z</time>
      </trkpt>
      <trkpt lat="66.39061" lon="20.6979">
        <ele>143.355004</ele>
        <time>2020-09-22T08:07:01.380Z</time>
      </trkpt>
      <trkpt lat="66.39051" lon="20.69803">
        <ele>143.391928</ele>
        <time>2020-09-22T08:07:03.363Z</time>
      </trkpt>
      <trkpt lat="66.3904" lon="20.69813">
        <ele>143.430109</ele>
        <time>2020-09-22T08:07:05.335Z</time>
      </trkpt>
      <trkpt lat="66.3903" lon="20.69827">
        <ele>143.468321</ele>
        <time>2020-09-22T08:07:07.370Z</time>
      </trkpt>
      <trkpt lat="66.39019" lon="20.69841">
        <ele>143.477184</ele>
        <time>2020-09-22T08:07:09.361Z</time>
      </trkpt>
      <trkpt lat="66.39007" lon="20.69855">
        <ele>143.070692</ele>
        <time>2020-09-22T08:07:11.368Z</time>
      </trkpt>
      <trkpt lat="66.38996" lon="20.69869">
        <ele>142.673235</ele>
        <time>2020-09-22T08:07:13.350Z</time>
      </trkpt>
      <trkpt lat="66.38985" lon="20.69884">
        <ele>142.270647</ele>
        <time>2020-09-22T08:07:15.342Z</time>
      </trkpt>
      <trkpt lat="66.38974" lon="20.69899">
        <ele>141.870258</ele>
        <time>2020-09-22T08:07:17.362Z</time>
      </trkpt>
      <trkpt lat="66.38962" lon="20.69913">
        <ele>141.467749</ele>
        <time>2020-09-22T08:07:19.350Z</time>
      </trkpt>
      <trkpt lat="66.38951" lon="20.69928">
        <ele>141.056755</ele>
        <time>2020-09-22T08:07:21.345Z</time>
      </trkpt>
      <trkpt lat="66.38939" lon="20.69943">
        <ele>140.642949</ele>
        <time>2020-09-22T08:07:23.371Z</time>
      </trkpt>
      <trkpt lat="66.38927" lon="20.69958">
        <ele>140.221691</ele>
        <time>2020-09-22T08:07:25.352Z</time>
      </trkpt>
      <trkpt lat="66.38914" lon="20.69975">
        <ele>139.75708</ele>
        <time>2020-09-22T08:07:27.357Z</time>
      </trkpt>
      <trkpt lat="66.38902" lon="20.69989">
        <ele>139.348891</ele>
        <time>2020-09-22T08:07:29.353Z</time>
      </trkpt>
      <trkpt lat="66.3889" lon="20.70005">
        <ele>138.919687</ele>
        <time>2020-09-22T08:07:31.358Z</time>
      </trkpt>
      <trkpt lat="66.38878" lon="20.70021">
        <ele>138.485492</ele>
        <time>2020-09-22T08:07:33.345Z</time>
      </trkpt>
      <trkpt lat="66.38866" lon="20.70038">
        <ele>138.049902</ele>
        <time>2020-09-22T08:07:35.355Z</time>
      </trkpt>
      <trkpt lat="66.38854" lon="20.70055">
        <ele>137.680942</ele>
        <time>2020-09-22T08:07:37.382Z</time>
      </trkpt>
      <trkpt lat="66.38842" lon="20.70071">
        <ele>137.389791</ele>
        <time>2020-09-22T08:07:39.360Z</time>
      </trkpt>
      <trkpt lat="66.38829" lon="20.70087">
        <ele>137.089298</ele>
        <time>2020-09-22T08:07:41.373Z</time>
      </trkpt>
      <trkpt lat="66.38817" lon="20.70103">
        <ele>136.803451</ele>
        <time>2020-09-22T08:07:43.355Z</time>
      </trkpt>
      <trkpt lat="66.38805" lon="20.7012">
        <ele>136.517053</ele>
        <time>2020-09-22T08:07:45.377Z</time>
      </trkpt>
      <trkpt lat="66.38793" lon="20.70136">
        <ele>136.223489</ele>
        <time>2020-09-22T08:07:47.361Z</time>
      </trkpt>
      <trkpt lat="66.3878" lon="20.70153">
        <ele>135.92861</ele>
        <time>2020-09-22T08:07:49.354Z</time>
      </trkpt>
      <trkpt lat="66.38768" lon="20.70169">
        <ele>135.632548</ele>
        <time>2020-09-22T08:07:51.381Z</time>
      </trkpt>
      <trkpt lat="66.38755" lon="20.70186">
        <ele>135.324888</ele>
        <time>2020-09-22T08:07:53.370Z</time>
      </trkpt>
      <trkpt lat="66.38743" lon="20.70203">
        <ele>135.02559</ele>
        <time>2020-09-22T08:07:55.360Z</time>
      </trkpt>
      <trkpt lat="66.38731" lon="20.70219">
        <ele>134.73895</ele>
        <time>2020-09-22T08:07:57.338Z</time>
      </trkpt>
      <trkpt lat="66.38719" lon="20.70234">
        <ele>134.459564</ele>
        <time>2020-09-22T08:07:59.357Z</time>
      </trkpt>
      <trkpt lat="66.38707" lon="20.70249">
        <ele>134.183205</ele>
        <time>2020-09-22T08:08:01.355Z</time>
      </trkpt>
      <trkpt lat="66.38696" lon="20.70264">
        <ele>134.072943</ele>
        <time>2020-09-22T08:08:03.355Z</time>
      </trkpt>
      <trkpt lat="66.38684" lon="20.70278">
        <ele>134.140772</ele>
        <time>2020-09-22T08:08:05.352Z</time>
      </trkpt>
      <trkpt lat="66.38672" lon="20.70293">
        <ele>134.206578</ele>
        <time>2020-09-22T08:08:07.394Z</time>
      </trkpt>
      <trkpt lat="66.38661" lon="20.70307">
        <ele>134.272758</ele>
        <time>2020-09-22T08:08:09.337Z</time>
      </trkpt>
      <trkpt lat="66.38649" lon="20.7032">
        <ele>134.339138</ele>
        <time>2020-09-22T08:08:11.360Z</time>
      </trkpt>
      <trkpt lat="66.38638" lon="20.70335">
        <ele>134.405515</ele>
        <time>2020-09-22T08:08:13.342Z</time>
      </trkpt>
      <trkpt lat="66.38627" lon="20.7035">
        <ele>134.470434</ele>
        <time>2020-09-22T08:08:15.347Z</time>
      </trkpt>
      <trkpt lat="66.38616" lon="20.70364">
        <ele>134.533661</ele>
        <time>2020-09-22T08:08:17.340Z</time>
      </trkpt>
      <trkpt lat="66.38604" lon="20.70377">
        <ele>134.596377</ele>
        <time>2020-09-22T08:08:19.339Z</time>
      </trkpt>
      <trkpt lat="66.38594" lon="20.70389">
        <ele>134.656794</ele>
        <time>2020-09-22T08:08:21.360Z</time>
      </trkpt>
      <trkpt lat="66.38583" lon="20.704">
        <ele>134.715768</ele>
        <time>2020-09-22T08:08:23.373Z</time>
      </trkpt>
      <trkpt lat="66.38573" lon="20.70412">
        <ele>134.772397</ele>
        <time>2020-09-22T08:08:25.340Z</time>
      </trkpt>
      <trkpt lat="66.38563" lon="20.70423">
        <ele>134.827663</ele>
        <time>2020-09-22T08:08:27.393Z</time>
      </trkpt>
      <trkpt lat="66.38554" lon="20.70433">
        <ele>134.882748</ele>
        <time>2020-09-22T08:08:29.340Z</time>
      </trkpt>
      <trkpt lat="66.38544" lon="20.70444">
        <ele>134.938154</ele>
        <time>2020-09-22T08:08:31.391Z</time>
      </trkpt>
      <trkpt lat="66.38534" lon="20.70452">
        <ele>135.006408</ele>
        <time>2020-09-22T08:08:33.363Z</time>
      </trkpt>
      <trkpt lat="66.38525" lon="20.70462">
        <ele>135.096399</ele>
        <time>2020-09-22T08:08:35.340Z</time>
      </trkpt>
      <trkpt lat="66.38515" lon="20.7047">
        <ele>135.183891</ele>
        <time>2020-09-22T08:08:37.337Z</time>
      </trkpt>
      <trkpt lat="66.38506" lon="20.70479">
        <ele>135.27269</ele>
        <time>2020-09-22T08:08:39.391Z</time>
      </trkpt>
      <trkpt lat="66.38496" lon="20.70488">
        <ele>135.361307</ele>
        <time>2020-09-22T08:08:41.351Z</time>
      </trkpt>
      <trkpt lat="66.38487" lon="20.70497">
        <ele>135.450565</ele>
        <time>2020-09-22T08:08:43.355Z</time>
      </trkpt>
      <trkpt lat="66.38477" lon="20.70505">
        <ele>135.538306</ele>
        <time>2020-09-22T08:08:45.351Z</time>
      </trkpt>
      <trkpt lat="66.38468" lon="20.70513">
        <ele>135.624389</ele>
        <time>2020-09-22T08:08:47.336Z</time>
      </trkpt>
      <trkpt lat="66.38459" lon="20.70522">
        <ele>135.712002</ele>
        <time>2020-09-22T08:08:49.326Z</time>
      </trkpt>
      <trkpt lat="66.38449" lon="20.7053">
        <ele>135.798801</ele>
        <time>2020-09-22T08:08:51.338Z</time>
      </trkpt>
      <trkpt lat="66.3844" lon="20.70537">
        <ele>135.886211</ele>
        <time>2020-09-22T08:08:53.353Z</time>
      </trkpt>
      <trkpt lat="66.3843" lon="20.70545">
        <ele>135.975612</ele>
        <time>2020-09-22T08:08:55.359Z</time>
      </trkpt>
      <trkpt lat="66.3842" lon="20.70553">
        <ele>136.066676</ele>
        <time>2020-09-22T08:08:57.360Z</time>
      </trkpt>
      <trkpt lat="66.3841" lon="20.70561">
        <ele>136.157215</ele>
        <time>2020-09-22T08:08:59.353Z</time>
      </trkpt>
      <trkpt lat="66.384" lon="20.70569">
        <ele>136.249737</ele>
        <time>2020-09-22T08:09:01.362Z</time>
      </trkpt>
      <trkpt lat="66.3839" lon="20.70576">
        <ele>136.339647</ele>
        <time>2020-09-22T08:09:03.362Z</time>
      </trkpt>
      <trkpt lat="66.38381" lon="20.70583">
        <ele>136.42727</ele>
        <time>2020-09-22T08:09:05.354Z</time>
      </trkpt>
      <trkpt lat="66.38371" lon="20.7059">
        <ele>136.518064</ele>
        <time>2020-09-22T08:09:07.337Z</time>
      </trkpt>
      <trkpt lat="66.38361" lon="20.70598">
        <ele>136.411489</ele>
        <time>2020-09-22T08:09:09.373Z</time>
      </trkpt>
      <trkpt lat="66.38351" lon="20.70605">
        <ele>136.23913</ele>
        <time>2020-09-22T08:09:11.360Z</time>
      </trkpt>
      <trkpt lat="66.38341" lon="20.70612">
        <ele>136.061395</ele>
        <time>2020-09-22T08:09:13.345Z</time>
      </trkpt>
      <trkpt lat="66.3833" lon="20.7062">
        <ele>135.882607</ele>
        <time>2020-09-22T08:09:15.365Z</time>
      </trkpt>
      <trkpt lat="66.3832" lon="20.70626">
        <ele>135.698537</ele>
        <time>2020-09-22T08:09:17.342Z</time>
      </trkpt>
      <trkpt lat="66.38309" lon="20.70634">
        <ele>135.51456</ele>
        <time>2020-09-22T08:09:19.352Z</time>
      </trkpt>
      <trkpt lat="66.38299" lon="20.7064">
        <ele>135.333896</ele>
        <time>2020-09-22T08:09:21.379Z</time>
      </trkpt>
      <trkpt lat="66.38288" lon="20.70646">
        <ele>135.153698</ele>
        <time>2020-09-22T08:09:23.369Z</time>
      </trkpt>
      <trkpt lat="66.38278" lon="20.70652">
        <ele>134.97141</ele>
        <time>2020-09-22T08:09:25.357Z</time>
      </trkpt>
      <trkpt lat="66.38267" lon="20.70659">
        <ele>134.788305</ele>
        <time>2020-09-22T08:09:27.351Z</time>
      </trkpt>
      <trkpt lat="66.38256" lon="20.70667">
        <ele>134.597527</ele>
        <time>2020-09-22T08:09:29.367Z</time>
      </trkpt>
      <trkpt lat="66.38245" lon="20.70674">
        <ele>134.411019</ele>
        <time>2020-09-22T08:09:31.359Z</time>
      </trkpt>
      <trkpt lat="66.38235" lon="20.70681">
        <ele>134.228411</ele>
        <time>2020-09-22T08:09:33.405Z</time>
      </trkpt>
      <trkpt lat="66.38223" lon="20.70687">
        <ele>134.037369</ele>
        <time>2020-09-22T08:09:35.364Z</time>
      </trkpt>
      <trkpt lat="66.38212" lon="20.70695">
        <ele>133.841578</ele>
        <time>2020-09-22T08:09:37.362Z</time>
      </trkpt>
      <trkpt lat="66.38201" lon="20.70701">
        <ele>133.643004</ele>
        <time>2020-09-22T08:09:39.344Z</time>
      </trkpt>
      <trkpt lat="66.38189" lon="20.70709">
        <ele>133.414388</ele>
        <time>2020-09-22T08:09:41.354Z</time>
      </trkpt>
      <trkpt lat="66.38178" lon="20.70716">
        <ele>133.143992</ele>
        <time>2020-09-22T08:09:43.354Z</time>
      </trkpt>
      <trkpt lat="66.38166" lon="20.70723">
        <ele>132.872476</ele>
        <time>2020-09-22T08:09:45.351Z</time>
      </trkpt>
      <trkpt lat="66.38155" lon="20.7073">
        <ele>132.604299</ele>
        <time>2020-09-22T08:09:47.371Z</time>
      </trkpt>
      <trkpt lat="66.38143" lon="20.70738">
        <ele>132.325457</ele>
        <time>2020-09-22T08:09:49.361Z</time>
      </trkpt>
      <trkpt lat="66.3813" lon="20.70745">
        <ele>132.033017</ele>
        <time>2020-09-22T08:09:51.339Z</time>
      </trkpt>
      <trkpt lat="66.38118" lon="20.70753">
        <ele>131.729599</ele>
        <time>2020-09-22T08:09:53.361Z</time>
      </trkpt>
      <trkpt lat="66.38105" lon="20.70761">
        <ele>131.426181</ele>
        <time>2020-09-22T08:09:55.376Z</time>
      </trkpt>
      <trkpt lat="66.38091" lon="20.70769">
        <ele>131.113669</ele>
        <time>2020-09-22T08:09:57.363Z</time>
      </trkpt>
      <trkpt lat="66.38078" lon="20.70777">
        <ele>130.802492</ele>
        <time>2020-09-22T08:09:59.351Z</time>
      </trkpt>
      <trkpt lat="66.38065" lon="20.70786">
        <ele>130.490858</ele>
        <time>2020-09-22T08:10:01.356Z</time>
      </trkpt>
      <trkpt lat="66.38051" lon="20.70794">
        <ele>130.172813</ele>
        <time>2020-09-22T08:10:03.352Z</time>
      </trkpt>
      <trkpt lat="66.38038" lon="20.70802">
        <ele>129.8512</ele>
        <time>2020-09-22T08:10:05.343Z</time>
      </trkpt>
      <trkpt lat="66.38024" lon="20.70811">
        <ele>129.523624</ele>
        <time>2020-09-22T08:10:07.341Z</time>
      </trkpt>
      <trkpt lat="66.3801" lon="20.7082">
        <ele>129.247785</ele>
        <time>2020-09-22T08:10:09.365Z</time>
      </trkpt>
      <trkpt lat="66.37997" lon="20.70828">
        <ele>128.989596</ele>
        <time>2020-09-22T08:10:11.360Z</time>
      </trkpt>
      <trkpt lat="66.37984" lon="20.70836">
        <ele>128.735883</ele>
        <time>2020-09-22T08:10:13.337Z</time>
      </trkpt>
      <trkpt lat="66.37971" lon="20.70843">
        <ele>128.489577</ele>
        <time>2020-09-22T08:10:15.345Z</time>
      </trkpt>
      <trkpt lat="66.37958" lon="20.70851">
        <ele>128.245251</ele>
        <time>2020-09-22T08:10:17.366Z</time>
      </trkpt>
      <trkpt lat="66.37945" lon="20.70859">
        <ele>128.005996</ele>
        <time>2020-09-22T08:10:19.360Z</time>
      </trkpt>
      <trkpt lat="66.37934" lon="20.70867">
        <ele>127.780566</ele>
        <time>2020-09-22T08:10:21.351Z</time>
      </trkpt>
      <trkpt lat="66.37922" lon="20.70874">
        <ele>127.5606</ele>
        <time>2020-09-22T08:10:23.358Z</time>
      </trkpt>
      <trkpt lat="66.37911" lon="20.7088">
        <ele>127.339836</ele>
        <time>2020-09-22T08:10:25.340Z</time>
      </trkpt>
      <trkpt lat="66.37899" lon="20.70887">
        <ele>127.11933</ele>
        <time>2020-09-22T08:10:27.350Z</time>
      </trkpt>
      <trkpt lat="66.37888" lon="20.70894">
        <ele>126.899539</ele>
        <time>2020-09-22T08:10:29.350Z</time>
      </trkpt>
      <trkpt lat="66.37876" lon="20.70901">
        <ele>126.678282</ele>
        <time>2020-09-22T08:10:31.370Z</time>
      </trkpt>
      <trkpt lat="66.37864" lon="20.70907">
        <ele>126.455542</ele>
        <time>2020-09-22T08:10:33.376Z</time>
      </trkpt>
      <trkpt lat="66.37853" lon="20.70914">
        <ele>126.236262</ele>
        <time>2020-09-22T08:10:35.338Z</time>
      </trkpt>
      <trkpt lat="66.37841" lon="20.70922">
        <ele>126.030402</ele>
        <time>2020-09-22T08:10:37.344Z</time>
      </trkpt>
      <trkpt lat="66.3783" lon="20.70929">
        <ele>125.851644</ele>
        <time>2020-09-22T08:10:39.340Z</time>
      </trkpt>
      <trkpt lat="66.37818" lon="20.70937">
        <ele>125.678459</ele>
        <time>2020-09-22T08:10:41.357Z</time>
      </trkpt>
      <trkpt lat="66.37807" lon="20.70945">
        <ele>125.503377</ele>
        <time>2020-09-22T08:10:43.350Z</time>
      </trkpt>
      <trkpt lat="66.37795" lon="20.70952">
        <ele>125.320599</ele>
        <time>2020-09-22T08:10:45.335Z</time>
      </trkpt>
      <trkpt lat="66.37783" lon="20.70959">
        <ele>125.140407</ele>
        <time>2020-09-22T08:10:47.344Z</time>
      </trkpt>
      <trkpt lat="66.37772" lon="20.70968">
        <ele>124.963255</ele>
        <time>2020-09-22T08:10:49.361Z</time>
      </trkpt>
      <trkpt lat="66.37759" lon="20.70977">
        <ele>124.772186</ele>
        <time>2020-09-22T08:10:51.371Z</time>
      </trkpt>
      <trkpt lat="66.37748" lon="20.70986">
        <ele>124.58835</ele>
        <time>2020-09-22T08:10:53.355Z</time>
      </trkpt>
      <trkpt lat="66.37736" lon="20.70995">
        <ele>124.404514</ele>
        <time>2020-09-22T08:10:55.385Z</time>
      </trkpt>
      <trkpt lat="66.37724" lon="20.71004">
        <ele>124.219594</ele>
        <time>2020-09-22T08:10:57.344Z</time>
      </trkpt>
      <trkpt lat="66.37712" lon="20.71013">
        <ele>124.033651</ele>
        <time>2020-09-22T08:10:59.357Z</time>
      </trkpt>
      <trkpt lat="66.377" lon="20.71023">
        <ele>123.846621</ele>
        <time>2020-09-22T08:11:01.340Z</time>
      </trkpt>
      <trkpt lat="66.37687" lon="20.71033">
        <ele>123.654817</ele>
        <time>2020-09-22T08:11:03.340Z</time>
      </trkpt>
      <trkpt lat="66.37675" lon="20.71045">
        <ele>123.460652</ele>
        <time>2020-09-22T08:11:05.359Z</time>
      </trkpt>
      <trkpt lat="66.37662" lon="20.71057">
        <ele>123.313032</ele>
        <time>2020-09-22T08:11:07.374Z</time>
      </trkpt>
      <trkpt lat="66.37649" lon="20.7107">
        <ele>123.169216</ele>
        <time>2020-09-22T08:11:09.344Z</time>
      </trkpt>
      <trkpt lat="66.37636" lon="20.71085">
        <ele>123.022273</ele>
        <time>2020-09-22T08:11:11.356Z</time>
      </trkpt>
      <trkpt lat="66.37622" lon="20.71101">
        <ele>122.871525</ele>
        <time>2020-09-22T08:11:13.357Z</time>
      </trkpt>
      <trkpt lat="66.37608" lon="20.71116">
        <ele>122.716799</ele>
        <time>2020-09-22T08:11:15.366Z</time>
      </trkpt>
      <trkpt lat="66.37593" lon="20.71132">
        <ele>122.560596</ele>
        <time>2020-09-22T08:11:17.337Z</time>
      </trkpt>
      <trkpt lat="66.3758" lon="20.7115">
        <ele>122.405887</ele>
        <time>2020-09-22T08:11:19.372Z</time>
      </trkpt>
      <trkpt lat="66.37566" lon="20.71167">
        <ele>122.251001</ele>
        <time>2020-09-22T08:11:21.353Z</time>
      </trkpt>
      <trkpt lat="66.37552" lon="20.71184">
        <ele>122.098611</ele>
        <time>2020-09-22T08:11:23.357Z</time>
      </trkpt>
      <trkpt lat="66.37539" lon="20.71202">
        <ele>121.947568</ele>
        <time>2020-09-22T08:11:25.361Z</time>
      </trkpt>
      <trkpt lat="66.37526" lon="20.71221">
        <ele>121.796707</ele>
        <time>2020-09-22T08:11:27.384Z</time>
      </trkpt>
      <trkpt lat="66.37513" lon="20.71239">
        <ele>121.651827</ele>
        <time>2020-09-22T08:11:29.359Z</time>
      </trkpt>
      <trkpt lat="66.37501" lon="20.71257">
        <ele>121.69979</ele>
        <time>2020-09-22T08:11:31.371Z</time>
      </trkpt>
      <trkpt lat="66.3749" lon="20.71275">
        <ele>121.789211</ele>
        <time>2020-09-22T08:11:33.360Z</time>
      </trkpt>
      <trkpt lat="66.37478" lon="20.71293">
        <ele>121.876683</ele>
        <time>2020-09-22T08:11:35.372Z</time>
      </trkpt>
      <trkpt lat="66.37468" lon="20.7131">
        <ele>121.959367</ele>
        <time>2020-09-22T08:11:37.351Z</time>
      </trkpt>
      <trkpt lat="66.37457" lon="20.71327">
        <ele>122.044619</ele>
        <time>2020-09-22T08:11:39.374Z</time>
      </trkpt>
      <trkpt lat="66.37447" lon="20.71344">
        <ele>122.124056</ele>
        <time>2020-09-22T08:11:41.361Z</time>
      </trkpt>
      <trkpt lat="66.37437" lon="20.71361">
        <ele>122.201771</ele>
        <time>2020-09-22T08:11:43.400Z</time>
      </trkpt>
      <trkpt lat="66.37427" lon="20.71378">
        <ele>122.277809</ele>
        <time>2020-09-22T08:11:45.351Z</time>
      </trkpt>
      <trkpt lat="66.37418" lon="20.71395">
        <ele>122.355175</ele>
        <time>2020-09-22T08:11:47.381Z</time>
      </trkpt>
      <trkpt lat="66.37409" lon="20.71412">
        <ele>122.428708</ele>
        <time>2020-09-22T08:11:49.362Z</time>
      </trkpt>
      <trkpt lat="66.374" lon="20.71428">
        <ele>122.500037</ele>
        <time>2020-09-22T08:11:51.342Z</time>
      </trkpt>
      <trkpt lat="66.37392" lon="20.71444">
        <ele>122.56869</ele>
        <time>2020-09-22T08:11:53.350Z</time>
      </trkpt>
      <trkpt lat="66.37384" lon="20.71459">
        <ele>122.633458</ele>
        <time>2020-09-22T08:11:55.342Z</time>
      </trkpt>
      <trkpt lat="66.37376" lon="20.71473">
        <ele>122.69639</ele>
        <time>2020-09-22T08:11:57.362Z</time>
      </trkpt>
      <trkpt lat="66.37369" lon="20.71488">
        <ele>122.756037</ele>
        <time>2020-09-22T08:11:59.363Z</time>
      </trkpt>
      <trkpt lat="66.37359" lon="20.71509">
        <ele>122.988007</ele>
        <time>2020-09-22T08:12:02.386Z</time>
      </trkpt>
      <trkpt lat="66.37349" lon="20.7153">
        <ele>123.399689</ele>
        <time>2020-09-22T08:12:05.342Z</time>
      </trkpt>
      <trkpt lat="66.3734" lon="20.71551">
        <ele>123.799999</ele>
        <time>2020-09-22T08:12:08.340Z</time>
      </trkpt>
      <trkpt lat="66.3733" lon="20.71571">
        <ele>124.190545</ele>
        <time>2020-09-22T08:12:11.362Z</time>
      </trkpt>
      <trkpt lat="66.37321" lon="20.7159">
        <ele>124.564178</ele>
        <time>2020-09-22T08:12:14.349Z</time>
      </trkpt>
      <trkpt lat="66.37313" lon="20.71609">
        <ele>124.91705</ele>
        <time>2020-09-22T08:12:17.345Z</time>
      </trkpt>
      <trkpt lat="66.37304" lon="20.71626">
        <ele>125.25698</ele>
        <time>2020-09-22T08:12:20.340Z</time>
      </trkpt>
      <trkpt lat="66.37296" lon="20.71642">
        <ele>125.582308</ele>
        <time>2020-09-22T08:12:23.350Z</time>
      </trkpt>
      <trkpt lat="66.37289" lon="20.71659">
        <ele>125.907718</ele>
        <time>2020-09-22T08:12:26.349Z</time>
      </trkpt>
      <trkpt lat="66.37281" lon="20.71678">
        <ele>126.248729</ele>
        <time>2020-09-22T08:12:29.365Z</time>
      </trkpt>
      <trkpt lat="66.37272" lon="20.71696">
        <ele>126.59261</ele>
        <time>2020-09-22T08:12:32.362Z</time>
      </trkpt>
      <trkpt lat="66.37264" lon="20.71712">
        <ele>126.926192</ele>
        <time>2020-09-22T08:12:35.343Z</time>
      </trkpt>
      <trkpt lat="66.37255" lon="20.71729">
        <ele>127.274082</ele>
        <time>2020-09-22T08:12:38.358Z</time>
      </trkpt>
      <trkpt lat="66.37246" lon="20.71746">
        <ele>127.633546</ele>
        <time>2020-09-22T08:12:41.369Z</time>
      </trkpt>
      <trkpt lat="66.37238" lon="20.71764">
        <ele>127.978193</ele>
        <time>2020-09-22T08:12:44.345Z</time>
      </trkpt>
      <trkpt lat="66.37229" lon="20.71782">
        <ele>128.32932</ele>
        <time>2020-09-22T08:12:47.344Z</time>
      </trkpt>
      <trkpt lat="66.37221" lon="20.71799">
        <ele>128.439654</ele>
        <time>2020-09-22T08:12:50.350Z</time>
      </trkpt>
      <trkpt lat="66.37213" lon="20.71816">
        <ele>128.413884</ele>
        <time>2020-09-22T08:12:53.342Z</time>
      </trkpt>
      <trkpt lat="66.37204" lon="20.71833">
        <ele>128.385018</ele>
        <time>2020-09-22T08:12:56.353Z</time>
      </trkpt>
      <trkpt lat="66.37195" lon="20.71851">
        <ele>128.356895</ele>
        <time>2020-09-22T08:12:59.379Z</time>
      </trkpt>
      <trkpt lat="66.37186" lon="20.71868">
        <ele>128.329478</ele>
        <time>2020-09-22T08:13:02.392Z</time>
      </trkpt>
      <trkpt lat="66.37177" lon="20.71885">
        <ele>128.301703</ele>
        <time>2020-09-22T08:13:05.373Z</time>
      </trkpt>
      <trkpt lat="66.37168" lon="20.71902">
        <ele>128.273095</ele>
        <time>2020-09-22T08:13:08.360Z</time>
      </trkpt>
      <trkpt lat="66.37158" lon="20.71921">
        <ele>128.243191</ele>
        <time>2020-09-22T08:13:11.348Z</time>
      </trkpt>
      <trkpt lat="66.37149" lon="20.71938">
        <ele>128.21377</ele>
        <time>2020-09-22T08:13:14.408Z</time>
      </trkpt>
      <trkpt lat="66.37139" lon="20.71956">
        <ele>128.184502</ele>
        <time>2020-09-22T08:13:17.369Z</time>
      </trkpt>
      <trkpt lat="66.3713" lon="20.71974">
        <ele>128.154464</ele>
        <time>2020-09-22T08:13:20.345Z</time>
      </trkpt>
      <trkpt lat="66.37119" lon="20.71993">
        <ele>128.123177</ele>
        <time>2020-09-22T08:13:23.373Z</time>
      </trkpt>
      <trkpt lat="66.37109" lon="20.72012">
        <ele>128.090505</ele>
        <time>2020-09-22T08:13:26.357Z</time>
      </trkpt>
      <trkpt lat="66.37098" lon="20.72031">
        <ele>128.057187</ele>
        <time>2020-09-22T08:13:29.371Z</time>
      </trkpt>
      <trkpt lat="66.3709" lon="20.72044">
        <ele>128.033752</ele>
        <time>2020-09-22T08:13:31.366Z</time>
      </trkpt>
      <trkpt lat="66.37081" lon="20.72058">
        <ele>127.980978</ele>
        <time>2020-09-22T08:13:33.338Z</time>
      </trkpt>
      <trkpt lat="66.37073" lon="20.72072">
        <ele>127.633867</ele>
        <time>2020-09-22T08:13:35.369Z</time>
      </trkpt>
      <trkpt lat="66.37063" lon="20.72085">
        <ele>127.275814</ele>
        <time>2020-09-22T08:13:37.412Z</time>
      </trkpt>
      <trkpt lat="66.37054" lon="20.72099">
        <ele>126.908619</ele>
        <time>2020-09-22T08:13:39.341Z</time>
      </trkpt>
      <trkpt lat="66.37044" lon="20.72113">
        <ele>126.539492</ele>
        <time>2020-09-22T08:13:41.412Z</time>
      </trkpt>
      <trkpt lat="66.37035" lon="20.72127">
        <ele>126.168204</ele>
        <time>2020-09-22T08:13:43.351Z</time>
      </trkpt>
      <trkpt lat="66.37025" lon="20.72142">
        <ele>125.787011</ele>
        <time>2020-09-22T08:13:45.353Z</time>
      </trkpt>
      <trkpt lat="66.37015" lon="20.72158">
        <ele>125.400855</ele>
        <time>2020-09-22T08:13:47.334Z</time>
      </trkpt>
      <trkpt lat="66.37006" lon="20.72173">
        <ele>125.023188</ele>
        <time>2020-09-22T08:13:49.367Z</time>
      </trkpt>
      <trkpt lat="66.36996" lon="20.72187">
        <ele>124.64695</ele>
        <time>2020-09-22T08:13:51.339Z</time>
      </trkpt>
      <trkpt lat="66.36986" lon="20.72201">
        <ele>124.271681</ele>
        <time>2020-09-22T08:13:53.371Z</time>
      </trkpt>
      <trkpt lat="66.36977" lon="20.72214">
        <ele>123.894771</ele>
        <time>2020-09-22T08:13:55.366Z</time>
      </trkpt>
      <trkpt lat="66.36967" lon="20.72228">
        <ele>123.518498</ele>
        <time>2020-09-22T08:13:57.371Z</time>
      </trkpt>
      <trkpt lat="66.36956" lon="20.72241">
        <ele>123.129147</ele>
        <time>2020-09-22T08:13:59.374Z</time>
      </trkpt>
      <trkpt lat="66.36946" lon="20.72254">
        <ele>122.747666</ele>
        <time>2020-09-22T08:14:01.369Z</time>
      </trkpt>
      <trkpt lat="66.36936" lon="20.72266">
        <ele>122.365535</ele>
        <time>2020-09-22T08:14:03.349Z</time>
      </trkpt>
      <trkpt lat="66.36926" lon="20.72277">
        <ele>121.998168</ele>
        <time>2020-09-22T08:14:05.368Z</time>
      </trkpt>
      <trkpt lat="66.36916" lon="20.72288">
        <ele>121.997722</ele>
        <time>2020-09-22T08:14:07.356Z</time>
      </trkpt>
      <trkpt lat="66.36906" lon="20.72298">
        <ele>122.003993</ele>
        <time>2020-09-22T08:14:09.366Z</time>
      </trkpt>
      <trkpt lat="66.36896" lon="20.7231">
        <ele>122.010485</ele>
        <time>2020-09-22T08:14:11.338Z</time>
      </trkpt>
      <trkpt lat="66.36886" lon="20.7232">
        <ele>122.01673</ele>
        <time>2020-09-22T08:14:13.392Z</time>
      </trkpt>
      <trkpt lat="66.36876" lon="20.7233">
        <ele>122.022746</ele>
        <time>2020-09-22T08:14:15.352Z</time>
      </trkpt>
      <trkpt lat="66.36867" lon="20.72341">
        <ele>122.0285</ele>
        <time>2020-09-22T08:14:17.333Z</time>
      </trkpt>
      <trkpt lat="66.36857" lon="20.72351">
        <ele>122.03434</ele>
        <time>2020-09-22T08:14:19.343Z</time>
      </trkpt>
      <trkpt lat="66.36848" lon="20.72361">
        <ele>122.040061</ele>
        <time>2020-09-22T08:14:21.344Z</time>
      </trkpt>
      <trkpt lat="66.36839" lon="20.72371">
        <ele>122.045626</ele>
        <time>2020-09-22T08:14:23.393Z</time>
      </trkpt>
      <trkpt lat="66.3683" lon="20.72382">
        <ele>122.051337</ele>
        <time>2020-09-22T08:14:25.350Z</time>
      </trkpt>
      <trkpt lat="66.36821" lon="20.72391">
        <ele>122.057099</ele>
        <time>2020-09-22T08:14:27.350Z</time>
      </trkpt>
      <trkpt lat="66.36812" lon="20.724">
        <ele>122.062702</ele>
        <time>2020-09-22T08:14:29.352Z</time>
      </trkpt>
      <trkpt lat="66.36803" lon="20.72408">
        <ele>122.068157</ele>
        <time>2020-09-22T08:14:31.354Z</time>
      </trkpt>
      <trkpt lat="66.36794" lon="20.72417">
        <ele>122.073595</ele>
        <time>2020-09-22T08:14:33.342Z</time>
      </trkpt>
      <trkpt lat="66.36785" lon="20.72425">
        <ele>122.078987</ele>
        <time>2020-09-22T08:14:35.363Z</time>
      </trkpt>
      <trkpt lat="66.36776" lon="20.72433">
        <ele>122.084509</ele>
        <time>2020-09-22T08:14:37.351Z</time>
      </trkpt>
      <trkpt lat="66.36767" lon="20.72439">
        <ele>122.089767</ele>
        <time>2020-09-22T08:14:39.356Z</time>
      </trkpt>
      <trkpt lat="66.36755" lon="20.72449">
        <ele>122.130392</ele>
        <time>2020-09-22T08:14:42.352Z</time>
      </trkpt>
      <trkpt lat="66.36746" lon="20.72456">
        <ele>122.201964</ele>
        <time>2020-09-22T08:14:44.352Z</time>
      </trkpt>
      <trkpt lat="66.36737" lon="20.72463">
        <ele>122.27793</ele>
        <time>2020-09-22T08:14:46.338Z</time>
      </trkpt>
      <trkpt lat="66.36728" lon="20.7247">
        <ele>122.352582</ele>
        <time>2020-09-22T08:14:48.362Z</time>
      </trkpt>
      <trkpt lat="66.36718" lon="20.72477">
        <ele>122.427889</ele>
        <time>2020-09-22T08:14:50.370Z</time>
      </trkpt>
      <trkpt lat="66.36709" lon="20.72484">
        <ele>122.503855</ele>
        <time>2020-09-22T08:14:52.371Z</time>
      </trkpt>
      <trkpt lat="66.367" lon="20.72492">
        <ele>122.5831</ele>
        <time>2020-09-22T08:14:54.350Z</time>
      </trkpt>
      <trkpt lat="66.3669" lon="20.725">
        <ele>122.663359</ele>
        <time>2020-09-22T08:14:56.395Z</time>
      </trkpt>
      <trkpt lat="66.3668" lon="20.72507">
        <ele>122.740827</ele>
        <time>2020-09-22T08:14:58.393Z</time>
      </trkpt>
      <trkpt lat="66.36671" lon="20.72513">
        <ele>122.816037</ele>
        <time>2020-09-22T08:15:00.365Z</time>
      </trkpt>
      <trkpt lat="66.36662" lon="20.72519">
        <ele>122.89174</ele>
        <time>2020-09-22T08:15:02.384Z</time>
      </trkpt>
      <trkpt lat="66.36652" lon="20.72526">
        <ele>122.97046</ele>
        <time>2020-09-22T08:15:04.346Z</time>
      </trkpt>
      <trkpt lat="66.36642" lon="20.72531">
        <ele>123.04661</ele>
        <time>2020-09-22T08:15:06.357Z</time>
      </trkpt>
      <trkpt lat="66.36632" lon="20.72537">
        <ele>123.126853</ele>
        <time>2020-09-22T08:15:08.355Z</time>
      </trkpt>
      <trkpt lat="66.36622" lon="20.72543">
        <ele>123.210193</ele>
        <time>2020-09-22T08:15:10.360Z</time>
      </trkpt>
      <trkpt lat="66.36612" lon="20.72549">
        <ele>123.291066</ele>
        <time>2020-09-22T08:15:12.347Z</time>
      </trkpt>
      <trkpt lat="66.36602" lon="20.72555">
        <ele>123.370907</ele>
        <time>2020-09-22T08:15:14.353Z</time>
      </trkpt>
      <trkpt lat="66.36592" lon="20.72561">
        <ele>123.452196</ele>
        <time>2020-09-22T08:15:16.363Z</time>
      </trkpt>
      <trkpt lat="66.36581" lon="20.72566">
        <ele>123.428661</ele>
        <time>2020-09-22T08:15:18.335Z</time>
      </trkpt>
      <trkpt lat="66.36569" lon="20.72572">
        <ele>123.248812</ele>
        <time>2020-09-22T08:15:20.340Z</time>
      </trkpt>
      <trkpt lat="66.36558" lon="20.72577">
        <ele>123.076852</ele>
        <time>2020-09-22T08:15:22.387Z</time>
      </trkpt>
      <trkpt lat="66.36547" lon="20.72582">
        <ele>122.900996</ele>
        <time>2020-09-22T08:15:24.336Z</time>
      </trkpt>
      <trkpt lat="66.36535" lon="20.72586">
        <ele>122.713357</ele>
        <time>2020-09-22T08:15:26.352Z</time>
      </trkpt>
      <trkpt lat="66.36523" lon="20.7259">
        <ele>122.524518</ele>
        <time>2020-09-22T08:15:28.358Z</time>
      </trkpt>
      <trkpt lat="66.3651" lon="20.72593">
        <ele>122.323481</ele>
        <time>2020-09-22T08:15:30.370Z</time>
      </trkpt>
      <trkpt lat="66.36497" lon="20.72597">
        <ele>122.119596</ele>
        <time>2020-09-22T08:15:32.336Z</time>
      </trkpt>
      <trkpt lat="66.36483" lon="20.72601">
        <ele>121.909189</ele>
        <time>2020-09-22T08:15:34.392Z</time>
      </trkpt>
      <trkpt lat="66.3647" lon="20.72605">
        <ele>121.700452</ele>
        <time>2020-09-22T08:15:36.375Z</time>
      </trkpt>
      <trkpt lat="66.36456" lon="20.72608">
        <ele>121.485934</ele>
        <time>2020-09-22T08:15:38.342Z</time>
      </trkpt>
      <trkpt lat="66.36442" lon="20.72612">
        <ele>121.271161</ele>
        <time>2020-09-22T08:15:40.351Z</time>
      </trkpt>
      <trkpt lat="66.36428" lon="20.72616">
        <ele>121.05632</ele>
        <time>2020-09-22T08:15:42.338Z</time>
      </trkpt>
      <trkpt lat="66.36413" lon="20.7262">
        <ele>120.832509</ele>
        <time>2020-09-22T08:15:44.354Z</time>
      </trkpt>
      <trkpt lat="66.36399" lon="20.72623">
        <ele>120.290073</ele>
        <time>2020-09-22T08:15:46.353Z</time>
      </trkpt>
      <trkpt lat="66.36383" lon="20.72626">
        <ele>119.513714</ele>
        <time>2020-09-22T08:15:48.344Z</time>
      </trkpt>
      <trkpt lat="66.36368" lon="20.7263">
        <ele>118.727409</ele>
        <time>2020-09-22T08:15:50.357Z</time>
      </trkpt>
      <trkpt lat="66.36352" lon="20.72632">
        <ele>117.927283</ele>
        <time>2020-09-22T08:15:52.351Z</time>
      </trkpt>
      <trkpt lat="66.36336" lon="20.72634">
        <ele>117.118106</ele>
        <time>2020-09-22T08:15:54.349Z</time>
      </trkpt>
      <trkpt lat="66.3632" lon="20.72634">
        <ele>116.27371</ele>
        <time>2020-09-22T08:15:56.360Z</time>
      </trkpt>
      <trkpt lat="66.36303" lon="20.72634">
        <ele>115.419261</ele>
        <time>2020-09-22T08:15:58.371Z</time>
      </trkpt>
      <trkpt lat="66.36286" lon="20.72634">
        <ele>114.539363</ele>
        <time>2020-09-22T08:16:00.362Z</time>
      </trkpt>
      <trkpt lat="66.36268" lon="20.72633">
        <ele>113.6237</ele>
        <time>2020-09-22T08:16:02.377Z</time>
      </trkpt>
      <trkpt lat="66.36259" lon="20.72633">
        <ele>113.165797</ele>
        <time>2020-09-22T08:16:03.348Z</time>
      </trkpt>
      <trkpt lat="66.3625" lon="20.72632">
        <ele>112.70769</ele>
        <time>2020-09-22T08:16:04.380Z</time>
      </trkpt>
      <trkpt lat="66.3624" lon="20.72631">
        <ele>112.239495</ele>
        <time>2020-09-22T08:16:05.346Z</time>
      </trkpt>
      <trkpt lat="66.36231" lon="20.7263">
        <ele>111.771366</ele>
        <time>2020-09-22T08:16:06.354Z</time>
      </trkpt>
      <trkpt lat="66.36222" lon="20.72629">
        <ele>111.392692</ele>
        <time>2020-09-22T08:16:07.345Z</time>
      </trkpt>
      <trkpt lat="66.36213" lon="20.72628">
        <ele>111.080152</ele>
        <time>2020-09-22T08:16:08.353Z</time>
      </trkpt>
      <trkpt lat="66.36203" lon="20.72627">
        <ele>110.764508</ele>
        <time>2020-09-22T08:16:09.386Z</time>
      </trkpt>
      <trkpt lat="66.36194" lon="20.72626">
        <ele>110.445624</ele>
        <time>2020-09-22T08:16:10.348Z</time>
      </trkpt>
      <trkpt lat="66.36185" lon="20.72625">
        <ele>110.133474</ele>
        <time>2020-09-22T08:16:11.377Z</time>
      </trkpt>
      <trkpt lat="66.36175" lon="20.72625">
        <ele>109.818111</ele>
        <time>2020-09-22T08:16:12.335Z</time>
      </trkpt>
      <trkpt lat="66.36166" lon="20.72625">
        <ele>109.506151</ele>
        <time>2020-09-22T08:16:13.374Z</time>
      </trkpt>
      <trkpt lat="66.36149" lon="20.72623">
        <ele>108.908312</ele>
        <time>2020-09-22T08:16:15.383Z</time>
      </trkpt>
      <trkpt lat="66.36131" lon="20.7262">
        <ele>108.310126</ele>
        <time>2020-09-22T08:16:17.359Z</time>
      </trkpt>
      <trkpt lat="66.36114" lon="20.72617">
        <ele>107.746296</ele>
        <time>2020-09-22T08:16:19.359Z</time>
      </trkpt>
      <trkpt lat="66.36098" lon="20.72615">
        <ele>107.196368</ele>
        <time>2020-09-22T08:16:21.363Z</time>
      </trkpt>
      <trkpt lat="66.36082" lon="20.72613">
        <ele>106.653277</ele>
        <time>2020-09-22T08:16:23.367Z</time>
      </trkpt>
      <trkpt lat="66.36067" lon="20.72612">
        <ele>106.130784</ele>
        <time>2020-09-22T08:16:25.337Z</time>
      </trkpt>
      <trkpt lat="66.36052" lon="20.72611">
        <ele>105.622006</ele>
        <time>2020-09-22T08:16:27.362Z</time>
      </trkpt>
      <trkpt lat="66.36038" lon="20.72611">
        <ele>105.426121</ele>
        <time>2020-09-22T08:16:29.338Z</time>
      </trkpt>
      <trkpt lat="66.36025" lon="20.72611">
        <ele>105.341709</ele>
        <time>2020-09-22T08:16:31.390Z</time>
      </trkpt>
      <trkpt lat="66.36013" lon="20.72611">
        <ele>105.259924</ele>
        <time>2020-09-22T08:16:33.371Z</time>
      </trkpt>
      <trkpt lat="66.36" lon="20.72612">
        <ele>105.178107</ele>
        <time>2020-09-22T08:16:35.379Z</time>
      </trkpt>
      <trkpt lat="66.35988" lon="20.72613">
        <ele>105.094993</ele>
        <time>2020-09-22T08:16:37.349Z</time>
      </trkpt>
      <trkpt lat="66.35976" lon="20.72614">
        <ele>105.01517</ele>
        <time>2020-09-22T08:16:39.341Z</time>
      </trkpt>
      <trkpt lat="66.35963" lon="20.72614">
        <ele>104.933389</ele>
        <time>2020-09-22T08:16:41.385Z</time>
      </trkpt>
      <trkpt lat="66.35951" lon="20.72616">
        <ele>104.850235</ele>
        <time>2020-09-22T08:16:43.346Z</time>
      </trkpt>
      <trkpt lat="66.35938" lon="20.72616">
        <ele>104.765803</ele>
        <time>2020-09-22T08:16:45.395Z</time>
      </trkpt>
      <trkpt lat="66.35925" lon="20.72618">
        <ele>104.680651</ele>
        <time>2020-09-22T08:16:47.351Z</time>
      </trkpt>
      <trkpt lat="66.35912" lon="20.7262">
        <ele>104.596748</ele>
        <time>2020-09-22T08:16:49.351Z</time>
      </trkpt>
      <trkpt lat="66.359" lon="20.72621">
        <ele>104.514206</ele>
        <time>2020-09-22T08:16:51.360Z</time>
      </trkpt>
      <trkpt lat="66.35887" lon="20.72623">
        <ele>104.429674</ele>
        <time>2020-09-22T08:16:53.394Z</time>
      </trkpt>
      <trkpt lat="66.35875" lon="20.72626">
        <ele>104.348198</ele>
        <time>2020-09-22T08:16:55.349Z</time>
      </trkpt>
      <trkpt lat="66.35863" lon="20.72629">
        <ele>104.331319</ele>
        <time>2020-09-22T08:16:57.346Z</time>
      </trkpt>
      <trkpt lat="66.35851" lon="20.72632">
        <ele>104.380211</ele>
        <time>2020-09-22T08:16:59.352Z</time>
      </trkpt>
      <trkpt lat="66.35839" lon="20.72635">
        <ele>104.429631</ele>
        <time>2020-09-22T08:17:01.356Z</time>
      </trkpt>
      <trkpt lat="66.35827" lon="20.72639">
        <ele>104.476963</ele>
        <time>2020-09-22T08:17:03.358Z</time>
      </trkpt>
      <trkpt lat="66.35816" lon="20.72642">
        <ele>104.523446</ele>
        <time>2020-09-22T08:17:05.350Z</time>
      </trkpt>
      <trkpt lat="66.35804" lon="20.72645">
        <ele>104.570796</ele>
        <time>2020-09-22T08:17:07.380Z</time>
      </trkpt>
      <trkpt lat="66.35792" lon="20.72649">
        <ele>104.619912</ele>
        <time>2020-09-22T08:17:09.354Z</time>
      </trkpt>
      <trkpt lat="66.35781" lon="20.72653">
        <ele>104.667002</ele>
        <time>2020-09-22T08:17:11.354Z</time>
      </trkpt>
      <trkpt lat="66.3577" lon="20.72658">
        <ele>104.711875</ele>
        <time>2020-09-22T08:17:13.389Z</time>
      </trkpt>
      <trkpt lat="66.3576" lon="20.72661">
        <ele>104.755591</ele>
        <time>2020-09-22T08:17:15.388Z</time>
      </trkpt>
      <trkpt lat="66.35749" lon="20.72665">
        <ele>104.797801</ele>
        <time>2020-09-22T08:17:17.370Z</time>
      </trkpt>
      <trkpt lat="66.35739" lon="20.72668">
        <ele>104.838927</ele>
        <time>2020-09-22T08:17:19.346Z</time>
      </trkpt>
      <trkpt lat="66.35729" lon="20.72672">
        <ele>104.880866</ele>
        <time>2020-09-22T08:17:21.394Z</time>
      </trkpt>
      <trkpt lat="66.3572" lon="20.72676">
        <ele>104.921223</ele>
        <time>2020-09-22T08:17:23.340Z</time>
      </trkpt>
      <trkpt lat="66.3571" lon="20.7268">
        <ele>104.961291</ele>
        <time>2020-09-22T08:17:25.350Z</time>
      </trkpt>
      <trkpt lat="66.357" lon="20.72683">
        <ele>105.002573</ele>
        <time>2020-09-22T08:17:27.339Z</time>
      </trkpt>
      <trkpt lat="66.3569" lon="20.72687">
        <ele>105.042737</ele>
        <time>2020-09-22T08:17:29.352Z</time>
      </trkpt>
      <trkpt lat="66.35681" lon="20.72689">
        <ele>105.153903</ele>
        <time>2020-09-22T08:17:31.344Z</time>
      </trkpt>
      <trkpt lat="66.35671" lon="20.72692">
        <ele>105.264769</ele>
        <time>2020-09-22T08:17:33.377Z</time>
      </trkpt>
      <trkpt lat="66.35661" lon="20.72694">
        <ele>105.376491</ele>
        <time>2020-09-22T08:17:35.336Z</time>
      </trkpt>
      <trkpt lat="66.35652" lon="20.72697">
        <ele>105.488551</ele>
        <time>2020-09-22T08:17:37.340Z</time>
      </trkpt>
      <trkpt lat="66.35642" lon="20.72699">
        <ele>105.596726</ele>
        <time>2020-09-22T08:17:39.390Z</time>
      </trkpt>
      <trkpt lat="66.35632" lon="20.72702">
        <ele>105.709083</ele>
        <time>2020-09-22T08:17:41.357Z</time>
      </trkpt>
      <trkpt lat="66.35623" lon="20.72705">
        <ele>105.822282</ele>
        <time>2020-09-22T08:17:43.339Z</time>
      </trkpt>
      <trkpt lat="66.35613" lon="20.72708">
        <ele>105.937813</ele>
        <time>2020-09-22T08:17:45.356Z</time>
      </trkpt>
      <trkpt lat="66.35603" lon="20.72712">
        <ele>106.053579</ele>
        <time>2020-09-22T08:17:47.369Z</time>
      </trkpt>
      <trkpt lat="66.35593" lon="20.72715">
        <ele>106.168146</ele>
        <time>2020-09-22T08:17:49.339Z</time>
      </trkpt>
      <trkpt lat="66.35583" lon="20.72719">
        <ele>106.27964</ele>
        <time>2020-09-22T08:17:51.379Z</time>
      </trkpt>
      <trkpt lat="66.35574" lon="20.72721">
        <ele>106.389078</ele>
        <time>2020-09-22T08:17:53.346Z</time>
      </trkpt>
      <trkpt lat="66.35564" lon="20.72724">
        <ele>106.500055</ele>
        <time>2020-09-22T08:17:55.354Z</time>
      </trkpt>
      <trkpt lat="66.35554" lon="20.72727">
        <ele>106.610869</ele>
        <time>2020-09-22T08:17:57.364Z</time>
      </trkpt>
      <trkpt lat="66.35544" lon="20.72729">
        <ele>106.726294</ele>
        <time>2020-09-22T08:17:59.342Z</time>
      </trkpt>
      <trkpt lat="66.35535" lon="20.72733">
        <ele>106.840055</ele>
        <time>2020-09-22T08:18:01.354Z</time>
      </trkpt>
      <trkpt lat="66.35525" lon="20.72737">
        <ele>106.950077</ele>
        <time>2020-09-22T08:18:03.351Z</time>
      </trkpt>
      <trkpt lat="66.35516" lon="20.7274">
        <ele>107.060098</ele>
        <time>2020-09-22T08:18:05.374Z</time>
      </trkpt>
      <trkpt lat="66.35506" lon="20.72744">
        <ele>107.184733</ele>
        <time>2020-09-22T08:18:07.400Z</time>
      </trkpt>
      <trkpt lat="66.35497" lon="20.72747">
        <ele>107.318913</ele>
        <time>2020-09-22T08:18:09.356Z</time>
      </trkpt>
      <trkpt lat="66.35485" lon="20.72753">
        <ele>107.51293</ele>
        <time>2020-09-22T08:18:12.351Z</time>
      </trkpt>
      <trkpt lat="66.35472" lon="20.7276">
        <ele>107.704285</ele>
        <time>2020-09-22T08:18:15.355Z</time>
      </trkpt>
      <trkpt lat="66.3546" lon="20.72768">
        <ele>107.892054</ele>
        <time>2020-09-22T08:18:18.368Z</time>
      </trkpt>
      <trkpt lat="66.35447" lon="20.72776">
        <ele>108.083671</ele>
        <time>2020-09-22T08:18:21.352Z</time>
      </trkpt>
      <trkpt lat="66.35435" lon="20.72783">
        <ele>108.267556</ele>
        <time>2020-09-22T08:18:24.343Z</time>
      </trkpt>
      <trkpt lat="66.35423" lon="20.72792">
        <ele>108.452941</ele>
        <time>2020-09-22T08:18:27.375Z</time>
      </trkpt>
      <trkpt lat="66.35411" lon="20.72799">
        <ele>108.627946</ele>
        <time>2020-09-22T08:18:30.357Z</time>
      </trkpt>
      <trkpt lat="66.354" lon="20.72806">
        <ele>108.806249</ele>
        <time>2020-09-22T08:18:33.357Z</time>
      </trkpt>
      <trkpt lat="66.35387" lon="20.72813">
        <ele>108.994033</ele>
        <time>2020-09-22T08:18:36.335Z</time>
      </trkpt>
      <trkpt lat="66.35375" lon="20.7282">
        <ele>109.17894</ele>
        <time>2020-09-22T08:18:39.350Z</time>
      </trkpt>
      <trkpt lat="66.35363" lon="20.72829">
        <ele>109.366228</ele>
        <time>2020-09-22T08:18:42.364Z</time>
      </trkpt>
      <trkpt lat="66.35351" lon="20.72838">
        <ele>109.553194</ele>
        <time>2020-09-22T08:18:45.377Z</time>
      </trkpt>
      <trkpt lat="66.35342" lon="20.72844">
        <ele>109.685831</ele>
        <time>2020-09-22T08:18:47.353Z</time>
      </trkpt>
      <trkpt lat="66.3533" lon="20.72854">
        <ele>109.670004</ele>
        <time>2020-09-22T08:18:50.361Z</time>
      </trkpt>
      <trkpt lat="66.35318" lon="20.72864">
        <ele>109.523149</ele>
        <time>2020-09-22T08:18:53.368Z</time>
      </trkpt>
      <trkpt lat="66.35306" lon="20.72872">
        <ele>109.381889</ele>
        <time>2020-09-22T08:18:56.361Z</time>
      </trkpt>
      <trkpt lat="66.35294" lon="20.72883">
        <ele>109.232285</ele>
        <time>2020-09-22T08:18:59.352Z</time>
      </trkpt>
      <trkpt lat="66.35282" lon="20.72894">
        <ele>109.087024</ele>
        <time>2020-09-22T08:19:02.368Z</time>
      </trkpt>
      <trkpt lat="66.3527" lon="20.72904">
        <ele>108.942063</ele>
        <time>2020-09-22T08:19:05.363Z</time>
      </trkpt>
      <trkpt lat="66.35257" lon="20.72915">
        <ele>108.790414</ele>
        <time>2020-09-22T08:19:08.354Z</time>
      </trkpt>
      <trkpt lat="66.35249" lon="20.72924">
        <ele>108.685873</ele>
        <time>2020-09-22T08:19:10.356Z</time>
      </trkpt>
      <trkpt lat="66.35241" lon="20.72933">
        <ele>108.580938</ele>
        <time>2020-09-22T08:19:12.389Z</time>
      </trkpt>
      <trkpt lat="66.35232" lon="20.72942">
        <ele>108.477465</ele>
        <time>2020-09-22T08:19:14.356Z</time>
      </trkpt>
      <trkpt lat="66.3522" lon="20.72955">
        <ele>108.323165</ele>
        <time>2020-09-22T08:19:17.355Z</time>
      </trkpt>
      <trkpt lat="66.35212" lon="20.72963">
        <ele>108.218394</ele>
        <time>2020-09-22T08:19:19.352Z</time>
      </trkpt>
      <trkpt lat="66.35203" lon="20.72973">
        <ele>108.106398</ele>
        <time>2020-09-22T08:19:21.343Z</time>
      </trkpt>
      <trkpt lat="66.35194" lon="20.72982">
        <ele>107.996497</ele>
        <time>2020-09-22T08:19:23.354Z</time>
      </trkpt>
      <trkpt lat="66.35185" lon="20.72992">
        <ele>107.88467</ele>
        <time>2020-09-22T08:19:25.350Z</time>
      </trkpt>
      <trkpt lat="66.35176" lon="20.73002">
        <ele>107.772954</ele>
        <time>2020-09-22T08:19:27.395Z</time>
      </trkpt>
      <trkpt lat="66.35168" lon="20.73012">
        <ele>107.626325</ele>
        <time>2020-09-22T08:19:29.383Z</time>
      </trkpt>
      <trkpt lat="66.35159" lon="20.73022">
        <ele>107.364356</ele>
        <time>2020-09-22T08:19:31.370Z</time>
      </trkpt>
      <trkpt lat="66.3515" lon="20.73031">
        <ele>107.097779</ele>
        <time>2020-09-22T08:19:33.370Z</time>
      </trkpt>
      <trkpt lat="66.35141" lon="20.7304">
        <ele>106.837115</ele>
        <time>2020-09-22T08:19:35.379Z</time>
      </trkpt>
      <trkpt lat="66.35132" lon="20.73049">
        <ele>106.572662</ele>
        <time>2020-09-22T08:19:37.362Z</time>
      </trkpt>
      <trkpt lat="66.35123" lon="20.73058">
        <ele>106.303551</ele>
        <time>2020-09-22T08:19:39.379Z</time>
      </trkpt>
      <trkpt lat="66.35115" lon="20.73068">
        <ele>106.044546</ele>
        <time>2020-09-22T08:19:41.392Z</time>
      </trkpt>
      <trkpt lat="66.35106" lon="20.73077">
        <ele>105.783899</ele>
        <time>2020-09-22T08:19:43.355Z</time>
      </trkpt>
      <trkpt lat="66.35097" lon="20.73086">
        <ele>105.515216</ele>
        <time>2020-09-22T08:19:45.398Z</time>
      </trkpt>
      <trkpt lat="66.35088" lon="20.73096">
        <ele>105.251427</ele>
        <time>2020-09-22T08:19:47.355Z</time>
      </trkpt>
      <trkpt lat="66.35079" lon="20.73107">
        <ele>104.980781</ele>
        <time>2020-09-22T08:19:49.361Z</time>
      </trkpt>
      <trkpt lat="66.35071" lon="20.73117">
        <ele>104.715397</ele>
        <time>2020-09-22T08:19:51.397Z</time>
      </trkpt>
      <trkpt lat="66.35062" lon="20.73126">
        <ele>104.447559</ele>
        <time>2020-09-22T08:19:53.381Z</time>
      </trkpt>
      <trkpt lat="66.35052" lon="20.73136">
        <ele>104.166447</ele>
        <time>2020-09-22T08:19:55.374Z</time>
      </trkpt>
      <trkpt lat="66.35043" lon="20.73146">
        <ele>103.887129</ele>
        <time>2020-09-22T08:19:57.398Z</time>
      </trkpt>
      <trkpt lat="66.35034" lon="20.73156">
        <ele>103.613742</ele>
        <time>2020-09-22T08:19:59.358Z</time>
      </trkpt>
      <trkpt lat="66.35025" lon="20.73168">
        <ele>103.331342</ele>
        <time>2020-09-22T08:20:01.354Z</time>
      </trkpt>
      <trkpt lat="66.35016" lon="20.73179">
        <ele>103.057324</ele>
        <time>2020-09-22T08:20:03.366Z</time>
      </trkpt>
      <trkpt lat="66.35007" lon="20.7319">
        <ele>102.783798</ele>
        <time>2020-09-22T08:20:05.388Z</time>
      </trkpt>
      <trkpt lat="66.34998" lon="20.732">
        <ele>102.764189</ele>
        <time>2020-09-22T08:20:07.345Z</time>
      </trkpt>
      <trkpt lat="66.34988" lon="20.73211">
        <ele>102.801738</ele>
        <time>2020-09-22T08:20:09.355Z</time>
      </trkpt>
      <trkpt lat="66.34979" lon="20.73221">
        <ele>102.839109</ele>
        <time>2020-09-22T08:20:11.343Z</time>
      </trkpt>
      <trkpt lat="66.34969" lon="20.73231">
        <ele>102.87642</ele>
        <time>2020-09-22T08:20:13.352Z</time>
      </trkpt>
      <trkpt lat="66.3496" lon="20.73242">
        <ele>102.91391</ele>
        <time>2020-09-22T08:20:15.345Z</time>
      </trkpt>
      <trkpt lat="66.34951" lon="20.73252">
        <ele>102.950557</ele>
        <time>2020-09-22T08:20:17.351Z</time>
      </trkpt>
      <trkpt lat="66.34941" lon="20.73262">
        <ele>102.987868</ele>
        <time>2020-09-22T08:20:19.357Z</time>
      </trkpt>
      <trkpt lat="66.34932" lon="20.73273">
        <ele>103.025298</ele>
        <time>2020-09-22T08:20:21.362Z</time>
      </trkpt>
      <trkpt lat="66.34923" lon="20.73283">
        <ele>103.061768</ele>
        <time>2020-09-22T08:20:23.368Z</time>
      </trkpt>
      <trkpt lat="66.34914" lon="20.73293">
        <ele>103.098536</ele>
        <time>2020-09-22T08:20:25.381Z</time>
      </trkpt>
      <trkpt lat="66.34904" lon="20.73304">
        <ele>103.136599</ele>
        <time>2020-09-22T08:20:27.416Z</time>
      </trkpt>
      <trkpt lat="66.34895" lon="20.73315">
        <ele>103.174752</ele>
        <time>2020-09-22T08:20:29.362Z</time>
      </trkpt>
      <trkpt lat="66.34885" lon="20.73325">
        <ele>103.212672</ele>
        <time>2020-09-22T08:20:31.338Z</time>
      </trkpt>
      <trkpt lat="66.34876" lon="20.73336">
        <ele>103.248989</ele>
        <time>2020-09-22T08:20:33.359Z</time>
      </trkpt>
      <trkpt lat="66.34867" lon="20.73346">
        <ele>103.283786</ele>
        <time>2020-09-22T08:20:35.350Z</time>
      </trkpt>
      <trkpt lat="66.34858" lon="20.73356">
        <ele>103.3192</ele>
        <time>2020-09-22T08:20:37.400Z</time>
      </trkpt>
      <trkpt lat="66.3485" lon="20.73366">
        <ele>103.352573</ele>
        <time>2020-09-22T08:20:39.379Z</time>
      </trkpt>
      <trkpt lat="66.34842" lon="20.73376">
        <ele>103.387175</ele>
        <time>2020-09-22T08:20:41.356Z</time>
      </trkpt>
      <trkpt lat="66.34833" lon="20.73388">
        <ele>103.342251</ele>
        <time>2020-09-22T08:20:43.390Z</time>
      </trkpt>
      <trkpt lat="66.34824" lon="20.73398">
        <ele>103.296268</ele>
        <time>2020-09-22T08:20:45.392Z</time>
      </trkpt>
      <trkpt lat="66.34815" lon="20.73409">
        <ele>103.248868</ele>
        <time>2020-09-22T08:20:47.348Z</time>
      </trkpt>
      <trkpt lat="66.34806" lon="20.7342">
        <ele>103.202785</ele>
        <time>2020-09-22T08:20:49.370Z</time>
      </trkpt>
      <trkpt lat="66.34797" lon="20.7343">
        <ele>103.157086</ele>
        <time>2020-09-22T08:20:51.357Z</time>
      </trkpt>
      <trkpt lat="66.34787" lon="20.7344">
        <ele>103.109581</ele>
        <time>2020-09-22T08:20:53.351Z</time>
      </trkpt>
      <trkpt lat="66.34778" lon="20.73451">
        <ele>103.060602</ele>
        <time>2020-09-22T08:20:55.344Z</time>
      </trkpt>
      <trkpt lat="66.34768" lon="20.7346">
        <ele>103.012756</ele>
        <time>2020-09-22T08:20:57.362Z</time>
      </trkpt>
      <trkpt lat="66.34758" lon="20.7347">
        <ele>102.964056</ele>
        <time>2020-09-22T08:20:59.361Z</time>
      </trkpt>
      <trkpt lat="66.34749" lon="20.73481">
        <ele>102.91428</ele>
        <time>2020-09-22T08:21:01.370Z</time>
      </trkpt>
      <trkpt lat="66.34739" lon="20.73492">
        <ele>102.863652</ele>
        <time>2020-09-22T08:21:03.369Z</time>
      </trkpt>
      <trkpt lat="66.34729" lon="20.73504">
        <ele>102.813255</ele>
        <time>2020-09-22T08:21:05.383Z</time>
      </trkpt>
      <trkpt lat="66.34719" lon="20.73515">
        <ele>102.763094</ele>
        <time>2020-09-22T08:21:07.357Z</time>
      </trkpt>
      <trkpt lat="66.34709" lon="20.73526">
        <ele>102.713512</ele>
        <time>2020-09-22T08:21:09.385Z</time>
      </trkpt>
      <trkpt lat="66.347" lon="20.73537">
        <ele>102.665429</ele>
        <time>2020-09-22T08:21:11.379Z</time>
      </trkpt>
      <trkpt lat="66.3469" lon="20.73548">
        <ele>102.616689</ele>
        <time>2020-09-22T08:21:13.385Z</time>
      </trkpt>
      <trkpt lat="66.34681" lon="20.73559">
        <ele>102.568708</ele>
        <time>2020-09-22T08:21:15.355Z</time>
      </trkpt>
      <trkpt lat="66.34671" lon="20.7357">
        <ele>102.463246</ele>
        <time>2020-09-22T08:21:17.364Z</time>
      </trkpt>
      <trkpt lat="66.34661" lon="20.7358">
        <ele>102.327247</ele>
        <time>2020-09-22T08:21:19.352Z</time>
      </trkpt>
      <trkpt lat="66.34652" lon="20.73591">
        <ele>102.194504</ele>
        <time>2020-09-22T08:21:21.354Z</time>
      </trkpt>
      <trkpt lat="66.34641" lon="20.73602">
        <ele>102.055225</ele>
        <time>2020-09-22T08:21:23.356Z</time>
      </trkpt>
      <trkpt lat="66.34632" lon="20.73613">
        <ele>101.920518</ele>
        <time>2020-09-22T08:21:25.382Z</time>
      </trkpt>
      <trkpt lat="66.34622" lon="20.73623">
        <ele>101.788575</ele>
        <time>2020-09-22T08:21:27.347Z</time>
      </trkpt>
      <trkpt lat="66.34612" lon="20.73634">
        <ele>101.656975</ele>
        <time>2020-09-22T08:21:29.358Z</time>
      </trkpt>
      <trkpt lat="66.34602" lon="20.73645">
        <ele>101.522475</ele>
        <time>2020-09-22T08:21:31.371Z</time>
      </trkpt>
      <trkpt lat="66.34593" lon="20.73655">
        <ele>101.390728</ele>
        <time>2020-09-22T08:21:33.366Z</time>
      </trkpt>
      <trkpt lat="66.34583" lon="20.73665">
        <ele>101.256862</ele>
        <time>2020-09-22T08:21:35.377Z</time>
      </trkpt>
      <trkpt lat="66.34573" lon="20.73676">
        <ele>101.125114</ele>
        <time>2020-09-22T08:21:37.351Z</time>
      </trkpt>
      <trkpt lat="66.34563" lon="20.73686">
        <ele>100.988551</ele>
        <time>2020-09-22T08:21:39.350Z</time>
      </trkpt>
      <trkpt lat="66.34553" lon="20.73696">
        <ele>100.853714</ele>
        <time>2020-09-22T08:21:41.381Z</time>
      </trkpt>
      <trkpt lat="66.34543" lon="20.73708">
        <ele>100.714966</ele>
        <time>2020-09-22T08:21:43.349Z</time>
      </trkpt>
      <trkpt lat="66.34533" lon="20.7372">
        <ele>100.575162</ele>
        <time>2020-09-22T08:21:45.400Z</time>
      </trkpt>
      <trkpt lat="66.34523" lon="20.73732">
        <ele>100.436054</ele>
        <time>2020-09-22T08:21:47.353Z</time>
      </trkpt>
      <trkpt lat="66.34513" lon="20.73745">
        <ele>100.303426</ele>
        <time>2020-09-22T08:21:49.404Z</time>
      </trkpt>
      <trkpt lat="66.34503" lon="20.73757">
        <ele>100.341593</ele>
        <time>2020-09-22T08:21:51.343Z</time>
      </trkpt>
      <trkpt lat="66.34493" lon="20.73768">
        <ele>100.377559</ele>
        <time>2020-09-22T08:21:53.361Z</time>
      </trkpt>
      <trkpt lat="66.34483" lon="20.7378">
        <ele>100.415628</ele>
        <time>2020-09-22T08:21:55.341Z</time>
      </trkpt>
      <trkpt lat="66.34473" lon="20.73792">
        <ele>100.453676</ele>
        <time>2020-09-22T08:21:57.352Z</time>
      </trkpt>
      <trkpt lat="66.34463" lon="20.73803">
        <ele>100.491178</ele>
        <time>2020-09-22T08:21:59.341Z</time>
      </trkpt>
      <trkpt lat="66.34454" lon="20.73815">
        <ele>100.528547</ele>
        <time>2020-09-22T08:22:01.393Z</time>
      </trkpt>
      <trkpt lat="66.34444" lon="20.73826">
        <ele>100.566361</ele>
        <time>2020-09-22T08:22:03.353Z</time>
      </trkpt>
      <trkpt lat="66.34433" lon="20.73837">
        <ele>100.604836</ele>
        <time>2020-09-22T08:22:05.344Z</time>
      </trkpt>
      <trkpt lat="66.34423" lon="20.73848">
        <ele>100.644313</ele>
        <time>2020-09-22T08:22:07.356Z</time>
      </trkpt>
      <trkpt lat="66.34412" lon="20.7386">
        <ele>100.685653</ele>
        <time>2020-09-22T08:22:09.348Z</time>
      </trkpt>
      <trkpt lat="66.34401" lon="20.73872">
        <ele>100.72438</ele>
        <time>2020-09-22T08:22:11.377Z</time>
      </trkpt>
      <trkpt lat="66.34391" lon="20.73884">
        <ele>100.762876</ele>
        <time>2020-09-22T08:22:13.340Z</time>
      </trkpt>
      <trkpt lat="66.34381" lon="20.73896">
        <ele>100.801234</ele>
        <time>2020-09-22T08:22:15.342Z</time>
      </trkpt>
      <trkpt lat="66.34371" lon="20.73908">
        <ele>100.84063</ele>
        <time>2020-09-22T08:22:17.358Z</time>
      </trkpt>
      <trkpt lat="66.3436" lon="20.73921">
        <ele>100.880524</ele>
        <time>2020-09-22T08:22:19.375Z</time>
      </trkpt>
      <trkpt lat="66.3435" lon="20.73933">
        <ele>100.917379</ele>
        <time>2020-09-22T08:22:21.352Z</time>
      </trkpt>
      <trkpt lat="66.3434" lon="20.73945">
        <ele>100.820964</ele>
        <time>2020-09-22T08:22:23.353Z</time>
      </trkpt>
      <trkpt lat="66.34329" lon="20.73956">
        <ele>100.721691</ele>
        <time>2020-09-22T08:22:25.374Z</time>
      </trkpt>
      <trkpt lat="66.34318" lon="20.73969">
        <ele>100.622357</ele>
        <time>2020-09-22T08:22:27.378Z</time>
      </trkpt>
      <trkpt lat="66.34307" lon="20.73981">
        <ele>100.523443</ele>
        <time>2020-09-22T08:22:29.371Z</time>
      </trkpt>
      <trkpt lat="66.34297" lon="20.73992">
        <ele>100.423261</ele>
        <time>2020-09-22T08:22:31.345Z</time>
      </trkpt>
      <trkpt lat="66.34286" lon="20.74004">
        <ele>100.322036</ele>
        <time>2020-09-22T08:22:33.345Z</time>
      </trkpt>
      <trkpt lat="66.34275" lon="20.74016">
        <ele>100.222983</ele>
        <time>2020-09-22T08:22:35.359Z</time>
      </trkpt>
      <trkpt lat="66.34264" lon="20.74029">
        <ele>100.118971</ele>
        <time>2020-09-22T08:22:37.382Z</time>
      </trkpt>
      <trkpt lat="66.34252" lon="20.74043">
        <ele>100.009936</ele>
        <time>2020-09-22T08:22:39.338Z</time>
      </trkpt>
      <trkpt lat="66.3424" lon="20.74056">
        <ele>99.898038</ele>
        <time>2020-09-22T08:22:41.391Z</time>
      </trkpt>
      <trkpt lat="66.34227" lon="20.74071">
        <ele>99.782896</ele>
        <time>2020-09-22T08:22:43.364Z</time>
      </trkpt>
      <trkpt lat="66.34215" lon="20.74086">
        <ele>99.667609</ele>
        <time>2020-09-22T08:22:45.359Z</time>
      </trkpt>
      <trkpt lat="66.34203" lon="20.74103">
        <ele>99.547932</ele>
        <time>2020-09-22T08:22:47.340Z</time>
      </trkpt>
      <trkpt lat="66.34189" lon="20.7412">
        <ele>99.420116</ele>
        <time>2020-09-22T08:22:49.357Z</time>
      </trkpt>
      <trkpt lat="66.34176" lon="20.74138">
        <ele>99.266935</ele>
        <time>2020-09-22T08:22:51.356Z</time>
      </trkpt>
      <trkpt lat="66.34164" lon="20.74156">
        <ele>99.109071</ele>
        <time>2020-09-22T08:22:53.381Z</time>
      </trkpt>
      <trkpt lat="66.34151" lon="20.74173">
        <ele>98.950798</ele>
        <time>2020-09-22T08:22:55.359Z</time>
      </trkpt>
      <trkpt lat="66.34139" lon="20.74191">
        <ele>98.794032</ele>
        <time>2020-09-22T08:22:57.348Z</time>
      </trkpt>
      <trkpt lat="66.34126" lon="20.74209">
        <ele>98.633851</ele>
        <time>2020-09-22T08:22:59.372Z</time>
      </trkpt>
      <trkpt lat="66.34113" lon="20.7423">
        <ele>98.468399</ele>
        <time>2020-09-22T08:23:01.380Z</time>
      </trkpt>
      <trkpt lat="66.341" lon="20.7425">
        <ele>98.304533</ele>
        <time>2020-09-22T08:23:03.337Z</time>
      </trkpt>
      <trkpt lat="66.34088" lon="20.7427">
        <ele>98.143005</ele>
        <time>2020-09-22T08:23:05.360Z</time>
      </trkpt>
      <trkpt lat="66.34076" lon="20.7429">
        <ele>97.984212</ele>
        <time>2020-09-22T08:23:07.359Z</time>
      </trkpt>
      <trkpt lat="66.34063" lon="20.7431">
        <ele>97.824747</ele>
        <time>2020-09-22T08:23:09.343Z</time>
      </trkpt>
      <trkpt lat="66.34052" lon="20.74329">
        <ele>97.67198</ele>
        <time>2020-09-22T08:23:11.361Z</time>
      </trkpt>
      <trkpt lat="66.3404" lon="20.74349">
        <ele>97.518843</ele>
        <time>2020-09-22T08:23:13.357Z</time>
      </trkpt>
      <trkpt lat="66.34028" lon="20.74368">
        <ele>97.491544</ele>
        <time>2020-09-22T08:23:15.395Z</time>
      </trkpt>
      <trkpt lat="66.34016" lon="20.74388">
        <ele>97.580393</ele>
        <time>2020-09-22T08:23:17.351Z</time>
      </trkpt>
      <trkpt lat="66.34004" lon="20.74409">
        <ele>97.668253</ele>
        <time>2020-09-22T08:23:19.358Z</time>
      </trkpt>
      <trkpt lat="66.33993" lon="20.74429">
        <ele>97.754936</ele>
        <time>2020-09-22T08:23:21.351Z</time>
      </trkpt>
      <trkpt lat="66.33981" lon="20.74448">
        <ele>97.837863</ele>
        <time>2020-09-22T08:23:23.363Z</time>
      </trkpt>
      <trkpt lat="66.3397" lon="20.74468">
        <ele>97.922461</ele>
        <time>2020-09-22T08:23:25.377Z</time>
      </trkpt>
      <trkpt lat="66.33959" lon="20.74489">
        <ele>98.005934</ele>
        <time>2020-09-22T08:23:27.370Z</time>
      </trkpt>
      <trkpt lat="66.3395" lon="20.7451">
        <ele>98.081628</ele>
        <time>2020-09-22T08:23:29.358Z</time>
      </trkpt>
      <trkpt lat="66.3394" lon="20.7453">
        <ele>98.161496</ele>
        <time>2020-09-22T08:23:31.366Z</time>
      </trkpt>
      <trkpt lat="66.33929" lon="20.74549">
        <ele>98.24178</ele>
        <time>2020-09-22T08:23:33.347Z</time>
      </trkpt>
      <trkpt lat="66.33919" lon="20.74569">
        <ele>98.318979</ele>
        <time>2020-09-22T08:23:35.366Z</time>
      </trkpt>
      <trkpt lat="66.33909" lon="20.74588">
        <ele>98.39531</ele>
        <time>2020-09-22T08:23:37.365Z</time>
      </trkpt>
      <trkpt lat="66.33899" lon="20.74607">
        <ele>98.471788</ele>
        <time>2020-09-22T08:23:39.359Z</time>
      </trkpt>
      <trkpt lat="66.33889" lon="20.74627">
        <ele>98.51272</ele>
        <time>2020-09-22T08:23:41.383Z</time>
      </trkpt>
      <trkpt lat="66.33879" lon="20.74648">
        <ele>98.216514</ele>
        <time>2020-09-22T08:23:43.393Z</time>
      </trkpt>
      <trkpt lat="66.33869" lon="20.74667">
        <ele>97.928262</ele>
        <time>2020-09-22T08:23:45.375Z</time>
      </trkpt>
      <trkpt lat="66.33859" lon="20.74687">
        <ele>97.642347</ele>
        <time>2020-09-22T08:23:47.360Z</time>
      </trkpt>
      <trkpt lat="66.33849" lon="20.74706">
        <ele>97.365818</ele>
        <time>2020-09-22T08:23:49.398Z</time>
      </trkpt>
      <trkpt lat="66.33841" lon="20.74726">
        <ele>97.094656</ele>
        <time>2020-09-22T08:23:51.365Z</time>
      </trkpt>
      <trkpt lat="66.33832" lon="20.74746">
        <ele>96.83768</ele>
        <time>2020-09-22T08:23:53.380Z</time>
      </trkpt>
      <trkpt lat="66.33824" lon="20.74765">
        <ele>96.582953</ele>
        <time>2020-09-22T08:23:55.351Z</time>
      </trkpt>
      <trkpt lat="66.33816" lon="20.74784">
        <ele>96.327854</ele>
        <time>2020-09-22T08:23:57.352Z</time>
      </trkpt>
      <trkpt lat="66.33807" lon="20.74802">
        <ele>96.076194</ele>
        <time>2020-09-22T08:23:59.378Z</time>
      </trkpt>
      <trkpt lat="66.33799" lon="20.74819">
        <ele>95.8361</ele>
        <time>2020-09-22T08:24:01.354Z</time>
      </trkpt>
      <trkpt lat="66.33791" lon="20.74837">
        <ele>95.594284</ele>
        <time>2020-09-22T08:24:03.351Z</time>
      </trkpt>
      <trkpt lat="66.33783" lon="20.74856">
        <ele>95.338778</ele>
        <time>2020-09-22T08:24:05.361Z</time>
      </trkpt>
      <trkpt lat="66.33775" lon="20.74874">
        <ele>95.089659</ele>
        <time>2020-09-22T08:24:07.372Z</time>
      </trkpt>
      <trkpt lat="66.33766" lon="20.74894">
        <ele>94.835802</ele>
        <time>2020-09-22T08:24:09.343Z</time>
      </trkpt>
      <trkpt lat="66.33759" lon="20.74912">
        <ele>94.602725</ele>
        <time>2020-09-22T08:24:11.340Z</time>
      </trkpt>
      <trkpt lat="66.33753" lon="20.7493">
        <ele>94.472615</ele>
        <time>2020-09-22T08:24:13.362Z</time>
      </trkpt>
      <trkpt lat="66.33746" lon="20.74949">
        <ele>94.444012</ele>
        <time>2020-09-22T08:24:15.360Z</time>
      </trkpt>
      <trkpt lat="66.33739" lon="20.74968">
        <ele>94.413554</ele>
        <time>2020-09-22T08:24:17.392Z</time>
      </trkpt>
      <trkpt lat="66.33732" lon="20.74987">
        <ele>94.383901</ele>
        <time>2020-09-22T08:24:19.344Z</time>
      </trkpt>
      <trkpt lat="66.33724" lon="20.75007">
        <ele>94.352721</ele>
        <time>2020-09-22T08:24:21.349Z</time>
      </trkpt>
      <trkpt lat="66.33717" lon="20.75027">
        <ele>94.322496</ele>
        <time>2020-09-22T08:24:23.363Z</time>
      </trkpt>
      <trkpt lat="66.3371" lon="20.75048">
        <ele>94.291278</ele>
        <time>2020-09-22T08:24:25.338Z</time>
      </trkpt>
      <trkpt lat="66.33703" lon="20.75067">
        <ele>94.260375</ele>
        <time>2020-09-22T08:24:27.342Z</time>
      </trkpt>
      <trkpt lat="66.33695" lon="20.75087">
        <ele>94.229304</ele>
        <time>2020-09-22T08:24:29.353Z</time>
      </trkpt>
      <trkpt lat="66.33688" lon="20.75108">
        <ele>94.198256</ele>
        <time>2020-09-22T08:24:31.382Z</time>
      </trkpt>
      <trkpt lat="66.3368" lon="20.75127">
        <ele>94.168015</ele>
        <time>2020-09-22T08:24:33.373Z</time>
      </trkpt>
      <trkpt lat="66.33673" lon="20.75146">
        <ele>94.137494</ele>
        <time>2020-09-22T08:24:35.370Z</time>
      </trkpt>
      <trkpt lat="66.33666" lon="20.75166">
        <ele>94.10653</ele>
        <time>2020-09-22T08:24:37.368Z</time>
      </trkpt>
      <trkpt lat="66.33659" lon="20.75187">
        <ele>94.075265</ele>
        <time>2020-09-22T08:24:39.358Z</time>
      </trkpt>
      <trkpt lat="66.33652" lon="20.75208">
        <ele>94.044266</ele>
        <time>2020-09-22T08:24:41.362Z</time>
      </trkpt>
      <trkpt lat="66.33646" lon="20.7523">
        <ele>94.013691</ele>
        <time>2020-09-22T08:24:43.366Z</time>
      </trkpt>
      <trkpt lat="66.33638" lon="20.75251">
        <ele>93.982414</ele>
        <time>2020-09-22T08:24:45.364Z</time>
      </trkpt>
      <trkpt lat="66.33632" lon="20.75271">
        <ele>93.820373</ele>
        <time>2020-09-22T08:24:47.357Z</time>
      </trkpt>
      <trkpt lat="66.33625" lon="20.75292">
        <ele>93.600212</ele>
        <time>2020-09-22T08:24:49.357Z</time>
      </trkpt>
      <trkpt lat="66.33619" lon="20.75313">
        <ele>93.374853</ele>
        <time>2020-09-22T08:24:51.372Z</time>
      </trkpt>
      <trkpt lat="66.33612" lon="20.75335">
        <ele>93.148164</ele>
        <time>2020-09-22T08:24:53.368Z</time>
      </trkpt>
      <trkpt lat="66.33605" lon="20.75356">
        <ele>92.917568</ele>
        <time>2020-09-22T08:24:55.340Z</time>
      </trkpt>
      <trkpt lat="66.33598" lon="20.75378">
        <ele>92.679152</ele>
        <time>2020-09-22T08:24:57.372Z</time>
      </trkpt>
      <trkpt lat="66.33591" lon="20.754">
        <ele>92.4492</ele>
        <time>2020-09-22T08:24:59.381Z</time>
      </trkpt>
      <trkpt lat="66.33584" lon="20.75421">
        <ele>92.220574</ele>
        <time>2020-09-22T08:25:01.357Z</time>
      </trkpt>
      <trkpt lat="66.33578" lon="20.75442">
        <ele>92.004932</ele>
        <time>2020-09-22T08:25:03.373Z</time>
      </trkpt>
      <trkpt lat="66.33571" lon="20.75463">
        <ele>91.775614</ele>
        <time>2020-09-22T08:25:05.358Z</time>
      </trkpt>
      <trkpt lat="66.33564" lon="20.75484">
        <ele>91.546935</ele>
        <time>2020-09-22T08:25:07.408Z</time>
      </trkpt>
      <trkpt lat="66.33557" lon="20.75504">
        <ele>91.318795</ele>
        <time>2020-09-22T08:25:09.371Z</time>
      </trkpt>
      <trkpt lat="66.33549" lon="20.75527">
        <ele>91.065899</ele>
        <time>2020-09-22T08:25:11.380Z</time>
      </trkpt>
      <trkpt lat="66.33541" lon="20.75551">
        <ele>90.802639</ele>
        <time>2020-09-22T08:25:13.343Z</time>
      </trkpt>
      <trkpt lat="66.33533" lon="20.75575">
        <ele>90.5413</ele>
        <time>2020-09-22T08:25:15.375Z</time>
      </trkpt>
      <trkpt lat="66.33525" lon="20.75599">
        <ele>90.280689</ele>
        <time>2020-09-22T08:25:17.378Z</time>
      </trkpt>
      <trkpt lat="66.33517" lon="20.75624">
        <ele>90.125883</ele>
        <time>2020-09-22T08:25:19.377Z</time>
      </trkpt>
      <trkpt lat="66.3351" lon="20.75649">
        <ele>90.002685</ele>
        <time>2020-09-22T08:25:21.364Z</time>
      </trkpt>
      <trkpt lat="66.33502" lon="20.75675">
        <ele>89.877655</ele>
        <time>2020-09-22T08:25:23.395Z</time>
      </trkpt>
      <trkpt lat="66.33494" lon="20.75699">
        <ele>89.757919</ele>
        <time>2020-09-22T08:25:25.376Z</time>
      </trkpt>
      <trkpt lat="66.33487" lon="20.75722">
        <ele>89.643038</ele>
        <time>2020-09-22T08:25:27.340Z</time>
      </trkpt>
      <trkpt lat="66.3348" lon="20.75745">
        <ele>89.530271</ele>
        <time>2020-09-22T08:25:29.388Z</time>
      </trkpt>
      <trkpt lat="66.33473" lon="20.75768">
        <ele>89.418734</ele>
        <time>2020-09-22T08:25:31.344Z</time>
      </trkpt>
      <trkpt lat="66.33466" lon="20.75791">
        <ele>89.305678</ele>
        <time>2020-09-22T08:25:33.360Z</time>
      </trkpt>
      <trkpt lat="66.33458" lon="20.75813">
        <ele>89.191631</ele>
        <time>2020-09-22T08:25:35.360Z</time>
      </trkpt>
      <trkpt lat="66.3345" lon="20.75836">
        <ele>89.075832</ele>
        <time>2020-09-22T08:25:37.373Z</time>
      </trkpt>
      <trkpt lat="66.33442" lon="20.75859">
        <ele>88.958156</ele>
        <time>2020-09-22T08:25:39.384Z</time>
      </trkpt>
      <trkpt lat="66.33435" lon="20.7588">
        <ele>88.845628</ele>
        <time>2020-09-22T08:25:41.365Z</time>
      </trkpt>
      <trkpt lat="66.33428" lon="20.75903">
        <ele>88.733182</ele>
        <time>2020-09-22T08:25:43.370Z</time>
      </trkpt>
      <trkpt lat="66.3342" lon="20.75926">
        <ele>88.617684</ele>
        <time>2020-09-22T08:25:45.356Z</time>
      </trkpt>
      <trkpt lat="66.33413" lon="20.75949">
        <ele>88.50034</ele>
        <time>2020-09-22T08:25:47.365Z</time>
      </trkpt>
      <trkpt lat="66.33405" lon="20.75972">
        <ele>88.531912</ele>
        <time>2020-09-22T08:25:49.387Z</time>
      </trkpt>
      <trkpt lat="66.33397" lon="20.75996">
        <ele>88.605197</ele>
        <time>2020-09-22T08:25:51.363Z</time>
      </trkpt>
      <trkpt lat="66.3339" lon="20.76018">
        <ele>88.677896</ele>
        <time>2020-09-22T08:25:53.349Z</time>
      </trkpt>
      <trkpt lat="66.33383" lon="20.76042">
        <ele>88.752935</ele>
        <time>2020-09-22T08:25:55.355Z</time>
      </trkpt>
      <trkpt lat="66.33376" lon="20.76064">
        <ele>88.822534</ele>
        <time>2020-09-22T08:25:57.358Z</time>
      </trkpt>
      <trkpt lat="66.33368" lon="20.76086">
        <ele>88.896256</ele>
        <time>2020-09-22T08:25:59.365Z</time>
      </trkpt>
      <trkpt lat="66.33361" lon="20.76107">
        <ele>88.964944</ele>
        <time>2020-09-22T08:26:01.340Z</time>
      </trkpt>
      <trkpt lat="66.33353" lon="20.76128">
        <ele>89.034385</ele>
        <time>2020-09-22T08:26:03.350Z</time>
      </trkpt>
      <trkpt lat="66.33346" lon="20.7615">
        <ele>89.104983</ele>
        <time>2020-09-22T08:26:05.341Z</time>
      </trkpt>
      <trkpt lat="66.33338" lon="20.76171">
        <ele>89.176246</ele>
        <time>2020-09-22T08:26:07.362Z</time>
      </trkpt>
      <trkpt lat="66.33331" lon="20.76193">
        <ele>89.247282</ele>
        <time>2020-09-22T08:26:09.353Z</time>
      </trkpt>
      <trkpt lat="66.33323" lon="20.76213">
        <ele>89.318541</ele>
        <time>2020-09-22T08:26:11.340Z</time>
      </trkpt>
      <trkpt lat="66.33314" lon="20.76235">
        <ele>89.393473</ele>
        <time>2020-09-22T08:26:13.364Z</time>
      </trkpt>
      <trkpt lat="66.33305" lon="20.76256">
        <ele>89.469566</ele>
        <time>2020-09-22T08:26:15.356Z</time>
      </trkpt>
      <trkpt lat="66.33296" lon="20.76277">
        <ele>89.544941</ele>
        <time>2020-09-22T08:26:17.351Z</time>
      </trkpt>
      <trkpt lat="66.33288" lon="20.76297">
        <ele>89.627199</ele>
        <time>2020-09-22T08:26:19.344Z</time>
      </trkpt>
      <trkpt lat="66.33279" lon="20.76317">
        <ele>89.715751</ele>
        <time>2020-09-22T08:26:21.374Z</time>
      </trkpt>
      <trkpt lat="66.33271" lon="20.76337">
        <ele>89.802114</ele>
        <time>2020-09-22T08:26:23.383Z</time>
      </trkpt>
      <trkpt lat="66.33263" lon="20.76356">
        <ele>89.886955</ele>
        <time>2020-09-22T08:26:25.376Z</time>
      </trkpt>
      <trkpt lat="66.33256" lon="20.76374">
        <ele>89.969253</ele>
        <time>2020-09-22T08:26:27.372Z</time>
      </trkpt>
      <trkpt lat="66.33248" lon="20.76393">
        <ele>90.051407</ele>
        <time>2020-09-22T08:26:29.378Z</time>
      </trkpt>
      <trkpt lat="66.3324" lon="20.7641">
        <ele>90.131115</ele>
        <time>2020-09-22T08:26:31.349Z</time>
      </trkpt>
      <trkpt lat="66.33232" lon="20.76427">
        <ele>90.211939</ele>
        <time>2020-09-22T08:26:33.364Z</time>
      </trkpt>
      <trkpt lat="66.33224" lon="20.76443">
        <ele>90.292173</ele>
        <time>2020-09-22T08:26:35.352Z</time>
      </trkpt>
      <trkpt lat="66.33217" lon="20.76459">
        <ele>90.366713</ele>
        <time>2020-09-22T08:26:37.373Z</time>
      </trkpt>
      <trkpt lat="66.33209" lon="20.76476">
        <ele>90.444991</ele>
        <time>2020-09-22T08:26:39.365Z</time>
      </trkpt>
      <trkpt lat="66.33202" lon="20.76492">
        <ele>90.519572</ele>
        <time>2020-09-22T08:26:41.362Z</time>
      </trkpt>
      <trkpt lat="66.33195" lon="20.76508">
        <ele>90.59436</ele>
        <time>2020-09-22T08:26:43.406Z</time>
      </trkpt>
      <trkpt lat="66.33187" lon="20.76525">
        <ele>90.672841</ele>
        <time>2020-09-22T08:26:45.372Z</time>
      </trkpt>
      <trkpt lat="66.33179" lon="20.76542">
        <ele>90.751205</ele>
        <time>2020-09-22T08:26:47.383Z</time>
      </trkpt>
      <trkpt lat="66.33172" lon="20.76558">
        <ele>90.826529</ele>
        <time>2020-09-22T08:26:49.376Z</time>
      </trkpt>
      <trkpt lat="66.33165" lon="20.76574">
        <ele>90.898935</ele>
        <time>2020-09-22T08:26:51.352Z</time>
      </trkpt>
      <trkpt lat="66.33158" lon="20.76589">
        <ele>90.973544</ele>
        <time>2020-09-22T08:26:53.373Z</time>
      </trkpt>
      <trkpt lat="66.3315" lon="20.76606">
        <ele>91.05315</ele>
        <time>2020-09-22T08:26:55.393Z</time>
      </trkpt>
      <trkpt lat="66.33142" lon="20.76621">
        <ele>91.134421</ele>
        <time>2020-09-22T08:26:57.378Z</time>
      </trkpt>
      <trkpt lat="66.33134" lon="20.76637">
        <ele>91.213619</ele>
        <time>2020-09-22T08:26:59.394Z</time>
      </trkpt>
      <trkpt lat="66.33126" lon="20.76653">
        <ele>91.295517</ele>
        <time>2020-09-22T08:27:01.352Z</time>
      </trkpt>
      <trkpt lat="66.33118" lon="20.76668">
        <ele>91.37766</ele>
        <time>2020-09-22T08:27:03.363Z</time>
      </trkpt>
      <trkpt lat="66.33109" lon="20.76684">
        <ele>91.459613</ele>
        <time>2020-09-22T08:27:05.383Z</time>
      </trkpt>
      <trkpt lat="66.33102" lon="20.76699">
        <ele>91.537595</ele>
        <time>2020-09-22T08:27:07.352Z</time>
      </trkpt>
      <trkpt lat="66.33095" lon="20.76713">
        <ele>91.609498</ele>
        <time>2020-09-22T08:27:09.345Z</time>
      </trkpt>
      <trkpt lat="66.33084" lon="20.76733">
        <ele>91.713844</ele>
        <time>2020-09-22T08:27:12.373Z</time>
      </trkpt>
      <trkpt lat="66.33073" lon="20.76753">
        <ele>91.819205</ele>
        <time>2020-09-22T08:27:15.349Z</time>
      </trkpt>
      <trkpt lat="66.33066" lon="20.76766">
        <ele>91.893306</ele>
        <time>2020-09-22T08:27:17.346Z</time>
      </trkpt>
      <trkpt lat="66.33058" lon="20.7678">
        <ele>91.968882</ele>
        <time>2020-09-22T08:27:19.404Z</time>
      </trkpt>
      <trkpt lat="66.3305" lon="20.76794">
        <ele>92.046486</ele>
        <time>2020-09-22T08:27:21.352Z</time>
      </trkpt>
      <trkpt lat="66.33042" lon="20.76808">
        <ele>92.12065</ele>
        <time>2020-09-22T08:27:23.384Z</time>
      </trkpt>
      <trkpt lat="66.33035" lon="20.76822">
        <ele>92.194233</ele>
        <time>2020-09-22T08:27:25.358Z</time>
      </trkpt>
      <trkpt lat="66.33027" lon="20.76836">
        <ele>92.270177</ele>
        <time>2020-09-22T08:27:27.350Z</time>
      </trkpt>
      <trkpt lat="66.3302" lon="20.76849">
        <ele>92.343131</ele>
        <time>2020-09-22T08:27:29.354Z</time>
      </trkpt>
      <trkpt lat="66.33012" lon="20.76862">
        <ele>92.402363</ele>
        <time>2020-09-22T08:27:31.376Z</time>
      </trkpt>
      <trkpt lat="66.33003" lon="20.76874">
        <ele>92.427599</ele>
        <time>2020-09-22T08:27:33.371Z</time>
      </trkpt>
      <trkpt lat="66.32995" lon="20.76887">
        <ele>92.453053</ele>
        <time>2020-09-22T08:27:35.346Z</time>
      </trkpt>
      <trkpt lat="66.32987" lon="20.769">
        <ele>92.479118</ele>
        <time>2020-09-22T08:27:37.372Z</time>
      </trkpt>
      <trkpt lat="66.32978" lon="20.76913">
        <ele>92.504573</ele>
        <time>2020-09-22T08:27:39.355Z</time>
      </trkpt>
      <trkpt lat="66.3297" lon="20.76926">
        <ele>92.529971</ele>
        <time>2020-09-22T08:27:41.339Z</time>
      </trkpt>
      <trkpt lat="66.32962" lon="20.76939">
        <ele>92.555093</ele>
        <time>2020-09-22T08:27:43.393Z</time>
      </trkpt>
      <trkpt lat="66.32953" lon="20.76951">
        <ele>92.581029</ele>
        <time>2020-09-22T08:27:45.369Z</time>
      </trkpt>
      <trkpt lat="66.32945" lon="20.76963">
        <ele>92.607169</ele>
        <time>2020-09-22T08:27:47.354Z</time>
      </trkpt>
      <trkpt lat="66.32936" lon="20.76975">
        <ele>92.633485</ele>
        <time>2020-09-22T08:27:49.371Z</time>
      </trkpt>
      <trkpt lat="66.32928" lon="20.76988">
        <ele>92.658661</ele>
        <time>2020-09-22T08:27:51.353Z</time>
      </trkpt>
      <trkpt lat="66.32916" lon="20.77005">
        <ele>92.694281</ele>
        <time>2020-09-22T08:27:54.361Z</time>
      </trkpt>
      <trkpt lat="66.32908" lon="20.77018">
        <ele>92.719513</ele>
        <time>2020-09-22T08:27:56.375Z</time>
      </trkpt>
      <trkpt lat="66.32899" lon="20.7703">
        <ele>92.74459</ele>
        <time>2020-09-22T08:27:58.352Z</time>
      </trkpt>
      <trkpt lat="66.32891" lon="20.77042">
        <ele>92.769162</ele>
        <time>2020-09-22T08:28:00.366Z</time>
      </trkpt>
      <trkpt lat="66.32883" lon="20.77053">
        <ele>92.79426</ele>
        <time>2020-09-22T08:28:02.352Z</time>
      </trkpt>
      <trkpt lat="66.32874" lon="20.77065">
        <ele>92.820195</ele>
        <time>2020-09-22T08:28:04.368Z</time>
      </trkpt>
      <trkpt lat="66.32866" lon="20.77077">
        <ele>92.845192</ele>
        <time>2020-09-22T08:28:06.341Z</time>
      </trkpt>
      <trkpt lat="66.32857" lon="20.77088">
        <ele>92.819662</ele>
        <time>2020-09-22T08:28:08.351Z</time>
      </trkpt>
      <trkpt lat="66.32847" lon="20.77101">
        <ele>92.629897</ele>
        <time>2020-09-22T08:28:10.389Z</time>
      </trkpt>
      <trkpt lat="66.32837" lon="20.77113">
        <ele>92.43393</ele>
        <time>2020-09-22T08:28:12.369Z</time>
      </trkpt>
      <trkpt lat="66.32828" lon="20.77124">
        <ele>92.254921</ele>
        <time>2020-09-22T08:28:14.375Z</time>
      </trkpt>
      <trkpt lat="66.32818" lon="20.77135">
        <ele>92.074431</ele>
        <time>2020-09-22T08:28:16.344Z</time>
      </trkpt>
      <trkpt lat="66.32809" lon="20.77145">
        <ele>91.900572</ele>
        <time>2020-09-22T08:28:18.351Z</time>
      </trkpt>
      <trkpt lat="66.328" lon="20.77155">
        <ele>91.730995</ele>
        <time>2020-09-22T08:28:20.339Z</time>
      </trkpt>
      <trkpt lat="66.32791" lon="20.77165">
        <ele>91.566577</ele>
        <time>2020-09-22T08:28:22.353Z</time>
      </trkpt>
      <trkpt lat="66.32782" lon="20.77176">
        <ele>91.389195</ele>
        <time>2020-09-22T08:28:24.343Z</time>
      </trkpt>
      <trkpt lat="66.32773" lon="20.77187">
        <ele>91.21792</ele>
        <time>2020-09-22T08:28:26.363Z</time>
      </trkpt>
      <trkpt lat="66.32764" lon="20.77196">
        <ele>91.051554</ele>
        <time>2020-09-22T08:28:28.350Z</time>
      </trkpt>
      <trkpt lat="66.32755" lon="20.77206">
        <ele>90.874525</ele>
        <time>2020-09-22T08:28:30.353Z</time>
      </trkpt>
      <trkpt lat="66.32746" lon="20.77215">
        <ele>90.702831</ele>
        <time>2020-09-22T08:28:32.370Z</time>
      </trkpt>
      <trkpt lat="66.32736" lon="20.77225">
        <ele>90.524484</ele>
        <time>2020-09-22T08:28:34.411Z</time>
      </trkpt>
      <trkpt lat="66.32726" lon="20.77235">
        <ele>90.340548</ele>
        <time>2020-09-22T08:28:36.374Z</time>
      </trkpt>
      <trkpt lat="66.32717" lon="20.77246">
        <ele>90.156243</ele>
        <time>2020-09-22T08:28:38.351Z</time>
      </trkpt>
      <trkpt lat="66.32707" lon="20.77257">
        <ele>89.976033</ele>
        <time>2020-09-22T08:28:40.354Z</time>
      </trkpt>
      <trkpt lat="66.32698" lon="20.77266">
        <ele>89.803248</ele>
        <time>2020-09-22T08:28:42.363Z</time>
      </trkpt>
      <trkpt lat="66.32689" lon="20.77275">
        <ele>89.761308</ele>
        <time>2020-09-22T08:28:44.359Z</time>
      </trkpt>
      <trkpt lat="66.32679" lon="20.77283">
        <ele>89.77122</ele>
        <time>2020-09-22T08:28:46.364Z</time>
      </trkpt>
      <trkpt lat="66.32669" lon="20.77292">
        <ele>89.781392</ele>
        <time>2020-09-22T08:28:48.360Z</time>
      </trkpt>
      <trkpt lat="66.32659" lon="20.773">
        <ele>89.791342</ele>
        <time>2020-09-22T08:28:50.348Z</time>
      </trkpt>
      <trkpt lat="66.32649" lon="20.77309">
        <ele>89.801423</ele>
        <time>2020-09-22T08:28:52.381Z</time>
      </trkpt>
      <trkpt lat="66.3264" lon="20.77318">
        <ele>89.811245</ele>
        <time>2020-09-22T08:28:54.370Z</time>
      </trkpt>
      <trkpt lat="66.3263" lon="20.77327">
        <ele>89.821186</ele>
        <time>2020-09-22T08:28:56.387Z</time>
      </trkpt>
      <trkpt lat="66.32621" lon="20.77336">
        <ele>89.831098</ele>
        <time>2020-09-22T08:28:58.353Z</time>
      </trkpt>
      <trkpt lat="66.32611" lon="20.77346">
        <ele>89.841261</ele>
        <time>2020-09-22T08:29:00.352Z</time>
      </trkpt>
      <trkpt lat="66.32602" lon="20.77356">
        <ele>89.851129</ele>
        <time>2020-09-22T08:29:02.369Z</time>
      </trkpt>
      <trkpt lat="66.32593" lon="20.77366">
        <ele>89.860278</ele>
        <time>2020-09-22T08:29:04.351Z</time>
      </trkpt>
      <trkpt lat="66.32584" lon="20.77375">
        <ele>89.869443</ele>
        <time>2020-09-22T08:29:06.357Z</time>
      </trkpt>
      <trkpt lat="66.32575" lon="20.77383">
        <ele>89.878564</ele>
        <time>2020-09-22T08:29:08.340Z</time>
      </trkpt>
      <trkpt lat="66.32567" lon="20.77391">
        <ele>89.88754</ele>
        <time>2020-09-22T08:29:10.349Z</time>
      </trkpt>
      <trkpt lat="66.32554" lon="20.77403">
        <ele>89.900335</ele>
        <time>2020-09-22T08:29:13.348Z</time>
      </trkpt>
      <trkpt lat="66.32546" lon="20.77411">
        <ele>89.909194</ele>
        <time>2020-09-22T08:29:15.371Z</time>
      </trkpt>
      <trkpt lat="66.32537" lon="20.77418">
        <ele>89.917896</ele>
        <time>2020-09-22T08:29:17.347Z</time>
      </trkpt>
      <trkpt lat="66.32525" lon="20.77429">
        <ele>89.925744</ele>
        <time>2020-09-22T08:29:20.376Z</time>
      </trkpt>
      <trkpt lat="66.32513" lon="20.7744">
        <ele>89.912278</ele>
        <time>2020-09-22T08:29:23.350Z</time>
      </trkpt>
      <trkpt lat="66.32504" lon="20.77447">
        <ele>89.90277</ele>
        <time>2020-09-22T08:29:25.350Z</time>
      </trkpt>
      <trkpt lat="66.32492" lon="20.77458">
        <ele>89.888636</ele>
        <time>2020-09-22T08:29:28.358Z</time>
      </trkpt>
      <trkpt lat="66.32479" lon="20.7747">
        <ele>89.874729</ele>
        <time>2020-09-22T08:29:31.362Z</time>
      </trkpt>
      <trkpt lat="66.32467" lon="20.7748">
        <ele>89.86122</ele>
        <time>2020-09-22T08:29:34.342Z</time>
      </trkpt>
      <trkpt lat="66.32456" lon="20.77492">
        <ele>89.848188</ele>
        <time>2020-09-22T08:29:37.357Z</time>
      </trkpt>
      <trkpt lat="66.32444" lon="20.77504">
        <ele>89.834961</ele>
        <time>2020-09-22T08:29:40.351Z</time>
      </trkpt>
      <trkpt lat="66.32432" lon="20.77516">
        <ele>89.821684</ele>
        <time>2020-09-22T08:29:43.379Z</time>
      </trkpt>
      <trkpt lat="66.32421" lon="20.77526">
        <ele>89.809135</ele>
        <time>2020-09-22T08:29:46.362Z</time>
      </trkpt>
      <trkpt lat="66.32411" lon="20.77536">
        <ele>89.79707</ele>
        <time>2020-09-22T08:29:49.345Z</time>
      </trkpt>
      <trkpt lat="66.32399" lon="20.77548">
        <ele>89.784411</ele>
        <time>2020-09-22T08:29:52.360Z</time>
      </trkpt>
      <trkpt lat="66.32387" lon="20.77561">
        <ele>89.770648</ele>
        <time>2020-09-22T08:29:55.396Z</time>
      </trkpt>
      <trkpt lat="66.32376" lon="20.77574">
        <ele>89.757333</ele>
        <time>2020-09-22T08:29:58.345Z</time>
      </trkpt>
      <trkpt lat="66.32365" lon="20.77587">
        <ele>89.744269</ele>
        <time>2020-09-22T08:30:01.363Z</time>
      </trkpt>
      <trkpt lat="66.32354" lon="20.77599">
        <ele>90.006906</ele>
        <time>2020-09-22T08:30:04.379Z</time>
      </trkpt>
      <trkpt lat="66.32342" lon="20.77612">
        <ele>90.504439</ele>
        <time>2020-09-22T08:30:07.361Z</time>
      </trkpt>
      <trkpt lat="66.32331" lon="20.77626">
        <ele>90.975074</ele>
        <time>2020-09-22T08:30:10.385Z</time>
      </trkpt>
      <trkpt lat="66.32321" lon="20.7764">
        <ele>91.447948</ele>
        <time>2020-09-22T08:30:13.378Z</time>
      </trkpt>
      <trkpt lat="66.3231" lon="20.77653">
        <ele>91.912301</ele>
        <time>2020-09-22T08:30:16.357Z</time>
      </trkpt>
      <trkpt lat="66.32299" lon="20.77667">
        <ele>92.377543</ele>
        <time>2020-09-22T08:30:19.349Z</time>
      </trkpt>
      <trkpt lat="66.32289" lon="20.77683">
        <ele>92.85839</ele>
        <time>2020-09-22T08:30:22.366Z</time>
      </trkpt>
      <trkpt lat="66.32278" lon="20.77698">
        <ele>93.330461</ele>
        <time>2020-09-22T08:30:25.357Z</time>
      </trkpt>
      <trkpt lat="66.32268" lon="20.77713">
        <ele>93.792252</ele>
        <time>2020-09-22T08:30:28.349Z</time>
      </trkpt>
      <trkpt lat="66.32258" lon="20.77729">
        <ele>94.273101</ele>
        <time>2020-09-22T08:30:31.355Z</time>
      </trkpt>
      <trkpt lat="66.32247" lon="20.77744">
        <ele>94.744016</ele>
        <time>2020-09-22T08:30:34.363Z</time>
      </trkpt>
      <trkpt lat="66.32237" lon="20.77758">
        <ele>95.219486</ele>
        <time>2020-09-22T08:30:37.369Z</time>
      </trkpt>
      <trkpt lat="66.32225" lon="20.77774">
        <ele>95.721537</ele>
        <time>2020-09-22T08:30:40.369Z</time>
      </trkpt>
      <trkpt lat="66.32215" lon="20.7779">
        <ele>96.195742</ele>
        <time>2020-09-22T08:30:43.340Z</time>
      </trkpt>
      <trkpt lat="66.32208" lon="20.77803">
        <ele>96.548272</ele>
        <time>2020-09-22T08:30:45.346Z</time>
      </trkpt>
      <trkpt lat="66.32199" lon="20.77815">
        <ele>96.770537</ele>
        <time>2020-09-22T08:30:47.353Z</time>
      </trkpt>
      <trkpt lat="66.32191" lon="20.77828">
        <ele>96.784282</ele>
        <time>2020-09-22T08:30:49.363Z</time>
      </trkpt>
      <trkpt lat="66.32182" lon="20.77841">
        <ele>96.798228</ele>
        <time>2020-09-22T08:30:51.378Z</time>
      </trkpt>
      <trkpt lat="66.32174" lon="20.77853">
        <ele>96.811105</ele>
        <time>2020-09-22T08:30:53.344Z</time>
      </trkpt>
      <trkpt lat="66.32167" lon="20.77865">
        <ele>96.823835</ele>
        <time>2020-09-22T08:30:55.350Z</time>
      </trkpt>
      <trkpt lat="66.32156" lon="20.77884">
        <ele>96.842758</ele>
        <time>2020-09-22T08:30:58.348Z</time>
      </trkpt>
      <trkpt lat="66.32148" lon="20.77897">
        <ele>96.855413</ele>
        <time>2020-09-22T08:31:00.353Z</time>
      </trkpt>
      <trkpt lat="66.32141" lon="20.7791">
        <ele>96.868119</ele>
        <time>2020-09-22T08:31:02.377Z</time>
      </trkpt>
      <trkpt lat="66.3213" lon="20.77929">
        <ele>96.886452</ele>
        <time>2020-09-22T08:31:05.401Z</time>
      </trkpt>
      <trkpt lat="66.3212" lon="20.77946">
        <ele>96.904178</ele>
        <time>2020-09-22T08:31:08.370Z</time>
      </trkpt>
      <trkpt lat="66.32112" lon="20.77959">
        <ele>96.916833</ele>
        <time>2020-09-22T08:31:10.368Z</time>
      </trkpt>
      <trkpt lat="66.32104" lon="20.77973">
        <ele>96.930392</ele>
        <time>2020-09-22T08:31:12.357Z</time>
      </trkpt>
      <trkpt lat="66.32097" lon="20.77989">
        <ele>96.944414</ele>
        <time>2020-09-22T08:31:14.350Z</time>
      </trkpt>
      <trkpt lat="66.32086" lon="20.78006">
        <ele>96.962011</ele>
        <time>2020-09-22T08:31:17.337Z</time>
      </trkpt>
      <trkpt lat="66.32079" lon="20.78021">
        <ele>96.974588</ele>
        <time>2020-09-22T08:31:19.348Z</time>
      </trkpt>
      <trkpt lat="66.32072" lon="20.78034">
        <ele>96.987896</ele>
        <time>2020-09-22T08:31:21.351Z</time>
      </trkpt>
      <trkpt lat="66.32064" lon="20.78049">
        <ele>97.001593</ele>
        <time>2020-09-22T08:31:23.397Z</time>
      </trkpt>
      <trkpt lat="66.32056" lon="20.78065">
        <ele>97.015715</ele>
        <time>2020-09-22T08:31:25.362Z</time>
      </trkpt>
      <trkpt lat="66.32048" lon="20.78082">
        <ele>96.899183</ele>
        <time>2020-09-22T08:31:27.400Z</time>
      </trkpt>
      <trkpt lat="66.32041" lon="20.78098">
        <ele>96.778084</ele>
        <time>2020-09-22T08:31:29.357Z</time>
      </trkpt>
      <trkpt lat="66.32033" lon="20.78114">
        <ele>96.657614</ele>
        <time>2020-09-22T08:31:31.355Z</time>
      </trkpt>
      <trkpt lat="66.32026" lon="20.78128">
        <ele>96.548975</ele>
        <time>2020-09-22T08:31:33.367Z</time>
      </trkpt>
      <trkpt lat="66.32016" lon="20.7815">
        <ele>96.385795</ele>
        <time>2020-09-22T08:31:36.358Z</time>
      </trkpt>
      <trkpt lat="66.32009" lon="20.78168">
        <ele>96.258163</ele>
        <time>2020-09-22T08:31:38.356Z</time>
      </trkpt>
      <trkpt lat="66.32001" lon="20.78186">
        <ele>96.13053</ele>
        <time>2020-09-22T08:31:40.371Z</time>
      </trkpt>
      <trkpt lat="66.31993" lon="20.78204">
        <ele>96.002781</ele>
        <time>2020-09-22T08:31:42.349Z</time>
      </trkpt>
      <trkpt lat="66.31985" lon="20.78223">
        <ele>95.869278</ele>
        <time>2020-09-22T08:31:44.358Z</time>
      </trkpt>
      <trkpt lat="66.31976" lon="20.78244">
        <ele>95.720136</ele>
        <time>2020-09-22T08:31:46.341Z</time>
      </trkpt>
      <trkpt lat="66.31967" lon="20.78264">
        <ele>95.572102</ele>
        <time>2020-09-22T08:31:48.353Z</time>
      </trkpt>
      <trkpt lat="66.31959" lon="20.78285">
        <ele>95.427948</ele>
        <time>2020-09-22T08:31:50.358Z</time>
      </trkpt>
      <trkpt lat="66.3195" lon="20.78305">
        <ele>95.286017</ele>
        <time>2020-09-22T08:31:52.355Z</time>
      </trkpt>
      <trkpt lat="66.31941" lon="20.78325">
        <ele>95.141746</ele>
        <time>2020-09-22T08:31:54.347Z</time>
      </trkpt>
      <trkpt lat="66.31933" lon="20.78344">
        <ele>95.001888</ele>
        <time>2020-09-22T08:31:56.381Z</time>
      </trkpt>
      <trkpt lat="66.31924" lon="20.78364">
        <ele>94.854081</ele>
        <time>2020-09-22T08:31:58.348Z</time>
      </trkpt>
      <trkpt lat="66.31915" lon="20.78384">
        <ele>94.646063</ele>
        <time>2020-09-22T08:32:00.344Z</time>
      </trkpt>
      <trkpt lat="66.31906" lon="20.78405">
        <ele>94.423811</ele>
        <time>2020-09-22T08:32:02.381Z</time>
      </trkpt>
      <trkpt lat="66.31897" lon="20.78425">
        <ele>94.200966</ele>
        <time>2020-09-22T08:32:04.358Z</time>
      </trkpt>
      <trkpt lat="66.31887" lon="20.78446">
        <ele>93.974069</ele>
        <time>2020-09-22T08:32:06.359Z</time>
      </trkpt>
      <trkpt lat="66.31878" lon="20.78468">
        <ele>93.736674</ele>
        <time>2020-09-22T08:32:08.348Z</time>
      </trkpt>
      <trkpt lat="66.31868" lon="20.7849">
        <ele>93.502222</ele>
        <time>2020-09-22T08:32:10.353Z</time>
      </trkpt>
      <trkpt lat="66.3186" lon="20.78512">
        <ele>93.281142</ele>
        <time>2020-09-22T08:32:12.396Z</time>
      </trkpt>
      <trkpt lat="66.31851" lon="20.78533">
        <ele>93.059778</ele>
        <time>2020-09-22T08:32:14.347Z</time>
      </trkpt>
      <trkpt lat="66.31842" lon="20.78554">
        <ele>92.836287</ele>
        <time>2020-09-22T08:32:16.366Z</time>
      </trkpt>
      <trkpt lat="66.31832" lon="20.78577">
        <ele>92.597998</ele>
        <time>2020-09-22T08:32:18.353Z</time>
      </trkpt>
      <trkpt lat="66.31823" lon="20.786">
        <ele>92.354475</ele>
        <time>2020-09-22T08:32:20.376Z</time>
      </trkpt>
      <trkpt lat="66.31813" lon="20.78622">
        <ele>92.112578</ele>
        <time>2020-09-22T08:32:22.380Z</time>
      </trkpt>
      <trkpt lat="66.31803" lon="20.78643">
        <ele>91.872277</ele>
        <time>2020-09-22T08:32:24.373Z</time>
      </trkpt>
      <trkpt lat="66.31793" lon="20.78664">
        <ele>91.6385</ele>
        <time>2020-09-22T08:32:26.355Z</time>
      </trkpt>
      <trkpt lat="66.31782" lon="20.78685">
        <ele>91.457983</ele>
        <time>2020-09-22T08:32:28.361Z</time>
      </trkpt>
      <trkpt lat="66.31771" lon="20.78708">
        <ele>91.293136</ele>
        <time>2020-09-22T08:32:30.371Z</time>
      </trkpt>
      <trkpt lat="66.31761" lon="20.7873">
        <ele>91.133044</ele>
        <time>2020-09-22T08:32:32.346Z</time>
      </trkpt>
      <trkpt lat="66.3175" lon="20.78753">
        <ele>90.967258</ele>
        <time>2020-09-22T08:32:34.375Z</time>
      </trkpt>
      <trkpt lat="66.3174" lon="20.78776">
        <ele>90.801198</ele>
        <time>2020-09-22T08:32:36.353Z</time>
      </trkpt>
      <trkpt lat="66.31729" lon="20.788">
        <ele>90.631174</ele>
        <time>2020-09-22T08:32:38.346Z</time>
      </trkpt>
      <trkpt lat="66.31718" lon="20.78823">
        <ele>90.464522</ele>
        <time>2020-09-22T08:32:40.360Z</time>
      </trkpt>
      <trkpt lat="66.31707" lon="20.78846">
        <ele>90.295167</ele>
        <time>2020-09-22T08:32:42.375Z</time>
      </trkpt>
      <trkpt lat="66.31696" lon="20.78868">
        <ele>90.128217</ele>
        <time>2020-09-22T08:32:44.338Z</time>
      </trkpt>
      <trkpt lat="66.31684" lon="20.7889">
        <ele>89.95816</ele>
        <time>2020-09-22T08:32:46.361Z</time>
      </trkpt>
      <trkpt lat="66.31672" lon="20.78911">
        <ele>89.785229</ele>
        <time>2020-09-22T08:32:48.346Z</time>
      </trkpt>
      <trkpt lat="66.3166" lon="20.78933">
        <ele>89.61228</ele>
        <time>2020-09-22T08:32:50.355Z</time>
      </trkpt>
      <trkpt lat="66.31648" lon="20.78954">
        <ele>89.444699</ele>
        <time>2020-09-22T08:32:52.396Z</time>
      </trkpt>
      <trkpt lat="66.31637" lon="20.78976">
        <ele>89.284676</ele>
        <time>2020-09-22T08:32:54.358Z</time>
      </trkpt>
      <trkpt lat="66.31625" lon="20.78996">
        <ele>89.129965</ele>
        <time>2020-09-22T08:32:56.371Z</time>
      </trkpt>
      <trkpt lat="66.31613" lon="20.79016">
        <ele>88.978691</ele>
        <time>2020-09-22T08:32:58.356Z</time>
      </trkpt>
      <trkpt lat="66.31603" lon="20.79036">
        <ele>88.830826</ele>
        <time>2020-09-22T08:33:00.348Z</time>
      </trkpt>
      <trkpt lat="66.31592" lon="20.79055">
        <ele>88.683738</ele>
        <time>2020-09-22T08:33:02.352Z</time>
      </trkpt>
      <trkpt lat="66.31581" lon="20.79074">
        <ele>88.539762</ele>
        <time>2020-09-22T08:33:04.350Z</time>
      </trkpt>
      <trkpt lat="66.3157" lon="20.79091">
        <ele>88.396539</ele>
        <time>2020-09-22T08:33:06.369Z</time>
      </trkpt>
      <trkpt lat="66.31559" lon="20.7911">
        <ele>88.255423</ele>
        <time>2020-09-22T08:33:08.352Z</time>
      </trkpt>
      <trkpt lat="66.31549" lon="20.79126">
        <ele>88.129899</ele>
        <time>2020-09-22T08:33:10.341Z</time>
      </trkpt>
      <trkpt lat="66.3154" lon="20.79141">
        <ele>88.00795</ele>
        <time>2020-09-22T08:33:12.360Z</time>
      </trkpt>
      <trkpt lat="66.31531" lon="20.79155">
        <ele>87.891089</ele>
        <time>2020-09-22T08:33:14.352Z</time>
      </trkpt>
      <trkpt lat="66.31522" lon="20.7917">
        <ele>87.775619</ele>
        <time>2020-09-22T08:33:16.379Z</time>
      </trkpt>
      <trkpt lat="66.31513" lon="20.79185">
        <ele>87.658039</ele>
        <time>2020-09-22T08:33:18.353Z</time>
      </trkpt>
      <trkpt lat="66.31504" lon="20.79199">
        <ele>87.542805</ele>
        <time>2020-09-22T08:33:20.354Z</time>
      </trkpt>
      <trkpt lat="66.31495" lon="20.79213">
        <ele>87.441327</ele>
        <time>2020-09-22T08:33:22.388Z</time>
      </trkpt>
      <trkpt lat="66.31485" lon="20.79227">
        <ele>87.34213</ele>
        <time>2020-09-22T08:33:24.356Z</time>
      </trkpt>
      <trkpt lat="66.31476" lon="20.79242">
        <ele>87.245944</ele>
        <time>2020-09-22T08:33:26.361Z</time>
      </trkpt>
      <trkpt lat="66.31467" lon="20.79256">
        <ele>87.149944</ele>
        <time>2020-09-22T08:33:28.390Z</time>
      </trkpt>
      <trkpt lat="66.31458" lon="20.79269">
        <ele>87.055214</ele>
        <time>2020-09-22T08:33:30.341Z</time>
      </trkpt>
      <trkpt lat="66.31448" lon="20.79283">
        <ele>86.960305</ele>
        <time>2020-09-22T08:33:32.390Z</time>
      </trkpt>
      <trkpt lat="66.31439" lon="20.79297">
        <ele>86.862346</ele>
        <time>2020-09-22T08:33:34.348Z</time>
      </trkpt>
      <trkpt lat="66.31429" lon="20.7931">
        <ele>86.764212</ele>
        <time>2020-09-22T08:33:36.400Z</time>
      </trkpt>
      <trkpt lat="66.31419" lon="20.79324">
        <ele>86.664963</ele>
        <time>2020-09-22T08:33:38.363Z</time>
      </trkpt>
      <trkpt lat="66.31409" lon="20.79338">
        <ele>86.564256</ele>
        <time>2020-09-22T08:33:40.362Z</time>
      </trkpt>
      <trkpt lat="66.31399" lon="20.79351">
        <ele>86.467826</ele>
        <time>2020-09-22T08:33:42.348Z</time>
      </trkpt>
      <trkpt lat="66.31391" lon="20.79364">
        <ele>86.376846</ele>
        <time>2020-09-22T08:33:44.362Z</time>
      </trkpt>
      <trkpt lat="66.31382" lon="20.79376">
        <ele>86.289921</ele>
        <time>2020-09-22T08:33:46.378Z</time>
      </trkpt>
      <trkpt lat="66.31373" lon="20.79388">
        <ele>86.203077</ele>
        <time>2020-09-22T08:33:48.352Z</time>
      </trkpt>
      <trkpt lat="66.31364" lon="20.794">
        <ele>86.114842</ele>
        <time>2020-09-22T08:33:50.419Z</time>
      </trkpt>
      <trkpt lat="66.31354" lon="20.79412">
        <ele>86.01795</ele>
        <time>2020-09-22T08:33:52.344Z</time>
      </trkpt>
      <trkpt lat="66.31345" lon="20.79423">
        <ele>85.929253</ele>
        <time>2020-09-22T08:33:54.358Z</time>
      </trkpt>
      <trkpt lat="66.31336" lon="20.79434">
        <ele>85.917122</ele>
        <time>2020-09-22T08:33:56.365Z</time>
      </trkpt>
      <trkpt lat="66.31327" lon="20.79445">
        <ele>85.9081</ele>
        <time>2020-09-22T08:33:58.354Z</time>
      </trkpt>
      <trkpt lat="66.31318" lon="20.79455">
        <ele>85.899326</ele>
        <time>2020-09-22T08:34:00.352Z</time>
      </trkpt>
      <trkpt lat="66.31309" lon="20.79466">
        <ele>85.890921</ele>
        <time>2020-09-22T08:34:02.361Z</time>
      </trkpt>
      <trkpt lat="66.31301" lon="20.79477">
        <ele>85.882699</ele>
        <time>2020-09-22T08:34:04.345Z</time>
      </trkpt>
      <trkpt lat="66.31292" lon="20.79487">
        <ele>85.87412</ele>
        <time>2020-09-22T08:34:06.372Z</time>
      </trkpt>
      <trkpt lat="66.31284" lon="20.79498">
        <ele>85.865745</ele>
        <time>2020-09-22T08:34:08.348Z</time>
      </trkpt>
      <trkpt lat="66.31275" lon="20.79508">
        <ele>85.857419</ele>
        <time>2020-09-22T08:34:10.366Z</time>
      </trkpt>
      <trkpt lat="66.31266" lon="20.79518">
        <ele>85.848986</ele>
        <time>2020-09-22T08:34:12.373Z</time>
      </trkpt>
      <trkpt lat="66.31258" lon="20.79528">
        <ele>85.840612</ele>
        <time>2020-09-22T08:34:14.353Z</time>
      </trkpt>
      <trkpt lat="66.31249" lon="20.79537">
        <ele>85.832624</ele>
        <time>2020-09-22T08:34:16.344Z</time>
      </trkpt>
      <trkpt lat="66.31241" lon="20.79546">
        <ele>85.824287</ele>
        <time>2020-09-22T08:34:18.384Z</time>
      </trkpt>
      <trkpt lat="66.31232" lon="20.79556">
        <ele>85.815892</ele>
        <time>2020-09-22T08:34:20.365Z</time>
      </trkpt>
      <trkpt lat="66.31223" lon="20.79566">
        <ele>85.807392</ele>
        <time>2020-09-22T08:34:22.346Z</time>
      </trkpt>
      <trkpt lat="66.31214" lon="20.79576">
        <ele>85.798783</ele>
        <time>2020-09-22T08:34:24.366Z</time>
      </trkpt>
      <trkpt lat="66.31205" lon="20.79586">
        <ele>85.790184</ele>
        <time>2020-09-22T08:34:26.372Z</time>
      </trkpt>
      <trkpt lat="66.31197" lon="20.79595">
        <ele>85.78205</ele>
        <time>2020-09-22T08:34:28.396Z</time>
      </trkpt>
      <trkpt lat="66.31188" lon="20.79604">
        <ele>85.774117</ele>
        <time>2020-09-22T08:34:30.350Z</time>
      </trkpt>
      <trkpt lat="66.3118" lon="20.79612">
        <ele>85.770509</ele>
        <time>2020-09-22T08:34:32.357Z</time>
      </trkpt>
      <trkpt lat="66.31168" lon="20.79624">
        <ele>85.789067</ele>
        <time>2020-09-22T08:34:35.381Z</time>
      </trkpt>
      <trkpt lat="66.31156" lon="20.79636">
        <ele>85.807338</ele>
        <time>2020-09-22T08:34:38.353Z</time>
      </trkpt>
      <trkpt lat="66.31147" lon="20.79644">
        <ele>85.820661</ele>
        <time>2020-09-22T08:34:40.392Z</time>
      </trkpt>
      <trkpt lat="66.31139" lon="20.79652">
        <ele>85.833548</ele>
        <time>2020-09-22T08:34:42.382Z</time>
      </trkpt>
      <trkpt lat="66.31127" lon="20.79664">
        <ele>85.852488</ele>
        <time>2020-09-22T08:34:45.341Z</time>
      </trkpt>
      <trkpt lat="66.31118" lon="20.79672">
        <ele>85.865439</ele>
        <time>2020-09-22T08:34:47.349Z</time>
      </trkpt>
      <trkpt lat="66.31105" lon="20.79684">
        <ele>85.884781</ele>
        <time>2020-09-22T08:34:50.360Z</time>
      </trkpt>
      <trkpt lat="66.31097" lon="20.79692">
        <ele>85.89778</ele>
        <time>2020-09-22T08:34:52.385Z</time>
      </trkpt>
      <trkpt lat="66.31085" lon="20.79703">
        <ele>85.916525</ele>
        <time>2020-09-22T08:34:55.359Z</time>
      </trkpt>
      <trkpt lat="66.31073" lon="20.79714">
        <ele>85.934596</ele>
        <time>2020-09-22T08:34:58.365Z</time>
      </trkpt>
      <trkpt lat="66.31064" lon="20.7972">
        <ele>85.94803</ele>
        <time>2020-09-22T08:35:00.372Z</time>
      </trkpt>
      <trkpt lat="66.31055" lon="20.79728">
        <ele>85.960872</ele>
        <time>2020-09-22T08:35:02.374Z</time>
      </trkpt>
      <trkpt lat="66.31043" lon="20.79738">
        <ele>85.979761</ele>
        <time>2020-09-22T08:35:05.352Z</time>
      </trkpt>
      <trkpt lat="66.3103" lon="20.79748">
        <ele>85.998026</ele>
        <time>2020-09-22T08:35:08.390Z</time>
      </trkpt>
      <trkpt lat="66.31018" lon="20.79758">
        <ele>86.016897</ele>
        <time>2020-09-22T08:35:11.339Z</time>
      </trkpt>
      <trkpt lat="66.31006" lon="20.79767">
        <ele>86.10022</ele>
        <time>2020-09-22T08:35:14.343Z</time>
      </trkpt>
      <trkpt lat="66.30994" lon="20.79777">
        <ele>86.233597</ele>
        <time>2020-09-22T08:35:17.373Z</time>
      </trkpt>
      <trkpt lat="66.30982" lon="20.79787">
        <ele>86.369643</ele>
        <time>2020-09-22T08:35:20.355Z</time>
      </trkpt>
      <trkpt lat="66.3097" lon="20.79797">
        <ele>86.505362</ele>
        <time>2020-09-22T08:35:23.382Z</time>
      </trkpt>
      <trkpt lat="66.30958" lon="20.79807">
        <ele>86.639802</ele>
        <time>2020-09-22T08:35:26.372Z</time>
      </trkpt>
      <trkpt lat="66.30945" lon="20.79817">
        <ele>86.777355</ele>
        <time>2020-09-22T08:35:29.363Z</time>
      </trkpt>
      <trkpt lat="66.30934" lon="20.79825">
        <ele>86.90532</ele>
        <time>2020-09-22T08:35:32.346Z</time>
      </trkpt>
      <trkpt lat="66.30922" lon="20.79834">
        <ele>87.034661</ele>
        <time>2020-09-22T08:35:35.357Z</time>
      </trkpt>
      <trkpt lat="66.3091" lon="20.79843">
        <ele>87.169307</ele>
        <time>2020-09-22T08:35:38.342Z</time>
      </trkpt>
      <trkpt lat="66.30897" lon="20.79852">
        <ele>87.304646</ele>
        <time>2020-09-22T08:35:41.365Z</time>
      </trkpt>
      <trkpt lat="66.30885" lon="20.79861">
        <ele>87.441587</ele>
        <time>2020-09-22T08:35:44.344Z</time>
      </trkpt>
      <trkpt lat="66.30873" lon="20.79866">
        <ele>87.573114</ele>
        <time>2020-09-22T08:35:47.377Z</time>
      </trkpt>
      <trkpt lat="66.30862" lon="20.79874">
        <ele>87.693811</ele>
        <time>2020-09-22T08:35:50.364Z</time>
      </trkpt>
      <trkpt lat="66.3085" lon="20.79882">
        <ele>87.82143</ele>
        <time>2020-09-22T08:35:53.359Z</time>
      </trkpt>
      <trkpt lat="66.30839" lon="20.79887">
        <ele>87.973519</ele>
        <time>2020-09-22T08:35:56.389Z</time>
      </trkpt>
      <trkpt lat="66.30828" lon="20.79894">
        <ele>88.396836</ele>
        <time>2020-09-22T08:35:59.368Z</time>
      </trkpt>
      <trkpt lat="66.30818" lon="20.79901">
        <ele>88.790093</ele>
        <time>2020-09-22T08:36:02.348Z</time>
      </trkpt>
      <trkpt lat="66.30808" lon="20.79908">
        <ele>89.193536</ele>
        <time>2020-09-22T08:36:05.344Z</time>
      </trkpt>
      <trkpt lat="66.30797" lon="20.79915">
        <ele>89.619278</ele>
        <time>2020-09-22T08:36:08.352Z</time>
      </trkpt>
      <trkpt lat="66.30786" lon="20.79923">
        <ele>90.042987</ele>
        <time>2020-09-22T08:36:11.361Z</time>
      </trkpt>
      <trkpt lat="66.30776" lon="20.79929">
        <ele>90.441998</ele>
        <time>2020-09-22T08:36:14.368Z</time>
      </trkpt>
      <trkpt lat="66.30766" lon="20.79936">
        <ele>90.84101</ele>
        <time>2020-09-22T08:36:17.349Z</time>
      </trkpt>
      <trkpt lat="66.30756" lon="20.79942">
        <ele>91.236352</ele>
        <time>2020-09-22T08:36:20.358Z</time>
      </trkpt>
      <trkpt lat="66.30746" lon="20.7995">
        <ele>91.636319</ele>
        <time>2020-09-22T08:36:23.347Z</time>
      </trkpt>
      <trkpt lat="66.30736" lon="20.79957">
        <ele>92.029986</ele>
        <time>2020-09-22T08:36:26.413Z</time>
      </trkpt>
      <trkpt lat="66.30726" lon="20.79964">
        <ele>92.423244</ele>
        <time>2020-09-22T08:36:29.417Z</time>
      </trkpt>
      <trkpt lat="66.30716" lon="20.79971">
        <ele>92.795431</ele>
        <time>2020-09-22T08:36:32.403Z</time>
      </trkpt>
      <trkpt lat="66.30707" lon="20.79978">
        <ele>93.15008</ele>
        <time>2020-09-22T08:36:35.348Z</time>
      </trkpt>
      <trkpt lat="66.30698" lon="20.79986">
        <ele>93.533257</ele>
        <time>2020-09-22T08:36:38.348Z</time>
      </trkpt>
      <trkpt lat="66.30688" lon="20.79993">
        <ele>93.922255</ele>
        <time>2020-09-22T08:36:41.413Z</time>
      </trkpt>
      <trkpt lat="66.30678" lon="20.8">
        <ele>94.317981</ele>
        <time>2020-09-22T08:36:44.352Z</time>
      </trkpt>
      <trkpt lat="66.30667" lon="20.80006">
        <ele>94.732656</ele>
        <time>2020-09-22T08:36:47.371Z</time>
      </trkpt>
      <trkpt lat="66.30657" lon="20.80012">
        <ele>95.109425</ele>
        <time>2020-09-22T08:36:50.395Z</time>
      </trkpt>
      <trkpt lat="66.30648" lon="20.80017">
        <ele>95.474814</ele>
        <time>2020-09-22T08:36:53.355Z</time>
      </trkpt>
      <trkpt lat="66.30638" lon="20.80024">
        <ele>95.847522</ele>
        <time>2020-09-22T08:36:56.361Z</time>
      </trkpt>
      <trkpt lat="66.3063" lon="20.80032">
        <ele>96.199219</ele>
        <time>2020-09-22T08:36:59.354Z</time>
      </trkpt>
      <trkpt lat="66.3062" lon="20.80039">
        <ele>96.568339</ele>
        <time>2020-09-22T08:37:02.353Z</time>
      </trkpt>
      <trkpt lat="66.30611" lon="20.80046">
        <ele>96.944639</ele>
        <time>2020-09-22T08:37:05.374Z</time>
      </trkpt>
      <trkpt lat="66.30601" lon="20.80053">
        <ele>97.316054</ele>
        <time>2020-09-22T08:37:08.382Z</time>
      </trkpt>
      <trkpt lat="66.30592" lon="20.80059">
        <ele>97.681022</ele>
        <time>2020-09-22T08:37:11.358Z</time>
      </trkpt>
      <trkpt lat="66.30582" lon="20.80067">
        <ele>98.047782</ele>
        <time>2020-09-22T08:37:14.366Z</time>
      </trkpt>
      <trkpt lat="66.30573" lon="20.80074">
        <ele>98.403944</ele>
        <time>2020-09-22T08:37:17.359Z</time>
      </trkpt>
      <trkpt lat="66.30564" lon="20.80081">
        <ele>98.777335</ele>
        <time>2020-09-22T08:37:20.379Z</time>
      </trkpt>
      <trkpt lat="66.30554" lon="20.80087">
        <ele>99.145179</ele>
        <time>2020-09-22T08:37:23.376Z</time>
      </trkpt>
      <trkpt lat="66.30545" lon="20.80092">
        <ele>99.490464</ele>
        <time>2020-09-22T08:37:26.347Z</time>
      </trkpt>
      <trkpt lat="66.30534" lon="20.80103">
        <ele>99.942114</ele>
        <time>2020-09-22T08:37:30.345Z</time>
      </trkpt>
      <trkpt lat="66.30524" lon="20.80111">
        <ele>100.328268</ele>
        <time>2020-09-22T08:37:33.348Z</time>
      </trkpt>
      <trkpt lat="66.30515" lon="20.80118">
        <ele>100.70775</ele>
        <time>2020-09-22T08:37:36.349Z</time>
      </trkpt>
      <trkpt lat="66.30505" lon="20.80126">
        <ele>101.098402</ele>
        <time>2020-09-22T08:37:39.358Z</time>
      </trkpt>
      <trkpt lat="66.30495" lon="20.80135">
        <ele>101.468198</ele>
        <time>2020-09-22T08:37:42.394Z</time>
      </trkpt>
      <trkpt lat="66.30485" lon="20.80143">
        <ele>101.526999</ele>
        <time>2020-09-22T08:37:45.419Z</time>
      </trkpt>
      <trkpt lat="66.30474" lon="20.80152">
        <ele>101.557725</ele>
        <time>2020-09-22T08:37:48.391Z</time>
      </trkpt>
      <trkpt lat="66.30464" lon="20.80161">
        <ele>101.587111</ele>
        <time>2020-09-22T08:37:51.355Z</time>
      </trkpt>
      <trkpt lat="66.30455" lon="20.8017">
        <ele>101.614826</ele>
        <time>2020-09-22T08:37:54.363Z</time>
      </trkpt>
      <trkpt lat="66.30444" lon="20.8018">
        <ele>101.645855</ele>
        <time>2020-09-22T08:37:57.357Z</time>
      </trkpt>
      <trkpt lat="66.30434" lon="20.8019">
        <ele>101.677978</ele>
        <time>2020-09-22T08:38:00.353Z</time>
      </trkpt>
      <trkpt lat="66.30423" lon="20.80201">
        <ele>101.709506</ele>
        <time>2020-09-22T08:38:03.342Z</time>
      </trkpt>
      <trkpt lat="66.30412" lon="20.80212">
        <ele>101.741755</ele>
        <time>2020-09-22T08:38:06.340Z</time>
      </trkpt>
      <trkpt lat="66.30402" lon="20.80225">
        <ele>101.773769</ele>
        <time>2020-09-22T08:38:09.348Z</time>
      </trkpt>
      <trkpt lat="66.30392" lon="20.80236">
        <ele>101.80476</ele>
        <time>2020-09-22T08:38:12.386Z</time>
      </trkpt>
      <trkpt lat="66.30381" lon="20.80249">
        <ele>101.83712</ele>
        <time>2020-09-22T08:38:15.385Z</time>
      </trkpt>
      <trkpt lat="66.3037" lon="20.80262">
        <ele>101.870772</ele>
        <time>2020-09-22T08:38:18.354Z</time>
      </trkpt>
      <trkpt lat="66.30359" lon="20.80274">
        <ele>101.902684</ele>
        <time>2020-09-22T08:38:21.357Z</time>
      </trkpt>
      <trkpt lat="66.30349" lon="20.80287">
        <ele>101.93559</ele>
        <time>2020-09-22T08:38:24.361Z</time>
      </trkpt>
      <trkpt lat="66.30339" lon="20.80301">
        <ele>101.967812</ele>
        <time>2020-09-22T08:38:27.351Z</time>
      </trkpt>
      <trkpt lat="66.30328" lon="20.80313">
        <ele>101.955214</ele>
        <time>2020-09-22T08:38:30.366Z</time>
      </trkpt>
      <trkpt lat="66.30318" lon="20.80327">
        <ele>101.67821</ele>
        <time>2020-09-22T08:38:33.352Z</time>
      </trkpt>
      <trkpt lat="66.30307" lon="20.80342">
        <ele>101.383447</ele>
        <time>2020-09-22T08:38:36.387Z</time>
      </trkpt>
      <trkpt lat="66.30295" lon="20.80357">
        <ele>101.075991</ele>
        <time>2020-09-22T08:38:39.352Z</time>
      </trkpt>
      <trkpt lat="66.30284" lon="20.80371">
        <ele>100.774115</ele>
        <time>2020-09-22T08:38:42.368Z</time>
      </trkpt>
      <trkpt lat="66.30272" lon="20.80385">
        <ele>100.472203</ele>
        <time>2020-09-22T08:38:45.372Z</time>
      </trkpt>
      <trkpt lat="66.30261" lon="20.804">
        <ele>100.170568</ele>
        <time>2020-09-22T08:38:48.372Z</time>
      </trkpt>
      <trkpt lat="66.30253" lon="20.80411">
        <ele>99.957323</ele>
        <time>2020-09-22T08:38:50.358Z</time>
      </trkpt>
      <trkpt lat="66.30242" lon="20.80428">
        <ele>99.644148</ele>
        <time>2020-09-22T08:38:53.364Z</time>
      </trkpt>
      <trkpt lat="66.30231" lon="20.80445">
        <ele>99.341039</ele>
        <time>2020-09-22T08:38:56.389Z</time>
      </trkpt>
      <trkpt lat="66.30223" lon="20.80457">
        <ele>99.12288</ele>
        <time>2020-09-22T08:38:58.369Z</time>
      </trkpt>
      <trkpt lat="66.30212" lon="20.80473">
        <ele>98.812954</ele>
        <time>2020-09-22T08:39:01.372Z</time>
      </trkpt>
      <trkpt lat="66.30201" lon="20.80491">
        <ele>98.497126</ele>
        <time>2020-09-22T08:39:04.377Z</time>
      </trkpt>
      <trkpt lat="66.30193" lon="20.80504">
        <ele>98.276958</ele>
        <time>2020-09-22T08:39:06.349Z</time>
      </trkpt>
      <trkpt lat="66.30185" lon="20.80515">
        <ele>98.061658</ele>
        <time>2020-09-22T08:39:08.372Z</time>
      </trkpt>
      <trkpt lat="66.30177" lon="20.80527">
        <ele>97.829893</ele>
        <time>2020-09-22T08:39:10.389Z</time>
      </trkpt>
      <trkpt lat="66.30169" lon="20.8054">
        <ele>97.729585</ele>
        <time>2020-09-22T08:39:12.369Z</time>
      </trkpt>
      <trkpt lat="66.3016" lon="20.80553">
        <ele>97.717692</ele>
        <time>2020-09-22T08:39:14.415Z</time>
      </trkpt>
      <trkpt lat="66.30152" lon="20.80565">
        <ele>97.706052</ele>
        <time>2020-09-22T08:39:16.365Z</time>
      </trkpt>
      <trkpt lat="66.30144" lon="20.80577">
        <ele>97.694307</ele>
        <time>2020-09-22T08:39:18.372Z</time>
      </trkpt>
      <trkpt lat="66.30136" lon="20.8059">
        <ele>97.682873</ele>
        <time>2020-09-22T08:39:20.365Z</time>
      </trkpt>
      <trkpt lat="66.30128" lon="20.80602">
        <ele>97.671237</ele>
        <time>2020-09-22T08:39:22.364Z</time>
      </trkpt>
      <trkpt lat="66.30119" lon="20.80614">
        <ele>97.659565</ele>
        <time>2020-09-22T08:39:24.370Z</time>
      </trkpt>
      <trkpt lat="66.30111" lon="20.80627">
        <ele>97.64726</ele>
        <time>2020-09-22T08:39:26.353Z</time>
      </trkpt>
      <trkpt lat="66.30102" lon="20.80641">
        <ele>97.634776</ele>
        <time>2020-09-22T08:39:28.342Z</time>
      </trkpt>
      <trkpt lat="66.30094" lon="20.80655">
        <ele>97.622659</ele>
        <time>2020-09-22T08:39:30.356Z</time>
      </trkpt>
      <trkpt lat="66.30085" lon="20.80668">
        <ele>97.610868</ele>
        <time>2020-09-22T08:39:32.344Z</time>
      </trkpt>
      <trkpt lat="66.30077" lon="20.80681">
        <ele>97.598613</ele>
        <time>2020-09-22T08:39:34.392Z</time>
      </trkpt>
      <trkpt lat="66.30068" lon="20.80693">
        <ele>97.586235</ele>
        <time>2020-09-22T08:39:36.357Z</time>
      </trkpt>
      <trkpt lat="66.30059" lon="20.80705">
        <ele>97.574327</ele>
        <time>2020-09-22T08:39:38.373Z</time>
      </trkpt>
      <trkpt lat="66.3005" lon="20.80718">
        <ele>97.562048</ele>
        <time>2020-09-22T08:39:40.385Z</time>
      </trkpt>
      <trkpt lat="66.30042" lon="20.80732">
        <ele>97.549513</ele>
        <time>2020-09-22T08:39:42.357Z</time>
      </trkpt>
      <trkpt lat="66.30033" lon="20.80744">
        <ele>97.536935</ele>
        <time>2020-09-22T08:39:44.355Z</time>
      </trkpt>
      <trkpt lat="66.30024" lon="20.80757">
        <ele>97.525012</ele>
        <time>2020-09-22T08:39:46.361Z</time>
      </trkpt>
      <trkpt lat="66.30016" lon="20.80769">
        <ele>97.50458</ele>
        <time>2020-09-22T08:39:48.391Z</time>
      </trkpt>
      <trkpt lat="66.30007" lon="20.8078">
        <ele>97.473803</ele>
        <time>2020-09-22T08:39:50.370Z</time>
      </trkpt>
      <trkpt lat="66.29999" lon="20.80791">
        <ele>97.443964</ele>
        <time>2020-09-22T08:39:52.381Z</time>
      </trkpt>
      <trkpt lat="66.29991" lon="20.80803">
        <ele>97.41252</ele>
        <time>2020-09-22T08:39:54.352Z</time>
      </trkpt>
      <trkpt lat="66.29983" lon="20.80815">
        <ele>97.38152</ele>
        <time>2020-09-22T08:39:56.369Z</time>
      </trkpt>
      <trkpt lat="66.29974" lon="20.80825">
        <ele>97.350473</ele>
        <time>2020-09-22T08:39:58.361Z</time>
      </trkpt>
      <trkpt lat="66.29965" lon="20.80838">
        <ele>97.317923</ele>
        <time>2020-09-22T08:40:00.360Z</time>
      </trkpt>
      <trkpt lat="66.29957" lon="20.80849">
        <ele>97.285976</ele>
        <time>2020-09-22T08:40:02.347Z</time>
      </trkpt>
      <trkpt lat="66.29948" lon="20.80861">
        <ele>97.253868</ele>
        <time>2020-09-22T08:40:04.361Z</time>
      </trkpt>
      <trkpt lat="66.29939" lon="20.80873">
        <ele>97.220877</ele>
        <time>2020-09-22T08:40:06.349Z</time>
      </trkpt>
      <trkpt lat="66.29931" lon="20.80885">
        <ele>97.188892</ele>
        <time>2020-09-22T08:40:08.358Z</time>
      </trkpt>
      <trkpt lat="66.29922" lon="20.80896">
        <ele>97.156722</ele>
        <time>2020-09-22T08:40:10.349Z</time>
      </trkpt>
      <trkpt lat="66.29913" lon="20.80907">
        <ele>97.123462</ele>
        <time>2020-09-22T08:40:12.368Z</time>
      </trkpt>
      <trkpt lat="66.29904" lon="20.80919">
        <ele>97.092685</ele>
        <time>2020-09-22T08:40:14.353Z</time>
      </trkpt>
      <trkpt lat="66.29896" lon="20.80929">
        <ele>97.061756</ele>
        <time>2020-09-22T08:40:16.372Z</time>
      </trkpt>
      <trkpt lat="66.29887" lon="20.8094">
        <ele>97.030121</ele>
        <time>2020-09-22T08:40:18.381Z</time>
      </trkpt>
      <trkpt lat="66.29878" lon="20.80949">
        <ele>96.998759</ele>
        <time>2020-09-22T08:40:20.395Z</time>
      </trkpt>
      <trkpt lat="66.2987" lon="20.8096">
        <ele>96.968061</ele>
        <time>2020-09-22T08:40:22.353Z</time>
      </trkpt>
      <trkpt lat="66.29861" lon="20.8097">
        <ele>96.936887</ele>
        <time>2020-09-22T08:40:24.362Z</time>
      </trkpt>
      <trkpt lat="66.29852" lon="20.8098">
        <ele>97.145579</ele>
        <time>2020-09-22T08:40:26.359Z</time>
      </trkpt>
      <trkpt lat="66.29843" lon="20.8099">
        <ele>97.392848</ele>
        <time>2020-09-22T08:40:28.371Z</time>
      </trkpt>
      <trkpt lat="66.29834" lon="20.80999">
        <ele>97.634849</ele>
        <time>2020-09-22T08:40:30.401Z</time>
      </trkpt>
      <trkpt lat="66.29826" lon="20.81009">
        <ele>97.861307</ele>
        <time>2020-09-22T08:40:32.364Z</time>
      </trkpt>
      <trkpt lat="66.29814" lon="20.81024">
        <ele>98.189909</ele>
        <time>2020-09-22T08:40:35.352Z</time>
      </trkpt>
      <trkpt lat="66.29802" lon="20.81039">
        <ele>98.526511</ele>
        <time>2020-09-22T08:40:38.364Z</time>
      </trkpt>
      <trkpt lat="66.2979" lon="20.81052">
        <ele>98.855406</ele>
        <time>2020-09-22T08:40:41.358Z</time>
      </trkpt>
      <trkpt lat="66.29782" lon="20.81061">
        <ele>99.084801</ele>
        <time>2020-09-22T08:40:43.353Z</time>
      </trkpt>
      <trkpt lat="66.29773" lon="20.81071">
        <ele>99.313373</ele>
        <time>2020-09-22T08:40:45.351Z</time>
      </trkpt>
      <trkpt lat="66.29765" lon="20.81081">
        <ele>99.545594</ele>
        <time>2020-09-22T08:40:47.363Z</time>
      </trkpt>
      <trkpt lat="66.29756" lon="20.81089">
        <ele>99.778594</ele>
        <time>2020-09-22T08:40:49.352Z</time>
      </trkpt>
      <trkpt lat="66.29748" lon="20.81097">
        <ele>100.003035</ele>
        <time>2020-09-22T08:40:51.365Z</time>
      </trkpt>
      <trkpt lat="66.29739" lon="20.81106">
        <ele>100.225595</ele>
        <time>2020-09-22T08:40:53.398Z</time>
      </trkpt>
      <trkpt lat="66.29727" lon="20.81118">
        <ele>100.547127</ele>
        <time>2020-09-22T08:40:56.382Z</time>
      </trkpt>
      <trkpt lat="66.29716" lon="20.81131">
        <ele>100.851547</ele>
        <time>2020-09-22T08:40:59.371Z</time>
      </trkpt>
      <trkpt lat="66.29703" lon="20.81143">
        <ele>101.188543</ele>
        <time>2020-09-22T08:41:02.392Z</time>
      </trkpt>
      <trkpt lat="66.29695" lon="20.81151">
        <ele>101.373892</ele>
        <time>2020-09-22T08:41:04.352Z</time>
      </trkpt>
      <trkpt lat="66.29686" lon="20.81159">
        <ele>101.116874</ele>
        <time>2020-09-22T08:41:06.371Z</time>
      </trkpt>
      <trkpt lat="66.29676" lon="20.81167">
        <ele>100.854785</ele>
        <time>2020-09-22T08:41:08.380Z</time>
      </trkpt>
      <trkpt lat="66.29667" lon="20.81175">
        <ele>100.594135</ele>
        <time>2020-09-22T08:41:10.363Z</time>
      </trkpt>
      <trkpt lat="66.29658" lon="20.81184">
        <ele>100.33235</ele>
        <time>2020-09-22T08:41:12.384Z</time>
      </trkpt>
      <trkpt lat="66.29649" lon="20.81193">
        <ele>100.06728</ele>
        <time>2020-09-22T08:41:14.357Z</time>
      </trkpt>
      <trkpt lat="66.2964" lon="20.81201">
        <ele>99.805109</ele>
        <time>2020-09-22T08:41:16.365Z</time>
      </trkpt>
      <trkpt lat="66.2963" lon="20.8121">
        <ele>99.525285</ele>
        <time>2020-09-22T08:41:18.368Z</time>
      </trkpt>
      <trkpt lat="66.2962" lon="20.81219">
        <ele>99.233509</ele>
        <time>2020-09-22T08:41:20.357Z</time>
      </trkpt>
      <trkpt lat="66.29609" lon="20.81229">
        <ele>98.924721</ele>
        <time>2020-09-22T08:41:22.355Z</time>
      </trkpt>
      <trkpt lat="66.29598" lon="20.81238">
        <ele>98.621358</ele>
        <time>2020-09-22T08:41:24.384Z</time>
      </trkpt>
      <trkpt lat="66.29587" lon="20.81247">
        <ele>98.308386</ele>
        <time>2020-09-22T08:41:26.363Z</time>
      </trkpt>
      <trkpt lat="66.29576" lon="20.81257">
        <ele>97.976731</ele>
        <time>2020-09-22T08:41:28.376Z</time>
      </trkpt>
      <trkpt lat="66.29564" lon="20.81267">
        <ele>97.634185</ele>
        <time>2020-09-22T08:41:30.384Z</time>
      </trkpt>
      <trkpt lat="66.29552" lon="20.81276">
        <ele>97.30253</ele>
        <time>2020-09-22T08:41:32.348Z</time>
      </trkpt>
      <trkpt lat="66.2954" lon="20.81286">
        <ele>96.964522</ele>
        <time>2020-09-22T08:41:34.362Z</time>
      </trkpt>
      <trkpt lat="66.29528" lon="20.81295">
        <ele>96.621691</ele>
        <time>2020-09-22T08:41:36.358Z</time>
      </trkpt>
      <trkpt lat="66.29515" lon="20.81304">
        <ele>96.186898</ele>
        <time>2020-09-22T08:41:38.360Z</time>
      </trkpt>
      <trkpt lat="66.29502" lon="20.81313">
        <ele>95.710096</ele>
        <time>2020-09-22T08:41:40.376Z</time>
      </trkpt>
      <trkpt lat="66.29489" lon="20.81321">
        <ele>95.249161</ele>
        <time>2020-09-22T08:41:42.348Z</time>
      </trkpt>
      <trkpt lat="66.29476" lon="20.8133">
        <ele>94.783827</ele>
        <time>2020-09-22T08:41:44.378Z</time>
      </trkpt>
      <trkpt lat="66.29463" lon="20.81338">
        <ele>94.325185</ele>
        <time>2020-09-22T08:41:46.365Z</time>
      </trkpt>
      <trkpt lat="66.29451" lon="20.81347">
        <ele>93.877617</ele>
        <time>2020-09-22T08:41:48.352Z</time>
      </trkpt>
      <trkpt lat="66.29438" lon="20.81356">
        <ele>93.434541</ele>
        <time>2020-09-22T08:41:50.354Z</time>
      </trkpt>
      <trkpt lat="66.29426" lon="20.81364">
        <ele>93.001462</ele>
        <time>2020-09-22T08:41:52.347Z</time>
      </trkpt>
      <trkpt lat="66.29414" lon="20.81371">
        <ele>92.567386</ele>
        <time>2020-09-22T08:41:54.371Z</time>
      </trkpt>
      <trkpt lat="66.29402" lon="20.8138">
        <ele>92.139531</ele>
        <time>2020-09-22T08:41:56.390Z</time>
      </trkpt>
      <trkpt lat="66.2939" lon="20.81387">
        <ele>91.711528</ele>
        <time>2020-09-22T08:41:58.416Z</time>
      </trkpt>
      <trkpt lat="66.29378" lon="20.81394">
        <ele>91.286066</ele>
        <time>2020-09-22T08:42:00.357Z</time>
      </trkpt>
      <trkpt lat="66.29367" lon="20.814">
        <ele>90.878407</ele>
        <time>2020-09-22T08:42:02.359Z</time>
      </trkpt>
      <trkpt lat="66.29356" lon="20.81406">
        <ele>90.489423</ele>
        <time>2020-09-22T08:42:04.348Z</time>
      </trkpt>
      <trkpt lat="66.29345" lon="20.81411">
        <ele>90.512609</ele>
        <time>2020-09-22T08:42:06.357Z</time>
      </trkpt>
      <trkpt lat="66.29334" lon="20.81417">
        <ele>90.78693</ele>
        <time>2020-09-22T08:42:08.348Z</time>
      </trkpt>
      <trkpt lat="66.29324" lon="20.81422">
        <ele>91.049142</ele>
        <time>2020-09-22T08:42:10.340Z</time>
      </trkpt>
      <trkpt lat="66.29313" lon="20.81428">
        <ele>91.318942</ele>
        <time>2020-09-22T08:42:12.355Z</time>
      </trkpt>
      <trkpt lat="66.29303" lon="20.81433">
        <ele>91.57541</ele>
        <time>2020-09-22T08:42:14.347Z</time>
      </trkpt>
      <trkpt lat="66.29293" lon="20.81436">
        <ele>91.837224</ele>
        <time>2020-09-22T08:42:16.357Z</time>
      </trkpt>
      <trkpt lat="66.29283" lon="20.81441">
        <ele>92.085512</ele>
        <time>2020-09-22T08:42:18.348Z</time>
      </trkpt>
      <trkpt lat="66.29273" lon="20.81445">
        <ele>92.332903</ele>
        <time>2020-09-22T08:42:20.350Z</time>
      </trkpt>
      <trkpt lat="66.29264" lon="20.8145">
        <ele>92.571124</ele>
        <time>2020-09-22T08:42:22.341Z</time>
      </trkpt>
      <trkpt lat="66.29255" lon="20.81454">
        <ele>92.801002</ele>
        <time>2020-09-22T08:42:24.369Z</time>
      </trkpt>
      <trkpt lat="66.29246" lon="20.81457">
        <ele>93.033013</ele>
        <time>2020-09-22T08:42:26.353Z</time>
      </trkpt>
      <trkpt lat="66.29233" lon="20.81464">
        <ele>93.363956</ele>
        <time>2020-09-22T08:42:29.339Z</time>
      </trkpt>
      <trkpt lat="66.2922" lon="20.81472">
        <ele>93.692395</ele>
        <time>2020-09-22T08:42:32.354Z</time>
      </trkpt>
      <trkpt lat="66.29208" lon="20.81479">
        <ele>94.01746</ele>
        <time>2020-09-22T08:42:35.382Z</time>
      </trkpt>
      <trkpt lat="66.29195" lon="20.81485">
        <ele>94.334709</ele>
        <time>2020-09-22T08:42:38.365Z</time>
      </trkpt>
      <trkpt lat="66.29183" lon="20.81489">
        <ele>94.654627</ele>
        <time>2020-09-22T08:42:41.369Z</time>
      </trkpt>
      <trkpt lat="66.2917" lon="20.81494">
        <ele>94.874137</ele>
        <time>2020-09-22T08:42:44.352Z</time>
      </trkpt>
      <trkpt lat="66.29157" lon="20.81499">
        <ele>94.912464</ele>
        <time>2020-09-22T08:42:47.351Z</time>
      </trkpt>
      <trkpt lat="66.29144" lon="20.81505">
        <ele>94.952682</ele>
        <time>2020-09-22T08:42:50.368Z</time>
      </trkpt>
      <trkpt lat="66.29135" lon="20.8151">
        <ele>94.980759</ele>
        <time>2020-09-22T08:42:52.347Z</time>
      </trkpt>
      <trkpt lat="66.29122" lon="20.81515">
        <ele>95.020834</ele>
        <time>2020-09-22T08:42:55.357Z</time>
      </trkpt>
      <trkpt lat="66.29109" lon="20.81521">
        <ele>95.059437</ele>
        <time>2020-09-22T08:42:58.355Z</time>
      </trkpt>
      <trkpt lat="66.29096" lon="20.81529">
        <ele>95.099992</ele>
        <time>2020-09-22T08:43:01.400Z</time>
      </trkpt>
      <trkpt lat="66.29088" lon="20.81533">
        <ele>95.127085</ele>
        <time>2020-09-22T08:43:03.372Z</time>
      </trkpt>
      <trkpt lat="66.29074" lon="20.81539">
        <ele>95.168238</ele>
        <time>2020-09-22T08:43:06.361Z</time>
      </trkpt>
      <trkpt lat="66.29065" lon="20.81543">
        <ele>95.196198</ele>
        <time>2020-09-22T08:43:08.366Z</time>
      </trkpt>
      <trkpt lat="66.29055" lon="20.81547">
        <ele>95.225881</ele>
        <time>2020-09-22T08:43:10.360Z</time>
      </trkpt>
      <trkpt lat="66.29046" lon="20.81551">
        <ele>95.254352</ele>
        <time>2020-09-22T08:43:12.355Z</time>
      </trkpt>
      <trkpt lat="66.29036" lon="20.81554">
        <ele>95.283629</ele>
        <time>2020-09-22T08:43:14.369Z</time>
      </trkpt>
      <trkpt lat="66.29027" lon="20.81558">
        <ele>95.311504</ele>
        <time>2020-09-22T08:43:16.360Z</time>
      </trkpt>
      <trkpt lat="66.29018" lon="20.81562">
        <ele>95.339976</ele>
        <time>2020-09-22T08:43:18.392Z</time>
      </trkpt>
      <trkpt lat="66.29005" lon="20.81567">
        <ele>95.379696</ele>
        <time>2020-09-22T08:43:21.371Z</time>
      </trkpt>
      <trkpt lat="66.28992" lon="20.81571">
        <ele>95.257455</ele>
        <time>2020-09-22T08:43:24.359Z</time>
      </trkpt>
      <trkpt lat="66.28983" lon="20.81575">
        <ele>95.021633</ele>
        <time>2020-09-22T08:43:26.375Z</time>
      </trkpt>
      <trkpt lat="66.28973" lon="20.81579">
        <ele>94.770355</ele>
        <time>2020-09-22T08:43:28.365Z</time>
      </trkpt>
      <trkpt lat="66.28963" lon="20.81583">
        <ele>94.524522</ele>
        <time>2020-09-22T08:43:30.374Z</time>
      </trkpt>
      <trkpt lat="66.28953" lon="20.81588">
        <ele>94.273245</ele>
        <time>2020-09-22T08:43:32.352Z</time>
      </trkpt>
      <trkpt lat="66.28943" lon="20.81592">
        <ele>94.024423</ele>
        <time>2020-09-22T08:43:34.362Z</time>
      </trkpt>
      <trkpt lat="66.28933" lon="20.81597">
        <ele>93.760137</ele>
        <time>2020-09-22T08:43:36.366Z</time>
      </trkpt>
      <trkpt lat="66.28922" lon="20.81602">
        <ele>93.49321</ele>
        <time>2020-09-22T08:43:38.375Z</time>
      </trkpt>
      <trkpt lat="66.28911" lon="20.81607">
        <ele>93.211556</ele>
        <time>2020-09-22T08:43:40.377Z</time>
      </trkpt>
      <trkpt lat="66.289" lon="20.81613">
        <ele>92.921225</ele>
        <time>2020-09-22T08:43:42.358Z</time>
      </trkpt>
      <trkpt lat="66.28888" lon="20.81618">
        <ele>92.626379</ele>
        <time>2020-09-22T08:43:44.353Z</time>
      </trkpt>
      <trkpt lat="66.28876" lon="20.81625">
        <ele>92.316868</ele>
        <time>2020-09-22T08:43:46.369Z</time>
      </trkpt>
      <trkpt lat="66.28864" lon="20.81631">
        <ele>92.002379</ele>
        <time>2020-09-22T08:43:48.349Z</time>
      </trkpt>
      <trkpt lat="66.28852" lon="20.81637">
        <ele>91.699215</ele>
        <time>2020-09-22T08:43:50.357Z</time>
      </trkpt>
      <trkpt lat="66.2884" lon="20.81642">
        <ele>91.394553</ele>
        <time>2020-09-22T08:43:52.372Z</time>
      </trkpt>
      <trkpt lat="66.28828" lon="20.81648">
        <ele>91.099325</ele>
        <time>2020-09-22T08:43:54.350Z</time>
      </trkpt>
      <trkpt lat="66.28816" lon="20.81653">
        <ele>90.782597</ele>
        <time>2020-09-22T08:43:56.380Z</time>
      </trkpt>
      <trkpt lat="66.28804" lon="20.81658">
        <ele>90.456473</ele>
        <time>2020-09-22T08:43:58.396Z</time>
      </trkpt>
      <trkpt lat="66.28791" lon="20.81663">
        <ele>90.127116</ele>
        <time>2020-09-22T08:44:00.358Z</time>
      </trkpt>
      <trkpt lat="66.28779" lon="20.81668">
        <ele>89.808855</ele>
        <time>2020-09-22T08:44:02.363Z</time>
      </trkpt>
      <trkpt lat="66.28767" lon="20.81673">
        <ele>89.503425</ele>
        <time>2020-09-22T08:44:04.354Z</time>
      </trkpt>
      <trkpt lat="66.28756" lon="20.81678">
        <ele>89.212444</ele>
        <time>2020-09-22T08:44:06.375Z</time>
      </trkpt>
      <trkpt lat="66.28745" lon="20.81683">
        <ele>88.916732</ele>
        <time>2020-09-22T08:44:08.363Z</time>
      </trkpt>
      <trkpt lat="66.28734" lon="20.81689">
        <ele>88.611153</ele>
        <time>2020-09-22T08:44:10.373Z</time>
      </trkpt>
      <trkpt lat="66.28722" lon="20.81695">
        <ele>88.291112</ele>
        <time>2020-09-22T08:44:12.373Z</time>
      </trkpt>
      <trkpt lat="66.2871" lon="20.817">
        <ele>87.984227</ele>
        <time>2020-09-22T08:44:14.375Z</time>
      </trkpt>
      <trkpt lat="66.28698" lon="20.81706">
        <ele>87.661039</ele>
        <time>2020-09-22T08:44:16.356Z</time>
      </trkpt>
      <trkpt lat="66.28686" lon="20.81713">
        <ele>87.35108</ele>
        <time>2020-09-22T08:44:18.368Z</time>
      </trkpt>
      <trkpt lat="66.28675" lon="20.8172">
        <ele>87.043648</ele>
        <time>2020-09-22T08:44:20.363Z</time>
      </trkpt>
      <trkpt lat="66.28664" lon="20.81727">
        <ele>86.74681</ele>
        <time>2020-09-22T08:44:22.370Z</time>
      </trkpt>
      <trkpt lat="66.28653" lon="20.81734">
        <ele>86.464305</ele>
        <time>2020-09-22T08:44:24.352Z</time>
      </trkpt>
      <trkpt lat="66.28642" lon="20.81739">
        <ele>86.208895</ele>
        <time>2020-09-22T08:44:26.348Z</time>
      </trkpt>
      <trkpt lat="66.28631" lon="20.81746">
        <ele>86.061927</ele>
        <time>2020-09-22T08:44:28.366Z</time>
      </trkpt>
      <trkpt lat="66.2862" lon="20.81754">
        <ele>85.908397</ele>
        <time>2020-09-22T08:44:30.361Z</time>
      </trkpt>
      <trkpt lat="66.28609" lon="20.81762">
        <ele>85.758715</ele>
        <time>2020-09-22T08:44:32.392Z</time>
      </trkpt>
      <trkpt lat="66.28597" lon="20.8177">
        <ele>85.606701</ele>
        <time>2020-09-22T08:44:34.346Z</time>
      </trkpt>
      <trkpt lat="66.28586" lon="20.81778">
        <ele>85.455497</ele>
        <time>2020-09-22T08:44:36.364Z</time>
      </trkpt>
      <trkpt lat="66.28575" lon="20.81787">
        <ele>85.306309</ele>
        <time>2020-09-22T08:44:38.358Z</time>
      </trkpt>
      <trkpt lat="66.28564" lon="20.81794">
        <ele>85.161832</ele>
        <time>2020-09-22T08:44:40.347Z</time>
      </trkpt>
      <trkpt lat="66.28553" lon="20.81801">
        <ele>85.022061</ele>
        <time>2020-09-22T08:44:42.356Z</time>
      </trkpt>
      <trkpt lat="66.28543" lon="20.8181">
        <ele>84.874533</ele>
        <time>2020-09-22T08:44:44.362Z</time>
      </trkpt>
      <trkpt lat="66.28532" lon="20.8182">
        <ele>84.726679</ele>
        <time>2020-09-22T08:44:46.362Z</time>
      </trkpt>
      <trkpt lat="66.28521" lon="20.8183">
        <ele>84.574674</ele>
        <time>2020-09-22T08:44:48.357Z</time>
      </trkpt>
      <trkpt lat="66.28509" lon="20.81839">
        <ele>84.421942</ele>
        <time>2020-09-22T08:44:50.352Z</time>
      </trkpt>
      <trkpt lat="66.28498" lon="20.81848">
        <ele>84.271973</ele>
        <time>2020-09-22T08:44:52.391Z</time>
      </trkpt>
      <trkpt lat="66.28487" lon="20.81857">
        <ele>84.117569</ele>
        <time>2020-09-22T08:44:54.386Z</time>
      </trkpt>
      <trkpt lat="66.28476" lon="20.81866">
        <ele>83.966057</ele>
        <time>2020-09-22T08:44:56.380Z</time>
      </trkpt>
      <trkpt lat="66.28464" lon="20.81875">
        <ele>84.067472</ele>
        <time>2020-09-22T08:44:58.367Z</time>
      </trkpt>
      <trkpt lat="66.28453" lon="20.81883">
        <ele>84.251237</ele>
        <time>2020-09-22T08:45:00.348Z</time>
      </trkpt>
      <trkpt lat="66.28442" lon="20.81893">
        <ele>84.437774</ele>
        <time>2020-09-22T08:45:02.356Z</time>
      </trkpt>
      <trkpt lat="66.2843" lon="20.81903">
        <ele>84.624311</ele>
        <time>2020-09-22T08:45:04.393Z</time>
      </trkpt>
      <trkpt lat="66.28419" lon="20.81913">
        <ele>84.807258</ele>
        <time>2020-09-22T08:45:06.372Z</time>
      </trkpt>
      <trkpt lat="66.28409" lon="20.81921">
        <ele>84.979453</ele>
        <time>2020-09-22T08:45:08.345Z</time>
      </trkpt>
      <trkpt lat="66.28398" lon="20.81931">
        <ele>85.157124</ele>
        <time>2020-09-22T08:45:10.389Z</time>
      </trkpt>
      <trkpt lat="66.28386" lon="20.8194">
        <ele>85.356828</ele>
        <time>2020-09-22T08:45:12.351Z</time>
      </trkpt>
      <trkpt lat="66.28374" lon="20.8195">
        <ele>85.555765</ele>
        <time>2020-09-22T08:45:14.392Z</time>
      </trkpt>
      <trkpt lat="66.28362" lon="20.81959">
        <ele>85.749832</ele>
        <time>2020-09-22T08:45:16.356Z</time>
      </trkpt>
      <trkpt lat="66.28351" lon="20.81967">
        <ele>85.93572</ele>
        <time>2020-09-22T08:45:18.379Z</time>
      </trkpt>
      <trkpt lat="66.2834" lon="20.81974">
        <ele>86.110709</ele>
        <time>2020-09-22T08:45:20.379Z</time>
      </trkpt>
      <trkpt lat="66.28329" lon="20.81983">
        <ele>86.295422</ele>
        <time>2020-09-22T08:45:22.352Z</time>
      </trkpt>
      <trkpt lat="66.28317" lon="20.81992">
        <ele>86.485392</ele>
        <time>2020-09-22T08:45:24.360Z</time>
      </trkpt>
      <trkpt lat="66.28306" lon="20.82003">
        <ele>86.677645</ele>
        <time>2020-09-22T08:45:26.374Z</time>
      </trkpt>
      <trkpt lat="66.28295" lon="20.82013">
        <ele>86.676193</ele>
        <time>2020-09-22T08:45:28.348Z</time>
      </trkpt>
      <trkpt lat="66.28284" lon="20.82021">
        <ele>86.564096</ele>
        <time>2020-09-22T08:45:30.359Z</time>
      </trkpt>
      <trkpt lat="66.28272" lon="20.82029">
        <ele>86.449525</ele>
        <time>2020-09-22T08:45:32.360Z</time>
      </trkpt>
      <trkpt lat="66.28261" lon="20.82037">
        <ele>86.33715</ele>
        <time>2020-09-22T08:45:34.395Z</time>
      </trkpt>
      <trkpt lat="66.2825" lon="20.82044">
        <ele>86.227272</ele>
        <time>2020-09-22T08:45:36.358Z</time>
      </trkpt>
      <trkpt lat="66.28239" lon="20.82051">
        <ele>86.117492</ele>
        <time>2020-09-22T08:45:38.354Z</time>
      </trkpt>
      <trkpt lat="66.28229" lon="20.82058">
        <ele>86.010543</ele>
        <time>2020-09-22T08:45:40.385Z</time>
      </trkpt>
      <trkpt lat="66.28218" lon="20.82065">
        <ele>85.899916</ele>
        <time>2020-09-22T08:45:42.372Z</time>
      </trkpt>
      <trkpt lat="66.28207" lon="20.82072">
        <ele>85.78848</ele>
        <time>2020-09-22T08:45:44.376Z</time>
      </trkpt>
      <trkpt lat="66.28196" lon="20.82079">
        <ele>85.677454</ele>
        <time>2020-09-22T08:45:46.356Z</time>
      </trkpt>
      <trkpt lat="66.28184" lon="20.82084">
        <ele>85.564139</ele>
        <time>2020-09-22T08:45:48.410Z</time>
      </trkpt>
      <trkpt lat="66.28173" lon="20.82091">
        <ele>85.452075</ele>
        <time>2020-09-22T08:45:50.396Z</time>
      </trkpt>
      <trkpt lat="66.28162" lon="20.82096">
        <ele>85.343377</ele>
        <time>2020-09-22T08:45:52.356Z</time>
      </trkpt>
      <trkpt lat="66.28151" lon="20.82102">
        <ele>85.23419</ele>
        <time>2020-09-22T08:45:54.388Z</time>
      </trkpt>
      <trkpt lat="66.2814" lon="20.82107">
        <ele>85.126918</ele>
        <time>2020-09-22T08:45:56.360Z</time>
      </trkpt>
      <trkpt lat="66.28129" lon="20.82112">
        <ele>85.01846</ele>
        <time>2020-09-22T08:45:58.344Z</time>
      </trkpt>
      <trkpt lat="66.28119" lon="20.82117">
        <ele>85.128476</ele>
        <time>2020-09-22T08:46:00.360Z</time>
      </trkpt>
      <trkpt lat="66.28109" lon="20.82121">
        <ele>85.303148</ele>
        <time>2020-09-22T08:46:02.367Z</time>
      </trkpt>
      <trkpt lat="66.281" lon="20.82126">
        <ele>85.475499</ele>
        <time>2020-09-22T08:46:04.352Z</time>
      </trkpt>
      <trkpt lat="66.2809" lon="20.8213">
        <ele>85.638819</ele>
        <time>2020-09-22T08:46:06.353Z</time>
      </trkpt>
      <trkpt lat="66.28077" lon="20.82136">
        <ele>85.870594</ele>
        <time>2020-09-22T08:46:09.380Z</time>
      </trkpt>
      <trkpt lat="66.28064" lon="20.82142">
        <ele>86.093693</ele>
        <time>2020-09-22T08:46:12.391Z</time>
      </trkpt>
      <trkpt lat="66.28052" lon="20.82147">
        <ele>86.302326</ele>
        <time>2020-09-22T08:46:15.370Z</time>
      </trkpt>
      <trkpt lat="66.28041" lon="20.82151">
        <ele>86.498341</ele>
        <time>2020-09-22T08:46:18.363Z</time>
      </trkpt>
      <trkpt lat="66.2803" lon="20.82156">
        <ele>86.686361</ele>
        <time>2020-09-22T08:46:21.374Z</time>
      </trkpt>
      <trkpt lat="66.2802" lon="20.8216">
        <ele>86.865236</ele>
        <time>2020-09-22T08:46:24.355Z</time>
      </trkpt>
      <trkpt lat="66.28009" lon="20.82164">
        <ele>87.041791</ele>
        <time>2020-09-22T08:46:27.379Z</time>
      </trkpt>
      <trkpt lat="66.28" lon="20.82168">
        <ele>87.205344</ele>
        <time>2020-09-22T08:46:30.386Z</time>
      </trkpt>
      <trkpt lat="66.2799" lon="20.82173">
        <ele>87.379755</ele>
        <time>2020-09-22T08:46:33.354Z</time>
      </trkpt>
      <trkpt lat="66.2798" lon="20.82178">
        <ele>87.556242</ele>
        <time>2020-09-22T08:46:36.352Z</time>
      </trkpt>
      <trkpt lat="66.2797" lon="20.82183">
        <ele>87.734411</ele>
        <time>2020-09-22T08:46:39.358Z</time>
      </trkpt>
      <trkpt lat="66.2796" lon="20.82185">
        <ele>87.903387</ele>
        <time>2020-09-22T08:46:42.368Z</time>
      </trkpt>
      <trkpt lat="66.2795" lon="20.82188">
        <ele>88.073992</ele>
        <time>2020-09-22T08:46:45.354Z</time>
      </trkpt>
      <trkpt lat="66.27941" lon="20.8219">
        <ele>88.271539</ele>
        <time>2020-09-22T08:46:48.383Z</time>
      </trkpt>
      <trkpt lat="66.27929" lon="20.82193">
        <ele>88.53371</ele>
        <time>2020-09-22T08:46:52.356Z</time>
      </trkpt>
      <trkpt lat="66.2792" lon="20.82197">
        <ele>88.73166</ele>
        <time>2020-09-22T08:46:55.366Z</time>
      </trkpt>
      <trkpt lat="66.27908" lon="20.82201">
        <ele>88.985848</ele>
        <time>2020-09-22T08:46:59.344Z</time>
      </trkpt>
      <trkpt lat="66.27899" lon="20.82204">
        <ele>89.185073</ele>
        <time>2020-09-22T08:47:02.371Z</time>
      </trkpt>
      <trkpt lat="66.2789" lon="20.82208">
        <ele>89.382122</ele>
        <time>2020-09-22T08:47:05.372Z</time>
      </trkpt>
      <trkpt lat="66.27879" lon="20.82213">
        <ele>89.641911</ele>
        <time>2020-09-22T08:47:09.364Z</time>
      </trkpt>
      <trkpt lat="66.27869" lon="20.82217">
        <ele>89.859053</ele>
        <time>2020-09-22T08:47:12.372Z</time>
      </trkpt>
      <trkpt lat="66.27859" lon="20.8222">
        <ele>90.065452</ele>
        <time>2020-09-22T08:47:15.360Z</time>
      </trkpt>
      <trkpt lat="66.2785" lon="20.82223">
        <ele>90.278052</ele>
        <time>2020-09-22T08:47:18.401Z</time>
      </trkpt>
      <trkpt lat="66.27839" lon="20.82227">
        <ele>90.503568</ele>
        <time>2020-09-22T08:47:21.380Z</time>
      </trkpt>
      <trkpt lat="66.27829" lon="20.8223">
        <ele>90.724892</ele>
        <time>2020-09-22T08:47:24.359Z</time>
      </trkpt>
      <trkpt lat="66.2782" lon="20.82236">
        <ele>90.93651</ele>
        <time>2020-09-22T08:47:27.370Z</time>
      </trkpt>
      <trkpt lat="66.2781" lon="20.82241">
        <ele>91.148935</ele>
        <time>2020-09-22T08:47:30.361Z</time>
      </trkpt>
      <trkpt lat="66.278" lon="20.82247">
        <ele>91.384815</ele>
        <time>2020-09-22T08:47:33.389Z</time>
      </trkpt>
      <trkpt lat="66.27788" lon="20.82253">
        <ele>91.63112</ele>
        <time>2020-09-22T08:47:36.369Z</time>
      </trkpt>
      <trkpt lat="66.27777" lon="20.82259">
        <ele>91.890537</ele>
        <time>2020-09-22T08:47:39.363Z</time>
      </trkpt>
      <trkpt lat="66.27765" lon="20.82265">
        <ele>91.93359</ele>
        <time>2020-09-22T08:47:42.357Z</time>
      </trkpt>
      <trkpt lat="66.27754" lon="20.82271">
        <ele>91.856758</ele>
        <time>2020-09-22T08:47:45.350Z</time>
      </trkpt>
      <trkpt lat="66.27744" lon="20.82277">
        <ele>91.782671</ele>
        <time>2020-09-22T08:47:48.396Z</time>
      </trkpt>
      <trkpt lat="66.27733" lon="20.82284">
        <ele>91.708059</ele>
        <time>2020-09-22T08:47:51.388Z</time>
      </trkpt>
      <trkpt lat="66.27722" lon="20.8229">
        <ele>91.634358</ele>
        <time>2020-09-22T08:47:54.372Z</time>
      </trkpt>
      <trkpt lat="66.27711" lon="20.82296">
        <ele>91.558015</ele>
        <time>2020-09-22T08:47:57.353Z</time>
      </trkpt>
      <trkpt lat="66.277" lon="20.82301">
        <ele>91.476838</ele>
        <time>2020-09-22T08:48:00.374Z</time>
      </trkpt>
      <trkpt lat="66.27688" lon="20.82308">
        <ele>91.397296</ele>
        <time>2020-09-22T08:48:03.354Z</time>
      </trkpt>
      <trkpt lat="66.27678" lon="20.82317">
        <ele>91.32185</ele>
        <time>2020-09-22T08:48:06.360Z</time>
      </trkpt>
      <trkpt lat="66.27666" lon="20.82325">
        <ele>91.243565</ele>
        <time>2020-09-22T08:48:09.392Z</time>
      </trkpt>
      <trkpt lat="66.27656" lon="20.82332">
        <ele>91.167751</ele>
        <time>2020-09-22T08:48:12.351Z</time>
      </trkpt>
      <trkpt lat="66.27645" lon="20.8234">
        <ele>91.092633</ele>
        <time>2020-09-22T08:48:15.370Z</time>
      </trkpt>
      <trkpt lat="66.27634" lon="20.82347">
        <ele>91.018613</ele>
        <time>2020-09-22T08:48:18.374Z</time>
      </trkpt>
      <trkpt lat="66.27624" lon="20.82355">
        <ele>90.943157</ele>
        <time>2020-09-22T08:48:21.373Z</time>
      </trkpt>
      <trkpt lat="66.27613" lon="20.82362">
        <ele>90.864514</ele>
        <time>2020-09-22T08:48:24.366Z</time>
      </trkpt>
      <trkpt lat="66.27602" lon="20.82371">
        <ele>90.790184</ele>
        <time>2020-09-22T08:48:27.361Z</time>
      </trkpt>
      <trkpt lat="66.27592" lon="20.8238">
        <ele>90.746962</ele>
        <time>2020-09-22T08:48:30.355Z</time>
      </trkpt>
      <trkpt lat="66.27582" lon="20.82388">
        <ele>90.719385</ele>
        <time>2020-09-22T08:48:33.352Z</time>
      </trkpt>
      <trkpt lat="66.27572" lon="20.82397">
        <ele>90.691548</ele>
        <time>2020-09-22T08:48:36.368Z</time>
      </trkpt>
      <trkpt lat="66.27561" lon="20.82406">
        <ele>90.663642</ele>
        <time>2020-09-22T08:48:39.370Z</time>
      </trkpt>
      <trkpt lat="66.27551" lon="20.82413">
        <ele>90.635417</ele>
        <time>2020-09-22T08:48:42.381Z</time>
      </trkpt>
      <trkpt lat="66.27541" lon="20.82422">
        <ele>90.607857</ele>
        <time>2020-09-22T08:48:45.384Z</time>
      </trkpt>
      <trkpt lat="66.2753" lon="20.82432">
        <ele>90.577556</ele>
        <time>2020-09-22T08:48:48.359Z</time>
      </trkpt>
      <trkpt lat="66.27519" lon="20.82443">
        <ele>90.547344</ele>
        <time>2020-09-22T08:48:51.361Z</time>
      </trkpt>
      <trkpt lat="66.27508" lon="20.82454">
        <ele>90.517569</ele>
        <time>2020-09-22T08:48:54.349Z</time>
      </trkpt>
      <trkpt lat="66.27497" lon="20.82464">
        <ele>90.486435</ele>
        <time>2020-09-22T08:48:57.355Z</time>
      </trkpt>
      <trkpt lat="66.27486" lon="20.82473">
        <ele>90.456167</ele>
        <time>2020-09-22T08:49:00.371Z</time>
      </trkpt>
      <trkpt lat="66.27475" lon="20.82484">
        <ele>90.426551</ele>
        <time>2020-09-22T08:49:03.376Z</time>
      </trkpt>
      <trkpt lat="66.27464" lon="20.82496">
        <ele>90.396536</ele>
        <time>2020-09-22T08:49:06.369Z</time>
      </trkpt>
      <trkpt lat="66.27454" lon="20.82508">
        <ele>90.36674</ele>
        <time>2020-09-22T08:49:09.366Z</time>
      </trkpt>
      <trkpt lat="66.27444" lon="20.82518">
        <ele>90.337914</ele>
        <time>2020-09-22T08:49:12.396Z</time>
      </trkpt>
      <trkpt lat="66.27433" lon="20.8253">
        <ele>90.309184</ele>
        <time>2020-09-22T08:49:15.371Z</time>
      </trkpt>
      <trkpt lat="66.27424" lon="20.82541">
        <ele>90.292933</ele>
        <time>2020-09-22T08:49:18.380Z</time>
      </trkpt>
      <trkpt lat="66.27413" lon="20.82553">
        <ele>90.280498</ele>
        <time>2020-09-22T08:49:21.358Z</time>
      </trkpt>
      <trkpt lat="66.27403" lon="20.82565">
        <ele>90.268199</ele>
        <time>2020-09-22T08:49:24.379Z</time>
      </trkpt>
      <trkpt lat="66.27393" lon="20.82579">
        <ele>90.255288</ele>
        <time>2020-09-22T08:49:27.348Z</time>
      </trkpt>
      <trkpt lat="66.27381" lon="20.82591">
        <ele>90.24191</ele>
        <time>2020-09-22T08:49:30.361Z</time>
      </trkpt>
      <trkpt lat="66.27369" lon="20.82605">
        <ele>90.22748</ele>
        <time>2020-09-22T08:49:33.350Z</time>
      </trkpt>
      <trkpt lat="66.27358" lon="20.82617">
        <ele>90.214102</ele>
        <time>2020-09-22T08:49:36.374Z</time>
      </trkpt>
      <trkpt lat="66.27346" lon="20.82627">
        <ele>90.200729</ele>
        <time>2020-09-22T08:49:39.351Z</time>
      </trkpt>
      <trkpt lat="66.27335" lon="20.8264">
        <ele>90.187181</ele>
        <time>2020-09-22T08:49:42.362Z</time>
      </trkpt>
      <trkpt lat="66.27324" lon="20.82653">
        <ele>90.174322</ele>
        <time>2020-09-22T08:49:45.355Z</time>
      </trkpt>
      <trkpt lat="66.27313" lon="20.82665">
        <ele>90.161229</ele>
        <time>2020-09-22T08:49:48.371Z</time>
      </trkpt>
      <trkpt lat="66.27303" lon="20.82676">
        <ele>90.14902</ele>
        <time>2020-09-22T08:49:51.391Z</time>
      </trkpt>
      <trkpt lat="66.27292" lon="20.82689">
        <ele>90.136006</ele>
        <time>2020-09-22T08:49:54.357Z</time>
      </trkpt>
      <trkpt lat="66.27281" lon="20.82701">
        <ele>90.123455</ele>
        <time>2020-09-22T08:49:57.369Z</time>
      </trkpt>
      <trkpt lat="66.27271" lon="20.82713">
        <ele>90.110706</ele>
        <time>2020-09-22T08:50:00.363Z</time>
      </trkpt>
      <trkpt lat="66.2726" lon="20.82724">
        <ele>90.265449</ele>
        <time>2020-09-22T08:50:03.353Z</time>
      </trkpt>
      <trkpt lat="66.27249" lon="20.82737">
        <ele>90.496052</ele>
        <time>2020-09-22T08:50:06.370Z</time>
      </trkpt>
      <trkpt lat="66.27239" lon="20.82748">
        <ele>90.723132</ele>
        <time>2020-09-22T08:50:09.362Z</time>
      </trkpt>
      <trkpt lat="66.27228" lon="20.8276">
        <ele>90.956012</ele>
        <time>2020-09-22T08:50:12.372Z</time>
      </trkpt>
      <trkpt lat="66.27217" lon="20.82772">
        <ele>91.197733</ele>
        <time>2020-09-22T08:50:15.373Z</time>
      </trkpt>
      <trkpt lat="66.27207" lon="20.82783">
        <ele>91.428034</ele>
        <time>2020-09-22T08:50:18.377Z</time>
      </trkpt>
      <trkpt lat="66.27196" lon="20.82794">
        <ele>91.651629</ele>
        <time>2020-09-22T08:50:21.355Z</time>
      </trkpt>
      <trkpt lat="66.27185" lon="20.82806">
        <ele>91.888404</ele>
        <time>2020-09-22T08:50:24.381Z</time>
      </trkpt>
      <trkpt lat="66.27175" lon="20.82817">
        <ele>92.114079</ele>
        <time>2020-09-22T08:50:27.355Z</time>
      </trkpt>
      <trkpt lat="66.27164" lon="20.82825">
        <ele>92.344719</ele>
        <time>2020-09-22T08:50:30.374Z</time>
      </trkpt>
      <trkpt lat="66.27153" lon="20.82836">
        <ele>92.584388</ele>
        <time>2020-09-22T08:50:33.353Z</time>
      </trkpt>
      <trkpt lat="66.27141" lon="20.82847">
        <ele>92.833186</ele>
        <time>2020-09-22T08:50:36.373Z</time>
      </trkpt>
      <trkpt lat="66.2713" lon="20.82859">
        <ele>93.077668</ele>
        <time>2020-09-22T08:50:39.365Z</time>
      </trkpt>
      <trkpt lat="66.27119" lon="20.82871">
        <ele>93.32339</ele>
        <time>2020-09-22T08:50:42.375Z</time>
      </trkpt>
      <trkpt lat="66.27109" lon="20.82881">
        <ele>93.53243</ele>
        <time>2020-09-22T08:50:45.357Z</time>
      </trkpt>
      <trkpt lat="66.27099" lon="20.82891">
        <ele>93.728806</ele>
        <time>2020-09-22T08:50:48.363Z</time>
      </trkpt>
      <trkpt lat="66.2709" lon="20.829">
        <ele>93.85559</ele>
        <time>2020-09-22T08:50:51.395Z</time>
      </trkpt>
      <trkpt lat="66.27079" lon="20.82909">
        <ele>93.997086</ele>
        <time>2020-09-22T08:50:54.368Z</time>
      </trkpt>
      <trkpt lat="66.27067" lon="20.82918">
        <ele>94.142342</ele>
        <time>2020-09-22T08:50:57.375Z</time>
      </trkpt>
      <trkpt lat="66.27056" lon="20.8293">
        <ele>94.292387</ele>
        <time>2020-09-22T08:51:00.373Z</time>
      </trkpt>
      <trkpt lat="66.27044" lon="20.8294">
        <ele>94.439058</ele>
        <time>2020-09-22T08:51:03.404Z</time>
      </trkpt>
      <trkpt lat="66.27033" lon="20.8295">
        <ele>94.583118</ele>
        <time>2020-09-22T08:51:06.399Z</time>
      </trkpt>
      <trkpt lat="66.27022" lon="20.82958">
        <ele>94.724895</ele>
        <time>2020-09-22T08:51:09.357Z</time>
      </trkpt>
      <trkpt lat="66.27011" lon="20.82966">
        <ele>94.856266</ele>
        <time>2020-09-22T08:51:12.383Z</time>
      </trkpt>
      <trkpt lat="66.27001" lon="20.82974">
        <ele>94.993121</ele>
        <time>2020-09-22T08:51:15.383Z</time>
      </trkpt>
      <trkpt lat="66.2699" lon="20.82981">
        <ele>95.12422</ele>
        <time>2020-09-22T08:51:18.371Z</time>
      </trkpt>
      <trkpt lat="66.26978" lon="20.82989">
        <ele>95.273617</ele>
        <time>2020-09-22T08:51:21.376Z</time>
      </trkpt>
      <trkpt lat="66.26966" lon="20.82998">
        <ele>95.425104</ele>
        <time>2020-09-22T08:51:24.352Z</time>
      </trkpt>
      <trkpt lat="66.26955" lon="20.83006">
        <ele>95.573591</ele>
        <time>2020-09-22T08:51:27.343Z</time>
      </trkpt>
      <trkpt lat="66.26943" lon="20.83014">
        <ele>95.714817</ele>
        <time>2020-09-22T08:51:30.343Z</time>
      </trkpt>
      <trkpt lat="66.26932" lon="20.83022">
        <ele>95.860707</ele>
        <time>2020-09-22T08:51:33.346Z</time>
      </trkpt>
      <trkpt lat="66.2692" lon="20.83031">
        <ele>95.721794</ele>
        <time>2020-09-22T08:51:36.355Z</time>
      </trkpt>
      <trkpt lat="66.26908" lon="20.83041">
        <ele>95.515557</ele>
        <time>2020-09-22T08:51:39.409Z</time>
      </trkpt>
      <trkpt lat="66.26896" lon="20.83051">
        <ele>95.312793</ele>
        <time>2020-09-22T08:51:42.408Z</time>
      </trkpt>
      <trkpt lat="66.26883" lon="20.83061">
        <ele>95.100073</ele>
        <time>2020-09-22T08:51:45.390Z</time>
      </trkpt>
      <trkpt lat="66.2687" lon="20.83069">
        <ele>94.884988</ele>
        <time>2020-09-22T08:51:48.358Z</time>
      </trkpt>
      <trkpt lat="66.26857" lon="20.83078">
        <ele>94.666452</ele>
        <time>2020-09-22T08:51:51.383Z</time>
      </trkpt>
      <trkpt lat="66.26848" lon="20.83083">
        <ele>94.51341</ele>
        <time>2020-09-22T08:51:53.357Z</time>
      </trkpt>
      <trkpt lat="66.26839" lon="20.8309">
        <ele>94.359204</ele>
        <time>2020-09-22T08:51:55.375Z</time>
      </trkpt>
      <trkpt lat="66.2683" lon="20.83096">
        <ele>94.206192</ele>
        <time>2020-09-22T08:51:57.365Z</time>
      </trkpt>
      <trkpt lat="66.2682" lon="20.83104">
        <ele>94.043367</ele>
        <time>2020-09-22T08:51:59.358Z</time>
      </trkpt>
      <trkpt lat="66.2681" lon="20.83111">
        <ele>93.875498</ele>
        <time>2020-09-22T08:52:01.377Z</time>
      </trkpt>
      <trkpt lat="66.268" lon="20.83117">
        <ele>93.709601</ele>
        <time>2020-09-22T08:52:03.367Z</time>
      </trkpt>
      <trkpt lat="66.2679" lon="20.83125">
        <ele>93.540231</ele>
        <time>2020-09-22T08:52:05.349Z</time>
      </trkpt>
      <trkpt lat="66.2678" lon="20.83133">
        <ele>93.363152</ele>
        <time>2020-09-22T08:52:07.353Z</time>
      </trkpt>
      <trkpt lat="66.26769" lon="20.8314">
        <ele>93.191461</ele>
        <time>2020-09-22T08:52:09.354Z</time>
      </trkpt>
      <trkpt lat="66.26759" lon="20.83147">
        <ele>93.012837</ele>
        <time>2020-09-22T08:52:11.365Z</time>
      </trkpt>
      <trkpt lat="66.26748" lon="20.83155">
        <ele>92.770292</ele>
        <time>2020-09-22T08:52:13.358Z</time>
      </trkpt>
      <trkpt lat="66.26738" lon="20.83163">
        <ele>92.512045</ele>
        <time>2020-09-22T08:52:15.359Z</time>
      </trkpt>
      <trkpt lat="66.26727" lon="20.83171">
        <ele>92.229845</ele>
        <time>2020-09-22T08:52:17.408Z</time>
      </trkpt>
      <trkpt lat="66.26715" lon="20.8318">
        <ele>91.933515</ele>
        <time>2020-09-22T08:52:19.367Z</time>
      </trkpt>
      <trkpt lat="66.26702" lon="20.83189">
        <ele>91.618373</ele>
        <time>2020-09-22T08:52:21.371Z</time>
      </trkpt>
      <trkpt lat="66.2669" lon="20.83198">
        <ele>91.30981</ele>
        <time>2020-09-22T08:52:23.373Z</time>
      </trkpt>
      <trkpt lat="66.26677" lon="20.83207">
        <ele>91.005152</ele>
        <time>2020-09-22T08:52:25.390Z</time>
      </trkpt>
      <trkpt lat="66.26665" lon="20.83216">
        <ele>90.696165</ele>
        <time>2020-09-22T08:52:27.358Z</time>
      </trkpt>
      <trkpt lat="66.26652" lon="20.83224">
        <ele>90.389215</ele>
        <time>2020-09-22T08:52:29.370Z</time>
      </trkpt>
      <trkpt lat="66.2664" lon="20.83233">
        <ele>90.082264</ele>
        <time>2020-09-22T08:52:31.352Z</time>
      </trkpt>
      <trkpt lat="66.26628" lon="20.83242">
        <ele>89.773422</ele>
        <time>2020-09-22T08:52:33.394Z</time>
      </trkpt>
      <trkpt lat="66.26616" lon="20.83252">
        <ele>89.478513</ele>
        <time>2020-09-22T08:52:35.349Z</time>
      </trkpt>
      <trkpt lat="66.26604" lon="20.83261">
        <ele>89.187019</ele>
        <time>2020-09-22T08:52:37.380Z</time>
      </trkpt>
      <trkpt lat="66.26592" lon="20.83268">
        <ele>88.897561</ele>
        <time>2020-09-22T08:52:39.369Z</time>
      </trkpt>
      <trkpt lat="66.26581" lon="20.83277">
        <ele>88.566897</ele>
        <time>2020-09-22T08:52:41.362Z</time>
      </trkpt>
      <trkpt lat="66.2657" lon="20.83287">
        <ele>88.077731</ele>
        <time>2020-09-22T08:52:43.360Z</time>
      </trkpt>
      <trkpt lat="66.26559" lon="20.83297">
        <ele>87.595612</ele>
        <time>2020-09-22T08:52:45.354Z</time>
      </trkpt>
      <trkpt lat="66.26547" lon="20.83307">
        <ele>87.077886</ele>
        <time>2020-09-22T08:52:47.358Z</time>
      </trkpt>
      <trkpt lat="66.26535" lon="20.83316">
        <ele>86.571876</ele>
        <time>2020-09-22T08:52:49.352Z</time>
      </trkpt>
      <trkpt lat="66.26522" lon="20.83326">
        <ele>86.042513</ele>
        <time>2020-09-22T08:52:51.356Z</time>
      </trkpt>
      <trkpt lat="66.2651" lon="20.83335">
        <ele>85.503494</ele>
        <time>2020-09-22T08:52:53.358Z</time>
      </trkpt>
      <trkpt lat="66.26497" lon="20.83345">
        <ele>84.963906</ele>
        <time>2020-09-22T08:52:55.370Z</time>
      </trkpt>
      <trkpt lat="66.26485" lon="20.83356">
        <ele>84.423278</ele>
        <time>2020-09-22T08:52:57.376Z</time>
      </trkpt>
      <trkpt lat="66.26472" lon="20.83368">
        <ele>83.860233</ele>
        <time>2020-09-22T08:52:59.389Z</time>
      </trkpt>
      <trkpt lat="66.26459" lon="20.8338">
        <ele>83.310325</ele>
        <time>2020-09-22T08:53:01.361Z</time>
      </trkpt>
      <trkpt lat="66.26446" lon="20.83391">
        <ele>82.766301</ele>
        <time>2020-09-22T08:53:03.367Z</time>
      </trkpt>
      <trkpt lat="66.26434" lon="20.83404">
        <ele>82.214916</ele>
        <time>2020-09-22T08:53:05.356Z</time>
      </trkpt>
      <trkpt lat="66.26421" lon="20.83415">
        <ele>81.675436</ele>
        <time>2020-09-22T08:53:07.354Z</time>
      </trkpt>
      <trkpt lat="66.26409" lon="20.83426">
        <ele>81.273742</ele>
        <time>2020-09-22T08:53:09.354Z</time>
      </trkpt>
      <trkpt lat="66.26397" lon="20.83437">
        <ele>81.023999</ele>
        <time>2020-09-22T08:53:11.342Z</time>
      </trkpt>
      <trkpt lat="66.26386" lon="20.83449">
        <ele>80.781361</ele>
        <time>2020-09-22T08:53:13.363Z</time>
      </trkpt>
      <trkpt lat="66.26374" lon="20.8346">
        <ele>80.535396</ele>
        <time>2020-09-22T08:53:15.390Z</time>
      </trkpt>
      <trkpt lat="66.26363" lon="20.83472">
        <ele>80.294827</ele>
        <time>2020-09-22T08:53:17.367Z</time>
      </trkpt>
      <trkpt lat="66.26352" lon="20.83484">
        <ele>80.062042</ele>
        <time>2020-09-22T08:53:19.369Z</time>
      </trkpt>
      <trkpt lat="66.26341" lon="20.83496">
        <ele>79.829888</ele>
        <time>2020-09-22T08:53:21.388Z</time>
      </trkpt>
      <trkpt lat="66.2633" lon="20.83508">
        <ele>79.596461</ele>
        <time>2020-09-22T08:53:23.372Z</time>
      </trkpt>
      <trkpt lat="66.26319" lon="20.8352">
        <ele>79.37112</ele>
        <time>2020-09-22T08:53:25.358Z</time>
      </trkpt>
      <trkpt lat="66.26309" lon="20.83532">
        <ele>79.151759</ele>
        <time>2020-09-22T08:53:27.363Z</time>
      </trkpt>
      <trkpt lat="66.26299" lon="20.83542">
        <ele>78.946401</ele>
        <time>2020-09-22T08:53:29.354Z</time>
      </trkpt>
      <trkpt lat="66.2629" lon="20.83552">
        <ele>78.742225</ele>
        <time>2020-09-22T08:53:31.369Z</time>
      </trkpt>
      <trkpt lat="66.2628" lon="20.83562">
        <ele>78.541379</ele>
        <time>2020-09-22T08:53:33.388Z</time>
      </trkpt>
      <trkpt lat="66.26271" lon="20.83574">
        <ele>78.33714</ele>
        <time>2020-09-22T08:53:35.378Z</time>
      </trkpt>
      <trkpt lat="66.26262" lon="20.83585">
        <ele>78.133923</ele>
        <time>2020-09-22T08:53:37.380Z</time>
      </trkpt>
      <trkpt lat="66.26253" lon="20.83596">
        <ele>77.93738</ele>
        <time>2020-09-22T08:53:39.372Z</time>
      </trkpt>
      <trkpt lat="66.26244" lon="20.83606">
        <ele>78.127274</ele>
        <time>2020-09-22T08:53:41.374Z</time>
      </trkpt>
      <trkpt lat="66.26236" lon="20.83617">
        <ele>78.498573</ele>
        <time>2020-09-22T08:53:43.354Z</time>
      </trkpt>
      <trkpt lat="66.26224" lon="20.83631">
        <ele>79.044754</ele>
        <time>2020-09-22T08:53:46.369Z</time>
      </trkpt>
      <trkpt lat="66.26212" lon="20.83645">
        <ele>79.585884</ele>
        <time>2020-09-22T08:53:49.358Z</time>
      </trkpt>
      <trkpt lat="66.26203" lon="20.83654">
        <ele>79.961281</ele>
        <time>2020-09-22T08:53:51.405Z</time>
      </trkpt>
      <trkpt lat="66.26195" lon="20.83664">
        <ele>80.328307</ele>
        <time>2020-09-22T08:53:53.390Z</time>
      </trkpt>
      <trkpt lat="66.26183" lon="20.83678">
        <ele>80.862118</ele>
        <time>2020-09-22T08:53:56.374Z</time>
      </trkpt>
      <trkpt lat="66.26172" lon="20.83692">
        <ele>81.359601</ele>
        <time>2020-09-22T08:53:59.372Z</time>
      </trkpt>
      <trkpt lat="66.26162" lon="20.83704">
        <ele>81.826635</ele>
        <time>2020-09-22T08:54:02.343Z</time>
      </trkpt>
      <trkpt lat="66.26152" lon="20.83719">
        <ele>82.310045</ele>
        <time>2020-09-22T08:54:05.339Z</time>
      </trkpt>
      <trkpt lat="66.26141" lon="20.83732">
        <ele>82.774898</ele>
        <time>2020-09-22T08:54:08.350Z</time>
      </trkpt>
      <trkpt lat="66.26131" lon="20.83744">
        <ele>83.242859</ele>
        <time>2020-09-22T08:54:11.401Z</time>
      </trkpt>
      <trkpt lat="66.26121" lon="20.83756">
        <ele>83.685954</ele>
        <time>2020-09-22T08:54:14.361Z</time>
      </trkpt>
      <trkpt lat="66.26111" lon="20.83768">
        <ele>84.140838</ele>
        <time>2020-09-22T08:54:17.379Z</time>
      </trkpt>
      <trkpt lat="66.26101" lon="20.83779">
        <ele>84.578974</ele>
        <time>2020-09-22T08:54:20.369Z</time>
      </trkpt>
      <trkpt lat="66.26091" lon="20.83792">
        <ele>85.032367</ele>
        <time>2020-09-22T08:54:23.392Z</time>
      </trkpt>
      <trkpt lat="66.26081" lon="20.83806">
        <ele>85.255852</ele>
        <time>2020-09-22T08:54:26.356Z</time>
      </trkpt>
      <trkpt lat="66.26071" lon="20.83819">
        <ele>85.392991</ele>
        <time>2020-09-22T08:54:29.391Z</time>
      </trkpt>
      <trkpt lat="66.26062" lon="20.83831">
        <ele>85.52426</ele>
        <time>2020-09-22T08:54:32.373Z</time>
      </trkpt>
      <trkpt lat="66.26052" lon="20.83848">
        <ele>85.664405</ele>
        <time>2020-09-22T08:54:35.363Z</time>
      </trkpt>
      <trkpt lat="66.26043" lon="20.83862">
        <ele>85.801571</ele>
        <time>2020-09-22T08:54:38.393Z</time>
      </trkpt>
      <trkpt lat="66.26032" lon="20.83877">
        <ele>85.947457</ele>
        <time>2020-09-22T08:54:41.375Z</time>
      </trkpt>
      <trkpt lat="66.26022" lon="20.83893">
        <ele>86.095099</ele>
        <time>2020-09-22T08:54:44.359Z</time>
      </trkpt>
      <trkpt lat="66.26011" lon="20.83908">
        <ele>86.243988</ele>
        <time>2020-09-22T08:54:47.361Z</time>
      </trkpt>
      <trkpt lat="66.26" lon="20.83922">
        <ele>86.390886</ele>
        <time>2020-09-22T08:54:50.358Z</time>
      </trkpt>
      <trkpt lat="66.25989" lon="20.83938">
        <ele>86.543544</ele>
        <time>2020-09-22T08:54:53.361Z</time>
      </trkpt>
      <trkpt lat="66.25978" lon="20.83955">
        <ele>86.705089</ele>
        <time>2020-09-22T08:54:56.358Z</time>
      </trkpt>
      <trkpt lat="66.2597" lon="20.83966">
        <ele>86.814729</ele>
        <time>2020-09-22T08:54:58.361Z</time>
      </trkpt>
      <trkpt lat="66.25963" lon="20.83979">
        <ele>86.924744</ele>
        <time>2020-09-22T08:55:00.393Z</time>
      </trkpt>
      <trkpt lat="66.25954" lon="20.83992">
        <ele>87.042093</ele>
        <time>2020-09-22T08:55:02.374Z</time>
      </trkpt>
      <trkpt lat="66.25946" lon="20.84005">
        <ele>87.157141</ele>
        <time>2020-09-22T08:55:04.369Z</time>
      </trkpt>
      <trkpt lat="66.25938" lon="20.84018">
        <ele>87.271666</ele>
        <time>2020-09-22T08:55:06.355Z</time>
      </trkpt>
      <trkpt lat="66.25931" lon="20.84031">
        <ele>87.304611</ele>
        <time>2020-09-22T08:55:08.389Z</time>
      </trkpt>
      <trkpt lat="66.25923" lon="20.84043">
        <ele>87.237242</ele>
        <time>2020-09-22T08:55:10.381Z</time>
      </trkpt>
      <trkpt lat="66.25915" lon="20.84054">
        <ele>87.167943</ele>
        <time>2020-09-22T08:55:12.369Z</time>
      </trkpt>
      <trkpt lat="66.25906" lon="20.84066">
        <ele>87.099172</ele>
        <time>2020-09-22T08:55:14.366Z</time>
      </trkpt>
      <trkpt lat="66.25898" lon="20.84079">
        <ele>87.027468</ele>
        <time>2020-09-22T08:55:16.398Z</time>
      </trkpt>
      <trkpt lat="66.2589" lon="20.84092">
        <ele>86.954988</ele>
        <time>2020-09-22T08:55:18.360Z</time>
      </trkpt>
      <trkpt lat="66.25882" lon="20.84105">
        <ele>86.886821</ele>
        <time>2020-09-22T08:55:20.361Z</time>
      </trkpt>
      <trkpt lat="66.25874" lon="20.84118">
        <ele>86.819098</ele>
        <time>2020-09-22T08:55:22.365Z</time>
      </trkpt>
      <trkpt lat="66.25866" lon="20.8413">
        <ele>86.749709</ele>
        <time>2020-09-22T08:55:24.385Z</time>
      </trkpt>
      <trkpt lat="66.25858" lon="20.84143">
        <ele>86.677831</ele>
        <time>2020-09-22T08:55:26.356Z</time>
      </trkpt>
      <trkpt lat="66.25849" lon="20.84157">
        <ele>86.603625</ele>
        <time>2020-09-22T08:55:28.376Z</time>
      </trkpt>
      <trkpt lat="66.25841" lon="20.84169">
        <ele>86.532542</ele>
        <time>2020-09-22T08:55:30.356Z</time>
      </trkpt>
      <trkpt lat="66.25833" lon="20.84182">
        <ele>86.464084</ele>
        <time>2020-09-22T08:55:32.351Z</time>
      </trkpt>
      <trkpt lat="66.25824" lon="20.84195">
        <ele>86.390202</ele>
        <time>2020-09-22T08:55:34.352Z</time>
      </trkpt>
      <trkpt lat="66.25816" lon="20.84208">
        <ele>86.318179</ele>
        <time>2020-09-22T08:55:36.348Z</time>
      </trkpt>
      <trkpt lat="66.25808" lon="20.84221">
        <ele>86.246157</ele>
        <time>2020-09-22T08:55:38.350Z</time>
      </trkpt>
      <trkpt lat="66.25799" lon="20.84235">
        <ele>86.173328</ele>
        <time>2020-09-22T08:55:40.363Z</time>
      </trkpt>
      <trkpt lat="66.2579" lon="20.84249">
        <ele>86.095888</ele>
        <time>2020-09-22T08:55:42.356Z</time>
      </trkpt>
      <trkpt lat="66.25781" lon="20.84263">
        <ele>86.029975</ele>
        <time>2020-09-22T08:55:44.356Z</time>
      </trkpt>
      <trkpt lat="66.25772" lon="20.84276">
        <ele>86.211422</ele>
        <time>2020-09-22T08:55:46.404Z</time>
      </trkpt>
      <trkpt lat="66.25764" lon="20.84289">
        <ele>86.386536</ele>
        <time>2020-09-22T08:55:48.392Z</time>
      </trkpt>
      <trkpt lat="66.25755" lon="20.84302">
        <ele>86.564991</ele>
        <time>2020-09-22T08:55:50.377Z</time>
      </trkpt>
      <trkpt lat="66.25746" lon="20.84315">
        <ele>86.740106</ele>
        <time>2020-09-22T08:55:52.359Z</time>
      </trkpt>
      <trkpt lat="66.25737" lon="20.84328">
        <ele>86.918993</ele>
        <time>2020-09-22T08:55:54.361Z</time>
      </trkpt>
      <trkpt lat="66.25729" lon="20.84341">
        <ele>87.09966</ele>
        <time>2020-09-22T08:55:56.364Z</time>
      </trkpt>
      <trkpt lat="66.2572" lon="20.84354">
        <ele>87.275154</ele>
        <time>2020-09-22T08:55:58.354Z</time>
      </trkpt>
      <trkpt lat="66.25711" lon="20.84368">
        <ele>87.452867</ele>
        <time>2020-09-22T08:56:00.361Z</time>
      </trkpt>
      <trkpt lat="66.25703" lon="20.84382">
        <ele>87.628049</ele>
        <time>2020-09-22T08:56:02.361Z</time>
      </trkpt>
      <trkpt lat="66.25695" lon="20.84395">
        <ele>87.798729</ele>
        <time>2020-09-22T08:56:04.363Z</time>
      </trkpt>
      <trkpt lat="66.25686" lon="20.84407">
        <ele>87.967567</ele>
        <time>2020-09-22T08:56:06.372Z</time>
      </trkpt>
      <trkpt lat="66.25678" lon="20.8442">
        <ele>88.137136</ele>
        <time>2020-09-22T08:56:08.349Z</time>
      </trkpt>
      <trkpt lat="66.2567" lon="20.84433">
        <ele>88.306347</ele>
        <time>2020-09-22T08:56:10.349Z</time>
      </trkpt>
      <trkpt lat="66.25662" lon="20.84447">
        <ele>88.481144</ele>
        <time>2020-09-22T08:56:12.381Z</time>
      </trkpt>
      <trkpt lat="66.25653" lon="20.8446">
        <ele>88.657733</ele>
        <time>2020-09-22T08:56:14.352Z</time>
      </trkpt>
      <trkpt lat="66.25644" lon="20.84474">
        <ele>88.841343</ele>
        <time>2020-09-22T08:56:16.409Z</time>
      </trkpt>
      <trkpt lat="66.25636" lon="20.84487">
        <ele>89.012762</ele>
        <time>2020-09-22T08:56:18.352Z</time>
      </trkpt>
      <trkpt lat="66.25627" lon="20.845">
        <ele>89.15243</ele>
        <time>2020-09-22T08:56:20.358Z</time>
      </trkpt>
      <trkpt lat="66.25619" lon="20.84513">
        <ele>89.156697</ele>
        <time>2020-09-22T08:56:22.355Z</time>
      </trkpt>
      <trkpt lat="66.2561" lon="20.84526">
        <ele>89.160981</ele>
        <time>2020-09-22T08:56:24.389Z</time>
      </trkpt>
      <trkpt lat="66.25602" lon="20.84539">
        <ele>89.165175</ele>
        <time>2020-09-22T08:56:26.353Z</time>
      </trkpt>
      <trkpt lat="66.25593" lon="20.84553">
        <ele>89.169695</ele>
        <time>2020-09-22T08:56:28.370Z</time>
      </trkpt>
      <trkpt lat="66.25584" lon="20.84566">
        <ele>89.174178</ele>
        <time>2020-09-22T08:56:30.373Z</time>
      </trkpt>
      <trkpt lat="66.25575" lon="20.84579">
        <ele>89.178436</ele>
        <time>2020-09-22T08:56:32.386Z</time>
      </trkpt>
      <trkpt lat="66.25567" lon="20.84592">
        <ele>89.182666</ele>
        <time>2020-09-22T08:56:34.362Z</time>
      </trkpt>
      <trkpt lat="66.25558" lon="20.84605">
        <ele>89.187005</ele>
        <time>2020-09-22T08:56:36.350Z</time>
      </trkpt>
      <trkpt lat="66.25549" lon="20.8462">
        <ele>89.191409</ele>
        <time>2020-09-22T08:56:38.355Z</time>
      </trkpt>
      <trkpt lat="66.25541" lon="20.84633">
        <ele>89.195657</ele>
        <time>2020-09-22T08:56:40.385Z</time>
      </trkpt>
      <trkpt lat="66.25531" lon="20.84646">
        <ele>89.200295</ele>
        <time>2020-09-22T08:56:42.363Z</time>
      </trkpt>
      <trkpt lat="66.25522" lon="20.8466">
        <ele>89.205036</ele>
        <time>2020-09-22T08:56:44.357Z</time>
      </trkpt>
      <trkpt lat="66.25512" lon="20.84674">
        <ele>89.209809</ele>
        <time>2020-09-22T08:56:46.391Z</time>
      </trkpt>
      <trkpt lat="66.25503" lon="20.84688">
        <ele>89.214319</ele>
        <time>2020-09-22T08:56:48.380Z</time>
      </trkpt>
      <trkpt lat="66.25495" lon="20.84703">
        <ele>89.218733</ele>
        <time>2020-09-22T08:56:50.381Z</time>
      </trkpt>
      <trkpt lat="66.25486" lon="20.84716">
        <ele>89.223126</ele>
        <time>2020-09-22T08:56:52.353Z</time>
      </trkpt>
      <trkpt lat="66.25477" lon="20.84729">
        <ele>89.227311</ele>
        <time>2020-09-22T08:56:54.395Z</time>
      </trkpt>
      <trkpt lat="66.25469" lon="20.84742">
        <ele>89.051126</ele>
        <time>2020-09-22T08:56:56.365Z</time>
      </trkpt>
      <trkpt lat="66.25461" lon="20.84755">
        <ele>88.836035</ele>
        <time>2020-09-22T08:56:58.360Z</time>
      </trkpt>
      <trkpt lat="66.25453" lon="20.84769">
        <ele>88.619578</ele>
        <time>2020-09-22T08:57:00.379Z</time>
      </trkpt>
      <trkpt lat="66.25444" lon="20.84782">
        <ele>88.395131</ele>
        <time>2020-09-22T08:57:02.369Z</time>
      </trkpt>
      <trkpt lat="66.25435" lon="20.84793">
        <ele>88.175552</ele>
        <time>2020-09-22T08:57:04.361Z</time>
      </trkpt>
      <trkpt lat="66.25427" lon="20.84807">
        <ele>87.951609</ele>
        <time>2020-09-22T08:57:06.377Z</time>
      </trkpt>
      <trkpt lat="66.25418" lon="20.84819">
        <ele>87.736592</ele>
        <time>2020-09-22T08:57:08.402Z</time>
      </trkpt>
      <trkpt lat="66.2541" lon="20.84832">
        <ele>87.521579</ele>
        <time>2020-09-22T08:57:10.361Z</time>
      </trkpt>
      <trkpt lat="66.25402" lon="20.84845">
        <ele>87.305162</ele>
        <time>2020-09-22T08:57:12.363Z</time>
      </trkpt>
      <trkpt lat="66.25394" lon="20.84857">
        <ele>87.096743</ele>
        <time>2020-09-22T08:57:14.373Z</time>
      </trkpt>
      <trkpt lat="66.25386" lon="20.84869">
        <ele>86.889258</ele>
        <time>2020-09-22T08:57:16.380Z</time>
      </trkpt>
      <trkpt lat="66.25377" lon="20.84882">
        <ele>86.669985</ele>
        <time>2020-09-22T08:57:18.385Z</time>
      </trkpt>
      <trkpt lat="66.25369" lon="20.84894">
        <ele>86.452071</ele>
        <time>2020-09-22T08:57:20.345Z</time>
      </trkpt>
      <trkpt lat="66.2536" lon="20.84908">
        <ele>86.217271</ele>
        <time>2020-09-22T08:57:22.357Z</time>
      </trkpt>
      <trkpt lat="66.25351" lon="20.84922">
        <ele>85.983907</ele>
        <time>2020-09-22T08:57:24.374Z</time>
      </trkpt>
      <trkpt lat="66.25342" lon="20.84934">
        <ele>85.761816</ele>
        <time>2020-09-22T08:57:26.369Z</time>
      </trkpt>
      <trkpt lat="66.25333" lon="20.84947">
        <ele>85.53455</ele>
        <time>2020-09-22T08:57:28.364Z</time>
      </trkpt>
      <trkpt lat="66.25325" lon="20.84959">
        <ele>85.320776</ele>
        <time>2020-09-22T08:57:30.395Z</time>
      </trkpt>
      <trkpt lat="66.25317" lon="20.84971">
        <ele>85.252655</ele>
        <time>2020-09-22T08:57:32.395Z</time>
      </trkpt>
      <trkpt lat="66.25306" lon="20.84987">
        <ele>85.270593</ele>
        <time>2020-09-22T08:57:35.370Z</time>
      </trkpt>
      <trkpt lat="66.25294" lon="20.85004">
        <ele>85.289347</ele>
        <time>2020-09-22T08:57:38.345Z</time>
      </trkpt>
      <trkpt lat="66.25286" lon="20.85016">
        <ele>85.302938</ele>
        <time>2020-09-22T08:57:40.354Z</time>
      </trkpt>
      <trkpt lat="66.25275" lon="20.85034">
        <ele>85.321685</ele>
        <time>2020-09-22T08:57:43.356Z</time>
      </trkpt>
      <trkpt lat="66.25267" lon="20.85046">
        <ele>85.335062</ele>
        <time>2020-09-22T08:57:45.359Z</time>
      </trkpt>
      <trkpt lat="66.25259" lon="20.85058">
        <ele>85.34841</ele>
        <time>2020-09-22T08:57:47.343Z</time>
      </trkpt>
      <trkpt lat="66.25251" lon="20.85071">
        <ele>85.361997</ele>
        <time>2020-09-22T08:57:49.349Z</time>
      </trkpt>
      <trkpt lat="66.25243" lon="20.85084">
        <ele>85.375274</ele>
        <time>2020-09-22T08:57:51.400Z</time>
      </trkpt>
      <trkpt lat="66.25235" lon="20.85098">
        <ele>85.388848</ele>
        <time>2020-09-22T08:57:53.363Z</time>
      </trkpt>
      <trkpt lat="66.25224" lon="20.85114">
        <ele>85.407145</ele>
        <time>2020-09-22T08:57:56.432Z</time>
      </trkpt>
      <trkpt lat="66.25213" lon="20.85131">
        <ele>85.424933</ele>
        <time>2020-09-22T08:57:59.362Z</time>
      </trkpt>
      <trkpt lat="66.25203" lon="20.85147">
        <ele>85.441644</ele>
        <time>2020-09-22T08:58:02.345Z</time>
      </trkpt>
      <trkpt lat="66.25192" lon="20.85163">
        <ele>85.459381</ele>
        <time>2020-09-22T08:58:05.367Z</time>
      </trkpt>
      <trkpt lat="66.25182" lon="20.8518">
        <ele>85.476932</ele>
        <time>2020-09-22T08:58:08.415Z</time>
      </trkpt>
      <trkpt lat="66.25172" lon="20.85195">
        <ele>85.493972</ele>
        <time>2020-09-22T08:58:11.357Z</time>
      </trkpt>
      <trkpt lat="66.25161" lon="20.85209">
        <ele>85.604867</ele>
        <time>2020-09-22T08:58:14.369Z</time>
      </trkpt>
      <trkpt lat="66.25149" lon="20.85226">
        <ele>85.755963</ele>
        <time>2020-09-22T08:58:17.344Z</time>
      </trkpt>
      <trkpt lat="66.25141" lon="20.85237">
        <ele>85.863762</ele>
        <time>2020-09-22T08:58:19.354Z</time>
      </trkpt>
      <trkpt lat="66.25133" lon="20.85249">
        <ele>85.968832</ele>
        <time>2020-09-22T08:58:21.379Z</time>
      </trkpt>
      <trkpt lat="66.25125" lon="20.8526">
        <ele>86.071253</ele>
        <time>2020-09-22T08:58:23.362Z</time>
      </trkpt>
      <trkpt lat="66.25117" lon="20.85271">
        <ele>86.175892</ele>
        <time>2020-09-22T08:58:25.348Z</time>
      </trkpt>
      <trkpt lat="66.25109" lon="20.85282">
        <ele>86.284683</ele>
        <time>2020-09-22T08:58:27.353Z</time>
      </trkpt>
      <trkpt lat="66.251" lon="20.85293">
        <ele>86.390057</ele>
        <time>2020-09-22T08:58:29.345Z</time>
      </trkpt>
      <trkpt lat="66.25092" lon="20.85304">
        <ele>86.497131</ele>
        <time>2020-09-22T08:58:31.382Z</time>
      </trkpt>
      <trkpt lat="66.25084" lon="20.85315">
        <ele>86.600847</ele>
        <time>2020-09-22T08:58:33.371Z</time>
      </trkpt>
      <trkpt lat="66.25076" lon="20.85326">
        <ele>86.702909</ele>
        <time>2020-09-22T08:58:35.372Z</time>
      </trkpt>
      <trkpt lat="66.25068" lon="20.85336">
        <ele>86.805325</ele>
        <time>2020-09-22T08:58:37.485Z</time>
      </trkpt>
      <trkpt lat="66.25059" lon="20.85346">
        <ele>86.914057</ele>
        <time>2020-09-22T08:58:39.352Z</time>
      </trkpt>
      <trkpt lat="66.25051" lon="20.85356">
        <ele>87.023176</ele>
        <time>2020-09-22T08:58:41.354Z</time>
      </trkpt>
      <trkpt lat="66.25043" lon="20.85368">
        <ele>87.129319</ele>
        <time>2020-09-22T08:58:43.369Z</time>
      </trkpt>
      <trkpt lat="66.25034" lon="20.85379">
        <ele>87.235906</ele>
        <time>2020-09-22T08:58:45.379Z</time>
      </trkpt>
      <trkpt lat="66.25026" lon="20.8539">
        <ele>87.345259</ele>
        <time>2020-09-22T08:58:47.352Z</time>
      </trkpt>
      <trkpt lat="66.25017" lon="20.85401">
        <ele>87.451311</ele>
        <time>2020-09-22T08:58:49.387Z</time>
      </trkpt>
      <trkpt lat="66.25009" lon="20.85411">
        <ele>87.521915</ele>
        <time>2020-09-22T08:58:51.356Z</time>
      </trkpt>
      <trkpt lat="66.25001" lon="20.85422">
        <ele>87.435698</ele>
        <time>2020-09-22T08:58:53.381Z</time>
      </trkpt>
      <trkpt lat="66.24992" lon="20.85432">
        <ele>87.350147</ele>
        <time>2020-09-22T08:58:55.381Z</time>
      </trkpt>
      <trkpt lat="66.24984" lon="20.85442">
        <ele>87.263279</ele>
        <time>2020-09-22T08:58:57.360Z</time>
      </trkpt>
      <trkpt lat="66.24975" lon="20.85453">
        <ele>87.17723</ele>
        <time>2020-09-22T08:58:59.360Z</time>
      </trkpt>
      <trkpt lat="66.24967" lon="20.85465">
        <ele>87.092003</ele>
        <time>2020-09-22T08:59:01.382Z</time>
      </trkpt>
      <trkpt lat="66.24959" lon="20.85477">
        <ele>87.008552</ele>
        <time>2020-09-22T08:59:03.386Z</time>
      </trkpt>
      <trkpt lat="66.24951" lon="20.85488">
        <ele>86.922098</ele>
        <time>2020-09-22T08:59:05.389Z</time>
      </trkpt>
      <trkpt lat="66.24942" lon="20.85499">
        <ele>86.83311</ele>
        <time>2020-09-22T08:59:07.392Z</time>
      </trkpt>
      <trkpt lat="66.24934" lon="20.8551">
        <ele>86.74379</ele>
        <time>2020-09-22T08:59:09.352Z</time>
      </trkpt>
      <trkpt lat="66.24925" lon="20.85523">
        <ele>86.652211</ele>
        <time>2020-09-22T08:59:11.376Z</time>
      </trkpt>
      <trkpt lat="66.24917" lon="20.85533">
        <ele>86.567639</ele>
        <time>2020-09-22T08:59:13.354Z</time>
      </trkpt>
      <trkpt lat="66.24909" lon="20.85544">
        <ele>86.484045</ele>
        <time>2020-09-22T08:59:15.388Z</time>
      </trkpt>
      <trkpt lat="66.249" lon="20.85554">
        <ele>86.398974</ele>
        <time>2020-09-22T08:59:17.363Z</time>
      </trkpt>
      <trkpt lat="66.24892" lon="20.85565">
        <ele>86.311609</ele>
        <time>2020-09-22T08:59:19.360Z</time>
      </trkpt>
      <trkpt lat="66.24883" lon="20.85576">
        <ele>86.222461</ele>
        <time>2020-09-22T08:59:21.367Z</time>
      </trkpt>
      <trkpt lat="66.24874" lon="20.85587">
        <ele>86.133948</ele>
        <time>2020-09-22T08:59:23.388Z</time>
      </trkpt>
      <trkpt lat="66.24866" lon="20.85599">
        <ele>86.046162</ele>
        <time>2020-09-22T08:59:25.359Z</time>
      </trkpt>
      <trkpt lat="66.24858" lon="20.8561">
        <ele>85.961298</ele>
        <time>2020-09-22T08:59:27.363Z</time>
      </trkpt>
      <trkpt lat="66.24849" lon="20.85621">
        <ele>85.902263</ele>
        <time>2020-09-22T08:59:29.369Z</time>
      </trkpt>
      <trkpt lat="66.24841" lon="20.85633">
        <ele>85.913775</ele>
        <time>2020-09-22T08:59:31.353Z</time>
      </trkpt>
      <trkpt lat="66.24832" lon="20.85643">
        <ele>85.925026</ele>
        <time>2020-09-22T08:59:33.356Z</time>
      </trkpt>
      <trkpt lat="66.24823" lon="20.85654">
        <ele>85.936706</ele>
        <time>2020-09-22T08:59:35.355Z</time>
      </trkpt>
      <trkpt lat="66.24815" lon="20.85664">
        <ele>85.948299</ele>
        <time>2020-09-22T08:59:37.368Z</time>
      </trkpt>
      <trkpt lat="66.24805" lon="20.85675">
        <ele>85.960412</ele>
        <time>2020-09-22T08:59:39.388Z</time>
      </trkpt>
      <trkpt lat="66.24796" lon="20.85686">
        <ele>85.973056</ele>
        <time>2020-09-22T08:59:41.371Z</time>
      </trkpt>
      <trkpt lat="66.24787" lon="20.85698">
        <ele>85.98525</ele>
        <time>2020-09-22T08:59:43.363Z</time>
      </trkpt>
      <trkpt lat="66.24779" lon="20.85708">
        <ele>85.996222</ele>
        <time>2020-09-22T08:59:45.357Z</time>
      </trkpt>
      <trkpt lat="66.24766" lon="20.85723">
        <ele>86.012573</ele>
        <time>2020-09-22T08:59:48.382Z</time>
      </trkpt>
      <trkpt lat="66.24758" lon="20.85735">
        <ele>86.023712</ele>
        <time>2020-09-22T08:59:50.349Z</time>
      </trkpt>
      <trkpt lat="66.24747" lon="20.85751">
        <ele>86.039402</ele>
        <time>2020-09-22T08:59:53.364Z</time>
      </trkpt>
      <trkpt lat="66.24738" lon="20.85762">
        <ele>86.050982</ele>
        <time>2020-09-22T08:59:55.372Z</time>
      </trkpt>
      <trkpt lat="66.2473" lon="20.85773">
        <ele>86.062427</ele>
        <time>2020-09-22T08:59:57.352Z</time>
      </trkpt>
      <trkpt lat="66.24722" lon="20.85784">
        <ele>86.073426</ele>
        <time>2020-09-22T08:59:59.372Z</time>
      </trkpt>
      <trkpt lat="66.24714" lon="20.85795">
        <ele>86.084461</ele>
        <time>2020-09-22T09:00:01.376Z</time>
      </trkpt>
      <trkpt lat="66.24706" lon="20.85806">
        <ele>86.09537</ele>
        <time>2020-09-22T09:00:03.370Z</time>
      </trkpt>
      <trkpt lat="66.24697" lon="20.85816">
        <ele>86.106492</ele>
        <time>2020-09-22T09:00:05.356Z</time>
      </trkpt>
      <trkpt lat="66.24686" lon="20.85831">
        <ele>86.087459</ele>
        <time>2020-09-22T09:00:08.399Z</time>
      </trkpt>
      <trkpt lat="66.24678" lon="20.85842">
        <ele>86.053879</ele>
        <time>2020-09-22T09:00:10.372Z</time>
      </trkpt>
      <trkpt lat="66.2467" lon="20.85852">
        <ele>86.020387</ele>
        <time>2020-09-22T09:00:12.349Z</time>
      </trkpt>
      <trkpt lat="66.24658" lon="20.85867">
        <ele>85.971038</ele>
        <time>2020-09-22T09:00:15.354Z</time>
      </trkpt>
      <trkpt lat="66.24646" lon="20.85882">
        <ele>85.921293</ele>
        <time>2020-09-22T09:00:18.381Z</time>
      </trkpt>
      <trkpt lat="66.24637" lon="20.85893">
        <ele>85.886874</ele>
        <time>2020-09-22T09:00:20.352Z</time>
      </trkpt>
      <trkpt lat="66.24629" lon="20.85903">
        <ele>85.852986</ele>
        <time>2020-09-22T09:00:22.414Z</time>
      </trkpt>
      <trkpt lat="66.24621" lon="20.85915">
        <ele>85.816752</ele>
        <time>2020-09-22T09:00:24.350Z</time>
      </trkpt>
      <trkpt lat="66.24612" lon="20.85927">
        <ele>85.781258</ele>
        <time>2020-09-22T09:00:26.362Z</time>
      </trkpt>
      <trkpt lat="66.24603" lon="20.85938">
        <ele>85.744993</ele>
        <time>2020-09-22T09:00:28.358Z</time>
      </trkpt>
      <trkpt lat="66.24594" lon="20.85948">
        <ele>85.708077</ele>
        <time>2020-09-22T09:00:30.360Z</time>
      </trkpt>
      <trkpt lat="66.24586" lon="20.85958">
        <ele>85.673788</ele>
        <time>2020-09-22T09:00:32.338Z</time>
      </trkpt>
      <trkpt lat="66.24578" lon="20.85969">
        <ele>85.639163</ele>
        <time>2020-09-22T09:00:34.367Z</time>
      </trkpt>
      <trkpt lat="66.24569" lon="20.8598">
        <ele>85.602567</ele>
        <time>2020-09-22T09:00:36.374Z</time>
      </trkpt>
      <trkpt lat="66.2456" lon="20.85991">
        <ele>85.566168</ele>
        <time>2020-09-22T09:00:38.400Z</time>
      </trkpt>
      <trkpt lat="66.24551" lon="20.86002">
        <ele>85.530425</ele>
        <time>2020-09-22T09:00:40.367Z</time>
      </trkpt>
      <trkpt lat="66.24543" lon="20.86013">
        <ele>85.495542</ele>
        <time>2020-09-22T09:00:42.374Z</time>
      </trkpt>
      <trkpt lat="66.24534" lon="20.86024">
        <ele>85.458284</ele>
        <time>2020-09-22T09:00:44.357Z</time>
      </trkpt>
      <trkpt lat="66.24525" lon="20.86034">
        <ele>85.212796</ele>
        <time>2020-09-22T09:00:46.352Z</time>
      </trkpt>
      <trkpt lat="66.24515" lon="20.86043">
        <ele>84.902711</ele>
        <time>2020-09-22T09:00:48.355Z</time>
      </trkpt>
      <trkpt lat="66.24507" lon="20.86053">
        <ele>84.603345</ele>
        <time>2020-09-22T09:00:50.383Z</time>
      </trkpt>
      <trkpt lat="66.24498" lon="20.86064">
        <ele>84.316247</ele>
        <time>2020-09-22T09:00:52.358Z</time>
      </trkpt>
      <trkpt lat="66.24486" lon="20.86078">
        <ele>83.911106</ele>
        <time>2020-09-22T09:00:55.366Z</time>
      </trkpt>
      <trkpt lat="66.24475" lon="20.86091">
        <ele>83.537773</ele>
        <time>2020-09-22T09:00:58.375Z</time>
      </trkpt>
      <trkpt lat="66.24465" lon="20.86104">
        <ele>83.172174</ele>
        <time>2020-09-22T09:01:01.355Z</time>
      </trkpt>
      <trkpt lat="66.24453" lon="20.86116">
        <ele>82.783771</ele>
        <time>2020-09-22T09:01:04.369Z</time>
      </trkpt>
      <trkpt lat="66.24441" lon="20.86129">
        <ele>82.37925</ele>
        <time>2020-09-22T09:01:07.356Z</time>
      </trkpt>
      <trkpt lat="66.24432" lon="20.86138">
        <ele>82.082377</ele>
        <time>2020-09-22T09:01:09.348Z</time>
      </trkpt>
      <trkpt lat="66.24423" lon="20.86147">
        <ele>81.789771</ele>
        <time>2020-09-22T09:01:11.369Z</time>
      </trkpt>
      <trkpt lat="66.24415" lon="20.86155">
        <ele>81.514067</ele>
        <time>2020-09-22T09:01:13.349Z</time>
      </trkpt>
      <trkpt lat="66.24406" lon="20.86164">
        <ele>81.226028</ele>
        <time>2020-09-22T09:01:15.367Z</time>
      </trkpt>
      <trkpt lat="66.24397" lon="20.86172">
        <ele>80.936666</ele>
        <time>2020-09-22T09:01:17.353Z</time>
      </trkpt>
      <trkpt lat="66.24388" lon="20.8618">
        <ele>80.646605</ele>
        <time>2020-09-22T09:01:19.380Z</time>
      </trkpt>
      <trkpt lat="66.24379" lon="20.86187">
        <ele>80.356841</ele>
        <time>2020-09-22T09:01:21.353Z</time>
      </trkpt>
      <trkpt lat="66.2437" lon="20.86195">
        <ele>80.05465</ele>
        <time>2020-09-22T09:01:23.356Z</time>
      </trkpt>
      <trkpt lat="66.24357" lon="20.86205">
        <ele>80.156198</ele>
        <time>2020-09-22T09:01:26.354Z</time>
      </trkpt>
      <trkpt lat="66.24348" lon="20.86212">
        <ele>80.368255</ele>
        <time>2020-09-22T09:01:28.380Z</time>
      </trkpt>
      <trkpt lat="66.24338" lon="20.86218">
        <ele>80.57798</ele>
        <time>2020-09-22T09:01:30.375Z</time>
      </trkpt>
      <trkpt lat="66.2433" lon="20.86225">
        <ele>80.779964</ele>
        <time>2020-09-22T09:01:32.405Z</time>
      </trkpt>
      <trkpt lat="66.24321" lon="20.86231">
        <ele>80.984</ele>
        <time>2020-09-22T09:01:34.371Z</time>
      </trkpt>
      <trkpt lat="66.24312" lon="20.86235">
        <ele>81.192097</ele>
        <time>2020-09-22T09:01:36.358Z</time>
      </trkpt>
      <trkpt lat="66.24303" lon="20.86239">
        <ele>81.396865</ele>
        <time>2020-09-22T09:01:38.352Z</time>
      </trkpt>
      <trkpt lat="66.24293" lon="20.86244">
        <ele>81.60514</ele>
        <time>2020-09-22T09:01:40.376Z</time>
      </trkpt>
      <trkpt lat="66.24284" lon="20.8625">
        <ele>81.817339</ele>
        <time>2020-09-22T09:01:42.355Z</time>
      </trkpt>
      <trkpt lat="66.24275" lon="20.86255">
        <ele>82.023746</ele>
        <time>2020-09-22T09:01:44.363Z</time>
      </trkpt>
      <trkpt lat="66.24266" lon="20.86261">
        <ele>82.224329</ele>
        <time>2020-09-22T09:01:46.369Z</time>
      </trkpt>
      <trkpt lat="66.24257" lon="20.86264">
        <ele>82.439888</ele>
        <time>2020-09-22T09:01:48.357Z</time>
      </trkpt>
      <trkpt lat="66.24243" lon="20.86271">
        <ele>82.740993</ele>
        <time>2020-09-22T09:01:51.362Z</time>
      </trkpt>
      <trkpt lat="66.24234" lon="20.86278">
        <ele>82.959033</ele>
        <time>2020-09-22T09:01:53.377Z</time>
      </trkpt>
      <trkpt lat="66.24225" lon="20.86281">
        <ele>83.163089</ele>
        <time>2020-09-22T09:01:55.371Z</time>
      </trkpt>
      <trkpt lat="66.24216" lon="20.86285">
        <ele>83.361964</ele>
        <time>2020-09-22T09:01:57.364Z</time>
      </trkpt>
      <trkpt lat="66.24207" lon="20.8629">
        <ele>83.563917</ele>
        <time>2020-09-22T09:01:59.361Z</time>
      </trkpt>
      <trkpt lat="66.24198" lon="20.86295">
        <ele>83.763896</ele>
        <time>2020-09-22T09:02:01.340Z</time>
      </trkpt>
      <trkpt lat="66.24185" lon="20.86303">
        <ele>83.95968</ele>
        <time>2020-09-22T09:02:04.371Z</time>
      </trkpt>
      <trkpt lat="66.24176" lon="20.86308">
        <ele>84.009856</ele>
        <time>2020-09-22T09:02:06.379Z</time>
      </trkpt>
      <trkpt lat="66.24167" lon="20.86312">
        <ele>84.061019</ele>
        <time>2020-09-22T09:02:08.366Z</time>
      </trkpt>
      <trkpt lat="66.24158" lon="20.86314">
        <ele>84.110273</ele>
        <time>2020-09-22T09:02:10.355Z</time>
      </trkpt>
      <trkpt lat="66.24149" lon="20.86318">
        <ele>84.160972</ele>
        <time>2020-09-22T09:02:12.376Z</time>
      </trkpt>
      <trkpt lat="66.2414" lon="20.86322">
        <ele>84.210882</ele>
        <time>2020-09-22T09:02:14.363Z</time>
      </trkpt>
      <trkpt lat="66.24131" lon="20.86325">
        <ele>84.26107</ele>
        <time>2020-09-22T09:02:16.353Z</time>
      </trkpt>
      <trkpt lat="66.24119" lon="20.86332">
        <ele>84.3326</ele>
        <time>2020-09-22T09:02:19.362Z</time>
      </trkpt>
      <trkpt lat="66.2411" lon="20.86335">
        <ele>84.383204</ele>
        <time>2020-09-22T09:02:21.375Z</time>
      </trkpt>
      <trkpt lat="66.24096" lon="20.86339">
        <ele>84.456389</ele>
        <time>2020-09-22T09:02:24.397Z</time>
      </trkpt>
      <trkpt lat="66.24083" lon="20.86343">
        <ele>84.529077</ele>
        <time>2020-09-22T09:02:27.357Z</time>
      </trkpt>
      <trkpt lat="66.24074" lon="20.86344">
        <ele>84.5787</ele>
        <time>2020-09-22T09:02:29.363Z</time>
      </trkpt>
      <trkpt lat="66.24065" lon="20.86345">
        <ele>84.630075</ele>
        <time>2020-09-22T09:02:31.385Z</time>
      </trkpt>
      <trkpt lat="66.24056" lon="20.86346">
        <ele>84.681319</ele>
        <time>2020-09-22T09:02:33.359Z</time>
      </trkpt>
      <trkpt lat="66.24047" lon="20.86346">
        <ele>84.732027</ele>
        <time>2020-09-22T09:02:35.353Z</time>
      </trkpt>
      <trkpt lat="66.24037" lon="20.86347">
        <ele>84.783853</ele>
        <time>2020-09-22T09:02:37.349Z</time>
      </trkpt>
      <trkpt lat="66.24028" lon="20.86348">
        <ele>84.835697</ele>
        <time>2020-09-22T09:02:39.376Z</time>
      </trkpt>
      <trkpt lat="66.24015" lon="20.86351">
        <ele>84.908568</ele>
        <time>2020-09-22T09:02:42.376Z</time>
      </trkpt>
      <trkpt lat="66.24001" lon="20.86351">
        <ele>85.047309</ele>
        <time>2020-09-22T09:02:45.407Z</time>
      </trkpt>
      <trkpt lat="66.23988" lon="20.86352">
        <ele>85.191305</ele>
        <time>2020-09-22T09:02:48.368Z</time>
      </trkpt>
      <trkpt lat="66.23975" lon="20.86351">
        <ele>85.33651</ele>
        <time>2020-09-22T09:02:51.366Z</time>
      </trkpt>
      <trkpt lat="66.23966" lon="20.86351">
        <ele>85.436977</ele>
        <time>2020-09-22T09:02:53.349Z</time>
      </trkpt>
      <trkpt lat="66.23957" lon="20.86352">
        <ele>85.540742</ele>
        <time>2020-09-22T09:02:55.375Z</time>
      </trkpt>
      <trkpt lat="66.23948" lon="20.86352">
        <ele>85.643381</ele>
        <time>2020-09-22T09:02:57.350Z</time>
      </trkpt>
      <trkpt lat="66.23939" lon="20.86353">
        <ele>85.747178</ele>
        <time>2020-09-22T09:02:59.371Z</time>
      </trkpt>
      <trkpt lat="66.23925" lon="20.86354">
        <ele>85.896749</ele>
        <time>2020-09-22T09:03:02.360Z</time>
      </trkpt>
      <trkpt lat="66.23912" lon="20.86354">
        <ele>86.04848</ele>
        <time>2020-09-22T09:03:05.389Z</time>
      </trkpt>
      <trkpt lat="66.23903" lon="20.86355">
        <ele>86.148892</ele>
        <time>2020-09-22T09:03:07.361Z</time>
      </trkpt>
      <trkpt lat="66.23893" lon="20.86356">
        <ele>86.251624</ele>
        <time>2020-09-22T09:03:09.372Z</time>
      </trkpt>
      <trkpt lat="66.23884" lon="20.86357">
        <ele>86.352353</ele>
        <time>2020-09-22T09:03:11.401Z</time>
      </trkpt>
      <trkpt lat="66.23871" lon="20.86358">
        <ele>86.497414</ele>
        <time>2020-09-22T09:03:14.359Z</time>
      </trkpt>
      <trkpt lat="66.23859" lon="20.86359">
        <ele>86.635783</ele>
        <time>2020-09-22T09:03:17.379Z</time>
      </trkpt>
      <trkpt lat="66.23846" lon="20.8636">
        <ele>86.776488</ele>
        <time>2020-09-22T09:03:20.357Z</time>
      </trkpt>
      <trkpt lat="66.23834" lon="20.86361">
        <ele>86.91711</ele>
        <time>2020-09-22T09:03:23.377Z</time>
      </trkpt>
      <trkpt lat="66.23821" lon="20.86362">
        <ele>87.266019</ele>
        <time>2020-09-22T09:03:26.366Z</time>
      </trkpt>
      <trkpt lat="66.2381" lon="20.86362">
        <ele>87.586291</ele>
        <time>2020-09-22T09:03:29.364Z</time>
      </trkpt>
      <trkpt lat="66.23798" lon="20.86364">
        <ele>87.918793</ele>
        <time>2020-09-22T09:03:32.383Z</time>
      </trkpt>
      <trkpt lat="66.23787" lon="20.86366">
        <ele>88.236668</ele>
        <time>2020-09-22T09:03:35.381Z</time>
      </trkpt>
      <trkpt lat="66.23776" lon="20.86367">
        <ele>88.548611</ele>
        <time>2020-09-22T09:03:38.352Z</time>
      </trkpt>
      <trkpt lat="66.23766" lon="20.86369">
        <ele>88.855825</ele>
        <time>2020-09-22T09:03:41.364Z</time>
      </trkpt>
      <trkpt lat="66.23755" lon="20.8637">
        <ele>89.173483</ele>
        <time>2020-09-22T09:03:44.409Z</time>
      </trkpt>
      <trkpt lat="66.23744" lon="20.86372">
        <ele>89.485858</ele>
        <time>2020-09-22T09:03:47.361Z</time>
      </trkpt>
      <trkpt lat="66.23732" lon="20.86375">
        <ele>89.819478</ele>
        <time>2020-09-22T09:03:50.377Z</time>
      </trkpt>
      <trkpt lat="66.23721" lon="20.86378">
        <ele>90.150133</ele>
        <time>2020-09-22T09:03:53.396Z</time>
      </trkpt>
      <trkpt lat="66.2371" lon="20.8638">
        <ele>90.459817</ele>
        <time>2020-09-22T09:03:56.361Z</time>
      </trkpt>
      <trkpt lat="66.23699" lon="20.86383">
        <ele>90.778527</ele>
        <time>2020-09-22T09:03:59.416Z</time>
      </trkpt>
      <trkpt lat="66.23686" lon="20.86388">
        <ele>91.133096</ele>
        <time>2020-09-22T09:04:02.371Z</time>
      </trkpt>
      <trkpt lat="66.23675" lon="20.86394">
        <ele>91.46454</ele>
        <time>2020-09-22T09:04:05.390Z</time>
      </trkpt>
      <trkpt lat="66.23664" lon="20.86399">
        <ele>91.796408</ele>
        <time>2020-09-22T09:04:08.374Z</time>
      </trkpt>
      <trkpt lat="66.23652" lon="20.86406">
        <ele>92.019623</ele>
        <time>2020-09-22T09:04:11.366Z</time>
      </trkpt>
      <trkpt lat="66.23641" lon="20.86412">
        <ele>91.796433</ele>
        <time>2020-09-22T09:04:14.363Z</time>
      </trkpt>
      <trkpt lat="66.23629" lon="20.86419">
        <ele>91.549354</ele>
        <time>2020-09-22T09:04:17.362Z</time>
      </trkpt>
      <trkpt lat="66.23617" lon="20.86427">
        <ele>91.31818</ele>
        <time>2020-09-22T09:04:20.368Z</time>
      </trkpt>
      <trkpt lat="66.23605" lon="20.86435">
        <ele>91.082456</ele>
        <time>2020-09-22T09:04:23.354Z</time>
      </trkpt>
      <trkpt lat="66.23594" lon="20.86444">
        <ele>90.839078</ele>
        <time>2020-09-22T09:04:26.360Z</time>
      </trkpt>
      <trkpt lat="66.23583" lon="20.86452">
        <ele>90.622181</ele>
        <time>2020-09-22T09:04:29.360Z</time>
      </trkpt>
      <trkpt lat="66.23571" lon="20.8646">
        <ele>90.389748</ele>
        <time>2020-09-22T09:04:32.359Z</time>
      </trkpt>
      <trkpt lat="66.2356" lon="20.86471">
        <ele>90.142571</ele>
        <time>2020-09-22T09:04:35.357Z</time>
      </trkpt>
      <trkpt lat="66.23551" lon="20.86479">
        <ele>89.965509</ele>
        <time>2020-09-22T09:04:37.358Z</time>
      </trkpt>
      <trkpt lat="66.23542" lon="20.86488">
        <ele>89.781939</ele>
        <time>2020-09-22T09:04:39.363Z</time>
      </trkpt>
      <trkpt lat="66.23534" lon="20.86496">
        <ele>89.606781</ele>
        <time>2020-09-22T09:04:41.364Z</time>
      </trkpt>
      <trkpt lat="66.23525" lon="20.86505">
        <ele>89.418077</ele>
        <time>2020-09-22T09:04:43.354Z</time>
      </trkpt>
      <trkpt lat="66.23517" lon="20.86513">
        <ele>89.240174</ele>
        <time>2020-09-22T09:04:45.362Z</time>
      </trkpt>
      <trkpt lat="66.23508" lon="20.86522">
        <ele>89.0545</ele>
        <time>2020-09-22T09:04:47.352Z</time>
      </trkpt>
      <trkpt lat="66.23499" lon="20.86532">
        <ele>88.867293</ele>
        <time>2020-09-22T09:04:49.353Z</time>
      </trkpt>
      <trkpt lat="66.2349" lon="20.86541">
        <ele>88.681318</ele>
        <time>2020-09-22T09:04:51.383Z</time>
      </trkpt>
      <trkpt lat="66.23481" lon="20.86551">
        <ele>88.481576</ele>
        <time>2020-09-22T09:04:53.364Z</time>
      </trkpt>
      <trkpt lat="66.23472" lon="20.8656">
        <ele>88.283224</ele>
        <time>2020-09-22T09:04:55.381Z</time>
      </trkpt>
      <trkpt lat="66.23464" lon="20.86571">
        <ele>88.083562</ele>
        <time>2020-09-22T09:04:57.367Z</time>
      </trkpt>
      <trkpt lat="66.23455" lon="20.86583">
        <ele>87.870455</ele>
        <time>2020-09-22T09:04:59.356Z</time>
      </trkpt>
      <trkpt lat="66.23445" lon="20.86593">
        <ele>87.65724</ele>
        <time>2020-09-22T09:05:01.368Z</time>
      </trkpt>
      <trkpt lat="66.23437" lon="20.86603">
        <ele>87.456299</ele>
        <time>2020-09-22T09:05:03.392Z</time>
      </trkpt>
      <trkpt lat="66.23428" lon="20.86613">
        <ele>87.262643</ele>
        <time>2020-09-22T09:05:05.398Z</time>
      </trkpt>
      <trkpt lat="66.23419" lon="20.86624">
        <ele>87.055486</ele>
        <time>2020-09-22T09:05:07.352Z</time>
      </trkpt>
      <trkpt lat="66.23411" lon="20.86637">
        <ele>86.840821</ele>
        <time>2020-09-22T09:05:09.361Z</time>
      </trkpt>
      <trkpt lat="66.23402" lon="20.86649">
        <ele>86.634099</ele>
        <time>2020-09-22T09:05:11.351Z</time>
      </trkpt>
      <trkpt lat="66.23393" lon="20.86662">
        <ele>86.422082</ele>
        <time>2020-09-22T09:05:13.360Z</time>
      </trkpt>
      <trkpt lat="66.23384" lon="20.86675">
        <ele>86.202387</ele>
        <time>2020-09-22T09:05:15.362Z</time>
      </trkpt>
      <trkpt lat="66.23375" lon="20.86687">
        <ele>85.981271</ele>
        <time>2020-09-22T09:05:17.352Z</time>
      </trkpt>
      <trkpt lat="66.23366" lon="20.86701">
        <ele>85.763105</ele>
        <time>2020-09-22T09:05:19.361Z</time>
      </trkpt>
      <trkpt lat="66.23357" lon="20.86716">
        <ele>85.534008</ele>
        <time>2020-09-22T09:05:21.363Z</time>
      </trkpt>
      <trkpt lat="66.23347" lon="20.86732">
        <ele>85.290478</ele>
        <time>2020-09-22T09:05:23.373Z</time>
      </trkpt>
      <trkpt lat="66.23338" lon="20.86752">
        <ele>85.048501</ele>
        <time>2020-09-22T09:05:25.355Z</time>
      </trkpt>
      <trkpt lat="66.23333" lon="20.86775">
        <ele>84.820266</ele>
        <time>2020-09-22T09:05:27.369Z</time>
      </trkpt>
      <trkpt lat="66.23331" lon="20.86799">
        <ele>85.066096</ele>
        <time>2020-09-22T09:05:29.384Z</time>
      </trkpt>
      <trkpt lat="66.23325" lon="20.86823">
        <ele>85.380101</ele>
        <time>2020-09-22T09:05:31.369Z</time>
      </trkpt>
      <trkpt lat="66.23317" lon="20.86841">
        <ele>85.694375</ele>
        <time>2020-09-22T09:05:33.365Z</time>
      </trkpt>
      <trkpt lat="66.23314" lon="20.86865">
        <ele>85.988728</ele>
        <time>2020-09-22T09:05:36.350Z</time>
      </trkpt>
      <trkpt lat="66.23331" lon="20.86865">
        <ele>86.470376</ele>
        <time>2020-09-22T09:07:43.397Z</time>
      </trkpt>
      <trkpt lat="66.23337" lon="20.86841">
        <ele>86.782464</ele>
        <time>2020-09-22T09:07:47.398Z</time>
      </trkpt>
      <trkpt lat="66.2334" lon="20.86819">
        <ele>87.051984</ele>
        <time>2020-09-22T09:07:50.377Z</time>
      </trkpt>
      <trkpt lat="66.2334" lon="20.86795">
        <ele>87.335773</ele>
        <time>2020-09-22T09:07:53.358Z</time>
      </trkpt>
      <trkpt lat="66.23335" lon="20.86776">
        <ele>87.593181</ele>
        <time>2020-09-22T09:07:56.366Z</time>
      </trkpt>
      <trkpt lat="66.23329" lon="20.86759">
        <ele>87.867593</ele>
        <time>2020-09-22T09:07:59.361Z</time>
      </trkpt>
      <trkpt lat="66.23322" lon="20.86743">
        <ele>88.130529</ele>
        <time>2020-09-22T09:08:02.362Z</time>
      </trkpt>
      <trkpt lat="66.23314" lon="20.86722">
        <ele>88.458594</ele>
        <time>2020-09-22T09:08:06.352Z</time>
      </trkpt>
      <trkpt lat="66.23306" lon="20.86702">
        <ele>88.789117</ele>
        <time>2020-09-22T09:08:10.363Z</time>
      </trkpt>
      <trkpt lat="66.23299" lon="20.86685">
        <ele>89.077271</ele>
        <time>2020-09-22T09:08:14.357Z</time>
      </trkpt>
      <trkpt lat="66.23292" lon="20.86667">
        <ele>89.360609</ele>
        <time>2020-09-22T09:08:18.393Z</time>
      </trkpt>
      <trkpt lat="66.23284" lon="20.86647">
        <ele>89.678147</ele>
        <time>2020-09-22T09:08:23.373Z</time>
      </trkpt>
      <trkpt lat="66.23275" lon="20.8663">
        <ele>90.000657</ele>
        <time>2020-09-22T09:08:28.375Z</time>
      </trkpt>
      <trkpt lat="66.23268" lon="20.8661">
        <ele>90.365117</ele>
        <time>2020-09-22T09:08:33.373Z</time>
      </trkpt>
      <trkpt lat="66.23262" lon="20.86592">
        <ele>90.664616</ele>
        <time>2020-09-22T09:08:37.350Z</time>
      </trkpt>
      <trkpt lat="66.23255" lon="20.86572">
        <ele>91.024741</ele>
        <time>2020-09-22T09:08:42.357Z</time>
      </trkpt>
      <trkpt lat="66.23249" lon="20.86554">
        <ele>91.357378</ele>
        <time>2020-09-22T09:08:47.394Z</time>
      </trkpt>
      <trkpt lat="66.23241" lon="20.86533">
        <ele>91.725246</ele>
        <time>2020-09-22T09:08:52.385Z</time>
      </trkpt>
      <trkpt lat="66.23233" lon="20.86515">
        <ele>92.096884</ele>
        <time>2020-09-22T09:08:57.350Z</time>
      </trkpt>
      <trkpt lat="66.23225" lon="20.86497">
        <ele>92.450226</ele>
        <time>2020-09-22T09:09:03.354Z</time>
      </trkpt>
      <trkpt lat="66.23218" lon="20.86477">
        <ele>92.804115</ele>
        <time>2020-09-22T09:09:08.398Z</time>
      </trkpt>
      <trkpt lat="66.23211" lon="20.86456">
        <ele>93.169376</ele>
        <time>2020-09-22T09:09:13.376Z</time>
      </trkpt>
      <trkpt lat="66.23204" lon="20.86441">
        <ele>93.488862</ele>
        <time>2020-09-22T09:09:17.381Z</time>
      </trkpt>
      <trkpt lat="66.23197" lon="20.86425">
        <ele>93.807837</ele>
        <time>2020-09-22T09:09:21.352Z</time>
      </trkpt>
      <trkpt lat="66.2319" lon="20.86407">
        <ele>94.126816</ele>
        <time>2020-09-22T09:09:25.363Z</time>
      </trkpt>
      <trkpt lat="66.23184" lon="20.8639">
        <ele>94.429469</ele>
        <time>2020-09-22T09:09:29.375Z</time>
      </trkpt>
      <trkpt lat="66.23179" lon="20.86368">
        <ele>94.770162</ele>
        <time>2020-09-22T09:09:34.370Z</time>
      </trkpt>
      <trkpt lat="66.23173" lon="20.8635">
        <ele>95.087892</ele>
        <time>2020-09-22T09:09:39.355Z</time>
      </trkpt>
      <trkpt lat="66.23166" lon="20.86331">
        <ele>95.42602</ele>
        <time>2020-09-22T09:09:44.350Z</time>
      </trkpt>
      <trkpt lat="66.2316" lon="20.86311">
        <ele>95.767265</ele>
        <time>2020-09-22T09:09:49.360Z</time>
      </trkpt>
      <trkpt lat="66.23155" lon="20.86292">
        <ele>96.172421</ele>
        <time>2020-09-22T09:09:54.356Z</time>
      </trkpt>
      <trkpt lat="66.23149" lon="20.86271">
        <ele>96.744169</ele>
        <time>2020-09-22T09:10:00.395Z</time>
      </trkpt>
      <trkpt lat="66.23142" lon="20.86251">
        <ele>97.333384</ele>
        <time>2020-09-22T09:10:06.367Z</time>
      </trkpt>
      <trkpt lat="66.23137" lon="20.8623">
        <ele>97.889185</ele>
        <time>2020-09-22T09:10:11.362Z</time>
      </trkpt>
      <trkpt lat="66.23132" lon="20.86206">
        <ele>98.470468</ele>
        <time>2020-09-22T09:10:17.381Z</time>
      </trkpt>
      <trkpt lat="66.23127" lon="20.86186">
        <ele>98.990023</ele>
        <time>2020-09-22T09:10:22.371Z</time>
      </trkpt>
      <trkpt lat="66.23123" lon="20.86163">
        <ele>99.554112</ele>
        <time>2020-09-22T09:10:27.358Z</time>
      </trkpt>
      <trkpt lat="66.23118" lon="20.86142">
        <ele>100.105876</ele>
        <time>2020-09-22T09:10:33.361Z</time>
      </trkpt>
      <trkpt lat="66.23113" lon="20.86121">
        <ele>100.614821</ele>
        <time>2020-09-22T09:10:38.355Z</time>
      </trkpt>
      <trkpt lat="66.23108" lon="20.86101">
        <ele>101.152153</ele>
        <time>2020-09-22T09:10:43.371Z</time>
      </trkpt>
      <trkpt lat="66.23103" lon="20.86081">
        <ele>101.678242</ele>
        <time>2020-09-22T09:10:48.366Z</time>
      </trkpt>
      <trkpt lat="66.23097" lon="20.86058">
        <ele>102.261317</ele>
        <time>2020-09-22T09:10:53.352Z</time>
      </trkpt>
      <trkpt lat="66.23092" lon="20.86041">
        <ele>102.759017</ele>
        <time>2020-09-22T09:10:57.364Z</time>
      </trkpt>
      <trkpt lat="66.23086" lon="20.86017">
        <ele>103.369607</ele>
        <time>2020-09-22T09:11:02.382Z</time>
      </trkpt>
      <trkpt lat="66.23082" lon="20.85996">
        <ele>103.887015</ele>
        <time>2020-09-22T09:11:06.373Z</time>
      </trkpt>
      <trkpt lat="66.23077" lon="20.85974">
        <ele>104.449442</ele>
        <time>2020-09-22T09:11:10.355Z</time>
      </trkpt>
      <trkpt lat="66.23072" lon="20.85951">
        <ele>105.033311</ele>
        <time>2020-09-22T09:11:14.357Z</time>
      </trkpt>
      <trkpt lat="66.23066" lon="20.85927">
        <ele>105.651533</ele>
        <time>2020-09-22T09:11:18.381Z</time>
      </trkpt>
      <trkpt lat="66.23059" lon="20.85904">
        <ele>105.734508</ele>
        <time>2020-09-22T09:11:22.360Z</time>
      </trkpt>
      <trkpt lat="66.23054" lon="20.85881">
        <ele>105.631176</ele>
        <time>2020-09-22T09:11:26.380Z</time>
      </trkpt>
      <trkpt lat="66.23049" lon="20.85862">
        <ele>105.54546</ele>
        <time>2020-09-22T09:11:29.359Z</time>
      </trkpt>
      <trkpt lat="66.23043" lon="20.85837">
        <ele>105.434692</ele>
        <time>2020-09-22T09:11:33.355Z</time>
      </trkpt>
      <trkpt lat="66.23038" lon="20.85817">
        <ele>105.34387</ele>
        <time>2020-09-22T09:11:36.361Z</time>
      </trkpt>
      <trkpt lat="66.23033" lon="20.85796">
        <ele>105.251746</ele>
        <time>2020-09-22T09:11:39.349Z</time>
      </trkpt>
      <trkpt lat="66.23028" lon="20.85774">
        <ele>105.152067</ele>
        <time>2020-09-22T09:11:42.374Z</time>
      </trkpt>
      <trkpt lat="66.23022" lon="20.85751">
        <ele>105.047141</ele>
        <time>2020-09-22T09:11:45.381Z</time>
      </trkpt>
      <trkpt lat="66.23017" lon="20.85727">
        <ele>104.944329</ele>
        <time>2020-09-22T09:11:48.352Z</time>
      </trkpt>
      <trkpt lat="66.23012" lon="20.85705">
        <ele>104.846268</ele>
        <time>2020-09-22T09:11:51.353Z</time>
      </trkpt>
      <trkpt lat="66.23007" lon="20.85682">
        <ele>104.745644</ele>
        <time>2020-09-22T09:11:54.393Z</time>
      </trkpt>
      <trkpt lat="66.23" lon="20.85656">
        <ele>104.629552</ele>
        <time>2020-09-22T09:11:57.405Z</time>
      </trkpt>
      <trkpt lat="66.22995" lon="20.85632">
        <ele>104.520181</ele>
        <time>2020-09-22T09:12:00.349Z</time>
      </trkpt>
      <trkpt lat="66.22988" lon="20.85607">
        <ele>104.410644</ele>
        <time>2020-09-22T09:12:03.388Z</time>
      </trkpt>
      <trkpt lat="66.22984" lon="20.85583">
        <ele>104.305757</ele>
        <time>2020-09-22T09:12:06.373Z</time>
      </trkpt>
      <trkpt lat="66.22978" lon="20.85559">
        <ele>104.200172</ele>
        <time>2020-09-22T09:12:09.387Z</time>
      </trkpt>
      <trkpt lat="66.22973" lon="20.85539">
        <ele>104.107995</ele>
        <time>2020-09-22T09:12:12.386Z</time>
      </trkpt>
      <trkpt lat="66.22968" lon="20.85514">
        <ele>104.381242</ele>
        <time>2020-09-22T09:12:15.379Z</time>
      </trkpt>
      <trkpt lat="66.22963" lon="20.85485">
        <ele>104.706775</ele>
        <time>2020-09-22T09:12:18.361Z</time>
      </trkpt>
      <trkpt lat="66.22962" lon="20.85462">
        <ele>104.953569</ele>
        <time>2020-09-22T09:12:20.373Z</time>
      </trkpt>
      <trkpt lat="66.22959" lon="20.85438">
        <ele>105.210143</ele>
        <time>2020-09-22T09:12:22.370Z</time>
      </trkpt>
      <trkpt lat="66.22956" lon="20.85414">
        <ele>105.47387</ele>
        <time>2020-09-22T09:12:24.380Z</time>
      </trkpt>
      <trkpt lat="66.22954" lon="20.8539">
        <ele>105.733967</ele>
        <time>2020-09-22T09:12:26.382Z</time>
      </trkpt>
      <trkpt lat="66.22953" lon="20.85366">
        <ele>105.983818</ele>
        <time>2020-09-22T09:12:28.354Z</time>
      </trkpt>
      <trkpt lat="66.22952" lon="20.85336">
        <ele>106.29329</ele>
        <time>2020-09-22T09:12:31.361Z</time>
      </trkpt>
      <trkpt lat="66.22951" lon="20.8531">
        <ele>106.570544</ele>
        <time>2020-09-22T09:12:34.367Z</time>
      </trkpt>
      <trkpt lat="66.22951" lon="20.85283">
        <ele>106.850508</ele>
        <time>2020-09-22T09:12:37.367Z</time>
      </trkpt>
      <trkpt lat="66.22952" lon="20.85254">
        <ele>107.155033</ele>
        <time>2020-09-22T09:12:40.382Z</time>
      </trkpt>
      <trkpt lat="66.22953" lon="20.85223">
        <ele>107.476862</ele>
        <time>2020-09-22T09:12:43.359Z</time>
      </trkpt>
      <trkpt lat="66.22953" lon="20.85194">
        <ele>107.778252</ele>
        <time>2020-09-22T09:12:46.378Z</time>
      </trkpt>
      <trkpt lat="66.22953" lon="20.85166">
        <ele>108.08024</ele>
        <time>2020-09-22T09:12:49.375Z</time>
      </trkpt>
      <trkpt lat="66.22953" lon="20.85139">
        <ele>108.357167</ele>
        <time>2020-09-22T09:12:52.358Z</time>
      </trkpt>
      <trkpt lat="66.22953" lon="20.85111">
        <ele>108.654921</ele>
        <time>2020-09-22T09:12:55.413Z</time>
      </trkpt>
      <trkpt lat="66.22953" lon="20.8508">
        <ele>108.729884</ele>
        <time>2020-09-22T09:12:58.377Z</time>
      </trkpt>
      <trkpt lat="66.22954" lon="20.85048">
        <ele>108.67321</ele>
        <time>2020-09-22T09:13:01.366Z</time>
      </trkpt>
      <trkpt lat="66.22955" lon="20.85018">
        <ele>108.619722</ele>
        <time>2020-09-22T09:13:04.360Z</time>
      </trkpt>
      <trkpt lat="66.22956" lon="20.8499">
        <ele>108.570894</ele>
        <time>2020-09-22T09:13:07.364Z</time>
      </trkpt>
      <trkpt lat="66.22955" lon="20.84964">
        <ele>108.523987</ele>
        <time>2020-09-22T09:13:10.393Z</time>
      </trkpt>
      <trkpt lat="66.22956" lon="20.84939">
        <ele>108.479336</ele>
        <time>2020-09-22T09:13:13.411Z</time>
      </trkpt>
      <trkpt lat="66.22957" lon="20.84909">
        <ele>108.426708</ele>
        <time>2020-09-22T09:13:16.366Z</time>
      </trkpt>
      <trkpt lat="66.22957" lon="20.84887">
        <ele>108.387044</ele>
        <time>2020-09-22T09:13:18.357Z</time>
      </trkpt>
      <trkpt lat="66.22957" lon="20.84864">
        <ele>108.347402</ele>
        <time>2020-09-22T09:13:20.360Z</time>
      </trkpt>
      <trkpt lat="66.22957" lon="20.84838">
        <ele>108.301563</ele>
        <time>2020-09-22T09:13:22.358Z</time>
      </trkpt>
      <trkpt lat="66.22957" lon="20.84809">
        <ele>108.249795</ele>
        <time>2020-09-22T09:13:24.366Z</time>
      </trkpt>
      <trkpt lat="66.22958" lon="20.84779">
        <ele>108.196107</ele>
        <time>2020-09-22T09:13:26.375Z</time>
      </trkpt>
      <trkpt lat="66.22959" lon="20.84746">
        <ele>108.138332</ele>
        <time>2020-09-22T09:13:28.361Z</time>
      </trkpt>
      <trkpt lat="66.22958" lon="20.84713">
        <ele>108.079672</ele>
        <time>2020-09-22T09:13:30.360Z</time>
      </trkpt>
      <trkpt lat="66.22955" lon="20.84682">
        <ele>108.022525</ele>
        <time>2020-09-22T09:13:32.361Z</time>
      </trkpt>
      <trkpt lat="66.22951" lon="20.84654">
        <ele>108.005671</ele>
        <time>2020-09-22T09:13:34.363Z</time>
      </trkpt>
      <trkpt lat="66.22947" lon="20.84629">
        <ele>108.31282</ele>
        <time>2020-09-22T09:13:36.353Z</time>
      </trkpt>
      <trkpt lat="66.22942" lon="20.84605">
        <ele>108.607885</ele>
        <time>2020-09-22T09:13:38.363Z</time>
      </trkpt>
      <trkpt lat="66.22937" lon="20.84584">
        <ele>108.890792</ele>
        <time>2020-09-22T09:13:40.355Z</time>
      </trkpt>
      <trkpt lat="66.22931" lon="20.84564">
        <ele>109.176757</ele>
        <time>2020-09-22T09:13:42.376Z</time>
      </trkpt>
      <trkpt lat="66.22924" lon="20.84544">
        <ele>109.469765</ele>
        <time>2020-09-22T09:13:44.369Z</time>
      </trkpt>
      <trkpt lat="66.22917" lon="20.84526">
        <ele>109.765137</ele>
        <time>2020-09-22T09:13:46.352Z</time>
      </trkpt>
      <trkpt lat="66.22908" lon="20.84514">
        <ele>110.045986</ele>
        <time>2020-09-22T09:13:48.360Z</time>
      </trkpt>
      <trkpt lat="66.229" lon="20.84502">
        <ele>110.315844</ele>
        <time>2020-09-22T09:13:50.375Z</time>
      </trkpt>
      <trkpt lat="66.22888" lon="20.84489">
        <ele>110.680773</ele>
        <time>2020-09-22T09:13:53.374Z</time>
      </trkpt>
      <trkpt lat="66.22877" lon="20.84481">
        <ele>110.999162</ele>
        <time>2020-09-22T09:13:56.376Z</time>
      </trkpt>
      <trkpt lat="66.22866" lon="20.84474">
        <ele>111.310771</ele>
        <time>2020-09-22T09:14:00.360Z</time>
      </trkpt>
      <trkpt lat="66.22856" lon="20.8447">
        <ele>111.591493</ele>
        <time>2020-09-22T09:14:04.378Z</time>
      </trkpt>
      <trkpt lat="66.22847" lon="20.84467">
        <ele>111.857688</ele>
        <time>2020-09-22T09:14:08.427Z</time>
      </trkpt>
      <trkpt lat="66.22837" lon="20.84468">
        <ele>112.118611</ele>
        <time>2020-09-22T09:14:12.363Z</time>
      </trkpt>
      <trkpt lat="66.22827" lon="20.84466">
        <ele>112.416963</ele>
        <time>2020-09-22T09:14:18.368Z</time>
      </trkpt>
      <trkpt lat="66.22817" lon="20.84464">
        <ele>112.680942</ele>
        <time>2020-09-22T09:14:23.369Z</time>
      </trkpt>
      <trkpt lat="66.22808" lon="20.8446">
        <ele>112.961032</ele>
        <time>2020-09-22T09:14:28.392Z</time>
      </trkpt>
      <trkpt lat="66.22797" lon="20.84454">
        <ele>113.840759</ele>
        <time>2020-09-22T09:14:34.378Z</time>
      </trkpt>
      <trkpt lat="66.22788" lon="20.84452">
        <ele>114.68537</ele>
        <time>2020-09-22T09:14:39.360Z</time>
      </trkpt>
      <trkpt lat="66.22778" lon="20.84452">
        <ele>115.606979</ele>
        <time>2020-09-22T09:14:45.361Z</time>
      </trkpt>
      <trkpt lat="66.22768" lon="20.84453">
        <ele>116.50998</ele>
        <time>2020-09-22T09:14:50.402Z</time>
      </trkpt>
      <trkpt lat="66.22759" lon="20.84448">
        <ele>117.429758</ele>
        <time>2020-09-22T09:14:56.365Z</time>
      </trkpt>
      <trkpt lat="66.22749" lon="20.84443">
        <ele>118.379112</ele>
        <time>2020-09-22T09:15:03.365Z</time>
      </trkpt>
      <trkpt lat="66.22739" lon="20.84444">
        <ele>119.254718</ele>
        <time>2020-09-22T09:15:09.362Z</time>
      </trkpt>
      <trkpt lat="66.2273" lon="20.84441">
        <ele>120.155192</ele>
        <time>2020-09-22T09:15:15.359Z</time>
      </trkpt>
      <trkpt lat="66.2272" lon="20.84437">
        <ele>121.0691</ele>
        <time>2020-09-22T09:15:22.360Z</time>
      </trkpt>
      <trkpt lat="66.2271" lon="20.84435">
        <ele>122.013713</ele>
        <time>2020-09-22T09:15:28.396Z</time>
      </trkpt>
      <trkpt lat="66.22699" lon="20.84433">
        <ele>122.992727</ele>
        <time>2020-09-22T09:15:34.353Z</time>
      </trkpt>
      <trkpt lat="66.2269" lon="20.84431">
        <ele>123.890666</ele>
        <time>2020-09-22T09:15:40.355Z</time>
      </trkpt>
      <trkpt lat="66.2268" lon="20.84432">
        <ele>124.747381</ele>
        <time>2020-09-22T09:15:45.360Z</time>
      </trkpt>
      <trkpt lat="66.22671" lon="20.84426">
        <ele>125.625513</ele>
        <time>2020-09-22T09:15:51.404Z</time>
      </trkpt>
      <trkpt lat="66.22661" lon="20.84424">
        <ele>126.561648</ele>
        <time>2020-09-22T09:15:58.363Z</time>
      </trkpt>
      <trkpt lat="66.22653" lon="20.84416">
        <ele>127.415112</ele>
        <time>2020-09-22T09:16:04.385Z</time>
      </trkpt>
      <trkpt lat="66.22643" lon="20.84415">
        <ele>128.272294</ele>
        <time>2020-09-22T09:16:10.363Z</time>
      </trkpt>
      <trkpt lat="66.22634" lon="20.84417">
        <ele>129.132451</ele>
        <time>2020-09-22T09:16:15.360Z</time>
      </trkpt>
      <trkpt lat="66.22624" lon="20.84414">
        <ele>129.738538</ele>
        <time>2020-09-22T09:16:21.372Z</time>
      </trkpt>
      <trkpt lat="66.22614" lon="20.84413">
        <ele>129.683941</ele>
        <time>2020-09-22T09:16:27.355Z</time>
      </trkpt>
      <trkpt lat="66.22605" lon="20.84412">
        <ele>129.63315</ele>
        <time>2020-09-22T09:16:32.396Z</time>
      </trkpt>
      <trkpt lat="66.22595" lon="20.8441">
        <ele>129.580069</ele>
        <time>2020-09-22T09:16:37.383Z</time>
      </trkpt>
      <trkpt lat="66.22586" lon="20.84412">
        <ele>129.530212</ele>
        <time>2020-09-22T09:16:42.368Z</time>
      </trkpt>
      <trkpt lat="66.22576" lon="20.84414">
        <ele>129.476619</ele>
        <time>2020-09-22T09:16:49.373Z</time>
      </trkpt>
      <trkpt lat="66.22566" lon="20.84415">
        <ele>129.421468</ele>
        <time>2020-09-22T09:16:56.378Z</time>
      </trkpt>
      <trkpt lat="66.22556" lon="20.84417">
        <ele>129.365052</ele>
        <time>2020-09-22T09:17:02.389Z</time>
      </trkpt>
      <trkpt lat="66.22546" lon="20.84415">
        <ele>129.309092</ele>
        <time>2020-09-22T09:17:08.393Z</time>
      </trkpt>
      <trkpt lat="66.22536" lon="20.84417">
        <ele>129.254379</ele>
        <time>2020-09-22T09:17:14.389Z</time>
      </trkpt>
      <trkpt lat="66.22525" lon="20.84413">
        <ele>129.197635</ele>
        <time>2020-09-22T09:17:20.376Z</time>
      </trkpt>
      <trkpt lat="66.22515" lon="20.84411">
        <ele>129.140132</ele>
        <time>2020-09-22T09:17:25.370Z</time>
      </trkpt>
      <trkpt lat="66.22506" lon="20.84403">
        <ele>129.090546</ele>
        <time>2020-09-22T09:17:29.370Z</time>
      </trkpt>
      <trkpt lat="66.22497" lon="20.84396">
        <ele>129.036291</ele>
        <time>2020-09-22T09:17:33.365Z</time>
      </trkpt>
      <trkpt lat="66.22487" lon="20.84391">
        <ele>128.981219</ele>
        <time>2020-09-22T09:17:37.391Z</time>
      </trkpt>
      <trkpt lat="66.22476" lon="20.84386">
        <ele>128.923254</ele>
        <time>2020-09-22T09:17:41.379Z</time>
      </trkpt>
      <trkpt lat="66.22466" lon="20.84379">
        <ele>128.866276</ele>
        <time>2020-09-22T09:17:45.390Z</time>
      </trkpt>
      <trkpt lat="66.22456" lon="20.84371">
        <ele>128.809713</ele>
        <time>2020-09-22T09:17:49.399Z</time>
      </trkpt>
      <trkpt lat="66.22447" lon="20.84362">
        <ele>128.67464</ele>
        <time>2020-09-22T09:17:53.374Z</time>
      </trkpt>
      <trkpt lat="66.22437" lon="20.84357">
        <ele>128.421745</ele>
        <time>2020-09-22T09:17:57.368Z</time>
      </trkpt>
      <trkpt lat="66.22428" lon="20.84347">
        <ele>128.15947</ele>
        <time>2020-09-22T09:18:01.409Z</time>
      </trkpt>
      <trkpt lat="66.22418" lon="20.8434">
        <ele>127.905763</ele>
        <time>2020-09-22T09:18:05.383Z</time>
      </trkpt>
      <trkpt lat="66.22408" lon="20.84333">
        <ele>127.62991</ele>
        <time>2020-09-22T09:18:10.386Z</time>
      </trkpt>
      <trkpt lat="66.22398" lon="20.84328">
        <ele>127.380276</ele>
        <time>2020-09-22T09:18:14.381Z</time>
      </trkpt>
      <trkpt lat="66.22389" lon="20.84324">
        <ele>127.14842</ele>
        <time>2020-09-22T09:18:17.397Z</time>
      </trkpt>
      <trkpt lat="66.22378" lon="20.84321">
        <ele>126.881273</ele>
        <time>2020-09-22T09:18:20.416Z</time>
      </trkpt>
      <trkpt lat="66.22369" lon="20.8432">
        <ele>126.643265</ele>
        <time>2020-09-22T09:18:23.388Z</time>
      </trkpt>
      <trkpt lat="66.22359" lon="20.84321">
        <ele>126.399997</ele>
        <time>2020-09-22T09:18:26.366Z</time>
      </trkpt>
      <trkpt lat="66.22348" lon="20.8432">
        <ele>126.116489</ele>
        <time>2020-09-22T09:18:29.392Z</time>
      </trkpt>
      <trkpt lat="66.22339" lon="20.84322">
        <ele>125.873221</ele>
        <time>2020-09-22T09:18:31.392Z</time>
      </trkpt>
      <trkpt lat="66.22328" lon="20.84325">
        <ele>125.592545</ele>
        <time>2020-09-22T09:18:33.368Z</time>
      </trkpt>
      <trkpt lat="66.22316" lon="20.84331">
        <ele>125.288238</ele>
        <time>2020-09-22T09:18:35.417Z</time>
      </trkpt>
      <trkpt lat="66.22303" lon="20.84339">
        <ele>124.950368</ele>
        <time>2020-09-22T09:18:37.366Z</time>
      </trkpt>
      <trkpt lat="66.22289" lon="20.8435">
        <ele>124.591223</ele>
        <time>2020-09-22T09:18:39.396Z</time>
      </trkpt>
      <trkpt lat="66.22276" lon="20.84362">
        <ele>124.231431</ele>
        <time>2020-09-22T09:18:41.363Z</time>
      </trkpt>
      <trkpt lat="66.22264" lon="20.84375">
        <ele>123.316126</ele>
        <time>2020-09-22T09:18:43.368Z</time>
      </trkpt>
      <trkpt lat="66.22253" lon="20.84388">
        <ele>122.463142</ele>
        <time>2020-09-22T09:18:45.373Z</time>
      </trkpt>
      <trkpt lat="66.22243" lon="20.84403">
        <ele>121.595905</ele>
        <time>2020-09-22T09:18:47.388Z</time>
      </trkpt>
      <trkpt lat="66.22231" lon="20.84419">
        <ele>120.607639</ele>
        <time>2020-09-22T09:18:49.382Z</time>
      </trkpt>
      <trkpt lat="66.22217" lon="20.84437">
        <ele>119.514737</ele>
        <time>2020-09-22T09:18:51.377Z</time>
      </trkpt>
      <trkpt lat="66.22203" lon="20.84456">
        <ele>118.37393</ele>
        <time>2020-09-22T09:18:53.376Z</time>
      </trkpt>
      <trkpt lat="66.2219" lon="20.84474">
        <ele>117.311139</ele>
        <time>2020-09-22T09:18:55.362Z</time>
      </trkpt>
      <trkpt lat="66.22178" lon="20.84491">
        <ele>116.316281</ele>
        <time>2020-09-22T09:18:57.402Z</time>
      </trkpt>
      <trkpt lat="66.22167" lon="20.84507">
        <ele>115.38021</ele>
        <time>2020-09-22T09:18:59.380Z</time>
      </trkpt>
      <trkpt lat="66.22155" lon="20.84522">
        <ele>114.439887</ele>
        <time>2020-09-22T09:19:01.361Z</time>
      </trkpt>
      <trkpt lat="66.22143" lon="20.84539">
        <ele>113.427236</ele>
        <time>2020-09-22T09:19:03.398Z</time>
      </trkpt>
      <trkpt lat="66.2213" lon="20.84558">
        <ele>112.349742</ele>
        <time>2020-09-22T09:19:05.357Z</time>
      </trkpt>
      <trkpt lat="66.22115" lon="20.84576">
        <ele>111.211527</ele>
        <time>2020-09-22T09:19:07.393Z</time>
      </trkpt>
      <trkpt lat="66.221" lon="20.84591">
        <ele>110.255782</ele>
        <time>2020-09-22T09:19:09.397Z</time>
      </trkpt>
      <trkpt lat="66.22083" lon="20.84606">
        <ele>109.194268</ele>
        <time>2020-09-22T09:19:11.386Z</time>
      </trkpt>
      <trkpt lat="66.22074" lon="20.84614">
        <ele>108.623732</ele>
        <time>2020-09-22T09:19:12.379Z</time>
      </trkpt>
      <trkpt lat="66.22065" lon="20.84622">
        <ele>108.063505</ele>
        <time>2020-09-22T09:19:13.356Z</time>
      </trkpt>
      <trkpt lat="66.22056" lon="20.8463">
        <ele>107.477758</ele>
        <time>2020-09-22T09:19:14.363Z</time>
      </trkpt>
      <trkpt lat="66.22046" lon="20.84637">
        <ele>106.86955</ele>
        <time>2020-09-22T09:19:15.369Z</time>
      </trkpt>
      <trkpt lat="66.22035" lon="20.84645">
        <ele>106.218814</ele>
        <time>2020-09-22T09:19:16.365Z</time>
      </trkpt>
      <trkpt lat="66.22024" lon="20.84652">
        <ele>105.543728</ele>
        <time>2020-09-22T09:19:17.365Z</time>
      </trkpt>
      <trkpt lat="66.22013" lon="20.84658">
        <ele>104.874382</ele>
        <time>2020-09-22T09:19:18.373Z</time>
      </trkpt>
      <trkpt lat="66.22003" lon="20.84663">
        <ele>104.230055</ele>
        <time>2020-09-22T09:19:19.397Z</time>
      </trkpt>
      <trkpt lat="66.21992" lon="20.84669">
        <ele>103.573672</ele>
        <time>2020-09-22T09:19:20.390Z</time>
      </trkpt>
      <trkpt lat="66.21981" lon="20.84673">
        <ele>102.957592</ele>
        <time>2020-09-22T09:19:21.367Z</time>
      </trkpt>
      <trkpt lat="66.21972" lon="20.84674">
        <ele>102.371325</ele>
        <time>2020-09-22T09:19:22.374Z</time>
      </trkpt>
      <trkpt lat="66.21962" lon="20.84674">
        <ele>101.809931</ele>
        <time>2020-09-22T09:19:23.372Z</time>
      </trkpt>
      <trkpt lat="66.21953" lon="20.84674">
        <ele>101.277658</ele>
        <time>2020-09-22T09:19:24.381Z</time>
      </trkpt>
      <trkpt lat="66.21937" lon="20.84668">
        <ele>100.376035</ele>
        <time>2020-09-22T09:19:26.361Z</time>
      </trkpt>
      <trkpt lat="66.21924" lon="20.84662">
        <ele>99.659438</ele>
        <time>2020-09-22T09:19:28.397Z</time>
      </trkpt>
      <trkpt lat="66.21913" lon="20.84658">
        <ele>99.079468</ele>
        <time>2020-09-22T09:19:30.360Z</time>
      </trkpt>
      <trkpt lat="66.219" lon="20.84655">
        <ele>98.432778</ele>
        <time>2020-09-22T09:19:33.393Z</time>
      </trkpt>
      <trkpt lat="66.2189" lon="20.84653">
        <ele>97.904408</ele>
        <time>2020-09-22T09:19:36.358Z</time>
      </trkpt>
      <trkpt lat="66.21881" lon="20.84651">
        <ele>97.423188</ele>
        <time>2020-09-22T09:19:39.358Z</time>
      </trkpt>
      <trkpt lat="66.21872" lon="20.84651">
        <ele>96.937671</ele>
        <time>2020-09-22T09:19:42.372Z</time>
      </trkpt>
      <trkpt lat="66.21861" lon="20.84651">
        <ele>96.363504</ele>
        <time>2020-09-22T09:19:46.381Z</time>
      </trkpt>
      <trkpt lat="66.21849" lon="20.8465">
        <ele>95.773473</ele>
        <time>2020-09-22T09:19:50.374Z</time>
      </trkpt>
      <trkpt lat="66.2184" lon="20.84649">
        <ele>95.298342</ele>
        <time>2020-09-22T09:19:53.378Z</time>
      </trkpt>
      <trkpt lat="66.21828" lon="20.8465">
        <ele>94.671789</ele>
        <time>2020-09-22T09:19:56.355Z</time>
      </trkpt>
      <trkpt lat="66.21818" lon="20.84652">
        <ele>94.138066</ele>
        <time>2020-09-22T09:19:58.398Z</time>
      </trkpt>
      <trkpt lat="66.21806" lon="20.84654">
        <ele>93.515076</ele>
        <time>2020-09-22T09:20:00.374Z</time>
      </trkpt>
      <trkpt lat="66.21792" lon="20.84657">
        <ele>92.792038</ele>
        <time>2020-09-22T09:20:02.389Z</time>
      </trkpt>
      <trkpt lat="66.21779" lon="20.8466">
        <ele>92.074892</ele>
        <time>2020-09-22T09:20:04.360Z</time>
      </trkpt>
      <trkpt lat="66.21765" lon="20.84663">
        <ele>91.350419</ele>
        <time>2020-09-22T09:20:06.394Z</time>
      </trkpt>
      <trkpt lat="66.21751" lon="20.84667">
        <ele>91.034368</ele>
        <time>2020-09-22T09:20:08.370Z</time>
      </trkpt>
      <trkpt lat="66.21738" lon="20.84671">
        <ele>90.752539</ele>
        <time>2020-09-22T09:20:10.357Z</time>
      </trkpt>
      <trkpt lat="66.21726" lon="20.84673">
        <ele>90.507587</ele>
        <time>2020-09-22T09:20:12.371Z</time>
      </trkpt>
      <trkpt lat="66.21716" lon="20.84675">
        <ele>90.297532</ele>
        <time>2020-09-22T09:20:14.384Z</time>
      </trkpt>
      <trkpt lat="66.21703" lon="20.84676">
        <ele>90.016986</ele>
        <time>2020-09-22T09:20:17.401Z</time>
      </trkpt>
      <trkpt lat="66.21694" lon="20.84675">
        <ele>89.822059</ele>
        <time>2020-09-22T09:20:19.357Z</time>
      </trkpt>
      <trkpt lat="66.21684" lon="20.84674">
        <ele>89.612276</ele>
        <time>2020-09-22T09:20:21.361Z</time>
      </trkpt>
      <trkpt lat="66.21674" lon="20.84673">
        <ele>89.387061</ele>
        <time>2020-09-22T09:20:23.395Z</time>
      </trkpt>
      <trkpt lat="66.21662" lon="20.84669">
        <ele>89.14109</ele>
        <time>2020-09-22T09:20:25.382Z</time>
      </trkpt>
      <trkpt lat="66.2165" lon="20.84664">
        <ele>88.873881</ele>
        <time>2020-09-22T09:20:27.410Z</time>
      </trkpt>
      <trkpt lat="66.21638" lon="20.84657">
        <ele>88.600518</ele>
        <time>2020-09-22T09:20:29.368Z</time>
      </trkpt>
      <trkpt lat="66.21625" lon="20.8465">
        <ele>88.330216</ele>
        <time>2020-09-22T09:20:31.372Z</time>
      </trkpt>
      <trkpt lat="66.21614" lon="20.84642">
        <ele>88.071075</ele>
        <time>2020-09-22T09:20:33.386Z</time>
      </trkpt>
      <trkpt lat="66.21603" lon="20.84633">
        <ele>87.828812</ele>
        <time>2020-09-22T09:20:35.431Z</time>
      </trkpt>
      <trkpt lat="66.21593" lon="20.84624">
        <ele>87.592474</ele>
        <time>2020-09-22T09:20:37.361Z</time>
      </trkpt>
      <trkpt lat="66.21583" lon="20.84614">
        <ele>87.325606</ele>
        <time>2020-09-22T09:20:39.361Z</time>
      </trkpt>
      <trkpt lat="66.21573" lon="20.84603">
        <ele>87.024035</ele>
        <time>2020-09-22T09:20:41.392Z</time>
      </trkpt>
      <trkpt lat="66.21564" lon="20.84592">
        <ele>86.721611</ele>
        <time>2020-09-22T09:20:43.360Z</time>
      </trkpt>
      <trkpt lat="66.21554" lon="20.84579">
        <ele>86.413408</ele>
        <time>2020-09-22T09:20:45.385Z</time>
      </trkpt>
      <trkpt lat="66.21545" lon="20.84566">
        <ele>86.11181</ele>
        <time>2020-09-22T09:20:47.363Z</time>
      </trkpt>
      <trkpt lat="66.21536" lon="20.84552">
        <ele>85.801189</ele>
        <time>2020-09-22T09:20:49.368Z</time>
      </trkpt>
      <trkpt lat="66.21527" lon="20.84537">
        <ele>85.484438</ele>
        <time>2020-09-22T09:20:51.438Z</time>
      </trkpt>
      <trkpt lat="66.21518" lon="20.84523">
        <ele>85.185955</ele>
        <time>2020-09-22T09:20:53.365Z</time>
      </trkpt>
      <trkpt lat="66.21509" lon="20.84508">
        <ele>84.88413</ele>
        <time>2020-09-22T09:20:55.387Z</time>
      </trkpt>
      <trkpt lat="66.215" lon="20.84493">
        <ele>84.585315</ele>
        <time>2020-09-22T09:20:57.354Z</time>
      </trkpt>
      <trkpt lat="66.21492" lon="20.84479">
        <ele>84.293526</ele>
        <time>2020-09-22T09:20:59.356Z</time>
      </trkpt>
      <trkpt lat="66.21483" lon="20.84463">
        <ele>83.976383</ele>
        <time>2020-09-22T09:21:01.373Z</time>
      </trkpt>
      <trkpt lat="66.21474" lon="20.84447">
        <ele>83.659169</ele>
        <time>2020-09-22T09:21:03.362Z</time>
      </trkpt>
      <trkpt lat="66.21465" lon="20.84429">
        <ele>83.328303</ele>
        <time>2020-09-22T09:21:05.404Z</time>
      </trkpt>
      <trkpt lat="66.21456" lon="20.8441">
        <ele>82.985041</ele>
        <time>2020-09-22T09:21:07.364Z</time>
      </trkpt>
      <trkpt lat="66.21446" lon="20.84392">
        <ele>82.648951</ele>
        <time>2020-09-22T09:21:09.428Z</time>
      </trkpt>
      <trkpt lat="66.21438" lon="20.84376">
        <ele>82.332144</ele>
        <time>2020-09-22T09:21:11.362Z</time>
      </trkpt>
      <trkpt lat="66.21429" lon="20.84361">
        <ele>82.037121</ele>
        <time>2020-09-22T09:21:13.399Z</time>
      </trkpt>
      <trkpt lat="66.2142" lon="20.84346">
        <ele>81.750396</ele>
        <time>2020-09-22T09:21:15.358Z</time>
      </trkpt>
      <trkpt lat="66.21411" lon="20.8433">
        <ele>81.456329</ele>
        <time>2020-09-22T09:21:17.365Z</time>
      </trkpt>
      <trkpt lat="66.21403" lon="20.84315">
        <ele>81.156507</ele>
        <time>2020-09-22T09:21:19.390Z</time>
      </trkpt>
      <trkpt lat="66.21394" lon="20.84299">
        <ele>80.857851</ele>
        <time>2020-09-22T09:21:21.379Z</time>
      </trkpt>
      <trkpt lat="66.21385" lon="20.84282">
        <ele>80.557653</ele>
        <time>2020-09-22T09:21:23.370Z</time>
      </trkpt>
      <trkpt lat="66.21376" lon="20.84266">
        <ele>80.257455</ele>
        <time>2020-09-22T09:21:25.351Z</time>
      </trkpt>
      <trkpt lat="66.21368" lon="20.84251">
        <ele>79.97022</ele>
        <time>2020-09-22T09:21:27.378Z</time>
      </trkpt>
      <trkpt lat="66.2136" lon="20.84235">
        <ele>79.682797</ele>
        <time>2020-09-22T09:21:29.370Z</time>
      </trkpt>
      <trkpt lat="66.21351" lon="20.8422">
        <ele>79.402166</ele>
        <time>2020-09-22T09:21:31.394Z</time>
      </trkpt>
      <trkpt lat="66.21343" lon="20.84206">
        <ele>79.132098</ele>
        <time>2020-09-22T09:21:33.366Z</time>
      </trkpt>
      <trkpt lat="66.21335" lon="20.84191">
        <ele>78.85656</ele>
        <time>2020-09-22T09:21:35.389Z</time>
      </trkpt>
      <trkpt lat="66.21327" lon="20.84177">
        <ele>78.588067</ele>
        <time>2020-09-22T09:21:37.369Z</time>
      </trkpt>
      <trkpt lat="66.21319" lon="20.84163">
        <ele>78.324069</ele>
        <time>2020-09-22T09:21:39.383Z</time>
      </trkpt>
      <trkpt lat="66.21311" lon="20.84149">
        <ele>78.050779</ele>
        <time>2020-09-22T09:21:41.358Z</time>
      </trkpt>
      <trkpt lat="66.21303" lon="20.84136">
        <ele>77.788221</ele>
        <time>2020-09-22T09:21:43.369Z</time>
      </trkpt>
      <trkpt lat="66.21295" lon="20.84125">
        <ele>77.537406</ele>
        <time>2020-09-22T09:21:45.367Z</time>
      </trkpt>
      <trkpt lat="66.21284" lon="20.84109">
        <ele>77.678275</ele>
        <time>2020-09-22T09:21:48.354Z</time>
      </trkpt>
      <trkpt lat="66.21274" lon="20.84094">
        <ele>78.061735</ele>
        <time>2020-09-22T09:21:51.368Z</time>
      </trkpt>
      <trkpt lat="66.21263" lon="20.84081">
        <ele>78.455211</ele>
        <time>2020-09-22T09:21:54.368Z</time>
      </trkpt>
      <trkpt lat="66.21251" lon="20.84068">
        <ele>78.876425</ele>
        <time>2020-09-22T09:21:57.416Z</time>
      </trkpt>
      <trkpt lat="66.21239" lon="20.84057">
        <ele>79.297378</ele>
        <time>2020-09-22T09:22:00.396Z</time>
      </trkpt>
      <trkpt lat="66.21227" lon="20.84049">
        <ele>79.727305</ele>
        <time>2020-09-22T09:22:03.360Z</time>
      </trkpt>
      <trkpt lat="66.21215" lon="20.84039">
        <ele>80.144905</ele>
        <time>2020-09-22T09:22:06.376Z</time>
      </trkpt>
      <trkpt lat="66.21203" lon="20.84029">
        <ele>80.538027</ele>
        <time>2020-09-22T09:22:09.363Z</time>
      </trkpt>
      <trkpt lat="66.21192" lon="20.84019">
        <ele>80.924015</ele>
        <time>2020-09-22T09:22:12.361Z</time>
      </trkpt>
      <trkpt lat="66.21181" lon="20.84011">
        <ele>81.315223</ele>
        <time>2020-09-22T09:22:15.382Z</time>
      </trkpt>
      <trkpt lat="66.2117" lon="20.84006">
        <ele>81.694805</ele>
        <time>2020-09-22T09:22:18.379Z</time>
      </trkpt>
      <trkpt lat="66.21159" lon="20.84">
        <ele>82.05051</ele>
        <time>2020-09-22T09:22:21.362Z</time>
      </trkpt>
      <trkpt lat="66.21148" lon="20.83996">
        <ele>82.404006</ele>
        <time>2020-09-22T09:22:24.368Z</time>
      </trkpt>
      <trkpt lat="66.21137" lon="20.83993">
        <ele>82.774296</ele>
        <time>2020-09-22T09:22:27.369Z</time>
      </trkpt>
      <trkpt lat="66.21125" lon="20.83991">
        <ele>83.162675</ele>
        <time>2020-09-22T09:22:30.383Z</time>
      </trkpt>
      <trkpt lat="66.21113" lon="20.83989">
        <ele>83.581933</ele>
        <time>2020-09-22T09:22:33.384Z</time>
      </trkpt>
      <trkpt lat="66.21101" lon="20.83987">
        <ele>83.989698</ele>
        <time>2020-09-22T09:22:36.416Z</time>
      </trkpt>
      <trkpt lat="66.21089" lon="20.83985">
        <ele>84.400874</ele>
        <time>2020-09-22T09:22:39.375Z</time>
      </trkpt>
      <trkpt lat="66.21076" lon="20.83984">
        <ele>84.835274</ele>
        <time>2020-09-22T09:22:42.376Z</time>
      </trkpt>
      <trkpt lat="66.21067" lon="20.83985">
        <ele>85.164041</ele>
        <time>2020-09-22T09:22:44.368Z</time>
      </trkpt>
      <trkpt lat="66.21057" lon="20.83986">
        <ele>85.506386</ele>
        <time>2020-09-22T09:22:46.371Z</time>
      </trkpt>
      <trkpt lat="66.21047" lon="20.83987">
        <ele>85.848361</ele>
        <time>2020-09-22T09:22:48.365Z</time>
      </trkpt>
      <trkpt lat="66.21037" lon="20.83987">
        <ele>86.186862</ele>
        <time>2020-09-22T09:22:50.356Z</time>
      </trkpt>
      <trkpt lat="66.21027" lon="20.83988">
        <ele>86.528873</ele>
        <time>2020-09-22T09:22:52.381Z</time>
      </trkpt>
      <trkpt lat="66.21017" lon="20.83989">
        <ele>86.881274</ele>
        <time>2020-09-22T09:22:54.399Z</time>
      </trkpt>
      <trkpt lat="66.21007" lon="20.83991">
        <ele>87.21372</ele>
        <time>2020-09-22T09:22:56.360Z</time>
      </trkpt>
      <trkpt lat="66.20997" lon="20.83993">
        <ele>87.540474</ele>
        <time>2020-09-22T09:22:58.355Z</time>
      </trkpt>
      <trkpt lat="66.20988" lon="20.83995">
        <ele>87.870073</ele>
        <time>2020-09-22T09:23:00.377Z</time>
      </trkpt>
      <trkpt lat="66.20979" lon="20.83997">
        <ele>88.182168</ele>
        <time>2020-09-22T09:23:02.357Z</time>
      </trkpt>
      <trkpt lat="66.2097" lon="20.83999">
        <ele>88.49475</ele>
        <time>2020-09-22T09:23:04.361Z</time>
      </trkpt>
      <trkpt lat="66.2096" lon="20.84002">
        <ele>88.811012</ele>
        <time>2020-09-22T09:23:06.429Z</time>
      </trkpt>
      <trkpt lat="66.20948" lon="20.84005">
        <ele>89.24338</ele>
        <time>2020-09-22T09:23:09.355Z</time>
      </trkpt>
      <trkpt lat="66.20936" lon="20.84006">
        <ele>89.637214</ele>
        <time>2020-09-22T09:23:12.366Z</time>
      </trkpt>
      <trkpt lat="66.20926" lon="20.84008">
        <ele>89.982656</ele>
        <time>2020-09-22T09:23:15.408Z</time>
      </trkpt>
      <trkpt lat="66.20915" lon="20.8401">
        <ele>90.379939</ele>
        <time>2020-09-22T09:23:19.378Z</time>
      </trkpt>
      <trkpt lat="66.20903" lon="20.84012">
        <ele>90.786907</ele>
        <time>2020-09-22T09:23:23.369Z</time>
      </trkpt>
      <trkpt lat="66.20893" lon="20.84014">
        <ele>91.108971</ele>
        <time>2020-09-22T09:23:26.359Z</time>
      </trkpt>
      <trkpt lat="66.20883" lon="20.84015">
        <ele>91.447952</ele>
        <time>2020-09-22T09:23:29.376Z</time>
      </trkpt>
      <trkpt lat="66.20873" lon="20.84016">
        <ele>91.786204</ele>
        <time>2020-09-22T09:23:32.412Z</time>
      </trkpt>
      <trkpt lat="66.20864" lon="20.84018">
        <ele>92.11556</ele>
        <time>2020-09-22T09:23:35.384Z</time>
      </trkpt>
      <trkpt lat="66.20854" lon="20.84021">
        <ele>92.441796</ele>
        <time>2020-09-22T09:23:38.391Z</time>
      </trkpt>
      <trkpt lat="66.20844" lon="20.84023">
        <ele>92.787798</ele>
        <time>2020-09-22T09:23:41.378Z</time>
      </trkpt>
      <trkpt lat="66.20834" lon="20.84024">
        <ele>93.136507</ele>
        <time>2020-09-22T09:23:44.360Z</time>
      </trkpt>
      <trkpt lat="66.20825" lon="20.84024">
        <ele>93.457509</ele>
        <time>2020-09-22T09:23:47.372Z</time>
      </trkpt>
      <trkpt lat="66.20814" lon="20.84025">
        <ele>93.806286</ele>
        <time>2020-09-22T09:23:50.380Z</time>
      </trkpt>
      <trkpt lat="66.20805" lon="20.84027">
        <ele>94.121046</ele>
        <time>2020-09-22T09:23:53.373Z</time>
      </trkpt>
      <trkpt lat="66.20794" lon="20.8403">
        <ele>94.520096</ele>
        <time>2020-09-22T09:23:57.384Z</time>
      </trkpt>
      <trkpt lat="66.20785" lon="20.84031">
        <ele>94.827743</ele>
        <time>2020-09-22T09:24:00.370Z</time>
      </trkpt>
      <trkpt lat="66.20775" lon="20.84033">
        <ele>95.142889</ele>
        <time>2020-09-22T09:24:03.369Z</time>
      </trkpt>
      <trkpt lat="66.20764" lon="20.84035">
        <ele>95.546786</ele>
        <time>2020-09-22T09:24:07.356Z</time>
      </trkpt>
      <trkpt lat="66.20754" lon="20.84036">
        <ele>95.573544</ele>
        <time>2020-09-22T09:24:10.357Z</time>
      </trkpt>
      <trkpt lat="66.20744" lon="20.84039">
        <ele>95.528785</ele>
        <time>2020-09-22T09:24:13.393Z</time>
      </trkpt>
      <trkpt lat="66.20734" lon="20.84039">
        <ele>95.485108</ele>
        <time>2020-09-22T09:24:16.363Z</time>
      </trkpt>
      <trkpt lat="66.20724" lon="20.84041">
        <ele>95.442656</ele>
        <time>2020-09-22T09:24:19.392Z</time>
      </trkpt>
      <trkpt lat="66.20714" lon="20.84041">
        <ele>95.39986</ele>
        <time>2020-09-22T09:24:22.411Z</time>
      </trkpt>
      <trkpt lat="66.20703" lon="20.84043">
        <ele>95.351296</ele>
        <time>2020-09-22T09:24:25.380Z</time>
      </trkpt>
      <trkpt lat="66.20692" lon="20.84044">
        <ele>95.303188</ele>
        <time>2020-09-22T09:24:28.363Z</time>
      </trkpt>
      <trkpt lat="66.20682" lon="20.84046">
        <ele>95.258969</ele>
        <time>2020-09-22T09:24:31.376Z</time>
      </trkpt>
      <trkpt lat="66.20672" lon="20.84047">
        <ele>95.213477</ele>
        <time>2020-09-22T09:24:34.360Z</time>
      </trkpt>
      <trkpt lat="66.20661" lon="20.84049">
        <ele>95.165403</ele>
        <time>2020-09-22T09:24:37.381Z</time>
      </trkpt>
      <trkpt lat="66.20649" lon="20.8405">
        <ele>95.115576</ele>
        <time>2020-09-22T09:24:40.399Z</time>
      </trkpt>
      <trkpt lat="66.20637" lon="20.8405">
        <ele>95.063164</ele>
        <time>2020-09-22T09:24:43.373Z</time>
      </trkpt>
      <trkpt lat="66.20625" lon="20.84052">
        <ele>95.011079</ele>
        <time>2020-09-22T09:24:46.356Z</time>
      </trkpt>
      <trkpt lat="66.20613" lon="20.84054">
        <ele>94.957675</ele>
        <time>2020-09-22T09:24:49.393Z</time>
      </trkpt>
      <trkpt lat="66.20604" lon="20.84058">
        <ele>94.917131</ele>
        <time>2020-09-22T09:24:51.420Z</time>
      </trkpt>
      <trkpt lat="66.20595" lon="20.84061">
        <ele>94.87608</ele>
        <time>2020-09-22T09:24:53.362Z</time>
      </trkpt>
      <trkpt lat="66.20585" lon="20.84063">
        <ele>94.835267</ele>
        <time>2020-09-22T09:24:55.375Z</time>
      </trkpt>
      <trkpt lat="66.20576" lon="20.84064">
        <ele>94.831718</ele>
        <time>2020-09-22T09:24:57.388Z</time>
      </trkpt>
      <trkpt lat="66.20563" lon="20.84065">
        <ele>94.850403</ele>
        <time>2020-09-22T09:25:00.381Z</time>
      </trkpt>
      <trkpt lat="66.20549" lon="20.84068">
        <ele>94.869555</ele>
        <time>2020-09-22T09:25:03.390Z</time>
      </trkpt>
      <trkpt lat="66.2054" lon="20.8407">
        <ele>94.882937</ele>
        <time>2020-09-22T09:25:05.399Z</time>
      </trkpt>
      <trkpt lat="66.2053" lon="20.84071">
        <ele>94.89587</ele>
        <time>2020-09-22T09:25:07.362Z</time>
      </trkpt>
      <trkpt lat="66.20517" lon="20.84073">
        <ele>94.914873</ele>
        <time>2020-09-22T09:25:10.388Z</time>
      </trkpt>
      <trkpt lat="66.20504" lon="20.84074">
        <ele>94.93285</ele>
        <time>2020-09-22T09:25:13.359Z</time>
      </trkpt>
      <trkpt lat="66.20495" lon="20.84075">
        <ele>94.945642</ele>
        <time>2020-09-22T09:25:15.380Z</time>
      </trkpt>
      <trkpt lat="66.20485" lon="20.84075">
        <ele>94.959402</ele>
        <time>2020-09-22T09:25:17.364Z</time>
      </trkpt>
      <trkpt lat="66.20476" lon="20.84076">
        <ele>94.972461</ele>
        <time>2020-09-22T09:25:19.362Z</time>
      </trkpt>
      <trkpt lat="66.20466" lon="20.84077">
        <ele>94.986514</ele>
        <time>2020-09-22T09:25:21.355Z</time>
      </trkpt>
      <trkpt lat="66.20456" lon="20.84079">
        <ele>95.000176</ele>
        <time>2020-09-22T09:25:23.383Z</time>
      </trkpt>
      <trkpt lat="66.20447" lon="20.8408">
        <ele>95.013248</ele>
        <time>2020-09-22T09:25:25.381Z</time>
      </trkpt>
      <trkpt lat="66.20434" lon="20.84081">
        <ele>95.032073</ele>
        <time>2020-09-22T09:25:28.386Z</time>
      </trkpt>
      <trkpt lat="66.2042" lon="20.84081">
        <ele>95.05075</ele>
        <time>2020-09-22T09:25:31.369Z</time>
      </trkpt>
      <trkpt lat="66.20411" lon="20.84082">
        <ele>95.064241</ele>
        <time>2020-09-22T09:25:33.379Z</time>
      </trkpt>
      <trkpt lat="66.20401" lon="20.84082">
        <ele>95.0774</ele>
        <time>2020-09-22T09:25:35.359Z</time>
      </trkpt>
      <trkpt lat="66.20391" lon="20.84082">
        <ele>95.087443</ele>
        <time>2020-09-22T09:25:37.375Z</time>
      </trkpt>
      <trkpt lat="66.20381" lon="20.84081">
        <ele>95.097907</ele>
        <time>2020-09-22T09:25:39.398Z</time>
      </trkpt>
      <trkpt lat="66.20371" lon="20.84081">
        <ele>95.108475</ele>
        <time>2020-09-22T09:25:41.379Z</time>
      </trkpt>
      <trkpt lat="66.20361" lon="20.8408">
        <ele>95.119256</ele>
        <time>2020-09-22T09:25:43.364Z</time>
      </trkpt>
      <trkpt lat="66.2035" lon="20.84079">
        <ele>95.130037</ele>
        <time>2020-09-22T09:25:45.360Z</time>
      </trkpt>
      <trkpt lat="66.20341" lon="20.84077">
        <ele>95.140427</ele>
        <time>2020-09-22T09:25:47.388Z</time>
      </trkpt>
      <trkpt lat="66.20331" lon="20.84075">
        <ele>95.150001</ele>
        <time>2020-09-22T09:25:49.371Z</time>
      </trkpt>
      <trkpt lat="66.20322" lon="20.84073">
        <ele>95.159666</ele>
        <time>2020-09-22T09:25:51.387Z</time>
      </trkpt>
      <trkpt lat="66.20313" lon="20.84071">
        <ele>95.169115</ele>
        <time>2020-09-22T09:25:53.366Z</time>
      </trkpt>
      <trkpt lat="66.20304" lon="20.84068">
        <ele>95.178822</ele>
        <time>2020-09-22T09:25:55.386Z</time>
      </trkpt>
      <trkpt lat="66.20295" lon="20.84065">
        <ele>95.188437</ele>
        <time>2020-09-22T09:25:57.371Z</time>
      </trkpt>
      <trkpt lat="66.20282" lon="20.84062">
        <ele>95.202303</ele>
        <time>2020-09-22T09:26:00.364Z</time>
      </trkpt>
      <trkpt lat="66.20273" lon="20.8406">
        <ele>95.21186</ele>
        <time>2020-09-22T09:26:02.409Z</time>
      </trkpt>
      <trkpt lat="66.2026" lon="20.84055">
        <ele>95.225403</ele>
        <time>2020-09-22T09:26:05.381Z</time>
      </trkpt>
      <trkpt lat="66.20251" lon="20.84052">
        <ele>95.235198</ele>
        <time>2020-09-22T09:26:07.373Z</time>
      </trkpt>
      <trkpt lat="66.20242" lon="20.84049">
        <ele>95.244619</ele>
        <time>2020-09-22T09:26:09.400Z</time>
      </trkpt>
      <trkpt lat="66.20232" lon="20.84046">
        <ele>95.254435</ele>
        <time>2020-09-22T09:26:11.367Z</time>
      </trkpt>
      <trkpt lat="66.20223" lon="20.84042">
        <ele>95.288669</ele>
        <time>2020-09-22T09:26:13.390Z</time>
      </trkpt>
      <trkpt lat="66.20214" lon="20.84038">
        <ele>95.572714</ele>
        <time>2020-09-22T09:26:15.381Z</time>
      </trkpt>
      <trkpt lat="66.20204" lon="20.84034">
        <ele>95.853281</ele>
        <time>2020-09-22T09:26:17.395Z</time>
      </trkpt>
      <trkpt lat="66.20195" lon="20.84031">
        <ele>96.136083</ele>
        <time>2020-09-22T09:26:19.383Z</time>
      </trkpt>
      <trkpt lat="66.20185" lon="20.84028">
        <ele>96.436906</ele>
        <time>2020-09-22T09:26:21.369Z</time>
      </trkpt>
      <trkpt lat="66.20175" lon="20.84024">
        <ele>96.714558</ele>
        <time>2020-09-22T09:26:23.364Z</time>
      </trkpt>
      <trkpt lat="66.20166" lon="20.84022">
        <ele>96.989915</ele>
        <time>2020-09-22T09:26:25.355Z</time>
      </trkpt>
      <trkpt lat="66.20153" lon="20.84018">
        <ele>97.377104</ele>
        <time>2020-09-22T09:26:28.370Z</time>
      </trkpt>
      <trkpt lat="66.20142" lon="20.84012">
        <ele>97.717025</ele>
        <time>2020-09-22T09:26:31.396Z</time>
      </trkpt>
      <trkpt lat="66.2013" lon="20.8401">
        <ele>98.051281</ele>
        <time>2020-09-22T09:26:34.397Z</time>
      </trkpt>
      <trkpt lat="66.20119" lon="20.84006">
        <ele>98.376137</ele>
        <time>2020-09-22T09:26:37.358Z</time>
      </trkpt>
      <trkpt lat="66.20109" lon="20.84001">
        <ele>98.699584</ele>
        <time>2020-09-22T09:26:40.374Z</time>
      </trkpt>
      <trkpt lat="66.20099" lon="20.83998">
        <ele>98.999501</ele>
        <time>2020-09-22T09:26:43.380Z</time>
      </trkpt>
      <trkpt lat="66.20087" lon="20.83995">
        <ele>99.340988</ele>
        <time>2020-09-22T09:26:46.391Z</time>
      </trkpt>
      <trkpt lat="66.20075" lon="20.83991">
        <ele>99.689542</ele>
        <time>2020-09-22T09:26:49.381Z</time>
      </trkpt>
      <trkpt lat="66.20063" lon="20.83986">
        <ele>100.051993</ele>
        <time>2020-09-22T09:26:52.359Z</time>
      </trkpt>
      <trkpt lat="66.2005" lon="20.83982">
        <ele>100.446391</ele>
        <time>2020-09-22T09:26:55.357Z</time>
      </trkpt>
      <trkpt lat="66.2004" lon="20.83981">
        <ele>100.473046</ele>
        <time>2020-09-22T09:26:57.380Z</time>
      </trkpt>
      <trkpt lat="66.20031" lon="20.83977">
        <ele>100.303455</ele>
        <time>2020-09-22T09:26:59.397Z</time>
      </trkpt>
      <trkpt lat="66.20018" lon="20.83971">
        <ele>100.078001</ele>
        <time>2020-09-22T09:27:02.364Z</time>
      </trkpt>
      <trkpt lat="66.20007" lon="20.83966">
        <ele>99.875197</ele>
        <time>2020-09-22T09:27:05.383Z</time>
      </trkpt>
      <trkpt lat="66.19996" lon="20.83965">
        <ele>99.687725</ele>
        <time>2020-09-22T09:27:08.389Z</time>
      </trkpt>
      <trkpt lat="66.19985" lon="20.83966">
        <ele>99.498533</ele>
        <time>2020-09-22T09:27:11.378Z</time>
      </trkpt>
      <trkpt lat="66.19975" lon="20.83966">
        <ele>99.311073</ele>
        <time>2020-09-22T09:27:14.360Z</time>
      </trkpt>
      <trkpt lat="66.19964" lon="20.83968">
        <ele>99.123204</ele>
        <time>2020-09-22T09:27:17.363Z</time>
      </trkpt>
      <trkpt lat="66.19953" lon="20.83971">
        <ele>98.92601</ele>
        <time>2020-09-22T09:27:20.378Z</time>
      </trkpt>
      <trkpt lat="66.19941" lon="20.83974">
        <ele>98.728169</ele>
        <time>2020-09-22T09:27:23.369Z</time>
      </trkpt>
      <trkpt lat="66.19929" lon="20.83976">
        <ele>98.505152</ele>
        <time>2020-09-22T09:27:26.405Z</time>
      </trkpt>
      <trkpt lat="66.1992" lon="20.83981">
        <ele>98.341149</ele>
        <time>2020-09-22T09:27:28.374Z</time>
      </trkpt>
      <trkpt lat="66.19909" lon="20.83986">
        <ele>98.160585</ele>
        <time>2020-09-22T09:27:30.408Z</time>
      </trkpt>
      <trkpt lat="66.19898" lon="20.83994">
        <ele>97.949078</ele>
        <time>2020-09-22T09:27:32.362Z</time>
      </trkpt>
      <trkpt lat="66.19885" lon="20.84006">
        <ele>97.705146</ele>
        <time>2020-09-22T09:27:34.377Z</time>
      </trkpt>
      <trkpt lat="66.1987" lon="20.84019">
        <ele>97.433378</ele>
        <time>2020-09-22T09:27:36.372Z</time>
      </trkpt>
      <trkpt lat="66.19854" lon="20.84035">
        <ele>96.619556</ele>
        <time>2020-09-22T09:27:38.381Z</time>
      </trkpt>
      <trkpt lat="66.1984" lon="20.84049">
        <ele>95.833559</ele>
        <time>2020-09-22T09:27:40.389Z</time>
      </trkpt>
      <trkpt lat="66.19827" lon="20.84063">
        <ele>95.12396</ele>
        <time>2020-09-22T09:27:42.386Z</time>
      </trkpt>
      <trkpt lat="66.19815" lon="20.84075">
        <ele>94.525068</ele>
        <time>2020-09-22T09:27:44.402Z</time>
      </trkpt>
      <trkpt lat="66.19806" lon="20.84085">
        <ele>94.010905</ele>
        <time>2020-09-22T09:27:46.393Z</time>
      </trkpt>
      <trkpt lat="66.19795" lon="20.84099">
        <ele>93.388905</ele>
        <time>2020-09-22T09:27:49.377Z</time>
      </trkpt>
      <trkpt lat="66.19785" lon="20.84111">
        <ele>92.835234</ele>
        <time>2020-09-22T09:27:52.358Z</time>
      </trkpt>
      <trkpt lat="66.19774" lon="20.84122">
        <ele>92.277642</ele>
        <time>2020-09-22T09:27:55.368Z</time>
      </trkpt>
      <trkpt lat="66.19763" lon="20.84133">
        <ele>91.693992</ele>
        <time>2020-09-22T09:27:58.362Z</time>
      </trkpt>
      <trkpt lat="66.19752" lon="20.84146">
        <ele>91.083509</ele>
        <time>2020-09-22T09:28:01.402Z</time>
      </trkpt>
      <trkpt lat="66.1974" lon="20.8416">
        <ele>90.421819</ele>
        <time>2020-09-22T09:28:04.373Z</time>
      </trkpt>
      <trkpt lat="66.19731" lon="20.8417">
        <ele>89.926587</ele>
        <time>2020-09-22T09:28:06.374Z</time>
      </trkpt>
      <trkpt lat="66.19722" lon="20.84179">
        <ele>89.434668</ele>
        <time>2020-09-22T09:28:08.363Z</time>
      </trkpt>
      <trkpt lat="66.19713" lon="20.84188">
        <ele>88.981659</ele>
        <time>2020-09-22T09:28:10.389Z</time>
      </trkpt>
      <trkpt lat="66.19705" lon="20.84196">
        <ele>88.530817</ele>
        <time>2020-09-22T09:28:12.389Z</time>
      </trkpt>
      <trkpt lat="66.19696" lon="20.84204">
        <ele>88.713622</ele>
        <time>2020-09-22T09:28:14.355Z</time>
      </trkpt>
      <trkpt lat="66.19688" lon="20.84213">
        <ele>88.945374</ele>
        <time>2020-09-22T09:28:16.388Z</time>
      </trkpt>
      <trkpt lat="66.19676" lon="20.84224">
        <ele>89.280694</ele>
        <time>2020-09-22T09:28:19.396Z</time>
      </trkpt>
      <trkpt lat="66.19667" lon="20.84232">
        <ele>89.511988</ele>
        <time>2020-09-22T09:28:21.386Z</time>
      </trkpt>
      <trkpt lat="66.19656" lon="20.84243">
        <ele>89.815367</ele>
        <time>2020-09-22T09:28:24.368Z</time>
      </trkpt>
      <trkpt lat="66.19644" lon="20.84252">
        <ele>90.138245</ele>
        <time>2020-09-22T09:28:27.384Z</time>
      </trkpt>
      <trkpt lat="66.19636" lon="20.84258">
        <ele>90.369113</ele>
        <time>2020-09-22T09:28:29.390Z</time>
      </trkpt>
      <trkpt lat="66.19626" lon="20.84264">
        <ele>90.616462</ele>
        <time>2020-09-22T09:28:31.373Z</time>
      </trkpt>
      <trkpt lat="66.19617" lon="20.84269">
        <ele>90.854027</ele>
        <time>2020-09-22T09:28:33.368Z</time>
      </trkpt>
      <trkpt lat="66.19608" lon="20.84274">
        <ele>91.091592</ele>
        <time>2020-09-22T09:28:35.376Z</time>
      </trkpt>
      <trkpt lat="66.19599" lon="20.84277">
        <ele>91.329745</ele>
        <time>2020-09-22T09:28:37.361Z</time>
      </trkpt>
      <trkpt lat="66.1959" lon="20.84281">
        <ele>91.559681</ele>
        <time>2020-09-22T09:28:39.374Z</time>
      </trkpt>
      <trkpt lat="66.19581" lon="20.84284">
        <ele>91.797345</ele>
        <time>2020-09-22T09:28:41.376Z</time>
      </trkpt>
      <trkpt lat="66.19572" lon="20.84288">
        <ele>92.027441</ele>
        <time>2020-09-22T09:28:43.376Z</time>
      </trkpt>
      <trkpt lat="66.1956" lon="20.84292">
        <ele>92.332447</ele>
        <time>2020-09-22T09:28:46.355Z</time>
      </trkpt>
      <trkpt lat="66.19548" lon="20.84297">
        <ele>92.630054</ele>
        <time>2020-09-22T09:28:49.404Z</time>
      </trkpt>
      <trkpt lat="66.19536" lon="20.843">
        <ele>92.943308</ele>
        <time>2020-09-22T09:28:52.379Z</time>
      </trkpt>
      <trkpt lat="66.19524" lon="20.84303">
        <ele>93.302577</ele>
        <time>2020-09-22T09:28:55.370Z</time>
      </trkpt>
      <trkpt lat="66.19511" lon="20.84305">
        <ele>93.702812</ele>
        <time>2020-09-22T09:28:58.387Z</time>
      </trkpt>
      <trkpt lat="66.19498" lon="20.84308">
        <ele>94.107026</ele>
        <time>2020-09-22T09:29:01.375Z</time>
      </trkpt>
      <trkpt lat="66.19489" lon="20.84311">
        <ele>94.386761</ele>
        <time>2020-09-22T09:29:03.362Z</time>
      </trkpt>
      <trkpt lat="66.1948" lon="20.84313">
        <ele>94.669963</ele>
        <time>2020-09-22T09:29:05.371Z</time>
      </trkpt>
      <trkpt lat="66.19471" lon="20.84317">
        <ele>94.956513</ele>
        <time>2020-09-22T09:29:07.375Z</time>
      </trkpt>
      <trkpt lat="66.19458" lon="20.84324">
        <ele>95.354108</ele>
        <time>2020-09-22T09:29:10.371Z</time>
      </trkpt>
      <trkpt lat="66.19446" lon="20.84329">
        <ele>95.742907</ele>
        <time>2020-09-22T09:29:13.389Z</time>
      </trkpt>
      <trkpt lat="66.19437" lon="20.84332">
        <ele>96.024323</ele>
        <time>2020-09-22T09:29:15.362Z</time>
      </trkpt>
      <trkpt lat="66.19427" lon="20.84335">
        <ele>96.32932</ele>
        <time>2020-09-22T09:29:17.393Z</time>
      </trkpt>
      <trkpt lat="66.19416" lon="20.84338">
        <ele>96.652901</ele>
        <time>2020-09-22T09:29:19.372Z</time>
      </trkpt>
      <trkpt lat="66.19406" lon="20.8434">
        <ele>96.982378</ele>
        <time>2020-09-22T09:29:21.400Z</time>
      </trkpt>
      <trkpt lat="66.19395" lon="20.84343">
        <ele>97.318262</ele>
        <time>2020-09-22T09:29:23.370Z</time>
      </trkpt>
      <trkpt lat="66.19384" lon="20.84347">
        <ele>97.6618</ele>
        <time>2020-09-22T09:29:25.414Z</time>
      </trkpt>
      <trkpt lat="66.19373" lon="20.84351">
        <ele>97.99939</ele>
        <time>2020-09-22T09:29:27.360Z</time>
      </trkpt>
      <trkpt lat="66.19363" lon="20.84354">
        <ele>98.323549</ele>
        <time>2020-09-22T09:29:29.369Z</time>
      </trkpt>
      <trkpt lat="66.19353" lon="20.84358">
        <ele>98.636482</ele>
        <time>2020-09-22T09:29:31.369Z</time>
      </trkpt>
      <trkpt lat="66.19343" lon="20.8436">
        <ele>98.531539</ele>
        <time>2020-09-22T09:29:33.371Z</time>
      </trkpt>
      <trkpt lat="66.19332" lon="20.84365">
        <ele>98.395607</ele>
        <time>2020-09-22T09:29:35.396Z</time>
      </trkpt>
      <trkpt lat="66.19322" lon="20.84368">
        <ele>98.266736</ele>
        <time>2020-09-22T09:29:37.358Z</time>
      </trkpt>
      <trkpt lat="66.19313" lon="20.8437">
        <ele>98.148554</ele>
        <time>2020-09-22T09:29:39.361Z</time>
      </trkpt>
      <trkpt lat="66.193" lon="20.84373">
        <ele>97.982493</ele>
        <time>2020-09-22T09:29:42.378Z</time>
      </trkpt>
      <trkpt lat="66.19289" lon="20.84375">
        <ele>97.831295</ele>
        <time>2020-09-22T09:29:45.382Z</time>
      </trkpt>
      <trkpt lat="66.19277" lon="20.84378">
        <ele>97.676731</ele>
        <time>2020-09-22T09:29:48.392Z</time>
      </trkpt>
      <trkpt lat="66.19265" lon="20.84382">
        <ele>97.517949</ele>
        <time>2020-09-22T09:29:51.378Z</time>
      </trkpt>
      <trkpt lat="66.19253" lon="20.84386">
        <ele>97.368193</ele>
        <time>2020-09-22T09:29:54.389Z</time>
      </trkpt>
      <trkpt lat="66.19242" lon="20.8439">
        <ele>97.220623</ele>
        <time>2020-09-22T09:29:57.382Z</time>
      </trkpt>
      <trkpt lat="66.19231" lon="20.84394">
        <ele>97.074909</ele>
        <time>2020-09-22T09:30:00.375Z</time>
      </trkpt>
      <trkpt lat="66.19219" lon="20.84396">
        <ele>96.925851</ele>
        <time>2020-09-22T09:30:03.363Z</time>
      </trkpt>
      <trkpt lat="66.19208" lon="20.84398">
        <ele>96.783443</ele>
        <time>2020-09-22T09:30:06.370Z</time>
      </trkpt>
      <trkpt lat="66.19197" lon="20.84402">
        <ele>96.644262</ele>
        <time>2020-09-22T09:30:09.369Z</time>
      </trkpt>
      <trkpt lat="66.19187" lon="20.84406">
        <ele>96.503149</ele>
        <time>2020-09-22T09:30:12.368Z</time>
      </trkpt>
      <trkpt lat="66.19175" lon="20.84409">
        <ele>96.352373</ele>
        <time>2020-09-22T09:30:15.384Z</time>
      </trkpt>
      <trkpt lat="66.19164" lon="20.84412">
        <ele>96.525496</ele>
        <time>2020-09-22T09:30:18.388Z</time>
      </trkpt>
      <trkpt lat="66.19153" lon="20.84415">
        <ele>96.737921</ele>
        <time>2020-09-22T09:30:21.359Z</time>
      </trkpt>
      <trkpt lat="66.19142" lon="20.84417">
        <ele>96.956415</ele>
        <time>2020-09-22T09:30:24.396Z</time>
      </trkpt>
      <trkpt lat="66.19131" lon="20.84421">
        <ele>97.179681</ele>
        <time>2020-09-22T09:30:27.368Z</time>
      </trkpt>
      <trkpt lat="66.1912" lon="20.84424">
        <ele>97.383417</ele>
        <time>2020-09-22T09:30:30.385Z</time>
      </trkpt>
      <trkpt lat="66.1911" lon="20.84427">
        <ele>97.581013</ele>
        <time>2020-09-22T09:30:33.373Z</time>
      </trkpt>
      <trkpt lat="66.19101" lon="20.8443">
        <ele>97.774245</ele>
        <time>2020-09-22T09:30:36.363Z</time>
      </trkpt>
      <trkpt lat="66.19091" lon="20.84434">
        <ele>97.972504</ele>
        <time>2020-09-22T09:30:39.380Z</time>
      </trkpt>
      <trkpt lat="66.19079" lon="20.84439">
        <ele>98.193051</ele>
        <time>2020-09-22T09:30:42.401Z</time>
      </trkpt>
      <trkpt lat="66.19068" lon="20.84442">
        <ele>98.418363</ele>
        <time>2020-09-22T09:30:45.376Z</time>
      </trkpt>
      <trkpt lat="66.19056" lon="20.84446">
        <ele>98.649216</ele>
        <time>2020-09-22T09:30:48.389Z</time>
      </trkpt>
      <trkpt lat="66.19044" lon="20.84449">
        <ele>98.89345</ele>
        <time>2020-09-22T09:30:51.374Z</time>
      </trkpt>
      <trkpt lat="66.19031" lon="20.84453">
        <ele>99.148854</ele>
        <time>2020-09-22T09:30:54.368Z</time>
      </trkpt>
      <trkpt lat="66.19018" lon="20.84457">
        <ele>99.399541</ele>
        <time>2020-09-22T09:30:57.360Z</time>
      </trkpt>
      <trkpt lat="66.19006" lon="20.84462">
        <ele>99.653237</ele>
        <time>2020-09-22T09:31:00.383Z</time>
      </trkpt>
      <trkpt lat="66.18993" lon="20.84465">
        <ele>99.857655</ele>
        <time>2020-09-22T09:31:03.361Z</time>
      </trkpt>
      <trkpt lat="66.18981" lon="20.8447">
        <ele>99.850276</ele>
        <time>2020-09-22T09:31:06.379Z</time>
      </trkpt>
      <trkpt lat="66.18969" lon="20.84474">
        <ele>99.842537</ele>
        <time>2020-09-22T09:31:09.392Z</time>
      </trkpt>
      <trkpt lat="66.18956" lon="20.84476">
        <ele>99.834858</ele>
        <time>2020-09-22T09:31:12.368Z</time>
      </trkpt>
      <trkpt lat="66.18943" lon="20.84479">
        <ele>99.826936</ele>
        <time>2020-09-22T09:31:15.370Z</time>
      </trkpt>
      <trkpt lat="66.18934" lon="20.84482">
        <ele>99.821373</ele>
        <time>2020-09-22T09:31:17.401Z</time>
      </trkpt>
      <trkpt lat="66.18921" lon="20.84486">
        <ele>99.813085</ele>
        <time>2020-09-22T09:31:20.364Z</time>
      </trkpt>
      <trkpt lat="66.18911" lon="20.84489">
        <ele>99.807287</ele>
        <time>2020-09-22T09:31:22.366Z</time>
      </trkpt>
      <trkpt lat="66.18902" lon="20.84492">
        <ele>99.801532</ele>
        <time>2020-09-22T09:31:24.382Z</time>
      </trkpt>
      <trkpt lat="66.18889" lon="20.84496">
        <ele>99.793454</ele>
        <time>2020-09-22T09:31:27.377Z</time>
      </trkpt>
      <trkpt lat="66.18876" lon="20.845">
        <ele>99.785739</ele>
        <time>2020-09-22T09:31:30.414Z</time>
      </trkpt>
      <trkpt lat="66.18864" lon="20.84503">
        <ele>99.778228</ele>
        <time>2020-09-22T09:31:33.354Z</time>
      </trkpt>
      <trkpt lat="66.18851" lon="20.84508">
        <ele>99.770171</ele>
        <time>2020-09-22T09:31:36.412Z</time>
      </trkpt>
      <trkpt lat="66.18842" lon="20.84511">
        <ele>99.764547</ele>
        <time>2020-09-22T09:31:38.369Z</time>
      </trkpt>
      <trkpt lat="66.18832" lon="20.84513">
        <ele>99.75844</ele>
        <time>2020-09-22T09:31:40.365Z</time>
      </trkpt>
      <trkpt lat="66.18821" lon="20.84516">
        <ele>99.751799</ele>
        <time>2020-09-22T09:31:42.372Z</time>
      </trkpt>
      <trkpt lat="66.1881" lon="20.84519">
        <ele>99.631939</ele>
        <time>2020-09-22T09:31:44.372Z</time>
      </trkpt>
      <trkpt lat="66.18799" lon="20.84522">
        <ele>99.431727</ele>
        <time>2020-09-22T09:31:46.387Z</time>
      </trkpt>
      <trkpt lat="66.18788" lon="20.84524">
        <ele>99.236993</ele>
        <time>2020-09-22T09:31:48.378Z</time>
      </trkpt>
      <trkpt lat="66.18778" lon="20.84527">
        <ele>99.051101</ele>
        <time>2020-09-22T09:31:50.354Z</time>
      </trkpt>
      <trkpt lat="66.18768" lon="20.8453">
        <ele>98.867322</ele>
        <time>2020-09-22T09:31:52.380Z</time>
      </trkpt>
      <trkpt lat="66.18758" lon="20.84533">
        <ele>98.688624</ele>
        <time>2020-09-22T09:31:54.371Z</time>
      </trkpt>
      <trkpt lat="66.18749" lon="20.84536">
        <ele>98.524104</ele>
        <time>2020-09-22T09:31:56.383Z</time>
      </trkpt>
      <trkpt lat="66.18737" lon="20.8454">
        <ele>98.297697</ele>
        <time>2020-09-22T09:31:59.375Z</time>
      </trkpt>
      <trkpt lat="66.18726" lon="20.84544">
        <ele>98.092378</ele>
        <time>2020-09-22T09:32:02.390Z</time>
      </trkpt>
      <trkpt lat="66.18714" lon="20.84547">
        <ele>97.887032</ele>
        <time>2020-09-22T09:32:05.386Z</time>
      </trkpt>
      <trkpt lat="66.18703" lon="20.84548">
        <ele>97.685628</ele>
        <time>2020-09-22T09:32:08.440Z</time>
      </trkpt>
      <trkpt lat="66.18692" lon="20.84552">
        <ele>97.474303</ele>
        <time>2020-09-22T09:32:11.371Z</time>
      </trkpt>
      <trkpt lat="66.1868" lon="20.84555">
        <ele>97.264242</ele>
        <time>2020-09-22T09:32:14.390Z</time>
      </trkpt>
      <trkpt lat="66.18669" lon="20.84558">
        <ele>97.056674</ele>
        <time>2020-09-22T09:32:17.385Z</time>
      </trkpt>
      <trkpt lat="66.18658" lon="20.84562">
        <ele>96.850103</ele>
        <time>2020-09-22T09:32:20.372Z</time>
      </trkpt>
      <trkpt lat="66.18647" lon="20.84567">
        <ele>96.651437</ele>
        <time>2020-09-22T09:32:23.362Z</time>
      </trkpt>
      <trkpt lat="66.18636" lon="20.84571">
        <ele>96.529972</ele>
        <time>2020-09-22T09:32:26.392Z</time>
      </trkpt>
      <trkpt lat="66.18625" lon="20.84573">
        <ele>96.732946</ele>
        <time>2020-09-22T09:32:29.389Z</time>
      </trkpt>
      <trkpt lat="66.18613" lon="20.84577">
        <ele>96.956158</ele>
        <time>2020-09-22T09:32:32.371Z</time>
      </trkpt>
      <trkpt lat="66.18602" lon="20.84581">
        <ele>97.17917</ele>
        <time>2020-09-22T09:32:35.365Z</time>
      </trkpt>
      <trkpt lat="66.1859" lon="20.84584">
        <ele>97.399468</ele>
        <time>2020-09-22T09:32:38.414Z</time>
      </trkpt>
      <trkpt lat="66.18579" lon="20.84586">
        <ele>97.613829</ele>
        <time>2020-09-22T09:32:41.409Z</time>
      </trkpt>
      <trkpt lat="66.18568" lon="20.8459">
        <ele>97.818489</ele>
        <time>2020-09-22T09:32:44.380Z</time>
      </trkpt>
      <trkpt lat="66.18557" lon="20.84595">
        <ele>98.015347</ele>
        <time>2020-09-22T09:32:47.409Z</time>
      </trkpt>
      <trkpt lat="66.18546" lon="20.84598">
        <ele>98.239682</ele>
        <time>2020-09-22T09:32:50.369Z</time>
      </trkpt>
      <trkpt lat="66.18533" lon="20.84602">
        <ele>98.479169</ele>
        <time>2020-09-22T09:32:53.366Z</time>
      </trkpt>
      <trkpt lat="66.18521" lon="20.84606">
        <ele>98.711975</ele>
        <time>2020-09-22T09:32:56.373Z</time>
      </trkpt>
      <trkpt lat="66.18508" lon="20.84609">
        <ele>98.951379</ele>
        <time>2020-09-22T09:32:59.366Z</time>
      </trkpt>
      <trkpt lat="66.18494" lon="20.84613">
        <ele>99.203909</ele>
        <time>2020-09-22T09:33:02.393Z</time>
      </trkpt>
      <trkpt lat="66.18481" lon="20.84615">
        <ele>99.451857</ele>
        <time>2020-09-22T09:33:05.397Z</time>
      </trkpt>
      <trkpt lat="66.18468" lon="20.84616">
        <ele>99.6976</ele>
        <time>2020-09-22T09:33:08.416Z</time>
      </trkpt>
      <trkpt lat="66.18459" lon="20.8462">
        <ele>99.865835</ele>
        <time>2020-09-22T09:33:10.377Z</time>
      </trkpt>
      <trkpt lat="66.18448" lon="20.84625">
        <ele>99.982658</ele>
        <time>2020-09-22T09:33:13.399Z</time>
      </trkpt>
      <trkpt lat="66.18437" lon="20.84629">
        <ele>100.092496</ele>
        <time>2020-09-22T09:33:16.358Z</time>
      </trkpt>
      <trkpt lat="66.18425" lon="20.84633">
        <ele>100.206691</ele>
        <time>2020-09-22T09:33:19.395Z</time>
      </trkpt>
      <trkpt lat="66.18414" lon="20.84635">
        <ele>100.317073</ele>
        <time>2020-09-22T09:33:22.360Z</time>
      </trkpt>
      <trkpt lat="66.18403" lon="20.84636">
        <ele>100.430367</ele>
        <time>2020-09-22T09:33:25.372Z</time>
      </trkpt>
      <trkpt lat="66.18391" lon="20.84638">
        <ele>100.543722</ele>
        <time>2020-09-22T09:33:28.386Z</time>
      </trkpt>
      <trkpt lat="66.18379" lon="20.84642">
        <ele>100.667099</ele>
        <time>2020-09-22T09:33:31.376Z</time>
      </trkpt>
      <trkpt lat="66.18367" lon="20.84647">
        <ele>100.78961</ele>
        <time>2020-09-22T09:33:34.375Z</time>
      </trkpt>
      <trkpt lat="66.18355" lon="20.8465">
        <ele>100.90656</ele>
        <time>2020-09-22T09:33:37.365Z</time>
      </trkpt>
      <trkpt lat="66.18344" lon="20.84654">
        <ele>101.02283</ele>
        <time>2020-09-22T09:33:40.367Z</time>
      </trkpt>
      <trkpt lat="66.18332" lon="20.84657">
        <ele>101.1415</ele>
        <time>2020-09-22T09:33:43.361Z</time>
      </trkpt>
      <trkpt lat="66.1832" lon="20.84662">
        <ele>101.258127</ele>
        <time>2020-09-22T09:33:46.382Z</time>
      </trkpt>
      <trkpt lat="66.18307" lon="20.84666">
        <ele>101.387401</ele>
        <time>2020-09-22T09:33:49.372Z</time>
      </trkpt>
      <trkpt lat="66.18294" lon="20.8467">
        <ele>101.514351</ele>
        <time>2020-09-22T09:33:52.401Z</time>
      </trkpt>
      <trkpt lat="66.18282" lon="20.84676">
        <ele>101.636858</ele>
        <time>2020-09-22T09:33:55.394Z</time>
      </trkpt>
      <trkpt lat="66.18271" lon="20.84683">
        <ele>101.514293</ele>
        <time>2020-09-22T09:33:58.352Z</time>
      </trkpt>
      <trkpt lat="66.18259" lon="20.84691">
        <ele>101.358418</ele>
        <time>2020-09-22T09:34:01.366Z</time>
      </trkpt>
      <trkpt lat="66.18248" lon="20.84699">
        <ele>101.200347</ele>
        <time>2020-09-22T09:34:04.433Z</time>
      </trkpt>
      <trkpt lat="66.18235" lon="20.84708">
        <ele>101.036887</ele>
        <time>2020-09-22T09:34:07.384Z</time>
      </trkpt>
      <trkpt lat="66.18223" lon="20.84717">
        <ele>100.867607</ele>
        <time>2020-09-22T09:34:10.378Z</time>
      </trkpt>
      <trkpt lat="66.18211" lon="20.84726">
        <ele>100.704637</ele>
        <time>2020-09-22T09:34:13.397Z</time>
      </trkpt>
      <trkpt lat="66.182" lon="20.84738">
        <ele>100.548258</ele>
        <time>2020-09-22T09:34:16.370Z</time>
      </trkpt>
      <trkpt lat="66.18189" lon="20.8475">
        <ele>100.391414</ele>
        <time>2020-09-22T09:34:19.430Z</time>
      </trkpt>
      <trkpt lat="66.18179" lon="20.84763">
        <ele>100.249652</ele>
        <time>2020-09-22T09:34:22.385Z</time>
      </trkpt>
      <trkpt lat="66.1817" lon="20.84776">
        <ele>100.115311</ele>
        <time>2020-09-22T09:34:25.370Z</time>
      </trkpt>
      <trkpt lat="66.1816" lon="20.84789">
        <ele>99.972893</ele>
        <time>2020-09-22T09:34:28.386Z</time>
      </trkpt>
      <trkpt lat="66.18152" lon="20.84803">
        <ele>99.841563</ele>
        <time>2020-09-22T09:34:31.382Z</time>
      </trkpt>
      <trkpt lat="66.18144" lon="20.84815">
        <ele>99.723381</ele>
        <time>2020-09-22T09:34:34.356Z</time>
      </trkpt>
      <trkpt lat="66.18134" lon="20.84829">
        <ele>99.57995</ele>
        <time>2020-09-22T09:34:38.365Z</time>
      </trkpt>
      <trkpt lat="66.18125" lon="20.84841">
        <ele>99.4441</ele>
        <time>2020-09-22T09:34:42.388Z</time>
      </trkpt>
      <trkpt lat="66.18117" lon="20.8485">
        <ele>99.334364</ele>
        <time>2020-09-22T09:34:46.392Z</time>
      </trkpt>
      <trkpt lat="66.18107" lon="20.84863">
        <ele>99.78018</ele>
        <time>2020-09-22T09:34:51.365Z</time>
      </trkpt>
      <trkpt lat="66.18099" lon="20.84879">
        <ele>100.230784</ele>
        <time>2020-09-22T09:34:56.421Z</time>
      </trkpt>
      <trkpt lat="66.18091" lon="20.84894">
        <ele>100.622833</ele>
        <time>2020-09-22T09:35:00.400Z</time>
      </trkpt>
      <trkpt lat="66.18084" lon="20.84908">
        <ele>101.024901</ele>
        <time>2020-09-22T09:35:04.381Z</time>
      </trkpt>
      <trkpt lat="66.18075" lon="20.84923">
        <ele>101.467229</ele>
        <time>2020-09-22T09:35:09.371Z</time>
      </trkpt>
      <trkpt lat="66.18066" lon="20.84936">
        <ele>101.910621</ele>
        <time>2020-09-22T09:35:14.381Z</time>
      </trkpt>
      <trkpt lat="66.18056" lon="20.84951">
        <ele>102.382327</ele>
        <time>2020-09-22T09:35:19.377Z</time>
      </trkpt>
      <trkpt lat="66.18048" lon="20.84964">
        <ele>102.789423</ele>
        <time>2020-09-22T09:35:23.382Z</time>
      </trkpt>
      <trkpt lat="66.18039" lon="20.84978">
        <ele>103.211926</ele>
        <time>2020-09-22T09:35:27.383Z</time>
      </trkpt>
      <trkpt lat="66.18029" lon="20.84991">
        <ele>103.676795</ele>
        <time>2020-09-22T09:35:32.360Z</time>
      </trkpt>
      <trkpt lat="66.18022" lon="20.85004">
        <ele>104.058477</ele>
        <time>2020-09-22T09:35:36.380Z</time>
      </trkpt>
      <trkpt lat="66.18015" lon="20.85017">
        <ele>104.432462</ele>
        <time>2020-09-22T09:35:40.357Z</time>
      </trkpt>
      <trkpt lat="66.18007" lon="20.8503">
        <ele>104.835252</ele>
        <time>2020-09-22T09:35:44.401Z</time>
      </trkpt>
      <trkpt lat="66.17998" lon="20.85042">
        <ele>105.236915</ele>
        <time>2020-09-22T09:35:48.409Z</time>
      </trkpt>
      <trkpt lat="66.17989" lon="20.85056">
        <ele>105.693681</ele>
        <time>2020-09-22T09:35:53.383Z</time>
      </trkpt>
      <trkpt lat="66.17982" lon="20.85069">
        <ele>106.070463</ele>
        <time>2020-09-22T09:35:57.386Z</time>
      </trkpt>
      <trkpt lat="66.17974" lon="20.85084">
        <ele>106.483917</ele>
        <time>2020-09-22T09:36:01.404Z</time>
      </trkpt>
      <trkpt lat="66.17966" lon="20.85098">
        <ele>106.784515</ele>
        <time>2020-09-22T09:36:04.361Z</time>
      </trkpt>
      <trkpt lat="66.17957" lon="20.85112">
        <ele>106.459789</ele>
        <time>2020-09-22T09:36:07.372Z</time>
      </trkpt>
      <trkpt lat="66.17946" lon="20.8513">
        <ele>106.076932</ele>
        <time>2020-09-22T09:36:10.378Z</time>
      </trkpt>
      <trkpt lat="66.17938" lon="20.85145">
        <ele>105.755898</ele>
        <time>2020-09-22T09:36:12.396Z</time>
      </trkpt>
      <trkpt lat="66.17927" lon="20.85162">
        <ele>105.386246</ele>
        <time>2020-09-22T09:36:14.386Z</time>
      </trkpt>
      <trkpt lat="66.17916" lon="20.85181">
        <ele>104.973024</ele>
        <time>2020-09-22T09:36:16.379Z</time>
      </trkpt>
      <trkpt lat="66.17902" lon="20.85201">
        <ele>104.515252</ele>
        <time>2020-09-22T09:36:18.357Z</time>
      </trkpt>
      <trkpt lat="66.17889" lon="20.85223">
        <ele>104.031541</ele>
        <time>2020-09-22T09:36:20.373Z</time>
      </trkpt>
      <trkpt lat="66.17875" lon="20.85246">
        <ele>103.53461</ele>
        <time>2020-09-22T09:36:22.378Z</time>
      </trkpt>
      <trkpt lat="66.1786" lon="20.85269">
        <ele>103.007441</ele>
        <time>2020-09-22T09:36:24.380Z</time>
      </trkpt>
      <trkpt lat="66.17852" lon="20.85282">
        <ele>102.741255</ele>
        <time>2020-09-22T09:36:25.378Z</time>
      </trkpt>
      <trkpt lat="66.17845" lon="20.85295">
        <ele>102.467253</ele>
        <time>2020-09-22T09:36:26.362Z</time>
      </trkpt>
      <trkpt lat="66.1783" lon="20.85317">
        <ele>101.956508</ele>
        <time>2020-09-22T09:36:28.397Z</time>
      </trkpt>
      <trkpt lat="66.17817" lon="20.85337">
        <ele>101.497465</ele>
        <time>2020-09-22T09:36:30.376Z</time>
      </trkpt>
      <trkpt lat="66.17806" lon="20.85355">
        <ele>101.052292</ele>
        <time>2020-09-22T09:36:32.376Z</time>
      </trkpt>
      <trkpt lat="66.17796" lon="20.85371">
        <ele>100.661936</ele>
        <time>2020-09-22T09:36:34.383Z</time>
      </trkpt>
      <trkpt lat="66.17787" lon="20.85384">
        <ele>100.329693</ele>
        <time>2020-09-22T09:36:36.368Z</time>
      </trkpt>
      <trkpt lat="66.17777" lon="20.854">
        <ele>99.932843</ele>
        <time>2020-09-22T09:36:39.379Z</time>
      </trkpt>
      <trkpt lat="66.17769" lon="20.85415">
        <ele>99.592371</ele>
        <time>2020-09-22T09:36:42.372Z</time>
      </trkpt>
      <trkpt lat="66.17761" lon="20.85428">
        <ele>99.275758</ele>
        <time>2020-09-22T09:36:45.360Z</time>
      </trkpt>
      <trkpt lat="66.17752" lon="20.85444">
        <ele>98.895359</ele>
        <time>2020-09-22T09:36:49.367Z</time>
      </trkpt>
      <trkpt lat="66.17744" lon="20.85463">
        <ele>98.539759</ele>
        <time>2020-09-22T09:36:53.381Z</time>
      </trkpt>
      <trkpt lat="66.17738" lon="20.85482">
        <ele>98.221071</ele>
        <time>2020-09-22T09:36:58.380Z</time>
      </trkpt>
      <trkpt lat="66.17715" lon="20.85497">
        <ele>97.413867</ele>
        <time>2020-09-22T09:53:54.408Z</time>
      </trkpt>
      <trkpt lat="66.17706" lon="20.85511">
        <ele>97.057425</ele>
        <time>2020-09-22T09:53:59.367Z</time>
      </trkpt>
      <trkpt lat="66.17699" lon="20.85525">
        <ele>96.7477</ele>
        <time>2020-09-22T09:54:03.366Z</time>
      </trkpt>
      <trkpt lat="66.1769" lon="20.85539">
        <ele>96.414606</ele>
        <time>2020-09-22T09:54:07.373Z</time>
      </trkpt>
      <trkpt lat="66.17683" lon="20.85552">
        <ele>96.108031</ele>
        <time>2020-09-22T09:54:11.384Z</time>
      </trkpt>
      <trkpt lat="66.17674" lon="20.85565">
        <ele>95.756438</ele>
        <time>2020-09-22T09:54:15.390Z</time>
      </trkpt>
      <trkpt lat="66.17666" lon="20.85576">
        <ele>95.478602</ele>
        <time>2020-09-22T09:54:18.383Z</time>
      </trkpt>
      <trkpt lat="66.17657" lon="20.85589">
        <ele>95.36426</ele>
        <time>2020-09-22T09:54:21.403Z</time>
      </trkpt>
      <trkpt lat="66.17649" lon="20.85602">
        <ele>95.254582</ele>
        <time>2020-09-22T09:54:24.398Z</time>
      </trkpt>
      <trkpt lat="66.1764" lon="20.85617">
        <ele>95.131461</ele>
        <time>2020-09-22T09:54:27.376Z</time>
      </trkpt>
      <trkpt lat="66.1763" lon="20.85631">
        <ele>95.008578</ele>
        <time>2020-09-22T09:54:30.390Z</time>
      </trkpt>
      <trkpt lat="66.17622" lon="20.85645">
        <ele>94.892499</ele>
        <time>2020-09-22T09:54:33.374Z</time>
      </trkpt>
      <trkpt lat="66.17614" lon="20.8566">
        <ele>94.783082</ele>
        <time>2020-09-22T09:54:36.374Z</time>
      </trkpt>
      <trkpt lat="66.17604" lon="20.85676">
        <ele>94.649468</ele>
        <time>2020-09-22T09:54:40.378Z</time>
      </trkpt>
      <trkpt lat="66.17594" lon="20.8569">
        <ele>94.528704</ele>
        <time>2020-09-22T09:54:44.393Z</time>
      </trkpt>
      <trkpt lat="66.17585" lon="20.85703">
        <ele>94.404511</ele>
        <time>2020-09-22T09:54:48.412Z</time>
      </trkpt>
      <trkpt lat="66.17574" lon="20.85718">
        <ele>94.269483</ele>
        <time>2020-09-22T09:54:52.372Z</time>
      </trkpt>
      <trkpt lat="66.17565" lon="20.85729">
        <ele>94.154369</ele>
        <time>2020-09-22T09:54:55.387Z</time>
      </trkpt>
      <trkpt lat="66.17556" lon="20.8574">
        <ele>94.038314</ele>
        <time>2020-09-22T09:54:58.375Z</time>
      </trkpt>
      <trkpt lat="66.17546" lon="20.85753">
        <ele>93.919566</ele>
        <time>2020-09-22T09:55:01.373Z</time>
      </trkpt>
      <trkpt lat="66.17536" lon="20.85767">
        <ele>93.792433</ele>
        <time>2020-09-22T09:55:04.378Z</time>
      </trkpt>
      <trkpt lat="66.17526" lon="20.85781">
        <ele>93.659094</ele>
        <time>2020-09-22T09:55:07.387Z</time>
      </trkpt>
      <trkpt lat="66.17514" lon="20.85795">
        <ele>93.508559</ele>
        <time>2020-09-22T09:55:10.368Z</time>
      </trkpt>
      <trkpt lat="66.17505" lon="20.85804">
        <ele>93.241351</ele>
        <time>2020-09-22T09:55:12.382Z</time>
      </trkpt>
      <trkpt lat="66.17496" lon="20.85814">
        <ele>92.88438</ele>
        <time>2020-09-22T09:55:14.373Z</time>
      </trkpt>
      <trkpt lat="66.17487" lon="20.85826">
        <ele>92.519367</ele>
        <time>2020-09-22T09:55:16.388Z</time>
      </trkpt>
      <trkpt lat="66.17477" lon="20.85837">
        <ele>92.129543</ele>
        <time>2020-09-22T09:55:18.376Z</time>
      </trkpt>
      <trkpt lat="66.17466" lon="20.85849">
        <ele>91.707393</ele>
        <time>2020-09-22T09:55:20.404Z</time>
      </trkpt>
      <trkpt lat="66.17453" lon="20.85861">
        <ele>91.241137</ele>
        <time>2020-09-22T09:55:22.382Z</time>
      </trkpt>
      <trkpt lat="66.17441" lon="20.85875">
        <ele>90.746981</ele>
        <time>2020-09-22T09:55:24.373Z</time>
      </trkpt>
      <trkpt lat="66.17427" lon="20.85889">
        <ele>90.210419</ele>
        <time>2020-09-22T09:55:26.383Z</time>
      </trkpt>
      <trkpt lat="66.17411" lon="20.85904">
        <ele>89.634127</ele>
        <time>2020-09-22T09:55:28.374Z</time>
      </trkpt>
      <trkpt lat="66.17396" lon="20.85921">
        <ele>89.024052</ele>
        <time>2020-09-22T09:55:30.361Z</time>
      </trkpt>
      <trkpt lat="66.17387" lon="20.8593">
        <ele>88.704268</ele>
        <time>2020-09-22T09:55:31.371Z</time>
      </trkpt>
      <trkpt lat="66.17378" lon="20.85939">
        <ele>88.3671</ele>
        <time>2020-09-22T09:55:32.397Z</time>
      </trkpt>
      <trkpt lat="66.17369" lon="20.85948">
        <ele>88.012495</ele>
        <time>2020-09-22T09:55:33.393Z</time>
      </trkpt>
      <trkpt lat="66.17359" lon="20.85958">
        <ele>87.643697</ele>
        <time>2020-09-22T09:55:34.376Z</time>
      </trkpt>
      <trkpt lat="66.17349" lon="20.85967">
        <ele>87.261205</ele>
        <time>2020-09-22T09:55:35.372Z</time>
      </trkpt>
      <trkpt lat="66.17339" lon="20.85977">
        <ele>86.814562</ele>
        <time>2020-09-22T09:55:36.382Z</time>
      </trkpt>
      <trkpt lat="66.17328" lon="20.85987">
        <ele>86.310798</ele>
        <time>2020-09-22T09:55:37.368Z</time>
      </trkpt>
      <trkpt lat="66.17318" lon="20.85998">
        <ele>85.799021</ele>
        <time>2020-09-22T09:55:38.414Z</time>
      </trkpt>
      <trkpt lat="66.17307" lon="20.86009">
        <ele>85.285792</ele>
        <time>2020-09-22T09:55:39.377Z</time>
      </trkpt>
      <trkpt lat="66.17296" lon="20.86019">
        <ele>84.760273</ele>
        <time>2020-09-22T09:55:40.375Z</time>
      </trkpt>
      <trkpt lat="66.17284" lon="20.8603">
        <ele>84.236282</ele>
        <time>2020-09-22T09:55:41.400Z</time>
      </trkpt>
      <trkpt lat="66.17273" lon="20.86041">
        <ele>83.717674</ele>
        <time>2020-09-22T09:55:42.370Z</time>
      </trkpt>
      <trkpt lat="66.17262" lon="20.86052">
        <ele>83.199065</ele>
        <time>2020-09-22T09:55:43.403Z</time>
      </trkpt>
      <trkpt lat="66.17252" lon="20.86062">
        <ele>82.704118</ele>
        <time>2020-09-22T09:55:44.360Z</time>
      </trkpt>
      <trkpt lat="66.17242" lon="20.86072">
        <ele>82.216448</ele>
        <time>2020-09-22T09:55:45.403Z</time>
      </trkpt>
      <trkpt lat="66.17231" lon="20.86081">
        <ele>81.73824</ele>
        <time>2020-09-22T09:55:46.388Z</time>
      </trkpt>
      <trkpt lat="66.17222" lon="20.8609">
        <ele>81.28115</ele>
        <time>2020-09-22T09:55:47.370Z</time>
      </trkpt>
      <trkpt lat="66.17212" lon="20.86099">
        <ele>80.839536</ele>
        <time>2020-09-22T09:55:48.441Z</time>
      </trkpt>
      <trkpt lat="66.17203" lon="20.86108">
        <ele>80.411481</ele>
        <time>2020-09-22T09:55:49.369Z</time>
      </trkpt>
      <trkpt lat="66.17194" lon="20.86117">
        <ele>79.988793</ele>
        <time>2020-09-22T09:55:50.365Z</time>
      </trkpt>
      <trkpt lat="66.17185" lon="20.86125">
        <ele>79.579666</ele>
        <time>2020-09-22T09:55:51.390Z</time>
      </trkpt>
      <trkpt lat="66.17177" lon="20.86133">
        <ele>79.19849</ele>
        <time>2020-09-22T09:55:52.412Z</time>
      </trkpt>
      <trkpt lat="66.17169" lon="20.86141">
        <ele>78.97844</ele>
        <time>2020-09-22T09:55:53.395Z</time>
      </trkpt>
      <trkpt lat="66.17152" lon="20.86157">
        <ele>78.55042</ele>
        <time>2020-09-22T09:55:55.435Z</time>
      </trkpt>
      <trkpt lat="66.17137" lon="20.86171">
        <ele>78.146798</ele>
        <time>2020-09-22T09:55:57.397Z</time>
      </trkpt>
      <trkpt lat="66.17123" lon="20.86183">
        <ele>77.786228</ele>
        <time>2020-09-22T09:55:59.379Z</time>
      </trkpt>
      <trkpt lat="66.17111" lon="20.86194">
        <ele>77.457573</ele>
        <time>2020-09-22T09:56:01.400Z</time>
      </trkpt>
      <trkpt lat="66.17099" lon="20.86206">
        <ele>77.144942</ele>
        <time>2020-09-22T09:56:03.365Z</time>
      </trkpt>
      <trkpt lat="66.17087" lon="20.86217">
        <ele>76.842933</ele>
        <time>2020-09-22T09:56:05.402Z</time>
      </trkpt>
      <trkpt lat="66.17076" lon="20.86228">
        <ele>76.539358</ele>
        <time>2020-09-22T09:56:07.384Z</time>
      </trkpt>
      <trkpt lat="66.17065" lon="20.86238">
        <ele>76.250466</ele>
        <time>2020-09-22T09:56:09.374Z</time>
      </trkpt>
      <trkpt lat="66.17054" lon="20.86248">
        <ele>75.972877</ele>
        <time>2020-09-22T09:56:11.382Z</time>
      </trkpt>
      <trkpt lat="66.17045" lon="20.86256">
        <ele>75.717509</ele>
        <time>2020-09-22T09:56:13.360Z</time>
      </trkpt>
      <trkpt lat="66.17035" lon="20.86265">
        <ele>75.463466</ele>
        <time>2020-09-22T09:56:15.372Z</time>
      </trkpt>
      <trkpt lat="66.17026" lon="20.86273">
        <ele>75.225007</ele>
        <time>2020-09-22T09:56:17.396Z</time>
      </trkpt>
      <trkpt lat="66.17016" lon="20.86281">
        <ele>74.974779</ele>
        <time>2020-09-22T09:56:19.363Z</time>
      </trkpt>
      <trkpt lat="66.17007" lon="20.86288">
        <ele>74.788225</ele>
        <time>2020-09-22T09:56:21.368Z</time>
      </trkpt>
      <trkpt lat="66.16998" lon="20.86295">
        <ele>74.74553</ele>
        <time>2020-09-22T09:56:23.414Z</time>
      </trkpt>
      <trkpt lat="66.16988" lon="20.86304">
        <ele>74.70186</ele>
        <time>2020-09-22T09:56:25.389Z</time>
      </trkpt>
      <trkpt lat="66.16978" lon="20.86311">
        <ele>74.656945</ele>
        <time>2020-09-22T09:56:27.388Z</time>
      </trkpt>
      <trkpt lat="66.16969" lon="20.86318">
        <ele>74.614098</ele>
        <time>2020-09-22T09:56:29.372Z</time>
      </trkpt>
      <trkpt lat="66.16959" lon="20.86323">
        <ele>74.572762</ele>
        <time>2020-09-22T09:56:31.406Z</time>
      </trkpt>
      <trkpt lat="66.1695" lon="20.86326">
        <ele>74.533832</ele>
        <time>2020-09-22T09:56:33.377Z</time>
      </trkpt>
      <trkpt lat="66.16938" lon="20.86334">
        <ele>74.479488</ele>
        <time>2020-09-22T09:56:36.418Z</time>
      </trkpt>
      <trkpt lat="66.16927" lon="20.8634">
        <ele>74.428185</ele>
        <time>2020-09-22T09:56:39.361Z</time>
      </trkpt>
      <trkpt lat="66.16915" lon="20.86347">
        <ele>74.376904</ele>
        <time>2020-09-22T09:56:42.376Z</time>
      </trkpt>
      <trkpt lat="66.16904" lon="20.86352">
        <ele>74.328334</ele>
        <time>2020-09-22T09:56:45.379Z</time>
      </trkpt>
      <trkpt lat="66.16893" lon="20.86355">
        <ele>74.278629</ele>
        <time>2020-09-22T09:56:48.402Z</time>
      </trkpt>
      <trkpt lat="66.16881" lon="20.86361">
        <ele>74.227857</ele>
        <time>2020-09-22T09:56:51.375Z</time>
      </trkpt>
      <trkpt lat="66.16872" lon="20.86367">
        <ele>74.188243</ele>
        <time>2020-09-22T09:56:53.382Z</time>
      </trkpt>
      <trkpt lat="66.16863" lon="20.86371">
        <ele>74.146918</ele>
        <time>2020-09-22T09:56:55.362Z</time>
      </trkpt>
      <trkpt lat="66.16853" lon="20.86376">
        <ele>74.10249</ele>
        <time>2020-09-22T09:56:57.409Z</time>
      </trkpt>
      <trkpt lat="66.16842" lon="20.8638">
        <ele>74.056362</ele>
        <time>2020-09-22T09:56:59.375Z</time>
      </trkpt>
      <trkpt lat="66.16831" lon="20.86387">
        <ele>73.980043</ele>
        <time>2020-09-22T09:57:01.377Z</time>
      </trkpt>
      <trkpt lat="66.16818" lon="20.86393">
        <ele>73.821667</ele>
        <time>2020-09-22T09:57:03.443Z</time>
      </trkpt>
      <trkpt lat="66.16805" lon="20.86398">
        <ele>73.654443</ele>
        <time>2020-09-22T09:57:05.459Z</time>
      </trkpt>
      <trkpt lat="66.16791" lon="20.86404">
        <ele>73.480599</ele>
        <time>2020-09-22T09:57:07.373Z</time>
      </trkpt>
      <trkpt lat="66.16777" lon="20.86412">
        <ele>73.29396</ele>
        <time>2020-09-22T09:57:09.388Z</time>
      </trkpt>
      <trkpt lat="66.16762" lon="20.86419">
        <ele>73.105882</ele>
        <time>2020-09-22T09:57:11.379Z</time>
      </trkpt>
      <trkpt lat="66.16747" lon="20.86426">
        <ele>72.919557</ele>
        <time>2020-09-22T09:57:13.387Z</time>
      </trkpt>
      <trkpt lat="66.16733" lon="20.86429">
        <ele>72.743524</ele>
        <time>2020-09-22T09:57:15.395Z</time>
      </trkpt>
      <trkpt lat="66.16719" lon="20.86431">
        <ele>72.574515</ele>
        <time>2020-09-22T09:57:17.371Z</time>
      </trkpt>
      <trkpt lat="66.16705" lon="20.86433">
        <ele>72.399387</ele>
        <time>2020-09-22T09:57:19.374Z</time>
      </trkpt>
      <trkpt lat="66.16692" lon="20.86433">
        <ele>72.231887</ele>
        <time>2020-09-22T09:57:21.389Z</time>
      </trkpt>
      <trkpt lat="66.16678" lon="20.86431">
        <ele>72.064196</ele>
        <time>2020-09-22T09:57:23.375Z</time>
      </trkpt>
      <trkpt lat="66.16664" lon="20.86428">
        <ele>71.885855</ele>
        <time>2020-09-22T09:57:25.373Z</time>
      </trkpt>
      <trkpt lat="66.16649" lon="20.86424">
        <ele>71.589168</ele>
        <time>2020-09-22T09:57:27.410Z</time>
      </trkpt>
      <trkpt lat="66.16632" lon="20.86418">
        <ele>71.149094</ele>
        <time>2020-09-22T09:57:29.373Z</time>
      </trkpt>
      <trkpt lat="66.16615" lon="20.86412">
        <ele>70.693788</ele>
        <time>2020-09-22T09:57:31.384Z</time>
      </trkpt>
      <trkpt lat="66.16597" lon="20.86405">
        <ele>70.220457</ele>
        <time>2020-09-22T09:57:33.362Z</time>
      </trkpt>
      <trkpt lat="66.16588" lon="20.86401">
        <ele>69.982136</ele>
        <time>2020-09-22T09:57:34.368Z</time>
      </trkpt>
      <trkpt lat="66.16579" lon="20.86397">
        <ele>69.74325</ele>
        <time>2020-09-22T09:57:35.371Z</time>
      </trkpt>
      <trkpt lat="66.16571" lon="20.86393">
        <ele>69.504558</ele>
        <time>2020-09-22T09:57:36.373Z</time>
      </trkpt>
      <trkpt lat="66.16562" lon="20.86388">
        <ele>69.263731</ele>
        <time>2020-09-22T09:57:37.405Z</time>
      </trkpt>
      <trkpt lat="66.16553" lon="20.86383">
        <ele>69.02474</ele>
        <time>2020-09-22T09:57:38.416Z</time>
      </trkpt>
      <trkpt lat="66.16544" lon="20.86377">
        <ele>68.779329</ele>
        <time>2020-09-22T09:57:39.379Z</time>
      </trkpt>
      <trkpt lat="66.16535" lon="20.86371">
        <ele>68.529981</ele>
        <time>2020-09-22T09:57:40.397Z</time>
      </trkpt>
      <trkpt lat="66.16526" lon="20.86365">
        <ele>68.281198</ele>
        <time>2020-09-22T09:57:41.395Z</time>
      </trkpt>
      <trkpt lat="66.16517" lon="20.86359">
        <ele>68.033233</ele>
        <time>2020-09-22T09:57:42.391Z</time>
      </trkpt>
      <trkpt lat="66.16507" lon="20.86353">
        <ele>67.784999</ele>
        <time>2020-09-22T09:57:43.369Z</time>
      </trkpt>
      <trkpt lat="66.16498" lon="20.86347">
        <ele>67.53819</ele>
        <time>2020-09-22T09:57:44.391Z</time>
      </trkpt>
      <trkpt lat="66.1649" lon="20.8634">
        <ele>67.293324</ele>
        <time>2020-09-22T09:57:45.377Z</time>
      </trkpt>
      <trkpt lat="66.1648" lon="20.86335">
        <ele>67.038956</ele>
        <time>2020-09-22T09:57:46.392Z</time>
      </trkpt>
      <trkpt lat="66.16471" lon="20.86328">
        <ele>66.828596</ele>
        <time>2020-09-22T09:57:47.393Z</time>
      </trkpt>
      <trkpt lat="66.16461" lon="20.86322">
        <ele>66.610985</ele>
        <time>2020-09-22T09:57:48.370Z</time>
      </trkpt>
      <trkpt lat="66.16451" lon="20.86315">
        <ele>66.394719</ele>
        <time>2020-09-22T09:57:49.367Z</time>
      </trkpt>
      <trkpt lat="66.16441" lon="20.86309">
        <ele>66.178407</ele>
        <time>2020-09-22T09:57:50.374Z</time>
      </trkpt>
      <trkpt lat="66.16432" lon="20.86303">
        <ele>65.975672</ele>
        <time>2020-09-22T09:57:51.375Z</time>
      </trkpt>
      <trkpt lat="66.16423" lon="20.86298">
        <ele>65.779523</ele>
        <time>2020-09-22T09:57:52.392Z</time>
      </trkpt>
      <trkpt lat="66.16406" lon="20.86287">
        <ele>65.414403</ele>
        <time>2020-09-22T09:57:54.371Z</time>
      </trkpt>
      <trkpt lat="66.1639" lon="20.86277">
        <ele>65.072513</ele>
        <time>2020-09-22T09:57:56.389Z</time>
      </trkpt>
      <trkpt lat="66.16376" lon="20.86267">
        <ele>64.763323</ele>
        <time>2020-09-22T09:57:58.380Z</time>
      </trkpt>
      <trkpt lat="66.16363" lon="20.86258">
        <ele>64.479381</ele>
        <time>2020-09-22T09:58:00.397Z</time>
      </trkpt>
      <trkpt lat="66.16352" lon="20.86251">
        <ele>64.231764</ele>
        <time>2020-09-22T09:58:02.389Z</time>
      </trkpt>
      <trkpt lat="66.16343" lon="20.86244">
        <ele>64.022878</ele>
        <time>2020-09-22T09:58:04.391Z</time>
      </trkpt>
      <trkpt lat="66.16333" lon="20.86238">
        <ele>63.819104</ele>
        <time>2020-09-22T09:58:06.371Z</time>
      </trkpt>
      <trkpt lat="66.16325" lon="20.86233">
        <ele>63.625215</ele>
        <time>2020-09-22T09:58:08.376Z</time>
      </trkpt>
      <trkpt lat="66.16316" lon="20.86227">
        <ele>63.432129</ele>
        <time>2020-09-22T09:58:10.362Z</time>
      </trkpt>
      <trkpt lat="66.16303" lon="20.8622">
        <ele>63.239173</ele>
        <time>2020-09-22T09:58:13.375Z</time>
      </trkpt>
      <trkpt lat="66.1629" lon="20.86216">
        <ele>63.276365</ele>
        <time>2020-09-22T09:58:16.373Z</time>
      </trkpt>
      <trkpt lat="66.16279" lon="20.86212">
        <ele>63.308588</ele>
        <time>2020-09-22T09:58:19.366Z</time>
      </trkpt>
      <trkpt lat="66.16269" lon="20.86212">
        <ele>63.339942</ele>
        <time>2020-09-22T09:58:22.401Z</time>
      </trkpt>
      <trkpt lat="66.16257" lon="20.86207">
        <ele>63.375495</ele>
        <time>2020-09-22T09:58:25.376Z</time>
      </trkpt>
      <trkpt lat="66.16243" lon="20.86201">
        <ele>63.414187</ele>
        <time>2020-09-22T09:58:28.416Z</time>
      </trkpt>
      <trkpt lat="66.16234" lon="20.86198">
        <ele>63.442337</ele>
        <time>2020-09-22T09:58:30.422Z</time>
      </trkpt>
      <trkpt lat="66.16224" lon="20.86194">
        <ele>63.472296</ele>
        <time>2020-09-22T09:58:32.384Z</time>
      </trkpt>
      <trkpt lat="66.16214" lon="20.86191">
        <ele>63.501262</ele>
        <time>2020-09-22T09:58:34.363Z</time>
      </trkpt>
      <trkpt lat="66.16204" lon="20.86188">
        <ele>63.529884</ele>
        <time>2020-09-22T09:58:36.378Z</time>
      </trkpt>
      <trkpt lat="66.16195" lon="20.86185">
        <ele>63.556563</ele>
        <time>2020-09-22T09:58:38.384Z</time>
      </trkpt>
      <trkpt lat="66.16186" lon="20.86183">
        <ele>63.58366</ele>
        <time>2020-09-22T09:58:40.411Z</time>
      </trkpt>
      <trkpt lat="66.16176" lon="20.86182">
        <ele>63.610084</ele>
        <time>2020-09-22T09:58:42.378Z</time>
      </trkpt>
      <trkpt lat="66.16163" lon="20.86179">
        <ele>63.649697</ele>
        <time>2020-09-22T09:58:45.366Z</time>
      </trkpt>
      <trkpt lat="66.16153" lon="20.86177">
        <ele>63.67744</ele>
        <time>2020-09-22T09:58:47.370Z</time>
      </trkpt>
      <trkpt lat="66.1614" lon="20.86174">
        <ele>63.716475</ele>
        <time>2020-09-22T09:58:50.392Z</time>
      </trkpt>
      <trkpt lat="66.16131" lon="20.86172">
        <ele>63.743304</ele>
        <time>2020-09-22T09:58:52.373Z</time>
      </trkpt>
      <trkpt lat="66.16121" lon="20.8617">
        <ele>63.77382</ele>
        <time>2020-09-22T09:58:54.381Z</time>
      </trkpt>
      <trkpt lat="66.16108" lon="20.8617">
        <ele>63.819251</ele>
        <time>2020-09-22T09:58:57.408Z</time>
      </trkpt>
      <trkpt lat="66.16099" lon="20.86169">
        <ele>63.850772</ele>
        <time>2020-09-22T09:58:59.388Z</time>
      </trkpt>
      <trkpt lat="66.16089" lon="20.86168">
        <ele>63.883365</ele>
        <time>2020-09-22T09:59:01.371Z</time>
      </trkpt>
      <trkpt lat="66.1608" lon="20.86167">
        <ele>63.915265</ele>
        <time>2020-09-22T09:59:03.384Z</time>
      </trkpt>
      <trkpt lat="66.1607" lon="20.86166">
        <ele>63.947473</ele>
        <time>2020-09-22T09:59:05.398Z</time>
      </trkpt>
      <trkpt lat="66.16061" lon="20.86166">
        <ele>63.980009</ele>
        <time>2020-09-22T09:59:07.390Z</time>
      </trkpt>
      <trkpt lat="66.16051" lon="20.86165">
        <ele>64.011925</ele>
        <time>2020-09-22T09:59:09.387Z</time>
      </trkpt>
      <trkpt lat="66.16042" lon="20.86163">
        <ele>64.043512</ele>
        <time>2020-09-22T09:59:11.388Z</time>
      </trkpt>
      <trkpt lat="66.16033" lon="20.86162">
        <ele>64.074059</ele>
        <time>2020-09-22T09:59:13.372Z</time>
      </trkpt>
      <trkpt lat="66.1602" lon="20.86159">
        <ele>64.118611</ele>
        <time>2020-09-22T09:59:16.369Z</time>
      </trkpt>
      <trkpt lat="66.16007" lon="20.86158">
        <ele>64.160694</ele>
        <time>2020-09-22T09:59:19.366Z</time>
      </trkpt>
      <trkpt lat="66.15996" lon="20.86157">
        <ele>64.200715</ele>
        <time>2020-09-22T09:59:22.375Z</time>
      </trkpt>
      <trkpt lat="66.15983" lon="20.86155">
        <ele>64.242144</ele>
        <time>2020-09-22T09:59:25.373Z</time>
      </trkpt>
      <trkpt lat="66.15971" lon="20.86153">
        <ele>64.284581</ele>
        <time>2020-09-22T09:59:28.399Z</time>
      </trkpt>
      <trkpt lat="66.15958" lon="20.86151">
        <ele>64.329402</ele>
        <time>2020-09-22T09:59:31.373Z</time>
      </trkpt>
      <trkpt lat="66.15946" lon="20.8615">
        <ele>64.46348</ele>
        <time>2020-09-22T09:59:34.386Z</time>
      </trkpt>
      <trkpt lat="66.15934" lon="20.86152">
        <ele>64.928393</ele>
        <time>2020-09-22T09:59:37.375Z</time>
      </trkpt>
      <trkpt lat="66.15923" lon="20.86152">
        <ele>65.375897</ele>
        <time>2020-09-22T09:59:40.411Z</time>
      </trkpt>
      <trkpt lat="66.15912" lon="20.86151">
        <ele>65.835817</ele>
        <time>2020-09-22T09:59:43.387Z</time>
      </trkpt>
      <trkpt lat="66.15901" lon="20.86149">
        <ele>66.284166</ele>
        <time>2020-09-22T09:59:46.362Z</time>
      </trkpt>
      <trkpt lat="66.1589" lon="20.86147">
        <ele>66.729792</ele>
        <time>2020-09-22T09:59:49.367Z</time>
      </trkpt>
      <trkpt lat="66.15879" lon="20.86145">
        <ele>67.186838</ele>
        <time>2020-09-22T09:59:52.389Z</time>
      </trkpt>
      <trkpt lat="66.15867" lon="20.86143">
        <ele>67.667984</ele>
        <time>2020-09-22T09:59:55.391Z</time>
      </trkpt>
      <trkpt lat="66.15855" lon="20.86139">
        <ele>68.170935</ele>
        <time>2020-09-22T09:59:58.398Z</time>
      </trkpt>
      <trkpt lat="66.15843" lon="20.86138">
        <ele>68.659634</ele>
        <time>2020-09-22T10:00:01.373Z</time>
      </trkpt>
      <trkpt lat="66.1583" lon="20.86136">
        <ele>69.165133</ele>
        <time>2020-09-22T10:00:04.398Z</time>
      </trkpt>
      <trkpt lat="66.15818" lon="20.86132">
        <ele>69.685146</ele>
        <time>2020-09-22T10:00:07.365Z</time>
      </trkpt>
      <trkpt lat="66.15808" lon="20.8613">
        <ele>70.069567</ele>
        <time>2020-09-22T10:00:09.387Z</time>
      </trkpt>
      <trkpt lat="66.15797" lon="20.86129">
        <ele>70.521542</ele>
        <time>2020-09-22T10:00:11.394Z</time>
      </trkpt>
      <trkpt lat="66.15787" lon="20.86126">
        <ele>70.946604</ele>
        <time>2020-09-22T10:00:13.413Z</time>
      </trkpt>
      <trkpt lat="66.15777" lon="20.86123">
        <ele>71.349398</ele>
        <time>2020-09-22T10:00:15.372Z</time>
      </trkpt>
      <trkpt lat="66.15768" lon="20.8612">
        <ele>71.717219</ele>
        <time>2020-09-22T10:00:17.381Z</time>
      </trkpt>
      <trkpt lat="66.15759" lon="20.86117">
        <ele>72.105339</ele>
        <time>2020-09-22T10:00:19.380Z</time>
      </trkpt>
      <trkpt lat="66.1575" lon="20.86114">
        <ele>72.494801</ele>
        <time>2020-09-22T10:00:21.368Z</time>
      </trkpt>
      <trkpt lat="66.15738" lon="20.8611">
        <ele>73.030657</ele>
        <time>2020-09-22T10:00:24.371Z</time>
      </trkpt>
      <trkpt lat="66.15727" lon="20.86105">
        <ele>73.513618</ele>
        <time>2020-09-22T10:00:27.372Z</time>
      </trkpt>
      <trkpt lat="66.15717" lon="20.86098">
        <ele>73.95649</ele>
        <time>2020-09-22T10:00:30.392Z</time>
      </trkpt>
      <trkpt lat="66.15706" lon="20.86091">
        <ele>74.446156</ele>
        <time>2020-09-22T10:00:34.417Z</time>
      </trkpt>
      <trkpt lat="66.15695" lon="20.86081">
        <ele>74.950978</ele>
        <time>2020-09-22T10:00:38.377Z</time>
      </trkpt>
      <trkpt lat="66.15686" lon="20.86071">
        <ele>75.341052</ele>
        <time>2020-09-22T10:00:41.383Z</time>
      </trkpt>
      <trkpt lat="66.15678" lon="20.86061">
        <ele>75.746621</ele>
        <time>2020-09-22T10:00:44.383Z</time>
      </trkpt>
      <trkpt lat="66.15669" lon="20.86052">
        <ele>76.165128</ele>
        <time>2020-09-22T10:00:47.370Z</time>
      </trkpt>
      <trkpt lat="66.1566" lon="20.86044">
        <ele>76.551929</ele>
        <time>2020-09-22T10:00:50.374Z</time>
      </trkpt>
      <trkpt lat="66.1565" lon="20.86038">
        <ele>77.00811</ele>
        <time>2020-09-22T10:00:54.396Z</time>
      </trkpt>
      <trkpt lat="66.1564" lon="20.86031">
        <ele>77.42895</ele>
        <time>2020-09-22T10:00:58.392Z</time>
      </trkpt>
      <trkpt lat="66.15631" lon="20.8602">
        <ele>77.875855</ele>
        <time>2020-09-22T10:01:03.371Z</time>
      </trkpt>
      <trkpt lat="66.15622" lon="20.8601">
        <ele>78.302367</ele>
        <time>2020-09-22T10:01:08.388Z</time>
      </trkpt>
      <trkpt lat="66.15613" lon="20.86">
        <ele>78.743247</ele>
        <time>2020-09-22T10:01:13.375Z</time>
      </trkpt>
      <trkpt lat="66.15603" lon="20.85991">
        <ele>79.18461</ele>
        <time>2020-09-22T10:01:18.404Z</time>
      </trkpt>
      <trkpt lat="66.15593" lon="20.85983">
        <ele>79.617102</ele>
        <time>2020-09-22T10:01:23.370Z</time>
      </trkpt>
      <trkpt lat="66.15584" lon="20.85972">
        <ele>79.997696</ele>
        <time>2020-09-22T10:01:28.419Z</time>
      </trkpt>
      <trkpt lat="66.15573" lon="20.85964">
        <ele>80.407818</ele>
        <time>2020-09-22T10:01:33.366Z</time>
      </trkpt>
      <trkpt lat="66.15563" lon="20.85958">
        <ele>80.798801</ele>
        <time>2020-09-22T10:01:37.364Z</time>
      </trkpt>
      <trkpt lat="66.15554" lon="20.85952">
        <ele>81.162682</ele>
        <time>2020-09-22T10:01:41.414Z</time>
      </trkpt>
      <trkpt lat="66.15545" lon="20.85944">
        <ele>81.546369</ele>
        <time>2020-09-22T10:01:45.374Z</time>
      </trkpt>
      <trkpt lat="66.15536" lon="20.85935">
        <ele>81.906217</ele>
        <time>2020-09-22T10:01:49.379Z</time>
      </trkpt>
      <trkpt lat="66.15527" lon="20.85928">
        <ele>82.256105</ele>
        <time>2020-09-22T10:01:53.442Z</time>
      </trkpt>
      <trkpt lat="66.15518" lon="20.85918">
        <ele>82.623547</ele>
        <time>2020-09-22T10:01:57.388Z</time>
      </trkpt>
      <trkpt lat="66.15508" lon="20.85909">
        <ele>83.034894</ele>
        <time>2020-09-22T10:02:01.383Z</time>
      </trkpt>
      <trkpt lat="66.15497" lon="20.85901">
        <ele>83.47227</ele>
        <time>2020-09-22T10:02:05.384Z</time>
      </trkpt>
      <trkpt lat="66.15488" lon="20.85896">
        <ele>83.822098</ele>
        <time>2020-09-22T10:02:08.383Z</time>
      </trkpt>
      <trkpt lat="66.15478" lon="20.85893">
        <ele>84.195133</ele>
        <time>2020-09-22T10:02:11.365Z</time>
      </trkpt>
      <trkpt lat="66.15469" lon="20.85888">
        <ele>84.560167</ele>
        <time>2020-09-22T10:02:14.379Z</time>
      </trkpt>
      <trkpt lat="66.15458" lon="20.85883">
        <ele>84.974019</ele>
        <time>2020-09-22T10:02:17.384Z</time>
      </trkpt>
      <trkpt lat="66.15448" lon="20.85879">
        <ele>85.382292</ele>
        <time>2020-09-22T10:02:20.365Z</time>
      </trkpt>
      <trkpt lat="66.15436" lon="20.85873">
        <ele>85.835224</ele>
        <time>2020-09-22T10:02:23.371Z</time>
      </trkpt>
      <trkpt lat="66.15425" lon="20.8587">
        <ele>86.148468</ele>
        <time>2020-09-22T10:02:26.380Z</time>
      </trkpt>
      <trkpt lat="66.15414" lon="20.85868">
        <ele>85.433805</ele>
        <time>2020-09-22T10:02:29.351Z</time>
      </trkpt>
      <trkpt lat="66.15404" lon="20.85866">
        <ele>84.757861</ele>
        <time>2020-09-22T10:02:32.420Z</time>
      </trkpt>
      <trkpt lat="66.15393" lon="20.85862">
        <ele>83.975742</ele>
        <time>2020-09-22T10:02:36.419Z</time>
      </trkpt>
      <trkpt lat="66.15384" lon="20.85859">
        <ele>83.334168</ele>
        <time>2020-09-22T10:02:39.391Z</time>
      </trkpt>
      <trkpt lat="66.15372" lon="20.85853">
        <ele>82.520636</ele>
        <time>2020-09-22T10:02:43.384Z</time>
      </trkpt>
      <trkpt lat="66.15361" lon="20.85847">
        <ele>81.713208</ele>
        <time>2020-09-22T10:02:47.379Z</time>
      </trkpt>
      <trkpt lat="66.15352" lon="20.85843">
        <ele>81.086863</ele>
        <time>2020-09-22T10:02:50.383Z</time>
      </trkpt>
      <trkpt lat="66.15342" lon="20.85841">
        <ele>80.413012</ele>
        <time>2020-09-22T10:02:53.401Z</time>
      </trkpt>
      <trkpt lat="66.15333" lon="20.85838">
        <ele>79.765219</ele>
        <time>2020-09-22T10:02:56.382Z</time>
      </trkpt>
      <trkpt lat="66.15321" lon="20.85836">
        <ele>78.946537</ele>
        <time>2020-09-22T10:03:00.391Z</time>
      </trkpt>
      <trkpt lat="66.15311" lon="20.85832">
        <ele>78.288128</ele>
        <time>2020-09-22T10:03:03.372Z</time>
      </trkpt>
      <trkpt lat="66.15301" lon="20.85828">
        <ele>77.566209</ele>
        <time>2020-09-22T10:03:06.373Z</time>
      </trkpt>
      <trkpt lat="66.1529" lon="20.85824">
        <ele>76.837521</ele>
        <time>2020-09-22T10:03:09.381Z</time>
      </trkpt>
      <trkpt lat="66.1528" lon="20.85821">
        <ele>76.097281</ele>
        <time>2020-09-22T10:03:12.374Z</time>
      </trkpt>
      <trkpt lat="66.15269" lon="20.85817">
        <ele>75.357042</ele>
        <time>2020-09-22T10:03:15.392Z</time>
      </trkpt>
      <trkpt lat="66.15257" lon="20.85813">
        <ele>74.553784</ele>
        <time>2020-09-22T10:03:18.372Z</time>
      </trkpt>
      <trkpt lat="66.15244" lon="20.85809">
        <ele>73.969438</ele>
        <time>2020-09-22T10:03:21.392Z</time>
      </trkpt>
      <trkpt lat="66.15231" lon="20.85805">
        <ele>74.228512</ele>
        <time>2020-09-22T10:03:24.417Z</time>
      </trkpt>
      <trkpt lat="66.15219" lon="20.85802">
        <ele>74.473477</ele>
        <time>2020-09-22T10:03:27.383Z</time>
      </trkpt>
      <trkpt lat="66.15209" lon="20.85799">
        <ele>74.692268</ele>
        <time>2020-09-22T10:03:30.369Z</time>
      </trkpt>
      <trkpt lat="66.15198" lon="20.85797">
        <ele>74.901806</ele>
        <time>2020-09-22T10:03:33.401Z</time>
      </trkpt>
      <trkpt lat="66.15188" lon="20.85796">
        <ele>75.110862</ele>
        <time>2020-09-22T10:03:36.375Z</time>
      </trkpt>
      <trkpt lat="66.15177" lon="20.85796">
        <ele>75.340133</ele>
        <time>2020-09-22T10:03:39.392Z</time>
      </trkpt>
      <trkpt lat="66.15165" lon="20.85798">
        <ele>75.56952</ele>
        <time>2020-09-22T10:03:42.386Z</time>
      </trkpt>
      <trkpt lat="66.15154" lon="20.85799">
        <ele>75.807127</ele>
        <time>2020-09-22T10:03:45.391Z</time>
      </trkpt>
      <trkpt lat="66.15142" lon="20.85801">
        <ele>76.040995</ele>
        <time>2020-09-22T10:03:48.371Z</time>
      </trkpt>
      <trkpt lat="66.15131" lon="20.85803">
        <ele>76.270595</ele>
        <time>2020-09-22T10:03:51.411Z</time>
      </trkpt>
      <trkpt lat="66.15119" lon="20.85808">
        <ele>76.505126</ele>
        <time>2020-09-22T10:03:54.368Z</time>
      </trkpt>
      <trkpt lat="66.15108" lon="20.85813">
        <ele>76.73257</ele>
        <time>2020-09-22T10:03:57.392Z</time>
      </trkpt>
      <trkpt lat="66.15098" lon="20.8582">
        <ele>76.956027</ele>
        <time>2020-09-22T10:04:00.370Z</time>
      </trkpt>
      <trkpt lat="66.15087" lon="20.85828">
        <ele>77.182024</ele>
        <time>2020-09-22T10:04:03.372Z</time>
      </trkpt>
      <trkpt lat="66.15077" lon="20.85837">
        <ele>77.397846</ele>
        <time>2020-09-22T10:04:06.372Z</time>
      </trkpt>
      <trkpt lat="66.15066" lon="20.85847">
        <ele>77.491724</ele>
        <time>2020-09-22T10:04:09.368Z</time>
      </trkpt>
      <trkpt lat="66.15055" lon="20.85857">
        <ele>77.358638</ele>
        <time>2020-09-22T10:04:12.384Z</time>
      </trkpt>
      <trkpt lat="66.15045" lon="20.85869">
        <ele>77.226461</ele>
        <time>2020-09-22T10:04:15.363Z</time>
      </trkpt>
      <trkpt lat="66.15034" lon="20.85879">
        <ele>77.101912</ele>
        <time>2020-09-22T10:04:18.371Z</time>
      </trkpt>
      <trkpt lat="66.15024" lon="20.8589">
        <ele>76.977023</ele>
        <time>2020-09-22T10:04:21.393Z</time>
      </trkpt>
      <trkpt lat="66.15014" lon="20.859">
        <ele>76.851763</ele>
        <time>2020-09-22T10:04:24.416Z</time>
      </trkpt>
      <trkpt lat="66.15003" lon="20.85912">
        <ele>76.72134</ele>
        <time>2020-09-22T10:04:27.380Z</time>
      </trkpt>
      <trkpt lat="66.14991" lon="20.85924">
        <ele>76.577753</ele>
        <time>2020-09-22T10:04:30.384Z</time>
      </trkpt>
      <trkpt lat="66.14982" lon="20.85933">
        <ele>76.469643</ele>
        <time>2020-09-22T10:04:32.370Z</time>
      </trkpt>
      <trkpt lat="66.14973" lon="20.85942">
        <ele>76.361706</ele>
        <time>2020-09-22T10:04:34.372Z</time>
      </trkpt>
      <trkpt lat="66.14965" lon="20.85951">
        <ele>76.25791</ele>
        <time>2020-09-22T10:04:36.415Z</time>
      </trkpt>
      <trkpt lat="66.14956" lon="20.85959">
        <ele>76.152394</ele>
        <time>2020-09-22T10:04:38.371Z</time>
      </trkpt>
      <trkpt lat="66.14948" lon="20.85968">
        <ele>76.04981</ele>
        <time>2020-09-22T10:04:40.400Z</time>
      </trkpt>
      <trkpt lat="66.14939" lon="20.85978">
        <ele>75.93875</ele>
        <time>2020-09-22T10:04:42.383Z</time>
      </trkpt>
      <trkpt lat="66.14929" lon="20.85987">
        <ele>75.824758</ele>
        <time>2020-09-22T10:04:44.379Z</time>
      </trkpt>
      <trkpt lat="66.1492" lon="20.85997">
        <ele>75.707808</ele>
        <time>2020-09-22T10:04:46.382Z</time>
      </trkpt>
      <trkpt lat="66.14909" lon="20.86007">
        <ele>75.576328</ele>
        <time>2020-09-22T10:04:48.370Z</time>
      </trkpt>
      <trkpt lat="66.14897" lon="20.86019">
        <ele>75.142315</ele>
        <time>2020-09-22T10:04:50.377Z</time>
      </trkpt>
      <trkpt lat="66.14886" lon="20.8603">
        <ele>74.501602</ele>
        <time>2020-09-22T10:04:52.383Z</time>
      </trkpt>
      <trkpt lat="66.14873" lon="20.86042">
        <ele>73.841928</ele>
        <time>2020-09-22T10:04:54.391Z</time>
      </trkpt>
      <trkpt lat="66.14861" lon="20.86053">
        <ele>73.187002</ele>
        <time>2020-09-22T10:04:56.407Z</time>
      </trkpt>
      <trkpt lat="66.1485" lon="20.86065">
        <ele>72.535309</ele>
        <time>2020-09-22T10:04:58.364Z</time>
      </trkpt>
      <trkpt lat="66.14838" lon="20.86077">
        <ele>71.87582</ele>
        <time>2020-09-22T10:05:00.388Z</time>
      </trkpt>
      <trkpt lat="66.14826" lon="20.86089">
        <ele>71.226382</ele>
        <time>2020-09-22T10:05:02.425Z</time>
      </trkpt>
      <trkpt lat="66.14814" lon="20.86101">
        <ele>70.568435</ele>
        <time>2020-09-22T10:05:04.380Z</time>
      </trkpt>
      <trkpt lat="66.14802" lon="20.86112">
        <ele>69.921923</ele>
        <time>2020-09-22T10:05:06.388Z</time>
      </trkpt>
      <trkpt lat="66.1479" lon="20.86124">
        <ele>69.281236</ele>
        <time>2020-09-22T10:05:08.383Z</time>
      </trkpt>
      <trkpt lat="66.14779" lon="20.86136">
        <ele>68.66089</ele>
        <time>2020-09-22T10:05:10.373Z</time>
      </trkpt>
      <trkpt lat="66.14767" lon="20.86147">
        <ele>68.030388</ele>
        <time>2020-09-22T10:05:12.397Z</time>
      </trkpt>
      <trkpt lat="66.14756" lon="20.86159">
        <ele>67.401474</ele>
        <time>2020-09-22T10:05:14.419Z</time>
      </trkpt>
      <trkpt lat="66.14745" lon="20.8617">
        <ele>66.788228</ele>
        <time>2020-09-22T10:05:16.385Z</time>
      </trkpt>
      <trkpt lat="66.14734" lon="20.86181">
        <ele>66.346039</ele>
        <time>2020-09-22T10:05:18.370Z</time>
      </trkpt>
      <trkpt lat="66.14723" lon="20.86193">
        <ele>66.268277</ele>
        <time>2020-09-22T10:05:20.382Z</time>
      </trkpt>
      <trkpt lat="66.14712" lon="20.86205">
        <ele>66.188593</ele>
        <time>2020-09-22T10:05:22.392Z</time>
      </trkpt>
      <trkpt lat="66.14701" lon="20.86215">
        <ele>66.11254</ele>
        <time>2020-09-22T10:05:24.372Z</time>
      </trkpt>
      <trkpt lat="66.1469" lon="20.86226">
        <ele>66.036994</ele>
        <time>2020-09-22T10:05:26.404Z</time>
      </trkpt>
      <trkpt lat="66.1468" lon="20.86236">
        <ele>65.965134</ele>
        <time>2020-09-22T10:05:28.388Z</time>
      </trkpt>
      <trkpt lat="66.1467" lon="20.86245">
        <ele>65.896132</ele>
        <time>2020-09-22T10:05:30.377Z</time>
      </trkpt>
      <trkpt lat="66.14661" lon="20.86255">
        <ele>65.828638</ele>
        <time>2020-09-22T10:05:32.398Z</time>
      </trkpt>
      <trkpt lat="66.14651" lon="20.86264">
        <ele>65.762136</ele>
        <time>2020-09-22T10:05:34.396Z</time>
      </trkpt>
      <trkpt lat="66.14642" lon="20.86273">
        <ele>65.697771</ele>
        <time>2020-09-22T10:05:36.379Z</time>
      </trkpt>
      <trkpt lat="66.14633" lon="20.86282">
        <ele>65.631457</ele>
        <time>2020-09-22T10:05:38.385Z</time>
      </trkpt>
      <trkpt lat="66.14623" lon="20.86291">
        <ele>65.565682</ele>
        <time>2020-09-22T10:05:40.420Z</time>
      </trkpt>
      <trkpt lat="66.14614" lon="20.86301">
        <ele>65.49809</ele>
        <time>2020-09-22T10:05:42.383Z</time>
      </trkpt>
      <trkpt lat="66.14605" lon="20.86311">
        <ele>65.432075</ele>
        <time>2020-09-22T10:05:44.394Z</time>
      </trkpt>
      <trkpt lat="66.14596" lon="20.86323">
        <ele>65.36511</ele>
        <time>2020-09-22T10:05:46.417Z</time>
      </trkpt>
      <trkpt lat="66.14587" lon="20.86336">
        <ele>65.298072</ele>
        <time>2020-09-22T10:05:48.421Z</time>
      </trkpt>
      <trkpt lat="66.14578" lon="20.86348">
        <ele>65.234407</ele>
        <time>2020-09-22T10:05:50.376Z</time>
      </trkpt>
      <trkpt lat="66.1457" lon="20.86362">
        <ele>65.223503</ele>
        <time>2020-09-22T10:05:52.380Z</time>
      </trkpt>
      <trkpt lat="66.14562" lon="20.86376">
        <ele>65.30853</ele>
        <time>2020-09-22T10:05:54.376Z</time>
      </trkpt>
      <trkpt lat="66.14554" lon="20.86389">
        <ele>65.394206</ele>
        <time>2020-09-22T10:05:56.380Z</time>
      </trkpt>
      <trkpt lat="66.14545" lon="20.86403">
        <ele>65.47897</ele>
        <time>2020-09-22T10:05:58.378Z</time>
      </trkpt>
      <trkpt lat="66.14538" lon="20.86417">
        <ele>65.562709</ele>
        <time>2020-09-22T10:06:00.378Z</time>
      </trkpt>
      <trkpt lat="66.1453" lon="20.86431">
        <ele>65.64624</ele>
        <time>2020-09-22T10:06:02.411Z</time>
      </trkpt>
      <trkpt lat="66.14522" lon="20.86445">
        <ele>65.727763</ele>
        <time>2020-09-22T10:06:04.373Z</time>
      </trkpt>
      <trkpt lat="66.14515" lon="20.8646">
        <ele>65.811869</ele>
        <time>2020-09-22T10:06:06.384Z</time>
      </trkpt>
      <trkpt lat="66.14507" lon="20.86475">
        <ele>65.895306</ele>
        <time>2020-09-22T10:06:08.389Z</time>
      </trkpt>
      <trkpt lat="66.145" lon="20.8649">
        <ele>65.975839</ele>
        <time>2020-09-22T10:06:10.392Z</time>
      </trkpt>
      <trkpt lat="66.1449" lon="20.8651">
        <ele>66.088821</ele>
        <time>2020-09-22T10:06:13.441Z</time>
      </trkpt>
      <trkpt lat="66.1448" lon="20.86528">
        <ele>66.19494</ele>
        <time>2020-09-22T10:06:16.376Z</time>
      </trkpt>
      <trkpt lat="66.14471" lon="20.86546">
        <ele>66.293432</ele>
        <time>2020-09-22T10:06:19.383Z</time>
      </trkpt>
      <trkpt lat="66.14463" lon="20.86562">
        <ele>66.385517</ele>
        <time>2020-09-22T10:06:22.409Z</time>
      </trkpt>
      <trkpt lat="66.14454" lon="20.86578">
        <ele>66.476885</ele>
        <time>2020-09-22T10:06:25.377Z</time>
      </trkpt>
      <trkpt lat="66.14446" lon="20.86593">
        <ele>66.567007</ele>
        <time>2020-09-22T10:06:28.393Z</time>
      </trkpt>
      <trkpt lat="66.14438" lon="20.86607">
        <ele>66.65153</ele>
        <time>2020-09-22T10:06:31.391Z</time>
      </trkpt>
      <trkpt lat="66.14429" lon="20.86625">
        <ele>66.747054</ele>
        <time>2020-09-22T10:06:34.379Z</time>
      </trkpt>
      <trkpt lat="66.14419" lon="20.86643">
        <ele>66.795863</ele>
        <time>2020-09-22T10:06:37.369Z</time>
      </trkpt>
      <trkpt lat="66.14409" lon="20.86662">
        <ele>66.84733</ele>
        <time>2020-09-22T10:06:40.371Z</time>
      </trkpt>
      <trkpt lat="66.14399" lon="20.86681">
        <ele>66.899778</ele>
        <time>2020-09-22T10:06:43.371Z</time>
      </trkpt>
      <trkpt lat="66.14388" lon="20.86701">
        <ele>66.954286</ele>
        <time>2020-09-22T10:06:46.445Z</time>
      </trkpt>
      <trkpt lat="66.14377" lon="20.8672">
        <ele>67.00811</ele>
        <time>2020-09-22T10:06:49.385Z</time>
      </trkpt>
      <trkpt lat="66.1437" lon="20.86732">
        <ele>67.045166</ele>
        <time>2020-09-22T10:06:51.392Z</time>
      </trkpt>
      <trkpt lat="66.14362" lon="20.86744">
        <ele>67.082741</ele>
        <time>2020-09-22T10:06:53.399Z</time>
      </trkpt>
      <trkpt lat="66.14354" lon="20.86755">
        <ele>67.119449</ele>
        <time>2020-09-22T10:06:55.374Z</time>
      </trkpt>
      <trkpt lat="66.14342" lon="20.86771">
        <ele>67.173332</ele>
        <time>2020-09-22T10:06:58.371Z</time>
      </trkpt>
      <trkpt lat="66.1433" lon="20.86785">
        <ele>67.228369</ele>
        <time>2020-09-22T10:07:01.376Z</time>
      </trkpt>
      <trkpt lat="66.14318" lon="20.86798">
        <ele>67.281267</ele>
        <time>2020-09-22T10:07:04.374Z</time>
      </trkpt>
      <trkpt lat="66.14306" lon="20.8681">
        <ele>67.334979</ele>
        <time>2020-09-22T10:07:07.365Z</time>
      </trkpt>
      <trkpt lat="66.14294" lon="20.86821">
        <ele>67.387082</ele>
        <time>2020-09-22T10:07:10.420Z</time>
      </trkpt>
      <trkpt lat="66.14282" lon="20.86831">
        <ele>67.438303</ele>
        <time>2020-09-22T10:07:13.373Z</time>
      </trkpt>
      <trkpt lat="66.14273" lon="20.86838">
        <ele>67.47532</ele>
        <time>2020-09-22T10:07:15.370Z</time>
      </trkpt>
      <trkpt lat="66.14264" lon="20.86844">
        <ele>67.468598</ele>
        <time>2020-09-22T10:07:17.396Z</time>
      </trkpt>
      <trkpt lat="66.14253" lon="20.8685">
        <ele>67.460385</ele>
        <time>2020-09-22T10:07:19.436Z</time>
      </trkpt>
      <trkpt lat="66.14242" lon="20.86857">
        <ele>67.451683</ele>
        <time>2020-09-22T10:07:21.359Z</time>
      </trkpt>
      <trkpt lat="66.1423" lon="20.86864">
        <ele>67.441934</ele>
        <time>2020-09-22T10:07:23.383Z</time>
      </trkpt>
      <trkpt lat="66.14218" lon="20.86872">
        <ele>67.432087</ele>
        <time>2020-09-22T10:07:25.390Z</time>
      </trkpt>
      <trkpt lat="66.14206" lon="20.8688">
        <ele>67.422248</ele>
        <time>2020-09-22T10:07:27.382Z</time>
      </trkpt>
      <trkpt lat="66.14194" lon="20.86886">
        <ele>67.412665</ele>
        <time>2020-09-22T10:07:29.399Z</time>
      </trkpt>
      <trkpt lat="66.14182" lon="20.86892">
        <ele>67.403468</ele>
        <time>2020-09-22T10:07:31.390Z</time>
      </trkpt>
      <trkpt lat="66.14171" lon="20.86898">
        <ele>67.394623</ele>
        <time>2020-09-22T10:07:33.373Z</time>
      </trkpt>
      <trkpt lat="66.1416" lon="20.86905">
        <ele>67.386039</ele>
        <time>2020-09-22T10:07:35.369Z</time>
      </trkpt>
      <trkpt lat="66.1415" lon="20.86912">
        <ele>67.377863</ele>
        <time>2020-09-22T10:07:37.381Z</time>
      </trkpt>
      <trkpt lat="66.14141" lon="20.86918">
        <ele>67.370369</ele>
        <time>2020-09-22T10:07:39.393Z</time>
      </trkpt>
      <trkpt lat="66.14132" lon="20.86924">
        <ele>67.363231</ele>
        <time>2020-09-22T10:07:41.375Z</time>
      </trkpt>
      <trkpt lat="66.14123" lon="20.8693">
        <ele>67.35621</ele>
        <time>2020-09-22T10:07:43.394Z</time>
      </trkpt>
      <trkpt lat="66.1411" lon="20.86938">
        <ele>67.346189</ele>
        <time>2020-09-22T10:07:46.392Z</time>
      </trkpt>
      <trkpt lat="66.14098" lon="20.86947">
        <ele>67.323713</ele>
        <time>2020-09-22T10:07:49.388Z</time>
      </trkpt>
      <trkpt lat="66.14085" lon="20.86956">
        <ele>67.11642</ele>
        <time>2020-09-22T10:07:52.420Z</time>
      </trkpt>
      <trkpt lat="66.14072" lon="20.86963">
        <ele>66.908822</ele>
        <time>2020-09-22T10:07:55.369Z</time>
      </trkpt>
      <trkpt lat="66.14062" lon="20.8697">
        <ele>66.759804</ele>
        <time>2020-09-22T10:07:57.404Z</time>
      </trkpt>
      <trkpt lat="66.14052" lon="20.86975">
        <ele>66.602613</ele>
        <time>2020-09-22T10:07:59.365Z</time>
      </trkpt>
      <trkpt lat="66.14042" lon="20.86981">
        <ele>66.445829</ele>
        <time>2020-09-22T10:08:01.378Z</time>
      </trkpt>
      <trkpt lat="66.14032" lon="20.86987">
        <ele>66.283002</ele>
        <time>2020-09-22T10:08:03.374Z</time>
      </trkpt>
      <trkpt lat="66.14021" lon="20.86995">
        <ele>66.11429</ele>
        <time>2020-09-22T10:08:05.381Z</time>
      </trkpt>
      <trkpt lat="66.14011" lon="20.87002">
        <ele>65.943935</ele>
        <time>2020-09-22T10:08:07.381Z</time>
      </trkpt>
      <trkpt lat="66.14" lon="20.87009">
        <ele>65.768469</ele>
        <time>2020-09-22T10:08:09.359Z</time>
      </trkpt>
      <trkpt lat="66.13988" lon="20.87017">
        <ele>65.582855</ele>
        <time>2020-09-22T10:08:11.380Z</time>
      </trkpt>
      <trkpt lat="66.13976" lon="20.87024">
        <ele>65.39981</ele>
        <time>2020-09-22T10:08:13.378Z</time>
      </trkpt>
      <trkpt lat="66.13965" lon="20.87031">
        <ele>65.217623</ele>
        <time>2020-09-22T10:08:15.420Z</time>
      </trkpt>
      <trkpt lat="66.13953" lon="20.87038">
        <ele>65.025061</ele>
        <time>2020-09-22T10:08:17.382Z</time>
      </trkpt>
      <trkpt lat="66.1394" lon="20.87045">
        <ele>64.828467</ele>
        <time>2020-09-22T10:08:19.391Z</time>
      </trkpt>
      <trkpt lat="66.13927" lon="20.87052">
        <ele>64.620052</ele>
        <time>2020-09-22T10:08:21.400Z</time>
      </trkpt>
      <trkpt lat="66.13913" lon="20.8706">
        <ele>65.246624</ele>
        <time>2020-09-22T10:08:23.389Z</time>
      </trkpt>
      <trkpt lat="66.13898" lon="20.87069">
        <ele>66.103768</ele>
        <time>2020-09-22T10:08:25.369Z</time>
      </trkpt>
      <trkpt lat="66.13883" lon="20.8708">
        <ele>66.990237</ele>
        <time>2020-09-22T10:08:27.390Z</time>
      </trkpt>
      <trkpt lat="66.13869" lon="20.8709">
        <ele>67.833727</ele>
        <time>2020-09-22T10:08:29.368Z</time>
      </trkpt>
      <trkpt lat="66.13857" lon="20.87098">
        <ele>68.558232</ele>
        <time>2020-09-22T10:08:31.408Z</time>
      </trkpt>
      <trkpt lat="66.13847" lon="20.87105">
        <ele>69.161241</ele>
        <time>2020-09-22T10:08:33.372Z</time>
      </trkpt>
      <trkpt lat="66.13837" lon="20.87111">
        <ele>69.708753</ele>
        <time>2020-09-22T10:08:35.417Z</time>
      </trkpt>
      <trkpt lat="66.13825" lon="20.87118">
        <ele>70.431297</ele>
        <time>2020-09-22T10:08:38.391Z</time>
      </trkpt>
      <trkpt lat="66.13815" lon="20.87124">
        <ele>71.028555</ele>
        <time>2020-09-22T10:08:41.386Z</time>
      </trkpt>
      <trkpt lat="66.13806" lon="20.87128">
        <ele>71.552548</ele>
        <time>2020-09-22T10:08:44.392Z</time>
      </trkpt>
      <trkpt lat="66.13795" lon="20.87134">
        <ele>72.17755</ele>
        <time>2020-09-22T10:08:48.401Z</time>
      </trkpt>
      <trkpt lat="66.13786" lon="20.87139">
        <ele>72.706195</ele>
        <time>2020-09-22T10:08:51.372Z</time>
      </trkpt>
      <trkpt lat="66.13777" lon="20.87146">
        <ele>73.216554</ele>
        <time>2020-09-22T10:08:54.404Z</time>
      </trkpt>
      <trkpt lat="66.13769" lon="20.87154">
        <ele>73.74777</ele>
        <time>2020-09-22T10:08:57.393Z</time>
      </trkpt>
      <trkpt lat="66.13758" lon="20.87163">
        <ele>74.414669</ele>
        <time>2020-09-22T10:09:01.374Z</time>
      </trkpt>
      <trkpt lat="66.13747" lon="20.87174">
        <ele>74.801933</ele>
        <time>2020-09-22T10:09:05.395Z</time>
      </trkpt>
      <trkpt lat="66.13737" lon="20.87183">
        <ele>74.737688</ele>
        <time>2020-09-22T10:09:09.398Z</time>
      </trkpt>
      <trkpt lat="66.13726" lon="20.87192">
        <ele>74.673051</ele>
        <time>2020-09-22T10:09:13.379Z</time>
      </trkpt>
      <trkpt lat="66.13717" lon="20.872">
        <ele>74.619223</ele>
        <time>2020-09-22T10:09:16.396Z</time>
      </trkpt>
      <trkpt lat="66.13708" lon="20.87206">
        <ele>74.561717</ele>
        <time>2020-09-22T10:09:19.374Z</time>
      </trkpt>
      <trkpt lat="66.13698" lon="20.87211">
        <ele>74.501124</ele>
        <time>2020-09-22T10:09:22.397Z</time>
      </trkpt>
      <trkpt lat="66.13687" lon="20.87217">
        <ele>74.437568</ele>
        <time>2020-09-22T10:09:25.391Z</time>
      </trkpt>
      <trkpt lat="66.13675" lon="20.87224">
        <ele>74.36658</ele>
        <time>2020-09-22T10:09:28.399Z</time>
      </trkpt>
      <trkpt lat="66.13666" lon="20.87227">
        <ele>74.309917</ele>
        <time>2020-09-22T10:09:30.382Z</time>
      </trkpt>
      <trkpt lat="66.13654" lon="20.87229">
        <ele>74.238693</ele>
        <time>2020-09-22T10:09:32.372Z</time>
      </trkpt>
      <trkpt lat="66.1364" lon="20.87231">
        <ele>74.156007</ele>
        <time>2020-09-22T10:09:34.383Z</time>
      </trkpt>
      <trkpt lat="66.13624" lon="20.87231">
        <ele>74.064605</ele>
        <time>2020-09-22T10:09:36.379Z</time>
      </trkpt>
      <trkpt lat="66.13607" lon="20.8723">
        <ele>73.96732</ele>
        <time>2020-09-22T10:09:38.399Z</time>
      </trkpt>
      <trkpt lat="66.1359" lon="20.87228">
        <ele>73.866973</ele>
        <time>2020-09-22T10:09:40.416Z</time>
      </trkpt>
      <trkpt lat="66.13574" lon="20.87224">
        <ele>73.752335</ele>
        <time>2020-09-22T10:09:42.395Z</time>
      </trkpt>
      <trkpt lat="66.13558" lon="20.87219">
        <ele>73.396438</ele>
        <time>2020-09-22T10:09:44.389Z</time>
      </trkpt>
      <trkpt lat="66.13542" lon="20.87216">
        <ele>73.052456</ele>
        <time>2020-09-22T10:09:46.393Z</time>
      </trkpt>
      <trkpt lat="66.13527" lon="20.87212">
        <ele>72.721747</ele>
        <time>2020-09-22T10:09:48.426Z</time>
      </trkpt>
      <trkpt lat="66.13514" lon="20.87208">
        <ele>72.423885</ele>
        <time>2020-09-22T10:09:50.394Z</time>
      </trkpt>
      <trkpt lat="66.13503" lon="20.87204">
        <ele>72.163245</ele>
        <time>2020-09-22T10:09:52.385Z</time>
      </trkpt>
      <trkpt lat="66.13492" lon="20.87201">
        <ele>71.921315</ele>
        <time>2020-09-22T10:09:54.391Z</time>
      </trkpt>
      <trkpt lat="66.13481" lon="20.87197">
        <ele>71.672187</ele>
        <time>2020-09-22T10:09:56.402Z</time>
      </trkpt>
      <trkpt lat="66.1347" lon="20.87194">
        <ele>71.432782</ele>
        <time>2020-09-22T10:09:58.375Z</time>
      </trkpt>
      <trkpt lat="66.1346" lon="20.8719">
        <ele>71.208492</ele>
        <time>2020-09-22T10:10:00.372Z</time>
      </trkpt>
      <trkpt lat="66.1345" lon="20.87188">
        <ele>70.994233</ele>
        <time>2020-09-22T10:10:02.442Z</time>
      </trkpt>
      <trkpt lat="66.13441" lon="20.87188">
        <ele>70.785224</ele>
        <time>2020-09-22T10:10:04.381Z</time>
      </trkpt>
      <trkpt lat="66.13432" lon="20.87187">
        <ele>70.578311</ele>
        <time>2020-09-22T10:10:06.394Z</time>
      </trkpt>
      <trkpt lat="66.13422" lon="20.87187">
        <ele>70.371538</ele>
        <time>2020-09-22T10:10:08.382Z</time>
      </trkpt>
      <trkpt lat="66.13413" lon="20.87187">
        <ele>70.169228</ele>
        <time>2020-09-22T10:10:10.384Z</time>
      </trkpt>
      <trkpt lat="66.134" lon="20.8719">
        <ele>69.868324</ele>
        <time>2020-09-22T10:10:13.372Z</time>
      </trkpt>
      <trkpt lat="66.13391" lon="20.87191">
        <ele>69.816157</ele>
        <time>2020-09-22T10:10:15.375Z</time>
      </trkpt>
      <trkpt lat="66.13381" lon="20.87193">
        <ele>69.892369</ele>
        <time>2020-09-22T10:10:17.389Z</time>
      </trkpt>
      <trkpt lat="66.13372" lon="20.87195">
        <ele>69.971913</ele>
        <time>2020-09-22T10:10:19.411Z</time>
      </trkpt>
      <trkpt lat="66.13362" lon="20.87197">
        <ele>70.052412</ele>
        <time>2020-09-22T10:10:21.378Z</time>
      </trkpt>
      <trkpt lat="66.13352" lon="20.872">
        <ele>70.133247</ele>
        <time>2020-09-22T10:10:23.390Z</time>
      </trkpt>
      <trkpt lat="66.13342" lon="20.87203">
        <ele>70.213998</ele>
        <time>2020-09-22T10:10:25.386Z</time>
      </trkpt>
      <trkpt lat="66.13332" lon="20.87207">
        <ele>70.295826</ele>
        <time>2020-09-22T10:10:27.386Z</time>
      </trkpt>
      <trkpt lat="66.13323" lon="20.87211">
        <ele>70.375608</ele>
        <time>2020-09-22T10:10:29.405Z</time>
      </trkpt>
      <trkpt lat="66.13313" lon="20.87215">
        <ele>70.453663</ele>
        <time>2020-09-22T10:10:31.372Z</time>
      </trkpt>
      <trkpt lat="66.13304" lon="20.8722">
        <ele>70.533505</ele>
        <time>2020-09-22T10:10:33.393Z</time>
      </trkpt>
      <trkpt lat="66.13294" lon="20.87224">
        <ele>70.611503</ele>
        <time>2020-09-22T10:10:35.393Z</time>
      </trkpt>
      <trkpt lat="66.13285" lon="20.87228">
        <ele>70.688813</ele>
        <time>2020-09-22T10:10:37.389Z</time>
      </trkpt>
      <trkpt lat="66.13276" lon="20.87233">
        <ele>70.766858</ele>
        <time>2020-09-22T10:10:39.375Z</time>
      </trkpt>
      <trkpt lat="66.13267" lon="20.8724">
        <ele>70.844504</ele>
        <time>2020-09-22T10:10:41.376Z</time>
      </trkpt>
      <trkpt lat="66.13258" lon="20.87246">
        <ele>70.921367</ele>
        <time>2020-09-22T10:10:43.403Z</time>
      </trkpt>
      <trkpt lat="66.13248" lon="20.87252">
        <ele>70.997745</ele>
        <time>2020-09-22T10:10:45.370Z</time>
      </trkpt>
      <trkpt lat="66.1324" lon="20.87257">
        <ele>71.072765</ele>
        <time>2020-09-22T10:10:47.404Z</time>
      </trkpt>
      <trkpt lat="66.1323" lon="20.87262">
        <ele>71.149217</ele>
        <time>2020-09-22T10:10:49.377Z</time>
      </trkpt>
      <trkpt lat="66.13221" lon="20.87268">
        <ele>71.226859</ele>
        <time>2020-09-22T10:10:51.374Z</time>
      </trkpt>
      <trkpt lat="66.13212" lon="20.87275">
        <ele>71.409885</ele>
        <time>2020-09-22T10:10:53.375Z</time>
      </trkpt>
      <trkpt lat="66.13203" lon="20.87283">
        <ele>71.621501</ele>
        <time>2020-09-22T10:10:55.413Z</time>
      </trkpt>
      <trkpt lat="66.13194" lon="20.87289">
        <ele>71.826851</ele>
        <time>2020-09-22T10:10:57.395Z</time>
      </trkpt>
      <trkpt lat="66.13186" lon="20.87295">
        <ele>72.032291</ele>
        <time>2020-09-22T10:10:59.380Z</time>
      </trkpt>
      <trkpt lat="66.13177" lon="20.87303">
        <ele>72.242077</ele>
        <time>2020-09-22T10:11:01.368Z</time>
      </trkpt>
      <trkpt lat="66.13168" lon="20.8731">
        <ele>72.445562</ele>
        <time>2020-09-22T10:11:03.380Z</time>
      </trkpt>
      <trkpt lat="66.1316" lon="20.87317">
        <ele>72.647776</ele>
        <time>2020-09-22T10:11:05.375Z</time>
      </trkpt>
      <trkpt lat="66.13151" lon="20.87324">
        <ele>72.852415</ele>
        <time>2020-09-22T10:11:07.408Z</time>
      </trkpt>
      <trkpt lat="66.13139" lon="20.87335">
        <ele>73.151372</ele>
        <time>2020-09-22T10:11:10.389Z</time>
      </trkpt>
      <trkpt lat="66.13126" lon="20.87345">
        <ele>73.450521</ele>
        <time>2020-09-22T10:11:13.390Z</time>
      </trkpt>
      <trkpt lat="66.13114" lon="20.87355">
        <ele>73.736106</ele>
        <time>2020-09-22T10:11:16.375Z</time>
      </trkpt>
      <trkpt lat="66.13101" lon="20.87366">
        <ele>74.035025</ele>
        <time>2020-09-22T10:11:19.404Z</time>
      </trkpt>
      <trkpt lat="66.13089" lon="20.87377">
        <ele>74.329401</ele>
        <time>2020-09-22T10:11:22.388Z</time>
      </trkpt>
      <trkpt lat="66.13077" lon="20.87387">
        <ele>74.611975</ele>
        <time>2020-09-22T10:11:25.369Z</time>
      </trkpt>
      <trkpt lat="66.13066" lon="20.87396">
        <ele>74.872742</ele>
        <time>2020-09-22T10:11:28.410Z</time>
      </trkpt>
      <trkpt lat="66.13055" lon="20.87405">
        <ele>75.131663</ele>
        <time>2020-09-22T10:11:31.390Z</time>
      </trkpt>
      <trkpt lat="66.13045" lon="20.87414">
        <ele>75.479561</ele>
        <time>2020-09-22T10:11:34.368Z</time>
      </trkpt>
      <trkpt lat="66.13034" lon="20.87424">
        <ele>75.995115</ele>
        <time>2020-09-22T10:11:37.388Z</time>
      </trkpt>
      <trkpt lat="66.13023" lon="20.87433">
        <ele>76.5008</ele>
        <time>2020-09-22T10:11:40.387Z</time>
      </trkpt>
      <trkpt lat="66.13013" lon="20.87442">
        <ele>76.971942</ele>
        <time>2020-09-22T10:11:43.376Z</time>
      </trkpt>
      <trkpt lat="66.13004" lon="20.87449">
        <ele>77.413412</ele>
        <time>2020-09-22T10:11:46.377Z</time>
      </trkpt>
      <trkpt lat="66.12994" lon="20.87458">
        <ele>77.891822</ele>
        <time>2020-09-22T10:11:50.373Z</time>
      </trkpt>
      <trkpt lat="66.12984" lon="20.87467">
        <ele>78.366</ele>
        <time>2020-09-22T10:11:55.407Z</time>
      </trkpt>
      <trkpt lat="66.12974" lon="20.87474">
        <ele>78.825163</ele>
        <time>2020-09-22T10:12:00.376Z</time>
      </trkpt>
      <trkpt lat="66.12965" lon="20.87481">
        <ele>79.267588</ele>
        <time>2020-09-22T10:12:05.371Z</time>
      </trkpt>
      <trkpt lat="66.12955" lon="20.87488">
        <ele>79.74956</ele>
        <time>2020-09-22T10:12:11.378Z</time>
      </trkpt>
      <trkpt lat="66.12945" lon="20.87496">
        <ele>80.195875</ele>
        <time>2020-09-22T10:12:17.376Z</time>
      </trkpt>
      <trkpt lat="66.12937" lon="20.87506">
        <ele>80.62853</ele>
        <time>2020-09-22T10:12:23.376Z</time>
      </trkpt>
      <trkpt lat="66.12926" lon="20.8751">
        <ele>81.091798</ele>
        <time>2020-09-22T10:12:30.375Z</time>
      </trkpt>
      <trkpt lat="66.12917" lon="20.87515">
        <ele>81.506611</ele>
        <time>2020-09-22T10:12:36.396Z</time>
      </trkpt>
      <trkpt lat="66.12908" lon="20.87522">
        <ele>81.965776</ele>
        <time>2020-09-22T10:12:43.414Z</time>
      </trkpt>
      <trkpt lat="66.12899" lon="20.87529">
        <ele>82.382347</ele>
        <time>2020-09-22T10:12:48.379Z</time>
      </trkpt>
      <trkpt lat="66.1289" lon="20.87535">
        <ele>82.787008</ele>
        <time>2020-09-22T10:12:52.367Z</time>
      </trkpt>
      <trkpt lat="66.1288" lon="20.87541">
        <ele>83.236214</ele>
        <time>2020-09-22T10:12:57.382Z</time>
      </trkpt>
      <trkpt lat="66.12872" lon="20.87545">
        <ele>83.291496</ele>
        <time>2020-09-22T10:13:01.373Z</time>
      </trkpt>
      <trkpt lat="66.12861" lon="20.8755">
        <ele>83.105315</ele>
        <time>2020-09-22T10:13:05.398Z</time>
      </trkpt>
      <trkpt lat="66.12851" lon="20.87556">
        <ele>82.914238</ele>
        <time>2020-09-22T10:13:09.389Z</time>
      </trkpt>
      <trkpt lat="66.1284" lon="20.87558">
        <ele>82.718933</ele>
        <time>2020-09-22T10:13:13.388Z</time>
      </trkpt>
      <trkpt lat="66.12831" lon="20.87562">
        <ele>82.557616</ele>
        <time>2020-09-22T10:13:16.378Z</time>
      </trkpt>
      <trkpt lat="66.12822" lon="20.87565">
        <ele>82.39752</ele>
        <time>2020-09-22T10:13:19.383Z</time>
      </trkpt>
      <trkpt lat="66.12811" lon="20.87572">
        <ele>82.198541</ele>
        <time>2020-09-22T10:13:23.382Z</time>
      </trkpt>
      <trkpt lat="66.12802" lon="20.87572">
        <ele>82.035989</ele>
        <time>2020-09-22T10:13:26.408Z</time>
      </trkpt>
      <trkpt lat="66.12792" lon="20.87572">
        <ele>81.873428</ele>
        <time>2020-09-22T10:13:29.408Z</time>
      </trkpt>
      <trkpt lat="66.12783" lon="20.87574">
        <ele>81.708364</ele>
        <time>2020-09-22T10:13:32.388Z</time>
      </trkpt>
      <trkpt lat="66.12774" lon="20.87576">
        <ele>81.540129</ele>
        <time>2020-09-22T10:13:35.376Z</time>
      </trkpt>
      <trkpt lat="66.12763" lon="20.87582">
        <ele>81.351275</ele>
        <time>2020-09-22T10:13:38.390Z</time>
      </trkpt>
      <trkpt lat="66.12752" lon="20.87586">
        <ele>81.142686</ele>
        <time>2020-09-22T10:13:41.388Z</time>
      </trkpt>
      <trkpt lat="66.1274" lon="20.8759">
        <ele>80.935849</ele>
        <time>2020-09-22T10:13:44.386Z</time>
      </trkpt>
      <trkpt lat="66.12729" lon="20.87594">
        <ele>80.741155</ele>
        <time>2020-09-22T10:13:47.393Z</time>
      </trkpt>
      <trkpt lat="66.12718" lon="20.87597">
        <ele>80.550264</ele>
        <time>2020-09-22T10:13:50.377Z</time>
      </trkpt>
      <trkpt lat="66.12707" lon="20.87601">
        <ele>80.354401</ele>
        <time>2020-09-22T10:13:53.379Z</time>
      </trkpt>
      <trkpt lat="66.12697" lon="20.87604">
        <ele>80.220179</ele>
        <time>2020-09-22T10:13:56.375Z</time>
      </trkpt>
      <trkpt lat="66.12687" lon="20.87608">
        <ele>80.254512</ele>
        <time>2020-09-22T10:13:59.390Z</time>
      </trkpt>
      <trkpt lat="66.12678" lon="20.87612">
        <ele>80.287053</ele>
        <time>2020-09-22T10:14:02.402Z</time>
      </trkpt>
      <trkpt lat="66.12669" lon="20.87617">
        <ele>80.319337</ele>
        <time>2020-09-22T10:14:05.400Z</time>
      </trkpt>
      <trkpt lat="66.1266" lon="20.87622">
        <ele>80.353336</ele>
        <time>2020-09-22T10:14:08.397Z</time>
      </trkpt>
      <trkpt lat="66.1265" lon="20.87626">
        <ele>80.388606</ele>
        <time>2020-09-22T10:14:11.377Z</time>
      </trkpt>
      <trkpt lat="66.1264" lon="20.87629">
        <ele>80.423864</ele>
        <time>2020-09-22T10:14:14.406Z</time>
      </trkpt>
      <trkpt lat="66.12629" lon="20.87633">
        <ele>80.461441</ele>
        <time>2020-09-22T10:14:17.414Z</time>
      </trkpt>
      <trkpt lat="66.12618" lon="20.87637">
        <ele>80.499754</ele>
        <time>2020-09-22T10:14:20.392Z</time>
      </trkpt>
      <trkpt lat="66.12607" lon="20.8764">
        <ele>80.538242</ele>
        <time>2020-09-22T10:14:23.391Z</time>
      </trkpt>
      <trkpt lat="66.12597" lon="20.87645">
        <ele>80.575658</ele>
        <time>2020-09-22T10:14:26.384Z</time>
      </trkpt>
      <trkpt lat="66.12586" lon="20.87649">
        <ele>80.614754</ele>
        <time>2020-09-22T10:14:29.379Z</time>
      </trkpt>
      <trkpt lat="66.12575" lon="20.87653">
        <ele>80.654086</ele>
        <time>2020-09-22T10:14:32.401Z</time>
      </trkpt>
      <trkpt lat="66.12563" lon="20.87658">
        <ele>80.694709</ele>
        <time>2020-09-22T10:14:35.382Z</time>
      </trkpt>
      <trkpt lat="66.12552" lon="20.87664">
        <ele>80.737039</ele>
        <time>2020-09-22T10:14:38.409Z</time>
      </trkpt>
      <trkpt lat="66.12539" lon="20.87672">
        <ele>80.781328</ele>
        <time>2020-09-22T10:14:41.423Z</time>
      </trkpt>
      <trkpt lat="66.12527" lon="20.87678">
        <ele>80.825317</ele>
        <time>2020-09-22T10:14:44.379Z</time>
      </trkpt>
      <trkpt lat="66.12514" lon="20.87686">
        <ele>80.877201</ele>
        <time>2020-09-22T10:14:47.381Z</time>
      </trkpt>
      <trkpt lat="66.12506" lon="20.87692">
        <ele>80.915883</ele>
        <time>2020-09-22T10:14:49.382Z</time>
      </trkpt>
      <trkpt lat="66.12496" lon="20.87698">
        <ele>80.958092</ele>
        <time>2020-09-22T10:14:51.418Z</time>
      </trkpt>
      <trkpt lat="66.12486" lon="20.87704">
        <ele>81.00059</ele>
        <time>2020-09-22T10:14:53.396Z</time>
      </trkpt>
      <trkpt lat="66.12476" lon="20.87713">
        <ele>81.045289</ele>
        <time>2020-09-22T10:14:55.426Z</time>
      </trkpt>
      <trkpt lat="66.12466" lon="20.87719">
        <ele>81.0901</ele>
        <time>2020-09-22T10:14:57.379Z</time>
      </trkpt>
      <trkpt lat="66.12456" lon="20.87726">
        <ele>81.132555</ele>
        <time>2020-09-22T10:14:59.375Z</time>
      </trkpt>
      <trkpt lat="66.12447" lon="20.87733">
        <ele>81.175374</ele>
        <time>2020-09-22T10:15:01.396Z</time>
      </trkpt>
      <trkpt lat="66.12437" lon="20.87739">
        <ele>81.217462</ele>
        <time>2020-09-22T10:15:03.410Z</time>
      </trkpt>
      <trkpt lat="66.12427" lon="20.87746">
        <ele>81.26173</ele>
        <time>2020-09-22T10:15:05.374Z</time>
      </trkpt>
      <trkpt lat="66.12417" lon="20.87752">
        <ele>81.306408</ele>
        <time>2020-09-22T10:15:07.373Z</time>
      </trkpt>
      <trkpt lat="66.12406" lon="20.87759">
        <ele>81.353138</ele>
        <time>2020-09-22T10:15:09.387Z</time>
      </trkpt>
      <trkpt lat="66.12394" lon="20.87766">
        <ele>81.40386</ele>
        <time>2020-09-22T10:15:11.403Z</time>
      </trkpt>
      <trkpt lat="66.12384" lon="20.87772">
        <ele>81.448926</ele>
        <time>2020-09-22T10:15:13.367Z</time>
      </trkpt>
      <trkpt lat="66.12373" lon="20.87777">
        <ele>81.495651</ele>
        <time>2020-09-22T10:15:15.392Z</time>
      </trkpt>
      <trkpt lat="66.12363" lon="20.87782">
        <ele>81.539648</ele>
        <time>2020-09-22T10:15:17.381Z</time>
      </trkpt>
      <trkpt lat="66.12353" lon="20.87785">
        <ele>81.582773</ele>
        <time>2020-09-22T10:15:19.412Z</time>
      </trkpt>
      <trkpt lat="66.12343" lon="20.87788">
        <ele>81.624911</ele>
        <time>2020-09-22T10:15:21.390Z</time>
      </trkpt>
      <trkpt lat="66.12334" lon="20.87791">
        <ele>81.665515</ele>
        <time>2020-09-22T10:15:23.405Z</time>
      </trkpt>
      <trkpt lat="66.1232" lon="20.8779">
        <ele>81.724356</ele>
        <time>2020-09-22T10:15:26.415Z</time>
      </trkpt>
      <trkpt lat="66.1231" lon="20.8779">
        <ele>81.765586</ele>
        <time>2020-09-22T10:15:28.383Z</time>
      </trkpt>
      <trkpt lat="66.123" lon="20.87789">
        <ele>81.808998</ele>
        <time>2020-09-22T10:15:30.419Z</time>
      </trkpt>
      <trkpt lat="66.1229" lon="20.87788">
        <ele>81.852827</ele>
        <time>2020-09-22T10:15:32.424Z</time>
      </trkpt>
      <trkpt lat="66.12281" lon="20.87788">
        <ele>81.893229</ele>
        <time>2020-09-22T10:15:34.396Z</time>
      </trkpt>
      <trkpt lat="66.12272" lon="20.87786">
        <ele>81.932805</ele>
        <time>2020-09-22T10:15:36.415Z</time>
      </trkpt>
      <trkpt lat="66.12262" lon="20.87785">
        <ele>81.973659</ele>
        <time>2020-09-22T10:15:38.399Z</time>
      </trkpt>
      <trkpt lat="66.12252" lon="20.87784">
        <ele>82.018341</ele>
        <time>2020-09-22T10:15:40.390Z</time>
      </trkpt>
      <trkpt lat="66.12241" lon="20.87785">
        <ele>82.062154</ele>
        <time>2020-09-22T10:15:42.384Z</time>
      </trkpt>
      <trkpt lat="66.12231" lon="20.87784">
        <ele>82.106002</ele>
        <time>2020-09-22T10:15:44.406Z</time>
      </trkpt>
      <trkpt lat="66.1222" lon="20.87783">
        <ele>82.152407</ele>
        <time>2020-09-22T10:15:46.379Z</time>
      </trkpt>
      <trkpt lat="66.12209" lon="20.87784">
        <ele>82.20359</ele>
        <time>2020-09-22T10:15:48.390Z</time>
      </trkpt>
      <trkpt lat="66.12196" lon="20.87786">
        <ele>82.256901</ele>
        <time>2020-09-22T10:15:50.387Z</time>
      </trkpt>
      <trkpt lat="66.12185" lon="20.87788">
        <ele>82.305545</ele>
        <time>2020-09-22T10:15:52.373Z</time>
      </trkpt>
      <trkpt lat="66.12173" lon="20.87791">
        <ele>82.35614</ele>
        <time>2020-09-22T10:15:54.379Z</time>
      </trkpt>
      <trkpt lat="66.12162" lon="20.87793">
        <ele>82.300284</ele>
        <time>2020-09-22T10:15:56.407Z</time>
      </trkpt>
      <trkpt lat="66.12152" lon="20.87796">
        <ele>82.168729</ele>
        <time>2020-09-22T10:15:58.374Z</time>
      </trkpt>
      <trkpt lat="66.12142" lon="20.87799">
        <ele>82.038559</ele>
        <time>2020-09-22T10:16:00.393Z</time>
      </trkpt>
      <trkpt lat="66.12131" lon="20.87804">
        <ele>81.900226</ele>
        <time>2020-09-22T10:16:02.373Z</time>
      </trkpt>
      <trkpt lat="66.12121" lon="20.87808">
        <ele>81.763438</ele>
        <time>2020-09-22T10:16:04.362Z</time>
      </trkpt>
      <trkpt lat="66.1211" lon="20.87814">
        <ele>81.622672</ele>
        <time>2020-09-22T10:16:06.376Z</time>
      </trkpt>
      <trkpt lat="66.121" lon="20.87822">
        <ele>81.487629</ele>
        <time>2020-09-22T10:16:08.389Z</time>
      </trkpt>
      <trkpt lat="66.1209" lon="20.87831">
        <ele>81.345311</ele>
        <time>2020-09-22T10:16:10.373Z</time>
      </trkpt>
      <trkpt lat="66.12079" lon="20.87844">
        <ele>81.188503</ele>
        <time>2020-09-22T10:16:12.396Z</time>
      </trkpt>
      <trkpt lat="66.12067" lon="20.87857">
        <ele>81.024264</ele>
        <time>2020-09-22T10:16:14.408Z</time>
      </trkpt>
      <trkpt lat="66.12055" lon="20.87871">
        <ele>80.855749</ele>
        <time>2020-09-22T10:16:16.369Z</time>
      </trkpt>
      <trkpt lat="66.12044" lon="20.87886">
        <ele>80.690566</ele>
        <time>2020-09-22T10:16:18.380Z</time>
      </trkpt>
      <trkpt lat="66.12033" lon="20.87903">
        <ele>80.525281</ele>
        <time>2020-09-22T10:16:20.390Z</time>
      </trkpt>
      <trkpt lat="66.12022" lon="20.87922">
        <ele>80.357985</ele>
        <time>2020-09-22T10:16:22.387Z</time>
      </trkpt>
      <trkpt lat="66.12011" lon="20.8794">
        <ele>80.18183</ele>
        <time>2020-09-22T10:16:24.373Z</time>
      </trkpt>
      <trkpt lat="66.11999" lon="20.87958">
        <ele>79.91962</ele>
        <time>2020-09-22T10:16:26.413Z</time>
      </trkpt>
      <trkpt lat="66.11987" lon="20.87974">
        <ele>79.537238</ele>
        <time>2020-09-22T10:16:28.389Z</time>
      </trkpt>
      <trkpt lat="66.11977" lon="20.8799">
        <ele>79.193962</ele>
        <time>2020-09-22T10:16:30.370Z</time>
      </trkpt>
      <trkpt lat="66.11968" lon="20.88006">
        <ele>78.888696</ele>
        <time>2020-09-22T10:16:32.381Z</time>
      </trkpt>
      <trkpt lat="66.1196" lon="20.88019">
        <ele>78.613657</ele>
        <time>2020-09-22T10:16:34.376Z</time>
      </trkpt>
      <trkpt lat="66.11949" lon="20.88036">
        <ele>78.269486</ele>
        <time>2020-09-22T10:16:37.381Z</time>
      </trkpt>
      <trkpt lat="66.11941" lon="20.88049">
        <ele>77.997425</ele>
        <time>2020-09-22T10:16:40.373Z</time>
      </trkpt>
      <trkpt lat="66.11933" lon="20.88066">
        <ele>77.685728</ele>
        <time>2020-09-22T10:16:44.396Z</time>
      </trkpt>
      <trkpt lat="66.11923" lon="20.88082">
        <ele>77.35792</ele>
        <time>2020-09-22T10:16:48.380Z</time>
      </trkpt>
      <trkpt lat="66.11914" lon="20.88097">
        <ele>77.055285</ele>
        <time>2020-09-22T10:16:52.399Z</time>
      </trkpt>
      <trkpt lat="66.11905" lon="20.88113">
        <ele>76.737847</ele>
        <time>2020-09-22T10:16:56.377Z</time>
      </trkpt>
      <trkpt lat="66.11897" lon="20.88127">
        <ele>76.456844</ele>
        <time>2020-09-22T10:16:59.388Z</time>
      </trkpt>
      <trkpt lat="66.11889" lon="20.88139">
        <ele>76.204563</ele>
        <time>2020-09-22T10:17:02.393Z</time>
      </trkpt>
      <trkpt lat="66.11882" lon="20.88152">
        <ele>75.950665</ele>
        <time>2020-09-22T10:17:05.374Z</time>
      </trkpt>
      <trkpt lat="66.11874" lon="20.88165">
        <ele>75.690081</ele>
        <time>2020-09-22T10:17:08.376Z</time>
      </trkpt>
      <trkpt lat="66.11866" lon="20.88177">
        <ele>75.425392</ele>
        <time>2020-09-22T10:17:11.382Z</time>
      </trkpt>
      <trkpt lat="66.11858" lon="20.8819">
        <ele>75.143871</ele>
        <time>2020-09-22T10:17:14.419Z</time>
      </trkpt>
      <trkpt lat="66.11849" lon="20.88203">
        <ele>75.042493</ele>
        <time>2020-09-22T10:17:17.394Z</time>
      </trkpt>
      <trkpt lat="66.11837" lon="20.88217">
        <ele>75.148205</ele>
        <time>2020-09-22T10:17:20.374Z</time>
      </trkpt>
      <trkpt lat="66.11827" lon="20.88231">
        <ele>75.245895</ele>
        <time>2020-09-22T10:17:23.363Z</time>
      </trkpt>
      <trkpt lat="66.11817" lon="20.88243">
        <ele>75.341468</ele>
        <time>2020-09-22T10:17:26.378Z</time>
      </trkpt>
      <trkpt lat="66.11806" lon="20.88255">
        <ele>75.433803</ele>
        <time>2020-09-22T10:17:29.384Z</time>
      </trkpt>
      <trkpt lat="66.11797" lon="20.88268">
        <ele>75.525728</ele>
        <time>2020-09-22T10:17:32.381Z</time>
      </trkpt>
      <trkpt lat="66.11787" lon="20.88279">
        <ele>75.614299</ele>
        <time>2020-09-22T10:17:35.392Z</time>
      </trkpt>
      <trkpt lat="66.11778" lon="20.88289">
        <ele>75.695681</ele>
        <time>2020-09-22T10:17:38.382Z</time>
      </trkpt>
      <trkpt lat="66.11769" lon="20.883">
        <ele>75.782756</ele>
        <time>2020-09-22T10:17:41.388Z</time>
      </trkpt>
      <trkpt lat="66.11757" lon="20.88315">
        <ele>75.891753</ele>
        <time>2020-09-22T10:17:44.376Z</time>
      </trkpt>
      <trkpt lat="66.11749" lon="20.88325">
        <ele>75.970777</ele>
        <time>2020-09-22T10:17:46.388Z</time>
      </trkpt>
      <trkpt lat="66.1174" lon="20.88335">
        <ele>76.048608</ele>
        <time>2020-09-22T10:17:48.388Z</time>
      </trkpt>
      <trkpt lat="66.11731" lon="20.88347">
        <ele>76.132599</ele>
        <time>2020-09-22T10:17:50.403Z</time>
      </trkpt>
      <trkpt lat="66.11723" lon="20.88357">
        <ele>76.208345</ele>
        <time>2020-09-22T10:17:52.402Z</time>
      </trkpt>
      <trkpt lat="66.11713" lon="20.8837">
        <ele>76.306774</ele>
        <time>2020-09-22T10:17:55.376Z</time>
      </trkpt>
      <trkpt lat="66.11703" lon="20.88381">
        <ele>76.392513</ele>
        <time>2020-09-22T10:17:58.378Z</time>
      </trkpt>
      <trkpt lat="66.11692" lon="20.88395">
        <ele>76.485837</ele>
        <time>2020-09-22T10:18:01.414Z</time>
      </trkpt>
      <trkpt lat="66.11683" lon="20.88404">
        <ele>76.361807</ele>
        <time>2020-09-22T10:18:03.378Z</time>
      </trkpt>
      <trkpt lat="66.11675" lon="20.88415">
        <ele>76.239006</ele>
        <time>2020-09-22T10:18:05.382Z</time>
      </trkpt>
      <trkpt lat="66.11667" lon="20.88425">
        <ele>76.119274</ele>
        <time>2020-09-22T10:18:07.403Z</time>
      </trkpt>
      <trkpt lat="66.11655" lon="20.8844">
        <ele>75.948851</ele>
        <time>2020-09-22T10:18:10.427Z</time>
      </trkpt>
      <trkpt lat="66.11647" lon="20.8845">
        <ele>75.83053</ele>
        <time>2020-09-22T10:18:12.375Z</time>
      </trkpt>
      <trkpt lat="66.11636" lon="20.88465">
        <ele>75.664498</ele>
        <time>2020-09-22T10:18:15.395Z</time>
      </trkpt>
      <trkpt lat="66.11627" lon="20.88479">
        <ele>75.518171</ele>
        <time>2020-09-22T10:18:18.401Z</time>
      </trkpt>
      <trkpt lat="66.11617" lon="20.88492">
        <ele>75.376062</ele>
        <time>2020-09-22T10:18:21.381Z</time>
      </trkpt>
      <trkpt lat="66.11607" lon="20.88504">
        <ele>75.224233</ele>
        <time>2020-09-22T10:18:24.414Z</time>
      </trkpt>
      <trkpt lat="66.11598" lon="20.88513">
        <ele>75.098785</ele>
        <time>2020-09-22T10:18:26.398Z</time>
      </trkpt>
      <trkpt lat="66.11588" lon="20.88523">
        <ele>74.960645</ele>
        <time>2020-09-22T10:18:28.375Z</time>
      </trkpt>
      <trkpt lat="66.11578" lon="20.88535">
        <ele>74.80762</ele>
        <time>2020-09-22T10:18:30.397Z</time>
      </trkpt>
      <trkpt lat="66.11566" lon="20.88549">
        <ele>74.635517</ele>
        <time>2020-09-22T10:18:32.370Z</time>
      </trkpt>
      <trkpt lat="66.11555" lon="20.88563">
        <ele>74.468892</ele>
        <time>2020-09-22T10:18:34.377Z</time>
      </trkpt>
      <trkpt lat="66.11545" lon="20.88576">
        <ele>74.322825</ele>
        <time>2020-09-22T10:18:36.381Z</time>
      </trkpt>
      <trkpt lat="66.11537" lon="20.88587">
        <ele>74.198778</ele>
        <time>2020-09-22T10:18:38.384Z</time>
      </trkpt>
      <trkpt lat="66.11528" lon="20.886">
        <ele>74.109485</ele>
        <time>2020-09-22T10:18:40.393Z</time>
      </trkpt>
      <trkpt lat="66.1152" lon="20.88611">
        <ele>74.069413</ele>
        <time>2020-09-22T10:18:42.375Z</time>
      </trkpt>
      <trkpt lat="66.1151" lon="20.88624">
        <ele>74.017365</ele>
        <time>2020-09-22T10:18:45.394Z</time>
      </trkpt>
      <trkpt lat="66.11499" lon="20.88637">
        <ele>73.964603</ele>
        <time>2020-09-22T10:18:48.409Z</time>
      </trkpt>
      <trkpt lat="66.11488" lon="20.88652">
        <ele>73.907877</ele>
        <time>2020-09-22T10:18:51.400Z</time>
      </trkpt>
      <trkpt lat="66.11477" lon="20.88665">
        <ele>73.853691</ele>
        <time>2020-09-22T10:18:54.370Z</time>
      </trkpt>
      <trkpt lat="66.11465" lon="20.88678">
        <ele>73.798058</ele>
        <time>2020-09-22T10:18:57.358Z</time>
      </trkpt>
      <trkpt lat="66.11454" lon="20.88692">
        <ele>73.742295</ele>
        <time>2020-09-22T10:19:00.377Z</time>
      </trkpt>
      <trkpt lat="66.11445" lon="20.88702">
        <ele>73.701376</ele>
        <time>2020-09-22T10:19:02.401Z</time>
      </trkpt>
      <trkpt lat="66.11437" lon="20.88714">
        <ele>73.658933</ele>
        <time>2020-09-22T10:19:04.377Z</time>
      </trkpt>
      <trkpt lat="66.11428" lon="20.88728">
        <ele>73.611797</ele>
        <time>2020-09-22T10:19:06.386Z</time>
      </trkpt>
      <trkpt lat="66.11418" lon="20.8874">
        <ele>73.563852</ele>
        <time>2020-09-22T10:19:08.377Z</time>
      </trkpt>
      <trkpt lat="66.11409" lon="20.88751">
        <ele>73.517804</ele>
        <time>2020-09-22T10:19:10.410Z</time>
      </trkpt>
      <trkpt lat="66.114" lon="20.88762">
        <ele>73.474522</ele>
        <time>2020-09-22T10:19:12.373Z</time>
      </trkpt>
      <trkpt lat="66.11391" lon="20.88772">
        <ele>73.430031</ele>
        <time>2020-09-22T10:19:14.397Z</time>
      </trkpt>
      <trkpt lat="66.11382" lon="20.88784">
        <ele>73.384509</ele>
        <time>2020-09-22T10:19:16.381Z</time>
      </trkpt>
      <trkpt lat="66.11372" lon="20.88797">
        <ele>73.335081</ele>
        <time>2020-09-22T10:19:18.406Z</time>
      </trkpt>
      <trkpt lat="66.11362" lon="20.88809">
        <ele>73.155447</ele>
        <time>2020-09-22T10:19:20.385Z</time>
      </trkpt>
      <trkpt lat="66.11352" lon="20.88822">
        <ele>72.988937</ele>
        <time>2020-09-22T10:19:22.398Z</time>
      </trkpt>
      <trkpt lat="66.11343" lon="20.88834">
        <ele>72.829145</ele>
        <time>2020-09-22T10:19:24.382Z</time>
      </trkpt>
      <trkpt lat="66.11334" lon="20.88846">
        <ele>72.670244</ele>
        <time>2020-09-22T10:19:26.423Z</time>
      </trkpt>
      <trkpt lat="66.11326" lon="20.88858">
        <ele>72.513509</ele>
        <time>2020-09-22T10:19:28.381Z</time>
      </trkpt>
      <trkpt lat="66.11316" lon="20.88869">
        <ele>72.351276</ele>
        <time>2020-09-22T10:19:30.383Z</time>
      </trkpt>
      <trkpt lat="66.11307" lon="20.88878">
        <ele>72.197365</ele>
        <time>2020-09-22T10:19:32.379Z</time>
      </trkpt>
      <trkpt lat="66.11298" lon="20.88888">
        <ele>72.042724</ele>
        <time>2020-09-22T10:19:34.371Z</time>
      </trkpt>
      <trkpt lat="66.11288" lon="20.889">
        <ele>71.870661</ele>
        <time>2020-09-22T10:19:36.424Z</time>
      </trkpt>
      <trkpt lat="66.11278" lon="20.88913">
        <ele>71.68821</ele>
        <time>2020-09-22T10:19:38.378Z</time>
      </trkpt>
      <trkpt lat="66.11267" lon="20.88926">
        <ele>71.502626</ele>
        <time>2020-09-22T10:19:40.388Z</time>
      </trkpt>
      <trkpt lat="66.11256" lon="20.8894">
        <ele>71.310077</ele>
        <time>2020-09-22T10:19:42.379Z</time>
      </trkpt>
      <trkpt lat="66.11246" lon="20.88953">
        <ele>71.125387</ele>
        <time>2020-09-22T10:19:44.384Z</time>
      </trkpt>
      <trkpt lat="66.11236" lon="20.88964">
        <ele>70.957242</ele>
        <time>2020-09-22T10:19:46.396Z</time>
      </trkpt>
      <trkpt lat="66.11226" lon="20.88975">
        <ele>70.787681</ele>
        <time>2020-09-22T10:19:48.412Z</time>
      </trkpt>
      <trkpt lat="66.11217" lon="20.88986">
        <ele>70.627357</ele>
        <time>2020-09-22T10:19:50.381Z</time>
      </trkpt>
      <trkpt lat="66.11207" lon="20.88996">
        <ele>70.511386</ele>
        <time>2020-09-22T10:19:52.413Z</time>
      </trkpt>
      <trkpt lat="66.11197" lon="20.89008">
        <ele>70.486037</ele>
        <time>2020-09-22T10:19:54.378Z</time>
      </trkpt>
      <trkpt lat="66.11187" lon="20.89021">
        <ele>70.459054</ele>
        <time>2020-09-22T10:19:56.376Z</time>
      </trkpt>
      <trkpt lat="66.11177" lon="20.89034">
        <ele>70.43178</ele>
        <time>2020-09-22T10:19:58.387Z</time>
      </trkpt>
      <trkpt lat="66.11166" lon="20.89048">
        <ele>70.402969</ele>
        <time>2020-09-22T10:20:00.416Z</time>
      </trkpt>
      <trkpt lat="66.11156" lon="20.8906">
        <ele>70.3748</ele>
        <time>2020-09-22T10:20:02.376Z</time>
      </trkpt>
      <trkpt lat="66.11145" lon="20.89074">
        <ele>70.345302</ele>
        <time>2020-09-22T10:20:04.395Z</time>
      </trkpt>
      <trkpt lat="66.11134" lon="20.89089">
        <ele>70.315458</ele>
        <time>2020-09-22T10:20:06.387Z</time>
      </trkpt>
      <trkpt lat="66.11122" lon="20.89104">
        <ele>70.283899</ele>
        <time>2020-09-22T10:20:08.396Z</time>
      </trkpt>
      <trkpt lat="66.11111" lon="20.89119">
        <ele>70.253993</ele>
        <time>2020-09-22T10:20:10.381Z</time>
      </trkpt>
      <trkpt lat="66.111" lon="20.89133">
        <ele>70.22505</ele>
        <time>2020-09-22T10:20:12.397Z</time>
      </trkpt>
      <trkpt lat="66.1109" lon="20.89146">
        <ele>70.197132</ele>
        <time>2020-09-22T10:20:14.377Z</time>
      </trkpt>
      <trkpt lat="66.1108" lon="20.89158">
        <ele>70.170288</ele>
        <time>2020-09-22T10:20:16.396Z</time>
      </trkpt>
      <trkpt lat="66.1107" lon="20.89171">
        <ele>70.144629</ele>
        <time>2020-09-22T10:20:18.396Z</time>
      </trkpt>
      <trkpt lat="66.1106" lon="20.89184">
        <ele>70.117832</ele>
        <time>2020-09-22T10:20:20.392Z</time>
      </trkpt>
      <trkpt lat="66.11051" lon="20.89197">
        <ele>70.09305</ele>
        <time>2020-09-22T10:20:22.377Z</time>
      </trkpt>
      <trkpt lat="66.11041" lon="20.8921">
        <ele>70.136994</ele>
        <time>2020-09-22T10:20:24.383Z</time>
      </trkpt>
      <trkpt lat="66.11032" lon="20.89222">
        <ele>70.180404</ele>
        <time>2020-09-22T10:20:26.389Z</time>
      </trkpt>
      <trkpt lat="66.11021" lon="20.89235">
        <ele>70.2264</ele>
        <time>2020-09-22T10:20:28.392Z</time>
      </trkpt>
      <trkpt lat="66.11012" lon="20.89246">
        <ele>70.267788</ele>
        <time>2020-09-22T10:20:30.415Z</time>
      </trkpt>
      <trkpt lat="66.11003" lon="20.89257">
        <ele>70.310197</ele>
        <time>2020-09-22T10:20:32.378Z</time>
      </trkpt>
      <trkpt lat="66.10993" lon="20.89268">
        <ele>70.351878</ele>
        <time>2020-09-22T10:20:34.382Z</time>
      </trkpt>
      <trkpt lat="66.10984" lon="20.8928">
        <ele>70.394487</ele>
        <time>2020-09-22T10:20:36.380Z</time>
      </trkpt>
      <trkpt lat="66.10975" lon="20.89291">
        <ele>70.433571</ele>
        <time>2020-09-22T10:20:38.376Z</time>
      </trkpt>
      <trkpt lat="66.10966" lon="20.89301">
        <ele>70.472654</ele>
        <time>2020-09-22T10:20:40.390Z</time>
      </trkpt>
      <trkpt lat="66.10957" lon="20.89311">
        <ele>70.511603</ele>
        <time>2020-09-22T10:20:42.407Z</time>
      </trkpt>
      <trkpt lat="66.10949" lon="20.89322">
        <ele>70.550402</ele>
        <time>2020-09-22T10:20:44.385Z</time>
      </trkpt>
      <trkpt lat="66.10941" lon="20.89333">
        <ele>70.587506</ele>
        <time>2020-09-22T10:20:46.386Z</time>
      </trkpt>
      <trkpt lat="66.10932" lon="20.89345">
        <ele>70.626837</ele>
        <time>2020-09-22T10:20:48.419Z</time>
      </trkpt>
      <trkpt lat="66.10924" lon="20.89356">
        <ele>70.66391</ele>
        <time>2020-09-22T10:20:50.415Z</time>
      </trkpt>
      <trkpt lat="66.10916" lon="20.89368">
        <ele>70.700902</ele>
        <time>2020-09-22T10:20:52.373Z</time>
      </trkpt>
      <trkpt lat="66.10904" lon="20.89382">
        <ele>70.755832</ele>
        <time>2020-09-22T10:20:55.393Z</time>
      </trkpt>
      <trkpt lat="66.10895" lon="20.89392">
        <ele>70.793043</ele>
        <time>2020-09-22T10:20:57.380Z</time>
      </trkpt>
      <trkpt lat="66.10887" lon="20.89403">
        <ele>70.737319</ele>
        <time>2020-09-22T10:20:59.400Z</time>
      </trkpt>
      <trkpt lat="66.10878" lon="20.89414">
        <ele>70.569207</ele>
        <time>2020-09-22T10:21:01.392Z</time>
      </trkpt>
      <trkpt lat="66.10869" lon="20.89424">
        <ele>70.402625</ele>
        <time>2020-09-22T10:21:03.421Z</time>
      </trkpt>
      <trkpt lat="66.10859" lon="20.89435">
        <ele>70.218432</ele>
        <time>2020-09-22T10:21:05.379Z</time>
      </trkpt>
      <trkpt lat="66.10849" lon="20.89445">
        <ele>70.033221</ele>
        <time>2020-09-22T10:21:07.377Z</time>
      </trkpt>
      <trkpt lat="66.10839" lon="20.89456">
        <ele>69.845395</ele>
        <time>2020-09-22T10:21:09.398Z</time>
      </trkpt>
      <trkpt lat="66.10829" lon="20.89466">
        <ele>69.654409</ele>
        <time>2020-09-22T10:21:11.381Z</time>
      </trkpt>
      <trkpt lat="66.10818" lon="20.89476">
        <ele>69.464926</ele>
        <time>2020-09-22T10:21:13.383Z</time>
      </trkpt>
      <trkpt lat="66.10807" lon="20.89484">
        <ele>69.271112</ele>
        <time>2020-09-22T10:21:15.400Z</time>
      </trkpt>
      <trkpt lat="66.10796" lon="20.8949">
        <ele>69.071541</ele>
        <time>2020-09-22T10:21:17.385Z</time>
      </trkpt>
      <trkpt lat="66.10784" lon="20.89496">
        <ele>68.869679</ele>
        <time>2020-09-22T10:21:19.381Z</time>
      </trkpt>
      <trkpt lat="66.10774" lon="20.89501">
        <ele>68.686243</ele>
        <time>2020-09-22T10:21:21.394Z</time>
      </trkpt>
      <trkpt lat="66.10764" lon="20.89505">
        <ele>68.518848</ele>
        <time>2020-09-22T10:21:23.383Z</time>
      </trkpt>
      <trkpt lat="66.10754" lon="20.89507">
        <ele>68.350928</ele>
        <time>2020-09-22T10:21:25.381Z</time>
      </trkpt>
      <trkpt lat="66.10744" lon="20.8951">
        <ele>68.182935</ele>
        <time>2020-09-22T10:21:27.395Z</time>
      </trkpt>
      <trkpt lat="66.10735" lon="20.89511">
        <ele>68.02247</ele>
        <time>2020-09-22T10:21:29.397Z</time>
      </trkpt>
      <trkpt lat="66.10722" lon="20.89511">
        <ele>67.795785</ele>
        <time>2020-09-22T10:21:32.391Z</time>
      </trkpt>
      <trkpt lat="66.10709" lon="20.89509">
        <ele>68.08618</ele>
        <time>2020-09-22T10:21:35.396Z</time>
      </trkpt>
      <trkpt lat="66.10697" lon="20.89507">
        <ele>68.48273</ele>
        <time>2020-09-22T10:21:38.395Z</time>
      </trkpt>
      <trkpt lat="66.10684" lon="20.89504">
        <ele>68.889235</ele>
        <time>2020-09-22T10:21:41.390Z</time>
      </trkpt>
      <trkpt lat="66.10672" lon="20.89501">
        <ele>69.286824</ele>
        <time>2020-09-22T10:21:44.384Z</time>
      </trkpt>
      <trkpt lat="66.1066" lon="20.89499">
        <ele>69.709073</ele>
        <time>2020-09-22T10:21:47.373Z</time>
      </trkpt>
      <trkpt lat="66.10648" lon="20.89497">
        <ele>70.105407</ele>
        <time>2020-09-22T10:21:50.371Z</time>
      </trkpt>
      <trkpt lat="66.10636" lon="20.89494">
        <ele>70.495887</ele>
        <time>2020-09-22T10:21:53.374Z</time>
      </trkpt>
      <trkpt lat="66.10624" lon="20.89491">
        <ele>70.880388</ele>
        <time>2020-09-22T10:21:56.387Z</time>
      </trkpt>
      <trkpt lat="66.10612" lon="20.89488">
        <ele>71.274145</ele>
        <time>2020-09-22T10:21:59.388Z</time>
      </trkpt>
      <trkpt lat="66.10601" lon="20.89483">
        <ele>71.65369</ele>
        <time>2020-09-22T10:22:02.374Z</time>
      </trkpt>
      <trkpt lat="66.10588" lon="20.89482">
        <ele>72.062792</ele>
        <time>2020-09-22T10:22:05.392Z</time>
      </trkpt>
      <trkpt lat="66.10576" lon="20.89477">
        <ele>72.479769</ele>
        <time>2020-09-22T10:22:08.384Z</time>
      </trkpt>
      <trkpt lat="66.10566" lon="20.89473">
        <ele>72.799511</ele>
        <time>2020-09-22T10:22:10.392Z</time>
      </trkpt>
      <trkpt lat="66.10555" lon="20.8947">
        <ele>73.169818</ele>
        <time>2020-09-22T10:22:12.406Z</time>
      </trkpt>
      <trkpt lat="66.10544" lon="20.89467">
        <ele>73.552054</ele>
        <time>2020-09-22T10:22:14.375Z</time>
      </trkpt>
      <trkpt lat="66.10532" lon="20.89465">
        <ele>73.499835</ele>
        <time>2020-09-22T10:22:16.417Z</time>
      </trkpt>
      <trkpt lat="66.1052" lon="20.89465">
        <ele>73.254472</ele>
        <time>2020-09-22T10:22:18.383Z</time>
      </trkpt>
      <trkpt lat="66.10508" lon="20.89463">
        <ele>73.021049</ele>
        <time>2020-09-22T10:22:20.380Z</time>
      </trkpt>
      <trkpt lat="66.10498" lon="20.8946">
        <ele>72.802842</ele>
        <time>2020-09-22T10:22:22.400Z</time>
      </trkpt>
      <trkpt lat="66.10488" lon="20.89456">
        <ele>72.59411</ele>
        <time>2020-09-22T10:22:24.382Z</time>
      </trkpt>
      <trkpt lat="66.10477" lon="20.89454">
        <ele>72.386519</ele>
        <time>2020-09-22T10:22:26.401Z</time>
      </trkpt>
      <trkpt lat="66.10467" lon="20.89451">
        <ele>72.176719</ele>
        <time>2020-09-22T10:22:28.378Z</time>
      </trkpt>
      <trkpt lat="66.10457" lon="20.89449">
        <ele>71.969874</ele>
        <time>2020-09-22T10:22:30.373Z</time>
      </trkpt>
      <trkpt lat="66.10448" lon="20.89447">
        <ele>71.774386</ele>
        <time>2020-09-22T10:22:32.416Z</time>
      </trkpt>
      <trkpt lat="66.10438" lon="20.89444">
        <ele>71.575179</ele>
        <time>2020-09-22T10:22:34.376Z</time>
      </trkpt>
      <trkpt lat="66.10428" lon="20.89443">
        <ele>71.364301</ele>
        <time>2020-09-22T10:22:36.404Z</time>
      </trkpt>
      <trkpt lat="66.10417" lon="20.89442">
        <ele>71.147417</ele>
        <time>2020-09-22T10:22:38.433Z</time>
      </trkpt>
      <trkpt lat="66.10407" lon="20.89439">
        <ele>70.93152</ele>
        <time>2020-09-22T10:22:40.401Z</time>
      </trkpt>
      <trkpt lat="66.10396" lon="20.89436">
        <ele>70.719595</ele>
        <time>2020-09-22T10:22:42.389Z</time>
      </trkpt>
      <trkpt lat="66.10386" lon="20.89435">
        <ele>70.516779</ele>
        <time>2020-09-22T10:22:44.370Z</time>
      </trkpt>
      <trkpt lat="66.10377" lon="20.89434">
        <ele>70.326634</ele>
        <time>2020-09-22T10:22:46.408Z</time>
      </trkpt>
      <trkpt lat="66.10368" lon="20.89432">
        <ele>70.135646</ele>
        <time>2020-09-22T10:22:48.436Z</time>
      </trkpt>
      <trkpt lat="66.10359" lon="20.89429">
        <ele>69.95363</ele>
        <time>2020-09-22T10:22:50.396Z</time>
      </trkpt>
      <trkpt lat="66.10349" lon="20.89427">
        <ele>69.787396</ele>
        <time>2020-09-22T10:22:52.398Z</time>
      </trkpt>
      <trkpt lat="66.1034" lon="20.89425">
        <ele>69.612433</ele>
        <time>2020-09-22T10:22:54.372Z</time>
      </trkpt>
      <trkpt lat="66.10331" lon="20.89423">
        <ele>69.449312</ele>
        <time>2020-09-22T10:22:56.402Z</time>
      </trkpt>
      <trkpt lat="66.10317" lon="20.89418">
        <ele>69.200742</ele>
        <time>2020-09-22T10:22:59.408Z</time>
      </trkpt>
      <trkpt lat="66.10307" lon="20.89415">
        <ele>69.021283</ele>
        <time>2020-09-22T10:23:01.387Z</time>
      </trkpt>
      <trkpt lat="66.10298" lon="20.89413">
        <ele>68.851098</ele>
        <time>2020-09-22T10:23:03.400Z</time>
      </trkpt>
      <trkpt lat="66.10289" lon="20.89409">
        <ele>68.687498</ele>
        <time>2020-09-22T10:23:05.377Z</time>
      </trkpt>
      <trkpt lat="66.10275" lon="20.89407">
        <ele>68.438735</ele>
        <time>2020-09-22T10:23:08.410Z</time>
      </trkpt>
      <trkpt lat="66.10265" lon="20.89406">
        <ele>68.265824</ele>
        <time>2020-09-22T10:23:10.380Z</time>
      </trkpt>
      <trkpt lat="66.10256" lon="20.89404">
        <ele>68.096007</ele>
        <time>2020-09-22T10:23:12.397Z</time>
      </trkpt>
      <trkpt lat="66.10247" lon="20.89401">
        <ele>67.934187</ele>
        <time>2020-09-22T10:23:14.384Z</time>
      </trkpt>
      <trkpt lat="66.10235" lon="20.89398">
        <ele>67.71158</ele>
        <time>2020-09-22T10:23:17.372Z</time>
      </trkpt>
      <trkpt lat="66.10222" lon="20.89394">
        <ele>67.472301</ele>
        <time>2020-09-22T10:23:20.375Z</time>
      </trkpt>
      <trkpt lat="66.10212" lon="20.89392">
        <ele>67.292002</ele>
        <time>2020-09-22T10:23:22.383Z</time>
      </trkpt>
      <trkpt lat="66.10201" lon="20.8939">
        <ele>67.106166</ele>
        <time>2020-09-22T10:23:24.390Z</time>
      </trkpt>
      <trkpt lat="66.10192" lon="20.89388">
        <ele>66.933048</ele>
        <time>2020-09-22T10:23:26.399Z</time>
      </trkpt>
      <trkpt lat="66.10182" lon="20.89387">
        <ele>66.76711</ele>
        <time>2020-09-22T10:23:28.376Z</time>
      </trkpt>
      <trkpt lat="66.10173" lon="20.89385">
        <ele>66.797682</ele>
        <time>2020-09-22T10:23:30.396Z</time>
      </trkpt>
      <trkpt lat="66.10163" lon="20.89382">
        <ele>66.838866</ele>
        <time>2020-09-22T10:23:32.384Z</time>
      </trkpt>
      <trkpt lat="66.10154" lon="20.8938">
        <ele>66.879051</ele>
        <time>2020-09-22T10:23:34.396Z</time>
      </trkpt>
      <trkpt lat="66.10145" lon="20.89378">
        <ele>66.919635</ele>
        <time>2020-09-22T10:23:36.393Z</time>
      </trkpt>
      <trkpt lat="66.10135" lon="20.89376">
        <ele>66.960248</ele>
        <time>2020-09-22T10:23:38.372Z</time>
      </trkpt>
      <trkpt lat="66.10126" lon="20.89374">
        <ele>66.998751</ele>
        <time>2020-09-22T10:23:40.385Z</time>
      </trkpt>
      <trkpt lat="66.10117" lon="20.89372">
        <ele>67.037665</ele>
        <time>2020-09-22T10:23:42.392Z</time>
      </trkpt>
      <trkpt lat="66.10108" lon="20.8937">
        <ele>67.076151</ele>
        <time>2020-09-22T10:23:44.390Z</time>
      </trkpt>
      <trkpt lat="66.10099" lon="20.89368">
        <ele>67.115462</ele>
        <time>2020-09-22T10:23:46.374Z</time>
      </trkpt>
      <trkpt lat="66.1009" lon="20.89364">
        <ele>67.155456</ele>
        <time>2020-09-22T10:23:48.409Z</time>
      </trkpt>
      <trkpt lat="66.10078" lon="20.89359">
        <ele>67.209965</ele>
        <time>2020-09-22T10:23:51.384Z</time>
      </trkpt>
      <trkpt lat="66.10066" lon="20.89356">
        <ele>67.262428</ele>
        <time>2020-09-22T10:23:54.400Z</time>
      </trkpt>
      <trkpt lat="66.10054" lon="20.89354">
        <ele>67.312951</ele>
        <time>2020-09-22T10:23:57.367Z</time>
      </trkpt>
      <trkpt lat="66.10042" lon="20.89351">
        <ele>67.36263</ele>
        <time>2020-09-22T10:24:00.394Z</time>
      </trkpt>
      <trkpt lat="66.10031" lon="20.89349">
        <ele>67.413511</ele>
        <time>2020-09-22T10:24:03.404Z</time>
      </trkpt>
      <trkpt lat="66.1002" lon="20.89348">
        <ele>67.460977</ele>
        <time>2020-09-22T10:24:06.393Z</time>
      </trkpt>
      <trkpt lat="66.10009" lon="20.89344">
        <ele>67.50872</ele>
        <time>2020-09-22T10:24:09.376Z</time>
      </trkpt>
      <trkpt lat="66.09998" lon="20.89341">
        <ele>67.857358</ele>
        <time>2020-09-22T10:24:12.374Z</time>
      </trkpt>
      <trkpt lat="66.09985" lon="20.89339">
        <ele>68.608113</ele>
        <time>2020-09-22T10:24:15.383Z</time>
      </trkpt>
      <trkpt lat="66.09973" lon="20.89336">
        <ele>69.343063</ele>
        <time>2020-09-22T10:24:18.399Z</time>
      </trkpt>
      <trkpt lat="66.09963" lon="20.89333">
        <ele>70.010625</ele>
        <time>2020-09-22T10:24:21.416Z</time>
      </trkpt>
      <trkpt lat="66.09952" lon="20.8933">
        <ele>70.630675</ele>
        <time>2020-09-22T10:24:24.372Z</time>
      </trkpt>
      <trkpt lat="66.09942" lon="20.89325">
        <ele>71.270843</ele>
        <time>2020-09-22T10:24:27.393Z</time>
      </trkpt>
      <trkpt lat="66.0993" lon="20.89319">
        <ele>72.003958</ele>
        <time>2020-09-22T10:24:30.365Z</time>
      </trkpt>
      <trkpt lat="66.09918" lon="20.89314">
        <ele>72.775032</ele>
        <time>2020-09-22T10:24:33.390Z</time>
      </trkpt>
      <trkpt lat="66.09906" lon="20.89308">
        <ele>73.499362</ele>
        <time>2020-09-22T10:24:36.389Z</time>
      </trkpt>
      <trkpt lat="66.09893" lon="20.89305">
        <ele>74.28907</ele>
        <time>2020-09-22T10:24:39.416Z</time>
      </trkpt>
      <trkpt lat="66.0988" lon="20.89303">
        <ele>75.070369</ele>
        <time>2020-09-22T10:24:42.425Z</time>
      </trkpt>
      <trkpt lat="66.0987" lon="20.89302">
        <ele>75.734458</ele>
        <time>2020-09-22T10:24:45.387Z</time>
      </trkpt>
      <trkpt lat="66.0986" lon="20.893">
        <ele>76.315027</ele>
        <time>2020-09-22T10:24:48.397Z</time>
      </trkpt>
      <trkpt lat="66.09851" lon="20.89299">
        <ele>76.894254</ele>
        <time>2020-09-22T10:24:52.398Z</time>
      </trkpt>
      <trkpt lat="66.09841" lon="20.89297">
        <ele>77.46269</ele>
        <time>2020-09-22T10:24:56.408Z</time>
      </trkpt>
      <trkpt lat="66.09831" lon="20.89295">
        <ele>78.061464</ele>
        <time>2020-09-22T10:25:00.381Z</time>
      </trkpt>
      <trkpt lat="66.09822" lon="20.89294">
        <ele>78.546136</ele>
        <time>2020-09-22T10:25:04.393Z</time>
      </trkpt>
      <trkpt lat="66.09812" lon="20.89291">
        <ele>78.758099</ele>
        <time>2020-09-22T10:25:08.378Z</time>
      </trkpt>
      <trkpt lat="66.09802" lon="20.8929">
        <ele>78.97503</ele>
        <time>2020-09-22T10:25:12.433Z</time>
      </trkpt>
      <trkpt lat="66.09792" lon="20.89287">
        <ele>79.180191</ele>
        <time>2020-09-22T10:25:16.393Z</time>
      </trkpt>
      <trkpt lat="66.09783" lon="20.89286">
        <ele>79.388576</ele>
        <time>2020-09-22T10:25:20.403Z</time>
      </trkpt>
      <trkpt lat="66.09773" lon="20.89284">
        <ele>79.599387</ele>
        <time>2020-09-22T10:25:24.412Z</time>
      </trkpt>
      <trkpt lat="66.09764" lon="20.89282">
        <ele>79.796334</ele>
        <time>2020-09-22T10:25:28.359Z</time>
      </trkpt>
      <trkpt lat="66.09754" lon="20.89279">
        <ele>80.003535</ele>
        <time>2020-09-22T10:25:32.407Z</time>
      </trkpt>
      <trkpt lat="66.09744" lon="20.89275">
        <ele>80.218326</ele>
        <time>2020-09-22T10:25:36.395Z</time>
      </trkpt>
      <trkpt lat="66.09733" lon="20.89271">
        <ele>80.452868</ele>
        <time>2020-09-22T10:25:40.373Z</time>
      </trkpt>
      <trkpt lat="66.09723" lon="20.89268">
        <ele>80.68466</ele>
        <time>2020-09-22T10:25:44.383Z</time>
      </trkpt>
      <trkpt lat="66.09712" lon="20.89266">
        <ele>80.9085</ele>
        <time>2020-09-22T10:25:48.412Z</time>
      </trkpt>
      <trkpt lat="66.09702" lon="20.89264">
        <ele>81.128059</ele>
        <time>2020-09-22T10:25:52.423Z</time>
      </trkpt>
      <trkpt lat="66.09692" lon="20.89262">
        <ele>81.345851</ele>
        <time>2020-09-22T10:25:56.388Z</time>
      </trkpt>
      <trkpt lat="66.09682" lon="20.89257">
        <ele>81.559812</ele>
        <time>2020-09-22T10:26:00.400Z</time>
      </trkpt>
      <trkpt lat="66.09672" lon="20.89257">
        <ele>81.77231</ele>
        <time>2020-09-22T10:26:04.385Z</time>
      </trkpt>
      <trkpt lat="66.09663" lon="20.89255">
        <ele>81.968262</ele>
        <time>2020-09-22T10:26:08.367Z</time>
      </trkpt>
      <trkpt lat="66.09654" lon="20.89253">
        <ele>82.160432</ele>
        <time>2020-09-22T10:26:12.382Z</time>
      </trkpt>
      <trkpt lat="66.09645" lon="20.8925">
        <ele>82.380773</ele>
        <time>2020-09-22T10:26:16.406Z</time>
      </trkpt>
      <trkpt lat="66.09636" lon="20.89249">
        <ele>82.767953</ele>
        <time>2020-09-22T10:26:20.386Z</time>
      </trkpt>
      <trkpt lat="66.09626" lon="20.89246">
        <ele>83.187407</ele>
        <time>2020-09-22T10:26:24.388Z</time>
      </trkpt>
      <trkpt lat="66.09616" lon="20.89243">
        <ele>83.584795</ele>
        <time>2020-09-22T10:26:28.435Z</time>
      </trkpt>
      <trkpt lat="66.09605" lon="20.89239">
        <ele>84.038591</ele>
        <time>2020-09-22T10:26:33.393Z</time>
      </trkpt>
      <trkpt lat="66.09596" lon="20.89236">
        <ele>84.428531</ele>
        <time>2020-09-22T10:26:37.391Z</time>
      </trkpt>
      <trkpt lat="66.09586" lon="20.89232">
        <ele>84.861516</ele>
        <time>2020-09-22T10:26:42.374Z</time>
      </trkpt>
      <trkpt lat="66.09575" lon="20.89229">
        <ele>85.310956</ele>
        <time>2020-09-22T10:26:47.402Z</time>
      </trkpt>
      <trkpt lat="66.09564" lon="20.89224">
        <ele>85.767803</ele>
        <time>2020-09-22T10:26:52.382Z</time>
      </trkpt>
      <trkpt lat="66.09555" lon="20.89221">
        <ele>86.161866</ele>
        <time>2020-09-22T10:26:56.379Z</time>
      </trkpt>
      <trkpt lat="66.09544" lon="20.89218">
        <ele>86.624839</ele>
        <time>2020-09-22T10:27:01.420Z</time>
      </trkpt>
      <trkpt lat="66.09533" lon="20.89216">
        <ele>87.050115</ele>
        <time>2020-09-22T10:27:05.393Z</time>
      </trkpt>
      <trkpt lat="66.09523" lon="20.89214">
        <ele>87.480932</ele>
        <time>2020-09-22T10:27:09.373Z</time>
      </trkpt>
      <trkpt lat="66.09513" lon="20.89212">
        <ele>87.923049</ele>
        <time>2020-09-22T10:27:13.417Z</time>
      </trkpt>
      <trkpt lat="66.09501" lon="20.89209">
        <ele>88.410766</ele>
        <time>2020-09-22T10:27:17.375Z</time>
      </trkpt>
      <trkpt lat="66.09491" lon="20.89206">
        <ele>88.835279</ele>
        <time>2020-09-22T10:27:20.387Z</time>
      </trkpt>
      <trkpt lat="66.0948" lon="20.89203">
        <ele>89.290105</ele>
        <time>2020-09-22T10:27:23.416Z</time>
      </trkpt>
      <trkpt lat="66.09468" lon="20.89199">
        <ele>89.768831</ele>
        <time>2020-09-22T10:27:26.387Z</time>
      </trkpt>
      <trkpt lat="66.09457" lon="20.89196">
        <ele>89.520129</ele>
        <time>2020-09-22T10:27:29.392Z</time>
      </trkpt>
      <trkpt lat="66.09445" lon="20.89192">
        <ele>89.156659</ele>
        <time>2020-09-22T10:27:32.381Z</time>
      </trkpt>
      <trkpt lat="66.09433" lon="20.89188">
        <ele>88.7958</ele>
        <time>2020-09-22T10:27:35.390Z</time>
      </trkpt>
      <trkpt lat="66.0942" lon="20.89187">
        <ele>88.420139</ele>
        <time>2020-09-22T10:27:38.398Z</time>
      </trkpt>
      <trkpt lat="66.09407" lon="20.89184">
        <ele>88.03773</ele>
        <time>2020-09-22T10:27:41.376Z</time>
      </trkpt>
      <trkpt lat="66.09394" lon="20.89182">
        <ele>87.638143</ele>
        <time>2020-09-22T10:27:44.389Z</time>
      </trkpt>
      <trkpt lat="66.0938" lon="20.89179">
        <ele>87.246597</ele>
        <time>2020-09-22T10:27:47.397Z</time>
      </trkpt>
      <trkpt lat="66.09371" lon="20.89177">
        <ele>86.970673</ele>
        <time>2020-09-22T10:27:49.378Z</time>
      </trkpt>
      <trkpt lat="66.09362" lon="20.89175">
        <ele>86.691203</ele>
        <time>2020-09-22T10:27:51.412Z</time>
      </trkpt>
      <trkpt lat="66.09349" lon="20.89171">
        <ele>86.304829</ele>
        <time>2020-09-22T10:27:54.380Z</time>
      </trkpt>
      <trkpt lat="66.09336" lon="20.89168">
        <ele>85.928308</ele>
        <time>2020-09-22T10:27:57.404Z</time>
      </trkpt>
      <trkpt lat="66.09324" lon="20.89166">
        <ele>85.572177</ele>
        <time>2020-09-22T10:28:00.388Z</time>
      </trkpt>
      <trkpt lat="66.09313" lon="20.89163">
        <ele>85.236631</ele>
        <time>2020-09-22T10:28:03.391Z</time>
      </trkpt>
      <trkpt lat="66.09301" lon="20.89161">
        <ele>84.902144</ele>
        <time>2020-09-22T10:28:06.419Z</time>
      </trkpt>
      <trkpt lat="66.0929" lon="20.89158">
        <ele>84.569656</ele>
        <time>2020-09-22T10:28:09.385Z</time>
      </trkpt>
      <trkpt lat="66.09279" lon="20.89155">
        <ele>84.320598</ele>
        <time>2020-09-22T10:28:12.385Z</time>
      </trkpt>
      <trkpt lat="66.09268" lon="20.89153">
        <ele>84.093449</ele>
        <time>2020-09-22T10:28:15.373Z</time>
      </trkpt>
      <trkpt lat="66.09258" lon="20.8915">
        <ele>83.879571</ele>
        <time>2020-09-22T10:28:18.398Z</time>
      </trkpt>
      <trkpt lat="66.09248" lon="20.89148">
        <ele>83.678924</ele>
        <time>2020-09-22T10:28:21.388Z</time>
      </trkpt>
      <trkpt lat="66.09239" lon="20.89145">
        <ele>83.482166</ele>
        <time>2020-09-22T10:28:24.401Z</time>
      </trkpt>
      <trkpt lat="66.0923" lon="20.89142">
        <ele>83.286123</ele>
        <time>2020-09-22T10:28:27.407Z</time>
      </trkpt>
      <trkpt lat="66.09219" lon="20.8914">
        <ele>83.071231</ele>
        <time>2020-09-22T10:28:30.418Z</time>
      </trkpt>
      <trkpt lat="66.09209" lon="20.89139">
        <ele>82.852582</ele>
        <time>2020-09-22T10:28:33.421Z</time>
      </trkpt>
      <trkpt lat="66.09198" lon="20.89139">
        <ele>82.634058</ele>
        <time>2020-09-22T10:28:36.393Z</time>
      </trkpt>
      <trkpt lat="66.09188" lon="20.8914">
        <ele>82.415461</ele>
        <time>2020-09-22T10:28:39.372Z</time>
      </trkpt>
      <trkpt lat="66.09177" lon="20.8914">
        <ele>82.194805</ele>
        <time>2020-09-22T10:28:42.380Z</time>
      </trkpt>
      <trkpt lat="66.09168" lon="20.89141">
        <ele>81.992908</ele>
        <time>2020-09-22T10:28:45.396Z</time>
      </trkpt>
      <trkpt lat="66.09158" lon="20.89142">
        <ele>81.788456</ele>
        <time>2020-09-22T10:28:48.397Z</time>
      </trkpt>
      <trkpt lat="66.09148" lon="20.89146">
        <ele>81.5762</ele>
        <time>2020-09-22T10:28:51.373Z</time>
      </trkpt>
      <trkpt lat="66.09137" lon="20.89146">
        <ele>81.353463</ele>
        <time>2020-09-22T10:28:54.422Z</time>
      </trkpt>
      <trkpt lat="66.09126" lon="20.8915">
        <ele>81.116008</ele>
        <time>2020-09-22T10:28:57.388Z</time>
      </trkpt>
      <trkpt lat="66.09113" lon="20.89158">
        <ele>80.848087</ele>
        <time>2020-09-22T10:29:00.395Z</time>
      </trkpt>
      <trkpt lat="66.09104" lon="20.89164">
        <ele>80.497738</ele>
        <time>2020-09-22T10:29:02.396Z</time>
      </trkpt>
      <trkpt lat="66.09094" lon="20.89171">
        <ele>80.024044</ele>
        <time>2020-09-22T10:29:04.380Z</time>
      </trkpt>
      <trkpt lat="66.09085" lon="20.8918">
        <ele>79.560074</ele>
        <time>2020-09-22T10:29:06.395Z</time>
      </trkpt>
      <trkpt lat="66.09076" lon="20.89187">
        <ele>79.08245</ele>
        <time>2020-09-22T10:29:08.381Z</time>
      </trkpt>
      <trkpt lat="66.09066" lon="20.89196">
        <ele>78.580776</ele>
        <time>2020-09-22T10:29:10.414Z</time>
      </trkpt>
      <trkpt lat="66.09056" lon="20.89206">
        <ele>78.0709</ele>
        <time>2020-09-22T10:29:12.376Z</time>
      </trkpt>
      <trkpt lat="66.09046" lon="20.89217">
        <ele>77.557476</ele>
        <time>2020-09-22T10:29:14.391Z</time>
      </trkpt>
      <trkpt lat="66.09036" lon="20.89228">
        <ele>77.031762</ele>
        <time>2020-09-22T10:29:16.389Z</time>
      </trkpt>
      <trkpt lat="66.09025" lon="20.89239">
        <ele>76.495812</ele>
        <time>2020-09-22T10:29:18.397Z</time>
      </trkpt>
      <trkpt lat="66.09015" lon="20.89251">
        <ele>75.958159</ele>
        <time>2020-09-22T10:29:20.381Z</time>
      </trkpt>
      <trkpt lat="66.09005" lon="20.89263">
        <ele>75.434979</ele>
        <time>2020-09-22T10:29:22.388Z</time>
      </trkpt>
      <trkpt lat="66.08995" lon="20.89275">
        <ele>74.885302</ele>
        <time>2020-09-22T10:29:24.389Z</time>
      </trkpt>
      <trkpt lat="66.08984" lon="20.89289">
        <ele>74.317721</ele>
        <time>2020-09-22T10:29:26.379Z</time>
      </trkpt>
      <trkpt lat="66.08974" lon="20.89303">
        <ele>73.744696</ele>
        <time>2020-09-22T10:29:28.394Z</time>
      </trkpt>
      <trkpt lat="66.08962" lon="20.89316">
        <ele>73.15573</ele>
        <time>2020-09-22T10:29:30.379Z</time>
      </trkpt>
      <trkpt lat="66.08951" lon="20.8933">
        <ele>72.555801</ele>
        <time>2020-09-22T10:29:32.409Z</time>
      </trkpt>
      <trkpt lat="66.0894" lon="20.89344">
        <ele>71.957097</ele>
        <time>2020-09-22T10:29:34.416Z</time>
      </trkpt>
      <trkpt lat="66.08929" lon="20.89356">
        <ele>71.327305</ele>
        <time>2020-09-22T10:29:36.389Z</time>
      </trkpt>
      <trkpt lat="66.08917" lon="20.89369">
        <ele>70.674307</ele>
        <time>2020-09-22T10:29:38.416Z</time>
      </trkpt>
      <trkpt lat="66.08904" lon="20.89382">
        <ele>69.995662</ele>
        <time>2020-09-22T10:29:40.439Z</time>
      </trkpt>
      <trkpt lat="66.08892" lon="20.89393">
        <ele>69.337775</ele>
        <time>2020-09-22T10:29:42.378Z</time>
      </trkpt>
      <trkpt lat="66.0888" lon="20.89402">
        <ele>68.70243</ele>
        <time>2020-09-22T10:29:44.383Z</time>
      </trkpt>
      <trkpt lat="66.08867" lon="20.8941">
        <ele>68.057038</ele>
        <time>2020-09-22T10:29:46.387Z</time>
      </trkpt>
      <trkpt lat="66.08853" lon="20.89414">
        <ele>67.365443</ele>
        <time>2020-09-22T10:29:48.387Z</time>
      </trkpt>
      <trkpt lat="66.08839" lon="20.8941">
        <ele>66.614074</ele>
        <time>2020-09-22T10:29:50.386Z</time>
      </trkpt>
      <trkpt lat="66.08825" lon="20.89408">
        <ele>65.94162</ele>
        <time>2020-09-22T10:29:52.392Z</time>
      </trkpt>
      <trkpt lat="66.08814" lon="20.89406">
        <ele>65.388677</ele>
        <time>2020-09-22T10:29:54.383Z</time>
      </trkpt>
      <trkpt lat="66.08802" lon="20.89414">
        <ele>64.736941</ele>
        <time>2020-09-22T10:29:57.383Z</time>
      </trkpt>
      <trkpt lat="66.08795" lon="20.89433">
        <ele>64.238066</ele>
        <time>2020-09-22T10:29:59.405Z</time>
      </trkpt>
      <trkpt lat="66.08791" lon="20.89458">
        <ele>63.69003</ele>
        <time>2020-09-22T10:30:01.403Z</time>
      </trkpt>
      <trkpt lat="66.08787" lon="20.89485">
        <ele>63.176091</ele>
        <time>2020-09-22T10:30:03.402Z</time>
      </trkpt>
      <trkpt lat="66.08781" lon="20.89512">
        <ele>62.966637</ele>
        <time>2020-09-22T10:30:05.397Z</time>
      </trkpt>
      <trkpt lat="66.08774" lon="20.89539">
        <ele>62.749551</ele>
        <time>2020-09-22T10:30:07.422Z</time>
      </trkpt>
      <trkpt lat="66.08767" lon="20.89565">
        <ele>62.527511</ele>
        <time>2020-09-22T10:30:09.389Z</time>
      </trkpt>
      <trkpt lat="66.08759" lon="20.89591">
        <ele>62.30891</ele>
        <time>2020-09-22T10:30:11.398Z</time>
      </trkpt>
      <trkpt lat="66.08751" lon="20.89614">
        <ele>62.094606</ele>
        <time>2020-09-22T10:30:13.374Z</time>
      </trkpt>
      <trkpt lat="66.08743" lon="20.89635">
        <ele>61.900904</ele>
        <time>2020-09-22T10:30:15.409Z</time>
      </trkpt>
      <trkpt lat="66.08736" lon="20.89655">
        <ele>61.714838</ele>
        <time>2020-09-22T10:30:17.380Z</time>
      </trkpt>
      <trkpt lat="66.08729" lon="20.89673">
        <ele>61.544032</ele>
        <time>2020-09-22T10:30:19.399Z</time>
      </trkpt>
      <trkpt lat="66.08723" lon="20.89691">
        <ele>61.378435</ele>
        <time>2020-09-22T10:30:21.403Z</time>
      </trkpt>
      <trkpt lat="66.08715" lon="20.89709">
        <ele>61.208214</ele>
        <time>2020-09-22T10:30:23.389Z</time>
      </trkpt>
      <trkpt lat="66.08708" lon="20.89728">
        <ele>61.030047</ele>
        <time>2020-09-22T10:30:25.386Z</time>
      </trkpt>
      <trkpt lat="66.08702" lon="20.89747">
        <ele>60.859605</ele>
        <time>2020-09-22T10:30:27.417Z</time>
      </trkpt>
      <trkpt lat="66.08696" lon="20.89767">
        <ele>60.681249</ele>
        <time>2020-09-22T10:30:29.414Z</time>
      </trkpt>
      <trkpt lat="66.08689" lon="20.89788">
        <ele>60.500718</ele>
        <time>2020-09-22T10:30:31.400Z</time>
      </trkpt>
      <trkpt lat="66.08683" lon="20.8981">
        <ele>60.310348</ele>
        <time>2020-09-22T10:30:33.421Z</time>
      </trkpt>
      <trkpt lat="66.08677" lon="20.89835">
        <ele>60.085714</ele>
        <time>2020-09-22T10:30:35.391Z</time>
      </trkpt>
      <trkpt lat="66.08671" lon="20.89859">
        <ele>59.765835</ele>
        <time>2020-09-22T10:30:37.412Z</time>
      </trkpt>
      <trkpt lat="66.08666" lon="20.89887">
        <ele>59.418561</ele>
        <time>2020-09-22T10:30:39.384Z</time>
      </trkpt>
      <trkpt lat="66.0866" lon="20.89916">
        <ele>59.048444</ele>
        <time>2020-09-22T10:30:41.397Z</time>
      </trkpt>
      <trkpt lat="66.08655" lon="20.89947">
        <ele>58.664978</ele>
        <time>2020-09-22T10:30:43.395Z</time>
      </trkpt>
      <trkpt lat="66.08649" lon="20.89979">
        <ele>58.271774</ele>
        <time>2020-09-22T10:30:45.393Z</time>
      </trkpt>
      <trkpt lat="66.08644" lon="20.90012">
        <ele>57.858728</ele>
        <time>2020-09-22T10:30:47.368Z</time>
      </trkpt>
      <trkpt lat="66.08638" lon="20.90046">
        <ele>57.435846</ele>
        <time>2020-09-22T10:30:49.402Z</time>
      </trkpt>
      <trkpt lat="66.08632" lon="20.90081">
        <ele>57.001636</ele>
        <time>2020-09-22T10:30:51.434Z</time>
      </trkpt>
      <trkpt lat="66.08625" lon="20.90117">
        <ele>56.55677</ele>
        <time>2020-09-22T10:30:53.380Z</time>
      </trkpt>
      <trkpt lat="66.08618" lon="20.90153">
        <ele>56.104732</ele>
        <time>2020-09-22T10:30:55.394Z</time>
      </trkpt>
      <trkpt lat="66.0861" lon="20.90189">
        <ele>55.632082</ele>
        <time>2020-09-22T10:30:57.417Z</time>
      </trkpt>
      <trkpt lat="66.08602" lon="20.90222">
        <ele>55.183368</ele>
        <time>2020-09-22T10:30:59.405Z</time>
      </trkpt>
      <trkpt lat="66.08591" lon="20.90246">
        <ele>55.691767</ele>
        <time>2020-09-22T10:31:01.395Z</time>
      </trkpt>
      <trkpt lat="66.08578" lon="20.90251">
        <ele>56.368278</ele>
        <time>2020-09-22T10:31:03.414Z</time>
      </trkpt>
      <trkpt lat="66.08567" lon="20.90241">
        <ele>56.985556</ele>
        <time>2020-09-22T10:31:05.394Z</time>
      </trkpt>
      <trkpt lat="66.08559" lon="20.90226">
        <ele>57.488602</ele>
        <time>2020-09-22T10:31:07.389Z</time>
      </trkpt>
      <trkpt lat="66.08548" lon="20.90214">
        <ele>58.107181</ele>
        <time>2020-09-22T10:31:10.412Z</time>
      </trkpt>
      <trkpt lat="66.08539" lon="20.90203">
        <ele>58.625728</ele>
        <time>2020-09-22T10:31:13.395Z</time>
      </trkpt>
      <trkpt lat="66.08531" lon="20.90193">
        <ele>59.09552</ele>
        <time>2020-09-22T10:31:16.389Z</time>
      </trkpt>
      <trkpt lat="66.08522" lon="20.90184">
        <ele>59.573037</ele>
        <time>2020-09-22T10:31:19.396Z</time>
      </trkpt>
      <trkpt lat="66.08512" lon="20.90173">
        <ele>60.175183</ele>
        <time>2020-09-22T10:31:23.377Z</time>
      </trkpt>
      <trkpt lat="66.08501" lon="20.90165">
        <ele>60.764444</ele>
        <time>2020-09-22T10:31:27.390Z</time>
      </trkpt>
      <trkpt lat="66.0849" lon="20.90157">
        <ele>61.350593</ele>
        <time>2020-09-22T10:31:31.400Z</time>
      </trkpt>
      <trkpt lat="66.08479" lon="20.90149">
        <ele>61.947056</ele>
        <time>2020-09-22T10:31:35.380Z</time>
      </trkpt>
      <trkpt lat="66.08467" lon="20.90144">
        <ele>62.546496</ele>
        <time>2020-09-22T10:31:39.386Z</time>
      </trkpt>
      <trkpt lat="66.08456" lon="20.90139">
        <ele>63.131974</ele>
        <time>2020-09-22T10:31:43.389Z</time>
      </trkpt>
      <trkpt lat="66.08445" lon="20.90136">
        <ele>63.71838</ele>
        <time>2020-09-22T10:31:47.376Z</time>
      </trkpt>
      <trkpt lat="66.08433" lon="20.90134">
        <ele>64.312498</ele>
        <time>2020-09-22T10:31:51.422Z</time>
      </trkpt>
      <trkpt lat="66.08422" lon="20.90132">
        <ele>65.11091</ele>
        <time>2020-09-22T10:31:55.376Z</time>
      </trkpt>
      <trkpt lat="66.08413" lon="20.90131">
        <ele>65.846536</ele>
        <time>2020-09-22T10:31:59.384Z</time>
      </trkpt>
      <trkpt lat="66.08403" lon="20.90129">
        <ele>66.604788</ele>
        <time>2020-09-22T10:32:03.371Z</time>
      </trkpt>
      <trkpt lat="66.08392" lon="20.90129">
        <ele>67.383814</ele>
        <time>2020-09-22T10:32:07.396Z</time>
      </trkpt>
      <trkpt lat="66.08382" lon="20.90131">
        <ele>68.157151</ele>
        <time>2020-09-22T10:32:11.373Z</time>
      </trkpt>
      <trkpt lat="66.08372" lon="20.90133">
        <ele>68.93095</ele>
        <time>2020-09-22T10:32:15.398Z</time>
      </trkpt>
      <trkpt lat="66.08362" lon="20.90137">
        <ele>69.698596</ele>
        <time>2020-09-22T10:32:19.404Z</time>
      </trkpt>
      <trkpt lat="66.08352" lon="20.9014">
        <ele>70.475427</ele>
        <time>2020-09-22T10:32:23.383Z</time>
      </trkpt>
      <trkpt lat="66.08341" lon="20.90146">
        <ele>71.309392</ele>
        <time>2020-09-22T10:32:27.428Z</time>
      </trkpt>
      <trkpt lat="66.0833" lon="20.9015">
        <ele>72.145672</ele>
        <time>2020-09-22T10:32:31.423Z</time>
      </trkpt>
      <trkpt lat="66.08318" lon="20.90156">
        <ele>73.053265</ele>
        <time>2020-09-22T10:32:35.376Z</time>
      </trkpt>
      <trkpt lat="66.08309" lon="20.90159">
        <ele>73.733881</ele>
        <time>2020-09-22T10:32:38.390Z</time>
      </trkpt>
      <trkpt lat="66.08298" lon="20.90165">
        <ele>74.59389</ele>
        <time>2020-09-22T10:32:42.405Z</time>
      </trkpt>
      <trkpt lat="66.08288" lon="20.90172">
        <ele>75.384043</ele>
        <time>2020-09-22T10:32:46.400Z</time>
      </trkpt>
      <trkpt lat="66.08278" lon="20.9018">
        <ele>76.183928</ele>
        <time>2020-09-22T10:32:50.408Z</time>
      </trkpt>
      <trkpt lat="66.08268" lon="20.9019">
        <ele>76.968471</ele>
        <time>2020-09-22T10:32:54.420Z</time>
      </trkpt>
      <trkpt lat="66.08258" lon="20.90201">
        <ele>77.805913</ele>
        <time>2020-09-22T10:32:58.383Z</time>
      </trkpt>
      <trkpt lat="66.08249" lon="20.90213">
        <ele>77.978702</ele>
        <time>2020-09-22T10:33:02.392Z</time>
      </trkpt>
      <trkpt lat="66.08241" lon="20.90226">
        <ele>77.98676</ele>
        <time>2020-09-22T10:33:06.410Z</time>
      </trkpt>
      <trkpt lat="66.08232" lon="20.90241">
        <ele>77.995367</ele>
        <time>2020-09-22T10:33:10.400Z</time>
      </trkpt>
      <trkpt lat="66.08223" lon="20.90254">
        <ele>78.00377</ele>
        <time>2020-09-22T10:33:14.383Z</time>
      </trkpt>
      <trkpt lat="66.08214" lon="20.90268">
        <ele>78.012607</ele>
        <time>2020-09-22T10:33:18.453Z</time>
      </trkpt>
      <trkpt lat="66.08205" lon="20.90284">
        <ele>78.021529</ele>
        <time>2020-09-22T10:33:22.385Z</time>
      </trkpt>
      <trkpt lat="66.08197" lon="20.90299">
        <ele>78.029845</ele>
        <time>2020-09-22T10:33:26.404Z</time>
      </trkpt>
      <trkpt lat="66.08189" lon="20.90314">
        <ele>78.037737</ele>
        <time>2020-09-22T10:33:30.367Z</time>
      </trkpt>
      <trkpt lat="66.08181" lon="20.90332">
        <ele>78.04674</ele>
        <time>2020-09-22T10:33:34.423Z</time>
      </trkpt>
      <trkpt lat="66.08172" lon="20.9035">
        <ele>78.055843</ele>
        <time>2020-09-22T10:33:38.384Z</time>
      </trkpt>
      <trkpt lat="66.08164" lon="20.90369">
        <ele>78.06512</ele>
        <time>2020-09-22T10:33:42.413Z</time>
      </trkpt>
      <trkpt lat="66.08157" lon="20.90384">
        <ele>78.072555</ele>
        <time>2020-09-22T10:33:45.408Z</time>
      </trkpt>
      <trkpt lat="66.08151" lon="20.90401">
        <ele>78.08015</ele>
        <time>2020-09-22T10:33:48.393Z</time>
      </trkpt>
      <trkpt lat="66.08145" lon="20.90418">
        <ele>78.087751</ele>
        <time>2020-09-22T10:33:51.381Z</time>
      </trkpt>
      <trkpt lat="66.08138" lon="20.90436">
        <ele>78.096001</ele>
        <time>2020-09-22T10:33:54.389Z</time>
      </trkpt>
      <trkpt lat="66.08131" lon="20.90455">
        <ele>78.104259</ele>
        <time>2020-09-22T10:33:57.394Z</time>
      </trkpt>
      <trkpt lat="66.08125" lon="20.90475">
        <ele>78.112467</ele>
        <time>2020-09-22T10:34:00.388Z</time>
      </trkpt>
      <trkpt lat="66.08118" lon="20.90497">
        <ele>78.05708</ele>
        <time>2020-09-22T10:34:03.410Z</time>
      </trkpt>
      <trkpt lat="66.08112" lon="20.9052">
        <ele>77.884609</ele>
        <time>2020-09-22T10:34:06.391Z</time>
      </trkpt>
      <trkpt lat="66.08105" lon="20.90542">
        <ele>77.708142</ele>
        <time>2020-09-22T10:34:09.382Z</time>
      </trkpt>
      <trkpt lat="66.08099" lon="20.90562">
        <ele>77.544505</ele>
        <time>2020-09-22T10:34:12.397Z</time>
      </trkpt>
      <trkpt lat="66.08092" lon="20.90583">
        <ele>77.376303</ele>
        <time>2020-09-22T10:34:15.384Z</time>
      </trkpt>
      <trkpt lat="66.08086" lon="20.90603">
        <ele>77.215628</ele>
        <time>2020-09-22T10:34:18.399Z</time>
      </trkpt>
      <trkpt lat="66.0808" lon="20.90623">
        <ele>77.061802</ele>
        <time>2020-09-22T10:34:21.416Z</time>
      </trkpt>
      <trkpt lat="66.08074" lon="20.90641">
        <ele>76.914852</ele>
        <time>2020-09-22T10:34:24.403Z</time>
      </trkpt>
      <trkpt lat="66.08069" lon="20.90662">
        <ele>76.759397</ele>
        <time>2020-09-22T10:34:27.401Z</time>
      </trkpt>
      <trkpt lat="66.08062" lon="20.90686">
        <ele>76.579297</ele>
        <time>2020-09-22T10:34:30.407Z</time>
      </trkpt>
      <trkpt lat="66.08056" lon="20.90707">
        <ele>76.40873</ele>
        <time>2020-09-22T10:34:33.378Z</time>
      </trkpt>
      <trkpt lat="66.08049" lon="20.90729">
        <ele>76.231874</ele>
        <time>2020-09-22T10:34:36.410Z</time>
      </trkpt>
      <trkpt lat="66.08042" lon="20.90752">
        <ele>76.050007</ele>
        <time>2020-09-22T10:34:39.429Z</time>
      </trkpt>
      <trkpt lat="66.08034" lon="20.90774">
        <ele>75.867737</ele>
        <time>2020-09-22T10:34:42.380Z</time>
      </trkpt>
      <trkpt lat="66.08027" lon="20.908">
        <ele>75.672025</ele>
        <time>2020-09-22T10:34:45.394Z</time>
      </trkpt>
      <trkpt lat="66.08019" lon="20.90826">
        <ele>75.466622</ele>
        <time>2020-09-22T10:34:48.386Z</time>
      </trkpt>
      <trkpt lat="66.08013" lon="20.90844">
        <ele>75.324282</ele>
        <time>2020-09-22T10:34:50.411Z</time>
      </trkpt>
      <trkpt lat="66.08006" lon="20.9087">
        <ele>75.27859</ele>
        <time>2020-09-22T10:34:53.398Z</time>
      </trkpt>
      <trkpt lat="66.08001" lon="20.90888">
        <ele>75.248371</ele>
        <time>2020-09-22T10:34:55.401Z</time>
      </trkpt>
      <trkpt lat="66.07994" lon="20.90913">
        <ele>75.205893</ele>
        <time>2020-09-22T10:34:58.380Z</time>
      </trkpt>
      <trkpt lat="66.07986" lon="20.90939">
        <ele>75.162247</ele>
        <time>2020-09-22T10:35:01.393Z</time>
      </trkpt>
      <trkpt lat="66.07978" lon="20.90964">
        <ele>75.120265</ele>
        <time>2020-09-22T10:35:04.391Z</time>
      </trkpt>
      <trkpt lat="66.07971" lon="20.90988">
        <ele>75.078722</ele>
        <time>2020-09-22T10:35:07.393Z</time>
      </trkpt>
      <trkpt lat="66.07964" lon="20.91013">
        <ele>75.037269</ele>
        <time>2020-09-22T10:35:10.400Z</time>
      </trkpt>
      <trkpt lat="66.07957" lon="20.91034">
        <ele>74.999884</ele>
        <time>2020-09-22T10:35:13.418Z</time>
      </trkpt>
      <trkpt lat="66.07951" lon="20.91057">
        <ele>74.96204</ele>
        <time>2020-09-22T10:35:16.380Z</time>
      </trkpt>
      <trkpt lat="66.07944" lon="20.91079">
        <ele>74.925287</ele>
        <time>2020-09-22T10:35:19.400Z</time>
      </trkpt>
      <trkpt lat="66.07938" lon="20.91098">
        <ele>74.8932</ele>
        <time>2020-09-22T10:35:22.389Z</time>
      </trkpt>
      <trkpt lat="66.07931" lon="20.9112">
        <ele>74.854016</ele>
        <time>2020-09-22T10:35:26.391Z</time>
      </trkpt>
      <trkpt lat="66.07924" lon="20.91142">
        <ele>74.816191</ele>
        <time>2020-09-22T10:35:30.394Z</time>
      </trkpt>
      <trkpt lat="66.07917" lon="20.91165">
        <ele>74.777799</ele>
        <time>2020-09-22T10:35:34.383Z</time>
      </trkpt>
      <trkpt lat="66.0791" lon="20.91187">
        <ele>74.739145</ele>
        <time>2020-09-22T10:35:38.394Z</time>
      </trkpt>
      <trkpt lat="66.07904" lon="20.91207">
        <ele>74.80428</ele>
        <time>2020-09-22T10:35:42.421Z</time>
      </trkpt>
      <trkpt lat="66.07898" lon="20.9123">
        <ele>75.093286</ele>
        <time>2020-09-22T10:35:46.385Z</time>
      </trkpt>
      <trkpt lat="66.07892" lon="20.91254">
        <ele>75.386268</ele>
        <time>2020-09-22T10:35:50.436Z</time>
      </trkpt>
      <trkpt lat="66.07886" lon="20.91275">
        <ele>75.666292</ele>
        <time>2020-09-22T10:35:54.389Z</time>
      </trkpt>
      <trkpt lat="66.0788" lon="20.91295">
        <ele>75.926803</ele>
        <time>2020-09-22T10:35:58.406Z</time>
      </trkpt>
      <trkpt lat="66.07873" lon="20.91314">
        <ele>76.193561</ele>
        <time>2020-09-22T10:36:02.400Z</time>
      </trkpt>
      <trkpt lat="66.07868" lon="20.91333">
        <ele>76.428757</ele>
        <time>2020-09-22T10:36:06.415Z</time>
      </trkpt>
      <trkpt lat="66.07863" lon="20.91354">
        <ele>76.690843</ele>
        <time>2020-09-22T10:36:11.382Z</time>
      </trkpt>
      <trkpt lat="66.07857" lon="20.91375">
        <ele>76.966062</ele>
        <time>2020-09-22T10:36:16.383Z</time>
      </trkpt>
      <trkpt lat="66.07851" lon="20.91394">
        <ele>77.211597</ele>
        <time>2020-09-22T10:36:20.382Z</time>
      </trkpt>
      <trkpt lat="66.07845" lon="20.91412">
        <ele>77.459572</ele>
        <time>2020-09-22T10:36:24.405Z</time>
      </trkpt>
      <trkpt lat="66.07839" lon="20.91431">
        <ele>77.720674</ele>
        <time>2020-09-22T10:36:28.392Z</time>
      </trkpt>
      <trkpt lat="66.07833" lon="20.91451">
        <ele>77.984982</ele>
        <time>2020-09-22T10:36:32.400Z</time>
      </trkpt>
      <trkpt lat="66.07827" lon="20.91471">
        <ele>78.240516</ele>
        <time>2020-09-22T10:36:36.378Z</time>
      </trkpt>
      <trkpt lat="66.07822" lon="20.91493">
        <ele>78.50192</ele>
        <time>2020-09-22T10:36:40.389Z</time>
      </trkpt>
      <trkpt lat="66.07817" lon="20.91512">
        <ele>78.74525</ele>
        <time>2020-09-22T10:36:44.384Z</time>
      </trkpt>
      <trkpt lat="66.07812" lon="20.91536">
        <ele>79.04275</ele>
        <time>2020-09-22T10:36:49.393Z</time>
      </trkpt>
      <trkpt lat="66.07806" lon="20.91557">
        <ele>79.310389</ele>
        <time>2020-09-22T10:36:53.374Z</time>
      </trkpt>
      <trkpt lat="66.078" lon="20.9158">
        <ele>79.249547</ele>
        <time>2020-09-22T10:36:57.416Z</time>
      </trkpt>
      <trkpt lat="66.07794" lon="20.91603">
        <ele>79.0108</ele>
        <time>2020-09-22T10:37:01.383Z</time>
      </trkpt>
      <trkpt lat="66.07787" lon="20.91626">
        <ele>78.770384</ele>
        <time>2020-09-22T10:37:05.381Z</time>
      </trkpt>
      <trkpt lat="66.07781" lon="20.91651">
        <ele>78.522719</ele>
        <time>2020-09-22T10:37:09.373Z</time>
      </trkpt>
      <trkpt lat="66.07775" lon="20.91672">
        <ele>78.30306</ele>
        <time>2020-09-22T10:37:12.396Z</time>
      </trkpt>
      <trkpt lat="66.07769" lon="20.91693">
        <ele>78.086882</ele>
        <time>2020-09-22T10:37:15.379Z</time>
      </trkpt>
      <trkpt lat="66.07762" lon="20.91716">
        <ele>77.841416</ele>
        <time>2020-09-22T10:37:18.382Z</time>
      </trkpt>
      <trkpt lat="66.07756" lon="20.91738">
        <ele>77.608664</ele>
        <time>2020-09-22T10:37:21.394Z</time>
      </trkpt>
      <trkpt lat="66.07749" lon="20.91762">
        <ele>77.363305</ele>
        <time>2020-09-22T10:37:24.401Z</time>
      </trkpt>
      <trkpt lat="66.07742" lon="20.91789">
        <ele>77.086704</ele>
        <time>2020-09-22T10:37:27.412Z</time>
      </trkpt>
      <trkpt lat="66.07736" lon="20.91815">
        <ele>76.82359</ele>
        <time>2020-09-22T10:37:30.401Z</time>
      </trkpt>
      <trkpt lat="66.07728" lon="20.91841">
        <ele>76.54715</ele>
        <time>2020-09-22T10:37:33.370Z</time>
      </trkpt>
      <trkpt lat="66.07721" lon="20.91858">
        <ele>76.340909</ele>
        <time>2020-09-22T10:37:35.375Z</time>
      </trkpt>
      <trkpt lat="66.07715" lon="20.91875">
        <ele>76.143591</ele>
        <time>2020-09-22T10:37:37.415Z</time>
      </trkpt>
      <trkpt lat="66.07708" lon="20.91892">
        <ele>75.940268</ele>
        <time>2020-09-22T10:37:39.413Z</time>
      </trkpt>
      <trkpt lat="66.07701" lon="20.9191">
        <ele>75.724991</ele>
        <time>2020-09-22T10:37:41.416Z</time>
      </trkpt>
      <trkpt lat="66.07693" lon="20.91927">
        <ele>75.385701</ele>
        <time>2020-09-22T10:37:43.388Z</time>
      </trkpt>
      <trkpt lat="66.07684" lon="20.91944">
        <ele>74.91797</ele>
        <time>2020-09-22T10:37:45.391Z</time>
      </trkpt>
      <trkpt lat="66.07676" lon="20.9196">
        <ele>74.454749</ele>
        <time>2020-09-22T10:37:47.377Z</time>
      </trkpt>
      <trkpt lat="66.07667" lon="20.91977">
        <ele>73.963099</ele>
        <time>2020-09-22T10:37:49.396Z</time>
      </trkpt>
      <trkpt lat="66.07658" lon="20.91994">
        <ele>73.434503</ele>
        <time>2020-09-22T10:37:51.379Z</time>
      </trkpt>
      <trkpt lat="66.07647" lon="20.92012">
        <ele>72.87248</ele>
        <time>2020-09-22T10:37:53.399Z</time>
      </trkpt>
      <trkpt lat="66.07636" lon="20.92029">
        <ele>72.3165</ele>
        <time>2020-09-22T10:37:55.394Z</time>
      </trkpt>
      <trkpt lat="66.07626" lon="20.92045">
        <ele>71.754898</ele>
        <time>2020-09-22T10:37:57.393Z</time>
      </trkpt>
      <trkpt lat="66.07614" lon="20.92061">
        <ele>71.183581</ele>
        <time>2020-09-22T10:37:59.436Z</time>
      </trkpt>
      <trkpt lat="66.07602" lon="20.92077">
        <ele>70.575011</ele>
        <time>2020-09-22T10:38:01.396Z</time>
      </trkpt>
      <trkpt lat="66.07589" lon="20.92094">
        <ele>69.940314</ele>
        <time>2020-09-22T10:38:03.418Z</time>
      </trkpt>
      <trkpt lat="66.07576" lon="20.92111">
        <ele>69.280782</ele>
        <time>2020-09-22T10:38:05.395Z</time>
      </trkpt>
      <trkpt lat="66.07562" lon="20.92128">
        <ele>68.575413</ele>
        <time>2020-09-22T10:38:07.429Z</time>
      </trkpt>
      <trkpt lat="66.07547" lon="20.92145">
        <ele>67.866965</ele>
        <time>2020-09-22T10:38:09.371Z</time>
      </trkpt>
      <trkpt lat="66.07533" lon="20.92161">
        <ele>68.032264</ele>
        <time>2020-09-22T10:38:11.392Z</time>
      </trkpt>
      <trkpt lat="66.07518" lon="20.92176">
        <ele>68.467999</ele>
        <time>2020-09-22T10:38:13.386Z</time>
      </trkpt>
      <trkpt lat="66.07506" lon="20.9219">
        <ele>68.849667</ele>
        <time>2020-09-22T10:38:15.407Z</time>
      </trkpt>
      <trkpt lat="66.07495" lon="20.92202">
        <ele>69.19408</ele>
        <time>2020-09-22T10:38:17.422Z</time>
      </trkpt>
      <trkpt lat="66.07485" lon="20.92214">
        <ele>69.490787</ele>
        <time>2020-09-22T10:38:19.389Z</time>
      </trkpt>
      <trkpt lat="66.07477" lon="20.92225">
        <ele>69.749657</ele>
        <time>2020-09-22T10:38:21.391Z</time>
      </trkpt>
      <trkpt lat="66.07466" lon="20.9224">
        <ele>70.094267</ele>
        <time>2020-09-22T10:38:24.393Z</time>
      </trkpt>
      <trkpt lat="66.07457" lon="20.92255">
        <ele>70.39768</ele>
        <time>2020-09-22T10:38:27.409Z</time>
      </trkpt>
      <trkpt lat="66.07449" lon="20.9227">
        <ele>70.671636</ele>
        <time>2020-09-22T10:38:30.390Z</time>
      </trkpt>
      <trkpt lat="66.07441" lon="20.9229">
        <ele>71.000046</ele>
        <time>2020-09-22T10:38:34.405Z</time>
      </trkpt>
      <trkpt lat="66.07433" lon="20.92311">
        <ele>71.317749</ele>
        <time>2020-09-22T10:38:38.379Z</time>
      </trkpt>
      <trkpt lat="66.07426" lon="20.92332">
        <ele>71.62486</ele>
        <time>2020-09-22T10:38:42.394Z</time>
      </trkpt>
      <trkpt lat="66.0742" lon="20.92349">
        <ele>71.88186</ele>
        <time>2020-09-22T10:38:45.388Z</time>
      </trkpt>
      <trkpt lat="66.07413" lon="20.92371">
        <ele>72.202982</ele>
        <time>2020-09-22T10:38:49.417Z</time>
      </trkpt>
      <trkpt lat="66.07406" lon="20.92394">
        <ele>72.53392</ele>
        <time>2020-09-22T10:38:53.404Z</time>
      </trkpt>
      <trkpt lat="66.074" lon="20.92413">
        <ele>72.831312</ele>
        <time>2020-09-22T10:38:56.399Z</time>
      </trkpt>
      <trkpt lat="66.07394" lon="20.9243">
        <ele>73.21918</ele>
        <time>2020-09-22T10:38:59.412Z</time>
      </trkpt>
      <trkpt lat="66.07388" lon="20.92448">
        <ele>73.629944</ele>
        <time>2020-09-22T10:39:02.416Z</time>
      </trkpt>
      <trkpt lat="66.07382" lon="20.92466">
        <ele>74.029755</ele>
        <time>2020-09-22T10:39:05.390Z</time>
      </trkpt>
      <trkpt lat="66.07376" lon="20.92484">
        <ele>74.429639</ele>
        <time>2020-09-22T10:39:08.403Z</time>
      </trkpt>
      <trkpt lat="66.0737" lon="20.92501">
        <ele>74.826806</ele>
        <time>2020-09-22T10:39:11.393Z</time>
      </trkpt>
      <trkpt lat="66.07364" lon="20.92519">
        <ele>75.218719</ele>
        <time>2020-09-22T10:39:14.393Z</time>
      </trkpt>
      <trkpt lat="66.07358" lon="20.92537">
        <ele>75.625196</ele>
        <time>2020-09-22T10:39:17.415Z</time>
      </trkpt>
      <trkpt lat="66.07351" lon="20.92556">
        <ele>76.037012</ele>
        <time>2020-09-22T10:39:20.400Z</time>
      </trkpt>
      <trkpt lat="66.07345" lon="20.92574">
        <ele>76.436827</ele>
        <time>2020-09-22T10:39:23.411Z</time>
      </trkpt>
      <trkpt lat="66.07337" lon="20.92596">
        <ele>76.93977</ele>
        <time>2020-09-22T10:39:27.391Z</time>
      </trkpt>
      <trkpt lat="66.07331" lon="20.92614">
        <ele>77.343604</ele>
        <time>2020-09-22T10:39:30.405Z</time>
      </trkpt>
      <trkpt lat="66.07325" lon="20.92631">
        <ele>77.741632</ele>
        <time>2020-09-22T10:39:33.392Z</time>
      </trkpt>
      <trkpt lat="66.07319" lon="20.92648">
        <ele>78.141521</ele>
        <time>2020-09-22T10:39:36.437Z</time>
      </trkpt>
      <trkpt lat="66.07313" lon="20.92667">
        <ele>78.540694</ele>
        <time>2020-09-22T10:39:39.395Z</time>
      </trkpt>
      <trkpt lat="66.07308" lon="20.92685">
        <ele>78.924562</ele>
        <time>2020-09-22T10:39:42.378Z</time>
      </trkpt>
      <trkpt lat="66.07301" lon="20.92706">
        <ele>79.385735</ele>
        <time>2020-09-22T10:39:46.385Z</time>
      </trkpt>
      <trkpt lat="66.07293" lon="20.92727">
        <ele>79.881804</ele>
        <time>2020-09-22T10:39:50.383Z</time>
      </trkpt>
      <trkpt lat="66.07286" lon="20.9275">
        <ele>80.45319</ele>
        <time>2020-09-22T10:39:54.390Z</time>
      </trkpt>
      <trkpt lat="66.07279" lon="20.92771">
        <ele>81.461263</ele>
        <time>2020-09-22T10:39:58.414Z</time>
      </trkpt>
      <trkpt lat="66.07272" lon="20.92792">
        <ele>82.483926</ele>
        <time>2020-09-22T10:40:02.385Z</time>
      </trkpt>
      <trkpt lat="66.07266" lon="20.92809">
        <ele>83.320192</ele>
        <time>2020-09-22T10:40:05.384Z</time>
      </trkpt>
      <trkpt lat="66.0726" lon="20.92832">
        <ele>84.340662</ele>
        <time>2020-09-22T10:40:09.433Z</time>
      </trkpt>
      <trkpt lat="66.07254" lon="20.92854">
        <ele>85.362212</ele>
        <time>2020-09-22T10:40:13.411Z</time>
      </trkpt>
      <trkpt lat="66.07248" lon="20.92875">
        <ele>86.307569</ele>
        <time>2020-09-22T10:40:17.390Z</time>
      </trkpt>
      <trkpt lat="66.07241" lon="20.92895">
        <ele>87.292603</ele>
        <time>2020-09-22T10:40:21.412Z</time>
      </trkpt>
      <trkpt lat="66.07235" lon="20.92916">
        <ele>88.266498</ele>
        <time>2020-09-22T10:40:25.413Z</time>
      </trkpt>
      <trkpt lat="66.07229" lon="20.92936">
        <ele>89.214899</ele>
        <time>2020-09-22T10:40:29.397Z</time>
      </trkpt>
      <trkpt lat="66.07222" lon="20.92958">
        <ele>90.232072</ele>
        <time>2020-09-22T10:40:33.397Z</time>
      </trkpt>
      <trkpt lat="66.07215" lon="20.92977">
        <ele>91.20573</ele>
        <time>2020-09-22T10:40:37.432Z</time>
      </trkpt>
      <trkpt lat="66.07208" lon="20.92998">
        <ele>92.205151</ele>
        <time>2020-09-22T10:40:41.385Z</time>
      </trkpt>
      <trkpt lat="66.07202" lon="20.93018">
        <ele>93.166635</ele>
        <time>2020-09-22T10:40:45.398Z</time>
      </trkpt>
      <trkpt lat="66.07194" lon="20.93038">
        <ele>94.189352</ele>
        <time>2020-09-22T10:40:49.495Z</time>
      </trkpt>
      <trkpt lat="66.07187" lon="20.93057">
        <ele>95.189402</ele>
        <time>2020-09-22T10:40:53.406Z</time>
      </trkpt>
      <trkpt lat="66.0718" lon="20.93075">
        <ele>96.093087</ele>
        <time>2020-09-22T10:40:57.396Z</time>
      </trkpt>
      <trkpt lat="66.07174" lon="20.93096">
        <ele>96.970785</ele>
        <time>2020-09-22T10:41:01.396Z</time>
      </trkpt>
      <trkpt lat="66.07168" lon="20.93114">
        <ele>97.128862</ele>
        <time>2020-09-22T10:41:05.385Z</time>
      </trkpt>
      <trkpt lat="66.07162" lon="20.93133">
        <ele>97.291595</ele>
        <time>2020-09-22T10:41:09.401Z</time>
      </trkpt>
      <trkpt lat="66.07156" lon="20.93152">
        <ele>97.446112</ele>
        <time>2020-09-22T10:41:13.372Z</time>
      </trkpt>
      <trkpt lat="66.0715" lon="20.9317">
        <ele>97.601591</ele>
        <time>2020-09-22T10:41:17.409Z</time>
      </trkpt>
      <trkpt lat="66.07144" lon="20.93187">
        <ele>97.749894</ele>
        <time>2020-09-22T10:41:21.393Z</time>
      </trkpt>
      <trkpt lat="66.07138" lon="20.93204">
        <ele>97.906517</ele>
        <time>2020-09-22T10:41:25.413Z</time>
      </trkpt>
      <trkpt lat="66.07132" lon="20.93222">
        <ele>98.056825</ele>
        <time>2020-09-22T10:41:29.394Z</time>
      </trkpt>
      <trkpt lat="66.07126" lon="20.9324">
        <ele>98.211266</ele>
        <time>2020-09-22T10:41:33.393Z</time>
      </trkpt>
      <trkpt lat="66.0712" lon="20.93261">
        <ele>98.382411</ele>
        <time>2020-09-22T10:41:37.410Z</time>
      </trkpt>
      <trkpt lat="66.07114" lon="20.93279">
        <ele>98.53427</ele>
        <time>2020-09-22T10:41:41.392Z</time>
      </trkpt>
      <trkpt lat="66.07108" lon="20.93297">
        <ele>98.699225</ele>
        <time>2020-09-22T10:41:45.399Z</time>
      </trkpt>
      <trkpt lat="66.071" lon="20.93316">
        <ele>98.87635</ele>
        <time>2020-09-22T10:41:49.407Z</time>
      </trkpt>
      <trkpt lat="66.07094" lon="20.93337">
        <ele>99.050428</ele>
        <time>2020-09-22T10:41:53.420Z</time>
      </trkpt>
      <trkpt lat="66.07087" lon="20.93359">
        <ele>99.238036</ele>
        <time>2020-09-22T10:41:57.377Z</time>
      </trkpt>
      <trkpt lat="66.07079" lon="20.9338">
        <ele>99.420178</ele>
        <time>2020-09-22T10:42:01.419Z</time>
      </trkpt>
      <trkpt lat="66.07072" lon="20.93397">
        <ele>99.585077</ele>
        <time>2020-09-22T10:42:05.390Z</time>
      </trkpt>
      <trkpt lat="66.07065" lon="20.93419">
        <ele>99.778347</ele>
        <time>2020-09-22T10:42:09.384Z</time>
      </trkpt>
      <trkpt lat="66.07057" lon="20.93441">
        <ele>99.782207</ele>
        <time>2020-09-22T10:42:13.377Z</time>
      </trkpt>
      <trkpt lat="66.07049" lon="20.93464">
        <ele>99.421719</ele>
        <time>2020-09-22T10:42:17.383Z</time>
      </trkpt>
      <trkpt lat="66.07042" lon="20.93485">
        <ele>99.093803</ele>
        <time>2020-09-22T10:42:21.389Z</time>
      </trkpt>
      <trkpt lat="66.07035" lon="20.93506">
        <ele>98.77053</ele>
        <time>2020-09-22T10:42:25.432Z</time>
      </trkpt>
      <trkpt lat="66.07027" lon="20.93528">
        <ele>98.421031</ele>
        <time>2020-09-22T10:42:29.395Z</time>
      </trkpt>
      <trkpt lat="66.0702" lon="20.93544">
        <ele>98.154312</ele>
        <time>2020-09-22T10:42:32.394Z</time>
      </trkpt>
      <trkpt lat="66.07012" lon="20.93564">
        <ele>97.809548</ele>
        <time>2020-09-22T10:42:36.413Z</time>
      </trkpt>
      <trkpt lat="66.07006" lon="20.93581">
        <ele>97.532708</ele>
        <time>2020-09-22T10:42:39.381Z</time>
      </trkpt>
      <trkpt lat="66.06999" lon="20.93597">
        <ele>97.263926</ele>
        <time>2020-09-22T10:42:42.388Z</time>
      </trkpt>
      <trkpt lat="66.06993" lon="20.93613">
        <ele>96.990519</ele>
        <time>2020-09-22T10:42:45.393Z</time>
      </trkpt>
      <trkpt lat="66.06986" lon="20.93629">
        <ele>96.714619</ele>
        <time>2020-09-22T10:42:48.398Z</time>
      </trkpt>
      <trkpt lat="66.06979" lon="20.93645">
        <ele>96.448379</ele>
        <time>2020-09-22T10:42:51.392Z</time>
      </trkpt>
      <trkpt lat="66.06972" lon="20.93662">
        <ele>96.145998</ele>
        <time>2020-09-22T10:42:54.394Z</time>
      </trkpt>
      <trkpt lat="66.06966" lon="20.93678">
        <ele>95.879327</ele>
        <time>2020-09-22T10:42:57.388Z</time>
      </trkpt>
      <trkpt lat="66.06958" lon="20.93694">
        <ele>95.590778</ele>
        <time>2020-09-22T10:43:00.394Z</time>
      </trkpt>
      <trkpt lat="66.06951" lon="20.93712">
        <ele>95.290094</ele>
        <time>2020-09-22T10:43:03.412Z</time>
      </trkpt>
      <trkpt lat="66.06943" lon="20.9373">
        <ele>94.970704</ele>
        <time>2020-09-22T10:43:06.391Z</time>
      </trkpt>
      <trkpt lat="66.06936" lon="20.93747">
        <ele>94.669691</ele>
        <time>2020-09-22T10:43:09.390Z</time>
      </trkpt>
      <trkpt lat="66.06928" lon="20.93762">
        <ele>94.19131</ele>
        <time>2020-09-22T10:43:12.376Z</time>
      </trkpt>
      <trkpt lat="66.06921" lon="20.93777">
        <ele>93.652457</ele>
        <time>2020-09-22T10:43:15.400Z</time>
      </trkpt>
      <trkpt lat="66.06913" lon="20.93793">
        <ele>93.10936</ele>
        <time>2020-09-22T10:43:18.412Z</time>
      </trkpt>
      <trkpt lat="66.06906" lon="20.9381">
        <ele>92.529174</ele>
        <time>2020-09-22T10:43:21.436Z</time>
      </trkpt>
      <trkpt lat="66.06896" lon="20.9383">
        <ele>91.864492</ele>
        <time>2020-09-22T10:43:24.393Z</time>
      </trkpt>
      <trkpt lat="66.06888" lon="20.93846">
        <ele>91.285678</ele>
        <time>2020-09-22T10:43:27.411Z</time>
      </trkpt>
      <trkpt lat="66.0688" lon="20.93863">
        <ele>90.686509</ele>
        <time>2020-09-22T10:43:30.409Z</time>
      </trkpt>
      <trkpt lat="66.06871" lon="20.93881">
        <ele>90.04187</ele>
        <time>2020-09-22T10:43:33.389Z</time>
      </trkpt>
      <trkpt lat="66.06862" lon="20.93898">
        <ele>89.403385</ele>
        <time>2020-09-22T10:43:36.391Z</time>
      </trkpt>
      <trkpt lat="66.06853" lon="20.93915">
        <ele>88.759556</ele>
        <time>2020-09-22T10:43:39.375Z</time>
      </trkpt>
      <trkpt lat="66.06842" lon="20.93931">
        <ele>88.08034</ele>
        <time>2020-09-22T10:43:42.401Z</time>
      </trkpt>
      <trkpt lat="66.06832" lon="20.93946">
        <ele>87.402763</ele>
        <time>2020-09-22T10:43:45.460Z</time>
      </trkpt>
      <trkpt lat="66.06821" lon="20.93959">
        <ele>86.749713</ele>
        <time>2020-09-22T10:43:48.394Z</time>
      </trkpt>
      <trkpt lat="66.0681" lon="20.93972">
        <ele>86.087622</ele>
        <time>2020-09-22T10:43:51.414Z</time>
      </trkpt>
      <trkpt lat="66.068" lon="20.93986">
        <ele>85.411531</ele>
        <time>2020-09-22T10:43:54.434Z</time>
      </trkpt>
      <trkpt lat="66.06789" lon="20.94">
        <ele>84.744504</ele>
        <time>2020-09-22T10:43:57.395Z</time>
      </trkpt>
      <trkpt lat="66.06778" lon="20.94013">
        <ele>84.489501</ele>
        <time>2020-09-22T10:44:00.380Z</time>
      </trkpt>
      <trkpt lat="66.06768" lon="20.94026">
        <ele>84.331499</ele>
        <time>2020-09-22T10:44:03.416Z</time>
      </trkpt>
      <trkpt lat="66.06757" lon="20.94038">
        <ele>84.178791</ele>
        <time>2020-09-22T10:44:06.392Z</time>
      </trkpt>
      <trkpt lat="66.06746" lon="20.94051">
        <ele>84.013862</ele>
        <time>2020-09-22T10:44:09.406Z</time>
      </trkpt>
      <trkpt lat="66.06736" lon="20.94063">
        <ele>83.858657</ele>
        <time>2020-09-22T10:44:12.378Z</time>
      </trkpt>
      <trkpt lat="66.06725" lon="20.94075">
        <ele>83.704671</ele>
        <time>2020-09-22T10:44:15.416Z</time>
      </trkpt>
      <trkpt lat="66.06714" lon="20.94086">
        <ele>83.543357</ele>
        <time>2020-09-22T10:44:18.389Z</time>
      </trkpt>
      <trkpt lat="66.06703" lon="20.94098">
        <ele>83.381165</ele>
        <time>2020-09-22T10:44:21.395Z</time>
      </trkpt>
      <trkpt lat="66.06692" lon="20.9411">
        <ele>83.224833</ele>
        <time>2020-09-22T10:44:24.385Z</time>
      </trkpt>
      <trkpt lat="66.06681" lon="20.94122">
        <ele>83.067289</ele>
        <time>2020-09-22T10:44:27.379Z</time>
      </trkpt>
      <trkpt lat="66.06671" lon="20.94134">
        <ele>82.912166</ele>
        <time>2020-09-22T10:44:30.394Z</time>
      </trkpt>
      <trkpt lat="66.0666" lon="20.94146">
        <ele>82.752637</ele>
        <time>2020-09-22T10:44:33.414Z</time>
      </trkpt>
      <trkpt lat="66.0665" lon="20.94159">
        <ele>82.598015</ele>
        <time>2020-09-22T10:44:36.383Z</time>
      </trkpt>
      <trkpt lat="66.06639" lon="20.94171">
        <ele>82.438802</ele>
        <time>2020-09-22T10:44:39.397Z</time>
      </trkpt>
      <trkpt lat="66.06628" lon="20.94183">
        <ele>82.278827</ele>
        <time>2020-09-22T10:44:42.409Z</time>
      </trkpt>
      <trkpt lat="66.06617" lon="20.94196">
        <ele>82.214687</ele>
        <time>2020-09-22T10:44:45.392Z</time>
      </trkpt>
      <trkpt lat="66.06606" lon="20.94207">
        <ele>82.212247</ele>
        <time>2020-09-22T10:44:48.376Z</time>
      </trkpt>
      <trkpt lat="66.06596" lon="20.9422">
        <ele>82.209786</ele>
        <time>2020-09-22T10:44:51.378Z</time>
      </trkpt>
      <trkpt lat="66.06584" lon="20.94234">
        <ele>82.207006</ele>
        <time>2020-09-22T10:44:54.388Z</time>
      </trkpt>
      <trkpt lat="66.06572" lon="20.94248">
        <ele>82.204244</ele>
        <time>2020-09-22T10:44:57.394Z</time>
      </trkpt>
      <trkpt lat="66.06561" lon="20.94262">
        <ele>82.201494</ele>
        <time>2020-09-22T10:45:00.400Z</time>
      </trkpt>
      <trkpt lat="66.06549" lon="20.94275">
        <ele>82.198767</ele>
        <time>2020-09-22T10:45:03.398Z</time>
      </trkpt>
      <trkpt lat="66.06537" lon="20.94289">
        <ele>82.195974</ele>
        <time>2020-09-22T10:45:06.408Z</time>
      </trkpt>
      <trkpt lat="66.06526" lon="20.94301">
        <ele>82.193307</ele>
        <time>2020-09-22T10:45:09.411Z</time>
      </trkpt>
      <trkpt lat="66.06515" lon="20.94313">
        <ele>82.190785</ele>
        <time>2020-09-22T10:45:12.419Z</time>
      </trkpt>
      <trkpt lat="66.06503" lon="20.94329">
        <ele>82.18792</ele>
        <time>2020-09-22T10:45:15.392Z</time>
      </trkpt>
      <trkpt lat="66.06495" lon="20.94341">
        <ele>82.185924</ele>
        <time>2020-09-22T10:45:17.397Z</time>
      </trkpt>
      <trkpt lat="66.06486" lon="20.94351">
        <ele>82.183858</ele>
        <time>2020-09-22T10:45:19.401Z</time>
      </trkpt>
      <trkpt lat="66.06477" lon="20.94363">
        <ele>82.181776</ele>
        <time>2020-09-22T10:45:21.381Z</time>
      </trkpt>
      <trkpt lat="66.0647" lon="20.94376">
        <ele>82.179786</ele>
        <time>2020-09-22T10:45:23.390Z</time>
      </trkpt>
      <trkpt lat="66.06461" lon="20.94388">
        <ele>82.133468</ele>
        <time>2020-09-22T10:45:25.401Z</time>
      </trkpt>
      <trkpt lat="66.06453" lon="20.94402">
        <ele>81.862205</ele>
        <time>2020-09-22T10:45:27.423Z</time>
      </trkpt>
      <trkpt lat="66.06445" lon="20.94416">
        <ele>81.589462</ele>
        <time>2020-09-22T10:45:29.386Z</time>
      </trkpt>
      <trkpt lat="66.06436" lon="20.94431">
        <ele>81.307613</ele>
        <time>2020-09-22T10:45:31.399Z</time>
      </trkpt>
      <trkpt lat="66.06428" lon="20.94446">
        <ele>81.022609</ele>
        <time>2020-09-22T10:45:33.381Z</time>
      </trkpt>
      <trkpt lat="66.06419" lon="20.94462">
        <ele>80.730695</ele>
        <time>2020-09-22T10:45:35.397Z</time>
      </trkpt>
      <trkpt lat="66.0641" lon="20.9448">
        <ele>80.417752</ele>
        <time>2020-09-22T10:45:37.425Z</time>
      </trkpt>
      <trkpt lat="66.064" lon="20.94498">
        <ele>80.088844</ele>
        <time>2020-09-22T10:45:39.391Z</time>
      </trkpt>
      <trkpt lat="66.0639" lon="20.94516">
        <ele>79.747656</ele>
        <time>2020-09-22T10:45:41.389Z</time>
      </trkpt>
      <trkpt lat="66.06379" lon="20.94536">
        <ele>79.385965</ele>
        <time>2020-09-22T10:45:43.404Z</time>
      </trkpt>
      <trkpt lat="66.06368" lon="20.94558">
        <ele>79.011535</ele>
        <time>2020-09-22T10:45:45.415Z</time>
      </trkpt>
      <trkpt lat="66.06356" lon="20.94581">
        <ele>78.60734</ele>
        <time>2020-09-22T10:45:47.392Z</time>
      </trkpt>
      <trkpt lat="66.06344" lon="20.94606">
        <ele>78.176756</ele>
        <time>2020-09-22T10:45:49.409Z</time>
      </trkpt>
      <trkpt lat="66.06331" lon="20.9463">
        <ele>77.745393</ele>
        <time>2020-09-22T10:45:51.417Z</time>
      </trkpt>
      <trkpt lat="66.06319" lon="20.94653">
        <ele>77.323432</ele>
        <time>2020-09-22T10:45:53.396Z</time>
      </trkpt>
      <trkpt lat="66.06307" lon="20.94677">
        <ele>76.569669</ele>
        <time>2020-09-22T10:45:55.374Z</time>
      </trkpt>
      <trkpt lat="66.06295" lon="20.94702">
        <ele>75.774248</ele>
        <time>2020-09-22T10:45:57.388Z</time>
      </trkpt>
      <trkpt lat="66.06284" lon="20.9473">
        <ele>74.971285</ele>
        <time>2020-09-22T10:45:59.395Z</time>
      </trkpt>
      <trkpt lat="66.06274" lon="20.94762">
        <ele>74.136545</ele>
        <time>2020-09-22T10:46:01.387Z</time>
      </trkpt>
      <trkpt lat="66.06264" lon="20.94797">
        <ele>73.269605</ele>
        <time>2020-09-22T10:46:03.413Z</time>
      </trkpt>
      <trkpt lat="66.0626" lon="20.94816">
        <ele>72.817167</ele>
        <time>2020-09-22T10:46:04.388Z</time>
      </trkpt>
      <trkpt lat="66.06255" lon="20.94836">
        <ele>72.360547</ele>
        <time>2020-09-22T10:46:05.376Z</time>
      </trkpt>
      <trkpt lat="66.06251" lon="20.94856">
        <ele>71.893025</ele>
        <time>2020-09-22T10:46:06.373Z</time>
      </trkpt>
      <trkpt lat="66.06247" lon="20.94877">
        <ele>71.413054</ele>
        <time>2020-09-22T10:46:07.397Z</time>
      </trkpt>
      <trkpt lat="66.06243" lon="20.949">
        <ele>70.908741</ele>
        <time>2020-09-22T10:46:08.390Z</time>
      </trkpt>
      <trkpt lat="66.06239" lon="20.94923">
        <ele>70.389697</ele>
        <time>2020-09-22T10:46:09.400Z</time>
      </trkpt>
      <trkpt lat="66.06235" lon="20.94947">
        <ele>69.857529</ele>
        <time>2020-09-22T10:46:10.383Z</time>
      </trkpt>
      <trkpt lat="66.06231" lon="20.94972">
        <ele>69.310205</ele>
        <time>2020-09-22T10:46:11.377Z</time>
      </trkpt>
      <trkpt lat="66.06227" lon="20.94998">
        <ele>68.745854</ele>
        <time>2020-09-22T10:46:12.386Z</time>
      </trkpt>
      <trkpt lat="66.06222" lon="20.95023">
        <ele>68.209729</ele>
        <time>2020-09-22T10:46:13.390Z</time>
      </trkpt>
      <trkpt lat="66.06217" lon="20.95049">
        <ele>67.808576</ele>
        <time>2020-09-22T10:46:14.400Z</time>
      </trkpt>
      <trkpt lat="66.06212" lon="20.95076">
        <ele>67.397907</ele>
        <time>2020-09-22T10:46:15.413Z</time>
      </trkpt>
      <trkpt lat="66.06207" lon="20.95101">
        <ele>66.992314</ele>
        <time>2020-09-22T10:46:16.390Z</time>
      </trkpt>
      <trkpt lat="66.06202" lon="20.95127">
        <ele>66.592421</ele>
        <time>2020-09-22T10:46:17.387Z</time>
      </trkpt>
      <trkpt lat="66.06197" lon="20.95151">
        <ele>66.206221</ele>
        <time>2020-09-22T10:46:18.437Z</time>
      </trkpt>
      <trkpt lat="66.06191" lon="20.95174">
        <ele>65.82743</ele>
        <time>2020-09-22T10:46:19.413Z</time>
      </trkpt>
      <trkpt lat="66.06186" lon="20.95197">
        <ele>65.450612</ele>
        <time>2020-09-22T10:46:20.407Z</time>
      </trkpt>
      <trkpt lat="66.06181" lon="20.9522">
        <ele>65.079887</ele>
        <time>2020-09-22T10:46:21.388Z</time>
      </trkpt>
      <trkpt lat="66.06175" lon="20.95242">
        <ele>64.716429</ele>
        <time>2020-09-22T10:46:22.381Z</time>
      </trkpt>
      <trkpt lat="66.0617" lon="20.95263">
        <ele>64.371583</ele>
        <time>2020-09-22T10:46:23.379Z</time>
      </trkpt>
      <trkpt lat="66.06165" lon="20.95283">
        <ele>64.035735</ele>
        <time>2020-09-22T10:46:24.396Z</time>
      </trkpt>
      <trkpt lat="66.06159" lon="20.95304">
        <ele>63.690207</ele>
        <time>2020-09-22T10:46:25.399Z</time>
      </trkpt>
      <trkpt lat="66.06153" lon="20.95324">
        <ele>63.334087</ele>
        <time>2020-09-22T10:46:26.399Z</time>
      </trkpt>
      <trkpt lat="66.06147" lon="20.95343">
        <ele>62.991537</ele>
        <time>2020-09-22T10:46:27.385Z</time>
      </trkpt>
      <trkpt lat="66.06141" lon="20.95362">
        <ele>62.65455</ele>
        <time>2020-09-22T10:46:28.376Z</time>
      </trkpt>
      <trkpt lat="66.06135" lon="20.95381">
        <ele>62.317562</ele>
        <time>2020-09-22T10:46:29.427Z</time>
      </trkpt>
      <trkpt lat="66.06129" lon="20.95399">
        <ele>62.023853</ele>
        <time>2020-09-22T10:46:30.413Z</time>
      </trkpt>
      <trkpt lat="66.06123" lon="20.95416">
        <ele>61.934303</ele>
        <time>2020-09-22T10:46:31.394Z</time>
      </trkpt>
      <trkpt lat="66.06117" lon="20.95432">
        <ele>61.847629</ele>
        <time>2020-09-22T10:46:32.392Z</time>
      </trkpt>
      <trkpt lat="66.06104" lon="20.95462">
        <ele>61.679585</ele>
        <time>2020-09-22T10:46:34.422Z</time>
      </trkpt>
      <trkpt lat="66.06093" lon="20.95489">
        <ele>61.524053</ele>
        <time>2020-09-22T10:46:36.389Z</time>
      </trkpt>
      <trkpt lat="66.06081" lon="20.95516">
        <ele>61.369926</ele>
        <time>2020-09-22T10:46:38.397Z</time>
      </trkpt>
      <trkpt lat="66.0607" lon="20.95542">
        <ele>61.220883</ele>
        <time>2020-09-22T10:46:40.372Z</time>
      </trkpt>
      <trkpt lat="66.06059" lon="20.95568">
        <ele>61.076569</ele>
        <time>2020-09-22T10:46:42.420Z</time>
      </trkpt>
      <trkpt lat="66.06049" lon="20.95591">
        <ele>60.943263</ele>
        <time>2020-09-22T10:46:44.393Z</time>
      </trkpt>
      <trkpt lat="66.0604" lon="20.95613">
        <ele>60.81742</ele>
        <time>2020-09-22T10:46:46.401Z</time>
      </trkpt>
      <trkpt lat="66.06031" lon="20.95635">
        <ele>60.696832</ele>
        <time>2020-09-22T10:46:48.390Z</time>
      </trkpt>
      <trkpt lat="66.06022" lon="20.95657">
        <ele>60.576799</ele>
        <time>2020-09-22T10:46:50.386Z</time>
      </trkpt>
      <trkpt lat="66.06013" lon="20.95678">
        <ele>60.457593</ele>
        <time>2020-09-22T10:46:52.382Z</time>
      </trkpt>
      <trkpt lat="66.06005" lon="20.95697">
        <ele>60.346348</ele>
        <time>2020-09-22T10:46:54.400Z</time>
      </trkpt>
      <trkpt lat="66.05998" lon="20.95714">
        <ele>60.315705</ele>
        <time>2020-09-22T10:46:56.440Z</time>
      </trkpt>
      <trkpt lat="66.05991" lon="20.9573">
        <ele>60.350354</ele>
        <time>2020-09-22T10:46:58.392Z</time>
      </trkpt>
      <trkpt lat="66.05984" lon="20.95746">
        <ele>60.38325</ele>
        <time>2020-09-22T10:47:00.390Z</time>
      </trkpt>
      <trkpt lat="66.05975" lon="20.95769">
        <ele>60.430033</ele>
        <time>2020-09-22T10:47:03.412Z</time>
      </trkpt>
      <trkpt lat="66.05967" lon="20.95792">
        <ele>60.475116</ele>
        <time>2020-09-22T10:47:06.395Z</time>
      </trkpt>
      <trkpt lat="66.05958" lon="20.95812">
        <ele>60.51841</ele>
        <time>2020-09-22T10:47:09.418Z</time>
      </trkpt>
      <trkpt lat="66.05949" lon="20.95834">
        <ele>60.563528</ele>
        <time>2020-09-22T10:47:12.405Z</time>
      </trkpt>
      <trkpt lat="66.0594" lon="20.95857">
        <ele>60.610966</ele>
        <time>2020-09-22T10:47:15.392Z</time>
      </trkpt>
      <trkpt lat="66.05933" lon="20.95873">
        <ele>60.644789</ele>
        <time>2020-09-22T10:47:17.397Z</time>
      </trkpt>
      <trkpt lat="66.05926" lon="20.95889">
        <ele>60.679673</ele>
        <time>2020-09-22T10:47:19.381Z</time>
      </trkpt>
      <trkpt lat="66.05919" lon="20.95906">
        <ele>60.714776</ele>
        <time>2020-09-22T10:47:21.399Z</time>
      </trkpt>
      <trkpt lat="66.05912" lon="20.95924">
        <ele>60.751679</ele>
        <time>2020-09-22T10:47:23.408Z</time>
      </trkpt>
      <trkpt lat="66.05905" lon="20.95942">
        <ele>60.788609</ele>
        <time>2020-09-22T10:47:25.394Z</time>
      </trkpt>
      <trkpt lat="66.05897" lon="20.9596">
        <ele>60.826079</ele>
        <time>2020-09-22T10:47:27.382Z</time>
      </trkpt>
      <trkpt lat="66.0589" lon="20.95978">
        <ele>60.864339</ele>
        <time>2020-09-22T10:47:29.394Z</time>
      </trkpt>
      <trkpt lat="66.05882" lon="20.95996">
        <ele>60.903298</ele>
        <time>2020-09-22T10:47:31.414Z</time>
      </trkpt>
      <trkpt lat="66.05875" lon="20.96015">
        <ele>60.94211</ele>
        <time>2020-09-22T10:47:33.403Z</time>
      </trkpt>
      <trkpt lat="66.05867" lon="20.96034">
        <ele>60.879233</ele>
        <time>2020-09-22T10:47:35.401Z</time>
      </trkpt>
      <trkpt lat="66.0586" lon="20.96052">
        <ele>60.805206</ele>
        <time>2020-09-22T10:47:37.390Z</time>
      </trkpt>
      <trkpt lat="66.05852" lon="20.96068">
        <ele>60.735337</ele>
        <time>2020-09-22T10:47:39.396Z</time>
      </trkpt>
      <trkpt lat="66.05846" lon="20.96083">
        <ele>60.670908</ele>
        <time>2020-09-22T10:47:41.436Z</time>
      </trkpt>
      <trkpt lat="66.05837" lon="20.96104">
        <ele>60.581508</ele>
        <time>2020-09-22T10:47:44.391Z</time>
      </trkpt>
      <trkpt lat="66.05827" lon="20.96126">
        <ele>60.488836</ele>
        <time>2020-09-22T10:47:47.399Z</time>
      </trkpt>
      <trkpt lat="66.05821" lon="20.96142">
        <ele>60.423748</ele>
        <time>2020-09-22T10:47:49.391Z</time>
      </trkpt>
      <trkpt lat="66.05814" lon="20.96158">
        <ele>60.357142</ele>
        <time>2020-09-22T10:47:51.393Z</time>
      </trkpt>
      <trkpt lat="66.05807" lon="20.96173">
        <ele>60.292877</ele>
        <time>2020-09-22T10:47:53.388Z</time>
      </trkpt>
      <trkpt lat="66.05799" lon="20.96195">
        <ele>60.202882</ele>
        <time>2020-09-22T10:47:56.395Z</time>
      </trkpt>
      <trkpt lat="66.05789" lon="20.96219">
        <ele>60.107164</ele>
        <time>2020-09-22T10:47:59.403Z</time>
      </trkpt>
      <trkpt lat="66.05782" lon="20.96237">
        <ele>60.034255</ele>
        <time>2020-09-22T10:48:01.393Z</time>
      </trkpt>
      <trkpt lat="66.05774" lon="20.96254">
        <ele>59.957542</ele>
        <time>2020-09-22T10:48:03.385Z</time>
      </trkpt>
      <trkpt lat="66.05767" lon="20.96272">
        <ele>59.882993</ele>
        <time>2020-09-22T10:48:05.398Z</time>
      </trkpt>
      <trkpt lat="66.05759" lon="20.96291">
        <ele>59.807944</ele>
        <time>2020-09-22T10:48:07.386Z</time>
      </trkpt>
      <trkpt lat="66.05752" lon="20.96308">
        <ele>59.735034</ele>
        <time>2020-09-22T10:48:09.386Z</time>
      </trkpt>
      <trkpt lat="66.05745" lon="20.96324">
        <ele>59.667266</ele>
        <time>2020-09-22T10:48:11.379Z</time>
      </trkpt>
      <trkpt lat="66.05736" lon="20.96346">
        <ele>60.478207</ele>
        <time>2020-09-22T10:48:14.397Z</time>
      </trkpt>
      <trkpt lat="66.05727" lon="20.96366">
        <ele>61.252624</ele>
        <time>2020-09-22T10:48:17.429Z</time>
      </trkpt>
      <trkpt lat="66.0572" lon="20.96385">
        <ele>61.983262</ele>
        <time>2020-09-22T10:48:20.414Z</time>
      </trkpt>
      <trkpt lat="66.05712" lon="20.96403">
        <ele>62.687317</ele>
        <time>2020-09-22T10:48:23.398Z</time>
      </trkpt>
      <trkpt lat="66.05704" lon="20.96421">
        <ele>63.40292</ele>
        <time>2020-09-22T10:48:26.383Z</time>
      </trkpt>
      <trkpt lat="66.05697" lon="20.96441">
        <ele>64.11867</ele>
        <time>2020-09-22T10:48:29.409Z</time>
      </trkpt>
      <trkpt lat="66.0569" lon="20.96458">
        <ele>64.79795</ele>
        <time>2020-09-22T10:48:32.389Z</time>
      </trkpt>
      <trkpt lat="66.05683" lon="20.96475">
        <ele>65.451566</ele>
        <time>2020-09-22T10:48:35.379Z</time>
      </trkpt>
      <trkpt lat="66.05676" lon="20.96492">
        <ele>66.087077</ele>
        <time>2020-09-22T10:48:38.422Z</time>
      </trkpt>
      <trkpt lat="66.05668" lon="20.9651">
        <ele>66.792036</ele>
        <time>2020-09-22T10:48:42.385Z</time>
      </trkpt>
      <trkpt lat="66.0566" lon="20.96528">
        <ele>67.510679</ele>
        <time>2020-09-22T10:48:47.393Z</time>
      </trkpt>
      <trkpt lat="66.05654" lon="20.96543">
        <ele>68.127537</ele>
        <time>2020-09-22T10:48:52.431Z</time>
      </trkpt>
      <trkpt lat="66.05647" lon="20.96561">
        <ele>68.782298</ele>
        <time>2020-09-22T10:48:57.399Z</time>
      </trkpt>
      <trkpt lat="66.0564" lon="20.96576">
        <ele>69.40343</ele>
        <time>2020-09-22T10:49:02.400Z</time>
      </trkpt>
      <trkpt lat="66.05632" lon="20.96593">
        <ele>70.076155</ele>
        <time>2020-09-22T10:49:08.385Z</time>
      </trkpt>
      <trkpt lat="66.05625" lon="20.96607">
        <ele>70.683509</ele>
        <time>2020-09-22T10:49:14.425Z</time>
      </trkpt>
      <trkpt lat="66.05619" lon="20.96622">
        <ele>71.286889</ele>
        <time>2020-09-22T10:49:19.389Z</time>
      </trkpt>
      <trkpt lat="66.05612" lon="20.96637">
        <ele>71.739387</ele>
        <time>2020-09-22T10:49:24.402Z</time>
      </trkpt>
      <trkpt lat="66.05605" lon="20.96654">
        <ele>71.904561</ele>
        <time>2020-09-22T10:49:29.383Z</time>
      </trkpt>
      <trkpt lat="66.05598" lon="20.96671">
        <ele>72.079745</ele>
        <time>2020-09-22T10:49:35.397Z</time>
      </trkpt>
      <trkpt lat="66.05592" lon="20.96687">
        <ele>72.240996</ele>
        <time>2020-09-22T10:49:40.403Z</time>
      </trkpt>
      <trkpt lat="66.05585" lon="20.96707">
        <ele>72.424481</ele>
        <time>2020-09-22T10:49:46.405Z</time>
      </trkpt>
      <trkpt lat="66.05578" lon="20.96724">
        <ele>72.600686</ele>
        <time>2020-09-22T10:49:51.376Z</time>
      </trkpt>
      <trkpt lat="66.0557" lon="20.9674">
        <ele>72.774035</ele>
        <time>2020-09-22T10:49:55.415Z</time>
      </trkpt>
      <trkpt lat="66.05563" lon="20.96755">
        <ele>72.933068</ele>
        <time>2020-09-22T10:49:59.386Z</time>
      </trkpt>
      <trkpt lat="66.05556" lon="20.96774">
        <ele>73.126536</ele>
        <time>2020-09-22T10:50:04.412Z</time>
      </trkpt>
      <trkpt lat="66.05549" lon="20.9679">
        <ele>73.290921</ele>
        <time>2020-09-22T10:50:08.398Z</time>
      </trkpt>
      <trkpt lat="66.05541" lon="20.96807">
        <ele>73.468855</ele>
        <time>2020-09-22T10:50:12.417Z</time>
      </trkpt>
      <trkpt lat="66.05534" lon="20.96827">
        <ele>73.66458</ele>
        <time>2020-09-22T10:50:16.386Z</time>
      </trkpt>
      <trkpt lat="66.05527" lon="20.96846">
        <ele>73.839774</ele>
        <time>2020-09-22T10:50:19.383Z</time>
      </trkpt>
      <trkpt lat="66.05521" lon="20.96862">
        <ele>74.006994</ele>
        <time>2020-09-22T10:50:22.412Z</time>
      </trkpt>
      <trkpt lat="66.05514" lon="20.9688">
        <ele>74.180442</ele>
        <time>2020-09-22T10:50:25.383Z</time>
      </trkpt>
      <trkpt lat="66.05506" lon="20.96898">
        <ele>74.369378</ele>
        <time>2020-09-22T10:50:28.378Z</time>
      </trkpt>
      <trkpt lat="66.05498" lon="20.9692">
        <ele>74.583019</ele>
        <time>2020-09-22T10:50:31.388Z</time>
      </trkpt>
      <trkpt lat="66.05489" lon="20.96943">
        <ele>74.804426</ele>
        <time>2020-09-22T10:50:34.409Z</time>
      </trkpt>
      <trkpt lat="66.05483" lon="20.96959">
        <ele>74.569238</ele>
        <time>2020-09-22T10:50:36.408Z</time>
      </trkpt>
      <trkpt lat="66.05474" lon="20.96983">
        <ele>74.087875</ele>
        <time>2020-09-22T10:50:39.402Z</time>
      </trkpt>
      <trkpt lat="66.05467" lon="20.96999">
        <ele>73.726877</ele>
        <time>2020-09-22T10:50:41.397Z</time>
      </trkpt>
      <trkpt lat="66.05459" lon="20.97017">
        <ele>73.327287</ele>
        <time>2020-09-22T10:50:43.397Z</time>
      </trkpt>
      <trkpt lat="66.0545" lon="20.97036">
        <ele>72.911076</ele>
        <time>2020-09-22T10:50:45.381Z</time>
      </trkpt>
      <trkpt lat="66.05441" lon="20.97053">
        <ele>72.498786</ele>
        <time>2020-09-22T10:50:47.390Z</time>
      </trkpt>
      <trkpt lat="66.05432" lon="20.97071">
        <ele>72.071168</ele>
        <time>2020-09-22T10:50:49.401Z</time>
      </trkpt>
      <trkpt lat="66.05423" lon="20.97087">
        <ele>71.661784</ele>
        <time>2020-09-22T10:50:51.385Z</time>
      </trkpt>
      <trkpt lat="66.05413" lon="20.97102">
        <ele>71.230855</ele>
        <time>2020-09-22T10:50:53.394Z</time>
      </trkpt>
      <trkpt lat="66.05403" lon="20.97116">
        <ele>70.810561</ele>
        <time>2020-09-22T10:50:55.398Z</time>
      </trkpt>
      <trkpt lat="66.05393" lon="20.97128">
        <ele>70.403357</ele>
        <time>2020-09-22T10:50:57.409Z</time>
      </trkpt>
      <trkpt lat="66.05383" lon="20.97139">
        <ele>70.007337</ele>
        <time>2020-09-22T10:50:59.380Z</time>
      </trkpt>
      <trkpt lat="66.05373" lon="20.97151">
        <ele>69.617222</ele>
        <time>2020-09-22T10:51:01.393Z</time>
      </trkpt>
      <trkpt lat="66.05364" lon="20.97162">
        <ele>69.22702</ele>
        <time>2020-09-22T10:51:03.396Z</time>
      </trkpt>
      <trkpt lat="66.05353" lon="20.97174">
        <ele>68.795301</ele>
        <time>2020-09-22T10:51:05.377Z</time>
      </trkpt>
      <trkpt lat="66.05342" lon="20.97187">
        <ele>68.342665</ele>
        <time>2020-09-22T10:51:07.397Z</time>
      </trkpt>
      <trkpt lat="66.05329" lon="20.97202">
        <ele>67.807009</ele>
        <time>2020-09-22T10:51:09.395Z</time>
      </trkpt>
      <trkpt lat="66.05315" lon="20.97217">
        <ele>67.218802</ele>
        <time>2020-09-22T10:51:11.424Z</time>
      </trkpt>
      <trkpt lat="66.05301" lon="20.97232">
        <ele>66.610391</ele>
        <time>2020-09-22T10:51:13.433Z</time>
      </trkpt>
      <trkpt lat="66.05287" lon="20.97247">
        <ele>66.001386</ele>
        <time>2020-09-22T10:51:15.400Z</time>
      </trkpt>
      <trkpt lat="66.05272" lon="20.97261">
        <ele>65.408604</ele>
        <time>2020-09-22T10:51:17.396Z</time>
      </trkpt>
      <trkpt lat="66.05259" lon="20.97275">
        <ele>64.821822</ele>
        <time>2020-09-22T10:51:19.391Z</time>
      </trkpt>
      <trkpt lat="66.05244" lon="20.97289">
        <ele>64.225428</ele>
        <time>2020-09-22T10:51:21.392Z</time>
      </trkpt>
      <trkpt lat="66.0523" lon="20.97304">
        <ele>63.612217</ele>
        <time>2020-09-22T10:51:23.389Z</time>
      </trkpt>
      <trkpt lat="66.05215" lon="20.97319">
        <ele>63.002572</ele>
        <time>2020-09-22T10:51:25.400Z</time>
      </trkpt>
      <trkpt lat="66.05201" lon="20.97334">
        <ele>62.400087</ele>
        <time>2020-09-22T10:51:27.386Z</time>
      </trkpt>
      <trkpt lat="66.05187" lon="20.97349">
        <ele>61.782034</ele>
        <time>2020-09-22T10:51:29.386Z</time>
      </trkpt>
      <trkpt lat="66.05172" lon="20.97365">
        <ele>61.174423</ele>
        <time>2020-09-22T10:51:31.412Z</time>
      </trkpt>
      <trkpt lat="66.05157" lon="20.9738">
        <ele>60.645268</ele>
        <time>2020-09-22T10:51:33.385Z</time>
      </trkpt>
      <trkpt lat="66.05143" lon="20.97395">
        <ele>60.114018</ele>
        <time>2020-09-22T10:51:35.395Z</time>
      </trkpt>
      <trkpt lat="66.05129" lon="20.97411">
        <ele>59.588728</ele>
        <time>2020-09-22T10:51:37.394Z</time>
      </trkpt>
      <trkpt lat="66.05114" lon="20.97426">
        <ele>59.067797</ele>
        <time>2020-09-22T10:51:39.410Z</time>
      </trkpt>
      <trkpt lat="66.051" lon="20.97441">
        <ele>58.537074</ele>
        <time>2020-09-22T10:51:41.408Z</time>
      </trkpt>
      <trkpt lat="66.05084" lon="20.97457">
        <ele>57.979495</ele>
        <time>2020-09-22T10:51:43.389Z</time>
      </trkpt>
      <trkpt lat="66.05069" lon="20.97473">
        <ele>57.426541</ele>
        <time>2020-09-22T10:51:45.397Z</time>
      </trkpt>
      <trkpt lat="66.05054" lon="20.97488">
        <ele>56.895817</ele>
        <time>2020-09-22T10:51:47.382Z</time>
      </trkpt>
      <trkpt lat="66.05041" lon="20.97502">
        <ele>56.394968</ele>
        <time>2020-09-22T10:51:49.382Z</time>
      </trkpt>
      <trkpt lat="66.05027" lon="20.97516">
        <ele>55.906584</ele>
        <time>2020-09-22T10:51:51.433Z</time>
      </trkpt>
      <trkpt lat="66.05014" lon="20.97531">
        <ele>55.419653</ele>
        <time>2020-09-22T10:51:53.382Z</time>
      </trkpt>
      <trkpt lat="66.05002" lon="20.97546">
        <ele>55.174226</ele>
        <time>2020-09-22T10:51:55.412Z</time>
      </trkpt>
      <trkpt lat="66.0499" lon="20.97563">
        <ele>55.082596</ele>
        <time>2020-09-22T10:51:57.380Z</time>
      </trkpt>
      <trkpt lat="66.04977" lon="20.97576">
        <ele>54.991857</ele>
        <time>2020-09-22T10:51:59.421Z</time>
      </trkpt>
      <trkpt lat="66.04965" lon="20.97588">
        <ele>54.904916</ele>
        <time>2020-09-22T10:52:01.401Z</time>
      </trkpt>
      <trkpt lat="66.04953" lon="20.97597">
        <ele>54.823561</ele>
        <time>2020-09-22T10:52:03.411Z</time>
      </trkpt>
      <trkpt lat="66.04942" lon="20.97608">
        <ele>54.744217</ele>
        <time>2020-09-22T10:52:05.394Z</time>
      </trkpt>
      <trkpt lat="66.04932" lon="20.97619">
        <ele>54.670618</ele>
        <time>2020-09-22T10:52:07.416Z</time>
      </trkpt>
      <trkpt lat="66.04922" lon="20.97628">
        <ele>54.601319</ele>
        <time>2020-09-22T10:52:09.410Z</time>
      </trkpt>
      <trkpt lat="66.04913" lon="20.97638">
        <ele>54.533246</ele>
        <time>2020-09-22T10:52:11.423Z</time>
      </trkpt>
      <trkpt lat="66.04904" lon="20.97649">
        <ele>54.464849</ele>
        <time>2020-09-22T10:52:13.395Z</time>
      </trkpt>
      <trkpt lat="66.04894" lon="20.9766">
        <ele>54.395788</ele>
        <time>2020-09-22T10:52:15.405Z</time>
      </trkpt>
      <trkpt lat="66.04885" lon="20.97671">
        <ele>54.32419</ele>
        <time>2020-09-22T10:52:17.429Z</time>
      </trkpt>
      <trkpt lat="66.04875" lon="20.97682">
        <ele>54.255719</ele>
        <time>2020-09-22T10:52:19.434Z</time>
      </trkpt>
      <trkpt lat="66.04866" lon="20.97694">
        <ele>54.187475</ele>
        <time>2020-09-22T10:52:21.404Z</time>
      </trkpt>
      <trkpt lat="66.04857" lon="20.97705">
        <ele>54.119355</ele>
        <time>2020-09-22T10:52:23.382Z</time>
      </trkpt>
      <trkpt lat="66.04848" lon="20.97717">
        <ele>54.051509</ele>
        <time>2020-09-22T10:52:25.403Z</time>
      </trkpt>
      <trkpt lat="66.04839" lon="20.97731">
        <ele>53.972416</ele>
        <time>2020-09-22T10:52:27.409Z</time>
      </trkpt>
      <trkpt lat="66.04829" lon="20.97745">
        <ele>53.889792</ele>
        <time>2020-09-22T10:52:29.399Z</time>
      </trkpt>
      <trkpt lat="66.04819" lon="20.9776">
        <ele>53.802754</ele>
        <time>2020-09-22T10:52:31.392Z</time>
      </trkpt>
      <trkpt lat="66.04809" lon="20.97776">
        <ele>53.715554</ele>
        <time>2020-09-22T10:52:33.411Z</time>
      </trkpt>
      <trkpt lat="66.04799" lon="20.97792">
        <ele>53.626913</ele>
        <time>2020-09-22T10:52:35.387Z</time>
      </trkpt>
      <trkpt lat="66.04789" lon="20.97808">
        <ele>53.538391</ele>
        <time>2020-09-22T10:52:37.407Z</time>
      </trkpt>
      <trkpt lat="66.04779" lon="20.97824">
        <ele>53.4507</ele>
        <time>2020-09-22T10:52:39.409Z</time>
      </trkpt>
      <trkpt lat="66.0477" lon="20.9784">
        <ele>53.363795</ele>
        <time>2020-09-22T10:52:41.392Z</time>
      </trkpt>
      <trkpt lat="66.0476" lon="20.97856">
        <ele>53.27594</ele>
        <time>2020-09-22T10:52:43.391Z</time>
      </trkpt>
      <trkpt lat="66.0475" lon="20.97872">
        <ele>53.187298</ele>
        <time>2020-09-22T10:52:45.409Z</time>
      </trkpt>
      <trkpt lat="66.0474" lon="20.97888">
        <ele>53.09931</ele>
        <time>2020-09-22T10:52:47.389Z</time>
      </trkpt>
      <trkpt lat="66.0473" lon="20.97904">
        <ele>53.011783</ele>
        <time>2020-09-22T10:52:49.418Z</time>
      </trkpt>
      <trkpt lat="66.0472" lon="20.9792">
        <ele>52.923632</ele>
        <time>2020-09-22T10:52:51.395Z</time>
      </trkpt>
      <trkpt lat="66.0471" lon="20.97934">
        <ele>52.836588</ele>
        <time>2020-09-22T10:52:53.413Z</time>
      </trkpt>
      <trkpt lat="66.047" lon="20.97948">
        <ele>52.751831</ele>
        <time>2020-09-22T10:52:55.381Z</time>
      </trkpt>
      <trkpt lat="66.0469" lon="20.9796">
        <ele>52.694995</ele>
        <time>2020-09-22T10:52:57.420Z</time>
      </trkpt>
      <trkpt lat="66.04681" lon="20.97973">
        <ele>52.687773</ele>
        <time>2020-09-22T10:52:59.405Z</time>
      </trkpt>
      <trkpt lat="66.04671" lon="20.97986">
        <ele>52.680675</ele>
        <time>2020-09-22T10:53:01.433Z</time>
      </trkpt>
      <trkpt lat="66.04662" lon="20.97997">
        <ele>52.673891</ele>
        <time>2020-09-22T10:53:03.404Z</time>
      </trkpt>
      <trkpt lat="66.04653" lon="20.98008">
        <ele>52.667154</ele>
        <time>2020-09-22T10:53:05.381Z</time>
      </trkpt>
      <trkpt lat="66.04644" lon="20.9802">
        <ele>52.660261</ele>
        <time>2020-09-22T10:53:07.416Z</time>
      </trkpt>
      <trkpt lat="66.04635" lon="20.98032">
        <ele>52.653286</ele>
        <time>2020-09-22T10:53:09.389Z</time>
      </trkpt>
      <trkpt lat="66.04626" lon="20.98043">
        <ele>52.646514</ele>
        <time>2020-09-22T10:53:11.423Z</time>
      </trkpt>
      <trkpt lat="66.04617" lon="20.98054">
        <ele>52.639915</ele>
        <time>2020-09-22T10:53:13.414Z</time>
      </trkpt>
      <trkpt lat="66.04608" lon="20.98066">
        <ele>52.633544</ele>
        <time>2020-09-22T10:53:15.404Z</time>
      </trkpt>
      <trkpt lat="66.04599" lon="20.98075">
        <ele>52.626842</ele>
        <time>2020-09-22T10:53:17.391Z</time>
      </trkpt>
      <trkpt lat="66.0459" lon="20.98086">
        <ele>52.62002</ele>
        <time>2020-09-22T10:53:19.411Z</time>
      </trkpt>
      <trkpt lat="66.0458" lon="20.98097">
        <ele>52.613045</ele>
        <time>2020-09-22T10:53:21.408Z</time>
      </trkpt>
      <trkpt lat="66.04571" lon="20.98109">
        <ele>52.605913</ele>
        <time>2020-09-22T10:53:23.391Z</time>
      </trkpt>
      <trkpt lat="66.04561" lon="20.98122">
        <ele>52.598553</ele>
        <time>2020-09-22T10:53:25.406Z</time>
      </trkpt>
      <trkpt lat="66.04552" lon="20.98135">
        <ele>52.591312</ele>
        <time>2020-09-22T10:53:27.385Z</time>
      </trkpt>
      <trkpt lat="66.04542" lon="20.98146">
        <ele>52.584157</ele>
        <time>2020-09-22T10:53:29.417Z</time>
      </trkpt>
      <trkpt lat="66.04533" lon="20.98158">
        <ele>52.590682</ele>
        <time>2020-09-22T10:53:31.393Z</time>
      </trkpt>
      <trkpt lat="66.04524" lon="20.9817">
        <ele>52.847359</ele>
        <time>2020-09-22T10:53:33.417Z</time>
      </trkpt>
      <trkpt lat="66.04515" lon="20.98181">
        <ele>53.086353</ele>
        <time>2020-09-22T10:53:35.389Z</time>
      </trkpt>
      <trkpt lat="66.04507" lon="20.98191">
        <ele>53.321224</ele>
        <time>2020-09-22T10:53:37.387Z</time>
      </trkpt>
      <trkpt lat="66.04499" lon="20.98201">
        <ele>53.548433</ele>
        <time>2020-09-22T10:53:39.402Z</time>
      </trkpt>
      <trkpt lat="66.04488" lon="20.98215">
        <ele>53.869331</ele>
        <time>2020-09-22T10:53:42.387Z</time>
      </trkpt>
      <trkpt lat="66.04477" lon="20.98229">
        <ele>54.173184</ele>
        <time>2020-09-22T10:53:45.393Z</time>
      </trkpt>
      <trkpt lat="66.04467" lon="20.98241">
        <ele>54.452977</ele>
        <time>2020-09-22T10:53:48.394Z</time>
      </trkpt>
      <trkpt lat="66.04457" lon="20.98253">
        <ele>54.724045</ele>
        <time>2020-09-22T10:53:51.392Z</time>
      </trkpt>
      <trkpt lat="66.04448" lon="20.98264">
        <ele>54.98877</ele>
        <time>2020-09-22T10:53:54.396Z</time>
      </trkpt>
      <trkpt lat="66.04439" lon="20.98275">
        <ele>55.238115</ele>
        <time>2020-09-22T10:53:57.415Z</time>
      </trkpt>
      <trkpt lat="66.04431" lon="20.98285">
        <ele>55.472992</ele>
        <time>2020-09-22T10:54:00.402Z</time>
      </trkpt>
      <trkpt lat="66.04423" lon="20.98296">
        <ele>55.701884</ele>
        <time>2020-09-22T10:54:03.387Z</time>
      </trkpt>
      <trkpt lat="66.04413" lon="20.98309">
        <ele>55.984598</ele>
        <time>2020-09-22T10:54:07.378Z</time>
      </trkpt>
      <trkpt lat="66.04404" lon="20.9832">
        <ele>56.233499</ele>
        <time>2020-09-22T10:54:11.409Z</time>
      </trkpt>
      <trkpt lat="66.04396" lon="20.98332">
        <ele>56.467066</ele>
        <time>2020-09-22T10:54:15.411Z</time>
      </trkpt>
      <trkpt lat="66.04388" lon="20.98343">
        <ele>56.699163</ele>
        <time>2020-09-22T10:54:19.392Z</time>
      </trkpt>
      <trkpt lat="66.04379" lon="20.98355">
        <ele>56.960786</ele>
        <time>2020-09-22T10:54:23.392Z</time>
      </trkpt>
      <trkpt lat="66.0437" lon="20.98368">
        <ele>57.189852</ele>
        <time>2020-09-22T10:54:27.396Z</time>
      </trkpt>
      <trkpt lat="66.04359" lon="20.98381">
        <ele>57.382749</ele>
        <time>2020-09-22T10:54:31.398Z</time>
      </trkpt>
      <trkpt lat="66.04351" lon="20.98393">
        <ele>57.543505</ele>
        <time>2020-09-22T10:54:34.412Z</time>
      </trkpt>
      <trkpt lat="66.04342" lon="20.98406">
        <ele>57.721699</ele>
        <time>2020-09-22T10:54:37.422Z</time>
      </trkpt>
      <trkpt lat="66.04332" lon="20.9842">
        <ele>57.90587</ele>
        <time>2020-09-22T10:54:40.395Z</time>
      </trkpt>
      <trkpt lat="66.04322" lon="20.98434">
        <ele>58.096267</ele>
        <time>2020-09-22T10:54:43.396Z</time>
      </trkpt>
      <trkpt lat="66.04312" lon="20.98449">
        <ele>58.289118</ele>
        <time>2020-09-22T10:54:46.389Z</time>
      </trkpt>
      <trkpt lat="66.04302" lon="20.98462">
        <ele>58.479735</ele>
        <time>2020-09-22T10:54:49.416Z</time>
      </trkpt>
      <trkpt lat="66.04291" lon="20.98476">
        <ele>58.675569</ele>
        <time>2020-09-22T10:54:52.388Z</time>
      </trkpt>
      <trkpt lat="66.04281" lon="20.9849">
        <ele>58.867822</ele>
        <time>2020-09-22T10:54:55.394Z</time>
      </trkpt>
      <trkpt lat="66.04271" lon="20.98504">
        <ele>59.059988</ele>
        <time>2020-09-22T10:54:58.413Z</time>
      </trkpt>
      <trkpt lat="66.04261" lon="20.98518">
        <ele>59.24787</ele>
        <time>2020-09-22T10:55:01.393Z</time>
      </trkpt>
      <trkpt lat="66.04252" lon="20.98532">
        <ele>59.433659</ele>
        <time>2020-09-22T10:55:04.381Z</time>
      </trkpt>
      <trkpt lat="66.04243" lon="20.98545">
        <ele>59.611</ele>
        <time>2020-09-22T10:55:07.411Z</time>
      </trkpt>
      <trkpt lat="66.04234" lon="20.98558">
        <ele>59.773175</ele>
        <time>2020-09-22T10:55:10.396Z</time>
      </trkpt>
      <trkpt lat="66.04226" lon="20.98569">
        <ele>59.922691</ele>
        <time>2020-09-22T10:55:13.384Z</time>
      </trkpt>
      <trkpt lat="66.04219" lon="20.9858">
        <ele>60.071201</ele>
        <time>2020-09-22T10:55:16.383Z</time>
      </trkpt>
      <trkpt lat="66.04208" lon="20.98594">
        <ele>60.451076</ele>
        <time>2020-09-22T10:55:20.418Z</time>
      </trkpt>
      <trkpt lat="66.04199" lon="20.98606">
        <ele>60.828321</ele>
        <time>2020-09-22T10:55:24.392Z</time>
      </trkpt>
      <trkpt lat="66.04189" lon="20.98619">
        <ele>61.217583</ele>
        <time>2020-09-22T10:55:28.414Z</time>
      </trkpt>
      <trkpt lat="66.04178" lon="20.98633">
        <ele>61.633926</ele>
        <time>2020-09-22T10:55:32.428Z</time>
      </trkpt>
      <trkpt lat="66.0417" lon="20.98645">
        <ele>61.973399</ele>
        <time>2020-09-22T10:55:35.398Z</time>
      </trkpt>
      <trkpt lat="66.04161" lon="20.98657">
        <ele>62.316825</ele>
        <time>2020-09-22T10:55:38.420Z</time>
      </trkpt>
      <trkpt lat="66.04153" lon="20.98668">
        <ele>62.642416</ele>
        <time>2020-09-22T10:55:41.408Z</time>
      </trkpt>
      <trkpt lat="66.04145" lon="20.9868">
        <ele>62.956101</ele>
        <time>2020-09-22T10:55:44.414Z</time>
      </trkpt>
      <trkpt lat="66.04137" lon="20.98692">
        <ele>63.282226</ele>
        <time>2020-09-22T10:55:47.428Z</time>
      </trkpt>
      <trkpt lat="66.04127" lon="20.98707">
        <ele>63.690379</ele>
        <time>2020-09-22T10:55:51.416Z</time>
      </trkpt>
      <trkpt lat="66.04117" lon="20.98722">
        <ele>64.08134</ele>
        <time>2020-09-22T10:55:55.395Z</time>
      </trkpt>
      <trkpt lat="66.04109" lon="20.98736">
        <ele>64.437028</ele>
        <time>2020-09-22T10:55:59.406Z</time>
      </trkpt>
      <trkpt lat="66.041" lon="20.98747">
        <ele>64.77978</ele>
        <time>2020-09-22T10:56:03.397Z</time>
      </trkpt>
      <trkpt lat="66.04092" lon="20.98758">
        <ele>65.100983</ele>
        <time>2020-09-22T10:56:07.390Z</time>
      </trkpt>
      <trkpt lat="66.04082" lon="20.98772">
        <ele>65.47938</ele>
        <time>2020-09-22T10:56:12.417Z</time>
      </trkpt>
      <trkpt lat="66.04074" lon="20.98786">
        <ele>65.842395</ele>
        <time>2020-09-22T10:56:17.392Z</time>
      </trkpt>
      <trkpt lat="66.04065" lon="20.98798">
        <ele>66.18184</ele>
        <time>2020-09-22T10:56:21.403Z</time>
      </trkpt>
      <trkpt lat="66.04054" lon="20.9881">
        <ele>66.475131</ele>
        <time>2020-09-22T10:56:25.397Z</time>
      </trkpt>
      <trkpt lat="66.04044" lon="20.98821">
        <ele>66.720718</ele>
        <time>2020-09-22T10:56:29.391Z</time>
      </trkpt>
      <trkpt lat="66.04035" lon="20.98829">
        <ele>66.909772</ele>
        <time>2020-09-22T10:56:32.402Z</time>
      </trkpt>
      <trkpt lat="66.04027" lon="20.98839">
        <ele>67.100051</ele>
        <time>2020-09-22T10:56:35.403Z</time>
      </trkpt>
      <trkpt lat="66.04019" lon="20.98848">
        <ele>67.289097</ele>
        <time>2020-09-22T10:56:38.394Z</time>
      </trkpt>
      <trkpt lat="66.04008" lon="20.98858">
        <ele>67.525308</ele>
        <time>2020-09-22T10:56:42.409Z</time>
      </trkpt>
      <trkpt lat="66.03997" lon="20.98871">
        <ele>67.779554</ele>
        <time>2020-09-22T10:56:46.402Z</time>
      </trkpt>
      <trkpt lat="66.03989" lon="20.9888">
        <ele>67.974725</ele>
        <time>2020-09-22T10:56:49.408Z</time>
      </trkpt>
      <trkpt lat="66.03978" lon="20.98889">
        <ele>68.210548</ele>
        <time>2020-09-22T10:56:53.391Z</time>
      </trkpt>
      <trkpt lat="66.03967" lon="20.98899">
        <ele>68.45936</ele>
        <time>2020-09-22T10:56:57.392Z</time>
      </trkpt>
      <trkpt lat="66.03958" lon="20.98906">
        <ele>68.659671</ele>
        <time>2020-09-22T10:57:00.392Z</time>
      </trkpt>
      <trkpt lat="66.03949" lon="20.98915">
        <ele>68.868089</ele>
        <time>2020-09-22T10:57:03.398Z</time>
      </trkpt>
      <trkpt lat="66.03939" lon="20.98924">
        <ele>69.084147</ele>
        <time>2020-09-22T10:57:06.422Z</time>
      </trkpt>
      <trkpt lat="66.0393" lon="20.98933">
        <ele>69.295819</ele>
        <time>2020-09-22T10:57:09.380Z</time>
      </trkpt>
      <trkpt lat="66.03919" lon="20.98943">
        <ele>69.525246</ele>
        <time>2020-09-22T10:57:12.412Z</time>
      </trkpt>
      <trkpt lat="66.03908" lon="20.98955">
        <ele>69.784405</ele>
        <time>2020-09-22T10:57:15.399Z</time>
      </trkpt>
      <trkpt lat="66.03897" lon="20.98966">
        <ele>70.026473</ele>
        <time>2020-09-22T10:57:18.404Z</time>
      </trkpt>
      <trkpt lat="66.03887" lon="20.98975">
        <ele>70.297274</ele>
        <time>2020-09-22T10:57:21.403Z</time>
      </trkpt>
      <trkpt lat="66.03877" lon="20.98985">
        <ele>70.600948</ele>
        <time>2020-09-22T10:57:24.398Z</time>
      </trkpt>
      <trkpt lat="66.03866" lon="20.98996">
        <ele>70.907426</ele>
        <time>2020-09-22T10:57:27.429Z</time>
      </trkpt>
      <trkpt lat="66.03855" lon="20.99006">
        <ele>71.216874</ele>
        <time>2020-09-22T10:57:30.416Z</time>
      </trkpt>
      <trkpt lat="66.03844" lon="20.99015">
        <ele>71.528366</ele>
        <time>2020-09-22T10:57:33.407Z</time>
      </trkpt>
      <trkpt lat="66.03834" lon="20.99023">
        <ele>71.820176</ele>
        <time>2020-09-22T10:57:36.389Z</time>
      </trkpt>
      <trkpt lat="66.03823" lon="20.99033">
        <ele>72.132027</ele>
        <time>2020-09-22T10:57:39.404Z</time>
      </trkpt>
      <trkpt lat="66.03812" lon="20.99041">
        <ele>72.426716</ele>
        <time>2020-09-22T10:57:42.384Z</time>
      </trkpt>
      <trkpt lat="66.03803" lon="20.99048">
        <ele>72.702568</ele>
        <time>2020-09-22T10:57:45.395Z</time>
      </trkpt>
      <trkpt lat="66.03792" lon="20.99055">
        <ele>73.004199</ele>
        <time>2020-09-22T10:57:48.442Z</time>
      </trkpt>
      <trkpt lat="66.0378" lon="20.99062">
        <ele>73.324233</ele>
        <time>2020-09-22T10:57:51.387Z</time>
      </trkpt>
      <trkpt lat="66.03767" lon="20.99072">
        <ele>73.680953</ele>
        <time>2020-09-22T10:57:54.394Z</time>
      </trkpt>
      <trkpt lat="66.03754" lon="20.99079">
        <ele>74.033197</ele>
        <time>2020-09-22T10:57:57.443Z</time>
      </trkpt>
      <trkpt lat="66.03745" lon="20.99084">
        <ele>74.278667</ele>
        <time>2020-09-22T10:57:59.390Z</time>
      </trkpt>
      <trkpt lat="66.03736" lon="20.99088">
        <ele>74.535489</ele>
        <time>2020-09-22T10:58:01.398Z</time>
      </trkpt>
      <trkpt lat="66.03726" lon="20.99094">
        <ele>74.79942</ele>
        <time>2020-09-22T10:58:03.384Z</time>
      </trkpt>
      <trkpt lat="66.03717" lon="20.99099">
        <ele>74.72049</ele>
        <time>2020-09-22T10:58:05.383Z</time>
      </trkpt>
      <trkpt lat="66.03707" lon="20.99104">
        <ele>74.449441</ele>
        <time>2020-09-22T10:58:07.398Z</time>
      </trkpt>
      <trkpt lat="66.03697" lon="20.99108">
        <ele>74.156121</ele>
        <time>2020-09-22T10:58:09.416Z</time>
      </trkpt>
      <trkpt lat="66.03685" lon="20.99114">
        <ele>73.839764</ele>
        <time>2020-09-22T10:58:11.383Z</time>
      </trkpt>
      <trkpt lat="66.03673" lon="20.99118">
        <ele>73.511685</ele>
        <time>2020-09-22T10:58:13.412Z</time>
      </trkpt>
      <trkpt lat="66.03661" lon="20.99121">
        <ele>73.165351</ele>
        <time>2020-09-22T10:58:15.413Z</time>
      </trkpt>
      <trkpt lat="66.03648" lon="20.99124">
        <ele>72.809049</ele>
        <time>2020-09-22T10:58:17.379Z</time>
      </trkpt>
      <trkpt lat="66.03634" lon="20.99128">
        <ele>72.430151</ele>
        <time>2020-09-22T10:58:19.400Z</time>
      </trkpt>
      <trkpt lat="66.03618" lon="20.99131">
        <ele>72.008181</ele>
        <time>2020-09-22T10:58:21.404Z</time>
      </trkpt>
      <trkpt lat="66.03602" lon="20.99134">
        <ele>71.545552</ele>
        <time>2020-09-22T10:58:23.382Z</time>
      </trkpt>
      <trkpt lat="66.03592" lon="20.99136">
        <ele>71.296101</ele>
        <time>2020-09-22T10:58:24.394Z</time>
      </trkpt>
      <trkpt lat="66.03583" lon="20.99138">
        <ele>71.049467</ele>
        <time>2020-09-22T10:58:25.405Z</time>
      </trkpt>
      <trkpt lat="66.03574" lon="20.9914">
        <ele>70.802833</ele>
        <time>2020-09-22T10:58:26.414Z</time>
      </trkpt>
      <trkpt lat="66.03558" lon="20.99143">
        <ele>70.347935</ele>
        <time>2020-09-22T10:58:28.429Z</time>
      </trkpt>
      <trkpt lat="66.03543" lon="20.99147">
        <ele>70.036053</ele>
        <time>2020-09-22T10:58:30.378Z</time>
      </trkpt>
      <trkpt lat="66.03531" lon="20.99151">
        <ele>70.665619</ele>
        <time>2020-09-22T10:58:32.385Z</time>
      </trkpt>
      <trkpt lat="66.03521" lon="20.99154">
        <ele>71.176103</ele>
        <time>2020-09-22T10:58:34.386Z</time>
      </trkpt>
      <trkpt lat="66.03509" lon="20.99158">
        <ele>71.800369</ele>
        <time>2020-09-22T10:58:37.391Z</time>
      </trkpt>
      <trkpt lat="66.03499" lon="20.99161">
        <ele>72.331245</ele>
        <time>2020-09-22T10:58:40.388Z</time>
      </trkpt>
      <trkpt lat="66.03488" lon="20.99164">
        <ele>72.873984</ele>
        <time>2020-09-22T10:58:44.380Z</time>
      </trkpt>
      <trkpt lat="66.03477" lon="20.99167">
        <ele>73.419761</ele>
        <time>2020-09-22T10:58:49.382Z</time>
      </trkpt>
      <trkpt lat="66.03467" lon="20.99172">
        <ele>73.931951</ele>
        <time>2020-09-22T10:58:54.389Z</time>
      </trkpt>
      <trkpt lat="66.03457" lon="20.99177">
        <ele>74.478994</ele>
        <time>2020-09-22T10:58:59.391Z</time>
      </trkpt>
      <trkpt lat="66.03446" lon="20.99181">
        <ele>75.034924</ele>
        <time>2020-09-22T10:59:04.408Z</time>
      </trkpt>
      <trkpt lat="66.03436" lon="20.99186">
        <ele>75.546318</ele>
        <time>2020-09-22T10:59:09.385Z</time>
      </trkpt>
      <trkpt lat="66.03425" lon="20.99193">
        <ele>76.107872</ele>
        <time>2020-09-22T10:59:14.405Z</time>
      </trkpt>
      <trkpt lat="66.03416" lon="20.992">
        <ele>76.612878</ele>
        <time>2020-09-22T10:59:19.393Z</time>
      </trkpt>
      <trkpt lat="66.03406" lon="20.99209">
        <ele>77.162766</ele>
        <time>2020-09-22T10:59:24.399Z</time>
      </trkpt>
      <trkpt lat="66.03397" lon="20.99216">
        <ele>77.622845</ele>
        <time>2020-09-22T10:59:28.393Z</time>
      </trkpt>
      <trkpt lat="66.03388" lon="20.9922">
        <ele>78.079989</ele>
        <time>2020-09-22T10:59:32.407Z</time>
      </trkpt>
      <trkpt lat="66.03377" lon="20.99228">
        <ele>78.647788</ele>
        <time>2020-09-22T10:59:37.395Z</time>
      </trkpt>
      <trkpt lat="66.03368" lon="20.99238">
        <ele>79.069359</ele>
        <time>2020-09-22T10:59:42.415Z</time>
      </trkpt>
      <trkpt lat="66.03359" lon="20.99247">
        <ele>78.795392</ele>
        <time>2020-09-22T10:59:46.395Z</time>
      </trkpt>
      <trkpt lat="66.0335" lon="20.99258">
        <ele>78.499522</ele>
        <time>2020-09-22T10:59:50.386Z</time>
      </trkpt>
      <trkpt lat="66.0334" lon="20.99269">
        <ele>78.172745</ele>
        <time>2020-09-22T10:59:54.413Z</time>
      </trkpt>
      <trkpt lat="66.0333" lon="20.99281">
        <ele>77.853933</ele>
        <time>2020-09-22T10:59:58.379Z</time>
      </trkpt>
      <trkpt lat="66.03321" lon="20.99295">
        <ele>77.548816</ele>
        <time>2020-09-22T11:00:02.407Z</time>
      </trkpt>
      <trkpt lat="66.03313" lon="20.99308">
        <ele>77.24866</ele>
        <time>2020-09-22T11:00:06.404Z</time>
      </trkpt>
      <trkpt lat="66.03303" lon="20.99321">
        <ele>76.943151</ele>
        <time>2020-09-22T11:00:10.396Z</time>
      </trkpt>
      <trkpt lat="66.03295" lon="20.99334">
        <ele>76.641756</ele>
        <time>2020-09-22T11:00:14.438Z</time>
      </trkpt>
      <trkpt lat="66.03287" lon="20.99349">
        <ele>76.360231</ele>
        <time>2020-09-22T11:00:18.395Z</time>
      </trkpt>
      <trkpt lat="66.03278" lon="20.99364">
        <ele>76.047419</ele>
        <time>2020-09-22T11:00:22.430Z</time>
      </trkpt>
      <trkpt lat="66.03269" lon="20.99379">
        <ele>75.726772</ele>
        <time>2020-09-22T11:00:26.402Z</time>
      </trkpt>
      <trkpt lat="66.0326" lon="20.99395">
        <ele>75.399665</ele>
        <time>2020-09-22T11:00:30.380Z</time>
      </trkpt>
      <trkpt lat="66.03251" lon="20.99413">
        <ele>75.054399</ele>
        <time>2020-09-22T11:00:34.390Z</time>
      </trkpt>
      <trkpt lat="66.03241" lon="20.99431">
        <ele>74.704492</ele>
        <time>2020-09-22T11:00:38.397Z</time>
      </trkpt>
      <trkpt lat="66.03234" lon="20.99449">
        <ele>74.406776</ele>
        <time>2020-09-22T11:00:41.396Z</time>
      </trkpt>
      <trkpt lat="66.03227" lon="20.99468">
        <ele>74.102454</ele>
        <time>2020-09-22T11:00:44.417Z</time>
      </trkpt>
      <trkpt lat="66.03219" lon="20.99487">
        <ele>73.831948</ele>
        <time>2020-09-22T11:00:47.376Z</time>
      </trkpt>
      <trkpt lat="66.0321" lon="20.99507">
        <ele>73.675191</ele>
        <time>2020-09-22T11:00:50.382Z</time>
      </trkpt>
      <trkpt lat="66.03201" lon="20.99529">
        <ele>73.510528</ele>
        <time>2020-09-22T11:00:53.400Z</time>
      </trkpt>
      <trkpt lat="66.03191" lon="20.9955">
        <ele>73.350079</ele>
        <time>2020-09-22T11:00:56.415Z</time>
      </trkpt>
      <trkpt lat="66.03184" lon="20.99566">
        <ele>73.229813</ele>
        <time>2020-09-22T11:00:58.390Z</time>
      </trkpt>
      <trkpt lat="66.03177" lon="20.99584">
        <ele>73.098556</ele>
        <time>2020-09-22T11:01:00.428Z</time>
      </trkpt>
      <trkpt lat="66.03169" lon="20.99604">
        <ele>72.955552</ele>
        <time>2020-09-22T11:01:02.391Z</time>
      </trkpt>
      <trkpt lat="66.03161" lon="20.99626">
        <ele>72.807019</ele>
        <time>2020-09-22T11:01:04.414Z</time>
      </trkpt>
      <trkpt lat="66.03153" lon="20.9965">
        <ele>72.646259</ele>
        <time>2020-09-22T11:01:06.400Z</time>
      </trkpt>
      <trkpt lat="66.03145" lon="20.99675">
        <ele>72.482662</ele>
        <time>2020-09-22T11:01:08.382Z</time>
      </trkpt>
      <trkpt lat="66.03138" lon="20.99701">
        <ele>72.319377</ele>
        <time>2020-09-22T11:01:10.394Z</time>
      </trkpt>
      <trkpt lat="66.03132" lon="20.99728">
        <ele>72.162205</ele>
        <time>2020-09-22T11:01:12.409Z</time>
      </trkpt>
      <trkpt lat="66.03126" lon="20.99752">
        <ele>72.016266</ele>
        <time>2020-09-22T11:01:14.395Z</time>
      </trkpt>
      <trkpt lat="66.0312" lon="20.99774">
        <ele>71.880853</ele>
        <time>2020-09-22T11:01:16.378Z</time>
      </trkpt>
      <trkpt lat="66.03115" lon="20.99795">
        <ele>71.755964</ele>
        <time>2020-09-22T11:01:18.403Z</time>
      </trkpt>
      <trkpt lat="66.0311" lon="20.99815">
        <ele>71.634354</ele>
        <time>2020-09-22T11:01:20.413Z</time>
      </trkpt>
      <trkpt lat="66.03104" lon="20.99835">
        <ele>71.64627</ele>
        <time>2020-09-22T11:01:22.405Z</time>
      </trkpt>
      <trkpt lat="66.03098" lon="20.99864">
        <ele>71.764951</ele>
        <time>2020-09-22T11:01:25.382Z</time>
      </trkpt>
      <trkpt lat="66.03091" lon="20.99891">
        <ele>71.878884</ele>
        <time>2020-09-22T11:01:28.395Z</time>
      </trkpt>
      <trkpt lat="66.03085" lon="20.99919">
        <ele>71.993705</ele>
        <time>2020-09-22T11:01:31.384Z</time>
      </trkpt>
      <trkpt lat="66.03078" lon="20.99948">
        <ele>72.112077</ele>
        <time>2020-09-22T11:01:34.447Z</time>
      </trkpt>
      <trkpt lat="66.03073" lon="20.99967">
        <ele>72.194715</ele>
        <time>2020-09-22T11:01:36.411Z</time>
      </trkpt>
      <trkpt lat="66.03069" lon="20.99987">
        <ele>72.277124</ele>
        <time>2020-09-22T11:01:38.377Z</time>
      </trkpt>
      <trkpt lat="66.03064" lon="21.00008">
        <ele>72.363461</ele>
        <time>2020-09-22T11:01:40.381Z</time>
      </trkpt>
      <trkpt lat="66.03059" lon="21.00028">
        <ele>72.448726</ele>
        <time>2020-09-22T11:01:42.404Z</time>
      </trkpt>
      <trkpt lat="66.03053" lon="21.0005">
        <ele>72.539797</ele>
        <time>2020-09-22T11:01:44.408Z</time>
      </trkpt>
      <trkpt lat="66.03048" lon="21.00071">
        <ele>72.628132</ele>
        <time>2020-09-22T11:01:46.416Z</time>
      </trkpt>
      <trkpt lat="66.03042" lon="21.00091">
        <ele>72.714961</ele>
        <time>2020-09-22T11:01:48.409Z</time>
      </trkpt>
      <trkpt lat="66.03037" lon="21.00111">
        <ele>72.804264</ele>
        <time>2020-09-22T11:01:50.411Z</time>
      </trkpt>
      <trkpt lat="66.03032" lon="21.00132">
        <ele>72.889832</ele>
        <time>2020-09-22T11:01:52.401Z</time>
      </trkpt>
      <trkpt lat="66.03027" lon="21.00151">
        <ele>72.97005</ele>
        <time>2020-09-22T11:01:54.431Z</time>
      </trkpt>
      <trkpt lat="66.03022" lon="21.0017">
        <ele>73.050256</ele>
        <time>2020-09-22T11:01:56.415Z</time>
      </trkpt>
      <trkpt lat="66.03015" lon="21.00197">
        <ele>73.167132</ele>
        <time>2020-09-22T11:01:59.423Z</time>
      </trkpt>
      <trkpt lat="66.0301" lon="21.00215">
        <ele>73.095209</ele>
        <time>2020-09-22T11:02:01.392Z</time>
      </trkpt>
      <trkpt lat="66.03004" lon="21.00235">
        <ele>72.988399</ele>
        <time>2020-09-22T11:02:03.419Z</time>
      </trkpt>
      <trkpt lat="66.02999" lon="21.00254">
        <ele>72.881354</ele>
        <time>2020-09-22T11:02:05.403Z</time>
      </trkpt>
      <trkpt lat="66.02994" lon="21.00274">
        <ele>72.772175</ele>
        <time>2020-09-22T11:02:07.396Z</time>
      </trkpt>
      <trkpt lat="66.02989" lon="21.00294">
        <ele>72.664432</ele>
        <time>2020-09-22T11:02:09.385Z</time>
      </trkpt>
      <trkpt lat="66.02983" lon="21.00314">
        <ele>72.554473</ele>
        <time>2020-09-22T11:02:11.439Z</time>
      </trkpt>
      <trkpt lat="66.02976" lon="21.00333">
        <ele>72.442236</ele>
        <time>2020-09-22T11:02:13.383Z</time>
      </trkpt>
      <trkpt lat="66.0297" lon="21.00352">
        <ele>72.327114</ele>
        <time>2020-09-22T11:02:15.400Z</time>
      </trkpt>
      <trkpt lat="66.02963" lon="21.00371">
        <ele>72.208806</ele>
        <time>2020-09-22T11:02:17.408Z</time>
      </trkpt>
      <trkpt lat="66.02955" lon="21.0039">
        <ele>72.093429</ele>
        <time>2020-09-22T11:02:19.379Z</time>
      </trkpt>
      <trkpt lat="66.02948" lon="21.00407">
        <ele>71.980663</ele>
        <time>2020-09-22T11:02:21.393Z</time>
      </trkpt>
      <trkpt lat="66.02941" lon="21.00423">
        <ele>71.874887</ele>
        <time>2020-09-22T11:02:23.391Z</time>
      </trkpt>
      <trkpt lat="66.02934" lon="21.00439">
        <ele>71.765258</ele>
        <time>2020-09-22T11:02:25.434Z</time>
      </trkpt>
      <trkpt lat="66.02927" lon="21.00454">
        <ele>71.658511</ele>
        <time>2020-09-22T11:02:27.431Z</time>
      </trkpt>
      <trkpt lat="66.02919" lon="21.00469">
        <ele>71.552092</ele>
        <time>2020-09-22T11:02:29.437Z</time>
      </trkpt>
      <trkpt lat="66.02912" lon="21.00483">
        <ele>71.449084</ele>
        <time>2020-09-22T11:02:31.400Z</time>
      </trkpt>
      <trkpt lat="66.02904" lon="21.00497">
        <ele>71.341953</ele>
        <time>2020-09-22T11:02:33.441Z</time>
      </trkpt>
      <trkpt lat="66.02897" lon="21.00511">
        <ele>71.232565</ele>
        <time>2020-09-22T11:02:35.392Z</time>
      </trkpt>
      <trkpt lat="66.02889" lon="21.00525">
        <ele>71.10622</ele>
        <time>2020-09-22T11:02:37.407Z</time>
      </trkpt>
      <trkpt lat="66.02881" lon="21.0054">
        <ele>70.954245</ele>
        <time>2020-09-22T11:02:39.421Z</time>
      </trkpt>
      <trkpt lat="66.02873" lon="21.00554">
        <ele>70.797311</ele>
        <time>2020-09-22T11:02:41.389Z</time>
      </trkpt>
      <trkpt lat="66.02865" lon="21.00568">
        <ele>70.646348</ele>
        <time>2020-09-22T11:02:43.403Z</time>
      </trkpt>
      <trkpt lat="66.02857" lon="21.00583">
        <ele>70.495015</ele>
        <time>2020-09-22T11:02:45.424Z</time>
      </trkpt>
      <trkpt lat="66.02849" lon="21.00597">
        <ele>70.339328</ele>
        <time>2020-09-22T11:02:47.424Z</time>
      </trkpt>
      <trkpt lat="66.0284" lon="21.00611">
        <ele>70.183091</ele>
        <time>2020-09-22T11:02:49.383Z</time>
      </trkpt>
      <trkpt lat="66.02832" lon="21.00624">
        <ele>70.028277</ele>
        <time>2020-09-22T11:02:51.396Z</time>
      </trkpt>
      <trkpt lat="66.02824" lon="21.00638">
        <ele>69.876944</ele>
        <time>2020-09-22T11:02:53.381Z</time>
      </trkpt>
      <trkpt lat="66.02816" lon="21.00651">
        <ele>69.726889</ele>
        <time>2020-09-22T11:02:55.383Z</time>
      </trkpt>
      <trkpt lat="66.02808" lon="21.00666">
        <ele>69.571944</ele>
        <time>2020-09-22T11:02:57.415Z</time>
      </trkpt>
      <trkpt lat="66.02799" lon="21.0068">
        <ele>69.415009</ele>
        <time>2020-09-22T11:02:59.440Z</time>
      </trkpt>
      <trkpt lat="66.02791" lon="21.00695">
        <ele>69.255925</ele>
        <time>2020-09-22T11:03:01.444Z</time>
      </trkpt>
      <trkpt lat="66.02782" lon="21.00709">
        <ele>69.093139</ele>
        <time>2020-09-22T11:03:03.413Z</time>
      </trkpt>
      <trkpt lat="66.02773" lon="21.00723">
        <ele>68.930353</ele>
        <time>2020-09-22T11:03:05.427Z</time>
      </trkpt>
      <trkpt lat="66.02765" lon="21.00738">
        <ele>68.766027</ele>
        <time>2020-09-22T11:03:07.433Z</time>
      </trkpt>
      <trkpt lat="66.02756" lon="21.00753">
        <ele>68.602059</ele>
        <time>2020-09-22T11:03:09.411Z</time>
      </trkpt>
      <trkpt lat="66.02747" lon="21.00768">
        <ele>68.4415</ele>
        <time>2020-09-22T11:03:11.393Z</time>
      </trkpt>
      <trkpt lat="66.02739" lon="21.00781">
        <ele>68.422884</ele>
        <time>2020-09-22T11:03:13.425Z</time>
      </trkpt>
      <trkpt lat="66.0273" lon="21.00795">
        <ele>68.483498</ele>
        <time>2020-09-22T11:03:15.416Z</time>
      </trkpt>
      <trkpt lat="66.02721" lon="21.00809">
        <ele>68.543297</ele>
        <time>2020-09-22T11:03:17.389Z</time>
      </trkpt>
      <trkpt lat="66.02713" lon="21.00822">
        <ele>68.601451</ele>
        <time>2020-09-22T11:03:19.389Z</time>
      </trkpt>
      <trkpt lat="66.02705" lon="21.00835">
        <ele>68.657328</ele>
        <time>2020-09-22T11:03:21.435Z</time>
      </trkpt>
      <trkpt lat="66.02697" lon="21.00849">
        <ele>68.711781</ele>
        <time>2020-09-22T11:03:23.392Z</time>
      </trkpt>
      <trkpt lat="66.02689" lon="21.00861">
        <ele>68.766124</ele>
        <time>2020-09-22T11:03:25.411Z</time>
      </trkpt>
      <trkpt lat="66.02681" lon="21.00873">
        <ele>68.819364</ele>
        <time>2020-09-22T11:03:27.418Z</time>
      </trkpt>
      <trkpt lat="66.02674" lon="21.00887">
        <ele>68.871459</ele>
        <time>2020-09-22T11:03:29.408Z</time>
      </trkpt>
      <trkpt lat="66.02667" lon="21.00901">
        <ele>68.925626</ele>
        <time>2020-09-22T11:03:31.429Z</time>
      </trkpt>
      <trkpt lat="66.02659" lon="21.00917">
        <ele>68.98277</ele>
        <time>2020-09-22T11:03:33.415Z</time>
      </trkpt>
      <trkpt lat="66.02652" lon="21.00934">
        <ele>69.040545</ele>
        <time>2020-09-22T11:03:35.390Z</time>
      </trkpt>
      <trkpt lat="66.02645" lon="21.00952">
        <ele>69.097757</ele>
        <time>2020-09-22T11:03:37.402Z</time>
      </trkpt>
      <trkpt lat="66.02638" lon="21.00971">
        <ele>69.157161</ele>
        <time>2020-09-22T11:03:39.403Z</time>
      </trkpt>
      <trkpt lat="66.02632" lon="21.0099">
        <ele>69.215062</ele>
        <time>2020-09-22T11:03:41.387Z</time>
      </trkpt>
      <trkpt lat="66.02626" lon="21.01011">
        <ele>69.274831</ele>
        <time>2020-09-22T11:03:43.382Z</time>
      </trkpt>
      <trkpt lat="66.02621" lon="21.0103">
        <ele>69.327477</ele>
        <time>2020-09-22T11:03:45.387Z</time>
      </trkpt>
      <trkpt lat="66.02614" lon="21.01057">
        <ele>69.402306</ele>
        <time>2020-09-22T11:03:48.387Z</time>
      </trkpt>
      <trkpt lat="66.0261" lon="21.01087">
        <ele>69.25136</ele>
        <time>2020-09-22T11:03:51.393Z</time>
      </trkpt>
      <trkpt lat="66.02605" lon="21.01117">
        <ele>69.008912</ele>
        <time>2020-09-22T11:03:54.383Z</time>
      </trkpt>
      <trkpt lat="66.02599" lon="21.01147">
        <ele>68.761515</ele>
        <time>2020-09-22T11:03:57.406Z</time>
      </trkpt>
      <trkpt lat="66.02596" lon="21.01169">
        <ele>68.59074</ele>
        <time>2020-09-22T11:03:59.401Z</time>
      </trkpt>
      <trkpt lat="66.02592" lon="21.01189">
        <ele>68.425475</ele>
        <time>2020-09-22T11:04:01.402Z</time>
      </trkpt>
      <trkpt lat="66.02589" lon="21.01211">
        <ele>68.254007</ele>
        <time>2020-09-22T11:04:03.411Z</time>
      </trkpt>
      <trkpt lat="66.02586" lon="21.01233">
        <ele>68.075522</ele>
        <time>2020-09-22T11:04:05.384Z</time>
      </trkpt>
      <trkpt lat="66.02582" lon="21.01257">
        <ele>67.8841</ele>
        <time>2020-09-22T11:04:07.393Z</time>
      </trkpt>
      <trkpt lat="66.02578" lon="21.0128">
        <ele>67.698189</ele>
        <time>2020-09-22T11:04:09.393Z</time>
      </trkpt>
      <trkpt lat="66.02574" lon="21.01305">
        <ele>67.500569</ele>
        <time>2020-09-22T11:04:11.382Z</time>
      </trkpt>
      <trkpt lat="66.0257" lon="21.0133">
        <ele>67.298107</ele>
        <time>2020-09-22T11:04:13.421Z</time>
      </trkpt>
      <trkpt lat="66.02566" lon="21.01357">
        <ele>67.083232</ele>
        <time>2020-09-22T11:04:15.391Z</time>
      </trkpt>
      <trkpt lat="66.02562" lon="21.01384">
        <ele>66.876548</ele>
        <time>2020-09-22T11:04:17.392Z</time>
      </trkpt>
      <trkpt lat="66.02558" lon="21.0141">
        <ele>66.670561</ele>
        <time>2020-09-22T11:04:19.417Z</time>
      </trkpt>
      <trkpt lat="66.02554" lon="21.01436">
        <ele>66.457766</ele>
        <time>2020-09-22T11:04:21.398Z</time>
      </trkpt>
      <trkpt lat="66.02549" lon="21.01464">
        <ele>66.23726</ele>
        <time>2020-09-22T11:04:23.391Z</time>
      </trkpt>
      <trkpt lat="66.02546" lon="21.01489">
        <ele>66.050791</ele>
        <time>2020-09-22T11:04:25.394Z</time>
      </trkpt>
      <trkpt lat="66.02543" lon="21.01512">
        <ele>65.887405</ele>
        <time>2020-09-22T11:04:27.391Z</time>
      </trkpt>
      <trkpt lat="66.02539" lon="21.01534">
        <ele>65.733909</ele>
        <time>2020-09-22T11:04:29.446Z</time>
      </trkpt>
      <trkpt lat="66.02535" lon="21.01555">
        <ele>65.583953</ele>
        <time>2020-09-22T11:04:31.412Z</time>
      </trkpt>
      <trkpt lat="66.02532" lon="21.01576">
        <ele>65.431113</ele>
        <time>2020-09-22T11:04:33.413Z</time>
      </trkpt>
      <trkpt lat="66.02529" lon="21.01598">
        <ele>65.277616</ele>
        <time>2020-09-22T11:04:35.393Z</time>
      </trkpt>
      <trkpt lat="66.02525" lon="21.01621">
        <ele>65.116719</ele>
        <time>2020-09-22T11:04:37.388Z</time>
      </trkpt>
      <trkpt lat="66.02522" lon="21.01643">
        <ele>64.956492</ele>
        <time>2020-09-22T11:04:39.399Z</time>
      </trkpt>
      <trkpt lat="66.02518" lon="21.01665">
        <ele>64.796264</ele>
        <time>2020-09-22T11:04:41.435Z</time>
      </trkpt>
      <trkpt lat="66.02514" lon="21.01689">
        <ele>64.628643</ele>
        <time>2020-09-22T11:04:43.380Z</time>
      </trkpt>
      <trkpt lat="66.02511" lon="21.01714">
        <ele>64.455875</ele>
        <time>2020-09-22T11:04:45.409Z</time>
      </trkpt>
      <trkpt lat="66.02507" lon="21.0174">
        <ele>64.273509</ele>
        <time>2020-09-22T11:04:47.400Z</time>
      </trkpt>
      <trkpt lat="66.02503" lon="21.01765">
        <ele>64.091806</ele>
        <time>2020-09-22T11:04:49.400Z</time>
      </trkpt>
      <trkpt lat="66.02499" lon="21.0179">
        <ele>63.916884</ele>
        <time>2020-09-22T11:04:51.401Z</time>
      </trkpt>
      <trkpt lat="66.02495" lon="21.01814">
        <ele>63.746155</ele>
        <time>2020-09-22T11:04:53.393Z</time>
      </trkpt>
      <trkpt lat="66.02492" lon="21.01837">
        <ele>63.578595</ele>
        <time>2020-09-22T11:04:55.395Z</time>
      </trkpt>
      <trkpt lat="66.02488" lon="21.01863">
        <ele>63.397509</ele>
        <time>2020-09-22T11:04:57.389Z</time>
      </trkpt>
      <trkpt lat="66.02484" lon="21.01888">
        <ele>63.220125</ele>
        <time>2020-09-22T11:04:59.383Z</time>
      </trkpt>
      <trkpt lat="66.0248" lon="21.01912">
        <ele>63.278288</ele>
        <time>2020-09-22T11:05:01.416Z</time>
      </trkpt>
      <trkpt lat="66.02475" lon="21.01936">
        <ele>63.369011</ele>
        <time>2020-09-22T11:05:03.436Z</time>
      </trkpt>
      <trkpt lat="66.02471" lon="21.01961">
        <ele>63.458811</ele>
        <time>2020-09-22T11:05:05.384Z</time>
      </trkpt>
      <trkpt lat="66.02467" lon="21.01985">
        <ele>63.547643</ele>
        <time>2020-09-22T11:05:07.419Z</time>
      </trkpt>
      <trkpt lat="66.02462" lon="21.02011">
        <ele>63.641139</ele>
        <time>2020-09-22T11:05:09.431Z</time>
      </trkpt>
      <trkpt lat="66.02458" lon="21.02036">
        <ele>63.733391</ele>
        <time>2020-09-22T11:05:11.436Z</time>
      </trkpt>
      <trkpt lat="66.02454" lon="21.02062">
        <ele>63.825968</ele>
        <time>2020-09-22T11:05:13.398Z</time>
      </trkpt>
      <trkpt lat="66.0245" lon="21.02087">
        <ele>63.916672</ele>
        <time>2020-09-22T11:05:15.432Z</time>
      </trkpt>
      <trkpt lat="66.02445" lon="21.02111">
        <ele>64.009803</ele>
        <time>2020-09-22T11:05:17.411Z</time>
      </trkpt>
      <trkpt lat="66.0244" lon="21.02137">
        <ele>64.105959</ele>
        <time>2020-09-22T11:05:19.406Z</time>
      </trkpt>
      <trkpt lat="66.02434" lon="21.02163">
        <ele>64.201937</ele>
        <time>2020-09-22T11:05:21.404Z</time>
      </trkpt>
      <trkpt lat="66.02429" lon="21.02188">
        <ele>64.29574</ele>
        <time>2020-09-22T11:05:23.430Z</time>
      </trkpt>
      <trkpt lat="66.02424" lon="21.02212">
        <ele>64.388911</ele>
        <time>2020-09-22T11:05:25.420Z</time>
      </trkpt>
      <trkpt lat="66.02419" lon="21.02235">
        <ele>64.478738</ele>
        <time>2020-09-22T11:05:27.438Z</time>
      </trkpt>
      <trkpt lat="66.02413" lon="21.02258">
        <ele>64.567101</ele>
        <time>2020-09-22T11:05:29.390Z</time>
      </trkpt>
      <trkpt lat="66.02408" lon="21.0228">
        <ele>64.65301</ele>
        <time>2020-09-22T11:05:31.387Z</time>
      </trkpt>
      <trkpt lat="66.02402" lon="21.02301">
        <ele>64.837216</ele>
        <time>2020-09-22T11:05:33.383Z</time>
      </trkpt>
      <trkpt lat="66.02397" lon="21.02322">
        <ele>65.095502</ele>
        <time>2020-09-22T11:05:35.397Z</time>
      </trkpt>
      <trkpt lat="66.02392" lon="21.02343">
        <ele>65.355184</ele>
        <time>2020-09-22T11:05:37.391Z</time>
      </trkpt>
      <trkpt lat="66.02386" lon="21.02363">
        <ele>65.617204</ele>
        <time>2020-09-22T11:05:39.414Z</time>
      </trkpt>
      <trkpt lat="66.0238" lon="21.02383">
        <ele>65.87541</ele>
        <time>2020-09-22T11:05:41.415Z</time>
      </trkpt>
      <trkpt lat="66.02374" lon="21.02403">
        <ele>66.132341</ele>
        <time>2020-09-22T11:05:43.431Z</time>
      </trkpt>
      <trkpt lat="66.02368" lon="21.02423">
        <ele>66.386502</ele>
        <time>2020-09-22T11:05:45.398Z</time>
      </trkpt>
      <trkpt lat="66.02363" lon="21.02443">
        <ele>66.638345</ele>
        <time>2020-09-22T11:05:47.413Z</time>
      </trkpt>
      <trkpt lat="66.02358" lon="21.02462">
        <ele>66.878378</ele>
        <time>2020-09-22T11:05:49.386Z</time>
      </trkpt>
      <trkpt lat="66.02352" lon="21.0248">
        <ele>67.10999</ele>
        <time>2020-09-22T11:05:51.407Z</time>
      </trkpt>
      <trkpt lat="66.02347" lon="21.02498">
        <ele>67.352938</ele>
        <time>2020-09-22T11:05:53.412Z</time>
      </trkpt>
      <trkpt lat="66.02339" lon="21.02524">
        <ele>67.690883</ele>
        <time>2020-09-22T11:05:56.439Z</time>
      </trkpt>
      <trkpt lat="66.02331" lon="21.02548">
        <ele>68.018969</ele>
        <time>2020-09-22T11:05:59.406Z</time>
      </trkpt>
      <trkpt lat="66.02322" lon="21.02571">
        <ele>68.33837</ele>
        <time>2020-09-22T11:06:02.395Z</time>
      </trkpt>
      <trkpt lat="66.02315" lon="21.02593">
        <ele>68.642135</ele>
        <time>2020-09-22T11:06:05.397Z</time>
      </trkpt>
      <trkpt lat="66.02307" lon="21.02615">
        <ele>68.941917</ele>
        <time>2020-09-22T11:06:08.415Z</time>
      </trkpt>
      <trkpt lat="66.023" lon="21.02636">
        <ele>69.231019</ele>
        <time>2020-09-22T11:06:11.383Z</time>
      </trkpt>
      <trkpt lat="66.02293" lon="21.02655">
        <ele>69.583504</ele>
        <time>2020-09-22T11:06:14.468Z</time>
      </trkpt>
      <trkpt lat="66.02286" lon="21.02674">
        <ele>69.950099</ele>
        <time>2020-09-22T11:06:17.414Z</time>
      </trkpt>
      <trkpt lat="66.02278" lon="21.02692">
        <ele>70.330322</ele>
        <time>2020-09-22T11:06:20.434Z</time>
      </trkpt>
      <trkpt lat="66.02271" lon="21.02709">
        <ele>70.679757</ele>
        <time>2020-09-22T11:06:23.410Z</time>
      </trkpt>
      <trkpt lat="66.02263" lon="21.02729">
        <ele>71.107714</ele>
        <time>2020-09-22T11:06:27.403Z</time>
      </trkpt>
      <trkpt lat="66.02255" lon="21.02749">
        <ele>71.518261</ele>
        <time>2020-09-22T11:06:31.393Z</time>
      </trkpt>
      <trkpt lat="66.02247" lon="21.02768">
        <ele>71.916101</ele>
        <time>2020-09-22T11:06:35.388Z</time>
      </trkpt>
      <trkpt lat="66.02238" lon="21.02787">
        <ele>72.341091</ele>
        <time>2020-09-22T11:06:39.400Z</time>
      </trkpt>
      <trkpt lat="66.02231" lon="21.02802">
        <ele>72.677172</ele>
        <time>2020-09-22T11:06:42.379Z</time>
      </trkpt>
      <trkpt lat="66.02224" lon="21.02817">
        <ele>73.005928</ele>
        <time>2020-09-22T11:06:45.381Z</time>
      </trkpt>
      <trkpt lat="66.02215" lon="21.02835">
        <ele>73.4226</ele>
        <time>2020-09-22T11:06:49.412Z</time>
      </trkpt>
      <trkpt lat="66.02208" lon="21.02848">
        <ele>73.746412</ele>
        <time>2020-09-22T11:06:52.404Z</time>
      </trkpt>
      <trkpt lat="66.02199" lon="21.02866">
        <ele>74.152906</ele>
        <time>2020-09-22T11:06:56.438Z</time>
      </trkpt>
      <trkpt lat="66.0219" lon="21.02882">
        <ele>74.549422</ele>
        <time>2020-09-22T11:07:00.403Z</time>
      </trkpt>
      <trkpt lat="66.02181" lon="21.02899">
        <ele>74.973755</ele>
        <time>2020-09-22T11:07:04.389Z</time>
      </trkpt>
      <trkpt lat="66.02172" lon="21.02917">
        <ele>75.391335</ele>
        <time>2020-09-22T11:07:08.383Z</time>
      </trkpt>
      <trkpt lat="66.02164" lon="21.0293">
        <ele>75.730848</ele>
        <time>2020-09-22T11:07:11.386Z</time>
      </trkpt>
      <trkpt lat="66.02156" lon="21.02943">
        <ele>75.964052</ele>
        <time>2020-09-22T11:07:14.441Z</time>
      </trkpt>
      <trkpt lat="66.0215" lon="21.02958">
        <ele>76.169018</ele>
        <time>2020-09-22T11:07:17.392Z</time>
      </trkpt>
      <trkpt lat="66.02143" lon="21.02972">
        <ele>76.375268</ele>
        <time>2020-09-22T11:07:20.390Z</time>
      </trkpt>
      <trkpt lat="66.02136" lon="21.02987">
        <ele>76.585678</ele>
        <time>2020-09-22T11:07:23.392Z</time>
      </trkpt>
      <trkpt lat="66.02127" lon="21.03006">
        <ele>76.857018</ele>
        <time>2020-09-22T11:07:27.404Z</time>
      </trkpt>
      <trkpt lat="66.02117" lon="21.03023">
        <ele>77.121746</ele>
        <time>2020-09-22T11:07:31.409Z</time>
      </trkpt>
      <trkpt lat="66.02108" lon="21.03039">
        <ele>77.386476</ele>
        <time>2020-09-22T11:07:35.417Z</time>
      </trkpt>
      <trkpt lat="66.02098" lon="21.03055">
        <ele>77.64535</ele>
        <time>2020-09-22T11:07:39.393Z</time>
      </trkpt>
      <trkpt lat="66.0209" lon="21.03068">
        <ele>77.878249</ele>
        <time>2020-09-22T11:07:43.409Z</time>
      </trkpt>
      <trkpt lat="66.02081" lon="21.03082">
        <ele>78.103579</ele>
        <time>2020-09-22T11:07:47.394Z</time>
      </trkpt>
      <trkpt lat="66.02074" lon="21.03097">
        <ele>78.32381</ele>
        <time>2020-09-22T11:07:51.392Z</time>
      </trkpt>
      <trkpt lat="66.02066" lon="21.03112">
        <ele>78.551686</ele>
        <time>2020-09-22T11:07:55.402Z</time>
      </trkpt>
      <trkpt lat="66.02058" lon="21.03127">
        <ele>78.784171</ele>
        <time>2020-09-22T11:07:59.394Z</time>
      </trkpt>
      <trkpt lat="66.02049" lon="21.03143">
        <ele>79.024534</ele>
        <time>2020-09-22T11:08:03.408Z</time>
      </trkpt>
      <trkpt lat="66.02041" lon="21.03158">
        <ele>79.263966</ele>
        <time>2020-09-22T11:08:07.397Z</time>
      </trkpt>
      <trkpt lat="66.02033" lon="21.03174">
        <ele>79.508306</ele>
        <time>2020-09-22T11:08:11.410Z</time>
      </trkpt>
      <trkpt lat="66.02025" lon="21.03189">
        <ele>79.738054</ele>
        <time>2020-09-22T11:08:15.381Z</time>
      </trkpt>
      <trkpt lat="66.02017" lon="21.03202">
        <ele>79.975628</ele>
        <time>2020-09-22T11:08:19.419Z</time>
      </trkpt>
      <trkpt lat="66.02009" lon="21.03216">
        <ele>80.278175</ele>
        <time>2020-09-22T11:08:23.397Z</time>
      </trkpt>
      <trkpt lat="66.02002" lon="21.0323">
        <ele>80.589094</ele>
        <time>2020-09-22T11:08:27.408Z</time>
      </trkpt>
      <trkpt lat="66.01994" lon="21.03245">
        <ele>80.916966</ele>
        <time>2020-09-22T11:08:31.412Z</time>
      </trkpt>
      <trkpt lat="66.01985" lon="21.03261">
        <ele>81.258806</ele>
        <time>2020-09-22T11:08:35.396Z</time>
      </trkpt>
      <trkpt lat="66.01977" lon="21.03275">
        <ele>81.579375</ele>
        <time>2020-09-22T11:08:39.394Z</time>
      </trkpt>
      <trkpt lat="66.01969" lon="21.0329">
        <ele>81.907248</ele>
        <time>2020-09-22T11:08:43.418Z</time>
      </trkpt>
      <trkpt lat="66.01961" lon="21.03305">
        <ele>82.248279</ele>
        <time>2020-09-22T11:08:47.423Z</time>
      </trkpt>
      <trkpt lat="66.01953" lon="21.03321">
        <ele>82.580798</ele>
        <time>2020-09-22T11:08:51.428Z</time>
      </trkpt>
      <trkpt lat="66.01945" lon="21.03338">
        <ele>82.930099</ele>
        <time>2020-09-22T11:08:55.392Z</time>
      </trkpt>
      <trkpt lat="66.01936" lon="21.03352">
        <ele>83.280426</ele>
        <time>2020-09-22T11:08:59.429Z</time>
      </trkpt>
      <trkpt lat="66.01927" lon="21.03366">
        <ele>83.622285</ele>
        <time>2020-09-22T11:09:03.400Z</time>
      </trkpt>
      <trkpt lat="66.01918" lon="21.03384">
        <ele>83.986736</ele>
        <time>2020-09-22T11:09:07.389Z</time>
      </trkpt>
      <trkpt lat="66.0191" lon="21.034">
        <ele>84.333581</ele>
        <time>2020-09-22T11:09:11.380Z</time>
      </trkpt>
      <trkpt lat="66.01901" lon="21.03416">
        <ele>84.692877</ele>
        <time>2020-09-22T11:09:15.400Z</time>
      </trkpt>
      <trkpt lat="66.01892" lon="21.03431">
        <ele>85.032043</ele>
        <time>2020-09-22T11:09:19.398Z</time>
      </trkpt>
      <trkpt lat="66.01883" lon="21.03448">
        <ele>85.398199</ele>
        <time>2020-09-22T11:09:23.392Z</time>
      </trkpt>
      <trkpt lat="66.01875" lon="21.03464">
        <ele>85.737426</ele>
        <time>2020-09-22T11:09:27.413Z</time>
      </trkpt>
      <trkpt lat="66.01867" lon="21.03477">
        <ele>85.805403</ele>
        <time>2020-09-22T11:09:31.410Z</time>
      </trkpt>
      <trkpt lat="66.01858" lon="21.03491">
        <ele>85.873423</ele>
        <time>2020-09-22T11:09:35.418Z</time>
      </trkpt>
      <trkpt lat="66.0185" lon="21.03507">
        <ele>85.944537</ele>
        <time>2020-09-22T11:09:39.401Z</time>
      </trkpt>
      <trkpt lat="66.01841" lon="21.03524">
        <ele>86.0169</ele>
        <time>2020-09-22T11:09:43.411Z</time>
      </trkpt>
      <trkpt lat="66.01832" lon="21.03539">
        <ele>86.08786</ele>
        <time>2020-09-22T11:09:47.398Z</time>
      </trkpt>
      <trkpt lat="66.01823" lon="21.03556">
        <ele>86.165405</ele>
        <time>2020-09-22T11:09:51.396Z</time>
      </trkpt>
      <trkpt lat="66.01815" lon="21.03571">
        <ele>86.229501</ele>
        <time>2020-09-22T11:09:54.397Z</time>
      </trkpt>
      <trkpt lat="66.01807" lon="21.03583">
        <ele>86.289446</ele>
        <time>2020-09-22T11:09:57.401Z</time>
      </trkpt>
      <trkpt lat="66.01799" lon="21.03595">
        <ele>86.35148</ele>
        <time>2020-09-22T11:10:00.393Z</time>
      </trkpt>
      <trkpt lat="66.01791" lon="21.03608">
        <ele>86.416259</ele>
        <time>2020-09-22T11:10:03.416Z</time>
      </trkpt>
      <trkpt lat="66.01783" lon="21.03623">
        <ele>86.48158</ele>
        <time>2020-09-22T11:10:06.378Z</time>
      </trkpt>
      <trkpt lat="66.01776" lon="21.03638">
        <ele>86.544754</ele>
        <time>2020-09-22T11:10:09.380Z</time>
      </trkpt>
      <trkpt lat="66.01769" lon="21.03654">
        <ele>86.606539</ele>
        <time>2020-09-22T11:10:12.393Z</time>
      </trkpt>
      <trkpt lat="66.01762" lon="21.03671">
        <ele>86.674935</ele>
        <time>2020-09-22T11:10:15.434Z</time>
      </trkpt>
      <trkpt lat="66.01754" lon="21.03688">
        <ele>86.743097</ele>
        <time>2020-09-22T11:10:18.392Z</time>
      </trkpt>
      <trkpt lat="66.01747" lon="21.03705">
        <ele>86.807508</ele>
        <time>2020-09-22T11:10:21.391Z</time>
      </trkpt>
      <trkpt lat="66.0174" lon="21.03721">
        <ele>86.870977</ele>
        <time>2020-09-22T11:10:24.393Z</time>
      </trkpt>
      <trkpt lat="66.01733" lon="21.03737">
        <ele>86.926185</ele>
        <time>2020-09-22T11:10:27.449Z</time>
      </trkpt>
      <trkpt lat="66.01726" lon="21.03753">
        <ele>86.907374</ele>
        <time>2020-09-22T11:10:30.411Z</time>
      </trkpt>
      <trkpt lat="66.01719" lon="21.03772">
        <ele>86.886205</ele>
        <time>2020-09-22T11:10:33.389Z</time>
      </trkpt>
      <trkpt lat="66.01712" lon="21.03791">
        <ele>86.865068</ele>
        <time>2020-09-22T11:10:36.401Z</time>
      </trkpt>
      <trkpt lat="66.01706" lon="21.03811">
        <ele>86.844051</ele>
        <time>2020-09-22T11:10:39.410Z</time>
      </trkpt>
      <trkpt lat="66.017" lon="21.03831">
        <ele>86.822661</ele>
        <time>2020-09-22T11:10:42.418Z</time>
      </trkpt>
      <trkpt lat="66.01693" lon="21.03854">
        <ele>86.799114</ele>
        <time>2020-09-22T11:10:45.401Z</time>
      </trkpt>
      <trkpt lat="66.01686" lon="21.03878">
        <ele>86.775513</ele>
        <time>2020-09-22T11:10:48.439Z</time>
      </trkpt>
      <trkpt lat="66.0168" lon="21.03905">
        <ele>86.749705</ele>
        <time>2020-09-22T11:10:51.404Z</time>
      </trkpt>
      <trkpt lat="66.01674" lon="21.03931">
        <ele>86.724129</ele>
        <time>2020-09-22T11:10:54.382Z</time>
      </trkpt>
      <trkpt lat="66.01669" lon="21.03951">
        <ele>86.705582</ele>
        <time>2020-09-22T11:10:56.414Z</time>
      </trkpt>
      <trkpt lat="66.01665" lon="21.03971">
        <ele>86.686574</ele>
        <time>2020-09-22T11:10:58.399Z</time>
      </trkpt>
      <trkpt lat="66.0166" lon="21.0399">
        <ele>86.667431</ele>
        <time>2020-09-22T11:11:00.380Z</time>
      </trkpt>
      <trkpt lat="66.01655" lon="21.0401">
        <ele>86.648289</ele>
        <time>2020-09-22T11:11:02.400Z</time>
      </trkpt>
      <trkpt lat="66.0165" lon="21.0403">
        <ele>86.628991</ele>
        <time>2020-09-22T11:11:04.403Z</time>
      </trkpt>
      <trkpt lat="66.01645" lon="21.04051">
        <ele>86.609028</ele>
        <time>2020-09-22T11:11:06.414Z</time>
      </trkpt>
      <trkpt lat="66.01639" lon="21.04072">
        <ele>86.587464</ele>
        <time>2020-09-22T11:11:08.403Z</time>
      </trkpt>
      <trkpt lat="66.01633" lon="21.04095">
        <ele>86.565301</ele>
        <time>2020-09-22T11:11:10.391Z</time>
      </trkpt>
      <trkpt lat="66.01628" lon="21.04118">
        <ele>86.727159</ele>
        <time>2020-09-22T11:11:12.399Z</time>
      </trkpt>
      <trkpt lat="66.01622" lon="21.04142">
        <ele>86.932385</ele>
        <time>2020-09-22T11:11:14.411Z</time>
      </trkpt>
      <trkpt lat="66.01616" lon="21.04166">
        <ele>87.147215</ele>
        <time>2020-09-22T11:11:16.398Z</time>
      </trkpt>
      <trkpt lat="66.01609" lon="21.04192">
        <ele>87.379015</ele>
        <time>2020-09-22T11:11:18.400Z</time>
      </trkpt>
      <trkpt lat="66.01603" lon="21.04219">
        <ele>87.614395</ele>
        <time>2020-09-22T11:11:20.408Z</time>
      </trkpt>
      <trkpt lat="66.01597" lon="21.04245">
        <ele>87.8385</ele>
        <time>2020-09-22T11:11:22.388Z</time>
      </trkpt>
      <trkpt lat="66.01591" lon="21.04268">
        <ele>88.038562</ele>
        <time>2020-09-22T11:11:24.392Z</time>
      </trkpt>
      <trkpt lat="66.01586" lon="21.04288">
        <ele>88.218461</ele>
        <time>2020-09-22T11:11:26.389Z</time>
      </trkpt>
      <trkpt lat="66.01582" lon="21.04307">
        <ele>88.385192</ele>
        <time>2020-09-22T11:11:28.394Z</time>
      </trkpt>
      <trkpt lat="66.01575" lon="21.04334">
        <ele>88.618998</ele>
        <time>2020-09-22T11:11:31.409Z</time>
      </trkpt>
      <trkpt lat="66.01569" lon="21.0436">
        <ele>88.836752</ele>
        <time>2020-09-22T11:11:34.382Z</time>
      </trkpt>
      <trkpt lat="66.01564" lon="21.04379">
        <ele>89.009563</ele>
        <time>2020-09-22T11:11:37.401Z</time>
      </trkpt>
      <trkpt lat="66.01559" lon="21.04404">
        <ele>89.222493</ele>
        <time>2020-09-22T11:11:41.393Z</time>
      </trkpt>
      <trkpt lat="66.01553" lon="21.04428">
        <ele>89.433346</ele>
        <time>2020-09-22T11:11:45.420Z</time>
      </trkpt>
      <trkpt lat="66.01549" lon="21.0445">
        <ele>89.614126</ele>
        <time>2020-09-22T11:11:49.398Z</time>
      </trkpt>
      <trkpt lat="66.01544" lon="21.04471">
        <ele>89.794166</ele>
        <time>2020-09-22T11:11:53.391Z</time>
      </trkpt>
      <trkpt lat="66.01539" lon="21.04492">
        <ele>89.927963</ele>
        <time>2020-09-22T11:11:57.394Z</time>
      </trkpt>
      <trkpt lat="66.01534" lon="21.04512">
        <ele>90.01367</ele>
        <time>2020-09-22T11:12:01.380Z</time>
      </trkpt>
      <trkpt lat="66.01529" lon="21.04535">
        <ele>90.111588</ele>
        <time>2020-09-22T11:12:05.395Z</time>
      </trkpt>
      <trkpt lat="66.01523" lon="21.04559">
        <ele>90.211606</ele>
        <time>2020-09-22T11:12:09.424Z</time>
      </trkpt>
      <trkpt lat="66.01517" lon="21.04583">
        <ele>90.316286</ele>
        <time>2020-09-22T11:12:13.395Z</time>
      </trkpt>
      <trkpt lat="66.01512" lon="21.04602">
        <ele>90.397947</ele>
        <time>2020-09-22T11:12:16.392Z</time>
      </trkpt>
      <trkpt lat="66.01506" lon="21.04626">
        <ele>90.499985</ele>
        <time>2020-09-22T11:12:20.413Z</time>
      </trkpt>
      <trkpt lat="66.01501" lon="21.0465">
        <ele>90.600052</ele>
        <time>2020-09-22T11:12:24.402Z</time>
      </trkpt>
      <trkpt lat="66.01495" lon="21.04676">
        <ele>90.705975</ele>
        <time>2020-09-22T11:12:28.382Z</time>
      </trkpt>
      <trkpt lat="66.0149" lon="21.04696">
        <ele>90.790746</ele>
        <time>2020-09-22T11:12:31.392Z</time>
      </trkpt>
      <trkpt lat="66.01485" lon="21.04715">
        <ele>90.874274</ele>
        <time>2020-09-22T11:12:34.410Z</time>
      </trkpt>
      <trkpt lat="66.01481" lon="21.04736">
        <ele>90.960472</ele>
        <time>2020-09-22T11:12:37.382Z</time>
      </trkpt>
      <trkpt lat="66.01475" lon="21.04758">
        <ele>91.05411</ele>
        <time>2020-09-22T11:12:40.393Z</time>
      </trkpt>
      <trkpt lat="66.01469" lon="21.04781">
        <ele>91.154281</ele>
        <time>2020-09-22T11:12:43.418Z</time>
      </trkpt>
      <trkpt lat="66.01464" lon="21.04806">
        <ele>91.257583</ele>
        <time>2020-09-22T11:12:46.401Z</time>
      </trkpt>
      <trkpt lat="66.01458" lon="21.0483">
        <ele>91.357968</ele>
        <time>2020-09-22T11:12:49.429Z</time>
      </trkpt>
      <trkpt lat="66.01453" lon="21.04854">
        <ele>91.458181</ele>
        <time>2020-09-22T11:12:52.418Z</time>
      </trkpt>
      <trkpt lat="66.01449" lon="21.04879">
        <ele>91.181891</ele>
        <time>2020-09-22T11:12:55.422Z</time>
      </trkpt>
      <trkpt lat="66.01445" lon="21.04906">
        <ele>90.64236</ele>
        <time>2020-09-22T11:12:58.402Z</time>
      </trkpt>
      <trkpt lat="66.01441" lon="21.04934">
        <ele>90.069596</ele>
        <time>2020-09-22T11:13:01.412Z</time>
      </trkpt>
      <trkpt lat="66.01438" lon="21.04961">
        <ele>89.538677</ele>
        <time>2020-09-22T11:13:04.408Z</time>
      </trkpt>
      <trkpt lat="66.01436" lon="21.0499">
        <ele>88.992918</ele>
        <time>2020-09-22T11:13:07.383Z</time>
      </trkpt>
      <trkpt lat="66.01436" lon="21.05022">
        <ele>88.380104</ele>
        <time>2020-09-22T11:13:10.398Z</time>
      </trkpt>
      <trkpt lat="66.01436" lon="21.05045">
        <ele>87.953725</ele>
        <time>2020-09-22T11:13:12.433Z</time>
      </trkpt>
      <trkpt lat="66.01436" lon="21.05067">
        <ele>87.528703</ele>
        <time>2020-09-22T11:13:14.402Z</time>
      </trkpt>
      <trkpt lat="66.01437" lon="21.05091">
        <ele>87.077279</ele>
        <time>2020-09-22T11:13:16.429Z</time>
      </trkpt>
      <trkpt lat="66.01438" lon="21.05115">
        <ele>86.626312</ele>
        <time>2020-09-22T11:13:18.403Z</time>
      </trkpt>
      <trkpt lat="66.01439" lon="21.05139">
        <ele>86.157926</ele>
        <time>2020-09-22T11:13:20.396Z</time>
      </trkpt>
      <trkpt lat="66.0144" lon="21.05164">
        <ele>85.680931</ele>
        <time>2020-09-22T11:13:22.399Z</time>
      </trkpt>
      <trkpt lat="66.01441" lon="21.0519">
        <ele>85.187794</ele>
        <time>2020-09-22T11:13:24.402Z</time>
      </trkpt>
      <trkpt lat="66.01442" lon="21.05219">
        <ele>84.649995</ele>
        <time>2020-09-22T11:13:26.415Z</time>
      </trkpt>
      <trkpt lat="66.01443" lon="21.05247">
        <ele>84.113275</ele>
        <time>2020-09-22T11:13:28.388Z</time>
      </trkpt>
      <trkpt lat="66.01443" lon="21.05276">
        <ele>83.562589</ele>
        <time>2020-09-22T11:13:30.401Z</time>
      </trkpt>
      <trkpt lat="66.01444" lon="21.05305">
        <ele>83.011291</ele>
        <time>2020-09-22T11:13:32.405Z</time>
      </trkpt>
      <trkpt lat="66.01445" lon="21.05337">
        <ele>82.439717</ele>
        <time>2020-09-22T11:13:34.379Z</time>
      </trkpt>
      <trkpt lat="66.01446" lon="21.0537">
        <ele>81.84557</ele>
        <time>2020-09-22T11:13:36.413Z</time>
      </trkpt>
      <trkpt lat="66.01447" lon="21.05405">
        <ele>81.218442</ele>
        <time>2020-09-22T11:13:38.388Z</time>
      </trkpt>
      <trkpt lat="66.01448" lon="21.05442">
        <ele>80.551036</ele>
        <time>2020-09-22T11:13:40.388Z</time>
      </trkpt>
      <trkpt lat="66.01449" lon="21.0548">
        <ele>79.871029</ele>
        <time>2020-09-22T11:13:42.387Z</time>
      </trkpt>
      <trkpt lat="66.0145" lon="21.05519">
        <ele>79.180322</ele>
        <time>2020-09-22T11:13:44.433Z</time>
      </trkpt>
      <trkpt lat="66.01451" lon="21.05558">
        <ele>78.475785</ele>
        <time>2020-09-22T11:13:46.403Z</time>
      </trkpt>
      <trkpt lat="66.01451" lon="21.05598">
        <ele>77.76656</ele>
        <time>2020-09-22T11:13:48.406Z</time>
      </trkpt>
      <trkpt lat="66.0145" lon="21.05636">
        <ele>77.085224</ele>
        <time>2020-09-22T11:13:50.442Z</time>
      </trkpt>
      <trkpt lat="66.01449" lon="21.05674">
        <ele>76.405749</ele>
        <time>2020-09-22T11:13:52.404Z</time>
      </trkpt>
      <trkpt lat="66.01447" lon="21.05712">
        <ele>75.718366</ele>
        <time>2020-09-22T11:13:54.383Z</time>
      </trkpt>
      <trkpt lat="66.01446" lon="21.0575">
        <ele>75.12795</ele>
        <time>2020-09-22T11:13:56.387Z</time>
      </trkpt>
      <trkpt lat="66.01444" lon="21.05785">
        <ele>74.804512</ele>
        <time>2020-09-22T11:13:58.409Z</time>
      </trkpt>
      <trkpt lat="66.01443" lon="21.0582">
        <ele>74.485384</ele>
        <time>2020-09-22T11:14:00.397Z</time>
      </trkpt>
      <trkpt lat="66.01441" lon="21.05854">
        <ele>74.16512</ele>
        <time>2020-09-22T11:14:02.407Z</time>
      </trkpt>
      <trkpt lat="66.01438" lon="21.05888">
        <ele>73.855003</ele>
        <time>2020-09-22T11:14:04.389Z</time>
      </trkpt>
      <trkpt lat="66.01435" lon="21.0592">
        <ele>73.549689</ele>
        <time>2020-09-22T11:14:06.386Z</time>
      </trkpt>
      <trkpt lat="66.01432" lon="21.05954">
        <ele>73.239127</ele>
        <time>2020-09-22T11:14:08.387Z</time>
      </trkpt>
      <trkpt lat="66.01429" lon="21.05987">
        <ele>72.930348</ele>
        <time>2020-09-22T11:14:10.400Z</time>
      </trkpt>
      <trkpt lat="66.01426" lon="21.0602">
        <ele>72.62427</ele>
        <time>2020-09-22T11:14:12.414Z</time>
      </trkpt>
      <trkpt lat="66.01423" lon="21.06051">
        <ele>72.33596</ele>
        <time>2020-09-22T11:14:14.404Z</time>
      </trkpt>
      <trkpt lat="66.01421" lon="21.06081">
        <ele>72.049425</ele>
        <time>2020-09-22T11:14:16.389Z</time>
      </trkpt>
      <trkpt lat="66.01418" lon="21.06113">
        <ele>71.751815</ele>
        <time>2020-09-22T11:14:18.421Z</time>
      </trkpt>
      <trkpt lat="66.01415" lon="21.06145">
        <ele>71.449271</ele>
        <time>2020-09-22T11:14:20.391Z</time>
      </trkpt>
      <trkpt lat="66.01412" lon="21.06179">
        <ele>71.187473</ele>
        <time>2020-09-22T11:14:22.398Z</time>
      </trkpt>
      <trkpt lat="66.01409" lon="21.06215">
        <ele>71.298548</ele>
        <time>2020-09-22T11:14:24.391Z</time>
      </trkpt>
      <trkpt lat="66.01406" lon="21.06249">
        <ele>71.406223</ele>
        <time>2020-09-22T11:14:26.383Z</time>
      </trkpt>
      <trkpt lat="66.01404" lon="21.0628">
        <ele>71.501688</ele>
        <time>2020-09-22T11:14:28.437Z</time>
      </trkpt>
      <trkpt lat="66.01401" lon="21.06309">
        <ele>71.593555</ele>
        <time>2020-09-22T11:14:30.418Z</time>
      </trkpt>
      <trkpt lat="66.01399" lon="21.06337">
        <ele>71.682419</ele>
        <time>2020-09-22T11:14:32.388Z</time>
      </trkpt>
      <trkpt lat="66.01397" lon="21.06365">
        <ele>71.767974</ele>
        <time>2020-09-22T11:14:34.428Z</time>
      </trkpt>
      <trkpt lat="66.01394" lon="21.06392">
        <ele>71.85323</ele>
        <time>2020-09-22T11:14:36.428Z</time>
      </trkpt>
      <trkpt lat="66.01392" lon="21.06416">
        <ele>71.92936</ele>
        <time>2020-09-22T11:14:38.397Z</time>
      </trkpt>
      <trkpt lat="66.0139" lon="21.0644">
        <ele>72.002468</ele>
        <time>2020-09-22T11:14:40.412Z</time>
      </trkpt>
      <trkpt lat="66.01388" lon="21.06463">
        <ele>72.07699</ele>
        <time>2020-09-22T11:14:42.422Z</time>
      </trkpt>
      <trkpt lat="66.01385" lon="21.06487">
        <ele>72.154199</ele>
        <time>2020-09-22T11:14:44.398Z</time>
      </trkpt>
      <trkpt lat="66.01381" lon="21.06511">
        <ele>72.23134</ele>
        <time>2020-09-22T11:14:46.395Z</time>
      </trkpt>
      <trkpt lat="66.01378" lon="21.06536">
        <ele>72.310856</ele>
        <time>2020-09-22T11:14:48.406Z</time>
      </trkpt>
      <trkpt lat="66.01375" lon="21.06561">
        <ele>72.3929</ele>
        <time>2020-09-22T11:14:50.383Z</time>
      </trkpt>
      <trkpt lat="66.01371" lon="21.06587">
        <ele>72.474002</ele>
        <time>2020-09-22T11:14:52.388Z</time>
      </trkpt>
      <trkpt lat="66.01368" lon="21.0661">
        <ele>72.594521</ele>
        <time>2020-09-22T11:14:54.400Z</time>
      </trkpt>
      <trkpt lat="66.01365" lon="21.06634">
        <ele>72.813514</ele>
        <time>2020-09-22T11:14:56.428Z</time>
      </trkpt>
      <trkpt lat="66.01362" lon="21.06658">
        <ele>73.038219</ele>
        <time>2020-09-22T11:14:58.390Z</time>
      </trkpt>
      <trkpt lat="66.01358" lon="21.06684">
        <ele>73.274159</ele>
        <time>2020-09-22T11:15:00.394Z</time>
      </trkpt>
      <trkpt lat="66.01355" lon="21.06709">
        <ele>73.509785</ele>
        <time>2020-09-22T11:15:02.420Z</time>
      </trkpt>
      <trkpt lat="66.01352" lon="21.06732">
        <ele>73.727993</ele>
        <time>2020-09-22T11:15:04.400Z</time>
      </trkpt>
      <trkpt lat="66.01349" lon="21.06754">
        <ele>73.930106</ele>
        <time>2020-09-22T11:15:06.405Z</time>
      </trkpt>
      <trkpt lat="66.01344" lon="21.06784">
        <ele>74.21537</ele>
        <time>2020-09-22T11:15:09.390Z</time>
      </trkpt>
      <trkpt lat="66.01341" lon="21.06805">
        <ele>74.41458</ele>
        <time>2020-09-22T11:15:11.393Z</time>
      </trkpt>
      <trkpt lat="66.01338" lon="21.06828">
        <ele>74.629343</ele>
        <time>2020-09-22T11:15:13.395Z</time>
      </trkpt>
      <trkpt lat="66.01335" lon="21.06853">
        <ele>74.856591</ele>
        <time>2020-09-22T11:15:15.385Z</time>
      </trkpt>
      <trkpt lat="66.01332" lon="21.06879">
        <ele>75.097462</ele>
        <time>2020-09-22T11:15:17.419Z</time>
      </trkpt>
      <trkpt lat="66.01329" lon="21.06905">
        <ele>75.339521</ele>
        <time>2020-09-22T11:15:19.411Z</time>
      </trkpt>
      <trkpt lat="66.01326" lon="21.06931">
        <ele>75.574665</ele>
        <time>2020-09-22T11:15:21.394Z</time>
      </trkpt>
      <trkpt lat="66.01323" lon="21.06954">
        <ele>75.783614</ele>
        <time>2020-09-22T11:15:23.422Z</time>
      </trkpt>
      <trkpt lat="66.01322" lon="21.06976">
        <ele>75.986108</ele>
        <time>2020-09-22T11:15:25.410Z</time>
      </trkpt>
      <trkpt lat="66.01319" lon="21.07008">
        <ele>76.276601</ele>
        <time>2020-09-22T11:15:28.396Z</time>
      </trkpt>
      <trkpt lat="66.01317" lon="21.0703">
        <ele>76.442751</ele>
        <time>2020-09-22T11:15:30.403Z</time>
      </trkpt>
      <trkpt lat="66.01314" lon="21.07061">
        <ele>76.425266</ele>
        <time>2020-09-22T11:15:33.406Z</time>
      </trkpt>
      <trkpt lat="66.01311" lon="21.07093">
        <ele>76.407837</ele>
        <time>2020-09-22T11:15:36.411Z</time>
      </trkpt>
      <trkpt lat="66.01308" lon="21.07123">
        <ele>76.391574</ele>
        <time>2020-09-22T11:15:39.429Z</time>
      </trkpt>
      <trkpt lat="66.01305" lon="21.07152">
        <ele>76.375175</ele>
        <time>2020-09-22T11:15:42.416Z</time>
      </trkpt>
      <trkpt lat="66.01301" lon="21.07183">
        <ele>76.358052</ele>
        <time>2020-09-22T11:15:45.408Z</time>
      </trkpt>
      <trkpt lat="66.01299" lon="21.07205">
        <ele>76.345693</ele>
        <time>2020-09-22T11:15:47.380Z</time>
      </trkpt>
      <trkpt lat="66.01297" lon="21.07228">
        <ele>76.333179</ele>
        <time>2020-09-22T11:15:49.438Z</time>
      </trkpt>
      <trkpt lat="66.01294" lon="21.07252">
        <ele>76.320031</ele>
        <time>2020-09-22T11:15:51.388Z</time>
      </trkpt>
      <trkpt lat="66.01292" lon="21.07275">
        <ele>76.306906</ele>
        <time>2020-09-22T11:15:53.401Z</time>
      </trkpt>
      <trkpt lat="66.0129" lon="21.07298">
        <ele>76.29415</ele>
        <time>2020-09-22T11:15:55.416Z</time>
      </trkpt>
      <trkpt lat="66.01287" lon="21.07322">
        <ele>76.281234</ele>
        <time>2020-09-22T11:15:57.390Z</time>
      </trkpt>
      <trkpt lat="66.01285" lon="21.07347">
        <ele>76.267181</ele>
        <time>2020-09-22T11:15:59.411Z</time>
      </trkpt>
      <trkpt lat="66.01282" lon="21.07375">
        <ele>76.251957</ele>
        <time>2020-09-22T11:16:01.404Z</time>
      </trkpt>
      <trkpt lat="66.01279" lon="21.07402">
        <ele>76.236525</ele>
        <time>2020-09-22T11:16:03.382Z</time>
      </trkpt>
      <trkpt lat="66.01276" lon="21.07432">
        <ele>76.220487</ele>
        <time>2020-09-22T11:16:05.393Z</time>
      </trkpt>
      <trkpt lat="66.01273" lon="21.07461">
        <ele>76.148767</ele>
        <time>2020-09-22T11:16:07.377Z</time>
      </trkpt>
      <trkpt lat="66.0127" lon="21.07489">
        <ele>75.791736</ele>
        <time>2020-09-22T11:16:09.401Z</time>
      </trkpt>
      <trkpt lat="66.01268" lon="21.07521">
        <ele>75.40847</ele>
        <time>2020-09-22T11:16:11.417Z</time>
      </trkpt>
      <trkpt lat="66.01265" lon="21.07552">
        <ele>75.027493</ele>
        <time>2020-09-22T11:16:13.386Z</time>
      </trkpt>
      <trkpt lat="66.01262" lon="21.07583">
        <ele>74.638928</ele>
        <time>2020-09-22T11:16:15.414Z</time>
      </trkpt>
      <trkpt lat="66.0126" lon="21.07615">
        <ele>74.257418</ele>
        <time>2020-09-22T11:16:17.457Z</time>
      </trkpt>
      <trkpt lat="66.01257" lon="21.07648">
        <ele>73.854698</ele>
        <time>2020-09-22T11:16:19.398Z</time>
      </trkpt>
      <trkpt lat="66.01254" lon="21.07681">
        <ele>73.44185</ele>
        <time>2020-09-22T11:16:21.421Z</time>
      </trkpt>
      <trkpt lat="66.01251" lon="21.07715">
        <ele>73.02199</ele>
        <time>2020-09-22T11:16:23.381Z</time>
      </trkpt>
      <trkpt lat="66.01247" lon="21.07749">
        <ele>72.610787</ele>
        <time>2020-09-22T11:16:25.398Z</time>
      </trkpt>
      <trkpt lat="66.01244" lon="21.07782">
        <ele>72.197432</ele>
        <time>2020-09-22T11:16:27.412Z</time>
      </trkpt>
      <trkpt lat="66.01242" lon="21.07813">
        <ele>71.81356</ele>
        <time>2020-09-22T11:16:29.395Z</time>
      </trkpt>
      <trkpt lat="66.01239" lon="21.07844">
        <ele>71.446122</ele>
        <time>2020-09-22T11:16:31.394Z</time>
      </trkpt>
      <trkpt lat="66.01237" lon="21.07875">
        <ele>71.061076</ele>
        <time>2020-09-22T11:16:33.407Z</time>
      </trkpt>
      <trkpt lat="66.01234" lon="21.07906">
        <ele>70.783543</ele>
        <time>2020-09-22T11:16:35.390Z</time>
      </trkpt>
      <trkpt lat="66.01231" lon="21.07936">
        <ele>70.590882</ele>
        <time>2020-09-22T11:16:37.403Z</time>
      </trkpt>
      <trkpt lat="66.01229" lon="21.07965">
        <ele>70.40662</ele>
        <time>2020-09-22T11:16:39.424Z</time>
      </trkpt>
      <trkpt lat="66.01227" lon="21.07993">
        <ele>70.227299</ele>
        <time>2020-09-22T11:16:41.425Z</time>
      </trkpt>
      <trkpt lat="66.01224" lon="21.08019">
        <ele>70.055995</ele>
        <time>2020-09-22T11:16:43.390Z</time>
      </trkpt>
      <trkpt lat="66.01222" lon="21.08045">
        <ele>69.890233</ele>
        <time>2020-09-22T11:16:45.421Z</time>
      </trkpt>
      <trkpt lat="66.0122" lon="21.08071">
        <ele>69.719739</ele>
        <time>2020-09-22T11:16:47.395Z</time>
      </trkpt>
      <trkpt lat="66.01217" lon="21.08096">
        <ele>69.555581</ele>
        <time>2020-09-22T11:16:49.396Z</time>
      </trkpt>
      <trkpt lat="66.01214" lon="21.08122">
        <ele>69.391201</ele>
        <time>2020-09-22T11:16:51.395Z</time>
      </trkpt>
      <trkpt lat="66.01212" lon="21.08147">
        <ele>69.230397</ele>
        <time>2020-09-22T11:16:53.430Z</time>
      </trkpt>
      <trkpt lat="66.0121" lon="21.08171">
        <ele>69.070779</ele>
        <time>2020-09-22T11:16:55.419Z</time>
      </trkpt>
      <trkpt lat="66.01207" lon="21.08198">
        <ele>68.898803</ele>
        <time>2020-09-22T11:16:57.429Z</time>
      </trkpt>
      <trkpt lat="66.01205" lon="21.08225">
        <ele>68.726331</ele>
        <time>2020-09-22T11:16:59.439Z</time>
      </trkpt>
      <trkpt lat="66.01202" lon="21.08252">
        <ele>68.550016</ele>
        <time>2020-09-22T11:17:01.386Z</time>
      </trkpt>
      <trkpt lat="66.01199" lon="21.08278">
        <ele>68.377951</ele>
        <time>2020-09-22T11:17:03.413Z</time>
      </trkpt>
      <trkpt lat="66.01196" lon="21.08304">
        <ele>68.206472</ele>
        <time>2020-09-22T11:17:05.400Z</time>
      </trkpt>
      <trkpt lat="66.01193" lon="21.08332">
        <ele>68.175556</ele>
        <time>2020-09-22T11:17:07.397Z</time>
      </trkpt>
      <trkpt lat="66.0119" lon="21.0836">
        <ele>68.30433</ele>
        <time>2020-09-22T11:17:09.405Z</time>
      </trkpt>
      <trkpt lat="66.01188" lon="21.08389">
        <ele>68.437522</ele>
        <time>2020-09-22T11:17:11.420Z</time>
      </trkpt>
      <trkpt lat="66.01185" lon="21.08418">
        <ele>68.572466</ele>
        <time>2020-09-22T11:17:13.393Z</time>
      </trkpt>
      <trkpt lat="66.01182" lon="21.08447">
        <ele>68.70727</ele>
        <time>2020-09-22T11:17:15.404Z</time>
      </trkpt>
      <trkpt lat="66.01179" lon="21.08473">
        <ele>68.834777</ele>
        <time>2020-09-22T11:17:17.397Z</time>
      </trkpt>
      <trkpt lat="66.01175" lon="21.08499">
        <ele>68.959887</ele>
        <time>2020-09-22T11:17:19.392Z</time>
      </trkpt>
      <trkpt lat="66.01172" lon="21.08527">
        <ele>69.087987</ele>
        <time>2020-09-22T11:17:21.399Z</time>
      </trkpt>
      <trkpt lat="66.01169" lon="21.08553">
        <ele>69.213902</ele>
        <time>2020-09-22T11:17:23.421Z</time>
      </trkpt>
      <trkpt lat="66.01165" lon="21.0858">
        <ele>69.340465</ele>
        <time>2020-09-22T11:17:25.419Z</time>
      </trkpt>
      <trkpt lat="66.01162" lon="21.08606">
        <ele>69.464391</ele>
        <time>2020-09-22T11:17:27.377Z</time>
      </trkpt>
      <trkpt lat="66.01158" lon="21.0863">
        <ele>69.584406</ele>
        <time>2020-09-22T11:17:29.407Z</time>
      </trkpt>
      <trkpt lat="66.01153" lon="21.08655">
        <ele>69.705258</ele>
        <time>2020-09-22T11:17:31.388Z</time>
      </trkpt>
      <trkpt lat="66.01149" lon="21.0868">
        <ele>69.827804</ele>
        <time>2020-09-22T11:17:33.415Z</time>
      </trkpt>
      <trkpt lat="66.01145" lon="21.08705">
        <ele>69.951614</ele>
        <time>2020-09-22T11:17:35.400Z</time>
      </trkpt>
      <trkpt lat="66.0114" lon="21.08731">
        <ele>70.076792</ele>
        <time>2020-09-22T11:17:37.394Z</time>
      </trkpt>
      <trkpt lat="66.01136" lon="21.08754">
        <ele>70.264083</ele>
        <time>2020-09-22T11:17:39.411Z</time>
      </trkpt>
      <trkpt lat="66.01131" lon="21.08777">
        <ele>70.482865</ele>
        <time>2020-09-22T11:17:41.392Z</time>
      </trkpt>
      <trkpt lat="66.01127" lon="21.088">
        <ele>70.702577</ele>
        <time>2020-09-22T11:17:43.388Z</time>
      </trkpt>
      <trkpt lat="66.01122" lon="21.08824">
        <ele>70.93378</ele>
        <time>2020-09-22T11:17:45.422Z</time>
      </trkpt>
      <trkpt lat="66.01117" lon="21.08848">
        <ele>71.162014</ele>
        <time>2020-09-22T11:17:47.396Z</time>
      </trkpt>
      <trkpt lat="66.01112" lon="21.08871">
        <ele>71.385748</ele>
        <time>2020-09-22T11:17:49.407Z</time>
      </trkpt>
      <trkpt lat="66.01108" lon="21.08893">
        <ele>71.59702</ele>
        <time>2020-09-22T11:17:51.415Z</time>
      </trkpt>
      <trkpt lat="66.01103" lon="21.08915">
        <ele>71.812546</ele>
        <time>2020-09-22T11:17:53.397Z</time>
      </trkpt>
      <trkpt lat="66.01099" lon="21.08936">
        <ele>72.01634</ele>
        <time>2020-09-22T11:17:55.383Z</time>
      </trkpt>
      <trkpt lat="66.01095" lon="21.08957">
        <ele>72.220613</ele>
        <time>2020-09-22T11:17:57.398Z</time>
      </trkpt>
      <trkpt lat="66.0109" lon="21.08979">
        <ele>72.426569</ele>
        <time>2020-09-22T11:17:59.392Z</time>
      </trkpt>
      <trkpt lat="66.01086" lon="21.09">
        <ele>72.630003</ele>
        <time>2020-09-22T11:18:01.393Z</time>
      </trkpt>
      <trkpt lat="66.01081" lon="21.09021">
        <ele>72.834959</ele>
        <time>2020-09-22T11:18:03.415Z</time>
      </trkpt>
      <trkpt lat="66.01077" lon="21.09042">
        <ele>73.0369</ele>
        <time>2020-09-22T11:18:05.413Z</time>
      </trkpt>
      <trkpt lat="66.01073" lon="21.09063">
        <ele>73.237622</ele>
        <time>2020-09-22T11:18:07.386Z</time>
      </trkpt>
      <trkpt lat="66.01069" lon="21.09085">
        <ele>73.449465</ele>
        <time>2020-09-22T11:18:09.404Z</time>
      </trkpt>
      <trkpt lat="66.01064" lon="21.09106">
        <ele>73.655184</ele>
        <time>2020-09-22T11:18:11.413Z</time>
      </trkpt>
      <trkpt lat="66.0106" lon="21.09127">
        <ele>73.85535</ele>
        <time>2020-09-22T11:18:13.414Z</time>
      </trkpt>
      <trkpt lat="66.01054" lon="21.09156">
        <ele>74.077406</ele>
        <time>2020-09-22T11:18:16.407Z</time>
      </trkpt>
      <trkpt lat="66.01048" lon="21.09184">
        <ele>74.270203</ele>
        <time>2020-09-22T11:18:19.409Z</time>
      </trkpt>
      <trkpt lat="66.01044" lon="21.09211">
        <ele>74.452597</ele>
        <time>2020-09-22T11:18:22.393Z</time>
      </trkpt>
      <trkpt lat="66.01039" lon="21.09236">
        <ele>74.622176</ele>
        <time>2020-09-22T11:18:25.398Z</time>
      </trkpt>
      <trkpt lat="66.01035" lon="21.09261">
        <ele>74.785407</ele>
        <time>2020-09-22T11:18:28.403Z</time>
      </trkpt>
      <trkpt lat="66.01031" lon="21.09286">
        <ele>74.958677</ele>
        <time>2020-09-22T11:18:31.416Z</time>
      </trkpt>
      <trkpt lat="66.01026" lon="21.09312">
        <ele>75.141791</ele>
        <time>2020-09-22T11:18:34.392Z</time>
      </trkpt>
      <trkpt lat="66.01021" lon="21.09339">
        <ele>75.321287</ele>
        <time>2020-09-22T11:18:37.411Z</time>
      </trkpt>
      <trkpt lat="66.01016" lon="21.09365">
        <ele>75.503189</ele>
        <time>2020-09-22T11:18:40.418Z</time>
      </trkpt>
      <trkpt lat="66.0101" lon="21.09391">
        <ele>75.686207</ele>
        <time>2020-09-22T11:18:43.438Z</time>
      </trkpt>
      <trkpt lat="66.01003" lon="21.09418">
        <ele>75.88504</ele>
        <time>2020-09-22T11:18:46.394Z</time>
      </trkpt>
      <trkpt lat="66.00997" lon="21.09442">
        <ele>76.062914</ele>
        <time>2020-09-22T11:18:49.402Z</time>
      </trkpt>
      <trkpt lat="66.00991" lon="21.09469">
        <ele>76.254696</ele>
        <time>2020-09-22T11:18:52.392Z</time>
      </trkpt>
      <trkpt lat="66.00985" lon="21.09496">
        <ele>76.447229</ele>
        <time>2020-09-22T11:18:55.409Z</time>
      </trkpt>
      <trkpt lat="66.00978" lon="21.09522">
        <ele>76.641293</ele>
        <time>2020-09-22T11:18:58.395Z</time>
      </trkpt>
      <trkpt lat="66.00972" lon="21.0955">
        <ele>76.961717</ele>
        <time>2020-09-22T11:19:01.411Z</time>
      </trkpt>
      <trkpt lat="66.00966" lon="21.09577">
        <ele>77.291282</ele>
        <time>2020-09-22T11:19:04.397Z</time>
      </trkpt>
      <trkpt lat="66.00961" lon="21.09602">
        <ele>77.596376</ele>
        <time>2020-09-22T11:19:07.401Z</time>
      </trkpt>
      <trkpt lat="66.00956" lon="21.09626">
        <ele>77.879498</ele>
        <time>2020-09-22T11:19:10.408Z</time>
      </trkpt>
      <trkpt lat="66.00951" lon="21.09649">
        <ele>78.164423</ele>
        <time>2020-09-22T11:19:13.415Z</time>
      </trkpt>
      <trkpt lat="66.00947" lon="21.09673">
        <ele>78.448524</ele>
        <time>2020-09-22T11:19:16.404Z</time>
      </trkpt>
      <trkpt lat="66.00942" lon="21.09695">
        <ele>78.722427</ele>
        <time>2020-09-22T11:19:19.439Z</time>
      </trkpt>
      <trkpt lat="66.00937" lon="21.09718">
        <ele>79.007415</ele>
        <time>2020-09-22T11:19:22.402Z</time>
      </trkpt>
      <trkpt lat="66.00931" lon="21.09742">
        <ele>79.308369</ele>
        <time>2020-09-22T11:19:25.401Z</time>
      </trkpt>
      <trkpt lat="66.00925" lon="21.09767">
        <ele>79.618213</ele>
        <time>2020-09-22T11:19:28.403Z</time>
      </trkpt>
      <trkpt lat="66.00921" lon="21.09794">
        <ele>79.944143</ele>
        <time>2020-09-22T11:19:31.391Z</time>
      </trkpt>
      <trkpt lat="66.00916" lon="21.09823">
        <ele>80.27701</ele>
        <time>2020-09-22T11:19:34.388Z</time>
      </trkpt>
      <trkpt lat="66.0091" lon="21.09851">
        <ele>80.61244</ele>
        <time>2020-09-22T11:19:37.394Z</time>
      </trkpt>
      <trkpt lat="66.00905" lon="21.09877">
        <ele>80.937131</ele>
        <time>2020-09-22T11:19:40.398Z</time>
      </trkpt>
      <trkpt lat="66.00899" lon="21.09906">
        <ele>81.28915</ele>
        <time>2020-09-22T11:19:43.402Z</time>
      </trkpt>
      <trkpt lat="66.00895" lon="21.09926">
        <ele>81.560896</ele>
        <time>2020-09-22T11:19:45.403Z</time>
      </trkpt>
      <trkpt lat="66.00889" lon="21.09954">
        <ele>82.083919</ele>
        <time>2020-09-22T11:19:48.409Z</time>
      </trkpt>
      <trkpt lat="66.00885" lon="21.09974">
        <ele>82.452816</ele>
        <time>2020-09-22T11:19:50.426Z</time>
      </trkpt>
      <trkpt lat="66.00881" lon="21.09994">
        <ele>82.830704</ele>
        <time>2020-09-22T11:19:52.395Z</time>
      </trkpt>
      <trkpt lat="66.00876" lon="21.10015">
        <ele>83.220348</ele>
        <time>2020-09-22T11:19:54.409Z</time>
      </trkpt>
      <trkpt lat="66.00871" lon="21.10035">
        <ele>83.610903</ele>
        <time>2020-09-22T11:19:56.432Z</time>
      </trkpt>
      <trkpt lat="66.00867" lon="21.10054">
        <ele>83.981906</ele>
        <time>2020-09-22T11:19:58.401Z</time>
      </trkpt>
      <trkpt lat="66.0086" lon="21.10082">
        <ele>84.501546</ele>
        <time>2020-09-22T11:20:01.399Z</time>
      </trkpt>
      <trkpt lat="66.00855" lon="21.10106">
        <ele>84.96713</ele>
        <time>2020-09-22T11:20:04.382Z</time>
      </trkpt>
      <trkpt lat="66.0085" lon="21.10128">
        <ele>85.385441</ele>
        <time>2020-09-22T11:20:07.388Z</time>
      </trkpt>
      <trkpt lat="66.00844" lon="21.1015">
        <ele>85.827191</ele>
        <time>2020-09-22T11:20:11.391Z</time>
      </trkpt>
      <trkpt lat="66.00839" lon="21.10171">
        <ele>86.231599</ele>
        <time>2020-09-22T11:20:16.435Z</time>
      </trkpt>
      <trkpt lat="66.00833" lon="21.10192">
        <ele>86.647548</ele>
        <time>2020-09-22T11:20:22.383Z</time>
      </trkpt>
      <trkpt lat="66.00829" lon="21.10214">
        <ele>87.052485</ele>
        <time>2020-09-22T11:20:28.393Z</time>
      </trkpt>
      <trkpt lat="66.00825" lon="21.10237">
        <ele>87.46263</ele>
        <time>2020-09-22T11:20:34.393Z</time>
      </trkpt>
      <trkpt lat="66.00821" lon="21.1026">
        <ele>87.875219</ele>
        <time>2020-09-22T11:20:40.413Z</time>
      </trkpt>
      <trkpt lat="66.00817" lon="21.10281">
        <ele>88.257199</ele>
        <time>2020-09-22T11:20:45.403Z</time>
      </trkpt>
      <trkpt lat="66.00813" lon="21.10304">
        <ele>88.692414</ele>
        <time>2020-09-22T11:20:51.415Z</time>
      </trkpt>
      <trkpt lat="66.00808" lon="21.10324">
        <ele>88.927124</ele>
        <time>2020-09-22T11:20:56.420Z</time>
      </trkpt>
      <trkpt lat="66.00803" lon="21.10348">
        <ele>89.103895</ele>
        <time>2020-09-22T11:21:02.404Z</time>
      </trkpt>
      <trkpt lat="66.008" lon="21.10369">
        <ele>89.255697</ele>
        <time>2020-09-22T11:21:07.399Z</time>
      </trkpt>
      <trkpt lat="66.00795" lon="21.1039">
        <ele>89.410101</ele>
        <time>2020-09-22T11:21:12.406Z</time>
      </trkpt>
      <trkpt lat="66.0079" lon="21.10414">
        <ele>89.590719</ele>
        <time>2020-09-22T11:21:17.401Z</time>
      </trkpt>
      <trkpt lat="66.00785" lon="21.10437">
        <ele>89.767205</ele>
        <time>2020-09-22T11:21:22.388Z</time>
      </trkpt>
      <trkpt lat="66.0078" lon="21.1046">
        <ele>89.941954</ele>
        <time>2020-09-22T11:21:27.418Z</time>
      </trkpt>
      <trkpt lat="66.00776" lon="21.10483">
        <ele>90.109055</ele>
        <time>2020-09-22T11:21:31.417Z</time>
      </trkpt>
      <trkpt lat="66.00771" lon="21.10505">
        <ele>90.271731</ele>
        <time>2020-09-22T11:21:35.395Z</time>
      </trkpt>
      <trkpt lat="66.00766" lon="21.10525">
        <ele>90.433374</ele>
        <time>2020-09-22T11:21:39.408Z</time>
      </trkpt>
      <trkpt lat="66.00761" lon="21.10547">
        <ele>90.599915</ele>
        <time>2020-09-22T11:21:43.416Z</time>
      </trkpt>
      <trkpt lat="66.00756" lon="21.10572">
        <ele>90.782784</ele>
        <time>2020-09-22T11:21:48.407Z</time>
      </trkpt>
      <trkpt lat="66.00751" lon="21.10592">
        <ele>90.946116</ele>
        <time>2020-09-22T11:21:52.399Z</time>
      </trkpt>
      <trkpt lat="66.00745" lon="21.10616">
        <ele>91.123763</ele>
        <time>2020-09-22T11:21:56.425Z</time>
      </trkpt>
      <trkpt lat="66.00741" lon="21.10639">
        <ele>91.294315</ele>
        <time>2020-09-22T11:22:00.397Z</time>
      </trkpt>
      <trkpt lat="66.00735" lon="21.10663">
        <ele>91.482283</ele>
        <time>2020-09-22T11:22:04.403Z</time>
      </trkpt>
      <trkpt lat="66.0073" lon="21.10686">
        <ele>91.658428</ele>
        <time>2020-09-22T11:22:08.405Z</time>
      </trkpt>
      <trkpt lat="66.00724" lon="21.10711">
        <ele>91.759754</ele>
        <time>2020-09-22T11:22:12.409Z</time>
      </trkpt>
      <trkpt lat="66.00719" lon="21.10738">
        <ele>91.725332</ele>
        <time>2020-09-22T11:22:16.434Z</time>
      </trkpt>
      <trkpt lat="66.00716" lon="21.1076">
        <ele>91.697893</ele>
        <time>2020-09-22T11:22:19.393Z</time>
      </trkpt>
      <trkpt lat="66.00712" lon="21.10783">
        <ele>91.668935</ele>
        <time>2020-09-22T11:22:22.417Z</time>
      </trkpt>
      <trkpt lat="66.00707" lon="21.10804">
        <ele>91.639918</ele>
        <time>2020-09-22T11:22:25.413Z</time>
      </trkpt>
      <trkpt lat="66.00703" lon="21.10829">
        <ele>91.607906</ele>
        <time>2020-09-22T11:22:28.423Z</time>
      </trkpt>
      <trkpt lat="66.00698" lon="21.10854">
        <ele>91.575757</ele>
        <time>2020-09-22T11:22:31.436Z</time>
      </trkpt>
      <trkpt lat="66.00693" lon="21.1088">
        <ele>91.542304</ele>
        <time>2020-09-22T11:22:34.413Z</time>
      </trkpt>
      <trkpt lat="66.00688" lon="21.10906">
        <ele>91.508668</ele>
        <time>2020-09-22T11:22:37.393Z</time>
      </trkpt>
      <trkpt lat="66.00682" lon="21.1093">
        <ele>91.475188</ele>
        <time>2020-09-22T11:22:40.429Z</time>
      </trkpt>
      <trkpt lat="66.00676" lon="21.10956">
        <ele>91.440407</ele>
        <time>2020-09-22T11:22:43.441Z</time>
      </trkpt>
      <trkpt lat="66.0067" lon="21.10983">
        <ele>91.403781</ele>
        <time>2020-09-22T11:22:46.425Z</time>
      </trkpt>
      <trkpt lat="66.00663" lon="21.11011">
        <ele>91.366751</ele>
        <time>2020-09-22T11:22:49.401Z</time>
      </trkpt>
      <trkpt lat="66.00658" lon="21.1103">
        <ele>91.340819</ele>
        <time>2020-09-22T11:22:51.407Z</time>
      </trkpt>
      <trkpt lat="66.00652" lon="21.11058">
        <ele>91.302083</ele>
        <time>2020-09-22T11:22:54.413Z</time>
      </trkpt>
      <trkpt lat="66.00647" lon="21.11078">
        <ele>91.275672</ele>
        <time>2020-09-22T11:22:56.433Z</time>
      </trkpt>
      <trkpt lat="66.00643" lon="21.11098">
        <ele>91.220748</ele>
        <time>2020-09-22T11:22:58.384Z</time>
      </trkpt>
      <trkpt lat="66.00637" lon="21.11128">
        <ele>91.011075</ele>
        <time>2020-09-22T11:23:01.400Z</time>
      </trkpt>
      <trkpt lat="66.00631" lon="21.11156">
        <ele>90.807532</ele>
        <time>2020-09-22T11:23:04.398Z</time>
      </trkpt>
      <trkpt lat="66.00625" lon="21.11185">
        <ele>90.597237</ele>
        <time>2020-09-22T11:23:07.390Z</time>
      </trkpt>
      <trkpt lat="66.00619" lon="21.1121">
        <ele>90.408355</ele>
        <time>2020-09-22T11:23:10.445Z</time>
      </trkpt>
      <trkpt lat="66.00613" lon="21.11235">
        <ele>90.22632</ele>
        <time>2020-09-22T11:23:13.409Z</time>
      </trkpt>
      <trkpt lat="66.00608" lon="21.11259">
        <ele>90.050169</ele>
        <time>2020-09-22T11:23:16.420Z</time>
      </trkpt>
      <trkpt lat="66.00603" lon="21.11283">
        <ele>89.877561</ele>
        <time>2020-09-22T11:23:19.390Z</time>
      </trkpt>
      <trkpt lat="66.00598" lon="21.11306">
        <ele>89.705701</ele>
        <time>2020-09-22T11:23:22.405Z</time>
      </trkpt>
      <trkpt lat="66.00593" lon="21.11327">
        <ele>89.548092</ele>
        <time>2020-09-22T11:23:25.412Z</time>
      </trkpt>
      <trkpt lat="66.00589" lon="21.11349">
        <ele>89.394128</ele>
        <time>2020-09-22T11:23:28.417Z</time>
      </trkpt>
      <trkpt lat="66.00585" lon="21.1137">
        <ele>89.248183</ele>
        <time>2020-09-22T11:23:31.393Z</time>
      </trkpt>
      <trkpt lat="66.00581" lon="21.11391">
        <ele>89.100308</ele>
        <time>2020-09-22T11:23:34.431Z</time>
      </trkpt>
      <trkpt lat="66.00577" lon="21.11411">
        <ele>88.951086</ele>
        <time>2020-09-22T11:23:37.398Z</time>
      </trkpt>
      <trkpt lat="66.00573" lon="21.11431">
        <ele>88.807055</ele>
        <time>2020-09-22T11:23:40.420Z</time>
      </trkpt>
      <trkpt lat="66.00569" lon="21.11453">
        <ele>88.654348</ele>
        <time>2020-09-22T11:23:43.405Z</time>
      </trkpt>
      <trkpt lat="66.00565" lon="21.11475">
        <ele>88.502439</ele>
        <time>2020-09-22T11:23:46.403Z</time>
      </trkpt>
      <trkpt lat="66.00561" lon="21.11494">
        <ele>88.42467</ele>
        <time>2020-09-22T11:23:49.422Z</time>
      </trkpt>
      <trkpt lat="66.00556" lon="21.11514">
        <ele>88.462368</ele>
        <time>2020-09-22T11:23:52.396Z</time>
      </trkpt>
      <trkpt lat="66.00551" lon="21.11534">
        <ele>88.501569</ele>
        <time>2020-09-22T11:23:55.395Z</time>
      </trkpt>
      <trkpt lat="66.00547" lon="21.11555">
        <ele>88.540559</ele>
        <time>2020-09-22T11:23:58.418Z</time>
      </trkpt>
      <trkpt lat="66.00543" lon="21.11576">
        <ele>88.581375</ele>
        <time>2020-09-22T11:24:01.391Z</time>
      </trkpt>
      <trkpt lat="66.00538" lon="21.11599">
        <ele>88.624071</ele>
        <time>2020-09-22T11:24:04.423Z</time>
      </trkpt>
      <trkpt lat="66.00534" lon="21.11621">
        <ele>88.665381</ele>
        <time>2020-09-22T11:24:07.421Z</time>
      </trkpt>
      <trkpt lat="66.00529" lon="21.11644">
        <ele>88.708569</ele>
        <time>2020-09-22T11:24:10.412Z</time>
      </trkpt>
      <trkpt lat="66.00525" lon="21.11668">
        <ele>88.752853</ele>
        <time>2020-09-22T11:24:13.392Z</time>
      </trkpt>
      <trkpt lat="66.0052" lon="21.11692">
        <ele>88.798693</ele>
        <time>2020-09-22T11:24:16.444Z</time>
      </trkpt>
      <trkpt lat="66.00516" lon="21.1172">
        <ele>88.848262</ele>
        <time>2020-09-22T11:24:19.392Z</time>
      </trkpt>
      <trkpt lat="66.00511" lon="21.11748">
        <ele>88.89955</ele>
        <time>2020-09-22T11:24:22.422Z</time>
      </trkpt>
      <trkpt lat="66.00507" lon="21.11777">
        <ele>88.95172</ele>
        <time>2020-09-22T11:24:25.418Z</time>
      </trkpt>
      <trkpt lat="66.00504" lon="21.11807">
        <ele>89.004799</ele>
        <time>2020-09-22T11:24:28.411Z</time>
      </trkpt>
      <trkpt lat="66.00501" lon="21.11829">
        <ele>89.042779</ele>
        <time>2020-09-22T11:24:30.393Z</time>
      </trkpt>
      <trkpt lat="66.00499" lon="21.11852">
        <ele>89.08276</ele>
        <time>2020-09-22T11:24:32.401Z</time>
      </trkpt>
      <trkpt lat="66.00497" lon="21.11876">
        <ele>89.124363</ele>
        <time>2020-09-22T11:24:34.412Z</time>
      </trkpt>
      <trkpt lat="66.00496" lon="21.119">
        <ele>89.078359</ele>
        <time>2020-09-22T11:24:36.418Z</time>
      </trkpt>
      <trkpt lat="66.00494" lon="21.11924">
        <ele>88.672832</ele>
        <time>2020-09-22T11:24:38.411Z</time>
      </trkpt>
      <trkpt lat="66.00492" lon="21.11949">
        <ele>88.246024</ele>
        <time>2020-09-22T11:24:40.423Z</time>
      </trkpt>
      <trkpt lat="66.0049" lon="21.11977">
        <ele>87.761789</ele>
        <time>2020-09-22T11:24:42.414Z</time>
      </trkpt>
      <trkpt lat="66.00489" lon="21.1201">
        <ele>87.205933</ele>
        <time>2020-09-22T11:24:44.414Z</time>
      </trkpt>
      <trkpt lat="66.00487" lon="21.12044">
        <ele>86.631441</ele>
        <time>2020-09-22T11:24:46.400Z</time>
      </trkpt>
      <trkpt lat="66.00486" lon="21.12077">
        <ele>86.076497</ele>
        <time>2020-09-22T11:24:48.429Z</time>
      </trkpt>
      <trkpt lat="66.00485" lon="21.12108">
        <ele>85.554678</ele>
        <time>2020-09-22T11:24:50.405Z</time>
      </trkpt>
      <trkpt lat="66.00484" lon="21.12138">
        <ele>85.049522</ele>
        <time>2020-09-22T11:24:52.396Z</time>
      </trkpt>
      <trkpt lat="66.00484" lon="21.12165">
        <ele>84.587996</ele>
        <time>2020-09-22T11:24:54.443Z</time>
      </trkpt>
      <trkpt lat="66.00483" lon="21.1219">
        <ele>84.166424</ele>
        <time>2020-09-22T11:24:56.394Z</time>
      </trkpt>
      <trkpt lat="66.00482" lon="21.12214">
        <ele>83.76085</ele>
        <time>2020-09-22T11:24:58.403Z</time>
      </trkpt>
      <trkpt lat="66.00481" lon="21.12239">
        <ele>83.34481</ele>
        <time>2020-09-22T11:25:00.415Z</time>
      </trkpt>
      <trkpt lat="66.0048" lon="21.12266">
        <ele>82.891554</ele>
        <time>2020-09-22T11:25:02.434Z</time>
      </trkpt>
      <trkpt lat="66.00478" lon="21.12295">
        <ele>82.395226</ele>
        <time>2020-09-22T11:25:04.410Z</time>
      </trkpt>
      <trkpt lat="66.00477" lon="21.12328">
        <ele>81.842888</ele>
        <time>2020-09-22T11:25:06.394Z</time>
      </trkpt>
      <trkpt lat="66.00476" lon="21.12363">
        <ele>81.567239</ele>
        <time>2020-09-22T11:25:08.417Z</time>
      </trkpt>
      <trkpt lat="66.00474" lon="21.124">
        <ele>81.36078</ele>
        <time>2020-09-22T11:25:10.398Z</time>
      </trkpt>
      <trkpt lat="66.00472" lon="21.12437">
        <ele>81.155422</ele>
        <time>2020-09-22T11:25:12.390Z</time>
      </trkpt>
      <trkpt lat="66.0047" lon="21.12472">
        <ele>80.958502</ele>
        <time>2020-09-22T11:25:14.409Z</time>
      </trkpt>
      <trkpt lat="66.00468" lon="21.12503">
        <ele>80.781422</ele>
        <time>2020-09-22T11:25:16.394Z</time>
      </trkpt>
      <trkpt lat="66.00466" lon="21.12532">
        <ele>80.62053</ele>
        <time>2020-09-22T11:25:18.417Z</time>
      </trkpt>
      <trkpt lat="66.00464" lon="21.12559">
        <ele>80.470034</ele>
        <time>2020-09-22T11:25:20.432Z</time>
      </trkpt>
      <trkpt lat="66.00462" lon="21.12584">
        <ele>80.331003</ele>
        <time>2020-09-22T11:25:22.417Z</time>
      </trkpt>
      <trkpt lat="66.00461" lon="21.12607">
        <ele>80.198758</ele>
        <time>2020-09-22T11:25:24.392Z</time>
      </trkpt>
      <trkpt lat="66.00459" lon="21.12632">
        <ele>80.061054</ele>
        <time>2020-09-22T11:25:26.422Z</time>
      </trkpt>
      <trkpt lat="66.00457" lon="21.12657">
        <ele>79.919296</ele>
        <time>2020-09-22T11:25:28.406Z</time>
      </trkpt>
      <trkpt lat="66.00455" lon="21.12682">
        <ele>79.778401</ele>
        <time>2020-09-22T11:25:30.402Z</time>
      </trkpt>
      <trkpt lat="66.00453" lon="21.12705">
        <ele>79.644482</ele>
        <time>2020-09-22T11:25:32.443Z</time>
      </trkpt>
      <trkpt lat="66.00451" lon="21.12728">
        <ele>79.514711</ele>
        <time>2020-09-22T11:25:34.388Z</time>
      </trkpt>
      <trkpt lat="66.00448" lon="21.1275">
        <ele>79.386708</ele>
        <time>2020-09-22T11:25:36.428Z</time>
      </trkpt>
      <trkpt lat="66.00446" lon="21.12773">
        <ele>79.274309</ele>
        <time>2020-09-22T11:25:38.432Z</time>
      </trkpt>
      <trkpt lat="66.00444" lon="21.12795">
        <ele>79.303754</ele>
        <time>2020-09-22T11:25:40.411Z</time>
      </trkpt>
      <trkpt lat="66.00441" lon="21.12818">
        <ele>79.332954</ele>
        <time>2020-09-22T11:25:42.388Z</time>
      </trkpt>
      <trkpt lat="66.00438" lon="21.12839">
        <ele>79.361653</ele>
        <time>2020-09-22T11:25:44.422Z</time>
      </trkpt>
      <trkpt lat="66.00436" lon="21.12862">
        <ele>79.391527</ele>
        <time>2020-09-22T11:25:46.415Z</time>
      </trkpt>
      <trkpt lat="66.00433" lon="21.12885">
        <ele>79.421975</ele>
        <time>2020-09-22T11:25:48.410Z</time>
      </trkpt>
      <trkpt lat="66.00429" lon="21.12909">
        <ele>79.454151</ele>
        <time>2020-09-22T11:25:50.408Z</time>
      </trkpt>
      <trkpt lat="66.00426" lon="21.12934">
        <ele>79.486647</ele>
        <time>2020-09-22T11:25:52.392Z</time>
      </trkpt>
      <trkpt lat="66.00422" lon="21.12959">
        <ele>79.520631</ele>
        <time>2020-09-22T11:25:54.385Z</time>
      </trkpt>
      <trkpt lat="66.00418" lon="21.12984">
        <ele>79.554393</ele>
        <time>2020-09-22T11:25:56.409Z</time>
      </trkpt>
      <trkpt lat="66.00414" lon="21.13009">
        <ele>79.58842</ele>
        <time>2020-09-22T11:25:58.392Z</time>
      </trkpt>
      <trkpt lat="66.00411" lon="21.13035">
        <ele>79.623367</ele>
        <time>2020-09-22T11:26:00.416Z</time>
      </trkpt>
      <trkpt lat="66.00407" lon="21.13061">
        <ele>79.656647</ele>
        <time>2020-09-22T11:26:02.438Z</time>
      </trkpt>
      <trkpt lat="66.00404" lon="21.13086">
        <ele>79.690236</ele>
        <time>2020-09-22T11:26:04.399Z</time>
      </trkpt>
      <trkpt lat="66.004" lon="21.1311">
        <ele>79.723753</ele>
        <time>2020-09-22T11:26:06.410Z</time>
      </trkpt>
      <trkpt lat="66.00397" lon="21.13134">
        <ele>79.755352</ele>
        <time>2020-09-22T11:26:08.400Z</time>
      </trkpt>
      <trkpt lat="66.00393" lon="21.13159">
        <ele>79.78875</ele>
        <time>2020-09-22T11:26:10.396Z</time>
      </trkpt>
      <trkpt lat="66.00389" lon="21.13183">
        <ele>79.821352</ele>
        <time>2020-09-22T11:26:12.419Z</time>
      </trkpt>
      <trkpt lat="66.00386" lon="21.13207">
        <ele>80.021749</ele>
        <time>2020-09-22T11:26:14.399Z</time>
      </trkpt>
      <trkpt lat="66.00383" lon="21.1323">
        <ele>80.266424</ele>
        <time>2020-09-22T11:26:16.418Z</time>
      </trkpt>
      <trkpt lat="66.0038" lon="21.13253">
        <ele>80.499459</ele>
        <time>2020-09-22T11:26:18.401Z</time>
      </trkpt>
      <trkpt lat="66.00377" lon="21.13275">
        <ele>80.731939</ele>
        <time>2020-09-22T11:26:20.410Z</time>
      </trkpt>
      <trkpt lat="66.00375" lon="21.13297">
        <ele>80.957417</ele>
        <time>2020-09-22T11:26:22.399Z</time>
      </trkpt>
      <trkpt lat="66.00371" lon="21.13325">
        <ele>81.25696</ele>
        <time>2020-09-22T11:26:25.409Z</time>
      </trkpt>
      <trkpt lat="66.00367" lon="21.13352">
        <ele>81.548903</ele>
        <time>2020-09-22T11:26:28.418Z</time>
      </trkpt>
      <trkpt lat="66.00363" lon="21.1338">
        <ele>81.843042</ele>
        <time>2020-09-22T11:26:31.413Z</time>
      </trkpt>
      <trkpt lat="66.00359" lon="21.13408">
        <ele>82.140967</ele>
        <time>2020-09-22T11:26:34.421Z</time>
      </trkpt>
      <trkpt lat="66.00355" lon="21.13436">
        <ele>82.442203</ele>
        <time>2020-09-22T11:26:37.397Z</time>
      </trkpt>
      <trkpt lat="66.00351" lon="21.13465">
        <ele>82.739346</ele>
        <time>2020-09-22T11:26:40.418Z</time>
      </trkpt>
      <trkpt lat="66.00348" lon="21.13493">
        <ele>83.0296</ele>
        <time>2020-09-22T11:26:43.405Z</time>
      </trkpt>
      <trkpt lat="66.00344" lon="21.13521">
        <ele>83.326744</ele>
        <time>2020-09-22T11:26:46.398Z</time>
      </trkpt>
      <trkpt lat="66.0034" lon="21.13547">
        <ele>83.599915</ele>
        <time>2020-09-22T11:26:49.395Z</time>
      </trkpt>
      <trkpt lat="66.00337" lon="21.13574">
        <ele>83.88527</ele>
        <time>2020-09-22T11:26:52.432Z</time>
      </trkpt>
      <trkpt lat="66.00333" lon="21.13603">
        <ele>84.192135</ele>
        <time>2020-09-22T11:26:55.413Z</time>
      </trkpt>
      <trkpt lat="66.00328" lon="21.13634">
        <ele>84.52093</ele>
        <time>2020-09-22T11:26:58.427Z</time>
      </trkpt>
      <trkpt lat="66.00325" lon="21.13655">
        <ele>84.751613</ele>
        <time>2020-09-22T11:27:00.396Z</time>
      </trkpt>
      <trkpt lat="66.00322" lon="21.13678">
        <ele>85.004071</ele>
        <time>2020-09-22T11:27:02.392Z</time>
      </trkpt>
      <trkpt lat="66.00319" lon="21.13701">
        <ele>85.241624</ele>
        <time>2020-09-22T11:27:04.388Z</time>
      </trkpt>
      <trkpt lat="66.00316" lon="21.13722">
        <ele>85.471091</ele>
        <time>2020-09-22T11:27:06.413Z</time>
      </trkpt>
      <trkpt lat="66.00312" lon="21.13753">
        <ele>85.797803</ele>
        <time>2020-09-22T11:27:09.403Z</time>
      </trkpt>
      <trkpt lat="66.00308" lon="21.13782">
        <ele>86.116662</ele>
        <time>2020-09-22T11:27:12.417Z</time>
      </trkpt>
      <trkpt lat="66.00304" lon="21.13811">
        <ele>86.41737</ele>
        <time>2020-09-22T11:27:15.403Z</time>
      </trkpt>
      <trkpt lat="66.003" lon="21.1384">
        <ele>86.730103</ele>
        <time>2020-09-22T11:27:18.404Z</time>
      </trkpt>
      <trkpt lat="66.00296" lon="21.13869">
        <ele>87.04456</ele>
        <time>2020-09-22T11:27:21.399Z</time>
      </trkpt>
      <trkpt lat="66.00293" lon="21.13899">
        <ele>87.357898</ele>
        <time>2020-09-22T11:27:24.411Z</time>
      </trkpt>
      <trkpt lat="66.0029" lon="21.13928">
        <ele>87.664012</ele>
        <time>2020-09-22T11:27:27.406Z</time>
      </trkpt>
      <trkpt lat="66.00286" lon="21.13959">
        <ele>88.000175</ele>
        <time>2020-09-22T11:27:30.407Z</time>
      </trkpt>
      <trkpt lat="66.00281" lon="21.13991">
        <ele>88.338936</ele>
        <time>2020-09-22T11:27:33.393Z</time>
      </trkpt>
      <trkpt lat="66.00279" lon="21.14015">
        <ele>88.586586</ele>
        <time>2020-09-22T11:27:35.421Z</time>
      </trkpt>
      <trkpt lat="66.00276" lon="21.14039">
        <ele>88.807024</ele>
        <time>2020-09-22T11:27:37.403Z</time>
      </trkpt>
      <trkpt lat="66.00272" lon="21.14064">
        <ele>88.972268</ele>
        <time>2020-09-22T11:27:39.440Z</time>
      </trkpt>
      <trkpt lat="66.00268" lon="21.1409">
        <ele>89.140568</ele>
        <time>2020-09-22T11:27:41.392Z</time>
      </trkpt>
      <trkpt lat="66.00265" lon="21.14116">
        <ele>89.310545</ele>
        <time>2020-09-22T11:27:43.390Z</time>
      </trkpt>
      <trkpt lat="66.00261" lon="21.14142">
        <ele>89.487338</ele>
        <time>2020-09-22T11:27:45.436Z</time>
      </trkpt>
      <trkpt lat="66.00257" lon="21.1417">
        <ele>89.665542</ele>
        <time>2020-09-22T11:27:47.402Z</time>
      </trkpt>
      <trkpt lat="66.00253" lon="21.14198">
        <ele>89.849187</ele>
        <time>2020-09-22T11:27:49.393Z</time>
      </trkpt>
      <trkpt lat="66.0025" lon="21.14225">
        <ele>90.028971</ele>
        <time>2020-09-22T11:27:51.414Z</time>
      </trkpt>
      <trkpt lat="66.00246" lon="21.1425">
        <ele>90.190509</ele>
        <time>2020-09-22T11:27:53.390Z</time>
      </trkpt>
      <trkpt lat="66.00244" lon="21.14273">
        <ele>90.337442</ele>
        <time>2020-09-22T11:27:55.422Z</time>
      </trkpt>
      <trkpt lat="66.00241" lon="21.14295">
        <ele>90.48137</ele>
        <time>2020-09-22T11:27:57.397Z</time>
      </trkpt>
      <trkpt lat="66.00238" lon="21.14324">
        <ele>90.667982</ele>
        <time>2020-09-22T11:28:00.403Z</time>
      </trkpt>
      <trkpt lat="66.00234" lon="21.14347">
        <ele>90.824646</ele>
        <time>2020-09-22T11:28:03.416Z</time>
      </trkpt>
      <trkpt lat="66.00231" lon="21.14374">
        <ele>90.995523</ele>
        <time>2020-09-22T11:28:07.400Z</time>
      </trkpt>
      <trkpt lat="66.00227" lon="21.14398">
        <ele>91.159025</ele>
        <time>2020-09-22T11:28:11.401Z</time>
      </trkpt>
      <trkpt lat="66.00224" lon="21.14421">
        <ele>91.312731</ele>
        <time>2020-09-22T11:28:15.392Z</time>
      </trkpt>
      <trkpt lat="66.0022" lon="21.14446">
        <ele>91.472905</ele>
        <time>2020-09-22T11:28:19.420Z</time>
      </trkpt>
      <trkpt lat="66.00216" lon="21.1447">
        <ele>91.831175</ele>
        <time>2020-09-22T11:28:23.438Z</time>
      </trkpt>
      <trkpt lat="66.00214" lon="21.14493">
        <ele>92.187084</ele>
        <time>2020-09-22T11:28:27.394Z</time>
      </trkpt>
      <trkpt lat="66.00211" lon="21.14514">
        <ele>92.514631</ele>
        <time>2020-09-22T11:28:31.391Z</time>
      </trkpt>
      <trkpt lat="66.00207" lon="21.14537">
        <ele>92.879607</ele>
        <time>2020-09-22T11:28:35.435Z</time>
      </trkpt>
      <trkpt lat="66.00204" lon="21.1456">
        <ele>93.245176</ele>
        <time>2020-09-22T11:28:39.415Z</time>
      </trkpt>
      <trkpt lat="66.002" lon="21.14582">
        <ele>93.586851</ele>
        <time>2020-09-22T11:28:43.393Z</time>
      </trkpt>
      <trkpt lat="66.00197" lon="21.14605">
        <ele>93.951882</ele>
        <time>2020-09-22T11:28:47.422Z</time>
      </trkpt>
      <trkpt lat="66.00194" lon="21.1463">
        <ele>94.339983</ele>
        <time>2020-09-22T11:28:51.422Z</time>
      </trkpt>
      <trkpt lat="66.00189" lon="21.14656">
        <ele>94.759728</ele>
        <time>2020-09-22T11:28:55.411Z</time>
      </trkpt>
      <trkpt lat="66.00185" lon="21.14683">
        <ele>95.189114</ele>
        <time>2020-09-22T11:28:59.415Z</time>
      </trkpt>
      <trkpt lat="66.00181" lon="21.14704">
        <ele>95.532091</ele>
        <time>2020-09-22T11:29:02.397Z</time>
      </trkpt>
      <trkpt lat="66.00177" lon="21.14731">
        <ele>95.948387</ele>
        <time>2020-09-22T11:29:06.414Z</time>
      </trkpt>
      <trkpt lat="66.00174" lon="21.14756">
        <ele>96.34271</ele>
        <time>2020-09-22T11:29:10.392Z</time>
      </trkpt>
      <trkpt lat="66.00171" lon="21.1478">
        <ele>96.718124</ele>
        <time>2020-09-22T11:29:14.395Z</time>
      </trkpt>
      <trkpt lat="66.00168" lon="21.14805">
        <ele>97.094179</ele>
        <time>2020-09-22T11:29:18.399Z</time>
      </trkpt>
      <trkpt lat="66.00165" lon="21.14829">
        <ele>97.473882</ele>
        <time>2020-09-22T11:29:22.411Z</time>
      </trkpt>
      <trkpt lat="66.00162" lon="21.14855">
        <ele>97.878622</ele>
        <time>2020-09-22T11:29:26.394Z</time>
      </trkpt>
      <trkpt lat="66.00159" lon="21.1488">
        <ele>98.11454</ele>
        <time>2020-09-22T11:29:30.396Z</time>
      </trkpt>
      <trkpt lat="66.00155" lon="21.14904">
        <ele>98.237503</ele>
        <time>2020-09-22T11:29:34.392Z</time>
      </trkpt>
      <trkpt lat="66.00152" lon="21.1493">
        <ele>98.370647</ele>
        <time>2020-09-22T11:29:38.395Z</time>
      </trkpt>
      <trkpt lat="66.00149" lon="21.14953">
        <ele>98.488676</ele>
        <time>2020-09-22T11:29:42.397Z</time>
      </trkpt>
      <trkpt lat="66.00147" lon="21.14976">
        <ele>98.60593</ele>
        <time>2020-09-22T11:29:46.428Z</time>
      </trkpt>
      <trkpt lat="66.00144" lon="21.15">
        <ele>98.724456</ele>
        <time>2020-09-22T11:29:50.399Z</time>
      </trkpt>
      <trkpt lat="66.00141" lon="21.15023">
        <ele>98.847126</ele>
        <time>2020-09-22T11:29:54.404Z</time>
      </trkpt>
      <trkpt lat="66.00137" lon="21.15048">
        <ele>98.974339</ele>
        <time>2020-09-22T11:29:58.411Z</time>
      </trkpt>
      <trkpt lat="66.00134" lon="21.15073">
        <ele>99.100804</ele>
        <time>2020-09-22T11:30:02.397Z</time>
      </trkpt>
      <trkpt lat="66.0013" lon="21.15098">
        <ele>99.233293</ele>
        <time>2020-09-22T11:30:06.416Z</time>
      </trkpt>
      <trkpt lat="66.00127" lon="21.1512">
        <ele>99.342034</ele>
        <time>2020-09-22T11:30:09.385Z</time>
      </trkpt>
      <trkpt lat="66.00124" lon="21.15142">
        <ele>99.456081</ele>
        <time>2020-09-22T11:30:12.406Z</time>
      </trkpt>
      <trkpt lat="66.00121" lon="21.15163">
        <ele>99.566048</ele>
        <time>2020-09-22T11:30:15.399Z</time>
      </trkpt>
      <trkpt lat="66.00119" lon="21.15184">
        <ele>99.674425</ele>
        <time>2020-09-22T11:30:18.400Z</time>
      </trkpt>
      <trkpt lat="66.00115" lon="21.15209">
        <ele>99.800796</ele>
        <time>2020-09-22T11:30:22.445Z</time>
      </trkpt>
      <trkpt lat="66.00112" lon="21.15232">
        <ele>99.919848</ele>
        <time>2020-09-22T11:30:26.449Z</time>
      </trkpt>
      <trkpt lat="66.00108" lon="21.15256">
        <ele>100.044184</ele>
        <time>2020-09-22T11:30:30.415Z</time>
      </trkpt>
      <trkpt lat="66.00105" lon="21.15281">
        <ele>100.170757</ele>
        <time>2020-09-22T11:30:34.420Z</time>
      </trkpt>
      <trkpt lat="66.00103" lon="21.15305">
        <ele>100.607634</ele>
        <time>2020-09-22T11:30:38.417Z</time>
      </trkpt>
      <trkpt lat="66.00101" lon="21.15327">
        <ele>101.092588</ele>
        <time>2020-09-22T11:30:42.428Z</time>
      </trkpt>
      <trkpt lat="66.00098" lon="21.15348">
        <ele>101.579448</ele>
        <time>2020-09-22T11:30:46.411Z</time>
      </trkpt>
      <trkpt lat="66.00094" lon="21.1537">
        <ele>102.064836</ele>
        <time>2020-09-22T11:30:50.396Z</time>
      </trkpt>
      <trkpt lat="66.00091" lon="21.15393">
        <ele>102.58741</ele>
        <time>2020-09-22T11:30:54.395Z</time>
      </trkpt>
      <trkpt lat="66.00087" lon="21.15417">
        <ele>103.123315</ele>
        <time>2020-09-22T11:30:58.390Z</time>
      </trkpt>
      <trkpt lat="66.00084" lon="21.15438">
        <ele>103.612096</ele>
        <time>2020-09-22T11:31:02.412Z</time>
      </trkpt>
      <trkpt lat="66.0008" lon="21.15458">
        <ele>104.081391</ele>
        <time>2020-09-22T11:31:06.421Z</time>
      </trkpt>
      <trkpt lat="66.00076" lon="21.15482">
        <ele>104.633263</ele>
        <time>2020-09-22T11:31:11.400Z</time>
      </trkpt>
      <trkpt lat="66.00072" lon="21.15505">
        <ele>105.163478</ele>
        <time>2020-09-22T11:31:16.396Z</time>
      </trkpt>
      <trkpt lat="66.00067" lon="21.15529">
        <ele>105.733686</ele>
        <time>2020-09-22T11:31:21.407Z</time>
      </trkpt>
      <trkpt lat="66.00062" lon="21.15554">
        <ele>106.31323</ele>
        <time>2020-09-22T11:31:26.443Z</time>
      </trkpt>
      <trkpt lat="66.00058" lon="21.15578">
        <ele>106.868177</ele>
        <time>2020-09-22T11:31:31.418Z</time>
      </trkpt>
      <trkpt lat="66.00054" lon="21.15599">
        <ele>107.349449</ele>
        <time>2020-09-22T11:31:35.403Z</time>
      </trkpt>
      <trkpt lat="66.00049" lon="21.15622">
        <ele>107.906717</ele>
        <time>2020-09-22T11:31:39.433Z</time>
      </trkpt>
      <trkpt lat="66.00044" lon="21.15645">
        <ele>108.453185</ele>
        <time>2020-09-22T11:31:43.416Z</time>
      </trkpt>
      <trkpt lat="66.0004" lon="21.15666">
        <ele>108.952278</ele>
        <time>2020-09-22T11:31:47.409Z</time>
      </trkpt>
      <trkpt lat="66.00035" lon="21.15687">
        <ele>109.466457</ele>
        <time>2020-09-22T11:31:51.396Z</time>
      </trkpt>
      <trkpt lat="66.0003" lon="21.15708">
        <ele>109.879122</ele>
        <time>2020-09-22T11:31:55.402Z</time>
      </trkpt>
      <trkpt lat="66.00024" lon="21.1573">
        <ele>110.318732</ele>
        <time>2020-09-22T11:31:59.397Z</time>
      </trkpt>
      <trkpt lat="66.00017" lon="21.15748">
        <ele>110.687468</ele>
        <time>2020-09-22T11:32:02.400Z</time>
      </trkpt>
      <trkpt lat="66.00012" lon="21.15765">
        <ele>111.039886</ele>
        <time>2020-09-22T11:32:05.400Z</time>
      </trkpt>
      <trkpt lat="66.00005" lon="21.15782">
        <ele>111.424526</ele>
        <time>2020-09-22T11:32:08.433Z</time>
      </trkpt>
      <trkpt lat="65.99999" lon="21.15798">
        <ele>111.777216</ele>
        <time>2020-09-22T11:32:11.417Z</time>
      </trkpt>
      <trkpt lat="65.99993" lon="21.15815">
        <ele>112.133358</ele>
        <time>2020-09-22T11:32:14.433Z</time>
      </trkpt>
      <trkpt lat="65.99987" lon="21.15833">
        <ele>112.499527</ele>
        <time>2020-09-22T11:32:17.403Z</time>
      </trkpt>
      <trkpt lat="65.9998" lon="21.15852">
        <ele>112.891515</ele>
        <time>2020-09-22T11:32:20.421Z</time>
      </trkpt>
      <trkpt lat="65.99974" lon="21.15869">
        <ele>113.26132</ele>
        <time>2020-09-22T11:32:23.410Z</time>
      </trkpt>
      <trkpt lat="65.99968" lon="21.15889">
        <ele>113.660732</ele>
        <time>2020-09-22T11:32:26.393Z</time>
      </trkpt>
      <trkpt lat="65.9996" lon="21.15912">
        <ele>114.133129</ele>
        <time>2020-09-22T11:32:30.444Z</time>
      </trkpt>
      <trkpt lat="65.99953" lon="21.15934">
        <ele>114.590707</ele>
        <time>2020-09-22T11:32:34.421Z</time>
      </trkpt>
      <trkpt lat="65.99945" lon="21.15956">
        <ele>115.043417</ele>
        <time>2020-09-22T11:32:38.411Z</time>
      </trkpt>
      <trkpt lat="65.99939" lon="21.15976">
        <ele>115.445395</ele>
        <time>2020-09-22T11:32:42.398Z</time>
      </trkpt>
      <trkpt lat="65.99933" lon="21.15995">
        <ele>115.832499</ele>
        <time>2020-09-22T11:32:46.392Z</time>
      </trkpt>
      <trkpt lat="65.99926" lon="21.16016">
        <ele>116.264071</ele>
        <time>2020-09-22T11:32:50.399Z</time>
      </trkpt>
      <trkpt lat="65.99919" lon="21.16034">
        <ele>116.601064</ele>
        <time>2020-09-22T11:32:54.414Z</time>
      </trkpt>
      <trkpt lat="65.99912" lon="21.16055">
        <ele>116.407889</ele>
        <time>2020-09-22T11:32:58.407Z</time>
      </trkpt>
      <trkpt lat="65.99905" lon="21.16074">
        <ele>116.222735</ele>
        <time>2020-09-22T11:33:02.395Z</time>
      </trkpt>
      <trkpt lat="65.99899" lon="21.16099">
        <ele>116.012072</ele>
        <time>2020-09-22T11:33:06.401Z</time>
      </trkpt>
      <trkpt lat="65.99893" lon="21.16118">
        <ele>115.848199</ele>
        <time>2020-09-22T11:33:09.392Z</time>
      </trkpt>
      <trkpt lat="65.99889" lon="21.16138">
        <ele>115.679807</ele>
        <time>2020-09-22T11:33:12.419Z</time>
      </trkpt>
      <trkpt lat="65.99883" lon="21.16161">
        <ele>115.486685</ele>
        <time>2020-09-22T11:33:15.400Z</time>
      </trkpt>
      <trkpt lat="65.99876" lon="21.16186">
        <ele>115.273486</ele>
        <time>2020-09-22T11:33:18.410Z</time>
      </trkpt>
      <trkpt lat="65.9987" lon="21.16215">
        <ele>115.03529</ele>
        <time>2020-09-22T11:33:21.437Z</time>
      </trkpt>
      <trkpt lat="65.99866" lon="21.16238">
        <ele>114.853501</ele>
        <time>2020-09-22T11:33:23.397Z</time>
      </trkpt>
      <trkpt lat="65.99861" lon="21.16262">
        <ele>114.670475</ele>
        <time>2020-09-22T11:33:25.397Z</time>
      </trkpt>
      <trkpt lat="65.99857" lon="21.16287">
        <ele>114.470282</ele>
        <time>2020-09-22T11:33:27.406Z</time>
      </trkpt>
      <trkpt lat="65.99853" lon="21.16317">
        <ele>114.24671</ele>
        <time>2020-09-22T11:33:29.399Z</time>
      </trkpt>
      <trkpt lat="65.99848" lon="21.16349">
        <ele>114.002575</ele>
        <time>2020-09-22T11:33:31.414Z</time>
      </trkpt>
      <trkpt lat="65.99843" lon="21.1638">
        <ele>113.765161</ele>
        <time>2020-09-22T11:33:33.399Z</time>
      </trkpt>
      <trkpt lat="65.99839" lon="21.16408">
        <ele>113.549055</ele>
        <time>2020-09-22T11:33:35.409Z</time>
      </trkpt>
      <trkpt lat="65.99835" lon="21.16432">
        <ele>113.092893</ele>
        <time>2020-09-22T11:33:37.421Z</time>
      </trkpt>
      <trkpt lat="65.99831" lon="21.16452">
        <ele>112.459315</ele>
        <time>2020-09-22T11:33:39.432Z</time>
      </trkpt>
      <trkpt lat="65.99826" lon="21.16479">
        <ele>111.607954</ele>
        <time>2020-09-22T11:33:42.429Z</time>
      </trkpt>
      <trkpt lat="65.99822" lon="21.16506">
        <ele>110.810935</ele>
        <time>2020-09-22T11:33:45.399Z</time>
      </trkpt>
      <trkpt lat="65.99819" lon="21.16532">
        <ele>110.018376</ele>
        <time>2020-09-22T11:33:48.414Z</time>
      </trkpt>
      <trkpt lat="65.99815" lon="21.16559">
        <ele>109.217669</ele>
        <time>2020-09-22T11:33:51.395Z</time>
      </trkpt>
      <trkpt lat="65.99812" lon="21.16586">
        <ele>108.410224</ele>
        <time>2020-09-22T11:33:54.412Z</time>
      </trkpt>
      <trkpt lat="65.99809" lon="21.16616">
        <ele>107.531423</ele>
        <time>2020-09-22T11:33:57.459Z</time>
      </trkpt>
      <trkpt lat="65.99806" lon="21.16647">
        <ele>106.609136</ele>
        <time>2020-09-22T11:34:00.415Z</time>
      </trkpt>
      <trkpt lat="65.99802" lon="21.16679">
        <ele>105.686847</ele>
        <time>2020-09-22T11:34:03.398Z</time>
      </trkpt>
      <trkpt lat="65.99799" lon="21.1671">
        <ele>104.744662</ele>
        <time>2020-09-22T11:34:06.407Z</time>
      </trkpt>
      <trkpt lat="65.99797" lon="21.16733">
        <ele>104.074608</ele>
        <time>2020-09-22T11:34:08.403Z</time>
      </trkpt>
      <trkpt lat="65.99794" lon="21.16759">
        <ele>103.30867</ele>
        <time>2020-09-22T11:34:10.412Z</time>
      </trkpt>
      <trkpt lat="65.99791" lon="21.16788">
        <ele>102.462849</ele>
        <time>2020-09-22T11:34:12.410Z</time>
      </trkpt>
      <trkpt lat="65.99787" lon="21.16821">
        <ele>101.48853</ele>
        <time>2020-09-22T11:34:14.410Z</time>
      </trkpt>
      <trkpt lat="65.99783" lon="21.16855">
        <ele>100.53544</ele>
        <time>2020-09-22T11:34:16.415Z</time>
      </trkpt>
      <trkpt lat="65.9978" lon="21.16888">
        <ele>99.744763</ele>
        <time>2020-09-22T11:34:18.394Z</time>
      </trkpt>
      <trkpt lat="65.99776" lon="21.16919">
        <ele>98.991316</ele>
        <time>2020-09-22T11:34:20.396Z</time>
      </trkpt>
      <trkpt lat="65.99772" lon="21.16955">
        <ele>98.12404</ele>
        <time>2020-09-22T11:34:22.413Z</time>
      </trkpt>
      <trkpt lat="65.99768" lon="21.16995">
        <ele>97.158988</ele>
        <time>2020-09-22T11:34:24.411Z</time>
      </trkpt>
      <trkpt lat="65.99766" lon="21.17016">
        <ele>96.646045</ele>
        <time>2020-09-22T11:34:25.410Z</time>
      </trkpt>
      <trkpt lat="65.99763" lon="21.17037">
        <ele>96.127548</ele>
        <time>2020-09-22T11:34:26.427Z</time>
      </trkpt>
      <trkpt lat="65.9976" lon="21.17059">
        <ele>95.592155</ele>
        <time>2020-09-22T11:34:27.434Z</time>
      </trkpt>
      <trkpt lat="65.99758" lon="21.17081">
        <ele>95.060276</ele>
        <time>2020-09-22T11:34:28.412Z</time>
      </trkpt>
      <trkpt lat="65.99755" lon="21.17102">
        <ele>94.543462</ele>
        <time>2020-09-22T11:34:29.392Z</time>
      </trkpt>
      <trkpt lat="65.9975" lon="21.17143">
        <ele>93.551692</ele>
        <time>2020-09-22T11:34:31.421Z</time>
      </trkpt>
      <trkpt lat="65.99745" lon="21.17184">
        <ele>92.552487</ele>
        <time>2020-09-22T11:34:33.402Z</time>
      </trkpt>
      <trkpt lat="65.99739" lon="21.17226">
        <ele>91.527209</ele>
        <time>2020-09-22T11:34:35.388Z</time>
      </trkpt>
      <trkpt lat="65.99734" lon="21.17267">
        <ele>90.521463</ele>
        <time>2020-09-22T11:34:37.405Z</time>
      </trkpt>
      <trkpt lat="65.9973" lon="21.17308">
        <ele>89.57407</ele>
        <time>2020-09-22T11:34:39.428Z</time>
      </trkpt>
      <trkpt lat="65.99725" lon="21.17349">
        <ele>88.617073</ele>
        <time>2020-09-22T11:34:41.407Z</time>
      </trkpt>
      <trkpt lat="65.9972" lon="21.1739">
        <ele>87.673025</ele>
        <time>2020-09-22T11:34:43.402Z</time>
      </trkpt>
      <trkpt lat="65.99718" lon="21.17412">
        <ele>87.169508</ele>
        <time>2020-09-22T11:34:44.412Z</time>
      </trkpt>
      <trkpt lat="65.99715" lon="21.17435">
        <ele>86.639474</ele>
        <time>2020-09-22T11:34:45.415Z</time>
      </trkpt>
      <trkpt lat="65.99712" lon="21.17459">
        <ele>86.079687</ele>
        <time>2020-09-22T11:34:46.400Z</time>
      </trkpt>
      <trkpt lat="65.99709" lon="21.17484">
        <ele>85.495392</ele>
        <time>2020-09-22T11:34:47.402Z</time>
      </trkpt>
      <trkpt lat="65.99706" lon="21.1751">
        <ele>84.899474</ele>
        <time>2020-09-22T11:34:48.405Z</time>
      </trkpt>
      <trkpt lat="65.99703" lon="21.17535">
        <ele>84.30657</ele>
        <time>2020-09-22T11:34:49.395Z</time>
      </trkpt>
      <trkpt lat="65.997" lon="21.17561">
        <ele>83.727977</ele>
        <time>2020-09-22T11:34:50.413Z</time>
      </trkpt>
      <trkpt lat="65.99697" lon="21.17585">
        <ele>83.150662</ele>
        <time>2020-09-22T11:34:51.428Z</time>
      </trkpt>
      <trkpt lat="65.99694" lon="21.17609">
        <ele>82.598872</ele>
        <time>2020-09-22T11:34:52.404Z</time>
      </trkpt>
      <trkpt lat="65.99691" lon="21.17632">
        <ele>82.058484</ele>
        <time>2020-09-22T11:34:53.456Z</time>
      </trkpt>
      <trkpt lat="65.99688" lon="21.17655">
        <ele>81.529993</ele>
        <time>2020-09-22T11:34:54.432Z</time>
      </trkpt>
      <trkpt lat="65.99685" lon="21.17677">
        <ele>81.005291</ele>
        <time>2020-09-22T11:34:55.408Z</time>
      </trkpt>
      <trkpt lat="65.99682" lon="21.17699">
        <ele>80.897485</ele>
        <time>2020-09-22T11:34:56.411Z</time>
      </trkpt>
      <trkpt lat="65.99679" lon="21.17721">
        <ele>81.456934</ele>
        <time>2020-09-22T11:34:57.434Z</time>
      </trkpt>
      <trkpt lat="65.99676" lon="21.17742">
        <ele>81.989654</ele>
        <time>2020-09-22T11:34:58.392Z</time>
      </trkpt>
      <trkpt lat="65.99671" lon="21.1778">
        <ele>82.951113</ele>
        <time>2020-09-22T11:35:00.417Z</time>
      </trkpt>
      <trkpt lat="65.99666" lon="21.1781">
        <ele>83.736017</ele>
        <time>2020-09-22T11:35:02.402Z</time>
      </trkpt>
      <trkpt lat="65.99662" lon="21.17833">
        <ele>84.347366</ele>
        <time>2020-09-22T11:35:04.432Z</time>
      </trkpt>
      <trkpt lat="65.99656" lon="21.17857">
        <ele>85.029843</ele>
        <time>2020-09-22T11:35:07.425Z</time>
      </trkpt>
      <trkpt lat="65.99651" lon="21.17877">
        <ele>85.600238</ele>
        <time>2020-09-22T11:35:10.437Z</time>
      </trkpt>
      <trkpt lat="65.99645" lon="21.17901">
        <ele>86.278116</ele>
        <time>2020-09-22T11:35:14.440Z</time>
      </trkpt>
      <trkpt lat="65.9964" lon="21.17925">
        <ele>86.933082</ele>
        <time>2020-09-22T11:35:18.395Z</time>
      </trkpt>
      <trkpt lat="65.99635" lon="21.17947">
        <ele>87.536834</ele>
        <time>2020-09-22T11:35:22.392Z</time>
      </trkpt>
      <trkpt lat="65.99629" lon="21.17965">
        <ele>88.100496</ele>
        <time>2020-09-22T11:35:26.416Z</time>
      </trkpt>
      <trkpt lat="65.99622" lon="21.17983">
        <ele>88.688156</ele>
        <time>2020-09-22T11:35:30.412Z</time>
      </trkpt>
      <trkpt lat="65.99616" lon="21.18001">
        <ele>89.293272</ele>
        <time>2020-09-22T11:35:34.401Z</time>
      </trkpt>
      <trkpt lat="65.99609" lon="21.1802">
        <ele>89.875532</ele>
        <time>2020-09-22T11:35:38.444Z</time>
      </trkpt>
      <trkpt lat="65.99602" lon="21.18037">
        <ele>90.460374</ele>
        <time>2020-09-22T11:35:42.406Z</time>
      </trkpt>
      <trkpt lat="65.99595" lon="21.18057">
        <ele>91.114246</ele>
        <time>2020-09-22T11:35:46.417Z</time>
      </trkpt>
      <trkpt lat="65.99587" lon="21.18076">
        <ele>91.86062</ele>
        <time>2020-09-22T11:35:50.423Z</time>
      </trkpt>
      <trkpt lat="65.99579" lon="21.18092">
        <ele>92.636416</ele>
        <time>2020-09-22T11:35:54.393Z</time>
      </trkpt>
      <trkpt lat="65.99572" lon="21.1811">
        <ele>93.44548</ele>
        <time>2020-09-22T11:35:58.421Z</time>
      </trkpt>
      <trkpt lat="65.99564" lon="21.18128">
        <ele>94.206339</ele>
        <time>2020-09-22T11:36:02.406Z</time>
      </trkpt>
      <trkpt lat="65.99557" lon="21.18146">
        <ele>94.99072</ele>
        <time>2020-09-22T11:36:06.420Z</time>
      </trkpt>
      <trkpt lat="65.9955" lon="21.18165">
        <ele>95.767788</ele>
        <time>2020-09-22T11:36:10.409Z</time>
      </trkpt>
      <trkpt lat="65.99543" lon="21.18182">
        <ele>96.475507</ele>
        <time>2020-09-22T11:36:14.408Z</time>
      </trkpt>
      <trkpt lat="65.99538" lon="21.18201">
        <ele>97.200612</ele>
        <time>2020-09-22T11:36:18.406Z</time>
      </trkpt>
      <trkpt lat="65.9953" lon="21.18217">
        <ele>97.955426</ele>
        <time>2020-09-22T11:36:23.396Z</time>
      </trkpt>
      <trkpt lat="65.99524" lon="21.18233">
        <ele>98.632153</ele>
        <time>2020-09-22T11:36:27.418Z</time>
      </trkpt>
      <trkpt lat="65.99517" lon="21.18251">
        <ele>99.401876</ele>
        <time>2020-09-22T11:36:32.409Z</time>
      </trkpt>
      <trkpt lat="65.9951" lon="21.18272">
        <ele>100.214042</ele>
        <time>2020-09-22T11:36:37.423Z</time>
      </trkpt>
      <trkpt lat="65.99504" lon="21.18289">
        <ele>100.91601</ele>
        <time>2020-09-22T11:36:41.390Z</time>
      </trkpt>
      <trkpt lat="65.99496" lon="21.18306">
        <ele>101.704319</ele>
        <time>2020-09-22T11:36:45.408Z</time>
      </trkpt>
      <trkpt lat="65.99488" lon="21.18326">
        <ele>102.521267</ele>
        <time>2020-09-22T11:36:48.452Z</time>
      </trkpt>
      <trkpt lat="65.99481" lon="21.18344">
        <ele>103.33031</ele>
        <time>2020-09-22T11:36:51.398Z</time>
      </trkpt>
      <trkpt lat="65.99473" lon="21.18368">
        <ele>104.270769</ele>
        <time>2020-09-22T11:36:54.422Z</time>
      </trkpt>
      <trkpt lat="65.99464" lon="21.1839">
        <ele>104.606402</ele>
        <time>2020-09-22T11:36:57.396Z</time>
      </trkpt>
      <trkpt lat="65.99455" lon="21.18415">
        <ele>103.814907</ele>
        <time>2020-09-22T11:37:00.403Z</time>
      </trkpt>
      <trkpt lat="65.99447" lon="21.18437">
        <ele>103.104473</ele>
        <time>2020-09-22T11:37:03.445Z</time>
      </trkpt>
      <trkpt lat="65.99438" lon="21.18458">
        <ele>102.339567</ele>
        <time>2020-09-22T11:37:06.392Z</time>
      </trkpt>
      <trkpt lat="65.99428" lon="21.18479">
        <ele>101.551824</ele>
        <time>2020-09-22T11:37:09.404Z</time>
      </trkpt>
      <trkpt lat="65.99418" lon="21.18501">
        <ele>100.754993</ele>
        <time>2020-09-22T11:37:12.402Z</time>
      </trkpt>
      <trkpt lat="65.99409" lon="21.18524">
        <ele>99.962687</ele>
        <time>2020-09-22T11:37:15.399Z</time>
      </trkpt>
      <trkpt lat="65.994" lon="21.18546">
        <ele>99.208557</ele>
        <time>2020-09-22T11:37:18.397Z</time>
      </trkpt>
      <trkpt lat="65.99391" lon="21.1857">
        <ele>98.403084</ele>
        <time>2020-09-22T11:37:21.438Z</time>
      </trkpt>
      <trkpt lat="65.99382" lon="21.18594">
        <ele>97.603523</ele>
        <time>2020-09-22T11:37:24.413Z</time>
      </trkpt>
      <trkpt lat="65.99372" lon="21.18616">
        <ele>96.818909</ele>
        <time>2020-09-22T11:37:27.400Z</time>
      </trkpt>
      <trkpt lat="65.99363" lon="21.18639">
        <ele>96.036009</ele>
        <time>2020-09-22T11:37:30.396Z</time>
      </trkpt>
      <trkpt lat="65.99354" lon="21.1866">
        <ele>95.303544</ele>
        <time>2020-09-22T11:37:33.407Z</time>
      </trkpt>
      <trkpt lat="65.99345" lon="21.18682">
        <ele>94.544529</ele>
        <time>2020-09-22T11:37:36.417Z</time>
      </trkpt>
      <trkpt lat="65.99336" lon="21.18703">
        <ele>94.058636</ele>
        <time>2020-09-22T11:37:39.404Z</time>
      </trkpt>
      <trkpt lat="65.99328" lon="21.18725">
        <ele>93.972484</ele>
        <time>2020-09-22T11:37:42.409Z</time>
      </trkpt>
      <trkpt lat="65.99319" lon="21.18746">
        <ele>93.889063</ele>
        <time>2020-09-22T11:37:45.397Z</time>
      </trkpt>
      <trkpt lat="65.99311" lon="21.1877">
        <ele>93.801123</ele>
        <time>2020-09-22T11:37:48.430Z</time>
      </trkpt>
      <trkpt lat="65.99303" lon="21.18792">
        <ele>93.718712</ele>
        <time>2020-09-22T11:37:51.399Z</time>
      </trkpt>
      <trkpt lat="65.99295" lon="21.18815">
        <ele>93.631409</ele>
        <time>2020-09-22T11:37:54.395Z</time>
      </trkpt>
      <trkpt lat="65.99285" lon="21.1884">
        <ele>93.537876</ele>
        <time>2020-09-22T11:37:57.415Z</time>
      </trkpt>
      <trkpt lat="65.99279" lon="21.18858">
        <ele>93.470567</ele>
        <time>2020-09-22T11:37:59.437Z</time>
      </trkpt>
      <trkpt lat="65.99272" lon="21.18876">
        <ele>93.399751</ele>
        <time>2020-09-22T11:38:01.406Z</time>
      </trkpt>
      <trkpt lat="65.99264" lon="21.18894">
        <ele>93.326285</ele>
        <time>2020-09-22T11:38:03.396Z</time>
      </trkpt>
      <trkpt lat="65.99257" lon="21.18913">
        <ele>93.252089</ele>
        <time>2020-09-22T11:38:05.407Z</time>
      </trkpt>
      <trkpt lat="65.99249" lon="21.18932">
        <ele>93.177053</ele>
        <time>2020-09-22T11:38:07.444Z</time>
      </trkpt>
      <trkpt lat="65.99242" lon="21.1895">
        <ele>93.106243</ele>
        <time>2020-09-22T11:38:09.408Z</time>
      </trkpt>
      <trkpt lat="65.99234" lon="21.18966">
        <ele>93.038425</ele>
        <time>2020-09-22T11:38:11.394Z</time>
      </trkpt>
      <trkpt lat="65.99228" lon="21.18982">
        <ele>92.973514</ele>
        <time>2020-09-22T11:38:13.437Z</time>
      </trkpt>
      <trkpt lat="65.99221" lon="21.18999">
        <ele>92.908741</ele>
        <time>2020-09-22T11:38:15.394Z</time>
      </trkpt>
      <trkpt lat="65.99215" lon="21.19016">
        <ele>92.834153</ele>
        <time>2020-09-22T11:38:17.402Z</time>
      </trkpt>
      <trkpt lat="65.99208" lon="21.19032">
        <ele>92.707641</ele>
        <time>2020-09-22T11:38:19.429Z</time>
      </trkpt>
      <trkpt lat="65.99201" lon="21.19048">
        <ele>92.578192</ele>
        <time>2020-09-22T11:38:21.411Z</time>
      </trkpt>
      <trkpt lat="65.99195" lon="21.19065">
        <ele>92.446104</ele>
        <time>2020-09-22T11:38:23.401Z</time>
      </trkpt>
      <trkpt lat="65.99188" lon="21.19083">
        <ele>92.306182</ele>
        <time>2020-09-22T11:38:25.398Z</time>
      </trkpt>
      <trkpt lat="65.9918" lon="21.19102">
        <ele>92.16436</ele>
        <time>2020-09-22T11:38:27.418Z</time>
      </trkpt>
      <trkpt lat="65.99173" lon="21.19122">
        <ele>92.01199</ele>
        <time>2020-09-22T11:38:29.416Z</time>
      </trkpt>
      <trkpt lat="65.99166" lon="21.19144">
        <ele>91.852514</ele>
        <time>2020-09-22T11:38:31.403Z</time>
      </trkpt>
      <trkpt lat="65.99158" lon="21.19168">
        <ele>91.680692</ele>
        <time>2020-09-22T11:38:33.405Z</time>
      </trkpt>
      <trkpt lat="65.9915" lon="21.19195">
        <ele>91.497393</ele>
        <time>2020-09-22T11:38:35.402Z</time>
      </trkpt>
      <trkpt lat="65.99142" lon="21.19225">
        <ele>91.294706</ele>
        <time>2020-09-22T11:38:37.417Z</time>
      </trkpt>
      <trkpt lat="65.99134" lon="21.19257">
        <ele>91.082131</ele>
        <time>2020-09-22T11:38:39.412Z</time>
      </trkpt>
      <trkpt lat="65.99125" lon="21.19291">
        <ele>90.855787</ele>
        <time>2020-09-22T11:38:41.409Z</time>
      </trkpt>
      <trkpt lat="65.99116" lon="21.19327">
        <ele>90.621626</ele>
        <time>2020-09-22T11:38:43.404Z</time>
      </trkpt>
      <trkpt lat="65.99108" lon="21.19364">
        <ele>90.387524</ele>
        <time>2020-09-22T11:38:45.444Z</time>
      </trkpt>
      <trkpt lat="65.991" lon="21.19401">
        <ele>89.688176</ele>
        <time>2020-09-22T11:38:47.391Z</time>
      </trkpt>
      <trkpt lat="65.99092" lon="21.1944">
        <ele>88.957008</ele>
        <time>2020-09-22T11:38:49.425Z</time>
      </trkpt>
      <trkpt lat="65.99085" lon="21.1948">
        <ele>88.21264</ele>
        <time>2020-09-22T11:38:51.414Z</time>
      </trkpt>
      <trkpt lat="65.99082" lon="21.19501">
        <ele>87.838159</ele>
        <time>2020-09-22T11:38:52.456Z</time>
      </trkpt>
      <trkpt lat="65.99078" lon="21.19521">
        <ele>87.460573</ele>
        <time>2020-09-22T11:38:53.410Z</time>
      </trkpt>
      <trkpt lat="65.99075" lon="21.19542">
        <ele>87.084555</ele>
        <time>2020-09-22T11:38:54.417Z</time>
      </trkpt>
      <trkpt lat="65.99072" lon="21.19563">
        <ele>86.710001</ele>
        <time>2020-09-22T11:38:55.416Z</time>
      </trkpt>
      <trkpt lat="65.99068" lon="21.19584">
        <ele>86.330546</ele>
        <time>2020-09-22T11:38:56.410Z</time>
      </trkpt>
      <trkpt lat="65.99066" lon="21.19605">
        <ele>85.955436</ele>
        <time>2020-09-22T11:38:57.412Z</time>
      </trkpt>
      <trkpt lat="65.9906" lon="21.19646">
        <ele>85.224405</ele>
        <time>2020-09-22T11:38:59.404Z</time>
      </trkpt>
      <trkpt lat="65.99055" lon="21.19686">
        <ele>84.502449</ele>
        <time>2020-09-22T11:39:01.430Z</time>
      </trkpt>
      <trkpt lat="65.9905" lon="21.19726">
        <ele>83.797722</ele>
        <time>2020-09-22T11:39:03.433Z</time>
      </trkpt>
      <trkpt lat="65.99046" lon="21.19766">
        <ele>83.110986</ele>
        <time>2020-09-22T11:39:05.404Z</time>
      </trkpt>
      <trkpt lat="65.99041" lon="21.19805">
        <ele>82.479913</ele>
        <time>2020-09-22T11:39:07.400Z</time>
      </trkpt>
      <trkpt lat="65.99036" lon="21.19845">
        <ele>81.872405</ele>
        <time>2020-09-22T11:39:09.410Z</time>
      </trkpt>
      <trkpt lat="65.99032" lon="21.19885">
        <ele>81.268974</ele>
        <time>2020-09-22T11:39:11.409Z</time>
      </trkpt>
      <trkpt lat="65.99027" lon="21.19926">
        <ele>80.653202</ele>
        <time>2020-09-22T11:39:13.394Z</time>
      </trkpt>
      <trkpt lat="65.99023" lon="21.19966">
        <ele>80.049769</ele>
        <time>2020-09-22T11:39:15.438Z</time>
      </trkpt>
      <trkpt lat="65.99019" lon="21.20005">
        <ele>79.464513</ele>
        <time>2020-09-22T11:39:17.440Z</time>
      </trkpt>
      <trkpt lat="65.99015" lon="21.20045">
        <ele>78.865775</ele>
        <time>2020-09-22T11:39:19.423Z</time>
      </trkpt>
      <trkpt lat="65.9901" lon="21.20085">
        <ele>78.264227</ele>
        <time>2020-09-22T11:39:21.404Z</time>
      </trkpt>
      <trkpt lat="65.99005" lon="21.20124">
        <ele>77.670902</ele>
        <time>2020-09-22T11:39:23.394Z</time>
      </trkpt>
      <trkpt lat="65.99" lon="21.2016">
        <ele>77.103157</ele>
        <time>2020-09-22T11:39:25.449Z</time>
      </trkpt>
      <trkpt lat="65.98994" lon="21.20194">
        <ele>76.560993</ele>
        <time>2020-09-22T11:39:27.394Z</time>
      </trkpt>
      <trkpt lat="65.98987" lon="21.20227">
        <ele>76.258446</ele>
        <time>2020-09-22T11:39:29.417Z</time>
      </trkpt>
      <trkpt lat="65.98981" lon="21.20258">
        <ele>76.012527</ele>
        <time>2020-09-22T11:39:31.397Z</time>
      </trkpt>
      <trkpt lat="65.98974" lon="21.20287">
        <ele>75.77729</ele>
        <time>2020-09-22T11:39:33.446Z</time>
      </trkpt>
      <trkpt lat="65.98968" lon="21.20316">
        <ele>75.541467</ele>
        <time>2020-09-22T11:39:35.397Z</time>
      </trkpt>
      <trkpt lat="65.9896" lon="21.20343">
        <ele>75.314874</ele>
        <time>2020-09-22T11:39:37.410Z</time>
      </trkpt>
      <trkpt lat="65.98953" lon="21.20368">
        <ele>75.090305</ele>
        <time>2020-09-22T11:39:39.393Z</time>
      </trkpt>
      <trkpt lat="65.98945" lon="21.20393">
        <ele>74.865839</ele>
        <time>2020-09-22T11:39:41.394Z</time>
      </trkpt>
      <trkpt lat="65.98936" lon="21.20418">
        <ele>74.636951</ele>
        <time>2020-09-22T11:39:43.402Z</time>
      </trkpt>
      <trkpt lat="65.98929" lon="21.20442">
        <ele>74.416344</ele>
        <time>2020-09-22T11:39:45.402Z</time>
      </trkpt>
      <trkpt lat="65.98921" lon="21.20465">
        <ele>74.200654</ele>
        <time>2020-09-22T11:39:47.414Z</time>
      </trkpt>
      <trkpt lat="65.98912" lon="21.20488">
        <ele>73.98133</ele>
        <time>2020-09-22T11:39:49.417Z</time>
      </trkpt>
      <trkpt lat="65.98903" lon="21.2051">
        <ele>73.764754</ele>
        <time>2020-09-22T11:39:51.417Z</time>
      </trkpt>
      <trkpt lat="65.98894" lon="21.20531">
        <ele>73.547451</ele>
        <time>2020-09-22T11:39:53.397Z</time>
      </trkpt>
      <trkpt lat="65.98885" lon="21.20551">
        <ele>73.325779</ele>
        <time>2020-09-22T11:39:55.402Z</time>
      </trkpt>
      <trkpt lat="65.98876" lon="21.20571">
        <ele>72.936988</ele>
        <time>2020-09-22T11:39:57.408Z</time>
      </trkpt>
      <trkpt lat="65.98867" lon="21.2059">
        <ele>72.555225</ele>
        <time>2020-09-22T11:39:59.441Z</time>
      </trkpt>
      <trkpt lat="65.98858" lon="21.20609">
        <ele>72.175139</ele>
        <time>2020-09-22T11:40:01.406Z</time>
      </trkpt>
      <trkpt lat="65.98848" lon="21.20626">
        <ele>71.797053</ele>
        <time>2020-09-22T11:40:03.420Z</time>
      </trkpt>
      <trkpt lat="65.98838" lon="21.20643">
        <ele>71.406698</ele>
        <time>2020-09-22T11:40:05.433Z</time>
      </trkpt>
      <trkpt lat="65.98828" lon="21.2066">
        <ele>71.006653</ele>
        <time>2020-09-22T11:40:07.395Z</time>
      </trkpt>
      <trkpt lat="65.98817" lon="21.20678">
        <ele>70.580689</ele>
        <time>2020-09-22T11:40:09.425Z</time>
      </trkpt>
      <trkpt lat="65.98804" lon="21.20696">
        <ele>70.118619</ele>
        <time>2020-09-22T11:40:11.409Z</time>
      </trkpt>
      <trkpt lat="65.98792" lon="21.20714">
        <ele>69.649286</ele>
        <time>2020-09-22T11:40:13.401Z</time>
      </trkpt>
      <trkpt lat="65.98778" lon="21.20731">
        <ele>69.156937</ele>
        <time>2020-09-22T11:40:15.416Z</time>
      </trkpt>
      <trkpt lat="65.98763" lon="21.20747">
        <ele>68.645248</ele>
        <time>2020-09-22T11:40:17.400Z</time>
      </trkpt>
      <trkpt lat="65.98748" lon="21.20762">
        <ele>68.129761</ele>
        <time>2020-09-22T11:40:19.411Z</time>
      </trkpt>
      <trkpt lat="65.98733" lon="21.20776">
        <ele>67.614706</ele>
        <time>2020-09-22T11:40:21.411Z</time>
      </trkpt>
      <trkpt lat="65.98718" lon="21.2079">
        <ele>67.033806</ele>
        <time>2020-09-22T11:40:23.400Z</time>
      </trkpt>
      <trkpt lat="65.98703" lon="21.20802">
        <ele>66.444042</ele>
        <time>2020-09-22T11:40:25.404Z</time>
      </trkpt>
      <trkpt lat="65.98688" lon="21.20814">
        <ele>65.865925</ele>
        <time>2020-09-22T11:40:27.426Z</time>
      </trkpt>
      <trkpt lat="65.98674" lon="21.20826">
        <ele>65.312262</ele>
        <time>2020-09-22T11:40:29.403Z</time>
      </trkpt>
      <trkpt lat="65.98661" lon="21.20837">
        <ele>64.794677</ele>
        <time>2020-09-22T11:40:31.404Z</time>
      </trkpt>
      <trkpt lat="65.98648" lon="21.20847">
        <ele>64.297036</ele>
        <time>2020-09-22T11:40:33.403Z</time>
      </trkpt>
      <trkpt lat="65.98636" lon="21.20858">
        <ele>63.839471</ele>
        <time>2020-09-22T11:40:35.428Z</time>
      </trkpt>
      <trkpt lat="65.98626" lon="21.20867">
        <ele>63.434428</ele>
        <time>2020-09-22T11:40:37.402Z</time>
      </trkpt>
      <trkpt lat="65.98616" lon="21.20875">
        <ele>63.059037</ele>
        <time>2020-09-22T11:40:39.411Z</time>
      </trkpt>
      <trkpt lat="65.98607" lon="21.20883">
        <ele>62.69953</ele>
        <time>2020-09-22T11:40:41.413Z</time>
      </trkpt>
      <trkpt lat="65.98598" lon="21.20891">
        <ele>62.342018</ele>
        <time>2020-09-22T11:40:43.408Z</time>
      </trkpt>
      <trkpt lat="65.98588" lon="21.20899">
        <ele>61.980545</ele>
        <time>2020-09-22T11:40:45.403Z</time>
      </trkpt>
      <trkpt lat="65.98579" lon="21.20907">
        <ele>61.618955</ele>
        <time>2020-09-22T11:40:47.409Z</time>
      </trkpt>
      <trkpt lat="65.9857" lon="21.20915">
        <ele>61.25699</ele>
        <time>2020-09-22T11:40:49.423Z</time>
      </trkpt>
      <trkpt lat="65.98561" lon="21.20922">
        <ele>61.025453</ele>
        <time>2020-09-22T11:40:51.396Z</time>
      </trkpt>
      <trkpt lat="65.98551" lon="21.20929">
        <ele>61.384795</ele>
        <time>2020-09-22T11:40:53.440Z</time>
      </trkpt>
      <trkpt lat="65.98542" lon="21.20937">
        <ele>61.732381</ele>
        <time>2020-09-22T11:40:55.402Z</time>
      </trkpt>
      <trkpt lat="65.98533" lon="21.20943">
        <ele>62.073887</ele>
        <time>2020-09-22T11:40:57.394Z</time>
      </trkpt>
      <trkpt lat="65.98524" lon="21.2095">
        <ele>62.415813</ele>
        <time>2020-09-22T11:40:59.405Z</time>
      </trkpt>
      <trkpt lat="65.98512" lon="21.2096">
        <ele>62.896256</ele>
        <time>2020-09-22T11:41:02.408Z</time>
      </trkpt>
      <trkpt lat="65.98499" lon="21.20971">
        <ele>63.386979</ele>
        <time>2020-09-22T11:41:05.414Z</time>
      </trkpt>
      <trkpt lat="65.9849" lon="21.20979">
        <ele>63.7202</ele>
        <time>2020-09-22T11:41:07.398Z</time>
      </trkpt>
      <trkpt lat="65.98482" lon="21.20987">
        <ele>64.051568</ele>
        <time>2020-09-22T11:41:09.405Z</time>
      </trkpt>
      <trkpt lat="65.98473" lon="21.20995">
        <ele>64.380076</ele>
        <time>2020-09-22T11:41:11.403Z</time>
      </trkpt>
      <trkpt lat="65.98461" lon="21.21006">
        <ele>64.852164</ele>
        <time>2020-09-22T11:41:14.401Z</time>
      </trkpt>
      <trkpt lat="65.98449" lon="21.21015">
        <ele>65.302406</ele>
        <time>2020-09-22T11:41:17.413Z</time>
      </trkpt>
      <trkpt lat="65.98439" lon="21.21024">
        <ele>65.716172</ele>
        <time>2020-09-22T11:41:20.409Z</time>
      </trkpt>
      <trkpt lat="65.98427" lon="21.21032">
        <ele>66.142481</ele>
        <time>2020-09-22T11:41:23.429Z</time>
      </trkpt>
      <trkpt lat="65.98416" lon="21.21041">
        <ele>66.583586</ele>
        <time>2020-09-22T11:41:26.418Z</time>
      </trkpt>
      <trkpt lat="65.98404" lon="21.2105">
        <ele>67.041663</ele>
        <time>2020-09-22T11:41:29.409Z</time>
      </trkpt>
      <trkpt lat="65.98392" lon="21.2106">
        <ele>67.498101</ele>
        <time>2020-09-22T11:41:32.432Z</time>
      </trkpt>
      <trkpt lat="65.9838" lon="21.21071">
        <ele>67.755716</ele>
        <time>2020-09-22T11:41:35.400Z</time>
      </trkpt>
      <trkpt lat="65.9837" lon="21.21082">
        <ele>67.98679</ele>
        <time>2020-09-22T11:41:38.432Z</time>
      </trkpt>
      <trkpt lat="65.9836" lon="21.21091">
        <ele>68.201647</ele>
        <time>2020-09-22T11:41:41.434Z</time>
      </trkpt>
      <trkpt lat="65.9835" lon="21.211">
        <ele>68.416676</ele>
        <time>2020-09-22T11:41:44.400Z</time>
      </trkpt>
      <trkpt lat="65.98341" lon="21.21108">
        <ele>68.619445</ele>
        <time>2020-09-22T11:41:47.397Z</time>
      </trkpt>
      <trkpt lat="65.98331" lon="21.21116">
        <ele>68.822742</ele>
        <time>2020-09-22T11:41:50.393Z</time>
      </trkpt>
      <trkpt lat="65.98321" lon="21.21123">
        <ele>69.029355</ele>
        <time>2020-09-22T11:41:53.429Z</time>
      </trkpt>
      <trkpt lat="65.98313" lon="21.2113">
        <ele>69.212507</ele>
        <time>2020-09-22T11:41:56.425Z</time>
      </trkpt>
      <trkpt lat="65.98304" lon="21.21137">
        <ele>69.398614</ele>
        <time>2020-09-22T11:41:59.399Z</time>
      </trkpt>
      <trkpt lat="65.98295" lon="21.21144">
        <ele>69.585261</ele>
        <time>2020-09-22T11:42:02.397Z</time>
      </trkpt>
      <trkpt lat="65.98286" lon="21.21152">
        <ele>69.776869</ele>
        <time>2020-09-22T11:42:05.418Z</time>
      </trkpt>
      <trkpt lat="65.98278" lon="21.21159">
        <ele>69.962977</ele>
        <time>2020-09-22T11:42:08.395Z</time>
      </trkpt>
      <trkpt lat="65.98266" lon="21.21169">
        <ele>70.202597</ele>
        <time>2020-09-22T11:42:12.412Z</time>
      </trkpt>
      <trkpt lat="65.98256" lon="21.21178">
        <ele>70.432359</ele>
        <time>2020-09-22T11:42:16.403Z</time>
      </trkpt>
      <trkpt lat="65.98246" lon="21.21186">
        <ele>70.649617</ele>
        <time>2020-09-22T11:42:20.427Z</time>
      </trkpt>
      <trkpt lat="65.98236" lon="21.21193">
        <ele>70.857714</ele>
        <time>2020-09-22T11:42:24.449Z</time>
      </trkpt>
      <trkpt lat="65.98225" lon="21.21202">
        <ele>71.08311</ele>
        <time>2020-09-22T11:42:28.414Z</time>
      </trkpt>
      <trkpt lat="65.98215" lon="21.21211">
        <ele>71.300242</ele>
        <time>2020-09-22T11:42:32.427Z</time>
      </trkpt>
      <trkpt lat="65.98204" lon="21.21221">
        <ele>71.509093</ele>
        <time>2020-09-22T11:42:36.408Z</time>
      </trkpt>
      <trkpt lat="65.98195" lon="21.2123">
        <ele>71.706531</ele>
        <time>2020-09-22T11:42:40.410Z</time>
      </trkpt>
      <trkpt lat="65.98185" lon="21.21238">
        <ele>71.903188</ele>
        <time>2020-09-22T11:42:44.393Z</time>
      </trkpt>
      <trkpt lat="65.98175" lon="21.21247">
        <ele>72.099917</ele>
        <time>2020-09-22T11:42:48.422Z</time>
      </trkpt>
      <trkpt lat="65.98166" lon="21.21256">
        <ele>72.300228</ele>
        <time>2020-09-22T11:42:52.393Z</time>
      </trkpt>
      <trkpt lat="65.98155" lon="21.21264">
        <ele>72.508259</ele>
        <time>2020-09-22T11:42:56.396Z</time>
      </trkpt>
      <trkpt lat="65.98145" lon="21.21273">
        <ele>72.710854</ele>
        <time>2020-09-22T11:43:00.389Z</time>
      </trkpt>
      <trkpt lat="65.98135" lon="21.21282">
        <ele>72.916822</ele>
        <time>2020-09-22T11:43:04.393Z</time>
      </trkpt>
      <trkpt lat="65.98125" lon="21.21291">
        <ele>73.126922</ele>
        <time>2020-09-22T11:43:08.411Z</time>
      </trkpt>
      <trkpt lat="65.98115" lon="21.21299">
        <ele>73.329393</ele>
        <time>2020-09-22T11:43:12.402Z</time>
      </trkpt>
      <trkpt lat="65.98106" lon="21.21306">
        <ele>73.516082</ele>
        <time>2020-09-22T11:43:16.413Z</time>
      </trkpt>
      <trkpt lat="65.98096" lon="21.21314">
        <ele>73.713314</ele>
        <time>2020-09-22T11:43:20.426Z</time>
      </trkpt>
      <trkpt lat="65.98086" lon="21.21321">
        <ele>73.902547</ele>
        <time>2020-09-22T11:43:24.397Z</time>
      </trkpt>
      <trkpt lat="65.98076" lon="21.21328">
        <ele>74.100671</ele>
        <time>2020-09-22T11:43:28.416Z</time>
      </trkpt>
      <trkpt lat="65.98066" lon="21.21336">
        <ele>74.30095</ele>
        <time>2020-09-22T11:43:32.440Z</time>
      </trkpt>
      <trkpt lat="65.98057" lon="21.21346">
        <ele>74.500896</ele>
        <time>2020-09-22T11:43:36.455Z</time>
      </trkpt>
      <trkpt lat="65.98048" lon="21.21355">
        <ele>74.776621</ele>
        <time>2020-09-22T11:43:40.396Z</time>
      </trkpt>
      <trkpt lat="65.98039" lon="21.21362">
        <ele>75.182311</ele>
        <time>2020-09-22T11:43:44.409Z</time>
      </trkpt>
      <trkpt lat="65.98029" lon="21.21369">
        <ele>75.624936</ele>
        <time>2020-09-22T11:43:48.413Z</time>
      </trkpt>
      <trkpt lat="65.98019" lon="21.21377">
        <ele>76.082903</ele>
        <time>2020-09-22T11:43:52.401Z</time>
      </trkpt>
      <trkpt lat="65.98009" lon="21.21386">
        <ele>76.561348</ele>
        <time>2020-09-22T11:43:56.395Z</time>
      </trkpt>
      <trkpt lat="65.97998" lon="21.21396">
        <ele>77.05831</ele>
        <time>2020-09-22T11:44:00.414Z</time>
      </trkpt>
      <trkpt lat="65.97987" lon="21.21404">
        <ele>77.524643</ele>
        <time>2020-09-22T11:44:04.428Z</time>
      </trkpt>
      <trkpt lat="65.97977" lon="21.21413">
        <ele>77.981121</ele>
        <time>2020-09-22T11:44:08.398Z</time>
      </trkpt>
      <trkpt lat="65.97967" lon="21.21423">
        <ele>78.456722</ele>
        <time>2020-09-22T11:44:12.405Z</time>
      </trkpt>
      <trkpt lat="65.97957" lon="21.21431">
        <ele>78.901048</ele>
        <time>2020-09-22T11:44:16.413Z</time>
      </trkpt>
      <trkpt lat="65.97947" lon="21.21439">
        <ele>79.35</ele>
        <time>2020-09-22T11:44:20.400Z</time>
      </trkpt>
      <trkpt lat="65.97937" lon="21.21447">
        <ele>79.815232</ele>
        <time>2020-09-22T11:44:24.416Z</time>
      </trkpt>
      <trkpt lat="65.97928" lon="21.21454">
        <ele>80.217353</ele>
        <time>2020-09-22T11:44:28.413Z</time>
      </trkpt>
      <trkpt lat="65.97919" lon="21.21463">
        <ele>80.625126</ele>
        <time>2020-09-22T11:44:32.416Z</time>
      </trkpt>
      <trkpt lat="65.9791" lon="21.21469">
        <ele>81.033651</ele>
        <time>2020-09-22T11:44:36.392Z</time>
      </trkpt>
      <trkpt lat="65.979" lon="21.21475">
        <ele>81.467541</ele>
        <time>2020-09-22T11:44:40.417Z</time>
      </trkpt>
      <trkpt lat="65.97889" lon="21.21482">
        <ele>81.950674</ele>
        <time>2020-09-22T11:44:44.430Z</time>
      </trkpt>
      <trkpt lat="65.97878" lon="21.21489">
        <ele>82.3437</ele>
        <time>2020-09-22T11:44:48.428Z</time>
      </trkpt>
      <trkpt lat="65.97869" lon="21.21494">
        <ele>82.419914</ele>
        <time>2020-09-22T11:44:51.466Z</time>
      </trkpt>
      <trkpt lat="65.9786" lon="21.21499">
        <ele>82.495925</ele>
        <time>2020-09-22T11:44:54.413Z</time>
      </trkpt>
      <trkpt lat="65.9785" lon="21.21504">
        <ele>82.574696</ele>
        <time>2020-09-22T11:44:57.440Z</time>
      </trkpt>
      <trkpt lat="65.97839" lon="21.2151">
        <ele>82.663845</ele>
        <time>2020-09-22T11:45:00.405Z</time>
      </trkpt>
      <trkpt lat="65.97827" lon="21.21517">
        <ele>82.762583</ele>
        <time>2020-09-22T11:45:03.401Z</time>
      </trkpt>
      <trkpt lat="65.97814" lon="21.21524">
        <ele>82.865859</ele>
        <time>2020-09-22T11:45:06.432Z</time>
      </trkpt>
      <trkpt lat="65.97801" lon="21.2153">
        <ele>82.971634</ele>
        <time>2020-09-22T11:45:09.395Z</time>
      </trkpt>
      <trkpt lat="65.97793" lon="21.21533">
        <ele>83.044008</ele>
        <time>2020-09-22T11:45:11.487Z</time>
      </trkpt>
      <trkpt lat="65.97784" lon="21.21538">
        <ele>83.1165</ele>
        <time>2020-09-22T11:45:13.425Z</time>
      </trkpt>
      <trkpt lat="65.97774" lon="21.21543">
        <ele>83.191932</ele>
        <time>2020-09-22T11:45:15.430Z</time>
      </trkpt>
      <trkpt lat="65.97765" lon="21.21548">
        <ele>83.269443</ele>
        <time>2020-09-22T11:45:17.412Z</time>
      </trkpt>
      <trkpt lat="65.97755" lon="21.21555">
        <ele>83.352865</ele>
        <time>2020-09-22T11:45:19.400Z</time>
      </trkpt>
      <trkpt lat="65.97744" lon="21.21561">
        <ele>83.439395</ele>
        <time>2020-09-22T11:45:21.410Z</time>
      </trkpt>
      <trkpt lat="65.97734" lon="21.21566">
        <ele>83.521433</ele>
        <time>2020-09-22T11:45:23.392Z</time>
      </trkpt>
      <trkpt lat="65.97725" lon="21.21571">
        <ele>83.600712</ele>
        <time>2020-09-22T11:45:25.424Z</time>
      </trkpt>
      <trkpt lat="65.97714" lon="21.21577">
        <ele>83.685027</ele>
        <time>2020-09-22T11:45:27.388Z</time>
      </trkpt>
      <trkpt lat="65.97704" lon="21.21582">
        <ele>83.758578</ele>
        <time>2020-09-22T11:45:29.442Z</time>
      </trkpt>
      <trkpt lat="65.97693" lon="21.21588">
        <ele>83.754643</ele>
        <time>2020-09-22T11:45:31.415Z</time>
      </trkpt>
      <trkpt lat="65.97683" lon="21.21593">
        <ele>83.750632</ele>
        <time>2020-09-22T11:45:33.415Z</time>
      </trkpt>
      <trkpt lat="65.97672" lon="21.21598">
        <ele>83.746718</ele>
        <time>2020-09-22T11:45:35.421Z</time>
      </trkpt>
      <trkpt lat="65.97662" lon="21.21605">
        <ele>83.742801</ele>
        <time>2020-09-22T11:45:37.402Z</time>
      </trkpt>
      <trkpt lat="65.97651" lon="21.21611">
        <ele>83.738859</ele>
        <time>2020-09-22T11:45:39.412Z</time>
      </trkpt>
      <trkpt lat="65.97641" lon="21.21617">
        <ele>83.734914</ele>
        <time>2020-09-22T11:45:41.409Z</time>
      </trkpt>
      <trkpt lat="65.97631" lon="21.21621">
        <ele>83.731113</ele>
        <time>2020-09-22T11:45:43.421Z</time>
      </trkpt>
      <trkpt lat="65.97621" lon="21.21627">
        <ele>83.727541</ele>
        <time>2020-09-22T11:45:45.420Z</time>
      </trkpt>
      <trkpt lat="65.97611" lon="21.21632">
        <ele>83.723823</ele>
        <time>2020-09-22T11:45:47.410Z</time>
      </trkpt>
      <trkpt lat="65.97601" lon="21.21638">
        <ele>83.720062</ele>
        <time>2020-09-22T11:45:49.395Z</time>
      </trkpt>
      <trkpt lat="65.97591" lon="21.21644">
        <ele>83.71639</ele>
        <time>2020-09-22T11:45:51.434Z</time>
      </trkpt>
      <trkpt lat="65.97582" lon="21.21647">
        <ele>83.712795</ele>
        <time>2020-09-22T11:45:53.410Z</time>
      </trkpt>
      <trkpt lat="65.97572" lon="21.21652">
        <ele>83.709278</ele>
        <time>2020-09-22T11:45:55.408Z</time>
      </trkpt>
      <trkpt lat="65.97563" lon="21.21657">
        <ele>83.705726</ele>
        <time>2020-09-22T11:45:57.394Z</time>
      </trkpt>
      <trkpt lat="65.97554" lon="21.21662">
        <ele>83.702342</ele>
        <time>2020-09-22T11:45:59.398Z</time>
      </trkpt>
      <trkpt lat="65.97545" lon="21.21668">
        <ele>83.699007</ele>
        <time>2020-09-22T11:46:01.408Z</time>
      </trkpt>
      <trkpt lat="65.97533" lon="21.21675">
        <ele>83.694403</ele>
        <time>2020-09-22T11:46:04.426Z</time>
      </trkpt>
      <trkpt lat="65.9752" lon="21.21682">
        <ele>83.757905</ele>
        <time>2020-09-22T11:46:07.393Z</time>
      </trkpt>
      <trkpt lat="65.9751" lon="21.21689">
        <ele>83.833307</ele>
        <time>2020-09-22T11:46:10.395Z</time>
      </trkpt>
      <trkpt lat="65.97499" lon="21.21696">
        <ele>83.907342</ele>
        <time>2020-09-22T11:46:13.402Z</time>
      </trkpt>
      <trkpt lat="65.97489" lon="21.21702">
        <ele>83.975911</ele>
        <time>2020-09-22T11:46:16.424Z</time>
      </trkpt>
      <trkpt lat="65.97479" lon="21.21707">
        <ele>84.041109</ele>
        <time>2020-09-22T11:46:19.432Z</time>
      </trkpt>
      <trkpt lat="65.9747" lon="21.21712">
        <ele>84.10893</ele>
        <time>2020-09-22T11:46:22.428Z</time>
      </trkpt>
      <trkpt lat="65.9746" lon="21.21719">
        <ele>84.177135</ele>
        <time>2020-09-22T11:46:25.424Z</time>
      </trkpt>
      <trkpt lat="65.9745" lon="21.21726">
        <ele>84.24564</ele>
        <time>2020-09-22T11:46:28.417Z</time>
      </trkpt>
      <trkpt lat="65.9744" lon="21.21733">
        <ele>84.315022</ele>
        <time>2020-09-22T11:46:31.405Z</time>
      </trkpt>
      <trkpt lat="65.9743" lon="21.2174">
        <ele>84.384957</ele>
        <time>2020-09-22T11:46:34.396Z</time>
      </trkpt>
      <trkpt lat="65.9742" lon="21.21746">
        <ele>84.45561</ele>
        <time>2020-09-22T11:46:37.431Z</time>
      </trkpt>
      <trkpt lat="65.9741" lon="21.21753">
        <ele>84.523461</ele>
        <time>2020-09-22T11:46:40.404Z</time>
      </trkpt>
      <trkpt lat="65.974" lon="21.21758">
        <ele>84.591282</ele>
        <time>2020-09-22T11:46:43.405Z</time>
      </trkpt>
      <trkpt lat="65.9739" lon="21.21762">
        <ele>84.660914</ele>
        <time>2020-09-22T11:46:46.403Z</time>
      </trkpt>
      <trkpt lat="65.97379" lon="21.21766">
        <ele>84.73547</ele>
        <time>2020-09-22T11:46:49.398Z</time>
      </trkpt>
      <trkpt lat="65.97367" lon="21.21772">
        <ele>84.816102</ele>
        <time>2020-09-22T11:46:52.404Z</time>
      </trkpt>
      <trkpt lat="65.97355" lon="21.21779">
        <ele>84.885308</ele>
        <time>2020-09-22T11:46:55.435Z</time>
      </trkpt>
      <trkpt lat="65.97342" lon="21.21788">
        <ele>84.246015</ele>
        <time>2020-09-22T11:46:58.418Z</time>
      </trkpt>
      <trkpt lat="65.97333" lon="21.21794">
        <ele>83.792496</ele>
        <time>2020-09-22T11:47:00.411Z</time>
      </trkpt>
      <trkpt lat="65.97322" lon="21.21799">
        <ele>83.280869</ele>
        <time>2020-09-22T11:47:02.405Z</time>
      </trkpt>
      <trkpt lat="65.97311" lon="21.21805">
        <ele>82.741032</ele>
        <time>2020-09-22T11:47:04.420Z</time>
      </trkpt>
      <trkpt lat="65.973" lon="21.21812">
        <ele>82.189988</ele>
        <time>2020-09-22T11:47:06.448Z</time>
      </trkpt>
      <trkpt lat="65.97288" lon="21.21818">
        <ele>81.633877</ele>
        <time>2020-09-22T11:47:08.392Z</time>
      </trkpt>
      <trkpt lat="65.97277" lon="21.21825">
        <ele>81.076013</ele>
        <time>2020-09-22T11:47:10.405Z</time>
      </trkpt>
      <trkpt lat="65.97265" lon="21.21831">
        <ele>80.502124</ele>
        <time>2020-09-22T11:47:12.416Z</time>
      </trkpt>
      <trkpt lat="65.97253" lon="21.21837">
        <ele>79.924358</ele>
        <time>2020-09-22T11:47:14.430Z</time>
      </trkpt>
      <trkpt lat="65.97241" lon="21.21842">
        <ele>79.351638</ele>
        <time>2020-09-22T11:47:16.399Z</time>
      </trkpt>
      <trkpt lat="65.97229" lon="21.21849">
        <ele>78.754057</ele>
        <time>2020-09-22T11:47:18.399Z</time>
      </trkpt>
      <trkpt lat="65.97217" lon="21.21854">
        <ele>78.157618</ele>
        <time>2020-09-22T11:47:20.405Z</time>
      </trkpt>
      <trkpt lat="65.97204" lon="21.2186">
        <ele>77.554247</ele>
        <time>2020-09-22T11:47:22.394Z</time>
      </trkpt>
      <trkpt lat="65.97192" lon="21.21864">
        <ele>76.957701</ele>
        <time>2020-09-22T11:47:24.407Z</time>
      </trkpt>
      <trkpt lat="65.97179" lon="21.21869">
        <ele>76.354965</ele>
        <time>2020-09-22T11:47:26.404Z</time>
      </trkpt>
      <trkpt lat="65.97167" lon="21.21874">
        <ele>75.840425</ele>
        <time>2020-09-22T11:47:28.413Z</time>
      </trkpt>
      <trkpt lat="65.97155" lon="21.21878">
        <ele>75.367626</ele>
        <time>2020-09-22T11:47:30.417Z</time>
      </trkpt>
      <trkpt lat="65.97143" lon="21.21882">
        <ele>74.87756</ele>
        <time>2020-09-22T11:47:32.435Z</time>
      </trkpt>
      <trkpt lat="65.9713" lon="21.21886">
        <ele>74.377128</ele>
        <time>2020-09-22T11:47:34.397Z</time>
      </trkpt>
      <trkpt lat="65.97117" lon="21.2189">
        <ele>73.863213</ele>
        <time>2020-09-22T11:47:36.433Z</time>
      </trkpt>
      <trkpt lat="65.97105" lon="21.21894">
        <ele>73.354303</ele>
        <time>2020-09-22T11:47:38.402Z</time>
      </trkpt>
      <trkpt lat="65.97092" lon="21.21898">
        <ele>72.8298</ele>
        <time>2020-09-22T11:47:40.408Z</time>
      </trkpt>
      <trkpt lat="65.97078" lon="21.21902">
        <ele>72.281951</ele>
        <time>2020-09-22T11:47:42.422Z</time>
      </trkpt>
      <trkpt lat="65.97064" lon="21.21906">
        <ele>71.720322</ele>
        <time>2020-09-22T11:47:44.416Z</time>
      </trkpt>
      <trkpt lat="65.9705" lon="21.21911">
        <ele>71.149695</ele>
        <time>2020-09-22T11:47:46.406Z</time>
      </trkpt>
      <trkpt lat="65.97036" lon="21.21916">
        <ele>70.603376</ele>
        <time>2020-09-22T11:47:48.433Z</time>
      </trkpt>
      <trkpt lat="65.97023" lon="21.21919">
        <ele>70.091792</ele>
        <time>2020-09-22T11:47:50.393Z</time>
      </trkpt>
      <trkpt lat="65.97011" lon="21.21923">
        <ele>69.607714</ele>
        <time>2020-09-22T11:47:52.412Z</time>
      </trkpt>
      <trkpt lat="65.96999" lon="21.21925">
        <ele>69.185992</ele>
        <time>2020-09-22T11:47:54.421Z</time>
      </trkpt>
      <trkpt lat="65.96988" lon="21.21928">
        <ele>69.17295</ele>
        <time>2020-09-22T11:47:56.437Z</time>
      </trkpt>
      <trkpt lat="65.96976" lon="21.2193">
        <ele>69.159817</ele>
        <time>2020-09-22T11:47:58.405Z</time>
      </trkpt>
      <trkpt lat="65.96965" lon="21.21933">
        <ele>69.146869</ele>
        <time>2020-09-22T11:48:00.404Z</time>
      </trkpt>
      <trkpt lat="65.96954" lon="21.21936">
        <ele>69.134248</ele>
        <time>2020-09-22T11:48:02.411Z</time>
      </trkpt>
      <trkpt lat="65.96943" lon="21.21939">
        <ele>69.121866</ele>
        <time>2020-09-22T11:48:04.413Z</time>
      </trkpt>
      <trkpt lat="65.96931" lon="21.21943">
        <ele>69.108774</ele>
        <time>2020-09-22T11:48:06.400Z</time>
      </trkpt>
      <trkpt lat="65.9692" lon="21.21946">
        <ele>69.095458</ele>
        <time>2020-09-22T11:48:08.420Z</time>
      </trkpt>
      <trkpt lat="65.96908" lon="21.21949">
        <ele>69.08227</ele>
        <time>2020-09-22T11:48:10.400Z</time>
      </trkpt>
      <trkpt lat="65.96897" lon="21.21951">
        <ele>69.070054</ele>
        <time>2020-09-22T11:48:12.403Z</time>
      </trkpt>
      <trkpt lat="65.96886" lon="21.21954">
        <ele>69.057678</ele>
        <time>2020-09-22T11:48:14.423Z</time>
      </trkpt>
      <trkpt lat="65.96876" lon="21.21958">
        <ele>69.045418</ele>
        <time>2020-09-22T11:48:16.394Z</time>
      </trkpt>
      <trkpt lat="65.96865" lon="21.21963">
        <ele>69.033039</ele>
        <time>2020-09-22T11:48:18.412Z</time>
      </trkpt>
      <trkpt lat="65.96854" lon="21.21967">
        <ele>69.02106</ele>
        <time>2020-09-22T11:48:20.426Z</time>
      </trkpt>
      <trkpt lat="65.96844" lon="21.21971">
        <ele>69.009562</ele>
        <time>2020-09-22T11:48:22.409Z</time>
      </trkpt>
      <trkpt lat="65.96835" lon="21.21975">
        <ele>68.999257</ele>
        <time>2020-09-22T11:48:24.441Z</time>
      </trkpt>
      <trkpt lat="65.96822" lon="21.21979">
        <ele>68.984573</ele>
        <time>2020-09-22T11:48:27.437Z</time>
      </trkpt>
      <trkpt lat="65.9681" lon="21.21983">
        <ele>68.955879</ele>
        <time>2020-09-22T11:48:30.424Z</time>
      </trkpt>
      <trkpt lat="65.96798" lon="21.21988">
        <ele>68.926184</ele>
        <time>2020-09-22T11:48:33.408Z</time>
      </trkpt>
      <trkpt lat="65.96785" lon="21.21993">
        <ele>68.896489</ele>
        <time>2020-09-22T11:48:36.415Z</time>
      </trkpt>
      <trkpt lat="65.96773" lon="21.21999">
        <ele>68.865583</ele>
        <time>2020-09-22T11:48:39.397Z</time>
      </trkpt>
      <trkpt lat="65.96763" lon="21.22002">
        <ele>68.843893</ele>
        <time>2020-09-22T11:48:41.400Z</time>
      </trkpt>
      <trkpt lat="65.96755" lon="21.22007">
        <ele>68.822486</ele>
        <time>2020-09-22T11:48:43.419Z</time>
      </trkpt>
      <trkpt lat="65.96742" lon="21.22014">
        <ele>68.791314</ele>
        <time>2020-09-22T11:48:46.407Z</time>
      </trkpt>
      <trkpt lat="65.96729" lon="21.2202">
        <ele>68.760373</ele>
        <time>2020-09-22T11:48:49.424Z</time>
      </trkpt>
      <trkpt lat="65.96716" lon="21.22025">
        <ele>68.730894</ele>
        <time>2020-09-22T11:48:52.397Z</time>
      </trkpt>
      <trkpt lat="65.96704" lon="21.2203">
        <ele>68.701744</ele>
        <time>2020-09-22T11:48:55.396Z</time>
      </trkpt>
      <trkpt lat="65.96692" lon="21.22037">
        <ele>68.671973</ele>
        <time>2020-09-22T11:48:58.424Z</time>
      </trkpt>
      <trkpt lat="65.9668" lon="21.22043">
        <ele>68.64396</ele>
        <time>2020-09-22T11:49:01.424Z</time>
      </trkpt>
      <trkpt lat="65.96669" lon="21.22049">
        <ele>68.617509</ele>
        <time>2020-09-22T11:49:04.404Z</time>
      </trkpt>
      <trkpt lat="65.96659" lon="21.22055">
        <ele>68.593465</ele>
        <time>2020-09-22T11:49:07.408Z</time>
      </trkpt>
      <trkpt lat="65.9665" lon="21.22061">
        <ele>68.569901</ele>
        <time>2020-09-22T11:49:10.419Z</time>
      </trkpt>
      <trkpt lat="65.9664" lon="21.22066">
        <ele>68.514786</ele>
        <time>2020-09-22T11:49:13.398Z</time>
      </trkpt>
      <trkpt lat="65.96631" lon="21.2207">
        <ele>68.442166</ele>
        <time>2020-09-22T11:49:16.452Z</time>
      </trkpt>
      <trkpt lat="65.96621" lon="21.22074">
        <ele>68.366629</ele>
        <time>2020-09-22T11:49:19.408Z</time>
      </trkpt>
      <trkpt lat="65.96611" lon="21.2208">
        <ele>68.287042</ele>
        <time>2020-09-22T11:49:22.436Z</time>
      </trkpt>
      <trkpt lat="65.966" lon="21.22085">
        <ele>68.20246</ele>
        <time>2020-09-22T11:49:25.441Z</time>
      </trkpt>
      <trkpt lat="65.96588" lon="21.22091">
        <ele>68.109164</ele>
        <time>2020-09-22T11:49:28.421Z</time>
      </trkpt>
      <trkpt lat="65.96579" lon="21.22096">
        <ele>68.040002</ele>
        <time>2020-09-22T11:49:30.441Z</time>
      </trkpt>
      <trkpt lat="65.9657" lon="21.22101">
        <ele>67.966464</ele>
        <time>2020-09-22T11:49:32.420Z</time>
      </trkpt>
      <trkpt lat="65.9656" lon="21.22107">
        <ele>67.888581</ele>
        <time>2020-09-22T11:49:34.394Z</time>
      </trkpt>
      <trkpt lat="65.9655" lon="21.22113">
        <ele>67.81027</ele>
        <time>2020-09-22T11:49:36.399Z</time>
      </trkpt>
      <trkpt lat="65.9654" lon="21.22119">
        <ele>67.730467</ele>
        <time>2020-09-22T11:49:38.431Z</time>
      </trkpt>
      <trkpt lat="65.9653" lon="21.22125">
        <ele>67.647382</ele>
        <time>2020-09-22T11:49:40.414Z</time>
      </trkpt>
      <trkpt lat="65.96519" lon="21.22131">
        <ele>67.561663</ele>
        <time>2020-09-22T11:49:42.397Z</time>
      </trkpt>
      <trkpt lat="65.96507" lon="21.22137">
        <ele>67.47244</ele>
        <time>2020-09-22T11:49:44.421Z</time>
      </trkpt>
      <trkpt lat="65.96496" lon="21.22143">
        <ele>67.380583</ele>
        <time>2020-09-22T11:49:46.410Z</time>
      </trkpt>
      <trkpt lat="65.96483" lon="21.22149">
        <ele>67.284396</ele>
        <time>2020-09-22T11:49:48.414Z</time>
      </trkpt>
      <trkpt lat="65.96471" lon="21.22155">
        <ele>67.185519</ele>
        <time>2020-09-22T11:49:50.448Z</time>
      </trkpt>
      <trkpt lat="65.96458" lon="21.22162">
        <ele>66.729298</ele>
        <time>2020-09-22T11:49:52.416Z</time>
      </trkpt>
      <trkpt lat="65.96445" lon="21.22167">
        <ele>66.252312</ele>
        <time>2020-09-22T11:49:54.406Z</time>
      </trkpt>
      <trkpt lat="65.96432" lon="21.22172">
        <ele>65.746751</ele>
        <time>2020-09-22T11:49:56.453Z</time>
      </trkpt>
      <trkpt lat="65.96419" lon="21.22178">
        <ele>65.252221</ele>
        <time>2020-09-22T11:49:58.403Z</time>
      </trkpt>
      <trkpt lat="65.96406" lon="21.22185">
        <ele>64.762462</ele>
        <time>2020-09-22T11:50:00.401Z</time>
      </trkpt>
      <trkpt lat="65.96393" lon="21.22194">
        <ele>64.261256</ele>
        <time>2020-09-22T11:50:02.406Z</time>
      </trkpt>
      <trkpt lat="65.9638" lon="21.22202">
        <ele>63.764386</ele>
        <time>2020-09-22T11:50:04.389Z</time>
      </trkpt>
      <trkpt lat="65.96367" lon="21.22208">
        <ele>63.280156</ele>
        <time>2020-09-22T11:50:06.436Z</time>
      </trkpt>
      <trkpt lat="65.96355" lon="21.22215">
        <ele>62.828526</ele>
        <time>2020-09-22T11:50:08.424Z</time>
      </trkpt>
      <trkpt lat="65.96343" lon="21.2222">
        <ele>62.392727</ele>
        <time>2020-09-22T11:50:10.396Z</time>
      </trkpt>
      <trkpt lat="65.96333" lon="21.22225">
        <ele>61.989215</ele>
        <time>2020-09-22T11:50:12.395Z</time>
      </trkpt>
      <trkpt lat="65.96322" lon="21.22229">
        <ele>61.598508</ele>
        <time>2020-09-22T11:50:14.401Z</time>
      </trkpt>
      <trkpt lat="65.96312" lon="21.22234">
        <ele>61.22437</ele>
        <time>2020-09-22T11:50:16.424Z</time>
      </trkpt>
      <trkpt lat="65.96303" lon="21.22238">
        <ele>60.862301</ele>
        <time>2020-09-22T11:50:18.402Z</time>
      </trkpt>
      <trkpt lat="65.96293" lon="21.22243">
        <ele>60.514342</ele>
        <time>2020-09-22T11:50:20.443Z</time>
      </trkpt>
      <trkpt lat="65.96284" lon="21.22247">
        <ele>60.478316</ele>
        <time>2020-09-22T11:50:22.394Z</time>
      </trkpt>
      <trkpt lat="65.96275" lon="21.22252">
        <ele>60.442815</ele>
        <time>2020-09-22T11:50:24.401Z</time>
      </trkpt>
      <trkpt lat="65.96262" lon="21.22256">
        <ele>60.391993</ele>
        <time>2020-09-22T11:50:27.413Z</time>
      </trkpt>
      <trkpt lat="65.96249" lon="21.22262">
        <ele>60.340888</ele>
        <time>2020-09-22T11:50:30.415Z</time>
      </trkpt>
      <trkpt lat="65.96236" lon="21.22269">
        <ele>60.29042</ele>
        <time>2020-09-22T11:50:33.401Z</time>
      </trkpt>
      <trkpt lat="65.96223" lon="21.22274">
        <ele>60.239046</ele>
        <time>2020-09-22T11:50:36.389Z</time>
      </trkpt>
      <trkpt lat="65.9621" lon="21.22281">
        <ele>60.188419</ele>
        <time>2020-09-22T11:50:39.398Z</time>
      </trkpt>
      <trkpt lat="65.96197" lon="21.22287">
        <ele>60.137692</ele>
        <time>2020-09-22T11:50:42.407Z</time>
      </trkpt>
      <trkpt lat="65.96188" lon="21.22292">
        <ele>60.102624</ele>
        <time>2020-09-22T11:50:44.404Z</time>
      </trkpt>
      <trkpt lat="65.96179" lon="21.22297">
        <ele>60.067146</ele>
        <time>2020-09-22T11:50:46.398Z</time>
      </trkpt>
      <trkpt lat="65.9617" lon="21.22302">
        <ele>60.032247</ele>
        <time>2020-09-22T11:50:48.492Z</time>
      </trkpt>
      <trkpt lat="65.96157" lon="21.22308">
        <ele>59.981462</ele>
        <time>2020-09-22T11:50:51.398Z</time>
      </trkpt>
      <trkpt lat="65.96145" lon="21.22315">
        <ele>59.934359</ele>
        <time>2020-09-22T11:50:54.407Z</time>
      </trkpt>
      <trkpt lat="65.96133" lon="21.22322">
        <ele>59.886389</ele>
        <time>2020-09-22T11:50:57.399Z</time>
      </trkpt>
      <trkpt lat="65.96121" lon="21.22328">
        <ele>59.839053</ele>
        <time>2020-09-22T11:51:00.434Z</time>
      </trkpt>
      <trkpt lat="65.96108" lon="21.22333">
        <ele>60.168773</ele>
        <time>2020-09-22T11:51:03.440Z</time>
      </trkpt>
      <trkpt lat="65.96095" lon="21.22337">
        <ele>60.652664</ele>
        <time>2020-09-22T11:51:06.400Z</time>
      </trkpt>
      <trkpt lat="65.96083" lon="21.22342">
        <ele>61.09277</ele>
        <time>2020-09-22T11:51:09.409Z</time>
      </trkpt>
      <trkpt lat="65.96072" lon="21.22347">
        <ele>61.513348</ele>
        <time>2020-09-22T11:51:12.417Z</time>
      </trkpt>
      <trkpt lat="65.9606" lon="21.22354">
        <ele>61.948709</ele>
        <time>2020-09-22T11:51:15.396Z</time>
      </trkpt>
      <trkpt lat="65.96049" lon="21.22363">
        <ele>62.370921</ele>
        <time>2020-09-22T11:51:18.395Z</time>
      </trkpt>
      <trkpt lat="65.96038" lon="21.2237">
        <ele>62.784085</ele>
        <time>2020-09-22T11:51:21.417Z</time>
      </trkpt>
      <trkpt lat="65.96027" lon="21.22378">
        <ele>63.193729</ele>
        <time>2020-09-22T11:51:24.391Z</time>
      </trkpt>
      <trkpt lat="65.96016" lon="21.22385">
        <ele>63.630493</ele>
        <time>2020-09-22T11:51:27.415Z</time>
      </trkpt>
      <trkpt lat="65.96004" lon="21.22392">
        <ele>64.085704</ele>
        <time>2020-09-22T11:51:30.413Z</time>
      </trkpt>
      <trkpt lat="65.95993" lon="21.22398">
        <ele>64.506159</ele>
        <time>2020-09-22T11:51:33.402Z</time>
      </trkpt>
      <trkpt lat="65.95982" lon="21.22406">
        <ele>64.907572</ele>
        <time>2020-09-22T11:51:36.420Z</time>
      </trkpt>
      <trkpt lat="65.95971" lon="21.22413">
        <ele>65.312902</ele>
        <time>2020-09-22T11:51:39.416Z</time>
      </trkpt>
      <trkpt lat="65.9596" lon="21.22422">
        <ele>65.740443</ele>
        <time>2020-09-22T11:51:42.407Z</time>
      </trkpt>
      <trkpt lat="65.95949" lon="21.22433">
        <ele>66.194221</ele>
        <time>2020-09-22T11:51:45.402Z</time>
      </trkpt>
      <trkpt lat="65.95937" lon="21.22445">
        <ele>66.404538</ele>
        <time>2020-09-22T11:51:48.396Z</time>
      </trkpt>
      <trkpt lat="65.95928" lon="21.22454">
        <ele>66.414234</ele>
        <time>2020-09-22T11:51:50.401Z</time>
      </trkpt>
      <trkpt lat="65.95916" lon="21.22468">
        <ele>66.428558</ele>
        <time>2020-09-22T11:51:53.394Z</time>
      </trkpt>
      <trkpt lat="65.95905" lon="21.22482">
        <ele>66.442454</ele>
        <time>2020-09-22T11:51:56.420Z</time>
      </trkpt>
      <trkpt lat="65.95893" lon="21.22495">
        <ele>66.456098</ele>
        <time>2020-09-22T11:51:59.413Z</time>
      </trkpt>
      <trkpt lat="65.95882" lon="21.22508">
        <ele>66.469576</ele>
        <time>2020-09-22T11:52:02.417Z</time>
      </trkpt>
      <trkpt lat="65.9587" lon="21.2252">
        <ele>66.483199</ele>
        <time>2020-09-22T11:52:05.429Z</time>
      </trkpt>
      <trkpt lat="65.9586" lon="21.22532">
        <ele>66.496077</ele>
        <time>2020-09-22T11:52:08.419Z</time>
      </trkpt>
      <trkpt lat="65.95849" lon="21.22544">
        <ele>66.508696</ele>
        <time>2020-09-22T11:52:11.413Z</time>
      </trkpt>
      <trkpt lat="65.95839" lon="21.22555">
        <ele>66.52067</ele>
        <time>2020-09-22T11:52:14.420Z</time>
      </trkpt>
      <trkpt lat="65.95829" lon="21.22566">
        <ele>66.532554</ele>
        <time>2020-09-22T11:52:17.415Z</time>
      </trkpt>
      <trkpt lat="65.95818" lon="21.22578">
        <ele>66.545136</ele>
        <time>2020-09-22T11:52:20.406Z</time>
      </trkpt>
      <trkpt lat="65.95807" lon="21.22591">
        <ele>66.558767</ele>
        <time>2020-09-22T11:52:23.405Z</time>
      </trkpt>
      <trkpt lat="65.95795" lon="21.22605">
        <ele>66.573128</ele>
        <time>2020-09-22T11:52:26.422Z</time>
      </trkpt>
      <trkpt lat="65.95786" lon="21.22614">
        <ele>66.58304</ele>
        <time>2020-09-22T11:52:28.406Z</time>
      </trkpt>
      <trkpt lat="65.95778" lon="21.22623">
        <ele>66.519967</ele>
        <time>2020-09-22T11:52:30.412Z</time>
      </trkpt>
      <trkpt lat="65.95769" lon="21.22633">
        <ele>66.197057</ele>
        <time>2020-09-22T11:52:32.405Z</time>
      </trkpt>
      <trkpt lat="65.9576" lon="21.22642">
        <ele>65.857766</ele>
        <time>2020-09-22T11:52:34.414Z</time>
      </trkpt>
      <trkpt lat="65.95751" lon="21.22651">
        <ele>65.522731</ele>
        <time>2020-09-22T11:52:36.405Z</time>
      </trkpt>
      <trkpt lat="65.95743" lon="21.2266">
        <ele>65.191434</ele>
        <time>2020-09-22T11:52:38.430Z</time>
      </trkpt>
      <trkpt lat="65.95733" lon="21.2267">
        <ele>64.838249</ele>
        <time>2020-09-22T11:52:40.395Z</time>
      </trkpt>
      <trkpt lat="65.95724" lon="21.2268">
        <ele>64.484515</ele>
        <time>2020-09-22T11:52:42.435Z</time>
      </trkpt>
      <trkpt lat="65.95714" lon="21.2269">
        <ele>64.114711</ele>
        <time>2020-09-22T11:52:44.408Z</time>
      </trkpt>
      <trkpt lat="65.95704" lon="21.22702">
        <ele>63.719043</ele>
        <time>2020-09-22T11:52:46.395Z</time>
      </trkpt>
      <trkpt lat="65.95693" lon="21.22714">
        <ele>63.302106</ele>
        <time>2020-09-22T11:52:48.416Z</time>
      </trkpt>
      <trkpt lat="65.95681" lon="21.22726">
        <ele>62.866477</ele>
        <time>2020-09-22T11:52:50.407Z</time>
      </trkpt>
      <trkpt lat="65.95669" lon="21.22739">
        <ele>62.409847</ele>
        <time>2020-09-22T11:52:52.417Z</time>
      </trkpt>
      <trkpt lat="65.95657" lon="21.22755">
        <ele>61.935789</ele>
        <time>2020-09-22T11:52:54.479Z</time>
      </trkpt>
      <trkpt lat="65.95645" lon="21.2277">
        <ele>61.453237</ele>
        <time>2020-09-22T11:52:56.411Z</time>
      </trkpt>
      <trkpt lat="65.95631" lon="21.22785">
        <ele>60.950592</ele>
        <time>2020-09-22T11:52:58.395Z</time>
      </trkpt>
      <trkpt lat="65.95618" lon="21.22799">
        <ele>60.442975</ele>
        <time>2020-09-22T11:53:00.413Z</time>
      </trkpt>
      <trkpt lat="65.95604" lon="21.22813">
        <ele>60.277508</ele>
        <time>2020-09-22T11:53:02.411Z</time>
      </trkpt>
      <trkpt lat="65.95591" lon="21.22828">
        <ele>60.180321</ele>
        <time>2020-09-22T11:53:04.403Z</time>
      </trkpt>
      <trkpt lat="65.95579" lon="21.22843">
        <ele>60.084486</ele>
        <time>2020-09-22T11:53:06.422Z</time>
      </trkpt>
      <trkpt lat="65.95567" lon="21.22857">
        <ele>59.994162</ele>
        <time>2020-09-22T11:53:08.409Z</time>
      </trkpt>
      <trkpt lat="65.95555" lon="21.22869">
        <ele>59.908039</ele>
        <time>2020-09-22T11:53:10.424Z</time>
      </trkpt>
      <trkpt lat="65.95543" lon="21.22882">
        <ele>59.821465</ele>
        <time>2020-09-22T11:53:12.437Z</time>
      </trkpt>
      <trkpt lat="65.95532" lon="21.22894">
        <ele>59.739632</ele>
        <time>2020-09-22T11:53:14.401Z</time>
      </trkpt>
      <trkpt lat="65.95522" lon="21.22905">
        <ele>59.663271</ele>
        <time>2020-09-22T11:53:16.433Z</time>
      </trkpt>
      <trkpt lat="65.95512" lon="21.22915">
        <ele>59.588501</ele>
        <time>2020-09-22T11:53:18.409Z</time>
      </trkpt>
      <trkpt lat="65.95502" lon="21.22926">
        <ele>59.51456</ele>
        <time>2020-09-22T11:53:20.394Z</time>
      </trkpt>
      <trkpt lat="65.95492" lon="21.22936">
        <ele>59.438847</ele>
        <time>2020-09-22T11:53:22.416Z</time>
      </trkpt>
      <trkpt lat="65.95481" lon="21.22947">
        <ele>59.362485</ele>
        <time>2020-09-22T11:53:24.412Z</time>
      </trkpt>
      <trkpt lat="65.95471" lon="21.22958">
        <ele>59.287701</ele>
        <time>2020-09-22T11:53:26.411Z</time>
      </trkpt>
      <trkpt lat="65.95462" lon="21.22968">
        <ele>59.217877</ele>
        <time>2020-09-22T11:53:28.408Z</time>
      </trkpt>
      <trkpt lat="65.95453" lon="21.22979">
        <ele>59.148787</ele>
        <time>2020-09-22T11:53:30.415Z</time>
      </trkpt>
      <trkpt lat="65.95444" lon="21.22989">
        <ele>59.005894</ele>
        <time>2020-09-22T11:53:32.403Z</time>
      </trkpt>
      <trkpt lat="65.95435" lon="21.22998">
        <ele>58.858149</ele>
        <time>2020-09-22T11:53:34.417Z</time>
      </trkpt>
      <trkpt lat="65.95427" lon="21.23009">
        <ele>58.710901</ele>
        <time>2020-09-22T11:53:36.432Z</time>
      </trkpt>
      <trkpt lat="65.95416" lon="21.23024">
        <ele>58.500275</ele>
        <time>2020-09-22T11:53:39.397Z</time>
      </trkpt>
      <trkpt lat="65.95405" lon="21.23036">
        <ele>58.311838</ele>
        <time>2020-09-22T11:53:42.406Z</time>
      </trkpt>
      <trkpt lat="65.95395" lon="21.23042">
        <ele>58.138604</ele>
        <time>2020-09-22T11:53:45.402Z</time>
      </trkpt>
      <trkpt lat="65.95384" lon="21.23042">
        <ele>57.970175</ele>
        <time>2020-09-22T11:53:48.403Z</time>
      </trkpt>
      <trkpt lat="65.95375" lon="21.23049">
        <ele>57.819121</ele>
        <time>2020-09-22T11:53:53.413Z</time>
      </trkpt>
      <trkpt lat="65.95367" lon="21.23079">
        <ele>57.580664</ele>
        <time>2020-09-22T12:09:27.429Z</time>
      </trkpt>
      <trkpt lat="65.95357" lon="21.23089">
        <ele>57.419787</ele>
        <time>2020-09-22T12:09:30.410Z</time>
      </trkpt>
      <trkpt lat="65.95347" lon="21.23101">
        <ele>57.227888</ele>
        <time>2020-09-22T12:09:33.459Z</time>
      </trkpt>
      <trkpt lat="65.95334" lon="21.23113">
        <ele>57.010289</ele>
        <time>2020-09-22T12:09:36.454Z</time>
      </trkpt>
      <trkpt lat="65.95324" lon="21.2312">
        <ele>56.85112</ele>
        <time>2020-09-22T12:09:38.421Z</time>
      </trkpt>
      <trkpt lat="65.95315" lon="21.23129">
        <ele>56.681543</ele>
        <time>2020-09-22T12:09:40.409Z</time>
      </trkpt>
      <trkpt lat="65.95304" lon="21.23138">
        <ele>56.497275</ele>
        <time>2020-09-22T12:09:42.442Z</time>
      </trkpt>
      <trkpt lat="65.95292" lon="21.23147">
        <ele>56.301927</ele>
        <time>2020-09-22T12:09:44.415Z</time>
      </trkpt>
      <trkpt lat="65.9528" lon="21.23156">
        <ele>55.800453</ele>
        <time>2020-09-22T12:09:46.449Z</time>
      </trkpt>
      <trkpt lat="65.95267" lon="21.23163">
        <ele>55.172448</ele>
        <time>2020-09-22T12:09:48.415Z</time>
      </trkpt>
      <trkpt lat="65.95252" lon="21.23171">
        <ele>54.457834</ele>
        <time>2020-09-22T12:09:50.405Z</time>
      </trkpt>
      <trkpt lat="65.95237" lon="21.23177">
        <ele>53.723155</ele>
        <time>2020-09-22T12:09:52.402Z</time>
      </trkpt>
      <trkpt lat="65.95223" lon="21.2318">
        <ele>53.05428</ele>
        <time>2020-09-22T12:09:54.430Z</time>
      </trkpt>
      <trkpt lat="65.95208" lon="21.23183">
        <ele>52.377674</ele>
        <time>2020-09-22T12:09:56.417Z</time>
      </trkpt>
      <trkpt lat="65.95194" lon="21.23185">
        <ele>51.71704</ele>
        <time>2020-09-22T12:09:58.424Z</time>
      </trkpt>
      <trkpt lat="65.9518" lon="21.23187">
        <ele>51.059836</ele>
        <time>2020-09-22T12:10:00.426Z</time>
      </trkpt>
      <trkpt lat="65.95167" lon="21.23189">
        <ele>50.417016</ele>
        <time>2020-09-22T12:10:02.432Z</time>
      </trkpt>
      <trkpt lat="65.95154" lon="21.2319">
        <ele>49.827508</ele>
        <time>2020-09-22T12:10:04.396Z</time>
      </trkpt>
      <trkpt lat="65.95142" lon="21.2319">
        <ele>49.247496</ele>
        <time>2020-09-22T12:10:06.399Z</time>
      </trkpt>
      <trkpt lat="65.9513" lon="21.23192">
        <ele>48.690116</ele>
        <time>2020-09-22T12:10:08.410Z</time>
      </trkpt>
      <trkpt lat="65.95119" lon="21.23192">
        <ele>48.16653</ele>
        <time>2020-09-22T12:10:10.432Z</time>
      </trkpt>
      <trkpt lat="65.95108" lon="21.23193">
        <ele>47.807126</ele>
        <time>2020-09-22T12:10:12.415Z</time>
      </trkpt>
      <trkpt lat="65.95097" lon="21.23193">
        <ele>47.966235</ele>
        <time>2020-09-22T12:10:14.401Z</time>
      </trkpt>
      <trkpt lat="65.95086" lon="21.23193">
        <ele>48.12112</ele>
        <time>2020-09-22T12:10:16.429Z</time>
      </trkpt>
      <trkpt lat="65.95075" lon="21.23192">
        <ele>48.27182</ele>
        <time>2020-09-22T12:10:18.403Z</time>
      </trkpt>
      <trkpt lat="65.95065" lon="21.23192">
        <ele>48.421143</ele>
        <time>2020-09-22T12:10:20.390Z</time>
      </trkpt>
      <trkpt lat="65.95054" lon="21.23191">
        <ele>48.564837</ele>
        <time>2020-09-22T12:10:22.392Z</time>
      </trkpt>
      <trkpt lat="65.95044" lon="21.2319">
        <ele>48.711284</ele>
        <time>2020-09-22T12:10:24.411Z</time>
      </trkpt>
      <trkpt lat="65.95034" lon="21.23191">
        <ele>48.853501</ele>
        <time>2020-09-22T12:10:26.401Z</time>
      </trkpt>
      <trkpt lat="65.95024" lon="21.23189">
        <ele>48.995974</ele>
        <time>2020-09-22T12:10:28.420Z</time>
      </trkpt>
      <trkpt lat="65.95014" lon="21.23187">
        <ele>49.140148</ele>
        <time>2020-09-22T12:10:30.422Z</time>
      </trkpt>
      <trkpt lat="65.95004" lon="21.23186">
        <ele>49.281181</ele>
        <time>2020-09-22T12:10:32.400Z</time>
      </trkpt>
      <trkpt lat="65.94994" lon="21.23185">
        <ele>49.420673</ele>
        <time>2020-09-22T12:10:34.419Z</time>
      </trkpt>
      <trkpt lat="65.94984" lon="21.23183">
        <ele>49.563113</ele>
        <time>2020-09-22T12:10:36.407Z</time>
      </trkpt>
      <trkpt lat="65.94974" lon="21.23183">
        <ele>49.699752</ele>
        <time>2020-09-22T12:10:38.399Z</time>
      </trkpt>
      <trkpt lat="65.94964" lon="21.2318">
        <ele>49.838317</ele>
        <time>2020-09-22T12:10:40.430Z</time>
      </trkpt>
      <trkpt lat="65.94955" lon="21.23177">
        <ele>49.969073</ele>
        <time>2020-09-22T12:10:42.412Z</time>
      </trkpt>
      <trkpt lat="65.94946" lon="21.23175">
        <ele>50.100743</ele>
        <time>2020-09-22T12:10:44.435Z</time>
      </trkpt>
      <trkpt lat="65.94936" lon="21.23173">
        <ele>50.230569</ele>
        <time>2020-09-22T12:10:46.439Z</time>
      </trkpt>
      <trkpt lat="65.94923" lon="21.2317">
        <ele>50.400487</ele>
        <time>2020-09-22T12:10:49.435Z</time>
      </trkpt>
      <trkpt lat="65.9491" lon="21.23168">
        <ele>50.566218</ele>
        <time>2020-09-22T12:10:52.416Z</time>
      </trkpt>
      <trkpt lat="65.94901" lon="21.23166">
        <ele>50.678446</ele>
        <time>2020-09-22T12:10:54.416Z</time>
      </trkpt>
      <trkpt lat="65.94891" lon="21.23163">
        <ele>50.796823</ele>
        <time>2020-09-22T12:10:56.419Z</time>
      </trkpt>
      <trkpt lat="65.94882" lon="21.2316">
        <ele>50.912932</ele>
        <time>2020-09-22T12:10:58.386Z</time>
      </trkpt>
      <trkpt lat="65.94869" lon="21.23157">
        <ele>51.073042</ele>
        <time>2020-09-22T12:11:01.402Z</time>
      </trkpt>
      <trkpt lat="65.94857" lon="21.23155">
        <ele>51.220716</ele>
        <time>2020-09-22T12:11:04.439Z</time>
      </trkpt>
      <trkpt lat="65.94845" lon="21.23152">
        <ele>51.367258</ele>
        <time>2020-09-22T12:11:07.415Z</time>
      </trkpt>
      <trkpt lat="65.94833" lon="21.23148">
        <ele>51.512251</ele>
        <time>2020-09-22T12:11:10.402Z</time>
      </trkpt>
      <trkpt lat="65.94821" lon="21.23145">
        <ele>51.660373</ele>
        <time>2020-09-22T12:11:13.413Z</time>
      </trkpt>
      <trkpt lat="65.94809" lon="21.23141">
        <ele>51.81099</ele>
        <time>2020-09-22T12:11:16.454Z</time>
      </trkpt>
      <trkpt lat="65.94798" lon="21.23139">
        <ele>51.950113</ele>
        <time>2020-09-22T12:11:19.421Z</time>
      </trkpt>
      <trkpt lat="65.94787" lon="21.23136">
        <ele>52.086889</ele>
        <time>2020-09-22T12:11:22.416Z</time>
      </trkpt>
      <trkpt lat="65.94777" lon="21.23134">
        <ele>52.200284</ele>
        <time>2020-09-22T12:11:25.415Z</time>
      </trkpt>
      <trkpt lat="65.94766" lon="21.23131">
        <ele>52.33955</ele>
        <time>2020-09-22T12:11:29.400Z</time>
      </trkpt>
      <trkpt lat="65.94755" lon="21.2313">
        <ele>52.475704</ele>
        <time>2020-09-22T12:11:33.415Z</time>
      </trkpt>
      <trkpt lat="65.94743" lon="21.23133">
        <ele>52.529029</ele>
        <time>2020-09-22T12:11:37.436Z</time>
      </trkpt>
      <trkpt lat="65.94734" lon="21.23138">
        <ele>52.54878</ele>
        <time>2020-09-22T12:11:40.422Z</time>
      </trkpt>
      <trkpt lat="65.94726" lon="21.23143">
        <ele>52.56851</ele>
        <time>2020-09-22T12:11:43.426Z</time>
      </trkpt>
      <trkpt lat="65.94717" lon="21.23146">
        <ele>52.588059</ele>
        <time>2020-09-22T12:11:46.410Z</time>
      </trkpt>
      <trkpt lat="65.94705" lon="21.23155">
        <ele>52.614965</ele>
        <time>2020-09-22T12:11:50.413Z</time>
      </trkpt>
      <trkpt lat="65.94695" lon="21.23163">
        <ele>52.63766</ele>
        <time>2020-09-22T12:11:53.402Z</time>
      </trkpt>
      <trkpt lat="65.94686" lon="21.23172">
        <ele>52.659193</ele>
        <time>2020-09-22T12:11:56.425Z</time>
      </trkpt>
      <trkpt lat="65.94676" lon="21.23181">
        <ele>52.681398</ele>
        <time>2020-09-22T12:11:59.428Z</time>
      </trkpt>
      <trkpt lat="65.94667" lon="21.23192">
        <ele>52.703652</ele>
        <time>2020-09-22T12:12:02.412Z</time>
      </trkpt>
      <trkpt lat="65.94658" lon="21.23203">
        <ele>52.726798</ele>
        <time>2020-09-22T12:12:05.432Z</time>
      </trkpt>
      <trkpt lat="65.94648" lon="21.23215">
        <ele>52.750023</ele>
        <time>2020-09-22T12:12:08.416Z</time>
      </trkpt>
      <trkpt lat="65.94638" lon="21.23227">
        <ele>52.774106</ele>
        <time>2020-09-22T12:12:11.403Z</time>
      </trkpt>
      <trkpt lat="65.94628" lon="21.23239">
        <ele>52.79811</ele>
        <time>2020-09-22T12:12:14.427Z</time>
      </trkpt>
      <trkpt lat="65.94617" lon="21.23252">
        <ele>52.824304</ele>
        <time>2020-09-22T12:12:17.405Z</time>
      </trkpt>
      <trkpt lat="65.94606" lon="21.23265">
        <ele>52.850889</ele>
        <time>2020-09-22T12:12:20.417Z</time>
      </trkpt>
      <trkpt lat="65.94596" lon="21.23278">
        <ele>52.87595</ele>
        <time>2020-09-22T12:12:23.396Z</time>
      </trkpt>
      <trkpt lat="65.94586" lon="21.2329">
        <ele>52.900854</ele>
        <time>2020-09-22T12:12:26.429Z</time>
      </trkpt>
      <trkpt lat="65.94576" lon="21.23303">
        <ele>53.067158</ele>
        <time>2020-09-22T12:12:29.416Z</time>
      </trkpt>
      <trkpt lat="65.94567" lon="21.23316">
        <ele>53.225463</ele>
        <time>2020-09-22T12:12:32.413Z</time>
      </trkpt>
      <trkpt lat="65.94558" lon="21.23328">
        <ele>53.383458</ele>
        <time>2020-09-22T12:12:35.416Z</time>
      </trkpt>
      <trkpt lat="65.94549" lon="21.2334">
        <ele>53.545602</ele>
        <time>2020-09-22T12:12:38.420Z</time>
      </trkpt>
      <trkpt lat="65.94538" lon="21.23352">
        <ele>53.727007</ele>
        <time>2020-09-22T12:12:42.395Z</time>
      </trkpt>
      <trkpt lat="65.94529" lon="21.2336">
        <ele>53.866381</ele>
        <time>2020-09-22T12:12:45.435Z</time>
      </trkpt>
      <trkpt lat="65.94519" lon="21.23368">
        <ele>54.036934</ele>
        <time>2020-09-22T12:12:49.441Z</time>
      </trkpt>
      <trkpt lat="65.94507" lon="21.23375">
        <ele>54.218855</ele>
        <time>2020-09-22T12:12:53.415Z</time>
      </trkpt>
      <trkpt lat="65.94497" lon="21.23382">
        <ele>54.379854</ele>
        <time>2020-09-22T12:12:56.421Z</time>
      </trkpt>
      <trkpt lat="65.94486" lon="21.23389">
        <ele>54.551036</ele>
        <time>2020-09-22T12:12:59.401Z</time>
      </trkpt>
      <trkpt lat="65.94476" lon="21.23393">
        <ele>54.700057</ele>
        <time>2020-09-22T12:13:02.417Z</time>
      </trkpt>
      <trkpt lat="65.94467" lon="21.23396">
        <ele>54.840225</ele>
        <time>2020-09-22T12:13:05.417Z</time>
      </trkpt>
      <trkpt lat="65.94457" lon="21.23399">
        <ele>55.004363</ele>
        <time>2020-09-22T12:13:08.418Z</time>
      </trkpt>
      <trkpt lat="65.94446" lon="21.23402">
        <ele>55.170156</ele>
        <time>2020-09-22T12:13:11.408Z</time>
      </trkpt>
      <trkpt lat="65.94435" lon="21.23405">
        <ele>55.340002</ele>
        <time>2020-09-22T12:13:14.408Z</time>
      </trkpt>
      <trkpt lat="65.94424" lon="21.23406">
        <ele>55.507888</ele>
        <time>2020-09-22T12:13:17.418Z</time>
      </trkpt>
      <trkpt lat="65.94414" lon="21.23406">
        <ele>55.663316</ele>
        <time>2020-09-22T12:13:20.413Z</time>
      </trkpt>
      <trkpt lat="65.94402" lon="21.23407">
        <ele>55.85735</ele>
        <time>2020-09-22T12:13:24.421Z</time>
      </trkpt>
      <trkpt lat="65.94392" lon="21.23407">
        <ele>56.011867</ele>
        <time>2020-09-22T12:13:27.407Z</time>
      </trkpt>
      <trkpt lat="65.94383" lon="21.23405">
        <ele>56.16188</ele>
        <time>2020-09-22T12:13:30.448Z</time>
      </trkpt>
      <trkpt lat="65.94374" lon="21.23405">
        <ele>56.309829</ele>
        <time>2020-09-22T12:13:33.437Z</time>
      </trkpt>
      <trkpt lat="65.94362" lon="21.23407">
        <ele>56.505847</ele>
        <time>2020-09-22T12:13:37.411Z</time>
      </trkpt>
      <trkpt lat="65.94352" lon="21.23409">
        <ele>56.674043</ele>
        <time>2020-09-22T12:13:40.424Z</time>
      </trkpt>
      <trkpt lat="65.94342" lon="21.23413">
        <ele>56.844873</ele>
        <time>2020-09-22T12:13:43.421Z</time>
      </trkpt>
      <trkpt lat="65.94331" lon="21.23415">
        <ele>57.027869</ele>
        <time>2020-09-22T12:13:46.413Z</time>
      </trkpt>
      <trkpt lat="65.94319" lon="21.23416">
        <ele>57.222025</ele>
        <time>2020-09-22T12:13:49.412Z</time>
      </trkpt>
      <trkpt lat="65.94307" lon="21.23417">
        <ele>57.425918</ele>
        <time>2020-09-22T12:13:52.440Z</time>
      </trkpt>
      <trkpt lat="65.94294" lon="21.23417">
        <ele>57.631395</ele>
        <time>2020-09-22T12:13:55.422Z</time>
      </trkpt>
      <trkpt lat="65.94281" lon="21.23419">
        <ele>57.845316</ele>
        <time>2020-09-22T12:13:58.397Z</time>
      </trkpt>
      <trkpt lat="65.94268" lon="21.2342">
        <ele>58.064016</ele>
        <time>2020-09-22T12:14:01.414Z</time>
      </trkpt>
      <trkpt lat="65.94258" lon="21.2342">
        <ele>58.216906</ele>
        <time>2020-09-22T12:14:03.415Z</time>
      </trkpt>
      <trkpt lat="65.94249" lon="21.2342">
        <ele>58.376361</ele>
        <time>2020-09-22T12:14:05.439Z</time>
      </trkpt>
      <trkpt lat="65.94239" lon="21.23421">
        <ele>58.537536</ele>
        <time>2020-09-22T12:14:07.401Z</time>
      </trkpt>
      <trkpt lat="65.94229" lon="21.23422">
        <ele>58.591898</ele>
        <time>2020-09-22T12:14:09.409Z</time>
      </trkpt>
      <trkpt lat="65.94219" lon="21.23422">
        <ele>58.579277</ele>
        <time>2020-09-22T12:14:11.416Z</time>
      </trkpt>
      <trkpt lat="65.94209" lon="21.23422">
        <ele>58.565868</ele>
        <time>2020-09-22T12:14:13.403Z</time>
      </trkpt>
      <trkpt lat="65.94198" lon="21.23422">
        <ele>58.551933</ele>
        <time>2020-09-22T12:14:15.398Z</time>
      </trkpt>
      <trkpt lat="65.94188" lon="21.23422">
        <ele>58.537734</ele>
        <time>2020-09-22T12:14:17.428Z</time>
      </trkpt>
      <trkpt lat="65.94177" lon="21.23423">
        <ele>58.523385</ele>
        <time>2020-09-22T12:14:19.412Z</time>
      </trkpt>
      <trkpt lat="65.94165" lon="21.23424">
        <ele>58.508389</ele>
        <time>2020-09-22T12:14:21.409Z</time>
      </trkpt>
      <trkpt lat="65.94154" lon="21.23425">
        <ele>58.493399</ele>
        <time>2020-09-22T12:14:23.406Z</time>
      </trkpt>
      <trkpt lat="65.94143" lon="21.23425">
        <ele>58.479332</ele>
        <time>2020-09-22T12:14:25.430Z</time>
      </trkpt>
      <trkpt lat="65.94134" lon="21.23425">
        <ele>58.467236</ele>
        <time>2020-09-22T12:14:27.430Z</time>
      </trkpt>
      <trkpt lat="65.94122" lon="21.23425">
        <ele>58.451986</ele>
        <time>2020-09-22T12:14:30.429Z</time>
      </trkpt>
      <trkpt lat="65.94111" lon="21.23427">
        <ele>58.436981</ele>
        <time>2020-09-22T12:14:33.437Z</time>
      </trkpt>
      <trkpt lat="65.941" lon="21.23427">
        <ele>58.422383</ele>
        <time>2020-09-22T12:14:36.408Z</time>
      </trkpt>
      <trkpt lat="65.94089" lon="21.23427">
        <ele>58.408448</ele>
        <time>2020-09-22T12:14:39.452Z</time>
      </trkpt>
      <trkpt lat="65.94078" lon="21.23429">
        <ele>58.393958</ele>
        <time>2020-09-22T12:14:42.424Z</time>
      </trkpt>
      <trkpt lat="65.94067" lon="21.23431">
        <ele>58.379462</ele>
        <time>2020-09-22T12:14:45.442Z</time>
      </trkpt>
      <trkpt lat="65.94056" lon="21.23433">
        <ele>58.364969</ele>
        <time>2020-09-22T12:14:48.404Z</time>
      </trkpt>
      <trkpt lat="65.94045" lon="21.23434">
        <ele>58.35162</ele>
        <time>2020-09-22T12:14:51.409Z</time>
      </trkpt>
      <trkpt lat="65.94034" lon="21.23435">
        <ele>58.33828</ele>
        <time>2020-09-22T12:14:54.439Z</time>
      </trkpt>
      <trkpt lat="65.94023" lon="21.23435">
        <ele>58.325064</ele>
        <time>2020-09-22T12:14:57.405Z</time>
      </trkpt>
      <trkpt lat="65.94011" lon="21.23436">
        <ele>58.31173</ele>
        <time>2020-09-22T12:15:00.396Z</time>
      </trkpt>
      <trkpt lat="65.94" lon="21.23436">
        <ele>58.298156</ele>
        <time>2020-09-22T12:15:03.414Z</time>
      </trkpt>
      <trkpt lat="65.93987" lon="21.23439">
        <ele>58.283128</ele>
        <time>2020-09-22T12:15:06.435Z</time>
      </trkpt>
      <trkpt lat="65.93974" lon="21.23441">
        <ele>58.267989</ele>
        <time>2020-09-22T12:15:09.410Z</time>
      </trkpt>
      <trkpt lat="65.93961" lon="21.23443">
        <ele>58.252145</ele>
        <time>2020-09-22T12:15:12.416Z</time>
      </trkpt>
      <trkpt lat="65.93951" lon="21.23446">
        <ele>58.24076</ele>
        <time>2020-09-22T12:15:14.414Z</time>
      </trkpt>
      <trkpt lat="65.93942" lon="21.23448">
        <ele>58.229632</ele>
        <time>2020-09-22T12:15:16.456Z</time>
      </trkpt>
      <trkpt lat="65.93933" lon="21.2345">
        <ele>58.218454</ele>
        <time>2020-09-22T12:15:18.417Z</time>
      </trkpt>
      <trkpt lat="65.93924" lon="21.23454">
        <ele>58.207718</ele>
        <time>2020-09-22T12:15:20.453Z</time>
      </trkpt>
      <trkpt lat="65.93914" lon="21.23458">
        <ele>58.196793</ele>
        <time>2020-09-22T12:15:22.414Z</time>
      </trkpt>
      <trkpt lat="65.93905" lon="21.23462">
        <ele>58.185413</ele>
        <time>2020-09-22T12:15:24.418Z</time>
      </trkpt>
      <trkpt lat="65.93895" lon="21.23467">
        <ele>58.173989</ele>
        <time>2020-09-22T12:15:26.410Z</time>
      </trkpt>
      <trkpt lat="65.93886" lon="21.23472">
        <ele>58.162735</ele>
        <time>2020-09-22T12:15:28.424Z</time>
      </trkpt>
      <trkpt lat="65.93876" lon="21.23479">
        <ele>58.136448</ele>
        <time>2020-09-22T12:15:30.423Z</time>
      </trkpt>
      <trkpt lat="65.93866" lon="21.23487">
        <ele>57.943001</ele>
        <time>2020-09-22T12:15:32.412Z</time>
      </trkpt>
      <trkpt lat="65.93856" lon="21.23496">
        <ele>57.75025</ele>
        <time>2020-09-22T12:15:34.431Z</time>
      </trkpt>
      <trkpt lat="65.93846" lon="21.23506">
        <ele>57.55128</ele>
        <time>2020-09-22T12:15:36.423Z</time>
      </trkpt>
      <trkpt lat="65.93836" lon="21.23516">
        <ele>57.344405</ele>
        <time>2020-09-22T12:15:38.435Z</time>
      </trkpt>
      <trkpt lat="65.93826" lon="21.23528">
        <ele>57.138816</ele>
        <time>2020-09-22T12:15:40.411Z</time>
      </trkpt>
      <trkpt lat="65.93815" lon="21.23539">
        <ele>56.929569</ele>
        <time>2020-09-22T12:15:42.414Z</time>
      </trkpt>
      <trkpt lat="65.93805" lon="21.23551">
        <ele>56.714485</ele>
        <time>2020-09-22T12:15:44.414Z</time>
      </trkpt>
      <trkpt lat="65.93794" lon="21.23566">
        <ele>56.487772</ele>
        <time>2020-09-22T12:15:46.414Z</time>
      </trkpt>
      <trkpt lat="65.93783" lon="21.23581">
        <ele>56.250809</ele>
        <time>2020-09-22T12:15:48.432Z</time>
      </trkpt>
      <trkpt lat="65.93771" lon="21.23598">
        <ele>56.000627</ele>
        <time>2020-09-22T12:15:50.428Z</time>
      </trkpt>
      <trkpt lat="65.9376" lon="21.23617">
        <ele>55.751556</ele>
        <time>2020-09-22T12:15:52.403Z</time>
      </trkpt>
      <trkpt lat="65.93749" lon="21.23637">
        <ele>55.505211</ele>
        <time>2020-09-22T12:15:54.411Z</time>
      </trkpt>
      <trkpt lat="65.93739" lon="21.23657">
        <ele>55.269602</ele>
        <time>2020-09-22T12:15:56.415Z</time>
      </trkpt>
      <trkpt lat="65.9373" lon="21.23675">
        <ele>55.048222</ele>
        <time>2020-09-22T12:15:58.411Z</time>
      </trkpt>
      <trkpt lat="65.93721" lon="21.23695">
        <ele>54.830436</ele>
        <time>2020-09-22T12:16:00.399Z</time>
      </trkpt>
      <trkpt lat="65.93712" lon="21.23716">
        <ele>54.64503</ele>
        <time>2020-09-22T12:16:02.407Z</time>
      </trkpt>
      <trkpt lat="65.93703" lon="21.23738">
        <ele>54.461728</ele>
        <time>2020-09-22T12:16:04.398Z</time>
      </trkpt>
      <trkpt lat="65.93694" lon="21.2376">
        <ele>54.277286</ele>
        <time>2020-09-22T12:16:06.454Z</time>
      </trkpt>
      <trkpt lat="65.93686" lon="21.23783">
        <ele>54.095071</ele>
        <time>2020-09-22T12:16:08.404Z</time>
      </trkpt>
      <trkpt lat="65.93678" lon="21.23805">
        <ele>53.916683</ele>
        <time>2020-09-22T12:16:10.440Z</time>
      </trkpt>
      <trkpt lat="65.93669" lon="21.23828">
        <ele>53.724819</ele>
        <time>2020-09-22T12:16:12.404Z</time>
      </trkpt>
      <trkpt lat="65.9366" lon="21.23852">
        <ele>53.521454</ele>
        <time>2020-09-22T12:16:14.410Z</time>
      </trkpt>
      <trkpt lat="65.9365" lon="21.23877">
        <ele>53.310512</ele>
        <time>2020-09-22T12:16:16.412Z</time>
      </trkpt>
      <trkpt lat="65.93639" lon="21.23904">
        <ele>53.088377</ele>
        <time>2020-09-22T12:16:18.427Z</time>
      </trkpt>
      <trkpt lat="65.93628" lon="21.23931">
        <ele>52.855732</ele>
        <time>2020-09-22T12:16:20.401Z</time>
      </trkpt>
      <trkpt lat="65.93617" lon="21.23959">
        <ele>52.624294</ele>
        <time>2020-09-22T12:16:22.423Z</time>
      </trkpt>
      <trkpt lat="65.93607" lon="21.23985">
        <ele>52.410021</ele>
        <time>2020-09-22T12:16:24.417Z</time>
      </trkpt>
      <trkpt lat="65.93598" lon="21.2401">
        <ele>52.203172</ele>
        <time>2020-09-22T12:16:26.407Z</time>
      </trkpt>
      <trkpt lat="65.93588" lon="21.24033">
        <ele>52.075929</ele>
        <time>2020-09-22T12:16:28.419Z</time>
      </trkpt>
      <trkpt lat="65.9358" lon="21.24052">
        <ele>51.968388</ele>
        <time>2020-09-22T12:16:30.416Z</time>
      </trkpt>
      <trkpt lat="65.93573" lon="21.2407">
        <ele>51.869695</ele>
        <time>2020-09-22T12:16:32.426Z</time>
      </trkpt>
      <trkpt lat="65.93565" lon="21.24088">
        <ele>51.769922</ele>
        <time>2020-09-22T12:16:34.414Z</time>
      </trkpt>
      <trkpt lat="65.93558" lon="21.24106">
        <ele>51.671354</ele>
        <time>2020-09-22T12:16:36.449Z</time>
      </trkpt>
      <trkpt lat="65.9355" lon="21.24125">
        <ele>51.570518</ele>
        <time>2020-09-22T12:16:38.428Z</time>
      </trkpt>
      <trkpt lat="65.93541" lon="21.24145">
        <ele>51.460976</ele>
        <time>2020-09-22T12:16:40.418Z</time>
      </trkpt>
      <trkpt lat="65.93533" lon="21.24166">
        <ele>51.345403</ele>
        <time>2020-09-22T12:16:42.396Z</time>
      </trkpt>
      <trkpt lat="65.93523" lon="21.24189">
        <ele>51.221668</ele>
        <time>2020-09-22T12:16:44.413Z</time>
      </trkpt>
      <trkpt lat="65.93515" lon="21.24212">
        <ele>51.101403</ele>
        <time>2020-09-22T12:16:46.403Z</time>
      </trkpt>
      <trkpt lat="65.93506" lon="21.24234">
        <ele>50.984935</ele>
        <time>2020-09-22T12:16:48.417Z</time>
      </trkpt>
      <trkpt lat="65.93498" lon="21.24257">
        <ele>50.866149</ele>
        <time>2020-09-22T12:16:50.406Z</time>
      </trkpt>
      <trkpt lat="65.93489" lon="21.24279">
        <ele>50.747081</ele>
        <time>2020-09-22T12:16:52.411Z</time>
      </trkpt>
      <trkpt lat="65.9348" lon="21.24302">
        <ele>50.626917</ele>
        <time>2020-09-22T12:16:54.436Z</time>
      </trkpt>
      <trkpt lat="65.93471" lon="21.24324">
        <ele>50.508504</ele>
        <time>2020-09-22T12:16:56.412Z</time>
      </trkpt>
      <trkpt lat="65.93463" lon="21.24346">
        <ele>50.338434</ele>
        <time>2020-09-22T12:16:58.413Z</time>
      </trkpt>
      <trkpt lat="65.93454" lon="21.24368">
        <ele>50.1611</ele>
        <time>2020-09-22T12:17:00.410Z</time>
      </trkpt>
      <trkpt lat="65.93445" lon="21.24391">
        <ele>49.977763</ele>
        <time>2020-09-22T12:17:02.454Z</time>
      </trkpt>
      <trkpt lat="65.93436" lon="21.24414">
        <ele>49.792434</ele>
        <time>2020-09-22T12:17:04.420Z</time>
      </trkpt>
      <trkpt lat="65.93426" lon="21.24437">
        <ele>49.604069</ele>
        <time>2020-09-22T12:17:06.445Z</time>
      </trkpt>
      <trkpt lat="65.93417" lon="21.24461">
        <ele>49.412663</ele>
        <time>2020-09-22T12:17:08.418Z</time>
      </trkpt>
      <trkpt lat="65.93407" lon="21.24483">
        <ele>49.226123</ele>
        <time>2020-09-22T12:17:10.417Z</time>
      </trkpt>
      <trkpt lat="65.93398" lon="21.24506">
        <ele>49.042784</ele>
        <time>2020-09-22T12:17:12.401Z</time>
      </trkpt>
      <trkpt lat="65.93389" lon="21.24529">
        <ele>48.858043</ele>
        <time>2020-09-22T12:17:14.437Z</time>
      </trkpt>
      <trkpt lat="65.9338" lon="21.24551">
        <ele>48.676514</ele>
        <time>2020-09-22T12:17:16.428Z</time>
      </trkpt>
      <trkpt lat="65.93371" lon="21.24574">
        <ele>48.491589</ele>
        <time>2020-09-22T12:17:18.431Z</time>
      </trkpt>
      <trkpt lat="65.93361" lon="21.24596">
        <ele>48.301724</ele>
        <time>2020-09-22T12:17:20.420Z</time>
      </trkpt>
      <trkpt lat="65.93351" lon="21.24618">
        <ele>48.116</ele>
        <time>2020-09-22T12:17:22.425Z</time>
      </trkpt>
      <trkpt lat="65.93341" lon="21.2464">
        <ele>47.940654</ele>
        <time>2020-09-22T12:17:24.415Z</time>
      </trkpt>
      <trkpt lat="65.93332" lon="21.24661">
        <ele>47.821442</ele>
        <time>2020-09-22T12:17:26.428Z</time>
      </trkpt>
      <trkpt lat="65.93322" lon="21.24681">
        <ele>47.705348</ele>
        <time>2020-09-22T12:17:28.416Z</time>
      </trkpt>
      <trkpt lat="65.93312" lon="21.24699">
        <ele>47.592363</ele>
        <time>2020-09-22T12:17:30.448Z</time>
      </trkpt>
      <trkpt lat="65.93302" lon="21.24717">
        <ele>47.47733</ele>
        <time>2020-09-22T12:17:32.441Z</time>
      </trkpt>
      <trkpt lat="65.93292" lon="21.24735">
        <ele>47.365111</ele>
        <time>2020-09-22T12:17:34.402Z</time>
      </trkpt>
      <trkpt lat="65.93283" lon="21.24751">
        <ele>47.257615</ele>
        <time>2020-09-22T12:17:36.435Z</time>
      </trkpt>
      <trkpt lat="65.93272" lon="21.24767">
        <ele>47.146462</ele>
        <time>2020-09-22T12:17:38.420Z</time>
      </trkpt>
      <trkpt lat="65.93262" lon="21.24783">
        <ele>47.03352</ele>
        <time>2020-09-22T12:17:40.402Z</time>
      </trkpt>
      <trkpt lat="65.93252" lon="21.24798">
        <ele>46.924143</ele>
        <time>2020-09-22T12:17:42.407Z</time>
      </trkpt>
      <trkpt lat="65.93242" lon="21.24813">
        <ele>46.81298</ele>
        <time>2020-09-22T12:17:44.397Z</time>
      </trkpt>
      <trkpt lat="65.93232" lon="21.24828">
        <ele>46.706545</ele>
        <time>2020-09-22T12:17:46.451Z</time>
      </trkpt>
      <trkpt lat="65.93222" lon="21.24843">
        <ele>46.600689</ele>
        <time>2020-09-22T12:17:48.440Z</time>
      </trkpt>
      <trkpt lat="65.93212" lon="21.24857">
        <ele>46.496571</ele>
        <time>2020-09-22T12:17:50.439Z</time>
      </trkpt>
      <trkpt lat="65.93203" lon="21.24871">
        <ele>46.397012</ele>
        <time>2020-09-22T12:17:52.414Z</time>
      </trkpt>
      <trkpt lat="65.93194" lon="21.24884">
        <ele>46.301338</ele>
        <time>2020-09-22T12:17:54.410Z</time>
      </trkpt>
      <trkpt lat="65.93185" lon="21.24897">
        <ele>46.246094</ele>
        <time>2020-09-22T12:17:56.423Z</time>
      </trkpt>
      <trkpt lat="65.93177" lon="21.24909">
        <ele>46.194813</ele>
        <time>2020-09-22T12:17:58.410Z</time>
      </trkpt>
      <trkpt lat="65.93166" lon="21.24926">
        <ele>46.123251</ele>
        <time>2020-09-22T12:18:01.395Z</time>
      </trkpt>
      <trkpt lat="65.93155" lon="21.2494">
        <ele>46.055706</ele>
        <time>2020-09-22T12:18:04.408Z</time>
      </trkpt>
      <trkpt lat="65.93145" lon="21.24953">
        <ele>45.991783</ele>
        <time>2020-09-22T12:18:07.428Z</time>
      </trkpt>
      <trkpt lat="65.93135" lon="21.24966">
        <ele>45.931854</ele>
        <time>2020-09-22T12:18:10.401Z</time>
      </trkpt>
      <trkpt lat="65.93127" lon="21.24978">
        <ele>45.88022</ele>
        <time>2020-09-22T12:18:13.428Z</time>
      </trkpt>
      <trkpt lat="65.93119" lon="21.24991">
        <ele>45.829629</ele>
        <time>2020-09-22T12:18:16.426Z</time>
      </trkpt>
      <trkpt lat="65.93111" lon="21.25007">
        <ele>45.76993</ele>
        <time>2020-09-22T12:18:19.423Z</time>
      </trkpt>
      <trkpt lat="65.931" lon="21.25024">
        <ele>45.702315</ele>
        <time>2020-09-22T12:18:22.430Z</time>
      </trkpt>
      <trkpt lat="65.93089" lon="21.25041">
        <ele>45.630521</ele>
        <time>2020-09-22T12:18:25.396Z</time>
      </trkpt>
      <trkpt lat="65.93078" lon="21.25057">
        <ele>45.559771</ele>
        <time>2020-09-22T12:18:28.433Z</time>
      </trkpt>
      <trkpt lat="65.93067" lon="21.25072">
        <ele>45.49087</ele>
        <time>2020-09-22T12:18:31.421Z</time>
      </trkpt>
      <trkpt lat="65.93056" lon="21.25088">
        <ele>45.419849</ele>
        <time>2020-09-22T12:18:34.412Z</time>
      </trkpt>
      <trkpt lat="65.93044" lon="21.25105">
        <ele>45.34699</ele>
        <time>2020-09-22T12:18:37.400Z</time>
      </trkpt>
      <trkpt lat="65.93037" lon="21.25116">
        <ele>45.372516</ele>
        <time>2020-09-22T12:18:39.430Z</time>
      </trkpt>
      <trkpt lat="65.93028" lon="21.25127">
        <ele>45.472559</ele>
        <time>2020-09-22T12:18:41.411Z</time>
      </trkpt>
      <trkpt lat="65.93017" lon="21.25143">
        <ele>45.61454</ele>
        <time>2020-09-22T12:18:44.390Z</time>
      </trkpt>
      <trkpt lat="65.93009" lon="21.25155">
        <ele>45.71317</ele>
        <time>2020-09-22T12:18:46.440Z</time>
      </trkpt>
      <trkpt lat="65.93001" lon="21.25168">
        <ele>45.813236</ele>
        <time>2020-09-22T12:18:48.405Z</time>
      </trkpt>
      <trkpt lat="65.92993" lon="21.25181">
        <ele>45.916035</ele>
        <time>2020-09-22T12:18:50.415Z</time>
      </trkpt>
      <trkpt lat="65.92985" lon="21.25193">
        <ele>46.012243</ele>
        <time>2020-09-22T12:18:52.416Z</time>
      </trkpt>
      <trkpt lat="65.92978" lon="21.25206">
        <ele>46.109335</ele>
        <time>2020-09-22T12:18:54.437Z</time>
      </trkpt>
      <trkpt lat="65.9297" lon="21.25218">
        <ele>46.205711</ele>
        <time>2020-09-22T12:18:56.403Z</time>
      </trkpt>
      <trkpt lat="65.92963" lon="21.25231">
        <ele>46.302029</ele>
        <time>2020-09-22T12:18:58.422Z</time>
      </trkpt>
      <trkpt lat="65.92955" lon="21.25245">
        <ele>46.404449</ele>
        <time>2020-09-22T12:19:00.403Z</time>
      </trkpt>
      <trkpt lat="65.92947" lon="21.25257">
        <ele>46.506929</ele>
        <time>2020-09-22T12:19:02.436Z</time>
      </trkpt>
      <trkpt lat="65.92939" lon="21.25268">
        <ele>46.605867</ele>
        <time>2020-09-22T12:19:04.404Z</time>
      </trkpt>
      <trkpt lat="65.9293" lon="21.25279">
        <ele>46.705279</ele>
        <time>2020-09-22T12:19:06.422Z</time>
      </trkpt>
      <trkpt lat="65.92919" lon="21.25294">
        <ele>46.845784</ele>
        <time>2020-09-22T12:19:09.417Z</time>
      </trkpt>
      <trkpt lat="65.92907" lon="21.2531">
        <ele>46.986917</ele>
        <time>2020-09-22T12:19:12.423Z</time>
      </trkpt>
      <trkpt lat="65.92896" lon="21.25327">
        <ele>47.129514</ele>
        <time>2020-09-22T12:19:15.412Z</time>
      </trkpt>
      <trkpt lat="65.92888" lon="21.25339">
        <ele>47.226089</ele>
        <time>2020-09-22T12:19:17.422Z</time>
      </trkpt>
      <trkpt lat="65.9288" lon="21.2535">
        <ele>47.268383</ele>
        <time>2020-09-22T12:19:19.413Z</time>
      </trkpt>
      <trkpt lat="65.92872" lon="21.25362">
        <ele>47.303728</ele>
        <time>2020-09-22T12:19:21.416Z</time>
      </trkpt>
      <trkpt lat="65.92861" lon="21.25378">
        <ele>47.354366</ele>
        <time>2020-09-22T12:19:24.407Z</time>
      </trkpt>
      <trkpt lat="65.9285" lon="21.25395">
        <ele>47.404081</ele>
        <time>2020-09-22T12:19:27.421Z</time>
      </trkpt>
      <trkpt lat="65.9284" lon="21.2541">
        <ele>47.451155</ele>
        <time>2020-09-22T12:19:30.411Z</time>
      </trkpt>
      <trkpt lat="65.92829" lon="21.25426">
        <ele>47.500804</ele>
        <time>2020-09-22T12:19:33.454Z</time>
      </trkpt>
      <trkpt lat="65.92821" lon="21.25437">
        <ele>47.535493</ele>
        <time>2020-09-22T12:19:35.414Z</time>
      </trkpt>
      <trkpt lat="65.92813" lon="21.25449">
        <ele>47.570426</ele>
        <time>2020-09-22T12:19:37.402Z</time>
      </trkpt>
      <trkpt lat="65.92805" lon="21.2546">
        <ele>47.605626</ele>
        <time>2020-09-22T12:19:39.420Z</time>
      </trkpt>
      <trkpt lat="65.92797" lon="21.25471">
        <ele>47.640809</ele>
        <time>2020-09-22T12:19:41.412Z</time>
      </trkpt>
      <trkpt lat="65.92786" lon="21.25487">
        <ele>47.691767</ele>
        <time>2020-09-22T12:19:44.402Z</time>
      </trkpt>
      <trkpt lat="65.92775" lon="21.25502">
        <ele>47.740874</ele>
        <time>2020-09-22T12:19:47.418Z</time>
      </trkpt>
      <trkpt lat="65.92764" lon="21.25518">
        <ele>47.788532</ele>
        <time>2020-09-22T12:19:50.419Z</time>
      </trkpt>
      <trkpt lat="65.92754" lon="21.25532">
        <ele>47.834808</ele>
        <time>2020-09-22T12:19:53.391Z</time>
      </trkpt>
      <trkpt lat="65.92744" lon="21.25547">
        <ele>47.879899</ele>
        <time>2020-09-22T12:19:56.438Z</time>
      </trkpt>
      <trkpt lat="65.92735" lon="21.25563">
        <ele>47.923968</ele>
        <time>2020-09-22T12:19:59.411Z</time>
      </trkpt>
      <trkpt lat="65.92725" lon="21.25577">
        <ele>47.917804</ele>
        <time>2020-09-22T12:20:02.417Z</time>
      </trkpt>
      <trkpt lat="65.92715" lon="21.25592">
        <ele>47.899764</ele>
        <time>2020-09-22T12:20:05.435Z</time>
      </trkpt>
      <trkpt lat="65.92705" lon="21.25606">
        <ele>47.880863</ele>
        <time>2020-09-22T12:20:08.404Z</time>
      </trkpt>
      <trkpt lat="65.92694" lon="21.25622">
        <ele>47.861501</ele>
        <time>2020-09-22T12:20:11.424Z</time>
      </trkpt>
      <trkpt lat="65.92684" lon="21.25638">
        <ele>47.841228</ele>
        <time>2020-09-22T12:20:14.420Z</time>
      </trkpt>
      <trkpt lat="65.92673" lon="21.25655">
        <ele>47.820785</ele>
        <time>2020-09-22T12:20:17.399Z</time>
      </trkpt>
      <trkpt lat="65.92661" lon="21.25673">
        <ele>47.799528</ele>
        <time>2020-09-22T12:20:20.408Z</time>
      </trkpt>
      <trkpt lat="65.92654" lon="21.25684">
        <ele>47.784973</ele>
        <time>2020-09-22T12:20:22.439Z</time>
      </trkpt>
      <trkpt lat="65.92646" lon="21.25695">
        <ele>47.770621</ele>
        <time>2020-09-22T12:20:24.404Z</time>
      </trkpt>
      <trkpt lat="65.92634" lon="21.25712">
        <ele>47.749497</ele>
        <time>2020-09-22T12:20:27.454Z</time>
      </trkpt>
      <trkpt lat="65.92623" lon="21.25728">
        <ele>47.72881</ele>
        <time>2020-09-22T12:20:30.442Z</time>
      </trkpt>
      <trkpt lat="65.92612" lon="21.25743">
        <ele>47.70843</ele>
        <time>2020-09-22T12:20:33.422Z</time>
      </trkpt>
      <trkpt lat="65.926" lon="21.2576">
        <ele>47.687103</ele>
        <time>2020-09-22T12:20:36.422Z</time>
      </trkpt>
      <trkpt lat="65.92589" lon="21.25777">
        <ele>47.666085</ele>
        <time>2020-09-22T12:20:39.399Z</time>
      </trkpt>
      <trkpt lat="65.92578" lon="21.25793">
        <ele>47.642881</ele>
        <time>2020-09-22T12:20:42.452Z</time>
      </trkpt>
      <trkpt lat="65.9257" lon="21.25804">
        <ele>47.603286</ele>
        <time>2020-09-22T12:20:44.444Z</time>
      </trkpt>
      <trkpt lat="65.92561" lon="21.25816">
        <ele>47.562475</ele>
        <time>2020-09-22T12:20:46.417Z</time>
      </trkpt>
      <trkpt lat="65.92553" lon="21.25827">
        <ele>47.521996</ele>
        <time>2020-09-22T12:20:48.448Z</time>
      </trkpt>
      <trkpt lat="65.92545" lon="21.25839">
        <ele>47.4824</ele>
        <time>2020-09-22T12:20:50.403Z</time>
      </trkpt>
      <trkpt lat="65.92537" lon="21.2585">
        <ele>47.443801</ele>
        <time>2020-09-22T12:20:52.440Z</time>
      </trkpt>
      <trkpt lat="65.92529" lon="21.2586">
        <ele>47.405393</ele>
        <time>2020-09-22T12:20:54.435Z</time>
      </trkpt>
      <trkpt lat="65.92521" lon="21.25872">
        <ele>47.366882</ele>
        <time>2020-09-22T12:20:56.405Z</time>
      </trkpt>
      <trkpt lat="65.92513" lon="21.25883">
        <ele>47.328459</ele>
        <time>2020-09-22T12:20:58.396Z</time>
      </trkpt>
      <trkpt lat="65.92502" lon="21.25901">
        <ele>47.271724</ele>
        <time>2020-09-22T12:21:01.395Z</time>
      </trkpt>
      <trkpt lat="65.92495" lon="21.25912">
        <ele>47.233762</ele>
        <time>2020-09-22T12:21:03.421Z</time>
      </trkpt>
      <trkpt lat="65.92483" lon="21.2593">
        <ele>47.175141</ele>
        <time>2020-09-22T12:21:06.407Z</time>
      </trkpt>
      <trkpt lat="65.92475" lon="21.25943">
        <ele>47.133895</ele>
        <time>2020-09-22T12:21:08.400Z</time>
      </trkpt>
      <trkpt lat="65.92466" lon="21.25956">
        <ele>47.091484</ele>
        <time>2020-09-22T12:21:10.430Z</time>
      </trkpt>
      <trkpt lat="65.92457" lon="21.25969">
        <ele>47.046451</ele>
        <time>2020-09-22T12:21:12.412Z</time>
      </trkpt>
      <trkpt lat="65.92448" lon="21.25982">
        <ele>47.002326</ele>
        <time>2020-09-22T12:21:14.464Z</time>
      </trkpt>
      <trkpt lat="65.92439" lon="21.25995">
        <ele>46.957924</ele>
        <time>2020-09-22T12:21:16.422Z</time>
      </trkpt>
      <trkpt lat="65.92431" lon="21.26008">
        <ele>46.914887</ele>
        <time>2020-09-22T12:21:18.408Z</time>
      </trkpt>
      <trkpt lat="65.92422" lon="21.26023">
        <ele>46.90556</ele>
        <time>2020-09-22T12:21:20.440Z</time>
      </trkpt>
      <trkpt lat="65.92414" lon="21.26037">
        <ele>46.998958</ele>
        <time>2020-09-22T12:21:22.426Z</time>
      </trkpt>
      <trkpt lat="65.92407" lon="21.26051">
        <ele>47.090246</ele>
        <time>2020-09-22T12:21:24.439Z</time>
      </trkpt>
      <trkpt lat="65.92399" lon="21.26063">
        <ele>47.179099</ele>
        <time>2020-09-22T12:21:26.434Z</time>
      </trkpt>
      <trkpt lat="65.9239" lon="21.26077">
        <ele>47.272395</ele>
        <time>2020-09-22T12:21:28.431Z</time>
      </trkpt>
      <trkpt lat="65.92382" lon="21.26091">
        <ele>47.368957</ele>
        <time>2020-09-22T12:21:30.404Z</time>
      </trkpt>
      <trkpt lat="65.92373" lon="21.26104">
        <ele>47.462253</ele>
        <time>2020-09-22T12:21:32.418Z</time>
      </trkpt>
      <trkpt lat="65.92365" lon="21.26118">
        <ele>47.556401</ele>
        <time>2020-09-22T12:21:34.426Z</time>
      </trkpt>
      <trkpt lat="65.92357" lon="21.26132">
        <ele>47.649342</ele>
        <time>2020-09-22T12:21:36.412Z</time>
      </trkpt>
      <trkpt lat="65.92348" lon="21.26146">
        <ele>47.747764</ele>
        <time>2020-09-22T12:21:38.397Z</time>
      </trkpt>
      <trkpt lat="65.92339" lon="21.26161">
        <ele>47.848723</ele>
        <time>2020-09-22T12:21:40.432Z</time>
      </trkpt>
      <trkpt lat="65.92331" lon="21.26177">
        <ele>47.950003</ele>
        <time>2020-09-22T12:21:42.423Z</time>
      </trkpt>
      <trkpt lat="65.92322" lon="21.26192">
        <ele>48.0537</ele>
        <time>2020-09-22T12:21:44.423Z</time>
      </trkpt>
      <trkpt lat="65.92313" lon="21.26207">
        <ele>48.152021</ele>
        <time>2020-09-22T12:21:46.429Z</time>
      </trkpt>
      <trkpt lat="65.92305" lon="21.26222">
        <ele>48.248371</ele>
        <time>2020-09-22T12:21:48.433Z</time>
      </trkpt>
      <trkpt lat="65.92297" lon="21.26236">
        <ele>48.343064</ele>
        <time>2020-09-22T12:21:50.434Z</time>
      </trkpt>
      <trkpt lat="65.92289" lon="21.2625">
        <ele>48.433807</ele>
        <time>2020-09-22T12:21:52.417Z</time>
      </trkpt>
      <trkpt lat="65.9228" lon="21.26263">
        <ele>48.526965</ele>
        <time>2020-09-22T12:21:54.455Z</time>
      </trkpt>
      <trkpt lat="65.92272" lon="21.26277">
        <ele>48.502741</ele>
        <time>2020-09-22T12:21:56.441Z</time>
      </trkpt>
      <trkpt lat="65.92264" lon="21.2629">
        <ele>48.37616</ele>
        <time>2020-09-22T12:21:58.429Z</time>
      </trkpt>
      <trkpt lat="65.92256" lon="21.26303">
        <ele>48.250707</ele>
        <time>2020-09-22T12:22:00.420Z</time>
      </trkpt>
      <trkpt lat="65.92247" lon="21.26317">
        <ele>48.123265</ele>
        <time>2020-09-22T12:22:02.424Z</time>
      </trkpt>
      <trkpt lat="65.92239" lon="21.2633">
        <ele>47.999102</ele>
        <time>2020-09-22T12:22:04.412Z</time>
      </trkpt>
      <trkpt lat="65.92231" lon="21.26344">
        <ele>47.874527</ele>
        <time>2020-09-22T12:22:06.459Z</time>
      </trkpt>
      <trkpt lat="65.92223" lon="21.26357">
        <ele>47.748724</ele>
        <time>2020-09-22T12:22:08.407Z</time>
      </trkpt>
      <trkpt lat="65.92215" lon="21.26371">
        <ele>47.624149</ele>
        <time>2020-09-22T12:22:10.416Z</time>
      </trkpt>
      <trkpt lat="65.92207" lon="21.26385">
        <ele>47.499574</ele>
        <time>2020-09-22T12:22:12.442Z</time>
      </trkpt>
      <trkpt lat="65.92199" lon="21.26398">
        <ele>47.375411</ele>
        <time>2020-09-22T12:22:14.393Z</time>
      </trkpt>
      <trkpt lat="65.92191" lon="21.26411">
        <ele>47.251133</ele>
        <time>2020-09-22T12:22:16.444Z</time>
      </trkpt>
      <trkpt lat="65.92183" lon="21.26424">
        <ele>47.126755</ele>
        <time>2020-09-22T12:22:18.398Z</time>
      </trkpt>
      <trkpt lat="65.92175" lon="21.26438">
        <ele>47.000834</ele>
        <time>2020-09-22T12:22:20.423Z</time>
      </trkpt>
      <trkpt lat="65.92166" lon="21.26451">
        <ele>46.87538</ele>
        <time>2020-09-22T12:22:22.439Z</time>
      </trkpt>
      <trkpt lat="65.92158" lon="21.26463">
        <ele>46.753749</ele>
        <time>2020-09-22T12:22:24.451Z</time>
      </trkpt>
      <trkpt lat="65.9215" lon="21.26476">
        <ele>46.629939</ele>
        <time>2020-09-22T12:22:26.423Z</time>
      </trkpt>
      <trkpt lat="65.92142" lon="21.26488">
        <ele>46.509392</ele>
        <time>2020-09-22T12:22:28.426Z</time>
      </trkpt>
      <trkpt lat="65.92133" lon="21.26499">
        <ele>46.385078</ele>
        <time>2020-09-22T12:22:30.405Z</time>
      </trkpt>
      <trkpt lat="65.92125" lon="21.26509">
        <ele>46.268651</ele>
        <time>2020-09-22T12:22:32.412Z</time>
      </trkpt>
      <trkpt lat="65.92115" lon="21.26519">
        <ele>46.197884</ele>
        <time>2020-09-22T12:22:34.402Z</time>
      </trkpt>
      <trkpt lat="65.92106" lon="21.26529">
        <ele>46.126998</ele>
        <time>2020-09-22T12:22:36.406Z</time>
      </trkpt>
      <trkpt lat="65.92097" lon="21.26538">
        <ele>46.055728</ele>
        <time>2020-09-22T12:22:38.441Z</time>
      </trkpt>
      <trkpt lat="65.92088" lon="21.26547">
        <ele>45.986605</ele>
        <time>2020-09-22T12:22:40.417Z</time>
      </trkpt>
      <trkpt lat="65.92078" lon="21.26556">
        <ele>45.917584</ele>
        <time>2020-09-22T12:22:42.429Z</time>
      </trkpt>
      <trkpt lat="65.9207" lon="21.26564">
        <ele>45.851183</ele>
        <time>2020-09-22T12:22:44.443Z</time>
      </trkpt>
      <trkpt lat="65.92061" lon="21.26572">
        <ele>45.784334</ele>
        <time>2020-09-22T12:22:46.400Z</time>
      </trkpt>
      <trkpt lat="65.92052" lon="21.26581">
        <ele>45.716416</ele>
        <time>2020-09-22T12:22:48.422Z</time>
      </trkpt>
      <trkpt lat="65.92043" lon="21.2659">
        <ele>45.651103</ele>
        <time>2020-09-22T12:22:50.443Z</time>
      </trkpt>
      <trkpt lat="65.92034" lon="21.26598">
        <ele>45.583393</ele>
        <time>2020-09-22T12:22:52.452Z</time>
      </trkpt>
      <trkpt lat="65.92025" lon="21.26607">
        <ele>45.514064</ele>
        <time>2020-09-22T12:22:54.414Z</time>
      </trkpt>
      <trkpt lat="65.92016" lon="21.26616">
        <ele>45.445042</ele>
        <time>2020-09-22T12:22:56.437Z</time>
      </trkpt>
      <trkpt lat="65.92007" lon="21.26624">
        <ele>45.377883</ele>
        <time>2020-09-22T12:22:58.441Z</time>
      </trkpt>
      <trkpt lat="65.91998" lon="21.26633">
        <ele>45.308887</ele>
        <time>2020-09-22T12:23:00.397Z</time>
      </trkpt>
      <trkpt lat="65.91988" lon="21.26642">
        <ele>45.238247</ele>
        <time>2020-09-22T12:23:02.408Z</time>
      </trkpt>
      <trkpt lat="65.91978" lon="21.26651">
        <ele>45.164512</ele>
        <time>2020-09-22T12:23:04.416Z</time>
      </trkpt>
      <trkpt lat="65.91968" lon="21.26661">
        <ele>45.086525</ele>
        <time>2020-09-22T12:23:06.436Z</time>
      </trkpt>
      <trkpt lat="65.91957" lon="21.26671">
        <ele>45.007164</ele>
        <time>2020-09-22T12:23:08.413Z</time>
      </trkpt>
      <trkpt lat="65.91947" lon="21.26681">
        <ele>44.93131</ele>
        <time>2020-09-22T12:23:10.415Z</time>
      </trkpt>
      <trkpt lat="65.91936" lon="21.26691">
        <ele>44.856492</ele>
        <time>2020-09-22T12:23:12.437Z</time>
      </trkpt>
      <trkpt lat="65.91925" lon="21.26699">
        <ele>44.783005</ele>
        <time>2020-09-22T12:23:14.412Z</time>
      </trkpt>
      <trkpt lat="65.91915" lon="21.26708">
        <ele>44.712531</ele>
        <time>2020-09-22T12:23:16.432Z</time>
      </trkpt>
      <trkpt lat="65.91905" lon="21.26716">
        <ele>44.644171</ele>
        <time>2020-09-22T12:23:18.432Z</time>
      </trkpt>
      <trkpt lat="65.91895" lon="21.26725">
        <ele>44.576502</ele>
        <time>2020-09-22T12:23:20.414Z</time>
      </trkpt>
      <trkpt lat="65.91886" lon="21.26733">
        <ele>44.510874</ele>
        <time>2020-09-22T12:23:22.437Z</time>
      </trkpt>
      <trkpt lat="65.91877" lon="21.2674">
        <ele>44.447312</ele>
        <time>2020-09-22T12:23:24.452Z</time>
      </trkpt>
      <trkpt lat="65.91867" lon="21.26749">
        <ele>44.381146</ele>
        <time>2020-09-22T12:23:26.403Z</time>
      </trkpt>
      <trkpt lat="65.91857" lon="21.26758">
        <ele>44.309088</ele>
        <time>2020-09-22T12:23:28.451Z</time>
      </trkpt>
      <trkpt lat="65.91847" lon="21.26767">
        <ele>44.240136</ele>
        <time>2020-09-22T12:23:30.419Z</time>
      </trkpt>
      <trkpt lat="65.91837" lon="21.26777">
        <ele>44.169772</ele>
        <time>2020-09-22T12:23:32.403Z</time>
      </trkpt>
      <trkpt lat="65.91827" lon="21.26787">
        <ele>44.097798</ele>
        <time>2020-09-22T12:23:34.405Z</time>
      </trkpt>
      <trkpt lat="65.91816" lon="21.26798">
        <ele>44.024991</ele>
        <time>2020-09-22T12:23:36.412Z</time>
      </trkpt>
      <trkpt lat="65.91807" lon="21.26808">
        <ele>43.955032</ele>
        <time>2020-09-22T12:23:38.436Z</time>
      </trkpt>
      <trkpt lat="65.91797" lon="21.26818">
        <ele>43.887794</ele>
        <time>2020-09-22T12:23:40.414Z</time>
      </trkpt>
      <trkpt lat="65.91787" lon="21.26827">
        <ele>43.855668</ele>
        <time>2020-09-22T12:23:42.410Z</time>
      </trkpt>
      <trkpt lat="65.91778" lon="21.26836">
        <ele>43.932714</ele>
        <time>2020-09-22T12:23:44.415Z</time>
      </trkpt>
      <trkpt lat="65.91768" lon="21.26844">
        <ele>44.010847</ele>
        <time>2020-09-22T12:23:46.466Z</time>
      </trkpt>
      <trkpt lat="65.91759" lon="21.26854">
        <ele>44.085468</ele>
        <time>2020-09-22T12:23:48.406Z</time>
      </trkpt>
      <trkpt lat="65.9175" lon="21.26864">
        <ele>44.156949</ele>
        <time>2020-09-22T12:23:50.434Z</time>
      </trkpt>
      <trkpt lat="65.91741" lon="21.26874">
        <ele>44.229492</ele>
        <time>2020-09-22T12:23:52.390Z</time>
      </trkpt>
      <trkpt lat="65.91732" lon="21.26887">
        <ele>44.307595</ele>
        <time>2020-09-22T12:23:54.401Z</time>
      </trkpt>
      <trkpt lat="65.91723" lon="21.26899">
        <ele>44.382309</ele>
        <time>2020-09-22T12:23:56.415Z</time>
      </trkpt>
      <trkpt lat="65.91715" lon="21.26912">
        <ele>44.457793</ele>
        <time>2020-09-22T12:23:58.419Z</time>
      </trkpt>
      <trkpt lat="65.91706" lon="21.26925">
        <ele>44.533305</ele>
        <time>2020-09-22T12:24:00.459Z</time>
      </trkpt>
      <trkpt lat="65.91697" lon="21.2694">
        <ele>44.612085</ele>
        <time>2020-09-22T12:24:02.422Z</time>
      </trkpt>
      <trkpt lat="65.91689" lon="21.26955">
        <ele>44.689565</ele>
        <time>2020-09-22T12:24:04.425Z</time>
      </trkpt>
      <trkpt lat="65.91681" lon="21.2697">
        <ele>44.764311</ele>
        <time>2020-09-22T12:24:06.416Z</time>
      </trkpt>
      <trkpt lat="65.91673" lon="21.26986">
        <ele>44.84</ele>
        <time>2020-09-22T12:24:08.412Z</time>
      </trkpt>
      <trkpt lat="65.91666" lon="21.27002">
        <ele>44.914014</ele>
        <time>2020-09-22T12:24:10.413Z</time>
      </trkpt>
      <trkpt lat="65.91658" lon="21.27018">
        <ele>44.988383</ele>
        <time>2020-09-22T12:24:12.417Z</time>
      </trkpt>
      <trkpt lat="65.91651" lon="21.27035">
        <ele>45.06351</ele>
        <time>2020-09-22T12:24:14.434Z</time>
      </trkpt>
      <trkpt lat="65.91643" lon="21.27052">
        <ele>45.139507</ele>
        <time>2020-09-22T12:24:16.403Z</time>
      </trkpt>
      <trkpt lat="65.91636" lon="21.27068">
        <ele>45.212688</ele>
        <time>2020-09-22T12:24:18.405Z</time>
      </trkpt>
      <trkpt lat="65.91629" lon="21.27084">
        <ele>45.289732</ele>
        <time>2020-09-22T12:24:20.415Z</time>
      </trkpt>
      <trkpt lat="65.91622" lon="21.27101">
        <ele>45.367666</ele>
        <time>2020-09-22T12:24:22.433Z</time>
      </trkpt>
      <trkpt lat="65.91615" lon="21.27118">
        <ele>45.445486</ele>
        <time>2020-09-22T12:24:24.416Z</time>
      </trkpt>
      <trkpt lat="65.91608" lon="21.27135">
        <ele>45.524448</ele>
        <time>2020-09-22T12:24:26.400Z</time>
      </trkpt>
      <trkpt lat="65.91601" lon="21.27152">
        <ele>45.600292</ele>
        <time>2020-09-22T12:24:28.448Z</time>
      </trkpt>
      <trkpt lat="65.91594" lon="21.2717">
        <ele>45.678936</ele>
        <time>2020-09-22T12:24:30.431Z</time>
      </trkpt>
      <trkpt lat="65.91588" lon="21.27186">
        <ele>45.753941</ele>
        <time>2020-09-22T12:24:32.426Z</time>
      </trkpt>
      <trkpt lat="65.91581" lon="21.27203">
        <ele>45.831207</ele>
        <time>2020-09-22T12:24:34.435Z</time>
      </trkpt>
      <trkpt lat="65.91574" lon="21.2722">
        <ele>45.908927</ele>
        <time>2020-09-22T12:24:36.400Z</time>
      </trkpt>
      <trkpt lat="65.91567" lon="21.27237">
        <ele>45.986071</ele>
        <time>2020-09-22T12:24:38.412Z</time>
      </trkpt>
      <trkpt lat="65.91559" lon="21.27253">
        <ele>46.062604</ele>
        <time>2020-09-22T12:24:40.414Z</time>
      </trkpt>
      <trkpt lat="65.91553" lon="21.27268">
        <ele>46.136378</ele>
        <time>2020-09-22T12:24:42.446Z</time>
      </trkpt>
      <trkpt lat="65.91546" lon="21.27284">
        <ele>46.211309</ele>
        <time>2020-09-22T12:24:44.415Z</time>
      </trkpt>
      <trkpt lat="65.91539" lon="21.273">
        <ele>46.286198</ele>
        <time>2020-09-22T12:24:46.410Z</time>
      </trkpt>
      <trkpt lat="65.91531" lon="21.27317">
        <ele>46.36718</ele>
        <time>2020-09-22T12:24:48.422Z</time>
      </trkpt>
      <trkpt lat="65.91523" lon="21.27333">
        <ele>46.450556</ele>
        <time>2020-09-22T12:24:50.429Z</time>
      </trkpt>
      <trkpt lat="65.91515" lon="21.27351">
        <ele>46.534719</ele>
        <time>2020-09-22T12:24:52.436Z</time>
      </trkpt>
      <trkpt lat="65.91508" lon="21.27369">
        <ele>46.603852</ele>
        <time>2020-09-22T12:24:54.451Z</time>
      </trkpt>
      <trkpt lat="65.915" lon="21.27386">
        <ele>46.636368</ele>
        <time>2020-09-22T12:24:56.415Z</time>
      </trkpt>
      <trkpt lat="65.91492" lon="21.27403">
        <ele>46.66888</ele>
        <time>2020-09-22T12:24:58.411Z</time>
      </trkpt>
      <trkpt lat="65.91485" lon="21.27421">
        <ele>46.701523</ele>
        <time>2020-09-22T12:25:00.410Z</time>
      </trkpt>
      <trkpt lat="65.91478" lon="21.27439">
        <ele>46.7343</ele>
        <time>2020-09-22T12:25:02.421Z</time>
      </trkpt>
      <trkpt lat="65.9147" lon="21.27457">
        <ele>46.768396</ele>
        <time>2020-09-22T12:25:04.411Z</time>
      </trkpt>
      <trkpt lat="65.91461" lon="21.27476">
        <ele>46.803561</ele>
        <time>2020-09-22T12:25:06.469Z</time>
      </trkpt>
      <trkpt lat="65.91453" lon="21.27495">
        <ele>46.838626</ele>
        <time>2020-09-22T12:25:08.428Z</time>
      </trkpt>
      <trkpt lat="65.91446" lon="21.27513">
        <ele>46.871897</ele>
        <time>2020-09-22T12:25:10.403Z</time>
      </trkpt>
      <trkpt lat="65.91438" lon="21.2753">
        <ele>46.904136</ele>
        <time>2020-09-22T12:25:12.435Z</time>
      </trkpt>
      <trkpt lat="65.91432" lon="21.27548">
        <ele>46.934477</ele>
        <time>2020-09-22T12:25:14.402Z</time>
      </trkpt>
      <trkpt lat="65.91425" lon="21.27564">
        <ele>46.964923</ele>
        <time>2020-09-22T12:25:16.417Z</time>
      </trkpt>
      <trkpt lat="65.91418" lon="21.2758">
        <ele>46.99443</ele>
        <time>2020-09-22T12:25:18.415Z</time>
      </trkpt>
      <trkpt lat="65.91412" lon="21.27595">
        <ele>47.022602</ele>
        <time>2020-09-22T12:25:20.430Z</time>
      </trkpt>
      <trkpt lat="65.91402" lon="21.27617">
        <ele>47.063057</ele>
        <time>2020-09-22T12:25:23.456Z</time>
      </trkpt>
      <trkpt lat="65.91393" lon="21.27637">
        <ele>47.101228</ele>
        <time>2020-09-22T12:25:26.432Z</time>
      </trkpt>
      <trkpt lat="65.91385" lon="21.27658">
        <ele>47.139656</ele>
        <time>2020-09-22T12:25:29.415Z</time>
      </trkpt>
      <trkpt lat="65.91376" lon="21.2768">
        <ele>47.327348</ele>
        <time>2020-09-22T12:25:32.400Z</time>
      </trkpt>
      <trkpt lat="65.91366" lon="21.27701">
        <ele>47.697135</ele>
        <time>2020-09-22T12:25:35.408Z</time>
      </trkpt>
      <trkpt lat="65.91356" lon="21.27723">
        <ele>48.068474</ele>
        <time>2020-09-22T12:25:38.427Z</time>
      </trkpt>
      <trkpt lat="65.91347" lon="21.27744">
        <ele>48.424182</ele>
        <time>2020-09-22T12:25:41.422Z</time>
      </trkpt>
      <trkpt lat="65.91339" lon="21.27766">
        <ele>48.775897</ele>
        <time>2020-09-22T12:25:44.431Z</time>
      </trkpt>
      <trkpt lat="65.91331" lon="21.27787">
        <ele>49.102737</ele>
        <time>2020-09-22T12:25:47.445Z</time>
      </trkpt>
      <trkpt lat="65.91323" lon="21.27806">
        <ele>49.415931</ele>
        <time>2020-09-22T12:25:50.442Z</time>
      </trkpt>
      <trkpt lat="65.91316" lon="21.27827">
        <ele>49.740839</ele>
        <time>2020-09-22T12:25:53.420Z</time>
      </trkpt>
      <trkpt lat="65.91307" lon="21.27847">
        <ele>50.069024</ele>
        <time>2020-09-22T12:25:56.414Z</time>
      </trkpt>
      <trkpt lat="65.91299" lon="21.27868">
        <ele>50.410181</ele>
        <time>2020-09-22T12:25:59.395Z</time>
      </trkpt>
      <trkpt lat="65.9129" lon="21.2789">
        <ele>50.773988</ele>
        <time>2020-09-22T12:26:02.404Z</time>
      </trkpt>
      <trkpt lat="65.9128" lon="21.27913">
        <ele>51.148715</ele>
        <time>2020-09-22T12:26:05.461Z</time>
      </trkpt>
      <trkpt lat="65.91271" lon="21.27935">
        <ele>51.519535</ele>
        <time>2020-09-22T12:26:08.412Z</time>
      </trkpt>
      <trkpt lat="65.91261" lon="21.27956">
        <ele>51.891659</ele>
        <time>2020-09-22T12:26:11.422Z</time>
      </trkpt>
      <trkpt lat="65.91252" lon="21.27978">
        <ele>52.245746</ele>
        <time>2020-09-22T12:26:14.432Z</time>
      </trkpt>
      <trkpt lat="65.91243" lon="21.27997">
        <ele>52.065357</ele>
        <time>2020-09-22T12:26:17.434Z</time>
      </trkpt>
      <trkpt lat="65.91233" lon="21.28016">
        <ele>51.870259</ele>
        <time>2020-09-22T12:26:20.418Z</time>
      </trkpt>
      <trkpt lat="65.91224" lon="21.28037">
        <ele>51.675283</ele>
        <time>2020-09-22T12:26:23.417Z</time>
      </trkpt>
      <trkpt lat="65.91215" lon="21.28058">
        <ele>51.470141</ele>
        <time>2020-09-22T12:26:26.432Z</time>
      </trkpt>
      <trkpt lat="65.91208" lon="21.28074">
        <ele>51.326215</ele>
        <time>2020-09-22T12:26:28.424Z</time>
      </trkpt>
      <trkpt lat="65.91202" lon="21.28088">
        <ele>51.182106</ele>
        <time>2020-09-22T12:26:30.452Z</time>
      </trkpt>
      <trkpt lat="65.91195" lon="21.28104">
        <ele>51.031131</ele>
        <time>2020-09-22T12:26:32.405Z</time>
      </trkpt>
      <trkpt lat="65.91188" lon="21.2812">
        <ele>50.877657</ele>
        <time>2020-09-22T12:26:34.410Z</time>
      </trkpt>
      <trkpt lat="65.91181" lon="21.28136">
        <ele>50.726485</ele>
        <time>2020-09-22T12:26:36.420Z</time>
      </trkpt>
      <trkpt lat="65.91174" lon="21.28153">
        <ele>50.571213</ele>
        <time>2020-09-22T12:26:38.425Z</time>
      </trkpt>
      <trkpt lat="65.91167" lon="21.28171">
        <ele>50.409945</ele>
        <time>2020-09-22T12:26:40.438Z</time>
      </trkpt>
      <trkpt lat="65.91159" lon="21.2819">
        <ele>50.238461</ele>
        <time>2020-09-22T12:26:42.413Z</time>
      </trkpt>
      <trkpt lat="65.91151" lon="21.2821">
        <ele>50.050625</ele>
        <time>2020-09-22T12:26:44.441Z</time>
      </trkpt>
      <trkpt lat="65.91142" lon="21.2823">
        <ele>49.855645</ele>
        <time>2020-09-22T12:26:46.409Z</time>
      </trkpt>
      <trkpt lat="65.91132" lon="21.28251">
        <ele>49.65245</ele>
        <time>2020-09-22T12:26:48.424Z</time>
      </trkpt>
      <trkpt lat="65.91123" lon="21.28272">
        <ele>49.455855</ele>
        <time>2020-09-22T12:26:50.412Z</time>
      </trkpt>
      <trkpt lat="65.91114" lon="21.28291">
        <ele>49.373537</ele>
        <time>2020-09-22T12:26:52.434Z</time>
      </trkpt>
      <trkpt lat="65.91106" lon="21.2831">
        <ele>49.351314</ele>
        <time>2020-09-22T12:26:54.419Z</time>
      </trkpt>
      <trkpt lat="65.91098" lon="21.28327">
        <ele>49.331312</ele>
        <time>2020-09-22T12:26:56.416Z</time>
      </trkpt>
      <trkpt lat="65.91091" lon="21.28343">
        <ele>49.312479</ele>
        <time>2020-09-22T12:26:58.407Z</time>
      </trkpt>
      <trkpt lat="65.91084" lon="21.28358">
        <ele>49.294836</ele>
        <time>2020-09-22T12:27:00.413Z</time>
      </trkpt>
      <trkpt lat="65.91075" lon="21.28381">
        <ele>49.270749</ele>
        <time>2020-09-22T12:27:03.410Z</time>
      </trkpt>
      <trkpt lat="65.91067" lon="21.28401">
        <ele>49.248407</ele>
        <time>2020-09-22T12:27:06.401Z</time>
      </trkpt>
      <trkpt lat="65.91059" lon="21.28418">
        <ele>49.227532</ele>
        <time>2020-09-22T12:27:09.422Z</time>
      </trkpt>
      <trkpt lat="65.91052" lon="21.28436">
        <ele>49.207729</ele>
        <time>2020-09-22T12:27:12.414Z</time>
      </trkpt>
      <trkpt lat="65.91045" lon="21.28454">
        <ele>49.188142</ele>
        <time>2020-09-22T12:27:15.413Z</time>
      </trkpt>
      <trkpt lat="65.91037" lon="21.28471">
        <ele>49.16828</ele>
        <time>2020-09-22T12:27:18.441Z</time>
      </trkpt>
      <trkpt lat="65.91029" lon="21.28488">
        <ele>49.148307</ele>
        <time>2020-09-22T12:27:21.445Z</time>
      </trkpt>
      <trkpt lat="65.91022" lon="21.28507">
        <ele>49.127235</ele>
        <time>2020-09-22T12:27:24.419Z</time>
      </trkpt>
      <trkpt lat="65.91013" lon="21.28527">
        <ele>49.104286</ele>
        <time>2020-09-22T12:27:27.410Z</time>
      </trkpt>
      <trkpt lat="65.91004" lon="21.28547">
        <ele>49.08045</ele>
        <time>2020-09-22T12:27:30.408Z</time>
      </trkpt>
      <trkpt lat="65.90995" lon="21.2857">
        <ele>49.055657</ele>
        <time>2020-09-22T12:27:33.399Z</time>
      </trkpt>
      <trkpt lat="65.90988" lon="21.28586">
        <ele>49.038322</ele>
        <time>2020-09-22T12:27:35.424Z</time>
      </trkpt>
      <trkpt lat="65.9098" lon="21.28604">
        <ele>49.023618</ele>
        <time>2020-09-22T12:27:37.424Z</time>
      </trkpt>
      <trkpt lat="65.90972" lon="21.28621">
        <ele>49.008261</ele>
        <time>2020-09-22T12:27:39.435Z</time>
      </trkpt>
      <trkpt lat="65.90964" lon="21.2864">
        <ele>48.992473</ele>
        <time>2020-09-22T12:27:41.405Z</time>
      </trkpt>
      <trkpt lat="65.90956" lon="21.28658">
        <ele>48.976633</ele>
        <time>2020-09-22T12:27:43.420Z</time>
      </trkpt>
      <trkpt lat="65.90947" lon="21.28678">
        <ele>48.960009</ele>
        <time>2020-09-22T12:27:45.404Z</time>
      </trkpt>
      <trkpt lat="65.90939" lon="21.28697">
        <ele>48.944256</ele>
        <time>2020-09-22T12:27:47.429Z</time>
      </trkpt>
      <trkpt lat="65.90931" lon="21.28716">
        <ele>48.928565</ele>
        <time>2020-09-22T12:27:49.417Z</time>
      </trkpt>
      <trkpt lat="65.90924" lon="21.28734">
        <ele>48.913579</ele>
        <time>2020-09-22T12:27:51.408Z</time>
      </trkpt>
      <trkpt lat="65.90917" lon="21.28752">
        <ele>48.899097</ele>
        <time>2020-09-22T12:27:53.451Z</time>
      </trkpt>
      <trkpt lat="65.9091" lon="21.2877">
        <ele>48.88516</ele>
        <time>2020-09-22T12:27:55.436Z</time>
      </trkpt>
      <trkpt lat="65.90904" lon="21.28787">
        <ele>48.872069</ele>
        <time>2020-09-22T12:27:57.449Z</time>
      </trkpt>
      <trkpt lat="65.90897" lon="21.28813">
        <ele>48.85392</ele>
        <time>2020-09-22T12:28:00.399Z</time>
      </trkpt>
      <trkpt lat="65.90891" lon="21.28838">
        <ele>48.837132</ele>
        <time>2020-09-22T12:28:03.413Z</time>
      </trkpt>
      <trkpt lat="65.90886" lon="21.28862">
        <ele>48.821207</ele>
        <time>2020-09-22T12:28:06.437Z</time>
      </trkpt>
      <trkpt lat="65.90881" lon="21.28887">
        <ele>48.805127</ele>
        <time>2020-09-22T12:28:09.427Z</time>
      </trkpt>
      <trkpt lat="65.90877" lon="21.28914">
        <ele>48.788666</ele>
        <time>2020-09-22T12:28:12.416Z</time>
      </trkpt>
      <trkpt lat="65.90872" lon="21.28942">
        <ele>48.77485</ele>
        <time>2020-09-22T12:28:15.417Z</time>
      </trkpt>
      <trkpt lat="65.90869" lon="21.28971">
        <ele>48.761056</ele>
        <time>2020-09-22T12:28:18.401Z</time>
      </trkpt>
      <trkpt lat="65.90864" lon="21.29001">
        <ele>48.74688</ele>
        <time>2020-09-22T12:28:21.416Z</time>
      </trkpt>
      <trkpt lat="65.90861" lon="21.29022">
        <ele>48.736883</ele>
        <time>2020-09-22T12:28:23.415Z</time>
      </trkpt>
      <trkpt lat="65.90857" lon="21.29053">
        <ele>48.722585</ele>
        <time>2020-09-22T12:28:26.420Z</time>
      </trkpt>
      <trkpt lat="65.90853" lon="21.29082">
        <ele>48.708603</ele>
        <time>2020-09-22T12:28:29.415Z</time>
      </trkpt>
      <trkpt lat="65.90851" lon="21.29104">
        <ele>48.69851</ele>
        <time>2020-09-22T12:28:31.429Z</time>
      </trkpt>
      <trkpt lat="65.90849" lon="21.29127">
        <ele>48.687779</ele>
        <time>2020-09-22T12:28:33.433Z</time>
      </trkpt>
      <trkpt lat="65.90846" lon="21.29151">
        <ele>48.676709</ele>
        <time>2020-09-22T12:28:35.419Z</time>
      </trkpt>
      <trkpt lat="65.90843" lon="21.29175">
        <ele>48.665253</ele>
        <time>2020-09-22T12:28:37.428Z</time>
      </trkpt>
      <trkpt lat="65.9084" lon="21.292">
        <ele>48.653564</ele>
        <time>2020-09-22T12:28:39.422Z</time>
      </trkpt>
      <trkpt lat="65.90836" lon="21.29225">
        <ele>48.641528</ele>
        <time>2020-09-22T12:28:41.437Z</time>
      </trkpt>
      <trkpt lat="65.90833" lon="21.29252">
        <ele>48.629159</ele>
        <time>2020-09-22T12:28:43.441Z</time>
      </trkpt>
      <trkpt lat="65.90829" lon="21.29278">
        <ele>48.6169</ele>
        <time>2020-09-22T12:28:45.433Z</time>
      </trkpt>
      <trkpt lat="65.90826" lon="21.29304">
        <ele>48.60417</ele>
        <time>2020-09-22T12:28:47.405Z</time>
      </trkpt>
      <trkpt lat="65.90822" lon="21.29332">
        <ele>48.590974</ele>
        <time>2020-09-22T12:28:49.397Z</time>
      </trkpt>
      <trkpt lat="65.90818" lon="21.29362">
        <ele>48.293982</ele>
        <time>2020-09-22T12:28:51.423Z</time>
      </trkpt>
      <trkpt lat="65.90814" lon="21.29392">
        <ele>47.950065</ele>
        <time>2020-09-22T12:28:53.413Z</time>
      </trkpt>
      <trkpt lat="65.90809" lon="21.29423">
        <ele>47.588354</ele>
        <time>2020-09-22T12:28:55.395Z</time>
      </trkpt>
      <trkpt lat="65.90805" lon="21.29456">
        <ele>47.214656</ele>
        <time>2020-09-22T12:28:57.432Z</time>
      </trkpt>
      <trkpt lat="65.908" lon="21.2949">
        <ele>46.827806</ele>
        <time>2020-09-22T12:28:59.415Z</time>
      </trkpt>
      <trkpt lat="65.90795" lon="21.29524">
        <ele>46.429847</ele>
        <time>2020-09-22T12:29:01.445Z</time>
      </trkpt>
      <trkpt lat="65.9079" lon="21.2956">
        <ele>46.022029</ele>
        <time>2020-09-22T12:29:03.454Z</time>
      </trkpt>
      <trkpt lat="65.90786" lon="21.29598">
        <ele>45.59424</ele>
        <time>2020-09-22T12:29:05.422Z</time>
      </trkpt>
      <trkpt lat="65.9078" lon="21.29637">
        <ele>45.147283</ele>
        <time>2020-09-22T12:29:07.404Z</time>
      </trkpt>
      <trkpt lat="65.90775" lon="21.29677">
        <ele>44.690133</ele>
        <time>2020-09-22T12:29:09.400Z</time>
      </trkpt>
      <trkpt lat="65.90769" lon="21.29716">
        <ele>44.238817</ele>
        <time>2020-09-22T12:29:11.418Z</time>
      </trkpt>
      <trkpt lat="65.90764" lon="21.29755">
        <ele>43.803077</ele>
        <time>2020-09-22T12:29:13.439Z</time>
      </trkpt>
      <trkpt lat="65.90759" lon="21.29794">
        <ele>43.577053</ele>
        <time>2020-09-22T12:29:15.413Z</time>
      </trkpt>
      <trkpt lat="65.90754" lon="21.29831">
        <ele>43.353494</ele>
        <time>2020-09-22T12:29:17.412Z</time>
      </trkpt>
      <trkpt lat="65.90748" lon="21.29868">
        <ele>43.135408</ele>
        <time>2020-09-22T12:29:19.417Z</time>
      </trkpt>
      <trkpt lat="65.90744" lon="21.29904">
        <ele>42.926438</ele>
        <time>2020-09-22T12:29:21.430Z</time>
      </trkpt>
      <trkpt lat="65.90739" lon="21.29937">
        <ele>42.727991</ele>
        <time>2020-09-22T12:29:23.430Z</time>
      </trkpt>
      <trkpt lat="65.90734" lon="21.29968">
        <ele>42.539173</ele>
        <time>2020-09-22T12:29:25.432Z</time>
      </trkpt>
      <trkpt lat="65.90728" lon="21.29998">
        <ele>42.356978</ele>
        <time>2020-09-22T12:29:27.493Z</time>
      </trkpt>
      <trkpt lat="65.90724" lon="21.30028">
        <ele>42.181493</ele>
        <time>2020-09-22T12:29:29.405Z</time>
      </trkpt>
      <trkpt lat="65.90719" lon="21.30055">
        <ele>42.015484</ele>
        <time>2020-09-22T12:29:31.416Z</time>
      </trkpt>
      <trkpt lat="65.90714" lon="21.3008">
        <ele>41.855177</ele>
        <time>2020-09-22T12:29:33.401Z</time>
      </trkpt>
      <trkpt lat="65.90709" lon="21.30106">
        <ele>41.6972</ele>
        <time>2020-09-22T12:29:35.416Z</time>
      </trkpt>
      <trkpt lat="65.90704" lon="21.30129">
        <ele>41.548434</ele>
        <time>2020-09-22T12:29:37.439Z</time>
      </trkpt>
      <trkpt lat="65.90699" lon="21.30149">
        <ele>41.414647</ele>
        <time>2020-09-22T12:29:39.437Z</time>
      </trkpt>
      <trkpt lat="65.90692" lon="21.30176">
        <ele>41.419047</ele>
        <time>2020-09-22T12:29:42.445Z</time>
      </trkpt>
      <trkpt lat="65.90686" lon="21.30204">
        <ele>41.540492</ele>
        <time>2020-09-22T12:29:45.413Z</time>
      </trkpt>
      <trkpt lat="65.90681" lon="21.30225">
        <ele>41.634367</ele>
        <time>2020-09-22T12:29:47.405Z</time>
      </trkpt>
      <trkpt lat="65.90676" lon="21.30247">
        <ele>41.729988</ele>
        <time>2020-09-22T12:29:49.440Z</time>
      </trkpt>
      <trkpt lat="65.9067" lon="21.30269">
        <ele>41.829542</ele>
        <time>2020-09-22T12:29:51.420Z</time>
      </trkpt>
      <trkpt lat="65.90665" lon="21.30291">
        <ele>41.928943</ele>
        <time>2020-09-22T12:29:53.460Z</time>
      </trkpt>
      <trkpt lat="65.90659" lon="21.30313">
        <ele>42.02949</ele>
        <time>2020-09-22T12:29:55.402Z</time>
      </trkpt>
      <trkpt lat="65.90654" lon="21.30336">
        <ele>42.128978</ele>
        <time>2020-09-22T12:29:57.433Z</time>
      </trkpt>
      <trkpt lat="65.90649" lon="21.30358">
        <ele>42.22588</ele>
        <time>2020-09-22T12:29:59.403Z</time>
      </trkpt>
      <trkpt lat="65.90644" lon="21.3038">
        <ele>42.324627</ele>
        <time>2020-09-22T12:30:01.416Z</time>
      </trkpt>
      <trkpt lat="65.90638" lon="21.30403">
        <ele>42.424995</ele>
        <time>2020-09-22T12:30:03.445Z</time>
      </trkpt>
      <trkpt lat="65.90633" lon="21.30424">
        <ele>42.522089</ele>
        <time>2020-09-22T12:30:05.415Z</time>
      </trkpt>
      <trkpt lat="65.90628" lon="21.30445">
        <ele>42.614109</ele>
        <time>2020-09-22T12:30:07.428Z</time>
      </trkpt>
      <trkpt lat="65.90623" lon="21.30465">
        <ele>42.706616</ele>
        <time>2020-09-22T12:30:09.417Z</time>
      </trkpt>
      <trkpt lat="65.90617" lon="21.30487">
        <ele>42.802069</ele>
        <time>2020-09-22T12:30:11.454Z</time>
      </trkpt>
      <trkpt lat="65.90612" lon="21.30509">
        <ele>42.900817</ele>
        <time>2020-09-22T12:30:13.402Z</time>
      </trkpt>
      <trkpt lat="65.90607" lon="21.3053">
        <ele>42.994495</ele>
        <time>2020-09-22T12:30:15.408Z</time>
      </trkpt>
      <trkpt lat="65.90603" lon="21.3055">
        <ele>43.113159</ele>
        <time>2020-09-22T12:30:17.422Z</time>
      </trkpt>
      <trkpt lat="65.90596" lon="21.30578">
        <ele>43.334146</ele>
        <time>2020-09-22T12:30:20.420Z</time>
      </trkpt>
      <trkpt lat="65.90589" lon="21.30605">
        <ele>43.545649</ele>
        <time>2020-09-22T12:30:23.434Z</time>
      </trkpt>
      <trkpt lat="65.90583" lon="21.30631">
        <ele>43.747751</ele>
        <time>2020-09-22T12:30:26.429Z</time>
      </trkpt>
      <trkpt lat="65.90577" lon="21.30656">
        <ele>43.944391</ele>
        <time>2020-09-22T12:30:29.436Z</time>
      </trkpt>
      <trkpt lat="65.90571" lon="21.30681">
        <ele>44.139148</ele>
        <time>2020-09-22T12:30:32.467Z</time>
      </trkpt>
      <trkpt lat="65.90565" lon="21.30706">
        <ele>44.337852</ele>
        <time>2020-09-22T12:30:35.409Z</time>
      </trkpt>
      <trkpt lat="65.90559" lon="21.30733">
        <ele>44.540072</ele>
        <time>2020-09-22T12:30:38.416Z</time>
      </trkpt>
      <trkpt lat="65.90552" lon="21.30759">
        <ele>44.745081</ele>
        <time>2020-09-22T12:30:41.426Z</time>
      </trkpt>
      <trkpt lat="65.90547" lon="21.30783">
        <ele>44.927639</ele>
        <time>2020-09-22T12:30:44.405Z</time>
      </trkpt>
      <trkpt lat="65.90541" lon="21.30807">
        <ele>45.115415</ele>
        <time>2020-09-22T12:30:47.419Z</time>
      </trkpt>
      <trkpt lat="65.90536" lon="21.30832">
        <ele>45.309374</ele>
        <time>2020-09-22T12:30:50.410Z</time>
      </trkpt>
      <trkpt lat="65.90531" lon="21.30857">
        <ele>45.492896</ele>
        <time>2020-09-22T12:30:53.436Z</time>
      </trkpt>
      <trkpt lat="65.90525" lon="21.3088">
        <ele>45.672969</ele>
        <time>2020-09-22T12:30:56.436Z</time>
      </trkpt>
      <trkpt lat="65.9052" lon="21.30901">
        <ele>45.837556</ele>
        <time>2020-09-22T12:30:59.408Z</time>
      </trkpt>
      <trkpt lat="65.90516" lon="21.30923">
        <ele>46.003369</ele>
        <time>2020-09-22T12:31:02.459Z</time>
      </trkpt>
      <trkpt lat="65.90511" lon="21.30944">
        <ele>46.264049</ele>
        <time>2020-09-22T12:31:05.405Z</time>
      </trkpt>
      <trkpt lat="65.90506" lon="21.30964">
        <ele>46.516368</ele>
        <time>2020-09-22T12:31:08.418Z</time>
      </trkpt>
      <trkpt lat="65.90501" lon="21.30984">
        <ele>46.771863</ele>
        <time>2020-09-22T12:31:11.412Z</time>
      </trkpt>
      <trkpt lat="65.90496" lon="21.31003">
        <ele>47.020161</ele>
        <time>2020-09-22T12:31:14.440Z</time>
      </trkpt>
      <trkpt lat="65.90492" lon="21.31023">
        <ele>47.266418</ele>
        <time>2020-09-22T12:31:17.408Z</time>
      </trkpt>
      <trkpt lat="65.90487" lon="21.31043">
        <ele>47.519597</ele>
        <time>2020-09-22T12:31:20.417Z</time>
      </trkpt>
      <trkpt lat="65.90482" lon="21.31062">
        <ele>47.76307</ele>
        <time>2020-09-22T12:31:23.428Z</time>
      </trkpt>
      <trkpt lat="65.90476" lon="21.31087">
        <ele>48.077568</ele>
        <time>2020-09-22T12:31:27.433Z</time>
      </trkpt>
      <trkpt lat="65.90472" lon="21.31107">
        <ele>48.32615</ele>
        <time>2020-09-22T12:31:30.473Z</time>
      </trkpt>
      <trkpt lat="65.90466" lon="21.31126">
        <ele>48.585566</ele>
        <time>2020-09-22T12:31:33.397Z</time>
      </trkpt>
      <trkpt lat="65.90461" lon="21.31146">
        <ele>48.830845</ele>
        <time>2020-09-22T12:31:36.444Z</time>
      </trkpt>
      <trkpt lat="65.90456" lon="21.31164">
        <ele>49.073139</ele>
        <time>2020-09-22T12:31:39.420Z</time>
      </trkpt>
      <trkpt lat="65.9045" lon="21.31185">
        <ele>49.35328</ele>
        <time>2020-09-22T12:31:43.444Z</time>
      </trkpt>
      <trkpt lat="65.90444" lon="21.31205">
        <ele>49.631783</ele>
        <time>2020-09-22T12:31:47.438Z</time>
      </trkpt>
      <trkpt lat="65.90436" lon="21.31224">
        <ele>49.922863</ele>
        <time>2020-09-22T12:31:51.402Z</time>
      </trkpt>
      <trkpt lat="65.90429" lon="21.3124">
        <ele>50.173441</ele>
        <time>2020-09-22T12:31:54.449Z</time>
      </trkpt>
      <trkpt lat="65.90422" lon="21.31255">
        <ele>50.425796</ele>
        <time>2020-09-22T12:31:57.481Z</time>
      </trkpt>
      <trkpt lat="65.90415" lon="21.3127">
        <ele>50.674587</ele>
        <time>2020-09-22T12:32:00.410Z</time>
      </trkpt>
      <trkpt lat="65.90408" lon="21.31284">
        <ele>50.825706</ele>
        <time>2020-09-22T12:32:03.430Z</time>
      </trkpt>
      <trkpt lat="65.904" lon="21.31296">
        <ele>50.890615</ele>
        <time>2020-09-22T12:32:06.421Z</time>
      </trkpt>
      <trkpt lat="65.90391" lon="21.31309">
        <ele>50.958015</ele>
        <time>2020-09-22T12:32:09.420Z</time>
      </trkpt>
      <trkpt lat="65.90383" lon="21.31323">
        <ele>51.025262</ele>
        <time>2020-09-22T12:32:12.421Z</time>
      </trkpt>
      <trkpt lat="65.90375" lon="21.31336">
        <ele>51.093058</ele>
        <time>2020-09-22T12:32:15.419Z</time>
      </trkpt>
      <trkpt lat="65.90367" lon="21.3135">
        <ele>51.158545</ele>
        <time>2020-09-22T12:32:18.444Z</time>
      </trkpt>
      <trkpt lat="65.90358" lon="21.31365">
        <ele>51.231394</ele>
        <time>2020-09-22T12:32:21.418Z</time>
      </trkpt>
      <trkpt lat="65.9035" lon="21.31378">
        <ele>51.299364</ele>
        <time>2020-09-22T12:32:24.424Z</time>
      </trkpt>
      <trkpt lat="65.90341" lon="21.31391">
        <ele>51.367634</ele>
        <time>2020-09-22T12:32:27.418Z</time>
      </trkpt>
      <trkpt lat="65.90333" lon="21.31405">
        <ele>51.434061</ele>
        <time>2020-09-22T12:32:30.400Z</time>
      </trkpt>
      <trkpt lat="65.90323" lon="21.31421">
        <ele>51.514223</ele>
        <time>2020-09-22T12:32:34.430Z</time>
      </trkpt>
      <trkpt lat="65.90315" lon="21.31436">
        <ele>51.583946</ele>
        <time>2020-09-22T12:32:37.435Z</time>
      </trkpt>
      <trkpt lat="65.90307" lon="21.3145">
        <ele>51.652431</ele>
        <time>2020-09-22T12:32:40.414Z</time>
      </trkpt>
      <trkpt lat="65.90298" lon="21.31465">
        <ele>51.723779</ele>
        <time>2020-09-22T12:32:43.424Z</time>
      </trkpt>
      <trkpt lat="65.90289" lon="21.3148">
        <ele>51.797502</ele>
        <time>2020-09-22T12:32:46.412Z</time>
      </trkpt>
      <trkpt lat="65.9028" lon="21.31494">
        <ele>51.873972</ele>
        <time>2020-09-22T12:32:49.426Z</time>
      </trkpt>
      <trkpt lat="65.9027" lon="21.31508">
        <ele>51.949164</ele>
        <time>2020-09-22T12:32:52.417Z</time>
      </trkpt>
      <trkpt lat="65.90261" lon="21.31524">
        <ele>51.979978</ele>
        <time>2020-09-22T12:32:55.417Z</time>
      </trkpt>
      <trkpt lat="65.90252" lon="21.31541">
        <ele>51.782401</ele>
        <time>2020-09-22T12:32:58.421Z</time>
      </trkpt>
      <trkpt lat="65.90243" lon="21.31556">
        <ele>51.592414</ele>
        <time>2020-09-22T12:33:01.408Z</time>
      </trkpt>
      <trkpt lat="65.90233" lon="21.31572">
        <ele>51.377546</ele>
        <time>2020-09-22T12:33:04.408Z</time>
      </trkpt>
      <trkpt lat="65.90222" lon="21.3159">
        <ele>51.141887</ele>
        <time>2020-09-22T12:33:07.412Z</time>
      </trkpt>
      <trkpt lat="65.90212" lon="21.31608">
        <ele>50.920922</ele>
        <time>2020-09-22T12:33:10.429Z</time>
      </trkpt>
      <trkpt lat="65.90202" lon="21.31627">
        <ele>50.690309</ele>
        <time>2020-09-22T12:33:13.435Z</time>
      </trkpt>
      <trkpt lat="65.90191" lon="21.31642">
        <ele>50.466562</ele>
        <time>2020-09-22T12:33:16.414Z</time>
      </trkpt>
      <trkpt lat="65.90184" lon="21.31655">
        <ele>50.301903</ele>
        <time>2020-09-22T12:33:18.401Z</time>
      </trkpt>
      <trkpt lat="65.90172" lon="21.31673">
        <ele>50.062854</ele>
        <time>2020-09-22T12:33:21.403Z</time>
      </trkpt>
      <trkpt lat="65.90161" lon="21.31691">
        <ele>49.823406</ele>
        <time>2020-09-22T12:33:24.398Z</time>
      </trkpt>
      <trkpt lat="65.9015" lon="21.31708">
        <ele>49.58711</ele>
        <time>2020-09-22T12:33:27.404Z</time>
      </trkpt>
      <trkpt lat="65.9014" lon="21.31727">
        <ele>49.355906</ele>
        <time>2020-09-22T12:33:30.421Z</time>
      </trkpt>
      <trkpt lat="65.90132" lon="21.31741">
        <ele>49.189102</ele>
        <time>2020-09-22T12:33:32.397Z</time>
      </trkpt>
      <trkpt lat="65.90124" lon="21.31753">
        <ele>49.015319</ele>
        <time>2020-09-22T12:33:34.400Z</time>
      </trkpt>
      <trkpt lat="65.90115" lon="21.31766">
        <ele>48.839215</ele>
        <time>2020-09-22T12:33:36.401Z</time>
      </trkpt>
      <trkpt lat="65.90108" lon="21.31779">
        <ele>48.748264</ele>
        <time>2020-09-22T12:33:38.452Z</time>
      </trkpt>
      <trkpt lat="65.90099" lon="21.31793">
        <ele>48.680594</ele>
        <time>2020-09-22T12:33:40.416Z</time>
      </trkpt>
      <trkpt lat="65.90091" lon="21.31806">
        <ele>48.612307</ele>
        <time>2020-09-22T12:33:42.436Z</time>
      </trkpt>
      <trkpt lat="65.90083" lon="21.3182">
        <ele>48.545359</ele>
        <time>2020-09-22T12:33:44.457Z</time>
      </trkpt>
      <trkpt lat="65.90075" lon="21.31833">
        <ele>48.478007</ele>
        <time>2020-09-22T12:33:46.420Z</time>
      </trkpt>
      <trkpt lat="65.90066" lon="21.31847">
        <ele>48.407912</ele>
        <time>2020-09-22T12:33:48.396Z</time>
      </trkpt>
      <trkpt lat="65.90058" lon="21.31862">
        <ele>48.335826</ele>
        <time>2020-09-22T12:33:50.412Z</time>
      </trkpt>
      <trkpt lat="65.90049" lon="21.31877">
        <ele>48.260766</ele>
        <time>2020-09-22T12:33:52.436Z</time>
      </trkpt>
      <trkpt lat="65.90039" lon="21.31895">
        <ele>48.18046</ele>
        <time>2020-09-22T12:33:54.413Z</time>
      </trkpt>
      <trkpt lat="65.9003" lon="21.31911">
        <ele>48.100747</ele>
        <time>2020-09-22T12:33:56.414Z</time>
      </trkpt>
      <trkpt lat="65.9002" lon="21.31928">
        <ele>48.01717</ele>
        <time>2020-09-22T12:33:58.435Z</time>
      </trkpt>
      <trkpt lat="65.9001" lon="21.31943">
        <ele>47.936282</ele>
        <time>2020-09-22T12:34:00.411Z</time>
      </trkpt>
      <trkpt lat="65.9" lon="21.31958">
        <ele>47.857321</ele>
        <time>2020-09-22T12:34:02.426Z</time>
      </trkpt>
      <trkpt lat="65.8999" lon="21.31973">
        <ele>47.776166</ele>
        <time>2020-09-22T12:34:04.418Z</time>
      </trkpt>
      <trkpt lat="65.89981" lon="21.3199">
        <ele>47.696129</ele>
        <time>2020-09-22T12:34:06.405Z</time>
      </trkpt>
      <trkpt lat="65.89971" lon="21.32006">
        <ele>47.6193</ele>
        <time>2020-09-22T12:34:08.414Z</time>
      </trkpt>
      <trkpt lat="65.89963" lon="21.32022">
        <ele>47.565549</ele>
        <time>2020-09-22T12:34:10.427Z</time>
      </trkpt>
      <trkpt lat="65.89954" lon="21.32039">
        <ele>47.567274</ele>
        <time>2020-09-22T12:34:12.405Z</time>
      </trkpt>
      <trkpt lat="65.89945" lon="21.32057">
        <ele>47.569008</ele>
        <time>2020-09-22T12:34:14.402Z</time>
      </trkpt>
      <trkpt lat="65.89938" lon="21.32072">
        <ele>47.570563</ele>
        <time>2020-09-22T12:34:16.415Z</time>
      </trkpt>
      <trkpt lat="65.8993" lon="21.32089">
        <ele>47.572154</ele>
        <time>2020-09-22T12:34:18.411Z</time>
      </trkpt>
      <trkpt lat="65.89924" lon="21.32107">
        <ele>47.573711</ele>
        <time>2020-09-22T12:34:20.441Z</time>
      </trkpt>
      <trkpt lat="65.89916" lon="21.32124">
        <ele>47.575325</ele>
        <time>2020-09-22T12:34:22.409Z</time>
      </trkpt>
      <trkpt lat="65.89909" lon="21.32142">
        <ele>47.576947</ele>
        <time>2020-09-22T12:34:24.403Z</time>
      </trkpt>
      <trkpt lat="65.89901" lon="21.3216">
        <ele>47.578576</ele>
        <time>2020-09-22T12:34:26.395Z</time>
      </trkpt>
      <trkpt lat="65.89894" lon="21.32178">
        <ele>47.580239</ele>
        <time>2020-09-22T12:34:28.407Z</time>
      </trkpt>
      <trkpt lat="65.89887" lon="21.32196">
        <ele>47.581862</ele>
        <time>2020-09-22T12:34:30.401Z</time>
      </trkpt>
      <trkpt lat="65.89879" lon="21.32214">
        <ele>47.583498</ele>
        <time>2020-09-22T12:34:32.397Z</time>
      </trkpt>
      <trkpt lat="65.89872" lon="21.32233">
        <ele>47.585143</ele>
        <time>2020-09-22T12:34:34.400Z</time>
      </trkpt>
      <trkpt lat="65.89865" lon="21.32251">
        <ele>47.586746</ele>
        <time>2020-09-22T12:34:36.403Z</time>
      </trkpt>
      <trkpt lat="65.89858" lon="21.32269">
        <ele>47.588375</ele>
        <time>2020-09-22T12:34:38.446Z</time>
      </trkpt>
      <trkpt lat="65.8985" lon="21.32289">
        <ele>47.590083</ele>
        <time>2020-09-22T12:34:40.417Z</time>
      </trkpt>
      <trkpt lat="65.89843" lon="21.32307">
        <ele>47.591777</ele>
        <time>2020-09-22T12:34:42.399Z</time>
      </trkpt>
      <trkpt lat="65.89835" lon="21.32326">
        <ele>47.579563</ele>
        <time>2020-09-22T12:34:44.437Z</time>
      </trkpt>
      <trkpt lat="65.89828" lon="21.32344">
        <ele>47.476779</ele>
        <time>2020-09-22T12:34:46.398Z</time>
      </trkpt>
      <trkpt lat="65.8982" lon="21.32363">
        <ele>47.366939</ele>
        <time>2020-09-22T12:34:48.401Z</time>
      </trkpt>
      <trkpt lat="65.89812" lon="21.32383">
        <ele>47.258709</ele>
        <time>2020-09-22T12:34:50.399Z</time>
      </trkpt>
      <trkpt lat="65.89805" lon="21.32403">
        <ele>47.14714</ele>
        <time>2020-09-22T12:34:52.404Z</time>
      </trkpt>
      <trkpt lat="65.89798" lon="21.32424">
        <ele>47.037892</ele>
        <time>2020-09-22T12:34:54.407Z</time>
      </trkpt>
      <trkpt lat="65.8979" lon="21.32445">
        <ele>46.923644</ele>
        <time>2020-09-22T12:34:56.416Z</time>
      </trkpt>
      <trkpt lat="65.89782" lon="21.32467">
        <ele>46.802331</ele>
        <time>2020-09-22T12:34:58.417Z</time>
      </trkpt>
      <trkpt lat="65.89773" lon="21.3249">
        <ele>46.679375</ele>
        <time>2020-09-22T12:35:00.403Z</time>
      </trkpt>
      <trkpt lat="65.89764" lon="21.3251">
        <ele>46.556487</ele>
        <time>2020-09-22T12:35:02.413Z</time>
      </trkpt>
      <trkpt lat="65.89755" lon="21.3253">
        <ele>46.43178</ele>
        <time>2020-09-22T12:35:04.413Z</time>
      </trkpt>
      <trkpt lat="65.89744" lon="21.32552">
        <ele>46.296593</ele>
        <time>2020-09-22T12:35:06.421Z</time>
      </trkpt>
      <trkpt lat="65.89735" lon="21.32574">
        <ele>46.166109</ele>
        <time>2020-09-22T12:35:08.443Z</time>
      </trkpt>
      <trkpt lat="65.89726" lon="21.32596">
        <ele>46.039302</ele>
        <time>2020-09-22T12:35:10.409Z</time>
      </trkpt>
      <trkpt lat="65.89717" lon="21.3262">
        <ele>45.911069</ele>
        <time>2020-09-22T12:35:12.401Z</time>
      </trkpt>
      <trkpt lat="65.89708" lon="21.32642">
        <ele>45.733278</ele>
        <time>2020-09-22T12:35:14.429Z</time>
      </trkpt>
      <trkpt lat="65.89699" lon="21.32663">
        <ele>45.403475</ele>
        <time>2020-09-22T12:35:16.410Z</time>
      </trkpt>
      <trkpt lat="65.89691" lon="21.32683">
        <ele>45.0788</ele>
        <time>2020-09-22T12:35:18.401Z</time>
      </trkpt>
      <trkpt lat="65.89682" lon="21.32704">
        <ele>44.743184</ele>
        <time>2020-09-22T12:35:20.437Z</time>
      </trkpt>
      <trkpt lat="65.89673" lon="21.32725">
        <ele>44.410901</ele>
        <time>2020-09-22T12:35:22.400Z</time>
      </trkpt>
      <trkpt lat="65.89665" lon="21.32746">
        <ele>44.088025</ele>
        <time>2020-09-22T12:35:24.394Z</time>
      </trkpt>
      <trkpt lat="65.89657" lon="21.32767">
        <ele>43.776699</ele>
        <time>2020-09-22T12:35:26.423Z</time>
      </trkpt>
      <trkpt lat="65.89649" lon="21.32787">
        <ele>43.465918</ele>
        <time>2020-09-22T12:35:28.413Z</time>
      </trkpt>
      <trkpt lat="65.89642" lon="21.32807">
        <ele>43.152961</ele>
        <time>2020-09-22T12:35:30.403Z</time>
      </trkpt>
      <trkpt lat="65.89634" lon="21.32827">
        <ele>42.848366</ele>
        <time>2020-09-22T12:35:32.412Z</time>
      </trkpt>
      <trkpt lat="65.89626" lon="21.32847">
        <ele>42.55076</ele>
        <time>2020-09-22T12:35:34.402Z</time>
      </trkpt>
      <trkpt lat="65.89619" lon="21.32866">
        <ele>42.248576</ele>
        <time>2020-09-22T12:35:36.400Z</time>
      </trkpt>
      <trkpt lat="65.89611" lon="21.32886">
        <ele>41.94398</ele>
        <time>2020-09-22T12:35:38.424Z</time>
      </trkpt>
      <trkpt lat="65.89603" lon="21.32905">
        <ele>41.646564</ele>
        <time>2020-09-22T12:35:40.401Z</time>
      </trkpt>
      <trkpt lat="65.89596" lon="21.32923">
        <ele>41.358517</ele>
        <time>2020-09-22T12:35:42.407Z</time>
      </trkpt>
      <trkpt lat="65.89589" lon="21.32942">
        <ele>41.074876</ele>
        <time>2020-09-22T12:35:44.398Z</time>
      </trkpt>
      <trkpt lat="65.89582" lon="21.32959">
        <ele>40.990253</ele>
        <time>2020-09-22T12:35:46.411Z</time>
      </trkpt>
      <trkpt lat="65.89575" lon="21.32976">
        <ele>41.190328</ele>
        <time>2020-09-22T12:35:48.416Z</time>
      </trkpt>
      <trkpt lat="65.89568" lon="21.32993">
        <ele>41.386622</ele>
        <time>2020-09-22T12:35:50.391Z</time>
      </trkpt>
      <trkpt lat="65.89561" lon="21.33008">
        <ele>41.575775</ele>
        <time>2020-09-22T12:35:52.401Z</time>
      </trkpt>
      <trkpt lat="65.89554" lon="21.33022">
        <ele>41.762116</ele>
        <time>2020-09-22T12:35:54.403Z</time>
      </trkpt>
      <trkpt lat="65.89546" lon="21.33035">
        <ele>41.951821</ele>
        <time>2020-09-22T12:35:56.413Z</time>
      </trkpt>
      <trkpt lat="65.89535" lon="21.33055">
        <ele>42.228788</ele>
        <time>2020-09-22T12:35:59.408Z</time>
      </trkpt>
      <trkpt lat="65.89524" lon="21.33074">
        <ele>42.497881</ele>
        <time>2020-09-22T12:36:02.402Z</time>
      </trkpt>
      <trkpt lat="65.89513" lon="21.33092">
        <ele>42.765676</ele>
        <time>2020-09-22T12:36:05.401Z</time>
      </trkpt>
      <trkpt lat="65.89503" lon="21.33107">
        <ele>43.009021</ele>
        <time>2020-09-22T12:36:08.401Z</time>
      </trkpt>
      <trkpt lat="65.89493" lon="21.33123">
        <ele>43.257612</ele>
        <time>2020-09-22T12:36:11.403Z</time>
      </trkpt>
      <trkpt lat="65.89482" lon="21.33139">
        <ele>43.509215</ele>
        <time>2020-09-22T12:36:14.405Z</time>
      </trkpt>
      <trkpt lat="65.89471" lon="21.33153">
        <ele>43.764832</ele>
        <time>2020-09-22T12:36:17.409Z</time>
      </trkpt>
      <trkpt lat="65.89461" lon="21.33169">
        <ele>44.011656</ele>
        <time>2020-09-22T12:36:20.432Z</time>
      </trkpt>
      <trkpt lat="65.89451" lon="21.33185">
        <ele>44.260496</ele>
        <time>2020-09-22T12:36:23.416Z</time>
      </trkpt>
      <trkpt lat="65.8944" lon="21.332">
        <ele>44.51054</ele>
        <time>2020-09-22T12:36:26.444Z</time>
      </trkpt>
      <trkpt lat="65.89429" lon="21.33217">
        <ele>44.610022</ele>
        <time>2020-09-22T12:36:29.396Z</time>
      </trkpt>
      <trkpt lat="65.89419" lon="21.33235">
        <ele>44.659894</ele>
        <time>2020-09-22T12:36:32.399Z</time>
      </trkpt>
      <trkpt lat="65.89408" lon="21.33256">
        <ele>44.711971</ele>
        <time>2020-09-22T12:36:35.404Z</time>
      </trkpt>
      <trkpt lat="65.89402" lon="21.33271">
        <ele>44.746607</ele>
        <time>2020-09-22T12:36:37.407Z</time>
      </trkpt>
      <trkpt lat="65.89395" lon="21.33286">
        <ele>44.782294</ele>
        <time>2020-09-22T12:36:39.433Z</time>
      </trkpt>
      <trkpt lat="65.89388" lon="21.33303">
        <ele>44.819854</ele>
        <time>2020-09-22T12:36:41.459Z</time>
      </trkpt>
      <trkpt lat="65.89381" lon="21.33319">
        <ele>44.856574</ele>
        <time>2020-09-22T12:36:43.398Z</time>
      </trkpt>
      <trkpt lat="65.89374" lon="21.33335">
        <ele>44.892159</ele>
        <time>2020-09-22T12:36:45.407Z</time>
      </trkpt>
      <trkpt lat="65.89368" lon="21.33353">
        <ele>44.928612</ele>
        <time>2020-09-22T12:36:47.429Z</time>
      </trkpt>
      <trkpt lat="65.89362" lon="21.33371">
        <ele>44.966778</ele>
        <time>2020-09-22T12:36:49.400Z</time>
      </trkpt>
      <trkpt lat="65.89356" lon="21.33391">
        <ele>45.005053</ele>
        <time>2020-09-22T12:36:51.419Z</time>
      </trkpt>
      <trkpt lat="65.89349" lon="21.3341">
        <ele>45.043569</ele>
        <time>2020-09-22T12:36:53.410Z</time>
      </trkpt>
      <trkpt lat="65.89343" lon="21.3343">
        <ele>45.082855</ele>
        <time>2020-09-22T12:36:55.415Z</time>
      </trkpt>
      <trkpt lat="65.89337" lon="21.3345">
        <ele>45.122728</ele>
        <time>2020-09-22T12:36:57.402Z</time>
      </trkpt>
      <trkpt lat="65.89331" lon="21.3347">
        <ele>45.161858</ele>
        <time>2020-09-22T12:36:59.413Z</time>
      </trkpt>
      <trkpt lat="65.89324" lon="21.33489">
        <ele>45.200864</ele>
        <time>2020-09-22T12:37:01.415Z</time>
      </trkpt>
      <trkpt lat="65.89318" lon="21.3351">
        <ele>45.24147</ele>
        <time>2020-09-22T12:37:03.400Z</time>
      </trkpt>
      <trkpt lat="65.89311" lon="21.3353">
        <ele>45.363888</ele>
        <time>2020-09-22T12:37:05.398Z</time>
      </trkpt>
      <trkpt lat="65.89306" lon="21.3355">
        <ele>45.587311</ele>
        <time>2020-09-22T12:37:07.426Z</time>
      </trkpt>
      <trkpt lat="65.893" lon="21.3357">
        <ele>45.807671</ele>
        <time>2020-09-22T12:37:09.426Z</time>
      </trkpt>
      <trkpt lat="65.89294" lon="21.33589">
        <ele>46.018227</ele>
        <time>2020-09-22T12:37:11.417Z</time>
      </trkpt>
      <trkpt lat="65.89288" lon="21.33607">
        <ele>46.223202</ele>
        <time>2020-09-22T12:37:13.403Z</time>
      </trkpt>
      <trkpt lat="65.89282" lon="21.33625">
        <ele>46.419282</ele>
        <time>2020-09-22T12:37:15.411Z</time>
      </trkpt>
      <trkpt lat="65.89277" lon="21.33643">
        <ele>46.61768</ele>
        <time>2020-09-22T12:37:17.396Z</time>
      </trkpt>
      <trkpt lat="65.89271" lon="21.33662">
        <ele>46.821649</ele>
        <time>2020-09-22T12:37:19.428Z</time>
      </trkpt>
      <trkpt lat="65.89266" lon="21.33679">
        <ele>47.018389</ele>
        <time>2020-09-22T12:37:21.406Z</time>
      </trkpt>
      <trkpt lat="65.89258" lon="21.33705">
        <ele>47.296714</ele>
        <time>2020-09-22T12:37:24.425Z</time>
      </trkpt>
      <trkpt lat="65.89251" lon="21.3373">
        <ele>47.565004</ele>
        <time>2020-09-22T12:37:27.413Z</time>
      </trkpt>
      <trkpt lat="65.89244" lon="21.33754">
        <ele>47.836858</ele>
        <time>2020-09-22T12:37:30.576Z</time>
      </trkpt>
      <trkpt lat="65.89236" lon="21.33778">
        <ele>48.103027</ele>
        <time>2020-09-22T12:37:33.405Z</time>
      </trkpt>
      <trkpt lat="65.89229" lon="21.33803">
        <ele>48.367486</ele>
        <time>2020-09-22T12:37:36.415Z</time>
      </trkpt>
      <trkpt lat="65.89223" lon="21.33827">
        <ele>48.627567</ele>
        <time>2020-09-22T12:37:39.410Z</time>
      </trkpt>
      <trkpt lat="65.89217" lon="21.33853">
        <ele>48.885648</ele>
        <time>2020-09-22T12:37:42.420Z</time>
      </trkpt>
      <trkpt lat="65.89211" lon="21.33877">
        <ele>49.135874</ele>
        <time>2020-09-22T12:37:45.394Z</time>
      </trkpt>
      <trkpt lat="65.89205" lon="21.33901">
        <ele>49.383081</ele>
        <time>2020-09-22T12:37:48.402Z</time>
      </trkpt>
      <trkpt lat="65.89201" lon="21.33927">
        <ele>49.629853</ele>
        <time>2020-09-22T12:37:51.418Z</time>
      </trkpt>
      <trkpt lat="65.89196" lon="21.33953">
        <ele>49.882318</ele>
        <time>2020-09-22T12:37:54.421Z</time>
      </trkpt>
      <trkpt lat="65.89191" lon="21.3398">
        <ele>50.135477</ele>
        <time>2020-09-22T12:37:57.400Z</time>
      </trkpt>
      <trkpt lat="65.89187" lon="21.34007">
        <ele>50.391157</ele>
        <time>2020-09-22T12:38:00.412Z</time>
      </trkpt>
      <trkpt lat="65.89181" lon="21.34034">
        <ele>50.653612</ele>
        <time>2020-09-22T12:38:03.434Z</time>
      </trkpt>
      <trkpt lat="65.89177" lon="21.34059">
        <ele>50.89617</ele>
        <time>2020-09-22T12:38:06.411Z</time>
      </trkpt>
      <trkpt lat="65.89173" lon="21.34085">
        <ele>51.143612</ele>
        <time>2020-09-22T12:38:09.410Z</time>
      </trkpt>
      <trkpt lat="65.89167" lon="21.34111">
        <ele>51.39871</ele>
        <time>2020-09-22T12:38:12.410Z</time>
      </trkpt>
      <trkpt lat="65.89163" lon="21.34137">
        <ele>51.646282</ele>
        <time>2020-09-22T12:38:15.401Z</time>
      </trkpt>
      <trkpt lat="65.89159" lon="21.34164">
        <ele>51.89394</ele>
        <time>2020-09-22T12:38:18.437Z</time>
      </trkpt>
      <trkpt lat="65.89155" lon="21.3419">
        <ele>52.144647</ele>
        <time>2020-09-22T12:38:21.419Z</time>
      </trkpt>
      <trkpt lat="65.8915" lon="21.34215">
        <ele>52.385657</ele>
        <time>2020-09-22T12:38:24.395Z</time>
      </trkpt>
      <trkpt lat="65.89146" lon="21.3424">
        <ele>52.628343</ele>
        <time>2020-09-22T12:38:27.438Z</time>
      </trkpt>
      <trkpt lat="65.89141" lon="21.34267">
        <ele>52.883223</ele>
        <time>2020-09-22T12:38:30.411Z</time>
      </trkpt>
      <trkpt lat="65.89136" lon="21.34294">
        <ele>53.03817</ele>
        <time>2020-09-22T12:38:33.412Z</time>
      </trkpt>
      <trkpt lat="65.89131" lon="21.3432">
        <ele>53.050727</ele>
        <time>2020-09-22T12:38:36.461Z</time>
      </trkpt>
      <trkpt lat="65.89126" lon="21.34347">
        <ele>53.063874</ele>
        <time>2020-09-22T12:38:39.400Z</time>
      </trkpt>
      <trkpt lat="65.89122" lon="21.34375">
        <ele>53.076572</ele>
        <time>2020-09-22T12:38:42.415Z</time>
      </trkpt>
      <trkpt lat="65.89117" lon="21.34402">
        <ele>53.089349</ele>
        <time>2020-09-22T12:38:45.408Z</time>
      </trkpt>
      <trkpt lat="65.89112" lon="21.34427">
        <ele>53.1012</ele>
        <time>2020-09-22T12:38:48.414Z</time>
      </trkpt>
      <trkpt lat="65.89108" lon="21.34452">
        <ele>53.113297</ele>
        <time>2020-09-22T12:38:51.401Z</time>
      </trkpt>
      <trkpt lat="65.89103" lon="21.34478">
        <ele>53.125279</ele>
        <time>2020-09-22T12:38:54.397Z</time>
      </trkpt>
      <trkpt lat="65.89098" lon="21.34503">
        <ele>53.137344</ele>
        <time>2020-09-22T12:38:57.461Z</time>
      </trkpt>
      <trkpt lat="65.89093" lon="21.34529">
        <ele>53.149818</ele>
        <time>2020-09-22T12:39:00.410Z</time>
      </trkpt>
      <trkpt lat="65.89089" lon="21.34555">
        <ele>53.161835</ele>
        <time>2020-09-22T12:39:03.401Z</time>
      </trkpt>
      <trkpt lat="65.89084" lon="21.3458">
        <ele>53.17366</ele>
        <time>2020-09-22T12:39:06.411Z</time>
      </trkpt>
      <trkpt lat="65.8908" lon="21.34605">
        <ele>53.185658</ele>
        <time>2020-09-22T12:39:09.418Z</time>
      </trkpt>
      <trkpt lat="65.89075" lon="21.34631">
        <ele>53.198</ele>
        <time>2020-09-22T12:39:12.414Z</time>
      </trkpt>
      <trkpt lat="65.8907" lon="21.34656">
        <ele>53.209986</ele>
        <time>2020-09-22T12:39:15.409Z</time>
      </trkpt>
      <trkpt lat="65.89066" lon="21.34681">
        <ele>53.221807</ele>
        <time>2020-09-22T12:39:18.402Z</time>
      </trkpt>
      <trkpt lat="65.89061" lon="21.34705">
        <ele>53.37215</ele>
        <time>2020-09-22T12:39:21.404Z</time>
      </trkpt>
      <trkpt lat="65.89057" lon="21.34729">
        <ele>53.545985</ele>
        <time>2020-09-22T12:39:24.428Z</time>
      </trkpt>
      <trkpt lat="65.89052" lon="21.34752">
        <ele>53.720797</ele>
        <time>2020-09-22T12:39:27.433Z</time>
      </trkpt>
      <trkpt lat="65.89046" lon="21.34775">
        <ele>53.898002</ele>
        <time>2020-09-22T12:39:30.403Z</time>
      </trkpt>
      <trkpt lat="65.89041" lon="21.34799">
        <ele>54.080246</ele>
        <time>2020-09-22T12:39:33.404Z</time>
      </trkpt>
      <trkpt lat="65.89035" lon="21.34822">
        <ele>54.265368</ele>
        <time>2020-09-22T12:39:36.398Z</time>
      </trkpt>
      <trkpt lat="65.8903" lon="21.34847">
        <ele>54.452696</ele>
        <time>2020-09-22T12:39:39.411Z</time>
      </trkpt>
      <trkpt lat="65.89024" lon="21.34872">
        <ele>54.644747</ele>
        <time>2020-09-22T12:39:42.399Z</time>
      </trkpt>
      <trkpt lat="65.89019" lon="21.34898">
        <ele>54.839446</ele>
        <time>2020-09-22T12:39:45.403Z</time>
      </trkpt>
      <trkpt lat="65.89013" lon="21.34922">
        <ele>55.021692</ele>
        <time>2020-09-22T12:39:48.413Z</time>
      </trkpt>
      <trkpt lat="65.89008" lon="21.34947">
        <ele>55.206565</ele>
        <time>2020-09-22T12:39:51.444Z</time>
      </trkpt>
      <trkpt lat="65.89003" lon="21.3497">
        <ele>55.385999</ele>
        <time>2020-09-22T12:39:54.420Z</time>
      </trkpt>
      <trkpt lat="65.88997" lon="21.34994">
        <ele>55.567071</ele>
        <time>2020-09-22T12:39:57.409Z</time>
      </trkpt>
      <trkpt lat="65.88992" lon="21.35018">
        <ele>55.755574</ele>
        <time>2020-09-22T12:40:00.421Z</time>
      </trkpt>
      <trkpt lat="65.88986" lon="21.35041">
        <ele>55.931606</ele>
        <time>2020-09-22T12:40:03.425Z</time>
      </trkpt>
      <trkpt lat="65.88981" lon="21.35063">
        <ele>56.107908</ele>
        <time>2020-09-22T12:40:06.421Z</time>
      </trkpt>
      <trkpt lat="65.88974" lon="21.35086">
        <ele>56.379719</ele>
        <time>2020-09-22T12:40:09.413Z</time>
      </trkpt>
      <trkpt lat="65.88969" lon="21.3511">
        <ele>56.687794</ele>
        <time>2020-09-22T12:40:12.417Z</time>
      </trkpt>
      <trkpt lat="65.88963" lon="21.35135">
        <ele>57.0152</ele>
        <time>2020-09-22T12:40:15.413Z</time>
      </trkpt>
      <trkpt lat="65.88958" lon="21.3516">
        <ele>57.342607</ele>
        <time>2020-09-22T12:40:18.405Z</time>
      </trkpt>
      <trkpt lat="65.88952" lon="21.35185">
        <ele>57.665076</ele>
        <time>2020-09-22T12:40:21.430Z</time>
      </trkpt>
      <trkpt lat="65.88946" lon="21.35208">
        <ele>57.978272</ele>
        <time>2020-09-22T12:40:24.454Z</time>
      </trkpt>
      <trkpt lat="65.8894" lon="21.35232">
        <ele>58.290488</ele>
        <time>2020-09-22T12:40:27.404Z</time>
      </trkpt>
      <trkpt lat="65.88935" lon="21.35256">
        <ele>58.608045</ele>
        <time>2020-09-22T12:40:30.404Z</time>
      </trkpt>
      <trkpt lat="65.88929" lon="21.3528">
        <ele>58.925407</ele>
        <time>2020-09-22T12:40:33.432Z</time>
      </trkpt>
      <trkpt lat="65.88924" lon="21.35303">
        <ele>59.226945</ele>
        <time>2020-09-22T12:40:36.432Z</time>
      </trkpt>
      <trkpt lat="65.88918" lon="21.35325">
        <ele>59.523594</ele>
        <time>2020-09-22T12:40:39.402Z</time>
      </trkpt>
      <trkpt lat="65.88912" lon="21.35349">
        <ele>59.8319</ele>
        <time>2020-09-22T12:40:42.413Z</time>
      </trkpt>
      <trkpt lat="65.88907" lon="21.35371">
        <ele>60.132917</ele>
        <time>2020-09-22T12:40:45.410Z</time>
      </trkpt>
      <trkpt lat="65.88901" lon="21.35393">
        <ele>60.424227</ele>
        <time>2020-09-22T12:40:48.410Z</time>
      </trkpt>
      <trkpt lat="65.88896" lon="21.35414">
        <ele>60.715744</ele>
        <time>2020-09-22T12:40:51.419Z</time>
      </trkpt>
      <trkpt lat="65.88891" lon="21.35436">
        <ele>60.992772</ele>
        <time>2020-09-22T12:40:54.438Z</time>
      </trkpt>
      <trkpt lat="65.88885" lon="21.35456">
        <ele>61.235227</ele>
        <time>2020-09-22T12:40:57.406Z</time>
      </trkpt>
      <trkpt lat="65.88881" lon="21.35476">
        <ele>61.401487</ele>
        <time>2020-09-22T12:41:00.406Z</time>
      </trkpt>
      <trkpt lat="65.88875" lon="21.35495">
        <ele>61.571823</ele>
        <time>2020-09-22T12:41:03.419Z</time>
      </trkpt>
      <trkpt lat="65.8887" lon="21.35516">
        <ele>61.749107</ele>
        <time>2020-09-22T12:41:06.413Z</time>
      </trkpt>
      <trkpt lat="65.88864" lon="21.35536">
        <ele>61.923431</ele>
        <time>2020-09-22T12:41:09.416Z</time>
      </trkpt>
      <trkpt lat="65.88859" lon="21.35556">
        <ele>62.092458</ele>
        <time>2020-09-22T12:41:12.403Z</time>
      </trkpt>
      <trkpt lat="65.88855" lon="21.35576">
        <ele>62.260327</ele>
        <time>2020-09-22T12:41:15.408Z</time>
      </trkpt>
      <trkpt lat="65.8885" lon="21.35596">
        <ele>62.425648</ele>
        <time>2020-09-22T12:41:18.410Z</time>
      </trkpt>
      <trkpt lat="65.88845" lon="21.35616">
        <ele>62.598061</ele>
        <time>2020-09-22T12:41:21.407Z</time>
      </trkpt>
      <trkpt lat="65.88839" lon="21.35635">
        <ele>62.765797</ele>
        <time>2020-09-22T12:41:24.402Z</time>
      </trkpt>
      <trkpt lat="65.88833" lon="21.35654">
        <ele>62.935279</ele>
        <time>2020-09-22T12:41:27.434Z</time>
      </trkpt>
      <trkpt lat="65.88828" lon="21.35674">
        <ele>63.112256</ele>
        <time>2020-09-22T12:41:30.396Z</time>
      </trkpt>
      <trkpt lat="65.88821" lon="21.35692">
        <ele>63.286766</ele>
        <time>2020-09-22T12:41:33.432Z</time>
      </trkpt>
      <trkpt lat="65.88815" lon="21.35712">
        <ele>63.463744</ele>
        <time>2020-09-22T12:41:36.408Z</time>
      </trkpt>
      <trkpt lat="65.88809" lon="21.35731">
        <ele>63.647744</ele>
        <time>2020-09-22T12:41:39.422Z</time>
      </trkpt>
      <trkpt lat="65.88802" lon="21.35749">
        <ele>63.828256</ele>
        <time>2020-09-22T12:41:42.399Z</time>
      </trkpt>
      <trkpt lat="65.88795" lon="21.35769">
        <ele>64.017893</ele>
        <time>2020-09-22T12:41:45.409Z</time>
      </trkpt>
      <trkpt lat="65.88787" lon="21.35789">
        <ele>64.207063</ele>
        <time>2020-09-22T12:41:48.422Z</time>
      </trkpt>
      <trkpt lat="65.8878" lon="21.35809">
        <ele>64.305119</ele>
        <time>2020-09-22T12:41:51.424Z</time>
      </trkpt>
      <trkpt lat="65.88773" lon="21.3583">
        <ele>64.040983</ele>
        <time>2020-09-22T12:41:54.412Z</time>
      </trkpt>
      <trkpt lat="65.88765" lon="21.35852">
        <ele>63.765654</ele>
        <time>2020-09-22T12:41:57.405Z</time>
      </trkpt>
      <trkpt lat="65.88757" lon="21.35875">
        <ele>63.484685</ele>
        <time>2020-09-22T12:42:00.414Z</time>
      </trkpt>
      <trkpt lat="65.8875" lon="21.35896">
        <ele>63.224882</ele>
        <time>2020-09-22T12:42:03.400Z</time>
      </trkpt>
      <trkpt lat="65.88743" lon="21.35915">
        <ele>62.975933</ele>
        <time>2020-09-22T12:42:06.418Z</time>
      </trkpt>
      <trkpt lat="65.88735" lon="21.35935">
        <ele>62.719581</ele>
        <time>2020-09-22T12:42:09.399Z</time>
      </trkpt>
      <trkpt lat="65.88728" lon="21.35956">
        <ele>62.454508</ele>
        <time>2020-09-22T12:42:12.403Z</time>
      </trkpt>
      <trkpt lat="65.8872" lon="21.35976">
        <ele>62.195302</ele>
        <time>2020-09-22T12:42:15.396Z</time>
      </trkpt>
      <trkpt lat="65.88712" lon="21.35997">
        <ele>61.924444</ele>
        <time>2020-09-22T12:42:18.413Z</time>
      </trkpt>
      <trkpt lat="65.88704" lon="21.3602">
        <ele>61.650055</ele>
        <time>2020-09-22T12:42:21.409Z</time>
      </trkpt>
      <trkpt lat="65.88696" lon="21.36042">
        <ele>61.367977</ele>
        <time>2020-09-22T12:42:24.440Z</time>
      </trkpt>
      <trkpt lat="65.88688" lon="21.36064">
        <ele>61.074578</ele>
        <time>2020-09-22T12:42:27.415Z</time>
      </trkpt>
      <trkpt lat="65.88679" lon="21.36087">
        <ele>60.785514</ele>
        <time>2020-09-22T12:42:30.445Z</time>
      </trkpt>
      <trkpt lat="65.88671" lon="21.36109">
        <ele>60.505107</ele>
        <time>2020-09-22T12:42:33.433Z</time>
      </trkpt>
      <trkpt lat="65.88663" lon="21.36133">
        <ele>60.21097</ele>
        <time>2020-09-22T12:42:36.420Z</time>
      </trkpt>
      <trkpt lat="65.88654" lon="21.36157">
        <ele>59.969971</ele>
        <time>2020-09-22T12:42:39.411Z</time>
      </trkpt>
      <trkpt lat="65.88645" lon="21.36182">
        <ele>59.728124</ele>
        <time>2020-09-22T12:42:42.431Z</time>
      </trkpt>
      <trkpt lat="65.88639" lon="21.36198">
        <ele>59.56254</ele>
        <time>2020-09-22T12:42:44.406Z</time>
      </trkpt>
      <trkpt lat="65.88633" lon="21.36215">
        <ele>59.38821</ele>
        <time>2020-09-22T12:42:46.396Z</time>
      </trkpt>
      <trkpt lat="65.88626" lon="21.36232">
        <ele>59.211558</ele>
        <time>2020-09-22T12:42:48.429Z</time>
      </trkpt>
      <trkpt lat="65.88619" lon="21.36251">
        <ele>59.028239</ele>
        <time>2020-09-22T12:42:50.396Z</time>
      </trkpt>
      <trkpt lat="65.88612" lon="21.36269">
        <ele>58.841216</ele>
        <time>2020-09-22T12:42:52.402Z</time>
      </trkpt>
      <trkpt lat="65.88605" lon="21.36287">
        <ele>58.651978</ele>
        <time>2020-09-22T12:42:54.412Z</time>
      </trkpt>
      <trkpt lat="65.88597" lon="21.36305">
        <ele>58.461906</ele>
        <time>2020-09-22T12:42:56.408Z</time>
      </trkpt>
      <trkpt lat="65.8859" lon="21.36324">
        <ele>58.272307</ele>
        <time>2020-09-22T12:42:58.410Z</time>
      </trkpt>
      <trkpt lat="65.88583" lon="21.36344">
        <ele>58.079841</ele>
        <time>2020-09-22T12:43:00.398Z</time>
      </trkpt>
      <trkpt lat="65.88576" lon="21.36364">
        <ele>57.88285</ele>
        <time>2020-09-22T12:43:02.450Z</time>
      </trkpt>
      <trkpt lat="65.88569" lon="21.36384">
        <ele>57.681321</ele>
        <time>2020-09-22T12:43:04.404Z</time>
      </trkpt>
      <trkpt lat="65.88561" lon="21.36405">
        <ele>57.474405</ele>
        <time>2020-09-22T12:43:06.427Z</time>
      </trkpt>
      <trkpt lat="65.88553" lon="21.36426">
        <ele>57.263633</ele>
        <time>2020-09-22T12:43:08.434Z</time>
      </trkpt>
      <trkpt lat="65.88546" lon="21.36447">
        <ele>57.059235</ele>
        <time>2020-09-22T12:43:10.411Z</time>
      </trkpt>
      <trkpt lat="65.88538" lon="21.36468">
        <ele>56.876527</ele>
        <time>2020-09-22T12:43:12.441Z</time>
      </trkpt>
      <trkpt lat="65.88531" lon="21.36489">
        <ele>56.72629</ele>
        <time>2020-09-22T12:43:14.430Z</time>
      </trkpt>
      <trkpt lat="65.88523" lon="21.36511">
        <ele>56.572857</ele>
        <time>2020-09-22T12:43:16.399Z</time>
      </trkpt>
      <trkpt lat="65.88514" lon="21.36533">
        <ele>56.416221</ele>
        <time>2020-09-22T12:43:18.429Z</time>
      </trkpt>
      <trkpt lat="65.88506" lon="21.36555">
        <ele>56.260944</ele>
        <time>2020-09-22T12:43:20.411Z</time>
      </trkpt>
      <trkpt lat="65.88498" lon="21.36576">
        <ele>56.107694</ele>
        <time>2020-09-22T12:43:22.414Z</time>
      </trkpt>
      <trkpt lat="65.8849" lon="21.36598">
        <ele>55.951269</ele>
        <time>2020-09-22T12:43:24.402Z</time>
      </trkpt>
      <trkpt lat="65.88481" lon="21.3662">
        <ele>55.793775</ele>
        <time>2020-09-22T12:43:26.404Z</time>
      </trkpt>
      <trkpt lat="65.88473" lon="21.36642">
        <ele>55.638382</ele>
        <time>2020-09-22T12:43:28.414Z</time>
      </trkpt>
      <trkpt lat="65.88465" lon="21.36664">
        <ele>55.479303</ele>
        <time>2020-09-22T12:43:30.407Z</time>
      </trkpt>
      <trkpt lat="65.88456" lon="21.36686">
        <ele>55.320848</ele>
        <time>2020-09-22T12:43:32.407Z</time>
      </trkpt>
      <trkpt lat="65.88448" lon="21.36707">
        <ele>55.165441</ele>
        <time>2020-09-22T12:43:34.420Z</time>
      </trkpt>
      <trkpt lat="65.8844" lon="21.3673">
        <ele>55.007471</ele>
        <time>2020-09-22T12:43:36.433Z</time>
      </trkpt>
      <trkpt lat="65.88432" lon="21.36752">
        <ele>54.850439</ele>
        <time>2020-09-22T12:43:38.419Z</time>
      </trkpt>
      <trkpt lat="65.88423" lon="21.36774">
        <ele>54.692944</ele>
        <time>2020-09-22T12:43:40.420Z</time>
      </trkpt>
      <trkpt lat="65.88415" lon="21.36796">
        <ele>54.723211</ele>
        <time>2020-09-22T12:43:42.402Z</time>
      </trkpt>
      <trkpt lat="65.88407" lon="21.36818">
        <ele>54.889537</ele>
        <time>2020-09-22T12:43:44.402Z</time>
      </trkpt>
      <trkpt lat="65.88399" lon="21.36841">
        <ele>55.056486</ele>
        <time>2020-09-22T12:43:46.433Z</time>
      </trkpt>
      <trkpt lat="65.88391" lon="21.36863">
        <ele>55.218239</ele>
        <time>2020-09-22T12:43:48.409Z</time>
      </trkpt>
      <trkpt lat="65.88384" lon="21.36883">
        <ele>55.374452</ele>
        <time>2020-09-22T12:43:50.412Z</time>
      </trkpt>
      <trkpt lat="65.88376" lon="21.36903">
        <ele>55.523655</ele>
        <time>2020-09-22T12:43:52.433Z</time>
      </trkpt>
      <trkpt lat="65.88369" lon="21.36923">
        <ele>55.672631</ele>
        <time>2020-09-22T12:43:54.402Z</time>
      </trkpt>
      <trkpt lat="65.88362" lon="21.36942">
        <ele>55.814902</ele>
        <time>2020-09-22T12:43:56.416Z</time>
      </trkpt>
      <trkpt lat="65.88355" lon="21.3696">
        <ele>55.951078</ele>
        <time>2020-09-22T12:43:58.445Z</time>
      </trkpt>
      <trkpt lat="65.88349" lon="21.36977">
        <ele>56.083004</ele>
        <time>2020-09-22T12:44:00.397Z</time>
      </trkpt>
      <trkpt lat="65.88343" lon="21.36994">
        <ele>56.212348</ele>
        <time>2020-09-22T12:44:02.395Z</time>
      </trkpt>
      <trkpt lat="65.88336" lon="21.37011">
        <ele>56.341943</ele>
        <time>2020-09-22T12:44:04.432Z</time>
      </trkpt>
      <trkpt lat="65.8833" lon="21.37028">
        <ele>56.468943</ele>
        <time>2020-09-22T12:44:06.406Z</time>
      </trkpt>
      <trkpt lat="65.88322" lon="21.37052">
        <ele>56.647784</ele>
        <time>2020-09-22T12:44:09.413Z</time>
      </trkpt>
      <trkpt lat="65.88313" lon="21.37073">
        <ele>56.814913</ele>
        <time>2020-09-22T12:44:12.416Z</time>
      </trkpt>
      <trkpt lat="65.88305" lon="21.37094">
        <ele>56.975671</ele>
        <time>2020-09-22T12:44:15.403Z</time>
      </trkpt>
      <trkpt lat="65.88297" lon="21.37114">
        <ele>57.234309</ele>
        <time>2020-09-22T12:44:18.407Z</time>
      </trkpt>
      <trkpt lat="65.88289" lon="21.37131">
        <ele>57.84638</ele>
        <time>2020-09-22T12:44:21.408Z</time>
      </trkpt>
      <trkpt lat="65.88282" lon="21.37149">
        <ele>58.451212</ele>
        <time>2020-09-22T12:44:24.409Z</time>
      </trkpt>
      <trkpt lat="65.88274" lon="21.37169">
        <ele>59.063627</ele>
        <time>2020-09-22T12:44:27.412Z</time>
      </trkpt>
      <trkpt lat="65.88267" lon="21.37185">
        <ele>59.632621</ele>
        <time>2020-09-22T12:44:30.420Z</time>
      </trkpt>
      <trkpt lat="65.8826" lon="21.372">
        <ele>60.182266</ele>
        <time>2020-09-22T12:44:33.430Z</time>
      </trkpt>
      <trkpt lat="65.88253" lon="21.37216">
        <ele>60.711678</ele>
        <time>2020-09-22T12:44:36.402Z</time>
      </trkpt>
      <trkpt lat="65.88245" lon="21.37238">
        <ele>61.389908</ele>
        <time>2020-09-22T12:44:40.435Z</time>
      </trkpt>
      <trkpt lat="65.88239" lon="21.37253">
        <ele>61.906482</ele>
        <time>2020-09-22T12:44:43.405Z</time>
      </trkpt>
      <trkpt lat="65.8823" lon="21.37271">
        <ele>62.55516</ele>
        <time>2020-09-22T12:44:47.415Z</time>
      </trkpt>
      <trkpt lat="65.88221" lon="21.37286">
        <ele>63.161855</ele>
        <time>2020-09-22T12:44:51.408Z</time>
      </trkpt>
      <trkpt lat="65.88212" lon="21.37303">
        <ele>63.817986</ele>
        <time>2020-09-22T12:44:55.406Z</time>
      </trkpt>
      <trkpt lat="65.88205" lon="21.37316">
        <ele>64.350422</ele>
        <time>2020-09-22T12:44:58.416Z</time>
      </trkpt>
      <trkpt lat="65.88198" lon="21.3733">
        <ele>64.873688</ele>
        <time>2020-09-22T12:45:01.405Z</time>
      </trkpt>
      <trkpt lat="65.88188" lon="21.37347">
        <ele>65.527366</ele>
        <time>2020-09-22T12:45:05.406Z</time>
      </trkpt>
      <trkpt lat="65.88179" lon="21.37363">
        <ele>66.169072</ele>
        <time>2020-09-22T12:45:09.431Z</time>
      </trkpt>
      <trkpt lat="65.8817" lon="21.37379">
        <ele>66.811242</ele>
        <time>2020-09-22T12:45:13.409Z</time>
      </trkpt>
      <trkpt lat="65.88161" lon="21.37396">
        <ele>67.419141</ele>
        <time>2020-09-22T12:45:17.417Z</time>
      </trkpt>
      <trkpt lat="65.88153" lon="21.37409">
        <ele>67.604416</ele>
        <time>2020-09-22T12:45:20.411Z</time>
      </trkpt>
      <trkpt lat="65.88143" lon="21.37424">
        <ele>67.840208</ele>
        <time>2020-09-22T12:45:24.432Z</time>
      </trkpt>
      <trkpt lat="65.88136" lon="21.37437">
        <ele>68.025764</ele>
        <time>2020-09-22T12:45:27.418Z</time>
      </trkpt>
      <trkpt lat="65.88128" lon="21.3745">
        <ele>68.221768</ele>
        <time>2020-09-22T12:45:30.401Z</time>
      </trkpt>
      <trkpt lat="65.8812" lon="21.37464">
        <ele>68.425611</ele>
        <time>2020-09-22T12:45:33.427Z</time>
      </trkpt>
      <trkpt lat="65.8811" lon="21.37476">
        <ele>68.63842</ele>
        <time>2020-09-22T12:45:36.405Z</time>
      </trkpt>
      <trkpt lat="65.88101" lon="21.37489">
        <ele>68.853316</ele>
        <time>2020-09-22T12:45:39.423Z</time>
      </trkpt>
      <trkpt lat="65.88091" lon="21.37502">
        <ele>69.082493</ele>
        <time>2020-09-22T12:45:42.422Z</time>
      </trkpt>
      <trkpt lat="65.8808" lon="21.37518">
        <ele>69.347209</ele>
        <time>2020-09-22T12:45:45.417Z</time>
      </trkpt>
      <trkpt lat="65.88072" lon="21.3753">
        <ele>69.53133</ele>
        <time>2020-09-22T12:45:47.424Z</time>
      </trkpt>
      <trkpt lat="65.88064" lon="21.3754">
        <ele>69.721905</ele>
        <time>2020-09-22T12:45:49.416Z</time>
      </trkpt>
      <trkpt lat="65.88052" lon="21.37554">
        <ele>69.993221</ele>
        <time>2020-09-22T12:45:52.415Z</time>
      </trkpt>
      <trkpt lat="65.88043" lon="21.37564">
        <ele>70.195191</ele>
        <time>2020-09-22T12:45:54.413Z</time>
      </trkpt>
      <trkpt lat="65.88034" lon="21.37574">
        <ele>70.40037</ele>
        <time>2020-09-22T12:45:56.415Z</time>
      </trkpt>
      <trkpt lat="65.88023" lon="21.37585">
        <ele>70.630014</ele>
        <time>2020-09-22T12:45:58.412Z</time>
      </trkpt>
      <trkpt lat="65.88012" lon="21.37598">
        <ele>70.87455</ele>
        <time>2020-09-22T12:46:00.399Z</time>
      </trkpt>
      <trkpt lat="65.88002" lon="21.37609">
        <ele>70.953298</ele>
        <time>2020-09-22T12:46:02.400Z</time>
      </trkpt>
      <trkpt lat="65.87991" lon="21.3762">
        <ele>70.686687</ele>
        <time>2020-09-22T12:46:04.409Z</time>
      </trkpt>
      <trkpt lat="65.8798" lon="21.37631">
        <ele>70.407972</ele>
        <time>2020-09-22T12:46:06.414Z</time>
      </trkpt>
      <trkpt lat="65.87969" lon="21.37642">
        <ele>70.130992</ele>
        <time>2020-09-22T12:46:08.437Z</time>
      </trkpt>
      <trkpt lat="65.87958" lon="21.37652">
        <ele>69.865311</ele>
        <time>2020-09-22T12:46:10.412Z</time>
      </trkpt>
      <trkpt lat="65.87947" lon="21.37661">
        <ele>69.602769</ele>
        <time>2020-09-22T12:46:12.409Z</time>
      </trkpt>
      <trkpt lat="65.87936" lon="21.3767">
        <ele>69.331734</ele>
        <time>2020-09-22T12:46:14.427Z</time>
      </trkpt>
      <trkpt lat="65.87924" lon="21.3768">
        <ele>69.046498</ele>
        <time>2020-09-22T12:46:16.435Z</time>
      </trkpt>
      <trkpt lat="65.87913" lon="21.37688">
        <ele>68.770495</ele>
        <time>2020-09-22T12:46:18.429Z</time>
      </trkpt>
      <trkpt lat="65.87901" lon="21.37697">
        <ele>68.486238</ele>
        <time>2020-09-22T12:46:20.406Z</time>
      </trkpt>
      <trkpt lat="65.87889" lon="21.37706">
        <ele>68.202782</ele>
        <time>2020-09-22T12:46:22.413Z</time>
      </trkpt>
      <trkpt lat="65.87878" lon="21.37715">
        <ele>67.917975</ele>
        <time>2020-09-22T12:46:24.451Z</time>
      </trkpt>
      <trkpt lat="65.87865" lon="21.37725">
        <ele>67.622386</ele>
        <time>2020-09-22T12:46:26.409Z</time>
      </trkpt>
      <trkpt lat="65.87853" lon="21.37734">
        <ele>67.329851</ele>
        <time>2020-09-22T12:46:28.420Z</time>
      </trkpt>
      <trkpt lat="65.87842" lon="21.37743">
        <ele>67.043911</ele>
        <time>2020-09-22T12:46:30.409Z</time>
      </trkpt>
      <trkpt lat="65.8783" lon="21.37753">
        <ele>66.690621</ele>
        <time>2020-09-22T12:46:32.421Z</time>
      </trkpt>
      <trkpt lat="65.87817" lon="21.37764">
        <ele>66.232307</ele>
        <time>2020-09-22T12:46:34.402Z</time>
      </trkpt>
      <trkpt lat="65.87803" lon="21.37776">
        <ele>65.758916</ele>
        <time>2020-09-22T12:46:36.437Z</time>
      </trkpt>
      <trkpt lat="65.8779" lon="21.37788">
        <ele>65.293813</ele>
        <time>2020-09-22T12:46:38.408Z</time>
      </trkpt>
      <trkpt lat="65.87778" lon="21.37798">
        <ele>64.851304</ele>
        <time>2020-09-22T12:46:40.399Z</time>
      </trkpt>
      <trkpt lat="65.87766" lon="21.37808">
        <ele>64.421039</ele>
        <time>2020-09-22T12:46:42.435Z</time>
      </trkpt>
      <trkpt lat="65.87754" lon="21.37817">
        <ele>64.01359</ele>
        <time>2020-09-22T12:46:44.429Z</time>
      </trkpt>
      <trkpt lat="65.87743" lon="21.37827">
        <ele>63.605936</ele>
        <time>2020-09-22T12:46:46.448Z</time>
      </trkpt>
      <trkpt lat="65.87731" lon="21.37835">
        <ele>63.213722</ele>
        <time>2020-09-22T12:46:48.403Z</time>
      </trkpt>
      <trkpt lat="65.8772" lon="21.37843">
        <ele>62.82472</ele>
        <time>2020-09-22T12:46:50.416Z</time>
      </trkpt>
      <trkpt lat="65.87709" lon="21.37853">
        <ele>62.42341</ele>
        <time>2020-09-22T12:46:52.406Z</time>
      </trkpt>
      <trkpt lat="65.87698" lon="21.37861">
        <ele>62.029175</ele>
        <time>2020-09-22T12:46:54.402Z</time>
      </trkpt>
      <trkpt lat="65.87687" lon="21.3787">
        <ele>61.638136</ele>
        <time>2020-09-22T12:46:56.417Z</time>
      </trkpt>
      <trkpt lat="65.87676" lon="21.37877">
        <ele>61.271545</ele>
        <time>2020-09-22T12:46:58.422Z</time>
      </trkpt>
      <trkpt lat="65.87666" lon="21.37886">
        <ele>60.90538</ele>
        <time>2020-09-22T12:47:00.415Z</time>
      </trkpt>
      <trkpt lat="65.87655" lon="21.37894">
        <ele>60.782241</ele>
        <time>2020-09-22T12:47:02.409Z</time>
      </trkpt>
      <trkpt lat="65.87645" lon="21.37902">
        <ele>60.699505</ele>
        <time>2020-09-22T12:47:04.404Z</time>
      </trkpt>
      <trkpt lat="65.87634" lon="21.3791">
        <ele>60.617027</ele>
        <time>2020-09-22T12:47:06.399Z</time>
      </trkpt>
      <trkpt lat="65.87624" lon="21.37918">
        <ele>60.534826</ele>
        <time>2020-09-22T12:47:08.402Z</time>
      </trkpt>
      <trkpt lat="65.87613" lon="21.37925">
        <ele>60.454673</ele>
        <time>2020-09-22T12:47:10.431Z</time>
      </trkpt>
      <trkpt lat="65.87603" lon="21.37933">
        <ele>60.372827</ele>
        <time>2020-09-22T12:47:12.426Z</time>
      </trkpt>
      <trkpt lat="65.87592" lon="21.3794">
        <ele>60.290982</ele>
        <time>2020-09-22T12:47:14.413Z</time>
      </trkpt>
      <trkpt lat="65.87582" lon="21.37948">
        <ele>60.210276</ele>
        <time>2020-09-22T12:47:16.412Z</time>
      </trkpt>
      <trkpt lat="65.87572" lon="21.37954">
        <ele>60.131175</ele>
        <time>2020-09-22T12:47:18.418Z</time>
      </trkpt>
      <trkpt lat="65.87562" lon="21.37961">
        <ele>60.055837</ele>
        <time>2020-09-22T12:47:20.418Z</time>
      </trkpt>
      <trkpt lat="65.87552" lon="21.37968">
        <ele>59.979442</ele>
        <time>2020-09-22T12:47:22.433Z</time>
      </trkpt>
      <trkpt lat="65.87542" lon="21.37975">
        <ele>59.902583</ele>
        <time>2020-09-22T12:47:24.419Z</time>
      </trkpt>
      <trkpt lat="65.87532" lon="21.37981">
        <ele>59.825622</ele>
        <time>2020-09-22T12:47:26.412Z</time>
      </trkpt>
      <trkpt lat="65.87523" lon="21.37987">
        <ele>59.750685</ele>
        <time>2020-09-22T12:47:28.412Z</time>
      </trkpt>
      <trkpt lat="65.87513" lon="21.37993">
        <ele>59.677644</ele>
        <time>2020-09-22T12:47:30.397Z</time>
      </trkpt>
      <trkpt lat="65.87504" lon="21.37997">
        <ele>59.607746</ele>
        <time>2020-09-22T12:47:32.409Z</time>
      </trkpt>
      <trkpt lat="65.87495" lon="21.38001">
        <ele>59.538638</ele>
        <time>2020-09-22T12:47:34.401Z</time>
      </trkpt>
      <trkpt lat="65.87486" lon="21.38005">
        <ele>59.521577</ele>
        <time>2020-09-22T12:47:36.441Z</time>
      </trkpt>
      <trkpt lat="65.87476" lon="21.38009">
        <ele>59.544507</ele>
        <time>2020-09-22T12:47:38.411Z</time>
      </trkpt>
      <trkpt lat="65.87466" lon="21.38012">
        <ele>59.567178</ele>
        <time>2020-09-22T12:47:40.415Z</time>
      </trkpt>
      <trkpt lat="65.87457" lon="21.38016">
        <ele>59.588925</ele>
        <time>2020-09-22T12:47:42.404Z</time>
      </trkpt>
      <trkpt lat="65.87444" lon="21.3802">
        <ele>59.619823</ele>
        <time>2020-09-22T12:47:45.413Z</time>
      </trkpt>
      <trkpt lat="65.87434" lon="21.38023">
        <ele>59.642121</ele>
        <time>2020-09-22T12:47:47.456Z</time>
      </trkpt>
      <trkpt lat="65.87425" lon="21.38025">
        <ele>59.664893</ele>
        <time>2020-09-22T12:47:49.415Z</time>
      </trkpt>
      <trkpt lat="65.87415" lon="21.38028">
        <ele>59.687718</ele>
        <time>2020-09-22T12:47:51.417Z</time>
      </trkpt>
      <trkpt lat="65.87406" lon="21.3803">
        <ele>59.710006</ele>
        <time>2020-09-22T12:47:53.434Z</time>
      </trkpt>
      <trkpt lat="65.87396" lon="21.38032">
        <ele>59.733476</ele>
        <time>2020-09-22T12:47:55.418Z</time>
      </trkpt>
      <trkpt lat="65.87385" lon="21.38035">
        <ele>59.757152</ele>
        <time>2020-09-22T12:47:57.416Z</time>
      </trkpt>
      <trkpt lat="65.87376" lon="21.38035">
        <ele>59.779124</ele>
        <time>2020-09-22T12:47:59.413Z</time>
      </trkpt>
      <trkpt lat="65.87366" lon="21.38037">
        <ele>59.801815</ele>
        <time>2020-09-22T12:48:01.399Z</time>
      </trkpt>
      <trkpt lat="65.87356" lon="21.38038">
        <ele>59.825192</ele>
        <time>2020-09-22T12:48:03.443Z</time>
      </trkpt>
      <trkpt lat="65.87346" lon="21.38039">
        <ele>59.848568</ele>
        <time>2020-09-22T12:48:05.404Z</time>
      </trkpt>
      <trkpt lat="65.87336" lon="21.38039">
        <ele>59.873094</ele>
        <time>2020-09-22T12:48:07.405Z</time>
      </trkpt>
      <trkpt lat="65.87325" lon="21.38038">
        <ele>59.897634</ele>
        <time>2020-09-22T12:48:09.401Z</time>
      </trkpt>
      <trkpt lat="65.87315" lon="21.38039">
        <ele>59.921253</ele>
        <time>2020-09-22T12:48:11.412Z</time>
      </trkpt>
      <trkpt lat="65.87305" lon="21.38041">
        <ele>60.24167</ele>
        <time>2020-09-22T12:48:13.418Z</time>
      </trkpt>
      <trkpt lat="65.87295" lon="21.38042">
        <ele>60.6819</ele>
        <time>2020-09-22T12:48:15.410Z</time>
      </trkpt>
      <trkpt lat="65.87286" lon="21.38043">
        <ele>61.09921</ele>
        <time>2020-09-22T12:48:17.417Z</time>
      </trkpt>
      <trkpt lat="65.87273" lon="21.38045">
        <ele>61.703279</ele>
        <time>2020-09-22T12:48:20.422Z</time>
      </trkpt>
      <trkpt lat="65.87261" lon="21.38047">
        <ele>62.261059</ele>
        <time>2020-09-22T12:48:23.409Z</time>
      </trkpt>
      <trkpt lat="65.87249" lon="21.38048">
        <ele>62.787439</ele>
        <time>2020-09-22T12:48:26.429Z</time>
      </trkpt>
      <trkpt lat="65.87238" lon="21.3805">
        <ele>63.278004</ele>
        <time>2020-09-22T12:48:29.422Z</time>
      </trkpt>
      <trkpt lat="65.87228" lon="21.38053">
        <ele>63.747733</ele>
        <time>2020-09-22T12:48:32.409Z</time>
      </trkpt>
      <trkpt lat="65.87218" lon="21.38054">
        <ele>64.178332</ele>
        <time>2020-09-22T12:48:35.404Z</time>
      </trkpt>
      <trkpt lat="65.87207" lon="21.38055">
        <ele>64.713568</ele>
        <time>2020-09-22T12:48:39.420Z</time>
      </trkpt>
      <trkpt lat="65.87196" lon="21.38058">
        <ele>65.218941</ele>
        <time>2020-09-22T12:48:43.418Z</time>
      </trkpt>
      <trkpt lat="65.87185" lon="21.38058">
        <ele>65.717427</ele>
        <time>2020-09-22T12:48:47.394Z</time>
      </trkpt>
      <trkpt lat="65.87174" lon="21.3806">
        <ele>66.199094</ele>
        <time>2020-09-22T12:48:51.422Z</time>
      </trkpt>
      <trkpt lat="65.87163" lon="21.38061">
        <ele>66.674861</ele>
        <time>2020-09-22T12:48:55.418Z</time>
      </trkpt>
      <trkpt lat="65.87153" lon="21.38064">
        <ele>67.141503</ele>
        <time>2020-09-22T12:48:59.429Z</time>
      </trkpt>
      <trkpt lat="65.87143" lon="21.38069">
        <ele>67.620322</ele>
        <time>2020-09-22T12:49:03.420Z</time>
      </trkpt>
      <trkpt lat="65.87133" lon="21.38075">
        <ele>68.059534</ele>
        <time>2020-09-22T12:49:07.420Z</time>
      </trkpt>
      <trkpt lat="65.87124" lon="21.38081">
        <ele>68.203832</ele>
        <time>2020-09-22T12:49:11.424Z</time>
      </trkpt>
      <trkpt lat="65.87114" lon="21.38086">
        <ele>68.330633</ele>
        <time>2020-09-22T12:49:15.404Z</time>
      </trkpt>
      <trkpt lat="65.87105" lon="21.38093">
        <ele>68.456655</ele>
        <time>2020-09-22T12:49:19.404Z</time>
      </trkpt>
      <trkpt lat="65.87095" lon="21.38098">
        <ele>68.5807</ele>
        <time>2020-09-22T12:49:23.429Z</time>
      </trkpt>
      <trkpt lat="65.87085" lon="21.38105">
        <ele>68.715567</ele>
        <time>2020-09-22T12:49:27.408Z</time>
      </trkpt>
      <trkpt lat="65.87075" lon="21.3811">
        <ele>68.851997</ele>
        <time>2020-09-22T12:49:31.424Z</time>
      </trkpt>
      <trkpt lat="65.87065" lon="21.38119">
        <ele>68.995749</ele>
        <time>2020-09-22T12:49:35.412Z</time>
      </trkpt>
      <trkpt lat="65.87054" lon="21.38128">
        <ele>69.141598</ele>
        <time>2020-09-22T12:49:39.412Z</time>
      </trkpt>
      <trkpt lat="65.87046" lon="21.38136">
        <ele>69.25714</ele>
        <time>2020-09-22T12:49:42.429Z</time>
      </trkpt>
      <trkpt lat="65.87037" lon="21.38144">
        <ele>69.380502</ele>
        <time>2020-09-22T12:49:45.404Z</time>
      </trkpt>
      <trkpt lat="65.87028" lon="21.38153">
        <ele>69.497874</ele>
        <time>2020-09-22T12:49:48.411Z</time>
      </trkpt>
      <trkpt lat="65.87018" lon="21.38165">
        <ele>69.652469</ele>
        <time>2020-09-22T12:49:52.396Z</time>
      </trkpt>
      <trkpt lat="65.87009" lon="21.38175">
        <ele>69.77557</ele>
        <time>2020-09-22T12:49:55.422Z</time>
      </trkpt>
      <trkpt lat="65.87001" lon="21.38187">
        <ele>69.901256</ele>
        <time>2020-09-22T12:49:58.438Z</time>
      </trkpt>
      <trkpt lat="65.86993" lon="21.38198">
        <ele>70.020233</ele>
        <time>2020-09-22T12:50:01.425Z</time>
      </trkpt>
      <trkpt lat="65.86984" lon="21.3821">
        <ele>70.143711</ele>
        <time>2020-09-22T12:50:04.404Z</time>
      </trkpt>
      <trkpt lat="65.86974" lon="21.38224">
        <ele>70.300872</ele>
        <time>2020-09-22T12:50:08.433Z</time>
      </trkpt>
      <trkpt lat="65.86965" lon="21.38237">
        <ele>70.421275</ele>
        <time>2020-09-22T12:50:11.401Z</time>
      </trkpt>
      <trkpt lat="65.86956" lon="21.38251">
        <ele>70.504138</ele>
        <time>2020-09-22T12:50:14.431Z</time>
      </trkpt>
      <trkpt lat="65.86946" lon="21.38265">
        <ele>70.589908</ele>
        <time>2020-09-22T12:50:17.403Z</time>
      </trkpt>
      <trkpt lat="65.86937" lon="21.38279">
        <ele>70.670011</ele>
        <time>2020-09-22T12:50:20.449Z</time>
      </trkpt>
      <trkpt lat="65.86927" lon="21.38293">
        <ele>70.75993</ele>
        <time>2020-09-22T12:50:23.441Z</time>
      </trkpt>
      <trkpt lat="65.86918" lon="21.38303">
        <ele>70.831363</ele>
        <time>2020-09-22T12:50:25.454Z</time>
      </trkpt>
      <trkpt lat="65.8691" lon="21.38314">
        <ele>70.902774</ele>
        <time>2020-09-22T12:50:27.434Z</time>
      </trkpt>
      <trkpt lat="65.86902" lon="21.38326">
        <ele>70.972054</ele>
        <time>2020-09-22T12:50:29.411Z</time>
      </trkpt>
      <trkpt lat="65.8689" lon="21.38341">
        <ele>71.074122</ele>
        <time>2020-09-22T12:50:32.411Z</time>
      </trkpt>
      <trkpt lat="65.86882" lon="21.38352">
        <ele>71.145021</ele>
        <time>2020-09-22T12:50:34.440Z</time>
      </trkpt>
      <trkpt lat="65.86874" lon="21.38363">
        <ele>71.215926</ele>
        <time>2020-09-22T12:50:36.404Z</time>
      </trkpt>
      <trkpt lat="65.86862" lon="21.38379">
        <ele>71.317113</ele>
        <time>2020-09-22T12:50:39.416Z</time>
      </trkpt>
      <trkpt lat="65.86854" lon="21.3839">
        <ele>71.387206</ele>
        <time>2020-09-22T12:50:41.410Z</time>
      </trkpt>
      <trkpt lat="65.86846" lon="21.38403">
        <ele>71.464884</ele>
        <time>2020-09-22T12:50:43.412Z</time>
      </trkpt>
      <trkpt lat="65.86835" lon="21.38416">
        <ele>71.551624</ele>
        <time>2020-09-22T12:50:45.433Z</time>
      </trkpt>
      <trkpt lat="65.86825" lon="21.38431">
        <ele>71.645197</ele>
        <time>2020-09-22T12:50:47.403Z</time>
      </trkpt>
      <trkpt lat="65.86815" lon="21.38446">
        <ele>71.73534</ele>
        <time>2020-09-22T12:50:49.418Z</time>
      </trkpt>
      <trkpt lat="65.86805" lon="21.38462">
        <ele>71.593882</ele>
        <time>2020-09-22T12:50:51.420Z</time>
      </trkpt>
      <trkpt lat="65.86794" lon="21.38478">
        <ele>71.280764</ele>
        <time>2020-09-22T12:50:53.477Z</time>
      </trkpt>
      <trkpt lat="65.86784" lon="21.38494">
        <ele>70.959137</ele>
        <time>2020-09-22T12:50:55.398Z</time>
      </trkpt>
      <trkpt lat="65.86773" lon="21.38508">
        <ele>70.645268</ele>
        <time>2020-09-22T12:50:57.420Z</time>
      </trkpt>
      <trkpt lat="65.86761" lon="21.38525">
        <ele>70.305572</ele>
        <time>2020-09-22T12:50:59.437Z</time>
      </trkpt>
      <trkpt lat="65.8675" lon="21.38543">
        <ele>69.948481</ele>
        <time>2020-09-22T12:51:01.404Z</time>
      </trkpt>
      <trkpt lat="65.86738" lon="21.38561">
        <ele>69.600662</ele>
        <time>2020-09-22T12:51:03.475Z</time>
      </trkpt>
      <trkpt lat="65.86727" lon="21.38578">
        <ele>69.25724</ele>
        <time>2020-09-22T12:51:05.402Z</time>
      </trkpt>
      <trkpt lat="65.86715" lon="21.38594">
        <ele>68.923013</ele>
        <time>2020-09-22T12:51:07.408Z</time>
      </trkpt>
      <trkpt lat="65.86704" lon="21.3861">
        <ele>68.588854</ele>
        <time>2020-09-22T12:51:09.401Z</time>
      </trkpt>
      <trkpt lat="65.86694" lon="21.38626">
        <ele>68.277052</ele>
        <time>2020-09-22T12:51:11.413Z</time>
      </trkpt>
      <trkpt lat="65.86684" lon="21.38642">
        <ele>67.971648</ele>
        <time>2020-09-22T12:51:13.408Z</time>
      </trkpt>
      <trkpt lat="65.86674" lon="21.3866">
        <ele>67.665159</ele>
        <time>2020-09-22T12:51:15.435Z</time>
      </trkpt>
      <trkpt lat="65.86664" lon="21.38679">
        <ele>67.341598</ele>
        <time>2020-09-22T12:51:17.399Z</time>
      </trkpt>
      <trkpt lat="65.86654" lon="21.387">
        <ele>66.698428</ele>
        <time>2020-09-22T12:51:19.410Z</time>
      </trkpt>
      <trkpt lat="65.86644" lon="21.38723">
        <ele>65.712417</ele>
        <time>2020-09-22T12:51:21.408Z</time>
      </trkpt>
      <trkpt lat="65.86633" lon="21.38747">
        <ele>64.70436</ele>
        <time>2020-09-22T12:51:23.414Z</time>
      </trkpt>
      <trkpt lat="65.86623" lon="21.38772">
        <ele>63.671845</ele>
        <time>2020-09-22T12:51:25.414Z</time>
      </trkpt>
      <trkpt lat="65.86612" lon="21.38798">
        <ele>62.62961</ele>
        <time>2020-09-22T12:51:27.398Z</time>
      </trkpt>
      <trkpt lat="65.86602" lon="21.38826">
        <ele>61.525476</ele>
        <time>2020-09-22T12:51:29.435Z</time>
      </trkpt>
      <trkpt lat="65.8659" lon="21.38856">
        <ele>60.351877</ele>
        <time>2020-09-22T12:51:31.437Z</time>
      </trkpt>
      <trkpt lat="65.86578" lon="21.38887">
        <ele>59.094933</ele>
        <time>2020-09-22T12:51:33.411Z</time>
      </trkpt>
      <trkpt lat="65.86572" lon="21.38904">
        <ele>58.426491</ele>
        <time>2020-09-22T12:51:34.424Z</time>
      </trkpt>
      <trkpt lat="65.86565" lon="21.3892">
        <ele>57.779576</ele>
        <time>2020-09-22T12:51:35.409Z</time>
      </trkpt>
      <trkpt lat="65.86558" lon="21.38936">
        <ele>57.1137</ele>
        <time>2020-09-22T12:51:36.429Z</time>
      </trkpt>
      <trkpt lat="65.86552" lon="21.38953">
        <ele>56.439647</ele>
        <time>2020-09-22T12:51:37.438Z</time>
      </trkpt>
      <trkpt lat="65.86545" lon="21.38969">
        <ele>55.768756</ele>
        <time>2020-09-22T12:51:38.426Z</time>
      </trkpt>
      <trkpt lat="65.86538" lon="21.38986">
        <ele>55.091688</ele>
        <time>2020-09-22T12:51:39.449Z</time>
      </trkpt>
      <trkpt lat="65.86531" lon="21.39002">
        <ele>54.524846</ele>
        <time>2020-09-22T12:51:40.443Z</time>
      </trkpt>
      <trkpt lat="65.86524" lon="21.39017">
        <ele>54.708975</ele>
        <time>2020-09-22T12:51:41.435Z</time>
      </trkpt>
      <trkpt lat="65.86518" lon="21.39033">
        <ele>54.890278</ele>
        <time>2020-09-22T12:51:42.463Z</time>
      </trkpt>
      <trkpt lat="65.86505" lon="21.3906">
        <ele>55.223942</ele>
        <time>2020-09-22T12:51:44.413Z</time>
      </trkpt>
      <trkpt lat="65.86494" lon="21.39085">
        <ele>55.536614</ele>
        <time>2020-09-22T12:51:46.437Z</time>
      </trkpt>
      <trkpt lat="65.86483" lon="21.39106">
        <ele>55.812039</ele>
        <time>2020-09-22T12:51:48.419Z</time>
      </trkpt>
      <trkpt lat="65.86473" lon="21.39124">
        <ele>56.063294</ele>
        <time>2020-09-22T12:51:50.429Z</time>
      </trkpt>
      <trkpt lat="65.86464" lon="21.39142">
        <ele>56.287557</ele>
        <time>2020-09-22T12:51:52.413Z</time>
      </trkpt>
      <trkpt lat="65.86457" lon="21.39156">
        <ele>56.47305</ele>
        <time>2020-09-22T12:51:54.414Z</time>
      </trkpt>
      <trkpt lat="65.86448" lon="21.39173">
        <ele>56.707831</ele>
        <time>2020-09-22T12:51:57.412Z</time>
      </trkpt>
      <trkpt lat="65.86439" lon="21.39188">
        <ele>56.920038</ele>
        <time>2020-09-22T12:52:00.423Z</time>
      </trkpt>
      <trkpt lat="65.86431" lon="21.392">
        <ele>57.114147</ele>
        <time>2020-09-22T12:52:03.452Z</time>
      </trkpt>
      <trkpt lat="65.86423" lon="21.39215">
        <ele>57.30542</ele>
        <time>2020-09-22T12:52:06.412Z</time>
      </trkpt>
      <trkpt lat="65.86416" lon="21.39228">
        <ele>57.488452</ele>
        <time>2020-09-22T12:52:09.416Z</time>
      </trkpt>
      <trkpt lat="65.86406" lon="21.39244">
        <ele>57.717025</ele>
        <time>2020-09-22T12:52:13.445Z</time>
      </trkpt>
      <trkpt lat="65.86399" lon="21.39257">
        <ele>57.898589</ele>
        <time>2020-09-22T12:52:16.435Z</time>
      </trkpt>
      <trkpt lat="65.86392" lon="21.39271">
        <ele>58.086196</ele>
        <time>2020-09-22T12:52:19.423Z</time>
      </trkpt>
      <trkpt lat="65.86384" lon="21.39284">
        <ele>58.365644</ele>
        <time>2020-09-22T12:52:22.412Z</time>
      </trkpt>
      <trkpt lat="65.86376" lon="21.39296">
        <ele>58.640866</ele>
        <time>2020-09-22T12:52:25.427Z</time>
      </trkpt>
      <trkpt lat="65.86369" lon="21.39311">
        <ele>58.931842</ele>
        <time>2020-09-22T12:52:28.435Z</time>
      </trkpt>
      <trkpt lat="65.86362" lon="21.39325">
        <ele>59.215345</ele>
        <time>2020-09-22T12:52:31.429Z</time>
      </trkpt>
      <trkpt lat="65.86353" lon="21.3934">
        <ele>59.5325</ele>
        <time>2020-09-22T12:52:34.423Z</time>
      </trkpt>
      <trkpt lat="65.86345" lon="21.39357">
        <ele>59.870914</ele>
        <time>2020-09-22T12:52:37.446Z</time>
      </trkpt>
      <trkpt lat="65.86336" lon="21.39374">
        <ele>60.20619</ele>
        <time>2020-09-22T12:52:40.442Z</time>
      </trkpt>
      <trkpt lat="65.86328" lon="21.3939">
        <ele>60.527211</ele>
        <time>2020-09-22T12:52:43.434Z</time>
      </trkpt>
      <trkpt lat="65.8632" lon="21.39405">
        <ele>60.82704</ele>
        <time>2020-09-22T12:52:46.417Z</time>
      </trkpt>
      <trkpt lat="65.86312" lon="21.39419">
        <ele>61.125361</ele>
        <time>2020-09-22T12:52:49.412Z</time>
      </trkpt>
      <trkpt lat="65.86304" lon="21.39433">
        <ele>61.440004</ele>
        <time>2020-09-22T12:52:52.429Z</time>
      </trkpt>
      <trkpt lat="65.86296" lon="21.39447">
        <ele>61.746441</ele>
        <time>2020-09-22T12:52:55.434Z</time>
      </trkpt>
      <trkpt lat="65.86287" lon="21.39461">
        <ele>62.060752</ele>
        <time>2020-09-22T12:52:58.441Z</time>
      </trkpt>
      <trkpt lat="65.86279" lon="21.39476">
        <ele>62.378619</ele>
        <time>2020-09-22T12:53:01.440Z</time>
      </trkpt>
      <trkpt lat="65.8627" lon="21.39491">
        <ele>62.696912</ele>
        <time>2020-09-22T12:53:04.428Z</time>
      </trkpt>
      <trkpt lat="65.86262" lon="21.39506">
        <ele>63.008792</ele>
        <time>2020-09-22T12:53:07.430Z</time>
      </trkpt>
      <trkpt lat="65.86254" lon="21.3952">
        <ele>63.318965</ele>
        <time>2020-09-22T12:53:10.434Z</time>
      </trkpt>
      <trkpt lat="65.86246" lon="21.39535">
        <ele>63.598534</ele>
        <time>2020-09-22T12:53:13.457Z</time>
      </trkpt>
      <trkpt lat="65.86239" lon="21.39549">
        <ele>63.522734</ele>
        <time>2020-09-22T12:53:16.449Z</time>
      </trkpt>
      <trkpt lat="65.8623" lon="21.39565">
        <ele>63.429261</ele>
        <time>2020-09-22T12:53:20.428Z</time>
      </trkpt>
      <trkpt lat="65.86223" lon="21.39579">
        <ele>63.351978</ele>
        <time>2020-09-22T12:53:23.412Z</time>
      </trkpt>
      <trkpt lat="65.86214" lon="21.39593">
        <ele>63.269214</ele>
        <time>2020-09-22T12:53:26.478Z</time>
      </trkpt>
      <trkpt lat="65.86205" lon="21.39607">
        <ele>63.180293</ele>
        <time>2020-09-22T12:53:29.420Z</time>
      </trkpt>
      <trkpt lat="65.86196" lon="21.39622">
        <ele>63.085265</ele>
        <time>2020-09-22T12:53:32.420Z</time>
      </trkpt>
      <trkpt lat="65.86186" lon="21.39641">
        <ele>62.978327</ele>
        <time>2020-09-22T12:53:35.434Z</time>
      </trkpt>
      <trkpt lat="65.86176" lon="21.39659">
        <ele>62.876136</ele>
        <time>2020-09-22T12:53:38.413Z</time>
      </trkpt>
      <trkpt lat="65.86165" lon="21.39677">
        <ele>62.772175</ele>
        <time>2020-09-22T12:53:41.412Z</time>
      </trkpt>
      <trkpt lat="65.86154" lon="21.39695">
        <ele>62.662072</ele>
        <time>2020-09-22T12:53:44.433Z</time>
      </trkpt>
      <trkpt lat="65.86144" lon="21.39713">
        <ele>62.553343</ele>
        <time>2020-09-22T12:53:47.405Z</time>
      </trkpt>
      <trkpt lat="65.86133" lon="21.39731">
        <ele>62.445298</ele>
        <time>2020-09-22T12:53:50.463Z</time>
      </trkpt>
      <trkpt lat="65.86122" lon="21.39751">
        <ele>62.334734</ele>
        <time>2020-09-22T12:53:53.413Z</time>
      </trkpt>
      <trkpt lat="65.86112" lon="21.3977">
        <ele>62.228519</ele>
        <time>2020-09-22T12:53:56.406Z</time>
      </trkpt>
      <trkpt lat="65.86102" lon="21.39788">
        <ele>62.126071</ele>
        <time>2020-09-22T12:53:59.417Z</time>
      </trkpt>
      <trkpt lat="65.86093" lon="21.39805">
        <ele>61.977476</ele>
        <time>2020-09-22T12:54:02.426Z</time>
      </trkpt>
      <trkpt lat="65.86084" lon="21.39822">
        <ele>61.817125</ele>
        <time>2020-09-22T12:54:05.441Z</time>
      </trkpt>
      <trkpt lat="65.86075" lon="21.39841">
        <ele>61.662416</ele>
        <time>2020-09-22T12:54:08.433Z</time>
      </trkpt>
      <trkpt lat="65.86067" lon="21.39861">
        <ele>61.500343</ele>
        <time>2020-09-22T12:54:11.421Z</time>
      </trkpt>
      <trkpt lat="65.86058" lon="21.39884">
        <ele>61.31906</ele>
        <time>2020-09-22T12:54:14.460Z</time>
      </trkpt>
      <trkpt lat="65.86051" lon="21.39902">
        <ele>61.185182</ele>
        <time>2020-09-22T12:54:16.436Z</time>
      </trkpt>
      <trkpt lat="65.86045" lon="21.39921">
        <ele>61.045865</ele>
        <time>2020-09-22T12:54:18.411Z</time>
      </trkpt>
      <trkpt lat="65.8604" lon="21.39941">
        <ele>60.912023</ele>
        <time>2020-09-22T12:54:20.456Z</time>
      </trkpt>
      <trkpt lat="65.86035" lon="21.39961">
        <ele>60.782092</ele>
        <time>2020-09-22T12:54:22.427Z</time>
      </trkpt>
      <trkpt lat="65.8603" lon="21.39981">
        <ele>60.650009</ele>
        <time>2020-09-22T12:54:24.417Z</time>
      </trkpt>
      <trkpt lat="65.86026" lon="21.40002">
        <ele>60.519437</ele>
        <time>2020-09-22T12:54:26.506Z</time>
      </trkpt>
      <trkpt lat="65.86022" lon="21.40022">
        <ele>60.392283</ele>
        <time>2020-09-22T12:54:28.433Z</time>
      </trkpt>
      <trkpt lat="65.86019" lon="21.40044">
        <ele>60.260887</ele>
        <time>2020-09-22T12:54:30.416Z</time>
      </trkpt>
      <trkpt lat="65.86016" lon="21.40068">
        <ele>60.121257</ele>
        <time>2020-09-22T12:54:32.427Z</time>
      </trkpt>
      <trkpt lat="65.86012" lon="21.40093">
        <ele>59.974847</ele>
        <time>2020-09-22T12:54:34.423Z</time>
      </trkpt>
      <trkpt lat="65.8601" lon="21.40118">
        <ele>59.825271</ele>
        <time>2020-09-22T12:54:36.425Z</time>
      </trkpt>
      <trkpt lat="65.86007" lon="21.40145">
        <ele>59.669005</ele>
        <time>2020-09-22T12:54:38.433Z</time>
      </trkpt>
      <trkpt lat="65.86003" lon="21.40173">
        <ele>59.23977</ele>
        <time>2020-09-22T12:54:40.428Z</time>
      </trkpt>
      <trkpt lat="65.86" lon="21.40202">
        <ele>58.741317</ele>
        <time>2020-09-22T12:54:42.452Z</time>
      </trkpt>
      <trkpt lat="65.85996" lon="21.4023">
        <ele>58.238698</ele>
        <time>2020-09-22T12:54:44.442Z</time>
      </trkpt>
      <trkpt lat="65.85992" lon="21.40259">
        <ele>57.724321</ele>
        <time>2020-09-22T12:54:46.432Z</time>
      </trkpt>
      <trkpt lat="65.85989" lon="21.40288">
        <ele>57.211762</ele>
        <time>2020-09-22T12:54:48.438Z</time>
      </trkpt>
      <trkpt lat="65.85985" lon="21.40319">
        <ele>56.671706</ele>
        <time>2020-09-22T12:54:50.423Z</time>
      </trkpt>
      <trkpt lat="65.85982" lon="21.40349">
        <ele>56.145128</ele>
        <time>2020-09-22T12:54:52.441Z</time>
      </trkpt>
      <trkpt lat="65.85979" lon="21.40379">
        <ele>55.63384</ele>
        <time>2020-09-22T12:54:54.412Z</time>
      </trkpt>
      <trkpt lat="65.85975" lon="21.40407">
        <ele>55.140221</ele>
        <time>2020-09-22T12:54:56.432Z</time>
      </trkpt>
      <trkpt lat="65.85972" lon="21.40434">
        <ele>54.66143</ele>
        <time>2020-09-22T12:54:58.437Z</time>
      </trkpt>
      <trkpt lat="65.85969" lon="21.40463">
        <ele>54.163159</ele>
        <time>2020-09-22T12:55:00.415Z</time>
      </trkpt>
      <trkpt lat="65.85965" lon="21.40491">
        <ele>53.657047</ele>
        <time>2020-09-22T12:55:02.445Z</time>
      </trkpt>
      <trkpt lat="65.85962" lon="21.40521">
        <ele>53.137607</ele>
        <time>2020-09-22T12:55:04.440Z</time>
      </trkpt>
      <trkpt lat="65.85958" lon="21.40552">
        <ele>52.594781</ele>
        <time>2020-09-22T12:55:06.440Z</time>
      </trkpt>
      <trkpt lat="65.85955" lon="21.40583">
        <ele>52.265761</ele>
        <time>2020-09-22T12:55:08.427Z</time>
      </trkpt>
      <trkpt lat="65.85951" lon="21.40614">
        <ele>52.403392</ele>
        <time>2020-09-22T12:55:10.410Z</time>
      </trkpt>
      <trkpt lat="65.85948" lon="21.40644">
        <ele>52.533605</ele>
        <time>2020-09-22T12:55:12.448Z</time>
      </trkpt>
      <trkpt lat="65.85944" lon="21.40673">
        <ele>52.662718</ele>
        <time>2020-09-22T12:55:14.409Z</time>
      </trkpt>
      <trkpt lat="65.85941" lon="21.40701">
        <ele>52.789133</ele>
        <time>2020-09-22T12:55:16.433Z</time>
      </trkpt>
      <trkpt lat="65.85937" lon="21.40729">
        <ele>52.914143</ele>
        <time>2020-09-22T12:55:18.453Z</time>
      </trkpt>
      <trkpt lat="65.85934" lon="21.40758">
        <ele>53.038743</ele>
        <time>2020-09-22T12:55:20.419Z</time>
      </trkpt>
      <trkpt lat="65.8593" lon="21.40786">
        <ele>53.166182</ele>
        <time>2020-09-22T12:55:22.463Z</time>
      </trkpt>
      <trkpt lat="65.85927" lon="21.40813">
        <ele>53.287401</ele>
        <time>2020-09-22T12:55:24.423Z</time>
      </trkpt>
      <trkpt lat="65.85924" lon="21.40839">
        <ele>53.403333</ele>
        <time>2020-09-22T12:55:26.414Z</time>
      </trkpt>
      <trkpt lat="65.85921" lon="21.40865">
        <ele>53.51806</ele>
        <time>2020-09-22T12:55:28.406Z</time>
      </trkpt>
      <trkpt lat="65.85918" lon="21.4089">
        <ele>53.628692</ele>
        <time>2020-09-22T12:55:30.436Z</time>
      </trkpt>
      <trkpt lat="65.85915" lon="21.40913">
        <ele>53.730266</ele>
        <time>2020-09-22T12:55:32.462Z</time>
      </trkpt>
      <trkpt lat="65.85912" lon="21.40936">
        <ele>53.831968</ele>
        <time>2020-09-22T12:55:34.437Z</time>
      </trkpt>
      <trkpt lat="65.8591" lon="21.40959">
        <ele>53.934771</ele>
        <time>2020-09-22T12:55:36.407Z</time>
      </trkpt>
      <trkpt lat="65.85907" lon="21.40983">
        <ele>54.039388</ele>
        <time>2020-09-22T12:55:38.416Z</time>
      </trkpt>
      <trkpt lat="65.85904" lon="21.41007">
        <ele>54.050595</ele>
        <time>2020-09-22T12:55:40.422Z</time>
      </trkpt>
      <trkpt lat="65.859" lon="21.41029">
        <ele>53.961291</ele>
        <time>2020-09-22T12:55:42.443Z</time>
      </trkpt>
      <trkpt lat="65.85897" lon="21.41051">
        <ele>53.877152</ele>
        <time>2020-09-22T12:55:44.441Z</time>
      </trkpt>
      <trkpt lat="65.85892" lon="21.41073">
        <ele>53.783853</ele>
        <time>2020-09-22T12:55:46.436Z</time>
      </trkpt>
      <trkpt lat="65.85887" lon="21.41098">
        <ele>53.682034</ele>
        <time>2020-09-22T12:55:48.414Z</time>
      </trkpt>
      <trkpt lat="65.85881" lon="21.41125">
        <ele>53.569317</ele>
        <time>2020-09-22T12:55:50.439Z</time>
      </trkpt>
      <trkpt lat="65.85876" lon="21.41154">
        <ele>53.453468</ele>
        <time>2020-09-22T12:55:52.432Z</time>
      </trkpt>
      <trkpt lat="65.8587" lon="21.41182">
        <ele>53.338043</ele>
        <time>2020-09-22T12:55:54.430Z</time>
      </trkpt>
      <trkpt lat="65.85865" lon="21.41209">
        <ele>53.227441</ele>
        <time>2020-09-22T12:55:56.425Z</time>
      </trkpt>
      <trkpt lat="65.85859" lon="21.41238">
        <ele>53.110217</ele>
        <time>2020-09-22T12:55:58.442Z</time>
      </trkpt>
      <trkpt lat="65.85854" lon="21.41271">
        <ele>52.979393</ele>
        <time>2020-09-22T12:56:00.427Z</time>
      </trkpt>
      <trkpt lat="65.85847" lon="21.41303">
        <ele>52.847583</ele>
        <time>2020-09-22T12:56:02.431Z</time>
      </trkpt>
      <trkpt lat="65.8584" lon="21.41334">
        <ele>52.718974</ele>
        <time>2020-09-22T12:56:04.417Z</time>
      </trkpt>
      <trkpt lat="65.85834" lon="21.41364">
        <ele>52.591843</ele>
        <time>2020-09-22T12:56:06.416Z</time>
      </trkpt>
      <trkpt lat="65.85827" lon="21.41398">
        <ele>52.373378</ele>
        <time>2020-09-22T12:56:08.443Z</time>
      </trkpt>
      <trkpt lat="65.8582" lon="21.4143">
        <ele>51.716012</ele>
        <time>2020-09-22T12:56:10.417Z</time>
      </trkpt>
      <trkpt lat="65.85814" lon="21.41461">
        <ele>51.104894</ele>
        <time>2020-09-22T12:56:12.459Z</time>
      </trkpt>
      <trkpt lat="65.85807" lon="21.41492">
        <ele>50.482769</ele>
        <time>2020-09-22T12:56:14.439Z</time>
      </trkpt>
      <trkpt lat="65.858" lon="21.41523">
        <ele>49.856098</ele>
        <time>2020-09-22T12:56:16.419Z</time>
      </trkpt>
      <trkpt lat="65.85794" lon="21.41553">
        <ele>49.265982</ele>
        <time>2020-09-22T12:56:18.433Z</time>
      </trkpt>
      <trkpt lat="65.85788" lon="21.41581">
        <ele>48.701965</ele>
        <time>2020-09-22T12:56:20.423Z</time>
      </trkpt>
      <trkpt lat="65.85783" lon="21.41607">
        <ele>48.175891</ele>
        <time>2020-09-22T12:56:22.426Z</time>
      </trkpt>
      <trkpt lat="65.85778" lon="21.41632">
        <ele>47.688124</ele>
        <time>2020-09-22T12:56:24.456Z</time>
      </trkpt>
      <trkpt lat="65.85773" lon="21.41655">
        <ele>47.22899</ele>
        <time>2020-09-22T12:56:26.461Z</time>
      </trkpt>
      <trkpt lat="65.85769" lon="21.41678">
        <ele>46.773066</ele>
        <time>2020-09-22T12:56:28.430Z</time>
      </trkpt>
      <trkpt lat="65.85764" lon="21.41702">
        <ele>46.305856</ele>
        <time>2020-09-22T12:56:30.410Z</time>
      </trkpt>
      <trkpt lat="65.85758" lon="21.41725">
        <ele>45.831428</ele>
        <time>2020-09-22T12:56:32.426Z</time>
      </trkpt>
      <trkpt lat="65.85754" lon="21.41749">
        <ele>45.364637</ele>
        <time>2020-09-22T12:56:34.428Z</time>
      </trkpt>
      <trkpt lat="65.85749" lon="21.41772">
        <ele>44.899808</ele>
        <time>2020-09-22T12:56:36.436Z</time>
      </trkpt>
      <trkpt lat="65.85743" lon="21.41796">
        <ele>44.714285</ele>
        <time>2020-09-22T12:56:38.433Z</time>
      </trkpt>
      <trkpt lat="65.85739" lon="21.41823">
        <ele>44.80939</ele>
        <time>2020-09-22T12:56:40.416Z</time>
      </trkpt>
      <trkpt lat="65.85733" lon="21.41851">
        <ele>44.912437</ele>
        <time>2020-09-22T12:56:42.420Z</time>
      </trkpt>
      <trkpt lat="65.85727" lon="21.41881">
        <ele>45.020089</ele>
        <time>2020-09-22T12:56:44.424Z</time>
      </trkpt>
      <trkpt lat="65.85721" lon="21.41911">
        <ele>45.129149</ele>
        <time>2020-09-22T12:56:46.411Z</time>
      </trkpt>
      <trkpt lat="65.85715" lon="21.41942">
        <ele>45.239138</ele>
        <time>2020-09-22T12:56:48.413Z</time>
      </trkpt>
      <trkpt lat="65.85709" lon="21.41971">
        <ele>45.345217</ele>
        <time>2020-09-22T12:56:50.421Z</time>
      </trkpt>
      <trkpt lat="65.85703" lon="21.41999">
        <ele>45.448521</ele>
        <time>2020-09-22T12:56:52.422Z</time>
      </trkpt>
      <trkpt lat="65.85697" lon="21.42026">
        <ele>45.54639</ele>
        <time>2020-09-22T12:56:54.416Z</time>
      </trkpt>
      <trkpt lat="65.85692" lon="21.42049">
        <ele>45.634458</ele>
        <time>2020-09-22T12:56:56.421Z</time>
      </trkpt>
      <trkpt lat="65.85686" lon="21.42072">
        <ele>45.721167</ele>
        <time>2020-09-22T12:56:58.450Z</time>
      </trkpt>
      <trkpt lat="65.85681" lon="21.42097">
        <ele>45.811812</ele>
        <time>2020-09-22T12:57:00.423Z</time>
      </trkpt>
      <trkpt lat="65.85675" lon="21.42122">
        <ele>45.906076</ele>
        <time>2020-09-22T12:57:02.446Z</time>
      </trkpt>
      <trkpt lat="65.8567" lon="21.42147">
        <ele>45.994839</ele>
        <time>2020-09-22T12:57:04.433Z</time>
      </trkpt>
      <trkpt lat="65.85665" lon="21.4217">
        <ele>46.082244</ele>
        <time>2020-09-22T12:57:06.438Z</time>
      </trkpt>
      <trkpt lat="65.8566" lon="21.42193">
        <ele>46.198831</ele>
        <time>2020-09-22T12:57:08.418Z</time>
      </trkpt>
      <trkpt lat="65.85656" lon="21.42214">
        <ele>46.311332</ele>
        <time>2020-09-22T12:57:10.423Z</time>
      </trkpt>
      <trkpt lat="65.85652" lon="21.42234">
        <ele>46.423361</ele>
        <time>2020-09-22T12:57:12.411Z</time>
      </trkpt>
      <trkpt lat="65.85648" lon="21.42253">
        <ele>46.53253</ele>
        <time>2020-09-22T12:57:14.415Z</time>
      </trkpt>
      <trkpt lat="65.85644" lon="21.42273">
        <ele>46.640394</ele>
        <time>2020-09-22T12:57:16.453Z</time>
      </trkpt>
      <trkpt lat="65.85638" lon="21.42302">
        <ele>46.798678</ele>
        <time>2020-09-22T12:57:19.404Z</time>
      </trkpt>
      <trkpt lat="65.85631" lon="21.4233">
        <ele>46.95888</ele>
        <time>2020-09-22T12:57:22.420Z</time>
      </trkpt>
      <trkpt lat="65.85625" lon="21.42357">
        <ele>47.113082</ele>
        <time>2020-09-22T12:57:25.444Z</time>
      </trkpt>
      <trkpt lat="65.85619" lon="21.42384">
        <ele>47.262856</ele>
        <time>2020-09-22T12:57:28.434Z</time>
      </trkpt>
      <trkpt lat="65.85612" lon="21.4241">
        <ele>47.412452</ele>
        <time>2020-09-22T12:57:31.416Z</time>
      </trkpt>
      <trkpt lat="65.85606" lon="21.42435">
        <ele>47.558917</ele>
        <time>2020-09-22T12:57:34.434Z</time>
      </trkpt>
      <trkpt lat="65.85598" lon="21.42461">
        <ele>47.712563</ele>
        <time>2020-09-22T12:57:37.419Z</time>
      </trkpt>
      <trkpt lat="65.85593" lon="21.42479">
        <ele>47.821939</ele>
        <time>2020-09-22T12:57:39.414Z</time>
      </trkpt>
      <trkpt lat="65.85588" lon="21.42498">
        <ele>47.931264</ele>
        <time>2020-09-22T12:57:41.416Z</time>
      </trkpt>
      <trkpt lat="65.85584" lon="21.42517">
        <ele>48.042264</ele>
        <time>2020-09-22T12:57:43.444Z</time>
      </trkpt>
      <trkpt lat="65.85579" lon="21.42536">
        <ele>48.152643</ele>
        <time>2020-09-22T12:57:45.413Z</time>
      </trkpt>
      <trkpt lat="65.85574" lon="21.42556">
        <ele>48.264007</ele>
        <time>2020-09-22T12:57:47.473Z</time>
      </trkpt>
      <trkpt lat="65.85569" lon="21.42574">
        <ele>48.351764</ele>
        <time>2020-09-22T12:57:49.403Z</time>
      </trkpt>
      <trkpt lat="65.85561" lon="21.42602">
        <ele>48.480851</ele>
        <time>2020-09-22T12:57:52.449Z</time>
      </trkpt>
      <trkpt lat="65.85554" lon="21.42627">
        <ele>48.607889</ele>
        <time>2020-09-22T12:57:55.430Z</time>
      </trkpt>
      <trkpt lat="65.85546" lon="21.42652">
        <ele>48.729669</ele>
        <time>2020-09-22T12:57:58.444Z</time>
      </trkpt>
      <trkpt lat="65.85538" lon="21.42676">
        <ele>48.848392</ele>
        <time>2020-09-22T12:58:01.433Z</time>
      </trkpt>
      <trkpt lat="65.85531" lon="21.42699">
        <ele>48.965273</ele>
        <time>2020-09-22T12:58:04.410Z</time>
      </trkpt>
      <trkpt lat="65.85523" lon="21.42723">
        <ele>49.087923</ele>
        <time>2020-09-22T12:58:07.440Z</time>
      </trkpt>
      <trkpt lat="65.85515" lon="21.42746">
        <ele>49.210951</ele>
        <time>2020-09-22T12:58:10.440Z</time>
      </trkpt>
      <trkpt lat="65.85507" lon="21.42769">
        <ele>49.330257</ele>
        <time>2020-09-22T12:58:13.419Z</time>
      </trkpt>
      <trkpt lat="65.85499" lon="21.42793">
        <ele>49.44832</ele>
        <time>2020-09-22T12:58:16.431Z</time>
      </trkpt>
      <trkpt lat="65.85491" lon="21.42816">
        <ele>49.569821</ele>
        <time>2020-09-22T12:58:19.417Z</time>
      </trkpt>
      <trkpt lat="65.85483" lon="21.42839">
        <ele>49.687278</ele>
        <time>2020-09-22T12:58:22.461Z</time>
      </trkpt>
      <trkpt lat="65.85475" lon="21.42861">
        <ele>49.805187</ele>
        <time>2020-09-22T12:58:25.431Z</time>
      </trkpt>
      <trkpt lat="65.85466" lon="21.42883">
        <ele>49.928143</ele>
        <time>2020-09-22T12:58:28.428Z</time>
      </trkpt>
      <trkpt lat="65.85457" lon="21.42906">
        <ele>49.946641</ele>
        <time>2020-09-22T12:58:31.428Z</time>
      </trkpt>
      <trkpt lat="65.85449" lon="21.4293">
        <ele>49.839341</ele>
        <time>2020-09-22T12:58:34.416Z</time>
      </trkpt>
      <trkpt lat="65.8544" lon="21.42954">
        <ele>49.731483</ele>
        <time>2020-09-22T12:58:37.431Z</time>
      </trkpt>
      <trkpt lat="65.85432" lon="21.42979">
        <ele>49.62362</ele>
        <time>2020-09-22T12:58:40.430Z</time>
      </trkpt>
      <trkpt lat="65.85423" lon="21.43003">
        <ele>49.511758</ele>
        <time>2020-09-22T12:58:43.412Z</time>
      </trkpt>
      <trkpt lat="65.85417" lon="21.4302">
        <ele>49.433839</ele>
        <time>2020-09-22T12:58:45.433Z</time>
      </trkpt>
      <trkpt lat="65.85411" lon="21.43036">
        <ele>49.356895</ele>
        <time>2020-09-22T12:58:47.407Z</time>
      </trkpt>
      <trkpt lat="65.85402" lon="21.4306">
        <ele>49.24764</ele>
        <time>2020-09-22T12:58:50.457Z</time>
      </trkpt>
      <trkpt lat="65.85393" lon="21.43084">
        <ele>49.137315</ele>
        <time>2020-09-22T12:58:53.423Z</time>
      </trkpt>
      <trkpt lat="65.85387" lon="21.43101">
        <ele>49.060166</ele>
        <time>2020-09-22T12:58:55.421Z</time>
      </trkpt>
      <trkpt lat="65.85381" lon="21.43118">
        <ele>48.983474</ele>
        <time>2020-09-22T12:58:57.407Z</time>
      </trkpt>
      <trkpt lat="65.85375" lon="21.43135">
        <ele>48.906902</ele>
        <time>2020-09-22T12:58:59.434Z</time>
      </trkpt>
      <trkpt lat="65.85367" lon="21.4316">
        <ele>48.798003</ele>
        <time>2020-09-22T12:59:02.431Z</time>
      </trkpt>
      <trkpt lat="65.85359" lon="21.43186">
        <ele>48.686948</ele>
        <time>2020-09-22T12:59:05.477Z</time>
      </trkpt>
      <trkpt lat="65.85351" lon="21.43211">
        <ele>48.576906</ele>
        <time>2020-09-22T12:59:08.426Z</time>
      </trkpt>
      <trkpt lat="65.85343" lon="21.43237">
        <ele>48.475053</ele>
        <time>2020-09-22T12:59:11.443Z</time>
      </trkpt>
      <trkpt lat="65.85335" lon="21.43263">
        <ele>48.401775</ele>
        <time>2020-09-22T12:59:14.435Z</time>
      </trkpt>
      <trkpt lat="65.85327" lon="21.4329">
        <ele>48.328958</ele>
        <time>2020-09-22T12:59:17.440Z</time>
      </trkpt>
      <trkpt lat="65.85322" lon="21.43309">
        <ele>48.278211</ele>
        <time>2020-09-22T12:59:19.415Z</time>
      </trkpt>
      <trkpt lat="65.85317" lon="21.43327">
        <ele>48.229311</ele>
        <time>2020-09-22T12:59:21.441Z</time>
      </trkpt>
      <trkpt lat="65.85309" lon="21.43354">
        <ele>48.155959</ele>
        <time>2020-09-22T12:59:24.430Z</time>
      </trkpt>
      <trkpt lat="65.85304" lon="21.43372">
        <ele>48.106691</ele>
        <time>2020-09-22T12:59:26.415Z</time>
      </trkpt>
      <trkpt lat="65.85297" lon="21.43399">
        <ele>48.034682</ele>
        <time>2020-09-22T12:59:29.434Z</time>
      </trkpt>
      <trkpt lat="65.85292" lon="21.43418">
        <ele>47.985348</ele>
        <time>2020-09-22T12:59:31.430Z</time>
      </trkpt>
      <trkpt lat="65.85287" lon="21.43436">
        <ele>47.936417</ele>
        <time>2020-09-22T12:59:33.417Z</time>
      </trkpt>
      <trkpt lat="65.85282" lon="21.43455">
        <ele>47.887454</ele>
        <time>2020-09-22T12:59:35.441Z</time>
      </trkpt>
      <trkpt lat="65.85275" lon="21.43482">
        <ele>47.815072</ele>
        <time>2020-09-22T12:59:38.432Z</time>
      </trkpt>
      <trkpt lat="65.85268" lon="21.43509">
        <ele>47.744616</ele>
        <time>2020-09-22T12:59:41.441Z</time>
      </trkpt>
      <trkpt lat="65.85261" lon="21.43536">
        <ele>47.672074</ele>
        <time>2020-09-22T12:59:44.418Z</time>
      </trkpt>
      <trkpt lat="65.85256" lon="21.43555">
        <ele>47.622253</ele>
        <time>2020-09-22T12:59:46.433Z</time>
      </trkpt>
      <trkpt lat="65.85249" lon="21.43582">
        <ele>47.553032</ele>
        <time>2020-09-22T12:59:49.421Z</time>
      </trkpt>
      <trkpt lat="65.85242" lon="21.43609">
        <ele>47.503836</ele>
        <time>2020-09-22T12:59:52.420Z</time>
      </trkpt>
      <trkpt lat="65.85235" lon="21.43636">
        <ele>47.482702</ele>
        <time>2020-09-22T12:59:55.464Z</time>
      </trkpt>
      <trkpt lat="65.85229" lon="21.43664">
        <ele>47.46176</ele>
        <time>2020-09-22T12:59:58.435Z</time>
      </trkpt>
      <trkpt lat="65.85222" lon="21.43692">
        <ele>47.440806</ele>
        <time>2020-09-22T13:00:01.431Z</time>
      </trkpt>
      <trkpt lat="65.85216" lon="21.43719">
        <ele>47.420114</ele>
        <time>2020-09-22T13:00:04.452Z</time>
      </trkpt>
      <trkpt lat="65.8521" lon="21.43747">
        <ele>47.399349</ele>
        <time>2020-09-22T13:00:07.419Z</time>
      </trkpt>
      <trkpt lat="65.85203" lon="21.43776">
        <ele>47.377994</ele>
        <time>2020-09-22T13:00:10.444Z</time>
      </trkpt>
      <trkpt lat="65.85197" lon="21.43802">
        <ele>47.357279</ele>
        <time>2020-09-22T13:00:13.414Z</time>
      </trkpt>
      <trkpt lat="65.8519" lon="21.4383">
        <ele>47.336006</ele>
        <time>2020-09-22T13:00:16.435Z</time>
      </trkpt>
      <trkpt lat="65.85185" lon="21.43849">
        <ele>47.321543</ele>
        <time>2020-09-22T13:00:18.439Z</time>
      </trkpt>
      <trkpt lat="65.8518" lon="21.43868">
        <ele>47.307047</ele>
        <time>2020-09-22T13:00:20.418Z</time>
      </trkpt>
      <trkpt lat="65.85176" lon="21.43888">
        <ele>47.292194</ele>
        <time>2020-09-22T13:00:22.443Z</time>
      </trkpt>
      <trkpt lat="65.85171" lon="21.43907">
        <ele>47.277203</ele>
        <time>2020-09-22T13:00:24.420Z</time>
      </trkpt>
      <trkpt lat="65.85166" lon="21.43927">
        <ele>47.262344</ele>
        <time>2020-09-22T13:00:26.437Z</time>
      </trkpt>
      <trkpt lat="65.85162" lon="21.43947">
        <ele>47.247864</ele>
        <time>2020-09-22T13:00:28.438Z</time>
      </trkpt>
      <trkpt lat="65.85158" lon="21.43967">
        <ele>47.233237</ele>
        <time>2020-09-22T13:00:30.457Z</time>
      </trkpt>
      <trkpt lat="65.85153" lon="21.43986">
        <ele>47.236382</ele>
        <time>2020-09-22T13:00:32.429Z</time>
      </trkpt>
      <trkpt lat="65.85149" lon="21.44005">
        <ele>47.263316</ele>
        <time>2020-09-22T13:00:34.431Z</time>
      </trkpt>
      <trkpt lat="65.85145" lon="21.44026">
        <ele>47.291254</ele>
        <time>2020-09-22T13:00:36.493Z</time>
      </trkpt>
      <trkpt lat="65.85141" lon="21.44047">
        <ele>47.320152</ele>
        <time>2020-09-22T13:00:38.432Z</time>
      </trkpt>
      <trkpt lat="65.85137" lon="21.44068">
        <ele>47.348575</ele>
        <time>2020-09-22T13:00:40.457Z</time>
      </trkpt>
      <trkpt lat="65.85132" lon="21.44089">
        <ele>47.377473</ele>
        <time>2020-09-22T13:00:42.416Z</time>
      </trkpt>
      <trkpt lat="65.85128" lon="21.44109">
        <ele>47.405658</ele>
        <time>2020-09-22T13:00:44.418Z</time>
      </trkpt>
      <trkpt lat="65.85124" lon="21.4413">
        <ele>47.433766</ele>
        <time>2020-09-22T13:00:46.415Z</time>
      </trkpt>
      <trkpt lat="65.8512" lon="21.4415">
        <ele>47.460717</ele>
        <time>2020-09-22T13:00:48.436Z</time>
      </trkpt>
      <trkpt lat="65.85116" lon="21.4417">
        <ele>47.487686</ele>
        <time>2020-09-22T13:00:50.449Z</time>
      </trkpt>
      <trkpt lat="65.8511" lon="21.44199">
        <ele>47.527295</ele>
        <time>2020-09-22T13:00:53.437Z</time>
      </trkpt>
      <trkpt lat="65.85104" lon="21.44228">
        <ele>47.566947</ele>
        <time>2020-09-22T13:00:56.437Z</time>
      </trkpt>
      <trkpt lat="65.85099" lon="21.44256">
        <ele>47.605479</ele>
        <time>2020-09-22T13:00:59.429Z</time>
      </trkpt>
      <trkpt lat="65.85093" lon="21.44285">
        <ele>47.644199</ele>
        <time>2020-09-22T13:01:02.423Z</time>
      </trkpt>
      <trkpt lat="65.85088" lon="21.44315">
        <ele>47.683933</ele>
        <time>2020-09-22T13:01:05.433Z</time>
      </trkpt>
      <trkpt lat="65.85083" lon="21.44344">
        <ele>47.722296</ele>
        <time>2020-09-22T13:01:08.433Z</time>
      </trkpt>
      <trkpt lat="65.85077" lon="21.44373">
        <ele>47.761674</ele>
        <time>2020-09-22T13:01:11.440Z</time>
      </trkpt>
      <trkpt lat="65.85072" lon="21.44402">
        <ele>48.174025</ele>
        <time>2020-09-22T13:01:14.471Z</time>
      </trkpt>
      <trkpt lat="65.85068" lon="21.44422">
        <ele>48.463898</ele>
        <time>2020-09-22T13:01:16.412Z</time>
      </trkpt>
      <trkpt lat="65.85064" lon="21.44442">
        <ele>48.75465</ele>
        <time>2020-09-22T13:01:18.456Z</time>
      </trkpt>
      <trkpt lat="65.8506" lon="21.44462">
        <ele>49.038799</ele>
        <time>2020-09-22T13:01:20.428Z</time>
      </trkpt>
      <trkpt lat="65.85055" lon="21.44492">
        <ele>49.458161</ele>
        <time>2020-09-22T13:01:23.413Z</time>
      </trkpt>
      <trkpt lat="65.8505" lon="21.44522">
        <ele>49.879944</ele>
        <time>2020-09-22T13:01:26.429Z</time>
      </trkpt>
      <trkpt lat="65.85045" lon="21.44551">
        <ele>50.287339</ele>
        <time>2020-09-22T13:01:29.417Z</time>
      </trkpt>
      <trkpt lat="65.85039" lon="21.44581">
        <ele>50.70555</ele>
        <time>2020-09-22T13:01:32.449Z</time>
      </trkpt>
      <trkpt lat="65.85035" lon="21.4461">
        <ele>51.104648</ele>
        <time>2020-09-22T13:01:35.428Z</time>
      </trkpt>
      <trkpt lat="65.85031" lon="21.44639">
        <ele>51.509006</ele>
        <time>2020-09-22T13:01:38.419Z</time>
      </trkpt>
      <trkpt lat="65.85027" lon="21.44669">
        <ele>51.906288</ele>
        <time>2020-09-22T13:01:41.437Z</time>
      </trkpt>
      <trkpt lat="65.85022" lon="21.44697">
        <ele>52.306493</ele>
        <time>2020-09-22T13:01:44.448Z</time>
      </trkpt>
      <trkpt lat="65.85017" lon="21.44725">
        <ele>52.698438</ele>
        <time>2020-09-22T13:01:47.434Z</time>
      </trkpt>
      <trkpt lat="65.85012" lon="21.44752">
        <ele>53.093326</ele>
        <time>2020-09-22T13:01:50.420Z</time>
      </trkpt>
      <trkpt lat="65.85006" lon="21.44781">
        <ele>53.452195</ele>
        <time>2020-09-22T13:01:53.431Z</time>
      </trkpt>
      <trkpt lat="65.85001" lon="21.44809">
        <ele>53.44033</ele>
        <time>2020-09-22T13:01:56.427Z</time>
      </trkpt>
      <trkpt lat="65.84995" lon="21.44838">
        <ele>53.428192</ele>
        <time>2020-09-22T13:01:59.429Z</time>
      </trkpt>
      <trkpt lat="65.84992" lon="21.4486">
        <ele>53.419595</ele>
        <time>2020-09-22T13:02:01.420Z</time>
      </trkpt>
      <trkpt lat="65.84989" lon="21.44881">
        <ele>53.411105</ele>
        <time>2020-09-22T13:02:03.419Z</time>
      </trkpt>
      <trkpt lat="65.84986" lon="21.44902">
        <ele>53.402712</ele>
        <time>2020-09-22T13:02:05.450Z</time>
      </trkpt>
      <trkpt lat="65.84983" lon="21.44933">
        <ele>53.390534</ele>
        <time>2020-09-22T13:02:08.439Z</time>
      </trkpt>
      <trkpt lat="65.84979" lon="21.44963">
        <ele>53.378669</ele>
        <time>2020-09-22T13:02:11.453Z</time>
      </trkpt>
      <trkpt lat="65.84976" lon="21.44993">
        <ele>53.366648</ele>
        <time>2020-09-22T13:02:14.422Z</time>
      </trkpt>
      <trkpt lat="65.84972" lon="21.45022">
        <ele>53.355285</ele>
        <time>2020-09-22T13:02:17.421Z</time>
      </trkpt>
      <trkpt lat="65.84969" lon="21.4505">
        <ele>53.344228</ele>
        <time>2020-09-22T13:02:20.411Z</time>
      </trkpt>
      <trkpt lat="65.84966" lon="21.45077">
        <ele>53.333764</ele>
        <time>2020-09-22T13:02:23.436Z</time>
      </trkpt>
      <trkpt lat="65.84962" lon="21.45101">
        <ele>53.323973</ele>
        <time>2020-09-22T13:02:26.445Z</time>
      </trkpt>
      <trkpt lat="65.8496" lon="21.45126">
        <ele>53.314351</ele>
        <time>2020-09-22T13:02:29.440Z</time>
      </trkpt>
      <trkpt lat="65.84957" lon="21.45151">
        <ele>53.304499</ele>
        <time>2020-09-22T13:02:32.422Z</time>
      </trkpt>
      <trkpt lat="65.84954" lon="21.45177">
        <ele>53.294353</ele>
        <time>2020-09-22T13:02:35.436Z</time>
      </trkpt>
      <trkpt lat="65.84951" lon="21.45202">
        <ele>53.360131</ele>
        <time>2020-09-22T13:02:38.424Z</time>
      </trkpt>
      <trkpt lat="65.84948" lon="21.45227">
        <ele>53.621195</ele>
        <time>2020-09-22T13:02:41.418Z</time>
      </trkpt>
      <trkpt lat="65.84945" lon="21.45252">
        <ele>53.884869</ele>
        <time>2020-09-22T13:02:44.439Z</time>
      </trkpt>
      <trkpt lat="65.84942" lon="21.45277">
        <ele>54.142075</ele>
        <time>2020-09-22T13:02:47.420Z</time>
      </trkpt>
      <trkpt lat="65.84939" lon="21.45302">
        <ele>54.400544</ele>
        <time>2020-09-22T13:02:50.455Z</time>
      </trkpt>
      <trkpt lat="65.84936" lon="21.45327">
        <ele>54.661069</ele>
        <time>2020-09-22T13:02:53.423Z</time>
      </trkpt>
      <trkpt lat="65.84933" lon="21.45352">
        <ele>54.929291</ele>
        <time>2020-09-22T13:02:56.417Z</time>
      </trkpt>
      <trkpt lat="65.8493" lon="21.45377">
        <ele>55.190074</ele>
        <time>2020-09-22T13:02:59.422Z</time>
      </trkpt>
      <trkpt lat="65.84928" lon="21.45402">
        <ele>55.445552</ele>
        <time>2020-09-22T13:03:02.430Z</time>
      </trkpt>
      <trkpt lat="65.84925" lon="21.45427">
        <ele>55.704991</ele>
        <time>2020-09-22T13:03:05.418Z</time>
      </trkpt>
      <trkpt lat="65.84922" lon="21.45451">
        <ele>55.962884</ele>
        <time>2020-09-22T13:03:08.459Z</time>
      </trkpt>
      <trkpt lat="65.84919" lon="21.45477">
        <ele>56.227305</ele>
        <time>2020-09-22T13:03:11.433Z</time>
      </trkpt>
      <trkpt lat="65.84917" lon="21.45503">
        <ele>56.491331</ele>
        <time>2020-09-22T13:03:14.425Z</time>
      </trkpt>
      <trkpt lat="65.84914" lon="21.45528">
        <ele>56.750486</ele>
        <time>2020-09-22T13:03:17.460Z</time>
      </trkpt>
      <trkpt lat="65.84912" lon="21.45555">
        <ele>57.034615</ele>
        <time>2020-09-22T13:03:20.431Z</time>
      </trkpt>
      <trkpt lat="65.84909" lon="21.45583">
        <ele>57.320698</ele>
        <time>2020-09-22T13:03:23.440Z</time>
      </trkpt>
      <trkpt lat="65.84907" lon="21.45611">
        <ele>57.60565</ele>
        <time>2020-09-22T13:03:26.421Z</time>
      </trkpt>
      <trkpt lat="65.84904" lon="21.45639">
        <ele>57.870282</ele>
        <time>2020-09-22T13:03:29.420Z</time>
      </trkpt>
      <trkpt lat="65.84901" lon="21.45668">
        <ele>58.129023</ele>
        <time>2020-09-22T13:03:32.443Z</time>
      </trkpt>
      <trkpt lat="65.84898" lon="21.45696">
        <ele>58.384227</ele>
        <time>2020-09-22T13:03:35.448Z</time>
      </trkpt>
      <trkpt lat="65.84896" lon="21.45724">
        <ele>58.636406</ele>
        <time>2020-09-22T13:03:38.410Z</time>
      </trkpt>
      <trkpt lat="65.84893" lon="21.45751">
        <ele>58.879928</ele>
        <time>2020-09-22T13:03:41.429Z</time>
      </trkpt>
      <trkpt lat="65.84891" lon="21.45779">
        <ele>59.129496</ele>
        <time>2020-09-22T13:03:44.408Z</time>
      </trkpt>
      <trkpt lat="65.84888" lon="21.45806">
        <ele>59.368828</ele>
        <time>2020-09-22T13:03:47.442Z</time>
      </trkpt>
      <trkpt lat="65.84886" lon="21.45832">
        <ele>59.601301</ele>
        <time>2020-09-22T13:03:50.432Z</time>
      </trkpt>
      <trkpt lat="65.84884" lon="21.4586">
        <ele>59.850121</ele>
        <time>2020-09-22T13:03:53.418Z</time>
      </trkpt>
      <trkpt lat="65.84882" lon="21.45889">
        <ele>60.106868</ele>
        <time>2020-09-22T13:03:56.430Z</time>
      </trkpt>
      <trkpt lat="65.8488" lon="21.45919">
        <ele>60.372561</ele>
        <time>2020-09-22T13:03:59.419Z</time>
      </trkpt>
      <trkpt lat="65.84878" lon="21.45948">
        <ele>60.627255</ele>
        <time>2020-09-22T13:04:02.440Z</time>
      </trkpt>
      <trkpt lat="65.84876" lon="21.45977">
        <ele>60.884866</ele>
        <time>2020-09-22T13:04:05.450Z</time>
      </trkpt>
      <trkpt lat="65.84874" lon="21.46008">
        <ele>61.15794</ele>
        <time>2020-09-22T13:04:08.446Z</time>
      </trkpt>
      <trkpt lat="65.84872" lon="21.46039">
        <ele>61.427339</ele>
        <time>2020-09-22T13:04:11.427Z</time>
      </trkpt>
      <trkpt lat="65.84869" lon="21.46071">
        <ele>61.479047</ele>
        <time>2020-09-22T13:04:14.430Z</time>
      </trkpt>
      <trkpt lat="65.84867" lon="21.46092">
        <ele>61.412972</ele>
        <time>2020-09-22T13:04:16.445Z</time>
      </trkpt>
      <trkpt lat="65.84865" lon="21.46115">
        <ele>61.34429</ele>
        <time>2020-09-22T13:04:18.438Z</time>
      </trkpt>
      <trkpt lat="65.84864" lon="21.46138">
        <ele>61.273837</ele>
        <time>2020-09-22T13:04:20.429Z</time>
      </trkpt>
      <trkpt lat="65.84862" lon="21.4616">
        <ele>61.204596</ele>
        <time>2020-09-22T13:04:22.449Z</time>
      </trkpt>
      <trkpt lat="65.8486" lon="21.46183">
        <ele>61.135197</ele>
        <time>2020-09-22T13:04:24.441Z</time>
      </trkpt>
      <trkpt lat="65.84859" lon="21.46207">
        <ele>61.062084</ele>
        <time>2020-09-22T13:04:26.433Z</time>
      </trkpt>
      <trkpt lat="65.84857" lon="21.46232">
        <ele>60.988677</ele>
        <time>2020-09-22T13:04:28.426Z</time>
      </trkpt>
      <trkpt lat="65.84855" lon="21.46256">
        <ele>60.913494</ele>
        <time>2020-09-22T13:04:30.468Z</time>
      </trkpt>
      <trkpt lat="65.84854" lon="21.4628">
        <ele>60.840496</ele>
        <time>2020-09-22T13:04:32.453Z</time>
      </trkpt>
      <trkpt lat="65.84852" lon="21.46304">
        <ele>60.769273</ele>
        <time>2020-09-22T13:04:34.435Z</time>
      </trkpt>
      <trkpt lat="65.84851" lon="21.46328">
        <ele>60.695865</ele>
        <time>2020-09-22T13:04:36.420Z</time>
      </trkpt>
      <trkpt lat="65.84849" lon="21.46352">
        <ele>60.621785</ele>
        <time>2020-09-22T13:04:38.433Z</time>
      </trkpt>
      <trkpt lat="65.84846" lon="21.46377">
        <ele>60.545636</ele>
        <time>2020-09-22T13:04:40.472Z</time>
      </trkpt>
      <trkpt lat="65.84844" lon="21.46403">
        <ele>60.467442</ele>
        <time>2020-09-22T13:04:42.409Z</time>
      </trkpt>
      <trkpt lat="65.84842" lon="21.46428">
        <ele>60.388808</ele>
        <time>2020-09-22T13:04:44.451Z</time>
      </trkpt>
      <trkpt lat="65.8484" lon="21.46454">
        <ele>60.309443</ele>
        <time>2020-09-22T13:04:46.411Z</time>
      </trkpt>
      <trkpt lat="65.84837" lon="21.46482">
        <ele>60.225798</ele>
        <time>2020-09-22T13:04:48.431Z</time>
      </trkpt>
      <trkpt lat="65.84834" lon="21.46509">
        <ele>60.109732</ele>
        <time>2020-09-22T13:04:50.424Z</time>
      </trkpt>
      <trkpt lat="65.84831" lon="21.46536">
        <ele>59.991242</ele>
        <time>2020-09-22T13:04:52.428Z</time>
      </trkpt>
      <trkpt lat="65.84827" lon="21.46563">
        <ele>59.871605</ele>
        <time>2020-09-22T13:04:54.461Z</time>
      </trkpt>
      <trkpt lat="65.84823" lon="21.46591">
        <ele>59.751502</ele>
        <time>2020-09-22T13:04:56.419Z</time>
      </trkpt>
      <trkpt lat="65.8482" lon="21.46619">
        <ele>59.630431</ele>
        <time>2020-09-22T13:04:58.442Z</time>
      </trkpt>
      <trkpt lat="65.84816" lon="21.46645">
        <ele>59.512368</ele>
        <time>2020-09-22T13:05:00.416Z</time>
      </trkpt>
      <trkpt lat="65.84812" lon="21.46671">
        <ele>59.399404</ele>
        <time>2020-09-22T13:05:02.433Z</time>
      </trkpt>
      <trkpt lat="65.84808" lon="21.46697">
        <ele>59.283031</ele>
        <time>2020-09-22T13:05:04.438Z</time>
      </trkpt>
      <trkpt lat="65.84804" lon="21.46723">
        <ele>59.168934</ele>
        <time>2020-09-22T13:05:06.428Z</time>
      </trkpt>
      <trkpt lat="65.848" lon="21.46749">
        <ele>59.052202</ele>
        <time>2020-09-22T13:05:08.424Z</time>
      </trkpt>
      <trkpt lat="65.84796" lon="21.46775">
        <ele>58.936579</ele>
        <time>2020-09-22T13:05:10.422Z</time>
      </trkpt>
      <trkpt lat="65.84791" lon="21.468">
        <ele>58.820601</ele>
        <time>2020-09-22T13:05:12.419Z</time>
      </trkpt>
      <trkpt lat="65.84787" lon="21.46824">
        <ele>58.709778</ele>
        <time>2020-09-22T13:05:14.476Z</time>
      </trkpt>
      <trkpt lat="65.84782" lon="21.46848">
        <ele>58.601825</ele>
        <time>2020-09-22T13:05:16.425Z</time>
      </trkpt>
      <trkpt lat="65.84778" lon="21.46872">
        <ele>58.490752</ele>
        <time>2020-09-22T13:05:18.418Z</time>
      </trkpt>
      <trkpt lat="65.84773" lon="21.46895">
        <ele>58.398797</ele>
        <time>2020-09-22T13:05:20.442Z</time>
      </trkpt>
      <trkpt lat="65.84769" lon="21.46919">
        <ele>58.464372</ele>
        <time>2020-09-22T13:05:22.449Z</time>
      </trkpt>
      <trkpt lat="65.84764" lon="21.46942">
        <ele>58.532249</ele>
        <time>2020-09-22T13:05:24.437Z</time>
      </trkpt>
      <trkpt lat="65.84759" lon="21.46964">
        <ele>58.595551</ele>
        <time>2020-09-22T13:05:26.433Z</time>
      </trkpt>
      <trkpt lat="65.84754" lon="21.46986">
        <ele>58.660885</ele>
        <time>2020-09-22T13:05:28.438Z</time>
      </trkpt>
      <trkpt lat="65.84748" lon="21.47008">
        <ele>58.726091</ele>
        <time>2020-09-22T13:05:30.416Z</time>
      </trkpt>
      <trkpt lat="65.84743" lon="21.47029">
        <ele>58.789545</ele>
        <time>2020-09-22T13:05:32.417Z</time>
      </trkpt>
      <trkpt lat="65.84737" lon="21.47052">
        <ele>58.856818</ele>
        <time>2020-09-22T13:05:34.441Z</time>
      </trkpt>
      <trkpt lat="65.84731" lon="21.47072">
        <ele>58.92167</ele>
        <time>2020-09-22T13:05:36.484Z</time>
      </trkpt>
      <trkpt lat="65.84726" lon="21.47094">
        <ele>58.985886</ele>
        <time>2020-09-22T13:05:38.438Z</time>
      </trkpt>
      <trkpt lat="65.8472" lon="21.47115">
        <ele>59.050865</ele>
        <time>2020-09-22T13:05:40.423Z</time>
      </trkpt>
      <trkpt lat="65.84715" lon="21.47136">
        <ele>59.114732</ele>
        <time>2020-09-22T13:05:42.444Z</time>
      </trkpt>
      <trkpt lat="65.84709" lon="21.47156">
        <ele>59.177293</ele>
        <time>2020-09-22T13:05:44.424Z</time>
      </trkpt>
      <trkpt lat="65.84703" lon="21.47176">
        <ele>59.240018</ele>
        <time>2020-09-22T13:05:46.433Z</time>
      </trkpt>
      <trkpt lat="65.84697" lon="21.47195">
        <ele>59.3003</ele>
        <time>2020-09-22T13:05:48.433Z</time>
      </trkpt>
      <trkpt lat="65.84692" lon="21.47213">
        <ele>59.359076</ele>
        <time>2020-09-22T13:05:50.453Z</time>
      </trkpt>
      <trkpt lat="65.84686" lon="21.47232">
        <ele>59.418582</ele>
        <time>2020-09-22T13:05:52.418Z</time>
      </trkpt>
      <trkpt lat="65.8468" lon="21.47251">
        <ele>59.480085</ele>
        <time>2020-09-22T13:05:54.468Z</time>
      </trkpt>
      <trkpt lat="65.84674" lon="21.47269">
        <ele>59.468294</ele>
        <time>2020-09-22T13:05:56.413Z</time>
      </trkpt>
      <trkpt lat="65.84668" lon="21.47288">
        <ele>59.357585</ele>
        <time>2020-09-22T13:05:58.455Z</time>
      </trkpt>
      <trkpt lat="65.84661" lon="21.47307">
        <ele>59.242913</ele>
        <time>2020-09-22T13:06:00.464Z</time>
      </trkpt>
      <trkpt lat="65.84654" lon="21.47324">
        <ele>59.130106</ele>
        <time>2020-09-22T13:06:02.444Z</time>
      </trkpt>
      <trkpt lat="65.84648" lon="21.47342">
        <ele>59.020128</ele>
        <time>2020-09-22T13:06:04.435Z</time>
      </trkpt>
      <trkpt lat="65.84642" lon="21.47361">
        <ele>58.905455</ele>
        <time>2020-09-22T13:06:06.424Z</time>
      </trkpt>
      <trkpt lat="65.84635" lon="21.4738">
        <ele>58.785949</ele>
        <time>2020-09-22T13:06:08.447Z</time>
      </trkpt>
      <trkpt lat="65.84628" lon="21.47399">
        <ele>58.668941</ele>
        <time>2020-09-22T13:06:10.443Z</time>
      </trkpt>
      <trkpt lat="65.84621" lon="21.47417">
        <ele>58.554331</ele>
        <time>2020-09-22T13:06:12.430Z</time>
      </trkpt>
      <trkpt lat="65.84614" lon="21.47434">
        <ele>58.441268</ele>
        <time>2020-09-22T13:06:14.441Z</time>
      </trkpt>
      <trkpt lat="65.84607" lon="21.47451">
        <ele>58.326995</ele>
        <time>2020-09-22T13:06:16.457Z</time>
      </trkpt>
      <trkpt lat="65.84601" lon="21.47468">
        <ele>58.219016</ele>
        <time>2020-09-22T13:06:18.422Z</time>
      </trkpt>
      <trkpt lat="65.84594" lon="21.47484">
        <ele>58.114126</ele>
        <time>2020-09-22T13:06:20.454Z</time>
      </trkpt>
      <trkpt lat="65.84585" lon="21.47506">
        <ele>57.963326</ele>
        <time>2020-09-22T13:06:23.439Z</time>
      </trkpt>
      <trkpt lat="65.84576" lon="21.47526">
        <ele>57.82468</ele>
        <time>2020-09-22T13:06:26.429Z</time>
      </trkpt>
      <trkpt lat="65.84566" lon="21.47546">
        <ele>57.682855</ele>
        <time>2020-09-22T13:06:29.422Z</time>
      </trkpt>
      <trkpt lat="65.84557" lon="21.47566">
        <ele>57.539955</ele>
        <time>2020-09-22T13:06:32.424Z</time>
      </trkpt>
      <trkpt lat="65.84548" lon="21.47585">
        <ele>57.547475</ele>
        <time>2020-09-22T13:06:35.437Z</time>
      </trkpt>
      <trkpt lat="65.84538" lon="21.47605">
        <ele>57.755313</ele>
        <time>2020-09-22T13:06:38.468Z</time>
      </trkpt>
      <trkpt lat="65.84529" lon="21.47624">
        <ele>57.965316</ele>
        <time>2020-09-22T13:06:41.438Z</time>
      </trkpt>
      <trkpt lat="65.84518" lon="21.47642">
        <ele>58.177898</ele>
        <time>2020-09-22T13:06:44.407Z</time>
      </trkpt>
      <trkpt lat="65.84509" lon="21.47659">
        <ele>58.379711</ele>
        <time>2020-09-22T13:06:47.444Z</time>
      </trkpt>
      <trkpt lat="65.84499" lon="21.47676">
        <ele>58.580783</ele>
        <time>2020-09-22T13:06:50.431Z</time>
      </trkpt>
      <trkpt lat="65.84489" lon="21.47692">
        <ele>58.779536</ele>
        <time>2020-09-22T13:06:53.419Z</time>
      </trkpt>
      <trkpt lat="65.84479" lon="21.47707">
        <ele>58.976777</ele>
        <time>2020-09-22T13:06:56.420Z</time>
      </trkpt>
      <trkpt lat="65.8447" lon="21.47723">
        <ele>59.173355</ele>
        <time>2020-09-22T13:06:59.428Z</time>
      </trkpt>
      <trkpt lat="65.8446" lon="21.47737">
        <ele>59.366212</ele>
        <time>2020-09-22T13:07:02.429Z</time>
      </trkpt>
      <trkpt lat="65.8445" lon="21.47751">
        <ele>59.555184</ele>
        <time>2020-09-22T13:07:05.417Z</time>
      </trkpt>
      <trkpt lat="65.84441" lon="21.47763">
        <ele>59.741059</ele>
        <time>2020-09-22T13:07:08.433Z</time>
      </trkpt>
      <trkpt lat="65.84431" lon="21.47775">
        <ele>59.927562</ele>
        <time>2020-09-22T13:07:11.420Z</time>
      </trkpt>
      <trkpt lat="65.84421" lon="21.47788">
        <ele>60.109059</ele>
        <time>2020-09-22T13:07:14.448Z</time>
      </trkpt>
      <trkpt lat="65.84411" lon="21.478">
        <ele>60.301347</ele>
        <time>2020-09-22T13:07:17.423Z</time>
      </trkpt>
      <trkpt lat="65.84401" lon="21.47813">
        <ele>60.490559</ele>
        <time>2020-09-22T13:07:20.432Z</time>
      </trkpt>
      <trkpt lat="65.84392" lon="21.47826">
        <ele>60.692407</ele>
        <time>2020-09-22T13:07:23.433Z</time>
      </trkpt>
      <trkpt lat="65.84382" lon="21.47839">
        <ele>60.894606</ele>
        <time>2020-09-22T13:07:26.439Z</time>
      </trkpt>
      <trkpt lat="65.84371" lon="21.47853">
        <ele>61.109559</ele>
        <time>2020-09-22T13:07:29.417Z</time>
      </trkpt>
      <trkpt lat="65.84361" lon="21.47868">
        <ele>61.329983</ele>
        <time>2020-09-22T13:07:32.435Z</time>
      </trkpt>
      <trkpt lat="65.84351" lon="21.47881">
        <ele>61.539765</ele>
        <time>2020-09-22T13:07:35.421Z</time>
      </trkpt>
      <trkpt lat="65.8434" lon="21.47893">
        <ele>61.747458</ele>
        <time>2020-09-22T13:07:38.427Z</time>
      </trkpt>
      <trkpt lat="65.8433" lon="21.47905">
        <ele>61.951601</ele>
        <time>2020-09-22T13:07:41.451Z</time>
      </trkpt>
      <trkpt lat="65.8432" lon="21.47918">
        <ele>62.156785</ele>
        <time>2020-09-22T13:07:44.450Z</time>
      </trkpt>
      <trkpt lat="65.8431" lon="21.47931">
        <ele>62.364446</ele>
        <time>2020-09-22T13:07:47.435Z</time>
      </trkpt>
      <trkpt lat="65.843" lon="21.47945">
        <ele>62.572369</ele>
        <time>2020-09-22T13:07:50.419Z</time>
      </trkpt>
      <trkpt lat="65.8429" lon="21.47959">
        <ele>62.776502</ele>
        <time>2020-09-22T13:07:53.435Z</time>
      </trkpt>
      <trkpt lat="65.8428" lon="21.47972">
        <ele>62.985936</ele>
        <time>2020-09-22T13:07:56.443Z</time>
      </trkpt>
      <trkpt lat="65.8427" lon="21.47986">
        <ele>63.201746</ele>
        <time>2020-09-22T13:07:59.415Z</time>
      </trkpt>
      <trkpt lat="65.84259" lon="21.48">
        <ele>63.41968</ele>
        <time>2020-09-22T13:08:02.441Z</time>
      </trkpt>
      <trkpt lat="65.84248" lon="21.48014">
        <ele>63.641169</ele>
        <time>2020-09-22T13:08:05.426Z</time>
      </trkpt>
      <trkpt lat="65.84237" lon="21.48029">
        <ele>63.679589</ele>
        <time>2020-09-22T13:08:08.430Z</time>
      </trkpt>
      <trkpt lat="65.84226" lon="21.48045">
        <ele>63.46954</ele>
        <time>2020-09-22T13:08:11.436Z</time>
      </trkpt>
      <trkpt lat="65.84216" lon="21.48062">
        <ele>63.261213</ele>
        <time>2020-09-22T13:08:14.411Z</time>
      </trkpt>
      <trkpt lat="65.84205" lon="21.48078">
        <ele>63.047717</ele>
        <time>2020-09-22T13:08:17.419Z</time>
      </trkpt>
      <trkpt lat="65.84193" lon="21.48096">
        <ele>62.827222</ele>
        <time>2020-09-22T13:08:20.473Z</time>
      </trkpt>
      <trkpt lat="65.84185" lon="21.48108">
        <ele>62.673692</ele>
        <time>2020-09-22T13:08:22.422Z</time>
      </trkpt>
      <trkpt lat="65.84177" lon="21.48121">
        <ele>62.52088</ele>
        <time>2020-09-22T13:08:24.417Z</time>
      </trkpt>
      <trkpt lat="65.8417" lon="21.48133">
        <ele>62.369808</ele>
        <time>2020-09-22T13:08:26.453Z</time>
      </trkpt>
      <trkpt lat="65.84162" lon="21.48144">
        <ele>62.221189</ele>
        <time>2020-09-22T13:08:28.442Z</time>
      </trkpt>
      <trkpt lat="65.84154" lon="21.48157">
        <ele>62.066564</ele>
        <time>2020-09-22T13:08:30.439Z</time>
      </trkpt>
      <trkpt lat="65.84146" lon="21.4817">
        <ele>61.909467</ele>
        <time>2020-09-22T13:08:32.444Z</time>
      </trkpt>
      <trkpt lat="65.84138" lon="21.48183">
        <ele>61.751077</ele>
        <time>2020-09-22T13:08:34.432Z</time>
      </trkpt>
      <trkpt lat="65.8413" lon="21.48195">
        <ele>61.595131</ele>
        <time>2020-09-22T13:08:36.428Z</time>
      </trkpt>
      <trkpt lat="65.84122" lon="21.48207">
        <ele>61.439861</ele>
        <time>2020-09-22T13:08:38.440Z</time>
      </trkpt>
      <trkpt lat="65.84113" lon="21.48221">
        <ele>61.278558</ele>
        <time>2020-09-22T13:08:40.429Z</time>
      </trkpt>
      <trkpt lat="65.84105" lon="21.48234">
        <ele>61.11379</ele>
        <time>2020-09-22T13:08:42.435Z</time>
      </trkpt>
      <trkpt lat="65.84097" lon="21.48248">
        <ele>60.948652</ele>
        <time>2020-09-22T13:08:44.431Z</time>
      </trkpt>
      <trkpt lat="65.84088" lon="21.48262">
        <ele>60.796166</ele>
        <time>2020-09-22T13:08:46.450Z</time>
      </trkpt>
      <trkpt lat="65.84079" lon="21.48276">
        <ele>60.695477</ele>
        <time>2020-09-22T13:08:48.432Z</time>
      </trkpt>
      <trkpt lat="65.84071" lon="21.4829">
        <ele>60.596159</ele>
        <time>2020-09-22T13:08:50.437Z</time>
      </trkpt>
      <trkpt lat="65.84062" lon="21.48305">
        <ele>60.494786</ele>
        <time>2020-09-22T13:08:52.427Z</time>
      </trkpt>
      <trkpt lat="65.84054" lon="21.4832">
        <ele>60.392252</ele>
        <time>2020-09-22T13:08:54.432Z</time>
      </trkpt>
      <trkpt lat="65.84045" lon="21.48335">
        <ele>60.288133</ele>
        <time>2020-09-22T13:08:56.420Z</time>
      </trkpt>
      <trkpt lat="65.84036" lon="21.48351">
        <ele>60.178874</ele>
        <time>2020-09-22T13:08:58.414Z</time>
      </trkpt>
      <trkpt lat="65.84027" lon="21.48367">
        <ele>60.073893</ele>
        <time>2020-09-22T13:09:00.452Z</time>
      </trkpt>
      <trkpt lat="65.84019" lon="21.48383">
        <ele>59.968671</ele>
        <time>2020-09-22T13:09:02.414Z</time>
      </trkpt>
      <trkpt lat="65.8401" lon="21.48398">
        <ele>59.864877</ele>
        <time>2020-09-22T13:09:04.416Z</time>
      </trkpt>
      <trkpt lat="65.84001" lon="21.48413">
        <ele>59.760059</ele>
        <time>2020-09-22T13:09:06.438Z</time>
      </trkpt>
      <trkpt lat="65.83993" lon="21.48429">
        <ele>59.659394</ele>
        <time>2020-09-22T13:09:08.429Z</time>
      </trkpt>
      <trkpt lat="65.83985" lon="21.48444">
        <ele>59.558971</ele>
        <time>2020-09-22T13:09:10.477Z</time>
      </trkpt>
      <trkpt lat="65.83977" lon="21.48459">
        <ele>59.457528</ele>
        <time>2020-09-22T13:09:12.712Z</time>
      </trkpt>
      <trkpt lat="65.83969" lon="21.48474">
        <ele>59.35816</ele>
        <time>2020-09-22T13:09:14.427Z</time>
      </trkpt>
      <trkpt lat="65.83957" lon="21.48499">
        <ele>59.206817</ele>
        <time>2020-09-22T13:09:17.428Z</time>
      </trkpt>
      <trkpt lat="65.83949" lon="21.48515">
        <ele>59.109146</ele>
        <time>2020-09-22T13:09:19.412Z</time>
      </trkpt>
      <trkpt lat="65.83942" lon="21.48531">
        <ele>59.053301</ele>
        <time>2020-09-22T13:09:21.410Z</time>
      </trkpt>
      <trkpt lat="65.83935" lon="21.48547">
        <ele>59.018977</ele>
        <time>2020-09-22T13:09:23.449Z</time>
      </trkpt>
      <trkpt lat="65.83927" lon="21.48562">
        <ele>58.985276</ele>
        <time>2020-09-22T13:09:25.443Z</time>
      </trkpt>
      <trkpt lat="65.83919" lon="21.48578">
        <ele>58.950697</ele>
        <time>2020-09-22T13:09:27.422Z</time>
      </trkpt>
      <trkpt lat="65.83911" lon="21.48594">
        <ele>58.915064</ele>
        <time>2020-09-22T13:09:29.432Z</time>
      </trkpt>
      <trkpt lat="65.83903" lon="21.48611">
        <ele>58.879692</ele>
        <time>2020-09-22T13:09:31.432Z</time>
      </trkpt>
      <trkpt lat="65.83895" lon="21.48627">
        <ele>58.844498</ele>
        <time>2020-09-22T13:09:33.417Z</time>
      </trkpt>
      <trkpt lat="65.83887" lon="21.48643">
        <ele>58.809302</ele>
        <time>2020-09-22T13:09:35.448Z</time>
      </trkpt>
      <trkpt lat="65.83879" lon="21.48659">
        <ele>58.774615</ele>
        <time>2020-09-22T13:09:37.416Z</time>
      </trkpt>
      <trkpt lat="65.83872" lon="21.48675">
        <ele>58.741753</ele>
        <time>2020-09-22T13:09:39.419Z</time>
      </trkpt>
      <trkpt lat="65.83865" lon="21.4869">
        <ele>58.708912</ele>
        <time>2020-09-22T13:09:41.436Z</time>
      </trkpt>
      <trkpt lat="65.83858" lon="21.48706">
        <ele>58.676301</ele>
        <time>2020-09-22T13:09:43.415Z</time>
      </trkpt>
      <trkpt lat="65.8385" lon="21.48721">
        <ele>58.643212</ele>
        <time>2020-09-22T13:09:45.415Z</time>
      </trkpt>
      <trkpt lat="65.83843" lon="21.48737">
        <ele>58.611319</ele>
        <time>2020-09-22T13:09:47.443Z</time>
      </trkpt>
      <trkpt lat="65.83836" lon="21.48753">
        <ele>58.579505</ele>
        <time>2020-09-22T13:09:49.446Z</time>
      </trkpt>
      <trkpt lat="65.83829" lon="21.48768">
        <ele>58.547957</ele>
        <time>2020-09-22T13:09:51.431Z</time>
      </trkpt>
      <trkpt lat="65.83823" lon="21.48782">
        <ele>58.517217</ele>
        <time>2020-09-22T13:09:53.414Z</time>
      </trkpt>
      <trkpt lat="65.83816" lon="21.48797">
        <ele>58.486751</ele>
        <time>2020-09-22T13:09:55.421Z</time>
      </trkpt>
      <trkpt lat="65.83809" lon="21.48812">
        <ele>58.495773</ele>
        <time>2020-09-22T13:09:57.420Z</time>
      </trkpt>
      <trkpt lat="65.83802" lon="21.48828">
        <ele>58.63891</ele>
        <time>2020-09-22T13:09:59.420Z</time>
      </trkpt>
      <trkpt lat="65.83796" lon="21.48843">
        <ele>58.781434</ele>
        <time>2020-09-22T13:10:01.429Z</time>
      </trkpt>
      <trkpt lat="65.83789" lon="21.4886">
        <ele>58.926331</ele>
        <time>2020-09-22T13:10:03.428Z</time>
      </trkpt>
      <trkpt lat="65.83782" lon="21.48875">
        <ele>59.070145</ele>
        <time>2020-09-22T13:10:05.426Z</time>
      </trkpt>
      <trkpt lat="65.83775" lon="21.48891">
        <ele>59.216807</ele>
        <time>2020-09-22T13:10:07.465Z</time>
      </trkpt>
      <trkpt lat="65.83768" lon="21.48907">
        <ele>59.364007</ele>
        <time>2020-09-22T13:10:09.454Z</time>
      </trkpt>
      <trkpt lat="65.83761" lon="21.48924">
        <ele>59.519462</ele>
        <time>2020-09-22T13:10:11.435Z</time>
      </trkpt>
      <trkpt lat="65.83754" lon="21.4894">
        <ele>59.665953</ele>
        <time>2020-09-22T13:10:13.412Z</time>
      </trkpt>
      <trkpt lat="65.83747" lon="21.48956">
        <ele>59.809337</ele>
        <time>2020-09-22T13:10:15.422Z</time>
      </trkpt>
      <trkpt lat="65.8374" lon="21.4897">
        <ele>59.951223</ele>
        <time>2020-09-22T13:10:17.432Z</time>
      </trkpt>
      <trkpt lat="65.83733" lon="21.48986">
        <ele>60.096018</ele>
        <time>2020-09-22T13:10:19.417Z</time>
      </trkpt>
      <trkpt lat="65.83726" lon="21.49002">
        <ele>60.241574</ele>
        <time>2020-09-22T13:10:21.412Z</time>
      </trkpt>
      <trkpt lat="65.83719" lon="21.49017">
        <ele>60.385857</ele>
        <time>2020-09-22T13:10:23.440Z</time>
      </trkpt>
      <trkpt lat="65.83712" lon="21.49033">
        <ele>60.534621</ele>
        <time>2020-09-22T13:10:25.451Z</time>
      </trkpt>
      <trkpt lat="65.83705" lon="21.49049">
        <ele>60.679741</ele>
        <time>2020-09-22T13:10:27.438Z</time>
      </trkpt>
      <trkpt lat="65.83699" lon="21.49066">
        <ele>60.826568</ele>
        <time>2020-09-22T13:10:29.423Z</time>
      </trkpt>
      <trkpt lat="65.83691" lon="21.49083">
        <ele>60.980045</ele>
        <time>2020-09-22T13:10:31.410Z</time>
      </trkpt>
      <trkpt lat="65.83684" lon="21.49099">
        <ele>61.136029</ele>
        <time>2020-09-22T13:10:33.441Z</time>
      </trkpt>
      <trkpt lat="65.83676" lon="21.49117">
        <ele>61.123147</ele>
        <time>2020-09-22T13:10:35.419Z</time>
      </trkpt>
      <trkpt lat="65.83669" lon="21.49135">
        <ele>60.869331</ele>
        <time>2020-09-22T13:10:37.454Z</time>
      </trkpt>
      <trkpt lat="65.83661" lon="21.49153">
        <ele>60.614162</ele>
        <time>2020-09-22T13:10:39.435Z</time>
      </trkpt>
      <trkpt lat="65.83653" lon="21.49171">
        <ele>60.361689</ele>
        <time>2020-09-22T13:10:41.414Z</time>
      </trkpt>
      <trkpt lat="65.83645" lon="21.49188">
        <ele>60.109034</ele>
        <time>2020-09-22T13:10:43.434Z</time>
      </trkpt>
      <trkpt lat="65.83638" lon="21.49206">
        <ele>59.862666</ele>
        <time>2020-09-22T13:10:45.434Z</time>
      </trkpt>
      <trkpt lat="65.83631" lon="21.49224">
        <ele>59.621086</ele>
        <time>2020-09-22T13:10:47.450Z</time>
      </trkpt>
      <trkpt lat="65.83623" lon="21.4924">
        <ele>59.384194</ele>
        <time>2020-09-22T13:10:49.433Z</time>
      </trkpt>
      <trkpt lat="65.83616" lon="21.49258">
        <ele>59.135818</ele>
        <time>2020-09-22T13:10:51.447Z</time>
      </trkpt>
      <trkpt lat="65.83608" lon="21.49276">
        <ele>58.889465</ele>
        <time>2020-09-22T13:10:53.421Z</time>
      </trkpt>
      <trkpt lat="65.83601" lon="21.49295">
        <ele>58.631418</ele>
        <time>2020-09-22T13:10:55.463Z</time>
      </trkpt>
      <trkpt lat="65.83593" lon="21.49314">
        <ele>58.365346</ele>
        <time>2020-09-22T13:10:57.413Z</time>
      </trkpt>
      <trkpt lat="65.83585" lon="21.49333">
        <ele>58.105075</ele>
        <time>2020-09-22T13:10:59.455Z</time>
      </trkpt>
      <trkpt lat="65.83577" lon="21.49353">
        <ele>57.833432</ele>
        <time>2020-09-22T13:11:01.432Z</time>
      </trkpt>
      <trkpt lat="65.83569" lon="21.49373">
        <ele>57.565978</ele>
        <time>2020-09-22T13:11:03.441Z</time>
      </trkpt>
      <trkpt lat="65.83562" lon="21.49392">
        <ele>57.299486</ele>
        <time>2020-09-22T13:11:05.436Z</time>
      </trkpt>
      <trkpt lat="65.83554" lon="21.49411">
        <ele>57.040898</ele>
        <time>2020-09-22T13:11:07.455Z</time>
      </trkpt>
      <trkpt lat="65.83546" lon="21.49431">
        <ele>56.837859</ele>
        <time>2020-09-22T13:11:09.412Z</time>
      </trkpt>
      <trkpt lat="65.83538" lon="21.4945">
        <ele>56.667652</ele>
        <time>2020-09-22T13:11:11.466Z</time>
      </trkpt>
      <trkpt lat="65.8353" lon="21.4947">
        <ele>56.494426</ele>
        <time>2020-09-22T13:11:13.433Z</time>
      </trkpt>
      <trkpt lat="65.83522" lon="21.49489">
        <ele>56.32315</ele>
        <time>2020-09-22T13:11:15.420Z</time>
      </trkpt>
      <trkpt lat="65.83514" lon="21.49509">
        <ele>56.156395</ele>
        <time>2020-09-22T13:11:17.445Z</time>
      </trkpt>
      <trkpt lat="65.83506" lon="21.49527">
        <ele>55.989246</ele>
        <time>2020-09-22T13:11:19.437Z</time>
      </trkpt>
      <trkpt lat="65.83498" lon="21.49547">
        <ele>55.820544</ele>
        <time>2020-09-22T13:11:21.438Z</time>
      </trkpt>
      <trkpt lat="65.8349" lon="21.49565">
        <ele>55.653466</ele>
        <time>2020-09-22T13:11:23.431Z</time>
      </trkpt>
      <trkpt lat="65.83483" lon="21.49584">
        <ele>55.488035</ele>
        <time>2020-09-22T13:11:25.416Z</time>
      </trkpt>
      <trkpt lat="65.83474" lon="21.49604">
        <ele>55.310824</ele>
        <time>2020-09-22T13:11:27.460Z</time>
      </trkpt>
      <trkpt lat="65.83467" lon="21.49624">
        <ele>55.137501</ele>
        <time>2020-09-22T13:11:29.427Z</time>
      </trkpt>
      <trkpt lat="65.83459" lon="21.49645">
        <ele>54.963278</ele>
        <time>2020-09-22T13:11:31.434Z</time>
      </trkpt>
      <trkpt lat="65.83451" lon="21.49666">
        <ele>54.784268</ele>
        <time>2020-09-22T13:11:33.445Z</time>
      </trkpt>
      <trkpt lat="65.83443" lon="21.49687">
        <ele>54.604926</ele>
        <time>2020-09-22T13:11:35.426Z</time>
      </trkpt>
      <trkpt lat="65.83435" lon="21.49708">
        <ele>54.429346</ele>
        <time>2020-09-22T13:11:37.412Z</time>
      </trkpt>
      <trkpt lat="65.83426" lon="21.49729">
        <ele>54.247941</ele>
        <time>2020-09-22T13:11:39.442Z</time>
      </trkpt>
      <trkpt lat="65.83418" lon="21.49751">
        <ele>54.293589</ele>
        <time>2020-09-22T13:11:41.425Z</time>
      </trkpt>
      <trkpt lat="65.83409" lon="21.49773">
        <ele>54.365776</ele>
        <time>2020-09-22T13:11:43.433Z</time>
      </trkpt>
      <trkpt lat="65.83401" lon="21.49796">
        <ele>54.437226</ele>
        <time>2020-09-22T13:11:45.419Z</time>
      </trkpt>
      <trkpt lat="65.83392" lon="21.49818">
        <ele>54.507984</ele>
        <time>2020-09-22T13:11:47.485Z</time>
      </trkpt>
      <trkpt lat="65.83384" lon="21.4984">
        <ele>54.579434</ele>
        <time>2020-09-22T13:11:49.436Z</time>
      </trkpt>
      <trkpt lat="65.83376" lon="21.49862">
        <ele>54.648966</ele>
        <time>2020-09-22T13:11:51.440Z</time>
      </trkpt>
      <trkpt lat="65.83367" lon="21.49885">
        <ele>54.721597</ele>
        <time>2020-09-22T13:11:53.443Z</time>
      </trkpt>
      <trkpt lat="65.83359" lon="21.49908">
        <ele>54.79639</ele>
        <time>2020-09-22T13:11:55.439Z</time>
      </trkpt>
      <trkpt lat="65.8335" lon="21.49929">
        <ele>54.867433</ele>
        <time>2020-09-22T13:11:57.424Z</time>
      </trkpt>
      <trkpt lat="65.83342" lon="21.49952">
        <ele>54.937323</ele>
        <time>2020-09-22T13:11:59.439Z</time>
      </trkpt>
      <trkpt lat="65.83334" lon="21.49975">
        <ele>55.009387</ele>
        <time>2020-09-22T13:12:01.412Z</time>
      </trkpt>
      <trkpt lat="65.83325" lon="21.49999">
        <ele>55.084443</ele>
        <time>2020-09-22T13:12:03.438Z</time>
      </trkpt>
      <trkpt lat="65.83316" lon="21.50023">
        <ele>55.161706</ele>
        <time>2020-09-22T13:12:05.412Z</time>
      </trkpt>
      <trkpt lat="65.83308" lon="21.50047">
        <ele>55.237266</ele>
        <time>2020-09-22T13:12:07.429Z</time>
      </trkpt>
      <trkpt lat="65.83299" lon="21.50072">
        <ele>55.190271</ele>
        <time>2020-09-22T13:12:09.412Z</time>
      </trkpt>
      <trkpt lat="65.8329" lon="21.50098">
        <ele>55.076314</ele>
        <time>2020-09-22T13:12:11.453Z</time>
      </trkpt>
      <trkpt lat="65.83281" lon="21.50122">
        <ele>54.963623</ele>
        <time>2020-09-22T13:12:13.440Z</time>
      </trkpt>
      <trkpt lat="65.83272" lon="21.50147">
        <ele>54.848806</ele>
        <time>2020-09-22T13:12:15.443Z</time>
      </trkpt>
      <trkpt lat="65.83264" lon="21.50171">
        <ele>54.737757</ele>
        <time>2020-09-22T13:12:17.416Z</time>
      </trkpt>
      <trkpt lat="65.83256" lon="21.50194">
        <ele>54.630212</ele>
        <time>2020-09-22T13:12:19.416Z</time>
      </trkpt>
      <trkpt lat="65.83248" lon="21.50218">
        <ele>54.522438</ele>
        <time>2020-09-22T13:12:21.449Z</time>
      </trkpt>
      <trkpt lat="65.8324" lon="21.50243">
        <ele>54.414109</ele>
        <time>2020-09-22T13:12:23.443Z</time>
      </trkpt>
      <trkpt lat="65.83232" lon="21.50266">
        <ele>54.309022</ele>
        <time>2020-09-22T13:12:25.444Z</time>
      </trkpt>
      <trkpt lat="65.83224" lon="21.50288">
        <ele>54.207846</ele>
        <time>2020-09-22T13:12:27.424Z</time>
      </trkpt>
      <trkpt lat="65.83216" lon="21.50309">
        <ele>54.105841</ele>
        <time>2020-09-22T13:12:29.453Z</time>
      </trkpt>
      <trkpt lat="65.83208" lon="21.50331">
        <ele>54.005946</ele>
        <time>2020-09-22T13:12:31.449Z</time>
      </trkpt>
      <trkpt lat="65.832" lon="21.50352">
        <ele>53.909144</ele>
        <time>2020-09-22T13:12:33.447Z</time>
      </trkpt>
      <trkpt lat="65.83193" lon="21.50372">
        <ele>53.814103</ele>
        <time>2020-09-22T13:12:35.417Z</time>
      </trkpt>
      <trkpt lat="65.83185" lon="21.50392">
        <ele>53.723933</ele>
        <time>2020-09-22T13:12:37.424Z</time>
      </trkpt>
      <trkpt lat="65.83177" lon="21.50413">
        <ele>53.655733</ele>
        <time>2020-09-22T13:12:39.432Z</time>
      </trkpt>
      <trkpt lat="65.83169" lon="21.50435">
        <ele>53.587789</ele>
        <time>2020-09-22T13:12:41.451Z</time>
      </trkpt>
      <trkpt lat="65.83161" lon="21.50457">
        <ele>53.520277</ele>
        <time>2020-09-22T13:12:43.421Z</time>
      </trkpt>
      <trkpt lat="65.83154" lon="21.50478">
        <ele>53.454203</ele>
        <time>2020-09-22T13:12:45.415Z</time>
      </trkpt>
      <trkpt lat="65.83146" lon="21.50499">
        <ele>53.389216</ele>
        <time>2020-09-22T13:12:47.422Z</time>
      </trkpt>
      <trkpt lat="65.83139" lon="21.5052">
        <ele>53.324228</ele>
        <time>2020-09-22T13:12:49.439Z</time>
      </trkpt>
      <trkpt lat="65.83132" lon="21.50542">
        <ele>53.257952</ele>
        <time>2020-09-22T13:12:51.438Z</time>
      </trkpt>
      <trkpt lat="65.83124" lon="21.50565">
        <ele>53.190077</ele>
        <time>2020-09-22T13:12:53.437Z</time>
      </trkpt>
      <trkpt lat="65.83117" lon="21.50586">
        <ele>53.122538</ele>
        <time>2020-09-22T13:12:55.419Z</time>
      </trkpt>
      <trkpt lat="65.83109" lon="21.50609">
        <ele>53.05245</ele>
        <time>2020-09-22T13:12:57.426Z</time>
      </trkpt>
      <trkpt lat="65.83101" lon="21.50632">
        <ele>52.980738</ele>
        <time>2020-09-22T13:12:59.414Z</time>
      </trkpt>
      <trkpt lat="65.83092" lon="21.50655">
        <ele>52.909332</ele>
        <time>2020-09-22T13:13:01.435Z</time>
      </trkpt>
      <trkpt lat="65.83084" lon="21.50677">
        <ele>52.839243</ele>
        <time>2020-09-22T13:13:03.433Z</time>
      </trkpt>
      <trkpt lat="65.83076" lon="21.507">
        <ele>52.767889</ele>
        <time>2020-09-22T13:13:05.422Z</time>
      </trkpt>
      <trkpt lat="65.83068" lon="21.50723">
        <ele>52.683454</ele>
        <time>2020-09-22T13:13:07.436Z</time>
      </trkpt>
      <trkpt lat="65.83059" lon="21.50747">
        <ele>52.526369</ele>
        <time>2020-09-22T13:13:09.428Z</time>
      </trkpt>
      <trkpt lat="65.83051" lon="21.50772">
        <ele>52.364715</ele>
        <time>2020-09-22T13:13:11.420Z</time>
      </trkpt>
      <trkpt lat="65.83042" lon="21.50797">
        <ele>52.200739</ele>
        <time>2020-09-22T13:13:13.455Z</time>
      </trkpt>
      <trkpt lat="65.83034" lon="21.50821">
        <ele>52.042902</ele>
        <time>2020-09-22T13:13:15.423Z</time>
      </trkpt>
      <trkpt lat="65.83026" lon="21.50844">
        <ele>51.88935</ele>
        <time>2020-09-22T13:13:17.417Z</time>
      </trkpt>
      <trkpt lat="65.83018" lon="21.50867">
        <ele>51.740796</ele>
        <time>2020-09-22T13:13:19.441Z</time>
      </trkpt>
      <trkpt lat="65.8301" lon="21.50889">
        <ele>51.594974</ele>
        <time>2020-09-22T13:13:21.461Z</time>
      </trkpt>
      <trkpt lat="65.83002" lon="21.50912">
        <ele>51.446101</ele>
        <time>2020-09-22T13:13:23.459Z</time>
      </trkpt>
      <trkpt lat="65.82995" lon="21.50934">
        <ele>51.299932</ele>
        <time>2020-09-22T13:13:25.433Z</time>
      </trkpt>
      <trkpt lat="65.82986" lon="21.50957">
        <ele>51.150505</ele>
        <time>2020-09-22T13:13:27.457Z</time>
      </trkpt>
      <trkpt lat="65.82979" lon="21.50978">
        <ele>51.008547</ele>
        <time>2020-09-22T13:13:29.430Z</time>
      </trkpt>
      <trkpt lat="65.82972" lon="21.50998">
        <ele>50.877838</ele>
        <time>2020-09-22T13:13:31.447Z</time>
      </trkpt>
      <trkpt lat="65.82965" lon="21.51018">
        <ele>50.746718</ele>
        <time>2020-09-22T13:13:33.419Z</time>
      </trkpt>
      <trkpt lat="65.82958" lon="21.51037">
        <ele>50.622095</ele>
        <time>2020-09-22T13:13:35.412Z</time>
      </trkpt>
      <trkpt lat="65.82951" lon="21.51056">
        <ele>50.509188</ele>
        <time>2020-09-22T13:13:37.462Z</time>
      </trkpt>
      <trkpt lat="65.82945" lon="21.51076">
        <ele>50.500998</ele>
        <time>2020-09-22T13:13:39.467Z</time>
      </trkpt>
      <trkpt lat="65.82938" lon="21.51097">
        <ele>50.492586</ele>
        <time>2020-09-22T13:13:41.424Z</time>
      </trkpt>
      <trkpt lat="65.8293" lon="21.51116">
        <ele>50.484265</ele>
        <time>2020-09-22T13:13:43.421Z</time>
      </trkpt>
      <trkpt lat="65.82923" lon="21.51137">
        <ele>50.475653</ele>
        <time>2020-09-22T13:13:45.446Z</time>
      </trkpt>
      <trkpt lat="65.82916" lon="21.51158">
        <ele>50.467071</ele>
        <time>2020-09-22T13:13:47.457Z</time>
      </trkpt>
      <trkpt lat="65.82909" lon="21.51178">
        <ele>50.458783</ele>
        <time>2020-09-22T13:13:49.455Z</time>
      </trkpt>
      <trkpt lat="65.82902" lon="21.51197">
        <ele>50.45091</ele>
        <time>2020-09-22T13:13:51.439Z</time>
      </trkpt>
      <trkpt lat="65.82896" lon="21.51216">
        <ele>50.442768</ele>
        <time>2020-09-22T13:13:53.432Z</time>
      </trkpt>
      <trkpt lat="65.82888" lon="21.51236">
        <ele>50.434329</ele>
        <time>2020-09-22T13:13:55.449Z</time>
      </trkpt>
      <trkpt lat="65.82881" lon="21.51257">
        <ele>50.425892</ele>
        <time>2020-09-22T13:13:57.455Z</time>
      </trkpt>
      <trkpt lat="65.82874" lon="21.51277">
        <ele>50.417177</ele>
        <time>2020-09-22T13:13:59.434Z</time>
      </trkpt>
      <trkpt lat="65.82866" lon="21.51297">
        <ele>50.408502</ele>
        <time>2020-09-22T13:14:01.422Z</time>
      </trkpt>
      <trkpt lat="65.82859" lon="21.51317">
        <ele>50.400086</ele>
        <time>2020-09-22T13:14:03.441Z</time>
      </trkpt>
      <trkpt lat="65.82852" lon="21.51337">
        <ele>50.39182</ele>
        <time>2020-09-22T13:14:05.426Z</time>
      </trkpt>
      <trkpt lat="65.82844" lon="21.51357">
        <ele>50.383232</ele>
        <time>2020-09-22T13:14:07.451Z</time>
      </trkpt>
      <trkpt lat="65.82837" lon="21.51378">
        <ele>50.374528</ele>
        <time>2020-09-22T13:14:09.409Z</time>
      </trkpt>
      <trkpt lat="65.8283" lon="21.51399">
        <ele>50.240274</ele>
        <time>2020-09-22T13:14:11.414Z</time>
      </trkpt>
      <trkpt lat="65.82823" lon="21.51419">
        <ele>50.024326</ele>
        <time>2020-09-22T13:14:13.467Z</time>
      </trkpt>
      <trkpt lat="65.82816" lon="21.51439">
        <ele>49.808993</ele>
        <time>2020-09-22T13:14:15.412Z</time>
      </trkpt>
      <trkpt lat="65.82809" lon="21.51458">
        <ele>49.595105</ele>
        <time>2020-09-22T13:14:17.419Z</time>
      </trkpt>
      <trkpt lat="65.82801" lon="21.51478">
        <ele>49.38018</ele>
        <time>2020-09-22T13:14:19.434Z</time>
      </trkpt>
      <trkpt lat="65.82794" lon="21.51498">
        <ele>49.166135</ele>
        <time>2020-09-22T13:14:21.425Z</time>
      </trkpt>
      <trkpt lat="65.82787" lon="21.51518">
        <ele>48.947664</ele>
        <time>2020-09-22T13:14:23.433Z</time>
      </trkpt>
      <trkpt lat="65.8278" lon="21.51538">
        <ele>48.738034</ele>
        <time>2020-09-22T13:14:25.439Z</time>
      </trkpt>
      <trkpt lat="65.82774" lon="21.51557">
        <ele>48.537079</ele>
        <time>2020-09-22T13:14:27.421Z</time>
      </trkpt>
      <trkpt lat="65.82768" lon="21.51575">
        <ele>48.342499</ele>
        <time>2020-09-22T13:14:29.459Z</time>
      </trkpt>
      <trkpt lat="65.82761" lon="21.51595">
        <ele>48.139143</ele>
        <time>2020-09-22T13:14:31.451Z</time>
      </trkpt>
      <trkpt lat="65.82754" lon="21.51614">
        <ele>47.924661</ele>
        <time>2020-09-22T13:14:33.442Z</time>
      </trkpt>
      <trkpt lat="65.82746" lon="21.51635">
        <ele>47.692398</ele>
        <time>2020-09-22T13:14:35.423Z</time>
      </trkpt>
      <trkpt lat="65.82738" lon="21.51655">
        <ele>47.469395</ele>
        <time>2020-09-22T13:14:37.428Z</time>
      </trkpt>
      <trkpt lat="65.82731" lon="21.51675">
        <ele>47.251933</ele>
        <time>2020-09-22T13:14:39.444Z</time>
      </trkpt>
      <trkpt lat="65.82723" lon="21.51695">
        <ele>47.036515</ele>
        <time>2020-09-22T13:14:41.437Z</time>
      </trkpt>
      <trkpt lat="65.82717" lon="21.51714">
        <ele>46.831878</ele>
        <time>2020-09-22T13:14:43.436Z</time>
      </trkpt>
      <trkpt lat="65.8271" lon="21.51733">
        <ele>46.647082</ele>
        <time>2020-09-22T13:14:45.447Z</time>
      </trkpt>
      <trkpt lat="65.82703" lon="21.51752">
        <ele>46.466918</ele>
        <time>2020-09-22T13:14:47.455Z</time>
      </trkpt>
      <trkpt lat="65.82696" lon="21.51772">
        <ele>46.284542</ele>
        <time>2020-09-22T13:14:49.443Z</time>
      </trkpt>
      <trkpt lat="65.8269" lon="21.51792">
        <ele>46.102742</ele>
        <time>2020-09-22T13:14:51.430Z</time>
      </trkpt>
      <trkpt lat="65.82683" lon="21.51811">
        <ele>45.922577</ele>
        <time>2020-09-22T13:14:53.439Z</time>
      </trkpt>
      <trkpt lat="65.82677" lon="21.5183">
        <ele>45.748493</ele>
        <time>2020-09-22T13:14:55.448Z</time>
      </trkpt>
      <trkpt lat="65.8267" lon="21.51848">
        <ele>45.573781</ele>
        <time>2020-09-22T13:14:57.472Z</time>
      </trkpt>
      <trkpt lat="65.82663" lon="21.51868">
        <ele>45.391404</ele>
        <time>2020-09-22T13:14:59.412Z</time>
      </trkpt>
      <trkpt lat="65.82657" lon="21.51887">
        <ele>45.214534</ele>
        <time>2020-09-22T13:15:01.456Z</time>
      </trkpt>
      <trkpt lat="65.8265" lon="21.51906">
        <ele>45.032186</ele>
        <time>2020-09-22T13:15:03.426Z</time>
      </trkpt>
      <trkpt lat="65.82643" lon="21.51925">
        <ele>44.856439</ele>
        <time>2020-09-22T13:15:05.432Z</time>
      </trkpt>
      <trkpt lat="65.82637" lon="21.51943">
        <ele>44.688835</ele>
        <time>2020-09-22T13:15:07.417Z</time>
      </trkpt>
      <trkpt lat="65.82631" lon="21.5196">
        <ele>44.524648</ele>
        <time>2020-09-22T13:15:09.483Z</time>
      </trkpt>
      <trkpt lat="65.82624" lon="21.51979">
        <ele>44.346643</ele>
        <time>2020-09-22T13:15:11.438Z</time>
      </trkpt>
      <trkpt lat="65.82617" lon="21.51999">
        <ele>44.16367</ele>
        <time>2020-09-22T13:15:13.423Z</time>
      </trkpt>
      <trkpt lat="65.82611" lon="21.52017">
        <ele>43.99179</ele>
        <time>2020-09-22T13:15:15.426Z</time>
      </trkpt>
      <trkpt lat="65.82604" lon="21.52036">
        <ele>43.813078</ele>
        <time>2020-09-22T13:15:17.440Z</time>
      </trkpt>
      <trkpt lat="65.82597" lon="21.52054">
        <ele>43.68886</ele>
        <time>2020-09-22T13:15:19.420Z</time>
      </trkpt>
      <trkpt lat="65.8259" lon="21.52073">
        <ele>43.724829</ele>
        <time>2020-09-22T13:15:21.439Z</time>
      </trkpt>
      <trkpt lat="65.82584" lon="21.52092">
        <ele>43.760038</ele>
        <time>2020-09-22T13:15:23.427Z</time>
      </trkpt>
      <trkpt lat="65.82577" lon="21.5211">
        <ele>43.794489</ele>
        <time>2020-09-22T13:15:25.453Z</time>
      </trkpt>
      <trkpt lat="65.82571" lon="21.52129">
        <ele>43.829473</ele>
        <time>2020-09-22T13:15:27.442Z</time>
      </trkpt>
      <trkpt lat="65.82564" lon="21.52147">
        <ele>43.862711</ele>
        <time>2020-09-22T13:15:29.438Z</time>
      </trkpt>
      <trkpt lat="65.82558" lon="21.52165">
        <ele>43.895503</ele>
        <time>2020-09-22T13:15:31.433Z</time>
      </trkpt>
      <trkpt lat="65.82552" lon="21.52183">
        <ele>43.928402</ele>
        <time>2020-09-22T13:15:33.445Z</time>
      </trkpt>
      <trkpt lat="65.82546" lon="21.522">
        <ele>43.961572</ele>
        <time>2020-09-22T13:15:35.441Z</time>
      </trkpt>
      <trkpt lat="65.82539" lon="21.52218">
        <ele>43.995464</ele>
        <time>2020-09-22T13:15:37.445Z</time>
      </trkpt>
      <trkpt lat="65.82533" lon="21.52237">
        <ele>44.029151</ele>
        <time>2020-09-22T13:15:39.414Z</time>
      </trkpt>
      <trkpt lat="65.82527" lon="21.52256">
        <ele>44.062952</ele>
        <time>2020-09-22T13:15:41.441Z</time>
      </trkpt>
      <trkpt lat="65.82522" lon="21.52275">
        <ele>44.096659</ele>
        <time>2020-09-22T13:15:43.420Z</time>
      </trkpt>
      <trkpt lat="65.82516" lon="21.52295">
        <ele>44.130893</ele>
        <time>2020-09-22T13:15:45.446Z</time>
      </trkpt>
      <trkpt lat="65.8251" lon="21.52314">
        <ele>44.164889</ele>
        <time>2020-09-22T13:15:47.452Z</time>
      </trkpt>
      <trkpt lat="65.82505" lon="21.52334">
        <ele>44.198381</ele>
        <time>2020-09-22T13:15:49.427Z</time>
      </trkpt>
      <trkpt lat="65.825" lon="21.52354">
        <ele>44.231429</ele>
        <time>2020-09-22T13:15:51.421Z</time>
      </trkpt>
      <trkpt lat="65.82495" lon="21.52374">
        <ele>44.262719</ele>
        <time>2020-09-22T13:15:53.423Z</time>
      </trkpt>
      <trkpt lat="65.82491" lon="21.52394">
        <ele>44.295004</ele>
        <time>2020-09-22T13:15:55.420Z</time>
      </trkpt>
      <trkpt lat="65.82486" lon="21.52414">
        <ele>44.452479</ele>
        <time>2020-09-22T13:15:57.433Z</time>
      </trkpt>
      <trkpt lat="65.82481" lon="21.52436">
        <ele>44.645869</ele>
        <time>2020-09-22T13:15:59.423Z</time>
      </trkpt>
      <trkpt lat="65.82477" lon="21.52458">
        <ele>44.839937</ele>
        <time>2020-09-22T13:16:01.445Z</time>
      </trkpt>
      <trkpt lat="65.82472" lon="21.5248">
        <ele>45.038401</ele>
        <time>2020-09-22T13:16:03.441Z</time>
      </trkpt>
      <trkpt lat="65.82468" lon="21.52503">
        <ele>45.236507</ele>
        <time>2020-09-22T13:16:05.448Z</time>
      </trkpt>
      <trkpt lat="65.82465" lon="21.52525">
        <ele>45.422169</ele>
        <time>2020-09-22T13:16:07.433Z</time>
      </trkpt>
      <trkpt lat="65.82461" lon="21.52546">
        <ele>45.598327</ele>
        <time>2020-09-22T13:16:09.442Z</time>
      </trkpt>
      <trkpt lat="65.82457" lon="21.52566">
        <ele>45.775977</ele>
        <time>2020-09-22T13:16:11.449Z</time>
      </trkpt>
      <trkpt lat="65.82454" lon="21.52588">
        <ele>45.961755</ele>
        <time>2020-09-22T13:16:13.413Z</time>
      </trkpt>
      <trkpt lat="65.82451" lon="21.52611">
        <ele>46.151639</ele>
        <time>2020-09-22T13:16:15.431Z</time>
      </trkpt>
      <trkpt lat="65.82448" lon="21.52634">
        <ele>46.338682</ele>
        <time>2020-09-22T13:16:17.432Z</time>
      </trkpt>
      <trkpt lat="65.82445" lon="21.52656">
        <ele>46.522891</ele>
        <time>2020-09-22T13:16:19.443Z</time>
      </trkpt>
      <trkpt lat="65.82443" lon="21.52679">
        <ele>46.70806</ele>
        <time>2020-09-22T13:16:21.450Z</time>
      </trkpt>
      <trkpt lat="65.8244" lon="21.52702">
        <ele>46.895995</ele>
        <time>2020-09-22T13:16:23.435Z</time>
      </trkpt>
      <trkpt lat="65.82438" lon="21.52724">
        <ele>47.081915</ele>
        <time>2020-09-22T13:16:25.441Z</time>
      </trkpt>
      <trkpt lat="65.82435" lon="21.52747">
        <ele>47.265832</ele>
        <time>2020-09-22T13:16:27.434Z</time>
      </trkpt>
      <trkpt lat="65.82433" lon="21.5277">
        <ele>47.452517</ele>
        <time>2020-09-22T13:16:29.433Z</time>
      </trkpt>
      <trkpt lat="65.8243" lon="21.52792">
        <ele>47.637402</ele>
        <time>2020-09-22T13:16:31.451Z</time>
      </trkpt>
      <trkpt lat="65.82428" lon="21.52815">
        <ele>47.772421</ele>
        <time>2020-09-22T13:16:33.436Z</time>
      </trkpt>
      <trkpt lat="65.82426" lon="21.52838">
        <ele>47.781563</ele>
        <time>2020-09-22T13:16:35.418Z</time>
      </trkpt>
      <trkpt lat="65.82424" lon="21.52861">
        <ele>47.790783</ele>
        <time>2020-09-22T13:16:37.450Z</time>
      </trkpt>
      <trkpt lat="65.82421" lon="21.52884">
        <ele>47.799984</ele>
        <time>2020-09-22T13:16:39.422Z</time>
      </trkpt>
      <trkpt lat="65.82419" lon="21.52907">
        <ele>47.809183</ele>
        <time>2020-09-22T13:16:41.412Z</time>
      </trkpt>
      <trkpt lat="65.82417" lon="21.52931">
        <ele>47.818881</ele>
        <time>2020-09-22T13:16:43.451Z</time>
      </trkpt>
      <trkpt lat="65.82415" lon="21.52955">
        <ele>47.828274</ele>
        <time>2020-09-22T13:16:45.421Z</time>
      </trkpt>
      <trkpt lat="65.82413" lon="21.52977">
        <ele>47.837263</ele>
        <time>2020-09-22T13:16:47.477Z</time>
      </trkpt>
      <trkpt lat="65.82411" lon="21.52999">
        <ele>47.846156</ele>
        <time>2020-09-22T13:16:49.434Z</time>
      </trkpt>
      <trkpt lat="65.82409" lon="21.53022">
        <ele>47.855394</ele>
        <time>2020-09-22T13:16:51.437Z</time>
      </trkpt>
      <trkpt lat="65.82408" lon="21.53046">
        <ele>47.864827</ele>
        <time>2020-09-22T13:16:53.413Z</time>
      </trkpt>
      <trkpt lat="65.82407" lon="21.53071">
        <ele>47.874471</ele>
        <time>2020-09-22T13:16:55.435Z</time>
      </trkpt>
      <trkpt lat="65.82406" lon="21.53095">
        <ele>47.884104</ele>
        <time>2020-09-22T13:16:57.429Z</time>
      </trkpt>
      <trkpt lat="65.82405" lon="21.53119">
        <ele>47.893214</ele>
        <time>2020-09-22T13:16:59.421Z</time>
      </trkpt>
      <trkpt lat="65.82404" lon="21.53141">
        <ele>47.901933</ele>
        <time>2020-09-22T13:17:01.452Z</time>
      </trkpt>
      <trkpt lat="65.82404" lon="21.53164">
        <ele>47.911019</ele>
        <time>2020-09-22T13:17:03.429Z</time>
      </trkpt>
      <trkpt lat="65.82404" lon="21.53188">
        <ele>47.9203</ele>
        <time>2020-09-22T13:17:05.420Z</time>
      </trkpt>
      <trkpt lat="65.82404" lon="21.53212">
        <ele>47.929651</ele>
        <time>2020-09-22T13:17:07.459Z</time>
      </trkpt>
      <trkpt lat="65.82404" lon="21.53236">
        <ele>47.939122</ele>
        <time>2020-09-22T13:17:09.438Z</time>
      </trkpt>
      <trkpt lat="65.82404" lon="21.53261">
        <ele>48.080582</ele>
        <time>2020-09-22T13:17:11.419Z</time>
      </trkpt>
      <trkpt lat="65.82405" lon="21.53285">
        <ele>48.254998</ele>
        <time>2020-09-22T13:17:13.414Z</time>
      </trkpt>
      <trkpt lat="65.82406" lon="21.53309">
        <ele>48.431588</ele>
        <time>2020-09-22T13:17:15.433Z</time>
      </trkpt>
      <trkpt lat="65.82407" lon="21.53334">
        <ele>48.612955</ele>
        <time>2020-09-22T13:17:17.433Z</time>
      </trkpt>
      <trkpt lat="65.82409" lon="21.53358">
        <ele>48.794842</ele>
        <time>2020-09-22T13:17:19.421Z</time>
      </trkpt>
      <trkpt lat="65.8241" lon="21.53383">
        <ele>48.975489</ele>
        <time>2020-09-22T13:17:21.470Z</time>
      </trkpt>
      <trkpt lat="65.82411" lon="21.53407">
        <ele>49.1524</ele>
        <time>2020-09-22T13:17:23.434Z</time>
      </trkpt>
      <trkpt lat="65.82413" lon="21.53432">
        <ele>49.332591</ele>
        <time>2020-09-22T13:17:25.439Z</time>
      </trkpt>
      <trkpt lat="65.82414" lon="21.53456">
        <ele>49.510116</ele>
        <time>2020-09-22T13:17:27.430Z</time>
      </trkpt>
      <trkpt lat="65.82415" lon="21.53482">
        <ele>49.698212</ele>
        <time>2020-09-22T13:17:29.417Z</time>
      </trkpt>
      <trkpt lat="65.82417" lon="21.53507">
        <ele>49.888998</ele>
        <time>2020-09-22T13:17:31.429Z</time>
      </trkpt>
      <trkpt lat="65.82419" lon="21.53531">
        <ele>50.06257</ele>
        <time>2020-09-22T13:17:33.446Z</time>
      </trkpt>
      <trkpt lat="65.8242" lon="21.53555">
        <ele>50.23721</ele>
        <time>2020-09-22T13:17:35.432Z</time>
      </trkpt>
      <trkpt lat="65.82422" lon="21.5358">
        <ele>50.425841</ele>
        <time>2020-09-22T13:17:37.428Z</time>
      </trkpt>
      <trkpt lat="65.82423" lon="21.53606">
        <ele>50.613037</ele>
        <time>2020-09-22T13:17:39.422Z</time>
      </trkpt>
      <trkpt lat="65.82425" lon="21.5363">
        <ele>50.789786</ele>
        <time>2020-09-22T13:17:41.450Z</time>
      </trkpt>
      <trkpt lat="65.82427" lon="21.53653">
        <ele>50.961182</ele>
        <time>2020-09-22T13:17:43.416Z</time>
      </trkpt>
      <trkpt lat="65.82429" lon="21.53675">
        <ele>51.130068</ele>
        <time>2020-09-22T13:17:45.440Z</time>
      </trkpt>
      <trkpt lat="65.82431" lon="21.53698">
        <ele>51.053191</ele>
        <time>2020-09-22T13:17:47.435Z</time>
      </trkpt>
      <trkpt lat="65.82432" lon="21.53721">
        <ele>50.964752</ele>
        <time>2020-09-22T13:17:49.424Z</time>
      </trkpt>
      <trkpt lat="65.82434" lon="21.53745">
        <ele>50.869319</ele>
        <time>2020-09-22T13:17:51.414Z</time>
      </trkpt>
      <trkpt lat="65.82437" lon="21.53769">
        <ele>50.775416</ele>
        <time>2020-09-22T13:17:53.423Z</time>
      </trkpt>
      <trkpt lat="65.8244" lon="21.53793">
        <ele>50.683209</ele>
        <time>2020-09-22T13:17:55.444Z</time>
      </trkpt>
      <trkpt lat="65.82443" lon="21.53817">
        <ele>50.585742</ele>
        <time>2020-09-22T13:17:57.457Z</time>
      </trkpt>
      <trkpt lat="65.82445" lon="21.53841">
        <ele>50.490132</ele>
        <time>2020-09-22T13:17:59.424Z</time>
      </trkpt>
      <trkpt lat="65.82448" lon="21.53865">
        <ele>50.394572</ele>
        <time>2020-09-22T13:18:01.434Z</time>
      </trkpt>
      <trkpt lat="65.82452" lon="21.53888">
        <ele>50.302332</ele>
        <time>2020-09-22T13:18:03.469Z</time>
      </trkpt>
      <trkpt lat="65.82454" lon="21.53912">
        <ele>50.207821</ele>
        <time>2020-09-22T13:18:05.443Z</time>
      </trkpt>
      <trkpt lat="65.82457" lon="21.53937">
        <ele>50.11233</ele>
        <time>2020-09-22T13:18:07.419Z</time>
      </trkpt>
      <trkpt lat="65.82461" lon="21.53961">
        <ele>50.014597</ele>
        <time>2020-09-22T13:18:09.444Z</time>
      </trkpt>
      <trkpt lat="65.82465" lon="21.53986">
        <ele>49.911261</ele>
        <time>2020-09-22T13:18:11.430Z</time>
      </trkpt>
      <trkpt lat="65.82468" lon="21.54011">
        <ele>49.811706</ele>
        <time>2020-09-22T13:18:13.445Z</time>
      </trkpt>
      <trkpt lat="65.82472" lon="21.54036">
        <ele>49.709766</ele>
        <time>2020-09-22T13:18:15.441Z</time>
      </trkpt>
      <trkpt lat="65.82476" lon="21.54061">
        <ele>49.607754</ele>
        <time>2020-09-22T13:18:17.446Z</time>
      </trkpt>
      <trkpt lat="65.8248" lon="21.54087">
        <ele>49.505426</ele>
        <time>2020-09-22T13:18:19.433Z</time>
      </trkpt>
      <trkpt lat="65.82483" lon="21.54113">
        <ele>49.182391</ele>
        <time>2020-09-22T13:18:21.453Z</time>
      </trkpt>
      <trkpt lat="65.82487" lon="21.54139">
        <ele>48.732975</ele>
        <time>2020-09-22T13:18:23.441Z</time>
      </trkpt>
      <trkpt lat="65.82491" lon="21.54164">
        <ele>48.301718</ele>
        <time>2020-09-22T13:18:25.427Z</time>
      </trkpt>
      <trkpt lat="65.82494" lon="21.54189">
        <ele>47.874127</ele>
        <time>2020-09-22T13:18:27.419Z</time>
      </trkpt>
      <trkpt lat="65.82497" lon="21.54216">
        <ele>47.428334</ele>
        <time>2020-09-22T13:18:29.434Z</time>
      </trkpt>
      <trkpt lat="65.825" lon="21.54242">
        <ele>46.985874</ele>
        <time>2020-09-22T13:18:31.438Z</time>
      </trkpt>
      <trkpt lat="65.82503" lon="21.54268">
        <ele>46.554877</ele>
        <time>2020-09-22T13:18:33.424Z</time>
      </trkpt>
      <trkpt lat="65.82506" lon="21.54293">
        <ele>46.12419</ele>
        <time>2020-09-22T13:18:35.467Z</time>
      </trkpt>
      <trkpt lat="65.82509" lon="21.54318">
        <ele>45.708207</ele>
        <time>2020-09-22T13:18:37.421Z</time>
      </trkpt>
      <trkpt lat="65.82513" lon="21.54342">
        <ele>45.28941</ele>
        <time>2020-09-22T13:18:39.412Z</time>
      </trkpt>
      <trkpt lat="65.82516" lon="21.54366">
        <ele>44.874773</ele>
        <time>2020-09-22T13:18:41.441Z</time>
      </trkpt>
      <trkpt lat="65.8252" lon="21.5439">
        <ele>44.457308</ele>
        <time>2020-09-22T13:18:43.430Z</time>
      </trkpt>
      <trkpt lat="65.82523" lon="21.54415">
        <ele>44.036783</ele>
        <time>2020-09-22T13:18:45.435Z</time>
      </trkpt>
      <trkpt lat="65.82526" lon="21.54439">
        <ele>43.622752</ele>
        <time>2020-09-22T13:18:47.453Z</time>
      </trkpt>
      <trkpt lat="65.8253" lon="21.54465">
        <ele>43.186594</ele>
        <time>2020-09-22T13:18:49.450Z</time>
      </trkpt>
      <trkpt lat="65.82533" lon="21.54489">
        <ele>42.762013</ele>
        <time>2020-09-22T13:18:51.444Z</time>
      </trkpt>
      <trkpt lat="65.82537" lon="21.54514">
        <ele>42.356497</ele>
        <time>2020-09-22T13:18:53.430Z</time>
      </trkpt>
      <trkpt lat="65.8254" lon="21.54539">
        <ele>42.538988</ele>
        <time>2020-09-22T13:18:55.460Z</time>
      </trkpt>
      <trkpt lat="65.82543" lon="21.54563">
        <ele>42.721982</ele>
        <time>2020-09-22T13:18:57.419Z</time>
      </trkpt>
      <trkpt lat="65.82546" lon="21.54588">
        <ele>42.902828</ele>
        <time>2020-09-22T13:18:59.424Z</time>
      </trkpt>
      <trkpt lat="65.82549" lon="21.54612">
        <ele>43.077958</ele>
        <time>2020-09-22T13:19:01.428Z</time>
      </trkpt>
      <trkpt lat="65.82551" lon="21.54635">
        <ele>43.252225</ele>
        <time>2020-09-22T13:19:03.424Z</time>
      </trkpt>
      <trkpt lat="65.82553" lon="21.54659">
        <ele>43.424997</ele>
        <time>2020-09-22T13:19:05.420Z</time>
      </trkpt>
      <trkpt lat="65.82555" lon="21.54682">
        <ele>43.59321</ele>
        <time>2020-09-22T13:19:07.423Z</time>
      </trkpt>
      <trkpt lat="65.82556" lon="21.54706">
        <ele>43.765982</ele>
        <time>2020-09-22T13:19:09.424Z</time>
      </trkpt>
      <trkpt lat="65.82558" lon="21.54731">
        <ele>43.940217</ele>
        <time>2020-09-22T13:19:11.445Z</time>
      </trkpt>
      <trkpt lat="65.82559" lon="21.54755">
        <ele>44.112573</ele>
        <time>2020-09-22T13:19:13.451Z</time>
      </trkpt>
      <trkpt lat="65.8256" lon="21.54779">
        <ele>44.284474</ele>
        <time>2020-09-22T13:19:15.424Z</time>
      </trkpt>
      <trkpt lat="65.82562" lon="21.54803">
        <ele>44.461316</ele>
        <time>2020-09-22T13:19:17.437Z</time>
      </trkpt>
      <trkpt lat="65.82563" lon="21.54829">
        <ele>44.641897</ele>
        <time>2020-09-22T13:19:19.465Z</time>
      </trkpt>
      <trkpt lat="65.82565" lon="21.54853">
        <ele>44.822302</ele>
        <time>2020-09-22T13:19:21.433Z</time>
      </trkpt>
      <trkpt lat="65.82567" lon="21.54879">
        <ele>45.004872</ele>
        <time>2020-09-22T13:19:23.476Z</time>
      </trkpt>
      <trkpt lat="65.82569" lon="21.54904">
        <ele>45.185283</ele>
        <time>2020-09-22T13:19:25.422Z</time>
      </trkpt>
      <trkpt lat="65.8257" lon="21.54929">
        <ele>45.370805</ele>
        <time>2020-09-22T13:19:27.435Z</time>
      </trkpt>
      <trkpt lat="65.82572" lon="21.54955">
        <ele>45.53762</ele>
        <time>2020-09-22T13:19:29.445Z</time>
      </trkpt>
      <trkpt lat="65.82574" lon="21.54981">
        <ele>45.685211</ele>
        <time>2020-09-22T13:19:31.435Z</time>
      </trkpt>
      <trkpt lat="65.82576" lon="21.55007">
        <ele>45.827935</ele>
        <time>2020-09-22T13:19:33.434Z</time>
      </trkpt>
      <trkpt lat="65.82578" lon="21.55033">
        <ele>45.976119</ele>
        <time>2020-09-22T13:19:35.436Z</time>
      </trkpt>
      <trkpt lat="65.8258" lon="21.5506">
        <ele>46.127359</ele>
        <time>2020-09-22T13:19:37.460Z</time>
      </trkpt>
      <trkpt lat="65.82581" lon="21.55087">
        <ele>46.278186</ele>
        <time>2020-09-22T13:19:39.448Z</time>
      </trkpt>
      <trkpt lat="65.82583" lon="21.55114">
        <ele>46.429761</ele>
        <time>2020-09-22T13:19:41.442Z</time>
      </trkpt>
      <trkpt lat="65.82585" lon="21.5514">
        <ele>46.579824</ele>
        <time>2020-09-22T13:19:43.446Z</time>
      </trkpt>
      <trkpt lat="65.82587" lon="21.55167">
        <ele>46.728657</ele>
        <time>2020-09-22T13:19:45.426Z</time>
      </trkpt>
      <trkpt lat="65.82589" lon="21.55192">
        <ele>46.872176</ele>
        <time>2020-09-22T13:19:47.429Z</time>
      </trkpt>
      <trkpt lat="65.8259" lon="21.55217">
        <ele>47.012245</ele>
        <time>2020-09-22T13:19:49.420Z</time>
      </trkpt>
      <trkpt lat="65.82592" lon="21.55241">
        <ele>47.148053</ele>
        <time>2020-09-22T13:19:51.432Z</time>
      </trkpt>
      <trkpt lat="65.82593" lon="21.55266">
        <ele>47.284427</ele>
        <time>2020-09-22T13:19:53.437Z</time>
      </trkpt>
      <trkpt lat="65.82593" lon="21.55291">
        <ele>47.427035</ele>
        <time>2020-09-22T13:19:55.424Z</time>
      </trkpt>
      <trkpt lat="65.82592" lon="21.55318">
        <ele>47.575803</ele>
        <time>2020-09-22T13:19:57.445Z</time>
      </trkpt>
      <trkpt lat="65.8259" lon="21.55345">
        <ele>47.724852</ele>
        <time>2020-09-22T13:19:59.458Z</time>
      </trkpt>
      <trkpt lat="65.82587" lon="21.55371">
        <ele>47.874735</ele>
        <time>2020-09-22T13:20:01.418Z</time>
      </trkpt>
      <trkpt lat="65.82582" lon="21.55394">
        <ele>47.981917</ele>
        <time>2020-09-22T13:20:03.452Z</time>
      </trkpt>
      <trkpt lat="65.82577" lon="21.55416">
        <ele>48.076137</ele>
        <time>2020-09-22T13:20:05.436Z</time>
      </trkpt>
      <trkpt lat="65.82571" lon="21.55436">
        <ele>48.168206</ele>
        <time>2020-09-22T13:20:07.432Z</time>
      </trkpt>
      <trkpt lat="65.82564" lon="21.55454">
        <ele>48.259438</ele>
        <time>2020-09-22T13:20:09.425Z</time>
      </trkpt>
      <trkpt lat="65.82557" lon="21.5547">
        <ele>48.3485</ele>
        <time>2020-09-22T13:20:11.452Z</time>
      </trkpt>
      <trkpt lat="65.82549" lon="21.55485">
        <ele>48.438045</ele>
        <time>2020-09-22T13:20:13.432Z</time>
      </trkpt>
      <trkpt lat="65.8254" lon="21.55499">
        <ele>48.529538</ele>
        <time>2020-09-22T13:20:15.425Z</time>
      </trkpt>
      <trkpt lat="65.82532" lon="21.55513">
        <ele>48.620066</ele>
        <time>2020-09-22T13:20:17.443Z</time>
      </trkpt>
      <trkpt lat="65.82524" lon="21.55526">
        <ele>48.708816</ele>
        <time>2020-09-22T13:20:19.439Z</time>
      </trkpt>
      <trkpt lat="65.82516" lon="21.55538">
        <ele>48.790771</ele>
        <time>2020-09-22T13:20:21.415Z</time>
      </trkpt>
      <trkpt lat="65.82505" lon="21.55555">
        <ele>48.910237</ele>
        <time>2020-09-22T13:20:24.432Z</time>
      </trkpt>
      <trkpt lat="65.82497" lon="21.55567">
        <ele>48.996428</ele>
        <time>2020-09-22T13:20:26.441Z</time>
      </trkpt>
      <trkpt lat="65.82487" lon="21.55581">
        <ele>49.096465</ele>
        <time>2020-09-22T13:20:29.410Z</time>
      </trkpt>
      <trkpt lat="65.8248" lon="21.55592">
        <ele>49.177648</ele>
        <time>2020-09-22T13:20:32.427Z</time>
      </trkpt>
      <trkpt lat="65.82471" lon="21.55606">
        <ele>49.269227</ele>
        <time>2020-09-22T13:20:36.434Z</time>
      </trkpt>
      <trkpt lat="65.82463" lon="21.55617">
        <ele>49.350806</ele>
        <time>2020-09-22T13:20:40.460Z</time>
      </trkpt>
      <trkpt lat="65.82454" lon="21.5563">
        <ele>49.444879</ele>
        <time>2020-09-22T13:20:45.438Z</time>
      </trkpt>
      <trkpt lat="65.82445" lon="21.55644">
        <ele>49.535442</ele>
        <time>2020-09-22T13:20:50.420Z</time>
      </trkpt>
      <trkpt lat="65.82437" lon="21.55656">
        <ele>49.558315</ele>
        <time>2020-09-22T13:20:54.421Z</time>
      </trkpt>
      <trkpt lat="65.82429" lon="21.55668">
        <ele>49.581775</ele>
        <time>2020-09-22T13:20:58.432Z</time>
      </trkpt>
      <trkpt lat="65.8242" lon="21.5568">
        <ele>49.60695</ele>
        <time>2020-09-22T13:21:02.464Z</time>
      </trkpt>
      <trkpt lat="65.82411" lon="21.55693">
        <ele>49.633232</ele>
        <time>2020-09-22T13:21:06.423Z</time>
      </trkpt>
      <trkpt lat="65.82402" lon="21.55708">
        <ele>49.660848</ele>
        <time>2020-09-22T13:21:10.432Z</time>
      </trkpt>
      <trkpt lat="65.82394" lon="21.55721">
        <ele>49.684537</ele>
        <time>2020-09-22T13:21:13.439Z</time>
      </trkpt>
      <trkpt lat="65.82385" lon="21.55736">
        <ele>49.711586</ele>
        <time>2020-09-22T13:21:16.437Z</time>
      </trkpt>
      <trkpt lat="65.82375" lon="21.55752">
        <ele>49.741237</ele>
        <time>2020-09-22T13:21:19.460Z</time>
      </trkpt>
      <trkpt lat="65.82364" lon="21.5577">
        <ele>49.774549</ele>
        <time>2020-09-22T13:21:22.434Z</time>
      </trkpt>
      <trkpt lat="65.82356" lon="21.55783">
        <ele>49.797418</ele>
        <time>2020-09-22T13:21:24.429Z</time>
      </trkpt>
      <trkpt lat="65.82349" lon="21.55796">
        <ele>49.821192</ele>
        <time>2020-09-22T13:21:26.432Z</time>
      </trkpt>
      <trkpt lat="65.82341" lon="21.55811">
        <ele>49.84511</ele>
        <time>2020-09-22T13:21:28.441Z</time>
      </trkpt>
      <trkpt lat="65.82333" lon="21.55826">
        <ele>49.869665</ele>
        <time>2020-09-22T13:21:30.433Z</time>
      </trkpt>
      <trkpt lat="65.82326" lon="21.55841">
        <ele>49.894347</ele>
        <time>2020-09-22T13:21:32.435Z</time>
      </trkpt>
      <trkpt lat="65.82317" lon="21.55855">
        <ele>49.919788</ele>
        <time>2020-09-22T13:21:34.440Z</time>
      </trkpt>
      <trkpt lat="65.82308" lon="21.55871">
        <ele>49.946956</ele>
        <time>2020-09-22T13:21:36.461Z</time>
      </trkpt>
      <trkpt lat="65.82299" lon="21.55887">
        <ele>49.974588</ele>
        <time>2020-09-22T13:21:38.423Z</time>
      </trkpt>
      <trkpt lat="65.8229" lon="21.55903">
        <ele>49.867149</ele>
        <time>2020-09-22T13:21:40.430Z</time>
      </trkpt>
      <trkpt lat="65.82282" lon="21.55919">
        <ele>49.732454</ele>
        <time>2020-09-22T13:21:42.442Z</time>
      </trkpt>
      <trkpt lat="65.82274" lon="21.55933">
        <ele>49.607703</ele>
        <time>2020-09-22T13:21:44.421Z</time>
      </trkpt>
      <trkpt lat="65.82265" lon="21.55947">
        <ele>49.480893</ele>
        <time>2020-09-22T13:21:46.461Z</time>
      </trkpt>
      <trkpt lat="65.82256" lon="21.55962">
        <ele>49.343904</ele>
        <time>2020-09-22T13:21:48.418Z</time>
      </trkpt>
      <trkpt lat="65.82247" lon="21.55976">
        <ele>49.210971</ele>
        <time>2020-09-22T13:21:50.459Z</time>
      </trkpt>
      <trkpt lat="65.82239" lon="21.55991">
        <ele>49.081423</ele>
        <time>2020-09-22T13:21:52.474Z</time>
      </trkpt>
      <trkpt lat="65.8223" lon="21.56004">
        <ele>48.957533</ele>
        <time>2020-09-22T13:21:54.464Z</time>
      </trkpt>
      <trkpt lat="65.82222" lon="21.56018">
        <ele>48.838197</ele>
        <time>2020-09-22T13:21:56.455Z</time>
      </trkpt>
      <trkpt lat="65.82215" lon="21.56031">
        <ele>48.720325</ele>
        <time>2020-09-22T13:21:58.463Z</time>
      </trkpt>
      <trkpt lat="65.82207" lon="21.56044">
        <ele>48.605806</ele>
        <time>2020-09-22T13:22:00.423Z</time>
      </trkpt>
      <trkpt lat="65.822" lon="21.56057">
        <ele>48.494386</ele>
        <time>2020-09-22T13:22:02.437Z</time>
      </trkpt>
      <trkpt lat="65.82189" lon="21.56074">
        <ele>48.334706</ele>
        <time>2020-09-22T13:22:05.500Z</time>
      </trkpt>
      <trkpt lat="65.82178" lon="21.56088">
        <ele>48.178083</ele>
        <time>2020-09-22T13:22:08.428Z</time>
      </trkpt>
      <trkpt lat="65.82167" lon="21.56105">
        <ele>48.019416</ele>
        <time>2020-09-22T13:22:11.442Z</time>
      </trkpt>
      <trkpt lat="65.82157" lon="21.56123">
        <ele>47.865073</ele>
        <time>2020-09-22T13:22:14.440Z</time>
      </trkpt>
      <trkpt lat="65.82147" lon="21.56139">
        <ele>47.787928</ele>
        <time>2020-09-22T13:22:17.424Z</time>
      </trkpt>
      <trkpt lat="65.82137" lon="21.56156">
        <ele>48.056185</ele>
        <time>2020-09-22T13:22:20.457Z</time>
      </trkpt>
      <trkpt lat="65.82128" lon="21.56172">
        <ele>48.323726</ele>
        <time>2020-09-22T13:22:23.417Z</time>
      </trkpt>
      <trkpt lat="65.82118" lon="21.56187">
        <ele>48.575777</ele>
        <time>2020-09-22T13:22:26.431Z</time>
      </trkpt>
      <trkpt lat="65.82109" lon="21.56203">
        <ele>48.82358</ele>
        <time>2020-09-22T13:22:29.441Z</time>
      </trkpt>
      <trkpt lat="65.82101" lon="21.56218">
        <ele>49.069188</ele>
        <time>2020-09-22T13:22:32.431Z</time>
      </trkpt>
      <trkpt lat="65.82092" lon="21.56234">
        <ele>49.31007</ele>
        <time>2020-09-22T13:22:35.451Z</time>
      </trkpt>
      <trkpt lat="65.82083" lon="21.56249">
        <ele>49.55277</ele>
        <time>2020-09-22T13:22:38.450Z</time>
      </trkpt>
      <trkpt lat="65.82074" lon="21.56264">
        <ele>49.793882</ele>
        <time>2020-09-22T13:22:41.426Z</time>
      </trkpt>
      <trkpt lat="65.82065" lon="21.56278">
        <ele>50.034799</ele>
        <time>2020-09-22T13:22:44.432Z</time>
      </trkpt>
      <trkpt lat="65.82056" lon="21.56293">
        <ele>50.280883</ele>
        <time>2020-09-22T13:22:47.422Z</time>
      </trkpt>
      <trkpt lat="65.82047" lon="21.56307">
        <ele>50.525757</ele>
        <time>2020-09-22T13:22:50.417Z</time>
      </trkpt>
      <trkpt lat="65.82038" lon="21.56321">
        <ele>50.774367</ele>
        <time>2020-09-22T13:22:53.420Z</time>
      </trkpt>
      <trkpt lat="65.82029" lon="21.56336">
        <ele>51.022138</ele>
        <time>2020-09-22T13:22:56.430Z</time>
      </trkpt>
      <trkpt lat="65.8202" lon="21.56351">
        <ele>51.266151</ele>
        <time>2020-09-22T13:22:59.476Z</time>
      </trkpt>
      <trkpt lat="65.82011" lon="21.56366">
        <ele>51.503425</ele>
        <time>2020-09-22T13:23:02.472Z</time>
      </trkpt>
      <trkpt lat="65.82002" lon="21.56381">
        <ele>51.749825</ele>
        <time>2020-09-22T13:23:05.451Z</time>
      </trkpt>
      <trkpt lat="65.81992" lon="21.56396">
        <ele>51.91549</ele>
        <time>2020-09-22T13:23:08.418Z</time>
      </trkpt>
      <trkpt lat="65.81983" lon="21.56412">
        <ele>52.069566</ele>
        <time>2020-09-22T13:23:11.448Z</time>
      </trkpt>
      <trkpt lat="65.81973" lon="21.56428">
        <ele>52.218317</ele>
        <time>2020-09-22T13:23:14.442Z</time>
      </trkpt>
      <trkpt lat="65.81964" lon="21.56443">
        <ele>52.364384</ele>
        <time>2020-09-22T13:23:17.416Z</time>
      </trkpt>
      <trkpt lat="65.81955" lon="21.56459">
        <ele>52.512229</ele>
        <time>2020-09-22T13:23:20.445Z</time>
      </trkpt>
      <trkpt lat="65.81945" lon="21.56474">
        <ele>52.657806</ele>
        <time>2020-09-22T13:23:23.418Z</time>
      </trkpt>
      <trkpt lat="65.81936" lon="21.5649">
        <ele>52.807505</ele>
        <time>2020-09-22T13:23:26.432Z</time>
      </trkpt>
      <trkpt lat="65.81926" lon="21.56506">
        <ele>52.955954</ele>
        <time>2020-09-22T13:23:29.432Z</time>
      </trkpt>
      <trkpt lat="65.81918" lon="21.56523">
        <ele>53.099618</ele>
        <time>2020-09-22T13:23:32.442Z</time>
      </trkpt>
      <trkpt lat="65.81909" lon="21.56538">
        <ele>53.240918</ele>
        <time>2020-09-22T13:23:35.424Z</time>
      </trkpt>
      <trkpt lat="65.819" lon="21.56554">
        <ele>53.375867</ele>
        <time>2020-09-22T13:23:38.424Z</time>
      </trkpt>
      <trkpt lat="65.81892" lon="21.56568">
        <ele>53.509412</ele>
        <time>2020-09-22T13:23:41.460Z</time>
      </trkpt>
      <trkpt lat="65.81884" lon="21.56581">
        <ele>53.635354</ele>
        <time>2020-09-22T13:23:44.437Z</time>
      </trkpt>
      <trkpt lat="65.81876" lon="21.56595">
        <ele>53.760227</ele>
        <time>2020-09-22T13:23:47.417Z</time>
      </trkpt>
      <trkpt lat="65.81868" lon="21.56608">
        <ele>53.890714</ele>
        <time>2020-09-22T13:23:50.429Z</time>
      </trkpt>
      <trkpt lat="65.81859" lon="21.56621">
        <ele>54.019253</ele>
        <time>2020-09-22T13:23:53.399Z</time>
      </trkpt>
      <trkpt lat="65.81851" lon="21.56634">
        <ele>54.1606</ele>
        <time>2020-09-22T13:23:56.430Z</time>
      </trkpt>
      <trkpt lat="65.81843" lon="21.56647">
        <ele>54.399093</ele>
        <time>2020-09-22T13:23:59.452Z</time>
      </trkpt>
      <trkpt lat="65.81835" lon="21.56661">
        <ele>54.637587</ele>
        <time>2020-09-22T13:24:02.418Z</time>
      </trkpt>
      <trkpt lat="65.81827" lon="21.56673">
        <ele>54.87416</ele>
        <time>2020-09-22T13:24:05.430Z</time>
      </trkpt>
      <trkpt lat="65.8182" lon="21.56686">
        <ele>55.107392</ele>
        <time>2020-09-22T13:24:08.427Z</time>
      </trkpt>
      <trkpt lat="65.81811" lon="21.56699">
        <ele>55.354936</ele>
        <time>2020-09-22T13:24:11.452Z</time>
      </trkpt>
      <trkpt lat="65.81804" lon="21.56713">
        <ele>55.597537</ele>
        <time>2020-09-22T13:24:14.431Z</time>
      </trkpt>
      <trkpt lat="65.81796" lon="21.56726">
        <ele>55.834165</ele>
        <time>2020-09-22T13:24:17.444Z</time>
      </trkpt>
      <trkpt lat="65.81788" lon="21.56739">
        <ele>56.06391</ele>
        <time>2020-09-22T13:24:20.434Z</time>
      </trkpt>
      <trkpt lat="65.8178" lon="21.56752">
        <ele>56.315983</ele>
        <time>2020-09-22T13:24:23.416Z</time>
      </trkpt>
      <trkpt lat="65.81772" lon="21.56765">
        <ele>56.553719</ele>
        <time>2020-09-22T13:24:26.418Z</time>
      </trkpt>
      <trkpt lat="65.81764" lon="21.56779">
        <ele>56.800134</ele>
        <time>2020-09-22T13:24:29.418Z</time>
      </trkpt>
      <trkpt lat="65.81755" lon="21.56793">
        <ele>57.052049</ele>
        <time>2020-09-22T13:24:32.460Z</time>
      </trkpt>
      <trkpt lat="65.81747" lon="21.56807">
        <ele>57.291703</ele>
        <time>2020-09-22T13:24:35.421Z</time>
      </trkpt>
      <trkpt lat="65.8174" lon="21.56821">
        <ele>57.531501</ele>
        <time>2020-09-22T13:24:38.456Z</time>
      </trkpt>
      <trkpt lat="65.81733" lon="21.56837">
        <ele>57.763578</ele>
        <time>2020-09-22T13:24:41.438Z</time>
      </trkpt>
      <trkpt lat="65.81725" lon="21.5685">
        <ele>58.005284</ele>
        <time>2020-09-22T13:24:44.441Z</time>
      </trkpt>
      <trkpt lat="65.81716" lon="21.56861">
        <ele>58.24957</ele>
        <time>2020-09-22T13:24:47.432Z</time>
      </trkpt>
      <trkpt lat="65.81708" lon="21.56871">
        <ele>58.476131</ele>
        <time>2020-09-22T13:24:50.441Z</time>
      </trkpt>
      <trkpt lat="65.817" lon="21.56884">
        <ele>58.930497</ele>
        <time>2020-09-22T13:24:53.445Z</time>
      </trkpt>
      <trkpt lat="65.81692" lon="21.56902">
        <ele>59.851013</ele>
        <time>2020-09-22T13:24:57.429Z</time>
      </trkpt>
      <trkpt lat="65.81688" lon="21.56926">
        <ele>60.687925</ele>
        <time>2020-09-22T13:25:01.428Z</time>
      </trkpt>
      <trkpt lat="65.81694" lon="21.56949">
        <ele>61.60085</ele>
        <time>2020-09-22T13:25:05.452Z</time>
      </trkpt>
      <trkpt lat="65.81703" lon="21.56967">
        <ele>62.535436</ele>
        <time>2020-09-22T13:25:09.437Z</time>
      </trkpt>
      <trkpt lat="65.81705" lon="21.5699">
        <ele>63.303483</ele>
        <time>2020-09-22T13:25:12.457Z</time>
      </trkpt>
      <trkpt lat="65.81705" lon="21.57013">
        <ele>64.060255</ele>
        <time>2020-09-22T13:25:15.442Z</time>
      </trkpt>
      <trkpt lat="65.81705" lon="21.57037">
        <ele>64.856335</ele>
        <time>2020-09-22T13:25:20.458Z</time>
      </trkpt>
      <trkpt lat="65.81705" lon="21.5706">
        <ele>65.584285</ele>
        <time>2020-09-22T13:25:25.429Z</time>
      </trkpt>
      <trkpt lat="65.81705" lon="21.57083">
        <ele>66.348236</ele>
        <time>2020-09-22T13:25:30.421Z</time>
      </trkpt>
      <trkpt lat="65.81704" lon="21.57107">
        <ele>67.138089</ele>
        <time>2020-09-22T13:25:35.434Z</time>
      </trkpt>
      <trkpt lat="65.81703" lon="21.57133">
        <ele>67.989638</ele>
        <time>2020-09-22T13:25:40.420Z</time>
      </trkpt>
      <trkpt lat="65.81702" lon="21.57158">
        <ele>68.822718</ele>
        <time>2020-09-22T13:25:45.459Z</time>
      </trkpt>
      <trkpt lat="65.81699" lon="21.57182">
        <ele>69.656467</ele>
        <time>2020-09-22T13:25:51.416Z</time>
      </trkpt>
      <trkpt lat="65.81695" lon="21.57204">
        <ele>70.44175</ele>
        <time>2020-09-22T13:25:57.431Z</time>
      </trkpt>
      <trkpt lat="65.81689" lon="21.57223">
        <ele>71.201993</ele>
        <time>2020-09-22T13:26:02.422Z</time>
      </trkpt>
      <trkpt lat="65.81682" lon="21.57243">
        <ele>72.051355</ele>
        <time>2020-09-22T13:26:07.433Z</time>
      </trkpt>
      <trkpt lat="65.81676" lon="21.57265">
        <ele>72.927054</ele>
        <time>2020-09-22T13:26:12.442Z</time>
      </trkpt>
      <trkpt lat="65.81672" lon="21.57289">
        <ele>73.156152</ele>
        <time>2020-09-22T13:26:17.434Z</time>
      </trkpt>
      <trkpt lat="65.81669" lon="21.57316">
        <ele>73.332809</ele>
        <time>2020-09-22T13:26:22.438Z</time>
      </trkpt>
      <trkpt lat="65.81668" lon="21.57341">
        <ele>73.501409</ele>
        <time>2020-09-22T13:26:27.473Z</time>
      </trkpt>
      <trkpt lat="65.81666" lon="21.57365">
        <ele>73.666421</ele>
        <time>2020-09-22T13:26:31.425Z</time>
      </trkpt>
      <trkpt lat="65.81665" lon="21.57389">
        <ele>73.824452</ele>
        <time>2020-09-22T13:26:34.429Z</time>
      </trkpt>
      <trkpt lat="65.81663" lon="21.57416">
        <ele>74.003344</ele>
        <time>2020-09-22T13:26:37.424Z</time>
      </trkpt>
      <trkpt lat="65.81661" lon="21.57441">
        <ele>74.174397</ele>
        <time>2020-09-22T13:26:40.449Z</time>
      </trkpt>
      <trkpt lat="65.8166" lon="21.57467">
        <ele>74.341316</ele>
        <time>2020-09-22T13:26:43.434Z</time>
      </trkpt>
      <trkpt lat="65.81658" lon="21.57491">
        <ele>74.50342</ele>
        <time>2020-09-22T13:26:46.447Z</time>
      </trkpt>
      <trkpt lat="65.81656" lon="21.5752">
        <ele>74.700478</ele>
        <time>2020-09-22T13:26:49.422Z</time>
      </trkpt>
      <trkpt lat="65.81654" lon="21.57549">
        <ele>74.893984</ele>
        <time>2020-09-22T13:26:52.423Z</time>
      </trkpt>
      <trkpt lat="65.81652" lon="21.57575">
        <ele>75.071619</ele>
        <time>2020-09-22T13:26:55.436Z</time>
      </trkpt>
      <trkpt lat="65.8165" lon="21.57599">
        <ele>75.232132</ele>
        <time>2020-09-22T13:26:58.420Z</time>
      </trkpt>
      <trkpt lat="65.81648" lon="21.57625">
        <ele>75.404586</ele>
        <time>2020-09-22T13:27:01.413Z</time>
      </trkpt>
      <trkpt lat="65.81646" lon="21.57648">
        <ele>75.563897</ele>
        <time>2020-09-22T13:27:04.427Z</time>
      </trkpt>
      <trkpt lat="65.81644" lon="21.5767">
        <ele>75.711821</ele>
        <time>2020-09-22T13:27:07.440Z</time>
      </trkpt>
      <trkpt lat="65.81642" lon="21.57692">
        <ele>75.857755</ele>
        <time>2020-09-22T13:27:10.438Z</time>
      </trkpt>
      <trkpt lat="65.8164" lon="21.57715">
        <ele>75.903643</ele>
        <time>2020-09-22T13:27:13.439Z</time>
      </trkpt>
      <trkpt lat="65.81638" lon="21.57738">
        <ele>75.917387</ele>
        <time>2020-09-22T13:27:16.432Z</time>
      </trkpt>
      <trkpt lat="65.81636" lon="21.5776">
        <ele>75.930591</ele>
        <time>2020-09-22T13:27:19.466Z</time>
      </trkpt>
      <trkpt lat="65.81633" lon="21.57783">
        <ele>75.944328</ele>
        <time>2020-09-22T13:27:22.430Z</time>
      </trkpt>
      <trkpt lat="65.81631" lon="21.57807">
        <ele>75.958849</ele>
        <time>2020-09-22T13:27:25.438Z</time>
      </trkpt>
      <trkpt lat="65.8163" lon="21.57832">
        <ele>75.973222</ele>
        <time>2020-09-22T13:27:28.420Z</time>
      </trkpt>
      <trkpt lat="65.81628" lon="21.57858">
        <ele>75.988581</ele>
        <time>2020-09-22T13:27:31.414Z</time>
      </trkpt>
      <trkpt lat="65.81626" lon="21.57883">
        <ele>76.003383</ele>
        <time>2020-09-22T13:27:34.436Z</time>
      </trkpt>
      <trkpt lat="65.81624" lon="21.57905">
        <ele>76.016991</ele>
        <time>2020-09-22T13:27:37.428Z</time>
      </trkpt>
      <trkpt lat="65.81622" lon="21.57933">
        <ele>76.033622</ele>
        <time>2020-09-22T13:27:41.472Z</time>
      </trkpt>
      <trkpt lat="65.8162" lon="21.57957">
        <ele>76.047852</ele>
        <time>2020-09-22T13:27:44.450Z</time>
      </trkpt>
      <trkpt lat="65.81618" lon="21.57983">
        <ele>76.063421</ele>
        <time>2020-09-22T13:27:47.428Z</time>
      </trkpt>
      <trkpt lat="65.81616" lon="21.58012">
        <ele>76.080519</ele>
        <time>2020-09-22T13:27:50.423Z</time>
      </trkpt>
      <trkpt lat="65.81613" lon="21.58038">
        <ele>76.096204</ele>
        <time>2020-09-22T13:27:53.442Z</time>
      </trkpt>
      <trkpt lat="65.81611" lon="21.58064">
        <ele>76.11172</ele>
        <time>2020-09-22T13:27:56.417Z</time>
      </trkpt>
      <trkpt lat="65.81609" lon="21.58088">
        <ele>76.125699</ele>
        <time>2020-09-22T13:27:59.449Z</time>
      </trkpt>
      <trkpt lat="65.81607" lon="21.58113">
        <ele>76.14053</ele>
        <time>2020-09-22T13:28:02.435Z</time>
      </trkpt>
      <trkpt lat="65.81605" lon="21.58141">
        <ele>75.973206</ele>
        <time>2020-09-22T13:28:05.414Z</time>
      </trkpt>
      <trkpt lat="65.81605" lon="21.58169">
        <ele>75.615041</ele>
        <time>2020-09-22T13:28:08.429Z</time>
      </trkpt>
      <trkpt lat="65.81608" lon="21.5819">
        <ele>75.338272</ele>
        <time>2020-09-22T13:28:10.435Z</time>
      </trkpt>
      <trkpt lat="65.81616" lon="21.58213">
        <ele>74.968188</ele>
        <time>2020-09-22T13:28:13.443Z</time>
      </trkpt>
      <trkpt lat="65.81621" lon="21.58233">
        <ele>74.666106</ele>
        <time>2020-09-22T13:28:16.494Z</time>
      </trkpt>
      <trkpt lat="65.81627" lon="21.58256">
        <ele>74.328586</ele>
        <time>2020-09-22T13:28:19.438Z</time>
      </trkpt>
      <trkpt lat="65.81634" lon="21.58279">
        <ele>73.950906</ele>
        <time>2020-09-22T13:28:22.434Z</time>
      </trkpt>
      <trkpt lat="65.81641" lon="21.58303">
        <ele>73.595027</ele>
        <time>2020-09-22T13:28:25.461Z</time>
      </trkpt>
      <trkpt lat="65.81647" lon="21.58329">
        <ele>73.219788</ele>
        <time>2020-09-22T13:28:28.423Z</time>
      </trkpt>
      <trkpt lat="65.81652" lon="21.58348">
        <ele>72.930724</ele>
        <time>2020-09-22T13:28:30.421Z</time>
      </trkpt>
      <trkpt lat="65.81657" lon="21.58369">
        <ele>72.634667</ele>
        <time>2020-09-22T13:28:32.432Z</time>
      </trkpt>
      <trkpt lat="65.81662" lon="21.58396">
        <ele>72.256274</ele>
        <time>2020-09-22T13:28:35.440Z</time>
      </trkpt>
      <trkpt lat="65.81667" lon="21.58422">
        <ele>71.89764</ele>
        <time>2020-09-22T13:28:38.454Z</time>
      </trkpt>
      <trkpt lat="65.81672" lon="21.58449">
        <ele>71.518495</ele>
        <time>2020-09-22T13:28:41.474Z</time>
      </trkpt>
      <trkpt lat="65.81679" lon="21.58478">
        <ele>71.098621</ele>
        <time>2020-09-22T13:28:44.461Z</time>
      </trkpt>
      <trkpt lat="65.81683" lon="21.585">
        <ele>70.781234</ele>
        <time>2020-09-22T13:28:46.419Z</time>
      </trkpt>
      <trkpt lat="65.81687" lon="21.58522">
        <ele>70.590344</ele>
        <time>2020-09-22T13:28:48.442Z</time>
      </trkpt>
      <trkpt lat="65.8169" lon="21.58542">
        <ele>70.543859</ele>
        <time>2020-09-22T13:28:50.493Z</time>
      </trkpt>
      <trkpt lat="65.81696" lon="21.58568">
        <ele>70.482313</ele>
        <time>2020-09-22T13:28:53.428Z</time>
      </trkpt>
      <trkpt lat="65.81703" lon="21.58593">
        <ele>70.417357</ele>
        <time>2020-09-22T13:28:57.451Z</time>
      </trkpt>
      <trkpt lat="65.81713" lon="21.58615">
        <ele>70.351087</ele>
        <time>2020-09-22T13:29:00.435Z</time>
      </trkpt>
      <trkpt lat="65.8172" lon="21.58632">
        <ele>70.30111</ele>
        <time>2020-09-22T13:29:02.426Z</time>
      </trkpt>
      <trkpt lat="65.81726" lon="21.5865">
        <ele>70.249633</ele>
        <time>2020-09-22T13:29:04.423Z</time>
      </trkpt>
      <trkpt lat="65.81733" lon="21.58668">
        <ele>70.197185</ele>
        <time>2020-09-22T13:29:06.432Z</time>
      </trkpt>
      <trkpt lat="65.81739" lon="21.58689">
        <ele>70.144379</ele>
        <time>2020-09-22T13:29:08.438Z</time>
      </trkpt>
      <trkpt lat="65.81741" lon="21.58715">
        <ele>70.088558</ele>
        <time>2020-09-22T13:29:10.429Z</time>
      </trkpt>
      <trkpt lat="65.8174" lon="21.58738">
        <ele>70.039957</ele>
        <time>2020-09-22T13:29:12.438Z</time>
      </trkpt>
      <trkpt lat="65.81742" lon="21.58768">
        <ele>69.975345</ele>
        <time>2020-09-22T13:29:14.431Z</time>
      </trkpt>
      <trkpt lat="65.81744" lon="21.58802">
        <ele>69.904251</ele>
        <time>2020-09-22T13:29:16.465Z</time>
      </trkpt>
      <trkpt lat="65.81747" lon="21.58831">
        <ele>69.841213</ele>
        <time>2020-09-22T13:29:18.430Z</time>
      </trkpt>
      <trkpt lat="65.81751" lon="21.58855">
        <ele>69.786148</ele>
        <time>2020-09-22T13:29:20.456Z</time>
      </trkpt>
      <trkpt lat="65.81757" lon="21.5888">
        <ele>69.724718</ele>
        <time>2020-09-22T13:29:23.434Z</time>
      </trkpt>
      <trkpt lat="65.81761" lon="21.58903">
        <ele>69.659834</ele>
        <time>2020-09-22T13:29:26.431Z</time>
      </trkpt>
      <trkpt lat="65.81765" lon="21.58926">
        <ele>69.562193</ele>
        <time>2020-09-22T13:29:29.437Z</time>
      </trkpt>
      <trkpt lat="65.81769" lon="21.58954">
        <ele>69.446153</ele>
        <time>2020-09-22T13:29:32.433Z</time>
      </trkpt>
      <trkpt lat="65.81773" lon="21.58975">
        <ele>69.354928</ele>
        <time>2020-09-22T13:29:34.432Z</time>
      </trkpt>
      <trkpt lat="65.81778" lon="21.58998">
        <ele>69.254095</ele>
        <time>2020-09-22T13:29:36.432Z</time>
      </trkpt>
      <trkpt lat="65.81782" lon="21.59024">
        <ele>69.147684</ele>
        <time>2020-09-22T13:29:38.440Z</time>
      </trkpt>
      <trkpt lat="65.81785" lon="21.5905">
        <ele>69.038624</ele>
        <time>2020-09-22T13:29:40.435Z</time>
      </trkpt>
      <trkpt lat="65.8179" lon="21.59074">
        <ele>68.935582</ele>
        <time>2020-09-22T13:29:42.451Z</time>
      </trkpt>
      <trkpt lat="65.81793" lon="21.59098">
        <ele>68.837062</ele>
        <time>2020-09-22T13:29:44.431Z</time>
      </trkpt>
      <trkpt lat="65.81796" lon="21.59124">
        <ele>68.734281</ele>
        <time>2020-09-22T13:29:46.436Z</time>
      </trkpt>
      <trkpt lat="65.818" lon="21.59148">
        <ele>68.629085</ele>
        <time>2020-09-22T13:29:48.422Z</time>
      </trkpt>
      <trkpt lat="65.81805" lon="21.59173">
        <ele>68.526066</ele>
        <time>2020-09-22T13:29:50.432Z</time>
      </trkpt>
      <trkpt lat="65.81808" lon="21.59198">
        <ele>68.422494</ele>
        <time>2020-09-22T13:29:52.436Z</time>
      </trkpt>
      <trkpt lat="65.81811" lon="21.59222">
        <ele>68.322558</ele>
        <time>2020-09-22T13:29:54.456Z</time>
      </trkpt>
      <trkpt lat="65.81815" lon="21.59245">
        <ele>68.226862</ele>
        <time>2020-09-22T13:29:56.445Z</time>
      </trkpt>
      <trkpt lat="65.81818" lon="21.59268">
        <ele>68.129624</ele>
        <time>2020-09-22T13:29:58.426Z</time>
      </trkpt>
      <trkpt lat="65.81822" lon="21.59292">
        <ele>68.030916</ele>
        <time>2020-09-22T13:30:00.433Z</time>
      </trkpt>
      <trkpt lat="65.81826" lon="21.59318">
        <ele>67.94739</ele>
        <time>2020-09-22T13:30:02.425Z</time>
      </trkpt>
      <trkpt lat="65.81829" lon="21.59343">
        <ele>67.895744</ele>
        <time>2020-09-22T13:30:04.412Z</time>
      </trkpt>
      <trkpt lat="65.81833" lon="21.59368">
        <ele>67.844953</ele>
        <time>2020-09-22T13:30:06.434Z</time>
      </trkpt>
      <trkpt lat="65.81836" lon="21.59393">
        <ele>67.794345</ele>
        <time>2020-09-22T13:30:08.428Z</time>
      </trkpt>
      <trkpt lat="65.8184" lon="21.59417">
        <ele>67.743768</ele>
        <time>2020-09-22T13:30:10.480Z</time>
      </trkpt>
      <trkpt lat="65.81843" lon="21.59441">
        <ele>67.69507</ele>
        <time>2020-09-22T13:30:12.432Z</time>
      </trkpt>
      <trkpt lat="65.81846" lon="21.59465">
        <ele>67.648398</ele>
        <time>2020-09-22T13:30:14.433Z</time>
      </trkpt>
      <trkpt lat="65.81848" lon="21.59489">
        <ele>67.599736</ele>
        <time>2020-09-22T13:30:16.477Z</time>
      </trkpt>
      <trkpt lat="65.81851" lon="21.59511">
        <ele>67.554737</ele>
        <time>2020-09-22T13:30:18.433Z</time>
      </trkpt>
      <trkpt lat="65.81854" lon="21.59533">
        <ele>67.509997</ele>
        <time>2020-09-22T13:30:20.421Z</time>
      </trkpt>
      <trkpt lat="65.81857" lon="21.59564">
        <ele>67.448202</ele>
        <time>2020-09-22T13:30:23.416Z</time>
      </trkpt>
      <trkpt lat="65.8186" lon="21.59594">
        <ele>67.388366</ele>
        <time>2020-09-22T13:30:26.418Z</time>
      </trkpt>
      <trkpt lat="65.81863" lon="21.59625">
        <ele>67.326759</ele>
        <time>2020-09-22T13:30:29.447Z</time>
      </trkpt>
      <trkpt lat="65.81866" lon="21.59656">
        <ele>67.265226</ele>
        <time>2020-09-22T13:30:32.482Z</time>
      </trkpt>
      <trkpt lat="65.81868" lon="21.59679">
        <ele>67.219297</ele>
        <time>2020-09-22T13:30:34.436Z</time>
      </trkpt>
      <trkpt lat="65.81871" lon="21.59702">
        <ele>67.173977</ele>
        <time>2020-09-22T13:30:36.427Z</time>
      </trkpt>
      <trkpt lat="65.81874" lon="21.59725">
        <ele>67.126853</ele>
        <time>2020-09-22T13:30:38.456Z</time>
      </trkpt>
      <trkpt lat="65.81877" lon="21.59749">
        <ele>67.128487</ele>
        <time>2020-09-22T13:30:40.470Z</time>
      </trkpt>
      <trkpt lat="65.8188" lon="21.59775">
        <ele>67.138015</ele>
        <time>2020-09-22T13:30:42.421Z</time>
      </trkpt>
      <trkpt lat="65.81883" lon="21.59802">
        <ele>67.148038</ele>
        <time>2020-09-22T13:30:44.456Z</time>
      </trkpt>
      <trkpt lat="65.81887" lon="21.5983">
        <ele>67.158544</ele>
        <time>2020-09-22T13:30:46.431Z</time>
      </trkpt>
      <trkpt lat="65.8189" lon="21.59855">
        <ele>67.168265</ele>
        <time>2020-09-22T13:30:48.443Z</time>
      </trkpt>
      <trkpt lat="65.81893" lon="21.59879">
        <ele>67.177192</ele>
        <time>2020-09-22T13:30:50.434Z</time>
      </trkpt>
      <trkpt lat="65.81897" lon="21.59904">
        <ele>67.186499</ele>
        <time>2020-09-22T13:30:52.430Z</time>
      </trkpt>
      <trkpt lat="65.81901" lon="21.59928">
        <ele>67.19576</ele>
        <time>2020-09-22T13:30:54.462Z</time>
      </trkpt>
      <trkpt lat="65.81905" lon="21.59952">
        <ele>67.20512</ele>
        <time>2020-09-22T13:30:56.459Z</time>
      </trkpt>
      <trkpt lat="65.81909" lon="21.59976">
        <ele>67.214314</ele>
        <time>2020-09-22T13:30:58.457Z</time>
      </trkpt>
      <trkpt lat="65.81912" lon="21.60003">
        <ele>67.224677</ele>
        <time>2020-09-22T13:31:00.423Z</time>
      </trkpt>
      <trkpt lat="65.81917" lon="21.60031">
        <ele>67.235332</ele>
        <time>2020-09-22T13:31:02.431Z</time>
      </trkpt>
      <trkpt lat="65.81922" lon="21.60055">
        <ele>67.245086</ele>
        <time>2020-09-22T13:31:04.448Z</time>
      </trkpt>
      <trkpt lat="65.81927" lon="21.60077">
        <ele>67.254468</ele>
        <time>2020-09-22T13:31:06.437Z</time>
      </trkpt>
      <trkpt lat="65.81933" lon="21.60107">
        <ele>67.266053</ele>
        <time>2020-09-22T13:31:09.451Z</time>
      </trkpt>
      <trkpt lat="65.81936" lon="21.60129">
        <ele>67.274484</ele>
        <time>2020-09-22T13:31:11.421Z</time>
      </trkpt>
      <trkpt lat="65.8194" lon="21.60149">
        <ele>67.23083</ele>
        <time>2020-09-22T13:31:13.437Z</time>
      </trkpt>
      <trkpt lat="65.81943" lon="21.60169">
        <ele>67.148574</ele>
        <time>2020-09-22T13:31:15.456Z</time>
      </trkpt>
      <trkpt lat="65.81947" lon="21.60191">
        <ele>67.061556</ele>
        <time>2020-09-22T13:31:17.425Z</time>
      </trkpt>
      <trkpt lat="65.81951" lon="21.60211">
        <ele>66.977939</ele>
        <time>2020-09-22T13:31:19.454Z</time>
      </trkpt>
      <trkpt lat="65.81955" lon="21.60231">
        <ele>66.895002</ele>
        <time>2020-09-22T13:31:21.432Z</time>
      </trkpt>
      <trkpt lat="65.81958" lon="21.60252">
        <ele>66.810703</ele>
        <time>2020-09-22T13:31:23.436Z</time>
      </trkpt>
      <trkpt lat="65.81962" lon="21.60273">
        <ele>66.722289</ele>
        <time>2020-09-22T13:31:25.463Z</time>
      </trkpt>
      <trkpt lat="65.81967" lon="21.60296">
        <ele>66.626719</ele>
        <time>2020-09-22T13:31:27.461Z</time>
      </trkpt>
      <trkpt lat="65.81972" lon="21.60318">
        <ele>66.531583</ele>
        <time>2020-09-22T13:31:29.437Z</time>
      </trkpt>
      <trkpt lat="65.81978" lon="21.60341">
        <ele>66.433239</ele>
        <time>2020-09-22T13:31:31.454Z</time>
      </trkpt>
      <trkpt lat="65.81983" lon="21.60364">
        <ele>66.335219</ele>
        <time>2020-09-22T13:31:33.425Z</time>
      </trkpt>
      <trkpt lat="65.81988" lon="21.60385">
        <ele>66.239299</ele>
        <time>2020-09-22T13:31:35.439Z</time>
      </trkpt>
      <trkpt lat="65.81994" lon="21.60406">
        <ele>66.148618</ele>
        <time>2020-09-22T13:31:37.426Z</time>
      </trkpt>
      <trkpt lat="65.82" lon="21.60427">
        <ele>66.052358</ele>
        <time>2020-09-22T13:31:39.477Z</time>
      </trkpt>
      <trkpt lat="65.82005" lon="21.6045">
        <ele>65.953691</ele>
        <time>2020-09-22T13:31:41.427Z</time>
      </trkpt>
      <trkpt lat="65.82009" lon="21.60472">
        <ele>65.865287</ele>
        <time>2020-09-22T13:31:43.424Z</time>
      </trkpt>
      <trkpt lat="65.82008" lon="21.60502">
        <ele>65.754007</ele>
        <time>2020-09-22T13:31:46.425Z</time>
      </trkpt>
      <trkpt lat="65.82017" lon="21.60518">
        <ele>65.655114</ele>
        <time>2020-09-22T13:31:50.406Z</time>
      </trkpt>
      <trkpt lat="65.82023" lon="21.60537">
        <ele>65.354607</ele>
        <time>2020-09-22T13:31:53.430Z</time>
      </trkpt>
      <trkpt lat="65.82028" lon="21.60566">
        <ele>64.874741</ele>
        <time>2020-09-22T13:31:56.440Z</time>
      </trkpt>
      <trkpt lat="65.82032" lon="21.60588">
        <ele>64.517279</ele>
        <time>2020-09-22T13:31:58.464Z</time>
      </trkpt>
      <trkpt lat="65.82037" lon="21.60609">
        <ele>64.143283</ele>
        <time>2020-09-22T13:32:00.420Z</time>
      </trkpt>
      <trkpt lat="65.82045" lon="21.60632">
        <ele>63.716551</ele>
        <time>2020-09-22T13:32:02.453Z</time>
      </trkpt>
      <trkpt lat="65.82052" lon="21.60656">
        <ele>63.26263</ele>
        <time>2020-09-22T13:32:04.449Z</time>
      </trkpt>
      <trkpt lat="65.82059" lon="21.60679">
        <ele>62.823453</ele>
        <time>2020-09-22T13:32:06.445Z</time>
      </trkpt>
      <trkpt lat="65.82066" lon="21.60706">
        <ele>62.357254</ele>
        <time>2020-09-22T13:32:08.412Z</time>
      </trkpt>
      <trkpt lat="65.82073" lon="21.60733">
        <ele>61.868482</ele>
        <time>2020-09-22T13:32:10.421Z</time>
      </trkpt>
      <trkpt lat="65.8208" lon="21.60764">
        <ele>61.334929</ele>
        <time>2020-09-22T13:32:12.416Z</time>
      </trkpt>
      <trkpt lat="65.82088" lon="21.60791">
        <ele>60.837098</ele>
        <time>2020-09-22T13:32:14.416Z</time>
      </trkpt>
      <trkpt lat="65.82096" lon="21.60818">
        <ele>60.339723</ele>
        <time>2020-09-22T13:32:16.440Z</time>
      </trkpt>
      <trkpt lat="65.82103" lon="21.60846">
        <ele>59.851153</ele>
        <time>2020-09-22T13:32:18.436Z</time>
      </trkpt>
      <trkpt lat="65.8211" lon="21.60874">
        <ele>59.346586</ele>
        <time>2020-09-22T13:32:20.439Z</time>
      </trkpt>
      <trkpt lat="65.82116" lon="21.60902">
        <ele>58.905464</ele>
        <time>2020-09-22T13:32:22.423Z</time>
      </trkpt>
      <trkpt lat="65.82123" lon="21.60933">
        <ele>58.496116</ele>
        <time>2020-09-22T13:32:24.425Z</time>
      </trkpt>
      <trkpt lat="65.8213" lon="21.60968">
        <ele>58.030813</ele>
        <time>2020-09-22T13:32:26.437Z</time>
      </trkpt>
      <trkpt lat="65.82139" lon="21.61">
        <ele>57.581824</ele>
        <time>2020-09-22T13:32:28.429Z</time>
      </trkpt>
      <trkpt lat="65.82147" lon="21.6103">
        <ele>57.157388</ele>
        <time>2020-09-22T13:32:30.420Z</time>
      </trkpt>
      <trkpt lat="65.82154" lon="21.61063">
        <ele>56.715116</ele>
        <time>2020-09-22T13:32:32.440Z</time>
      </trkpt>
      <trkpt lat="65.82162" lon="21.61097">
        <ele>56.264525</ele>
        <time>2020-09-22T13:32:34.407Z</time>
      </trkpt>
      <trkpt lat="65.8217" lon="21.6113">
        <ele>55.819437</ele>
        <time>2020-09-22T13:32:36.423Z</time>
      </trkpt>
      <trkpt lat="65.82177" lon="21.6116">
        <ele>55.40672</ele>
        <time>2020-09-22T13:32:38.418Z</time>
      </trkpt>
      <trkpt lat="65.82184" lon="21.61189">
        <ele>55.014976</ele>
        <time>2020-09-22T13:32:40.421Z</time>
      </trkpt>
      <trkpt lat="65.82191" lon="21.61218">
        <ele>54.617856</ele>
        <time>2020-09-22T13:32:42.441Z</time>
      </trkpt>
      <trkpt lat="65.82198" lon="21.61247">
        <ele>54.221994</ele>
        <time>2020-09-22T13:32:44.440Z</time>
      </trkpt>
      <trkpt lat="65.82206" lon="21.61278">
        <ele>53.753956</ele>
        <time>2020-09-22T13:32:46.438Z</time>
      </trkpt>
      <trkpt lat="65.82214" lon="21.61308">
        <ele>53.125101</ele>
        <time>2020-09-22T13:32:48.420Z</time>
      </trkpt>
      <trkpt lat="65.82222" lon="21.61335">
        <ele>52.540684</ele>
        <time>2020-09-22T13:32:50.417Z</time>
      </trkpt>
      <trkpt lat="65.8223" lon="21.61362">
        <ele>51.959096</ele>
        <time>2020-09-22T13:32:52.426Z</time>
      </trkpt>
      <trkpt lat="65.82238" lon="21.61389">
        <ele>51.380625</ele>
        <time>2020-09-22T13:32:54.426Z</time>
      </trkpt>
      <trkpt lat="65.82246" lon="21.61415">
        <ele>50.813447</ele>
        <time>2020-09-22T13:32:56.429Z</time>
      </trkpt>
      <trkpt lat="65.82256" lon="21.6144">
        <ele>50.230906</ele>
        <time>2020-09-22T13:32:58.423Z</time>
      </trkpt>
      <trkpt lat="65.82264" lon="21.61466">
        <ele>49.638308</ele>
        <time>2020-09-22T13:33:00.448Z</time>
      </trkpt>
      <trkpt lat="65.82273" lon="21.61493">
        <ele>49.048311</ele>
        <time>2020-09-22T13:33:02.428Z</time>
      </trkpt>
      <trkpt lat="65.82282" lon="21.61518">
        <ele>48.478583</ele>
        <time>2020-09-22T13:33:04.424Z</time>
      </trkpt>
      <trkpt lat="65.82289" lon="21.61541">
        <ele>47.950636</ele>
        <time>2020-09-22T13:33:06.452Z</time>
      </trkpt>
      <trkpt lat="65.82297" lon="21.61563">
        <ele>47.445572</ele>
        <time>2020-09-22T13:33:08.419Z</time>
      </trkpt>
      <trkpt lat="65.82304" lon="21.61585">
        <ele>46.970042</ele>
        <time>2020-09-22T13:33:10.458Z</time>
      </trkpt>
      <trkpt lat="65.82311" lon="21.61606">
        <ele>46.493241</ele>
        <time>2020-09-22T13:33:12.420Z</time>
      </trkpt>
      <trkpt lat="65.82318" lon="21.61626">
        <ele>46.032184</ele>
        <time>2020-09-22T13:33:14.438Z</time>
      </trkpt>
      <trkpt lat="65.82328" lon="21.61646">
        <ele>45.517695</ele>
        <time>2020-09-22T13:33:16.442Z</time>
      </trkpt>
      <trkpt lat="65.82337" lon="21.61667">
        <ele>44.996489</ele>
        <time>2020-09-22T13:33:18.428Z</time>
      </trkpt>
      <trkpt lat="65.82346" lon="21.61687">
        <ele>44.508215</ele>
        <time>2020-09-22T13:33:20.472Z</time>
      </trkpt>
      <trkpt lat="65.82356" lon="21.61709">
        <ele>43.952781</ele>
        <time>2020-09-22T13:33:22.436Z</time>
      </trkpt>
      <trkpt lat="65.82367" lon="21.61728">
        <ele>43.374503</ele>
        <time>2020-09-22T13:33:24.427Z</time>
      </trkpt>
      <trkpt lat="65.82379" lon="21.61745">
        <ele>42.826724</ele>
        <time>2020-09-22T13:33:26.416Z</time>
      </trkpt>
      <trkpt lat="65.82391" lon="21.61755">
        <ele>42.275045</ele>
        <time>2020-09-22T13:33:28.459Z</time>
      </trkpt>
      <trkpt lat="65.82402" lon="21.61776">
        <ele>41.718176</ele>
        <time>2020-09-22T13:33:30.443Z</time>
      </trkpt>
      <trkpt lat="65.82408" lon="21.61809">
        <ele>41.103284</ele>
        <time>2020-09-22T13:33:32.429Z</time>
      </trkpt>
      <trkpt lat="65.82417" lon="21.61838">
        <ele>40.494095</ele>
        <time>2020-09-22T13:33:34.415Z</time>
      </trkpt>
      <trkpt lat="65.82428" lon="21.6186">
        <ele>39.920137</ele>
        <time>2020-09-22T13:33:36.423Z</time>
      </trkpt>
      <trkpt lat="65.82439" lon="21.61882">
        <ele>39.330205</ele>
        <time>2020-09-22T13:33:38.424Z</time>
      </trkpt>
      <trkpt lat="65.8245" lon="21.61903">
        <ele>38.826407</ele>
        <time>2020-09-22T13:33:40.422Z</time>
      </trkpt>
      <trkpt lat="65.8246" lon="21.61924">
        <ele>39.008164</ele>
        <time>2020-09-22T13:33:42.418Z</time>
      </trkpt>
      <trkpt lat="65.82469" lon="21.61947">
        <ele>39.184597</ele>
        <time>2020-09-22T13:33:44.432Z</time>
      </trkpt>
      <trkpt lat="65.82478" lon="21.61971">
        <ele>39.366976</ele>
        <time>2020-09-22T13:33:46.456Z</time>
      </trkpt>
      <trkpt lat="65.82486" lon="21.61995">
        <ele>39.546654</ele>
        <time>2020-09-22T13:33:48.485Z</time>
      </trkpt>
      <trkpt lat="65.82494" lon="21.62017">
        <ele>39.712913</ele>
        <time>2020-09-22T13:33:50.442Z</time>
      </trkpt>
      <trkpt lat="65.82502" lon="21.6204">
        <ele>39.880502</ele>
        <time>2020-09-22T13:33:52.416Z</time>
      </trkpt>
      <trkpt lat="65.8251" lon="21.6206">
        <ele>40.040935</ele>
        <time>2020-09-22T13:33:54.461Z</time>
      </trkpt>
      <trkpt lat="65.82517" lon="21.6208">
        <ele>40.185361</ele>
        <time>2020-09-22T13:33:56.413Z</time>
      </trkpt>
      <trkpt lat="65.82523" lon="21.62097">
        <ele>40.309332</ele>
        <time>2020-09-22T13:33:58.420Z</time>
      </trkpt>
      <trkpt lat="65.82531" lon="21.62119">
        <ele>40.472469</ele>
        <time>2020-09-22T13:34:01.438Z</time>
      </trkpt>
      <trkpt lat="65.82537" lon="21.62138">
        <ele>40.610381</ele>
        <time>2020-09-22T13:34:04.417Z</time>
      </trkpt>
      <trkpt lat="65.82542" lon="21.62158">
        <ele>40.743661</ele>
        <time>2020-09-22T13:34:07.453Z</time>
      </trkpt>
      <trkpt lat="65.82548" lon="21.62179">
        <ele>40.883308</ele>
        <time>2020-09-22T13:34:10.436Z</time>
      </trkpt>
      <trkpt lat="65.82553" lon="21.62201">
        <ele>41.024277</ele>
        <time>2020-09-22T13:34:13.412Z</time>
      </trkpt>
      <trkpt lat="65.82558" lon="21.62222">
        <ele>41.159373</ele>
        <time>2020-09-22T13:34:16.459Z</time>
      </trkpt>
      <trkpt lat="65.82563" lon="21.62245">
        <ele>41.31045</ele>
        <time>2020-09-22T13:34:19.451Z</time>
      </trkpt>
      <trkpt lat="65.82569" lon="21.62267">
        <ele>41.467972</ele>
        <time>2020-09-22T13:34:22.418Z</time>
      </trkpt>
      <trkpt lat="65.82574" lon="21.62291">
        <ele>41.63402</ele>
        <time>2020-09-22T13:34:25.426Z</time>
      </trkpt>
      <trkpt lat="65.82581" lon="21.62319">
        <ele>41.830926</ele>
        <time>2020-09-22T13:34:28.412Z</time>
      </trkpt>
      <trkpt lat="65.82588" lon="21.62345">
        <ele>42.015475</ele>
        <time>2020-09-22T13:34:31.413Z</time>
      </trkpt>
      <trkpt lat="65.82595" lon="21.62371">
        <ele>42.20396</ele>
        <time>2020-09-22T13:34:34.433Z</time>
      </trkpt>
      <trkpt lat="65.82601" lon="21.62396">
        <ele>42.385184</ele>
        <time>2020-09-22T13:34:37.477Z</time>
      </trkpt>
      <trkpt lat="65.82608" lon="21.6242">
        <ele>42.5627</ele>
        <time>2020-09-22T13:34:40.412Z</time>
      </trkpt>
      <trkpt lat="65.82615" lon="21.62445">
        <ele>42.74416</ele>
        <time>2020-09-22T13:34:43.436Z</time>
      </trkpt>
      <trkpt lat="65.82621" lon="21.62471">
        <ele>42.923839</ele>
        <time>2020-09-22T13:34:46.419Z</time>
      </trkpt>
      <trkpt lat="65.82627" lon="21.62498">
        <ele>43.109269</ele>
        <time>2020-09-22T13:34:49.415Z</time>
      </trkpt>
      <trkpt lat="65.82633" lon="21.62523">
        <ele>43.28694</ele>
        <time>2020-09-22T13:34:52.445Z</time>
      </trkpt>
      <trkpt lat="65.82639" lon="21.62548">
        <ele>43.461477</ele>
        <time>2020-09-22T13:34:55.426Z</time>
      </trkpt>
      <trkpt lat="65.82645" lon="21.62573">
        <ele>43.636248</ele>
        <time>2020-09-22T13:34:58.423Z</time>
      </trkpt>
      <trkpt lat="65.82652" lon="21.62599">
        <ele>43.822855</ele>
        <time>2020-09-22T13:35:01.415Z</time>
      </trkpt>
      <trkpt lat="65.82659" lon="21.62626">
        <ele>43.962286</ele>
        <time>2020-09-22T13:35:04.432Z</time>
      </trkpt>
      <trkpt lat="65.82665" lon="21.62654">
        <ele>44.03796</ele>
        <time>2020-09-22T13:35:07.425Z</time>
      </trkpt>
      <trkpt lat="65.82672" lon="21.62681">
        <ele>44.113547</ele>
        <time>2020-09-22T13:35:10.406Z</time>
      </trkpt>
      <trkpt lat="65.82677" lon="21.6271">
        <ele>44.18942</ele>
        <time>2020-09-22T13:35:13.435Z</time>
      </trkpt>
      <trkpt lat="65.8268" lon="21.62731">
        <ele>44.24155</ele>
        <time>2020-09-22T13:35:15.418Z</time>
      </trkpt>
      <trkpt lat="65.82683" lon="21.62752">
        <ele>44.294769</ele>
        <time>2020-09-22T13:35:17.413Z</time>
      </trkpt>
      <trkpt lat="65.82686" lon="21.62774">
        <ele>44.348509</ele>
        <time>2020-09-22T13:35:19.424Z</time>
      </trkpt>
      <trkpt lat="65.82689" lon="21.62795">
        <ele>44.402413</ele>
        <time>2020-09-22T13:35:21.422Z</time>
      </trkpt>
      <trkpt lat="65.82691" lon="21.62817">
        <ele>44.456005</ele>
        <time>2020-09-22T13:35:23.419Z</time>
      </trkpt>
      <trkpt lat="65.82693" lon="21.62838">
        <ele>44.5083</ele>
        <time>2020-09-22T13:35:25.413Z</time>
      </trkpt>
      <trkpt lat="65.82695" lon="21.6286">
        <ele>44.561329</ele>
        <time>2020-09-22T13:35:27.440Z</time>
      </trkpt>
      <trkpt lat="65.82699" lon="21.6289">
        <ele>44.63571</ele>
        <time>2020-09-22T13:35:30.425Z</time>
      </trkpt>
      <trkpt lat="65.82702" lon="21.62919">
        <ele>44.706183</ele>
        <time>2020-09-22T13:35:33.422Z</time>
      </trkpt>
      <trkpt lat="65.82706" lon="21.6295">
        <ele>44.782683</ele>
        <time>2020-09-22T13:35:36.414Z</time>
      </trkpt>
      <trkpt lat="65.82708" lon="21.62981">
        <ele>44.857747</ele>
        <time>2020-09-22T13:35:39.441Z</time>
      </trkpt>
      <trkpt lat="65.82709" lon="21.63013">
        <ele>44.933616</ele>
        <time>2020-09-22T13:35:42.414Z</time>
      </trkpt>
      <trkpt lat="65.8271" lon="21.63035">
        <ele>45.071559</ele>
        <time>2020-09-22T13:35:44.472Z</time>
      </trkpt>
      <trkpt lat="65.82712" lon="21.63064">
        <ele>45.594294</ele>
        <time>2020-09-22T13:35:47.428Z</time>
      </trkpt>
      <trkpt lat="65.82713" lon="21.63094">
        <ele>46.108664</ele>
        <time>2020-09-22T13:35:50.441Z</time>
      </trkpt>
      <trkpt lat="65.82713" lon="21.63124">
        <ele>46.632348</ele>
        <time>2020-09-22T13:35:53.434Z</time>
      </trkpt>
      <trkpt lat="65.82713" lon="21.63151">
        <ele>47.105178</ele>
        <time>2020-09-22T13:35:56.413Z</time>
      </trkpt>
      <trkpt lat="65.82714" lon="21.63181">
        <ele>47.63466</ele>
        <time>2020-09-22T13:35:59.433Z</time>
      </trkpt>
      <trkpt lat="65.82714" lon="21.63208">
        <ele>48.105745</ele>
        <time>2020-09-22T13:36:02.420Z</time>
      </trkpt>
      <trkpt lat="65.82713" lon="21.63233">
        <ele>48.540695</ele>
        <time>2020-09-22T13:36:05.436Z</time>
      </trkpt>
      <trkpt lat="65.82712" lon="21.63257">
        <ele>48.960301</ele>
        <time>2020-09-22T13:36:08.460Z</time>
      </trkpt>
      <trkpt lat="65.82712" lon="21.63281">
        <ele>49.378673</ele>
        <time>2020-09-22T13:36:11.423Z</time>
      </trkpt>
      <trkpt lat="65.8271" lon="21.63306">
        <ele>49.817832</ele>
        <time>2020-09-22T13:36:14.443Z</time>
      </trkpt>
      <trkpt lat="65.82709" lon="21.63332">
        <ele>50.272729</ele>
        <time>2020-09-22T13:36:17.419Z</time>
      </trkpt>
      <trkpt lat="65.82706" lon="21.63357">
        <ele>50.730199</ele>
        <time>2020-09-22T13:36:20.423Z</time>
      </trkpt>
      <trkpt lat="65.82704" lon="21.63382">
        <ele>51.182581</ele>
        <time>2020-09-22T13:36:23.457Z</time>
      </trkpt>
      <trkpt lat="65.82701" lon="21.63405">
        <ele>51.603727</ele>
        <time>2020-09-22T13:36:26.422Z</time>
      </trkpt>
      <trkpt lat="65.82697" lon="21.63428">
        <ele>52.014346</ele>
        <time>2020-09-22T13:36:29.421Z</time>
      </trkpt>
      <trkpt lat="65.82694" lon="21.63449">
        <ele>52.410939</ele>
        <time>2020-09-22T13:36:32.418Z</time>
      </trkpt>
      <trkpt lat="65.82692" lon="21.63471">
        <ele>52.760919</ele>
        <time>2020-09-22T13:36:35.409Z</time>
      </trkpt>
      <trkpt lat="65.82689" lon="21.63493">
        <ele>53.038453</ele>
        <time>2020-09-22T13:36:38.430Z</time>
      </trkpt>
      <trkpt lat="65.82687" lon="21.63515">
        <ele>53.327218</ele>
        <time>2020-09-22T13:36:41.443Z</time>
      </trkpt>
      <trkpt lat="65.82684" lon="21.63538">
        <ele>53.628297</ele>
        <time>2020-09-22T13:36:44.471Z</time>
      </trkpt>
      <trkpt lat="65.82681" lon="21.63561">
        <ele>53.922393</ele>
        <time>2020-09-22T13:36:47.416Z</time>
      </trkpt>
      <trkpt lat="65.82678" lon="21.63585">
        <ele>54.233708</ele>
        <time>2020-09-22T13:36:50.436Z</time>
      </trkpt>
      <trkpt lat="65.82675" lon="21.63606">
        <ele>54.510786</ele>
        <time>2020-09-22T13:36:53.433Z</time>
      </trkpt>
      <trkpt lat="65.82671" lon="21.63632">
        <ele>54.859015</ele>
        <time>2020-09-22T13:36:57.449Z</time>
      </trkpt>
      <trkpt lat="65.82666" lon="21.63653">
        <ele>55.146789</ele>
        <time>2020-09-22T13:37:00.414Z</time>
      </trkpt>
      <trkpt lat="65.82662" lon="21.63675">
        <ele>55.453055</ele>
        <time>2020-09-22T13:37:03.455Z</time>
      </trkpt>
      <trkpt lat="65.82658" lon="21.637">
        <ele>55.78861</ele>
        <time>2020-09-22T13:37:06.416Z</time>
      </trkpt>
      <trkpt lat="65.82654" lon="21.63725">
        <ele>56.125333</ele>
        <time>2020-09-22T13:37:09.414Z</time>
      </trkpt>
      <trkpt lat="65.8265" lon="21.63751">
        <ele>56.465806</ele>
        <time>2020-09-22T13:37:12.435Z</time>
      </trkpt>
      <trkpt lat="65.82647" lon="21.63776">
        <ele>56.786107</ele>
        <time>2020-09-22T13:37:15.429Z</time>
      </trkpt>
      <trkpt lat="65.82643" lon="21.638">
        <ele>57.118316</ele>
        <time>2020-09-22T13:37:18.415Z</time>
      </trkpt>
      <trkpt lat="65.82638" lon="21.63829">
        <ele>57.495243</ele>
        <time>2020-09-22T13:37:21.416Z</time>
      </trkpt>
      <trkpt lat="65.82634" lon="21.63856">
        <ele>57.860784</ele>
        <time>2020-09-22T13:37:24.434Z</time>
      </trkpt>
      <trkpt lat="65.8263" lon="21.63883">
        <ele>58.017278</ele>
        <time>2020-09-22T13:37:27.412Z</time>
      </trkpt>
      <trkpt lat="65.82625" lon="21.63912">
        <ele>57.787089</ele>
        <time>2020-09-22T13:37:30.426Z</time>
      </trkpt>
      <trkpt lat="65.82619" lon="21.6394">
        <ele>57.552584</ele>
        <time>2020-09-22T13:37:33.440Z</time>
      </trkpt>
      <trkpt lat="65.82614" lon="21.6397">
        <ele>57.315508</ele>
        <time>2020-09-22T13:37:36.456Z</time>
      </trkpt>
      <trkpt lat="65.8261" lon="21.6399">
        <ele>57.150518</ele>
        <time>2020-09-22T13:37:38.437Z</time>
      </trkpt>
      <trkpt lat="65.82606" lon="21.64011">
        <ele>56.982057</ele>
        <time>2020-09-22T13:37:40.431Z</time>
      </trkpt>
      <trkpt lat="65.82602" lon="21.64032">
        <ele>56.815892</ele>
        <time>2020-09-22T13:37:42.439Z</time>
      </trkpt>
      <trkpt lat="65.82598" lon="21.64054">
        <ele>56.63709</ele>
        <time>2020-09-22T13:37:44.440Z</time>
      </trkpt>
      <trkpt lat="65.82594" lon="21.64075">
        <ele>56.465285</ele>
        <time>2020-09-22T13:37:46.417Z</time>
      </trkpt>
      <trkpt lat="65.8259" lon="21.64095">
        <ele>56.300154</ele>
        <time>2020-09-22T13:37:48.441Z</time>
      </trkpt>
      <trkpt lat="65.82585" lon="21.64116">
        <ele>56.125034</ele>
        <time>2020-09-22T13:37:50.421Z</time>
      </trkpt>
      <trkpt lat="65.82581" lon="21.64137">
        <ele>55.95136</ele>
        <time>2020-09-22T13:37:52.428Z</time>
      </trkpt>
      <trkpt lat="65.82576" lon="21.64158">
        <ele>55.780458</ele>
        <time>2020-09-22T13:37:54.415Z</time>
      </trkpt>
      <trkpt lat="65.82572" lon="21.64179">
        <ele>55.605963</ele>
        <time>2020-09-22T13:37:56.436Z</time>
      </trkpt>
      <trkpt lat="65.82568" lon="21.64199">
        <ele>55.439628</ele>
        <time>2020-09-22T13:37:58.459Z</time>
      </trkpt>
      <trkpt lat="65.82563" lon="21.64219">
        <ele>55.273532</ele>
        <time>2020-09-22T13:38:00.436Z</time>
      </trkpt>
      <trkpt lat="65.82558" lon="21.64239">
        <ele>55.101325</ele>
        <time>2020-09-22T13:38:02.423Z</time>
      </trkpt>
      <trkpt lat="65.82553" lon="21.6426">
        <ele>54.922874</ele>
        <time>2020-09-22T13:38:04.459Z</time>
      </trkpt>
      <trkpt lat="65.82548" lon="21.64281">
        <ele>54.745936</ele>
        <time>2020-09-22T13:38:06.430Z</time>
      </trkpt>
      <trkpt lat="65.82543" lon="21.64302">
        <ele>54.575482</ele>
        <time>2020-09-22T13:38:08.434Z</time>
      </trkpt>
      <trkpt lat="65.82539" lon="21.64323">
        <ele>54.407571</ele>
        <time>2020-09-22T13:38:10.416Z</time>
      </trkpt>
      <trkpt lat="65.82535" lon="21.64343">
        <ele>54.240643</ele>
        <time>2020-09-22T13:38:12.419Z</time>
      </trkpt>
      <trkpt lat="65.82531" lon="21.64363">
        <ele>54.083925</ele>
        <time>2020-09-22T13:38:14.413Z</time>
      </trkpt>
      <trkpt lat="65.82525" lon="21.6439">
        <ele>53.866643</ele>
        <time>2020-09-22T13:38:17.442Z</time>
      </trkpt>
      <trkpt lat="65.82521" lon="21.64409">
        <ele>53.707905</ele>
        <time>2020-09-22T13:38:19.435Z</time>
      </trkpt>
      <trkpt lat="65.82516" lon="21.64428">
        <ele>53.548243</ele>
        <time>2020-09-22T13:38:21.430Z</time>
      </trkpt>
      <trkpt lat="65.82511" lon="21.64447">
        <ele>53.382314</ele>
        <time>2020-09-22T13:38:23.423Z</time>
      </trkpt>
      <trkpt lat="65.82505" lon="21.64465">
        <ele>53.220679</ele>
        <time>2020-09-22T13:38:25.430Z</time>
      </trkpt>
      <trkpt lat="65.825" lon="21.64484">
        <ele>53.056531</ele>
        <time>2020-09-22T13:38:27.462Z</time>
      </trkpt>
      <trkpt lat="65.82494" lon="21.64503">
        <ele>52.879551</ele>
        <time>2020-09-22T13:38:29.423Z</time>
      </trkpt>
      <trkpt lat="65.82488" lon="21.64522">
        <ele>52.705391</ele>
        <time>2020-09-22T13:38:31.432Z</time>
      </trkpt>
      <trkpt lat="65.82481" lon="21.64541">
        <ele>52.53012</ele>
        <time>2020-09-22T13:38:33.433Z</time>
      </trkpt>
      <trkpt lat="65.82475" lon="21.6456">
        <ele>52.361412</ele>
        <time>2020-09-22T13:38:35.424Z</time>
      </trkpt>
      <trkpt lat="65.8247" lon="21.64578">
        <ele>52.197114</ele>
        <time>2020-09-22T13:38:37.423Z</time>
      </trkpt>
      <trkpt lat="65.82464" lon="21.64596">
        <ele>52.030689</ele>
        <time>2020-09-22T13:38:39.412Z</time>
      </trkpt>
      <trkpt lat="65.82458" lon="21.64614">
        <ele>51.865439</ele>
        <time>2020-09-22T13:38:41.412Z</time>
      </trkpt>
      <trkpt lat="65.82452" lon="21.64631">
        <ele>51.707129</ele>
        <time>2020-09-22T13:38:43.450Z</time>
      </trkpt>
      <trkpt lat="65.82444" lon="21.64656">
        <ele>51.540195</ele>
        <time>2020-09-22T13:38:46.415Z</time>
      </trkpt>
      <trkpt lat="65.82436" lon="21.6468">
        <ele>51.367929</ele>
        <time>2020-09-22T13:38:49.437Z</time>
      </trkpt>
      <trkpt lat="65.8243" lon="21.64698">
        <ele>51.247587</ele>
        <time>2020-09-22T13:38:51.421Z</time>
      </trkpt>
      <trkpt lat="65.82422" lon="21.64723">
        <ele>51.079049</ele>
        <time>2020-09-22T13:38:54.425Z</time>
      </trkpt>
      <trkpt lat="65.82416" lon="21.6474">
        <ele>50.955754</ele>
        <time>2020-09-22T13:38:56.419Z</time>
      </trkpt>
      <trkpt lat="65.8241" lon="21.64758">
        <ele>50.824697</ele>
        <time>2020-09-22T13:38:58.436Z</time>
      </trkpt>
      <trkpt lat="65.82404" lon="21.64777">
        <ele>50.694017</ele>
        <time>2020-09-22T13:39:00.435Z</time>
      </trkpt>
      <trkpt lat="65.82398" lon="21.64796">
        <ele>50.566264</ele>
        <time>2020-09-22T13:39:02.417Z</time>
      </trkpt>
      <trkpt lat="65.82391" lon="21.64816">
        <ele>50.430999</ele>
        <time>2020-09-22T13:39:04.435Z</time>
      </trkpt>
      <trkpt lat="65.82385" lon="21.64837">
        <ele>50.291343</ele>
        <time>2020-09-22T13:39:06.421Z</time>
      </trkpt>
      <trkpt lat="65.8238" lon="21.64859">
        <ele>50.15761</ele>
        <time>2020-09-22T13:39:08.457Z</time>
      </trkpt>
      <trkpt lat="65.82375" lon="21.64881">
        <ele>50.021272</ele>
        <time>2020-09-22T13:39:10.452Z</time>
      </trkpt>
      <trkpt lat="65.82369" lon="21.64901">
        <ele>49.886204</ele>
        <time>2020-09-22T13:39:12.422Z</time>
      </trkpt>
      <trkpt lat="65.82363" lon="21.64921">
        <ele>49.750938</ele>
        <time>2020-09-22T13:39:14.418Z</time>
      </trkpt>
      <trkpt lat="65.82356" lon="21.6494">
        <ele>49.618212</ele>
        <time>2020-09-22T13:39:16.428Z</time>
      </trkpt>
      <trkpt lat="65.8235" lon="21.6496">
        <ele>49.482139</ele>
        <time>2020-09-22T13:39:18.417Z</time>
      </trkpt>
      <trkpt lat="65.82343" lon="21.64979">
        <ele>49.347183</ele>
        <time>2020-09-22T13:39:20.432Z</time>
      </trkpt>
      <trkpt lat="65.82336" lon="21.64997">
        <ele>49.261704</ele>
        <time>2020-09-22T13:39:22.412Z</time>
      </trkpt>
      <trkpt lat="65.8233" lon="21.65015">
        <ele>49.177327</ele>
        <time>2020-09-22T13:39:24.466Z</time>
      </trkpt>
      <trkpt lat="65.82324" lon="21.65033">
        <ele>49.095151</ele>
        <time>2020-09-22T13:39:26.417Z</time>
      </trkpt>
      <trkpt lat="65.82318" lon="21.6505">
        <ele>49.013806</ele>
        <time>2020-09-22T13:39:28.413Z</time>
      </trkpt>
      <trkpt lat="65.82312" lon="21.65067">
        <ele>48.935761</ele>
        <time>2020-09-22T13:39:30.432Z</time>
      </trkpt>
      <trkpt lat="65.82306" lon="21.65085">
        <ele>48.855464</ele>
        <time>2020-09-22T13:39:32.417Z</time>
      </trkpt>
      <trkpt lat="65.82301" lon="21.65103">
        <ele>48.777903</ele>
        <time>2020-09-22T13:39:34.420Z</time>
      </trkpt>
      <trkpt lat="65.82295" lon="21.65119">
        <ele>48.698115</ele>
        <time>2020-09-22T13:39:36.435Z</time>
      </trkpt>
      <trkpt lat="65.82289" lon="21.65137">
        <ele>48.619248</ele>
        <time>2020-09-22T13:39:38.416Z</time>
      </trkpt>
      <trkpt lat="65.82281" lon="21.65162">
        <ele>48.504225</ele>
        <time>2020-09-22T13:39:41.421Z</time>
      </trkpt>
      <trkpt lat="65.82275" lon="21.65179">
        <ele>48.425358</ele>
        <time>2020-09-22T13:39:43.457Z</time>
      </trkpt>
      <trkpt lat="65.82267" lon="21.65203">
        <ele>48.316914</ele>
        <time>2020-09-22T13:39:46.420Z</time>
      </trkpt>
      <trkpt lat="65.82259" lon="21.65226">
        <ele>48.211474</ele>
        <time>2020-09-22T13:39:49.435Z</time>
      </trkpt>
      <trkpt lat="65.82252" lon="21.65247">
        <ele>48.113971</ele>
        <time>2020-09-22T13:39:52.415Z</time>
      </trkpt>
      <trkpt lat="65.82244" lon="21.65269">
        <ele>48.01263</ele>
        <time>2020-09-22T13:39:55.412Z</time>
      </trkpt>
      <trkpt lat="65.82238" lon="21.65291">
        <ele>47.915382</ele>
        <time>2020-09-22T13:39:58.432Z</time>
      </trkpt>
      <trkpt lat="65.82231" lon="21.65311">
        <ele>47.822271</ele>
        <time>2020-09-22T13:40:01.421Z</time>
      </trkpt>
      <trkpt lat="65.82224" lon="21.6533">
        <ele>48.043028</ele>
        <time>2020-09-22T13:40:04.456Z</time>
      </trkpt>
      <trkpt lat="65.82217" lon="21.65351">
        <ele>48.456194</ele>
        <time>2020-09-22T13:40:07.427Z</time>
      </trkpt>
      <trkpt lat="65.82211" lon="21.65372">
        <ele>48.851268</ele>
        <time>2020-09-22T13:40:10.472Z</time>
      </trkpt>
      <trkpt lat="65.82203" lon="21.65391">
        <ele>49.245652</ele>
        <time>2020-09-22T13:40:13.451Z</time>
      </trkpt>
      <trkpt lat="65.82197" lon="21.65413">
        <ele>49.64538</ele>
        <time>2020-09-22T13:40:16.424Z</time>
      </trkpt>
      <trkpt lat="65.82191" lon="21.65435">
        <ele>50.054076</ele>
        <time>2020-09-22T13:40:19.415Z</time>
      </trkpt>
      <trkpt lat="65.82184" lon="21.65454">
        <ele>50.433306</ele>
        <time>2020-09-22T13:40:22.406Z</time>
      </trkpt>
      <trkpt lat="65.82178" lon="21.65474">
        <ele>50.819545</ele>
        <time>2020-09-22T13:40:25.418Z</time>
      </trkpt>
      <trkpt lat="65.82171" lon="21.65495">
        <ele>51.221065</ele>
        <time>2020-09-22T13:40:28.459Z</time>
      </trkpt>
      <trkpt lat="65.82163" lon="21.65515">
        <ele>51.622044</ele>
        <time>2020-09-22T13:40:31.460Z</time>
      </trkpt>
      <trkpt lat="65.82156" lon="21.65535">
        <ele>52.030831</ele>
        <time>2020-09-22T13:40:34.428Z</time>
      </trkpt>
      <trkpt lat="65.82148" lon="21.65557">
        <ele>52.468481</ele>
        <time>2020-09-22T13:40:37.422Z</time>
      </trkpt>
      <trkpt lat="65.82141" lon="21.65578">
        <ele>52.896863</ele>
        <time>2020-09-22T13:40:40.414Z</time>
      </trkpt>
      <trkpt lat="65.82132" lon="21.65602">
        <ele>53.376921</ele>
        <time>2020-09-22T13:40:43.411Z</time>
      </trkpt>
      <trkpt lat="65.82124" lon="21.65626">
        <ele>53.853032</ele>
        <time>2020-09-22T13:40:46.423Z</time>
      </trkpt>
      <trkpt lat="65.82116" lon="21.65651">
        <ele>54.326063</ele>
        <time>2020-09-22T13:40:49.413Z</time>
      </trkpt>
      <trkpt lat="65.82108" lon="21.65676">
        <ele>54.285515</ele>
        <time>2020-09-22T13:40:52.412Z</time>
      </trkpt>
      <trkpt lat="65.82101" lon="21.65693">
        <ele>54.166715</ele>
        <time>2020-09-22T13:40:54.424Z</time>
      </trkpt>
      <trkpt lat="65.82095" lon="21.65711">
        <ele>54.046761</ele>
        <time>2020-09-22T13:40:56.423Z</time>
      </trkpt>
      <trkpt lat="65.82086" lon="21.65736">
        <ele>53.879399</ele>
        <time>2020-09-22T13:40:59.450Z</time>
      </trkpt>
      <trkpt lat="65.82078" lon="21.65759">
        <ele>53.721508</ele>
        <time>2020-09-22T13:41:02.417Z</time>
      </trkpt>
      <trkpt lat="65.8207" lon="21.65782">
        <ele>53.570033</ele>
        <time>2020-09-22T13:41:05.452Z</time>
      </trkpt>
      <trkpt lat="65.82063" lon="21.65802">
        <ele>53.437876</ele>
        <time>2020-09-22T13:41:08.423Z</time>
      </trkpt>
      <trkpt lat="65.82056" lon="21.65824">
        <ele>53.294679</ele>
        <time>2020-09-22T13:41:11.434Z</time>
      </trkpt>
      <trkpt lat="65.82049" lon="21.65846">
        <ele>53.150689</ele>
        <time>2020-09-22T13:41:14.436Z</time>
      </trkpt>
      <trkpt lat="65.82042" lon="21.65871">
        <ele>52.994727</ele>
        <time>2020-09-22T13:41:17.420Z</time>
      </trkpt>
      <trkpt lat="65.82036" lon="21.65889">
        <ele>52.877946</ele>
        <time>2020-09-22T13:41:19.417Z</time>
      </trkpt>
      <trkpt lat="65.8203" lon="21.65906">
        <ele>52.766277</ele>
        <time>2020-09-22T13:41:21.456Z</time>
      </trkpt>
      <trkpt lat="65.82022" lon="21.65931">
        <ele>52.607282</ele>
        <time>2020-09-22T13:41:24.429Z</time>
      </trkpt>
      <trkpt lat="65.82015" lon="21.65955">
        <ele>52.449087</ele>
        <time>2020-09-22T13:41:27.411Z</time>
      </trkpt>
      <trkpt lat="65.82007" lon="21.65981">
        <ele>52.283827</ele>
        <time>2020-09-22T13:41:30.441Z</time>
      </trkpt>
      <trkpt lat="65.81999" lon="21.66006">
        <ele>51.987506</ele>
        <time>2020-09-22T13:41:33.416Z</time>
      </trkpt>
      <trkpt lat="65.81992" lon="21.66022">
        <ele>51.596383</ele>
        <time>2020-09-22T13:41:35.427Z</time>
      </trkpt>
      <trkpt lat="65.81986" lon="21.66042">
        <ele>51.158246</ele>
        <time>2020-09-22T13:41:37.427Z</time>
      </trkpt>
      <trkpt lat="65.8198" lon="21.66059">
        <ele>50.75257</ele>
        <time>2020-09-22T13:41:39.429Z</time>
      </trkpt>
      <trkpt lat="65.81972" lon="21.66082">
        <ele>50.242746</ele>
        <time>2020-09-22T13:41:42.425Z</time>
      </trkpt>
      <trkpt lat="65.81964" lon="21.66105">
        <ele>49.699957</ele>
        <time>2020-09-22T13:41:45.432Z</time>
      </trkpt>
      <trkpt lat="65.81956" lon="21.66122">
        <ele>49.270071</ele>
        <time>2020-09-22T13:41:47.461Z</time>
      </trkpt>
      <trkpt lat="65.81948" lon="21.66136">
        <ele>48.846547</ele>
        <time>2020-09-22T13:41:49.439Z</time>
      </trkpt>
      <trkpt lat="65.81939" lon="21.66156">
        <ele>48.316494</ele>
        <time>2020-09-22T13:41:52.416Z</time>
      </trkpt>
      <trkpt lat="65.81931" lon="21.66167">
        <ele>47.926376</ele>
        <time>2020-09-22T13:41:54.408Z</time>
      </trkpt>
      <trkpt lat="65.81923" lon="21.6618">
        <ele>47.501731</ele>
        <time>2020-09-22T13:41:56.453Z</time>
      </trkpt>
      <trkpt lat="65.81916" lon="21.66197">
        <ele>47.087703</ele>
        <time>2020-09-22T13:41:58.430Z</time>
      </trkpt>
      <trkpt lat="65.81909" lon="21.66223">
        <ele>46.555965</ele>
        <time>2020-09-22T13:42:01.411Z</time>
      </trkpt>
      <trkpt lat="65.81909" lon="21.66245">
        <ele>46.17305</ele>
        <time>2020-09-22T13:42:03.435Z</time>
      </trkpt>
      <trkpt lat="65.81909" lon="21.66268">
        <ele>45.762262</ele>
        <time>2020-09-22T13:42:05.420Z</time>
      </trkpt>
      <trkpt lat="65.81909" lon="21.66292">
        <ele>45.339043</ele>
        <time>2020-09-22T13:42:07.407Z</time>
      </trkpt>
      <trkpt lat="65.81908" lon="21.66319">
        <ele>44.878815</ele>
        <time>2020-09-22T13:42:09.412Z</time>
      </trkpt>
      <trkpt lat="65.8191" lon="21.66343">
        <ele>44.504269</ele>
        <time>2020-09-22T13:42:11.414Z</time>
      </trkpt>
      <trkpt lat="65.81917" lon="21.66363">
        <ele>44.520332</ele>
        <time>2020-09-22T13:42:13.419Z</time>
      </trkpt>
      <trkpt lat="65.81925" lon="21.66377">
        <ele>44.535552</ele>
        <time>2020-09-22T13:42:15.419Z</time>
      </trkpt>
      <trkpt lat="65.81932" lon="21.6639">
        <ele>44.549619</ele>
        <time>2020-09-22T13:42:17.428Z</time>
      </trkpt>
      <trkpt lat="65.8194" lon="21.66402">
        <ele>44.564463</ele>
        <time>2020-09-22T13:42:19.457Z</time>
      </trkpt>
      <trkpt lat="65.81943" lon="21.66423">
        <ele>44.578409</ele>
        <time>2020-09-22T13:42:24.450Z</time>
      </trkpt>
      <trkpt lat="65.81933" lon="21.66421">
        <ele>44.593389</ele>
        <time>2020-09-22T13:42:27.425Z</time>
      </trkpt>
      <trkpt lat="65.81923" lon="21.66424">
        <ele>44.609672</ele>
        <time>2020-09-22T13:42:31.439Z</time>
      </trkpt>
      <trkpt lat="65.8192" lon="21.66446">
        <ele>44.624003</ele>
        <time>2020-09-22T13:42:34.416Z</time>
      </trkpt>
      <trkpt lat="65.81918" lon="21.66472">
        <ele>44.640491</ele>
        <time>2020-09-22T13:42:37.440Z</time>
      </trkpt>
      <trkpt lat="65.81915" lon="21.66498">
        <ele>44.657276</ele>
        <time>2020-09-22T13:42:40.455Z</time>
      </trkpt>
      <trkpt lat="65.81915" lon="21.66527">
        <ele>44.675558</ele>
        <time>2020-09-22T13:42:43.425Z</time>
      </trkpt>
      <trkpt lat="65.81915" lon="21.6655">
        <ele>44.690119</ele>
        <time>2020-09-22T13:42:45.427Z</time>
      </trkpt>
      <trkpt lat="65.81914" lon="21.66572">
        <ele>44.704448</ele>
        <time>2020-09-22T13:42:47.413Z</time>
      </trkpt>
      <trkpt lat="65.81914" lon="21.66597">
        <ele>44.720066</ele>
        <time>2020-09-22T13:42:49.422Z</time>
      </trkpt>
      <trkpt lat="65.81913" lon="21.6662">
        <ele>44.734467</ele>
        <time>2020-09-22T13:42:51.417Z</time>
      </trkpt>
      <trkpt lat="65.81909" lon="21.6665">
        <ele>44.754578</ele>
        <time>2020-09-22T13:42:54.416Z</time>
      </trkpt>
      <trkpt lat="65.81908" lon="21.66677">
        <ele>44.771642</ele>
        <time>2020-09-22T13:42:57.462Z</time>
      </trkpt>
      <trkpt lat="65.81911" lon="21.66707">
        <ele>44.879587</ele>
        <time>2020-09-22T13:43:00.459Z</time>
      </trkpt>
      <trkpt lat="65.81913" lon="21.6673">
        <ele>45.013682</ele>
        <time>2020-09-22T13:43:02.436Z</time>
      </trkpt>
      <trkpt lat="65.81914" lon="21.66756">
        <ele>45.154983</ele>
        <time>2020-09-22T13:43:04.436Z</time>
      </trkpt>
      <trkpt lat="65.81914" lon="21.66779">
        <ele>45.283804</ele>
        <time>2020-09-22T13:43:06.412Z</time>
      </trkpt>
      <trkpt lat="65.81913" lon="21.66803">
        <ele>45.419742</ele>
        <time>2020-09-22T13:43:08.449Z</time>
      </trkpt>
      <trkpt lat="65.81913" lon="21.66828">
        <ele>45.557233</ele>
        <time>2020-09-22T13:43:10.418Z</time>
      </trkpt>
      <trkpt lat="65.81913" lon="21.66854">
        <ele>45.698048</ele>
        <time>2020-09-22T13:43:12.428Z</time>
      </trkpt>
      <trkpt lat="65.81914" lon="21.66878">
        <ele>45.836283</ele>
        <time>2020-09-22T13:43:14.409Z</time>
      </trkpt>
      <trkpt lat="65.81917" lon="21.669">
        <ele>45.960386</ele>
        <time>2020-09-22T13:43:16.417Z</time>
      </trkpt>
      <trkpt lat="65.81916" lon="21.66925">
        <ele>46.0967</ele>
        <time>2020-09-22T13:43:18.418Z</time>
      </trkpt>
      <trkpt lat="65.81913" lon="21.66956">
        <ele>46.275323</ele>
        <time>2020-09-22T13:43:21.427Z</time>
      </trkpt>
      <trkpt lat="65.81913" lon="21.66979">
        <ele>46.401672</ele>
        <time>2020-09-22T13:43:23.438Z</time>
      </trkpt>
      <trkpt lat="65.81913" lon="21.67002">
        <ele>46.530819</ele>
        <time>2020-09-22T13:43:25.434Z</time>
      </trkpt>
      <trkpt lat="65.81915" lon="21.67026">
        <ele>46.663714</ele>
        <time>2020-09-22T13:43:27.426Z</time>
      </trkpt>
      <trkpt lat="65.81917" lon="21.67049">
        <ele>46.796529</ele>
        <time>2020-09-22T13:43:29.432Z</time>
      </trkpt>
      <trkpt lat="65.81921" lon="21.67073">
        <ele>46.938117</ele>
        <time>2020-09-22T13:43:31.430Z</time>
      </trkpt>
      <trkpt lat="65.81924" lon="21.67098">
        <ele>47.083476</ele>
        <time>2020-09-22T13:43:33.412Z</time>
      </trkpt>
      <trkpt lat="65.81928" lon="21.67122">
        <ele>47.212824</ele>
        <time>2020-09-22T13:43:35.418Z</time>
      </trkpt>
      <trkpt lat="65.81933" lon="21.67143">
        <ele>47.21598</ele>
        <time>2020-09-22T13:43:37.424Z</time>
      </trkpt>
      <trkpt lat="65.81938" lon="21.67164">
        <ele>47.219095</ele>
        <time>2020-09-22T13:43:39.412Z</time>
      </trkpt>
      <trkpt lat="65.81943" lon="21.67182">
        <ele>47.221973</ele>
        <time>2020-09-22T13:43:41.417Z</time>
      </trkpt>
      <trkpt lat="65.81951" lon="21.67207">
        <ele>47.225923</ele>
        <time>2020-09-22T13:43:44.412Z</time>
      </trkpt>
      <trkpt lat="65.81959" lon="21.67229">
        <ele>47.229788</ele>
        <time>2020-09-22T13:43:47.414Z</time>
      </trkpt>
      <trkpt lat="65.81964" lon="21.67248">
        <ele>47.232623</ele>
        <time>2020-09-22T13:43:49.444Z</time>
      </trkpt>
      <trkpt lat="65.81972" lon="21.67275">
        <ele>47.236863</ele>
        <time>2020-09-22T13:43:52.421Z</time>
      </trkpt>
      <trkpt lat="65.81978" lon="21.6729">
        <ele>47.239717</ele>
        <time>2020-09-22T13:43:54.435Z</time>
      </trkpt>
      <trkpt lat="65.81987" lon="21.67311">
        <ele>47.243526</ele>
        <time>2020-09-22T13:43:57.416Z</time>
      </trkpt>
      <trkpt lat="65.81995" lon="21.6733">
        <ele>47.247062</ele>
        <time>2020-09-22T13:44:00.429Z</time>
      </trkpt>
      <trkpt lat="65.82002" lon="21.67351">
        <ele>47.25059</ele>
        <time>2020-09-22T13:44:03.439Z</time>
      </trkpt>
      <trkpt lat="65.82009" lon="21.67368">
        <ele>47.253592</ele>
        <time>2020-09-22T13:44:06.452Z</time>
      </trkpt>
      <trkpt lat="65.82015" lon="21.67385">
        <ele>47.256495</ele>
        <time>2020-09-22T13:44:09.412Z</time>
      </trkpt>
      <trkpt lat="65.8202" lon="21.67404">
        <ele>47.259348</ele>
        <time>2020-09-22T13:44:12.424Z</time>
      </trkpt>
      <trkpt lat="65.82026" lon="21.6742">
        <ele>47.262182</ele>
        <time>2020-09-22T13:44:15.415Z</time>
      </trkpt>
      <trkpt lat="65.82032" lon="21.67438">
        <ele>47.265124</ele>
        <time>2020-09-22T13:44:18.418Z</time>
      </trkpt>
      <trkpt lat="65.82036" lon="21.67459">
        <ele>47.268171</ele>
        <time>2020-09-22T13:44:21.419Z</time>
      </trkpt>
      <trkpt lat="65.82041" lon="21.67479">
        <ele>47.194128</ele>
        <time>2020-09-22T13:44:24.481Z</time>
      </trkpt>
      <trkpt lat="65.82048" lon="21.67499">
        <ele>47.081569</ele>
        <time>2020-09-22T13:44:27.420Z</time>
      </trkpt>
      <trkpt lat="65.82054" lon="21.67518">
        <ele>46.970114</ele>
        <time>2020-09-22T13:44:30.416Z</time>
      </trkpt>
      <trkpt lat="65.82061" lon="21.67538">
        <ele>46.85942</ele>
        <time>2020-09-22T13:44:33.416Z</time>
      </trkpt>
      <trkpt lat="65.82067" lon="21.67556">
        <ele>46.753131</ele>
        <time>2020-09-22T13:44:36.434Z</time>
      </trkpt>
      <trkpt lat="65.82075" lon="21.67579">
        <ele>46.62308</ele>
        <time>2020-09-22T13:44:40.422Z</time>
      </trkpt>
      <trkpt lat="65.82081" lon="21.67599">
        <ele>46.515775</ele>
        <time>2020-09-22T13:44:43.428Z</time>
      </trkpt>
      <trkpt lat="65.82086" lon="21.6762">
        <ele>46.405787</ele>
        <time>2020-09-22T13:44:46.424Z</time>
      </trkpt>
      <trkpt lat="65.82093" lon="21.67639">
        <ele>46.298818</ele>
        <time>2020-09-22T13:44:49.420Z</time>
      </trkpt>
      <trkpt lat="65.821" lon="21.67659">
        <ele>46.18456</ele>
        <time>2020-09-22T13:44:52.413Z</time>
      </trkpt>
      <trkpt lat="65.82107" lon="21.6768">
        <ele>46.065379</ele>
        <time>2020-09-22T13:44:55.427Z</time>
      </trkpt>
      <trkpt lat="65.82113" lon="21.67699">
        <ele>45.957978</ele>
        <time>2020-09-22T13:44:58.416Z</time>
      </trkpt>
      <trkpt lat="65.82119" lon="21.6772">
        <ele>45.848499</ele>
        <time>2020-09-22T13:45:01.428Z</time>
      </trkpt>
      <trkpt lat="65.82125" lon="21.67742">
        <ele>45.731164</ele>
        <time>2020-09-22T13:45:04.415Z</time>
      </trkpt>
      <trkpt lat="65.82131" lon="21.67764">
        <ele>45.613953</ele>
        <time>2020-09-22T13:45:07.421Z</time>
      </trkpt>
      <trkpt lat="65.82137" lon="21.67784">
        <ele>45.503446</ele>
        <time>2020-09-22T13:45:10.444Z</time>
      </trkpt>
      <trkpt lat="65.82143" lon="21.67807">
        <ele>45.385445</ele>
        <time>2020-09-22T13:45:13.437Z</time>
      </trkpt>
      <trkpt lat="65.82149" lon="21.67827">
        <ele>45.367829</ele>
        <time>2020-09-22T13:45:16.428Z</time>
      </trkpt>
      <trkpt lat="65.82158" lon="21.67835">
        <ele>45.40824</ele>
        <time>2020-09-22T13:45:19.435Z</time>
      </trkpt>
      <trkpt lat="65.82169" lon="21.6784">
        <ele>45.454017</ele>
        <time>2020-09-22T13:45:22.477Z</time>
      </trkpt>
      <trkpt lat="65.82181" lon="21.67842">
        <ele>45.502562</ele>
        <time>2020-09-22T13:45:25.414Z</time>
      </trkpt>
      <trkpt lat="65.82191" lon="21.67846">
        <ele>45.545177</ele>
        <time>2020-09-22T13:45:28.431Z</time>
      </trkpt>
      <trkpt lat="65.822" lon="21.67847">
        <ele>45.584048</ele>
        <time>2020-09-22T13:45:31.425Z</time>
      </trkpt>
      <trkpt lat="65.82207" lon="21.67832">
        <ele>45.623799</ele>
        <time>2020-09-22T13:45:34.415Z</time>
      </trkpt>
      <trkpt lat="65.82211" lon="21.67808">
        <ele>45.668302</ele>
        <time>2020-09-22T13:45:37.423Z</time>
      </trkpt>
      <trkpt lat="65.82215" lon="21.67785">
        <ele>45.71106</ele>
        <time>2020-09-22T13:45:40.452Z</time>
      </trkpt>
      <trkpt lat="65.82219" lon="21.67761">
        <ele>45.754926</ele>
        <time>2020-09-22T13:45:43.440Z</time>
      </trkpt>
      <trkpt lat="65.82222" lon="21.67739">
        <ele>45.795388</ele>
        <time>2020-09-22T13:45:46.430Z</time>
      </trkpt>
      <trkpt lat="65.82225" lon="21.67716">
        <ele>45.836661</ele>
        <time>2020-09-22T13:45:49.420Z</time>
      </trkpt>
      <trkpt lat="65.82228" lon="21.67692">
        <ele>45.879399</ele>
        <time>2020-09-22T13:45:52.431Z</time>
      </trkpt>
      <trkpt lat="65.82231" lon="21.67669">
        <ele>45.920451</ele>
        <time>2020-09-22T13:45:55.421Z</time>
      </trkpt>
      <trkpt lat="65.82241" lon="21.67667">
        <ele>45.961555</ele>
        <time>2020-09-22T13:46:02.418Z</time>
      </trkpt>
      <trkpt lat="65.82241" lon="21.67692">
        <ele>46.005093</ele>
        <time>2020-09-22T13:46:07.425Z</time>
      </trkpt>
      <trkpt lat="65.82252" lon="21.67702">
        <ele>46.054521</ele>
        <time>2020-09-22T13:46:11.420Z</time>
      </trkpt>
      <trkpt lat="65.82263" lon="21.67703">
        <ele>46.139835</ele>
        <time>2020-09-22T13:46:14.435Z</time>
      </trkpt>
      <trkpt lat="65.82273" lon="21.67707">
        <ele>46.520601</ele>
        <time>2020-09-22T13:46:17.429Z</time>
      </trkpt>
      <trkpt lat="65.82283" lon="21.67709">
        <ele>46.876824</ele>
        <time>2020-09-22T13:46:20.416Z</time>
      </trkpt>
      <trkpt lat="65.82293" lon="21.67712">
        <ele>47.242164</ele>
        <time>2020-09-22T13:46:23.429Z</time>
      </trkpt>
      <trkpt lat="65.82305" lon="21.67713">
        <ele>47.676511</ele>
        <time>2020-09-22T13:46:26.419Z</time>
      </trkpt>
      <trkpt lat="65.82317" lon="21.67714">
        <ele>48.092786</ele>
        <time>2020-09-22T13:46:29.424Z</time>
      </trkpt>
      <trkpt lat="65.82328" lon="21.67715">
        <ele>48.498265</ele>
        <time>2020-09-22T13:46:32.420Z</time>
      </trkpt>
      <trkpt lat="65.8234" lon="21.67717">
        <ele>48.908594</ele>
        <time>2020-09-22T13:46:35.414Z</time>
      </trkpt>
      <trkpt lat="65.82352" lon="21.67718">
        <ele>49.332245</ele>
        <time>2020-09-22T13:46:38.420Z</time>
      </trkpt>
      <trkpt lat="65.82362" lon="21.6772">
        <ele>49.702378</ele>
        <time>2020-09-22T13:46:41.417Z</time>
      </trkpt>
      <trkpt lat="65.82371" lon="21.67719">
        <ele>50.0361</ele>
        <time>2020-09-22T13:46:44.457Z</time>
      </trkpt>
      <trkpt lat="65.82382" lon="21.67716">
        <ele>50.414991</ele>
        <time>2020-09-22T13:46:47.445Z</time>
      </trkpt>
      <trkpt lat="65.82393" lon="21.67713">
        <ele>50.833748</ele>
        <time>2020-09-22T13:46:50.413Z</time>
      </trkpt>
      <trkpt lat="65.82405" lon="21.67711">
        <ele>51.268598</ele>
        <time>2020-09-22T13:46:53.420Z</time>
      </trkpt>
      <trkpt lat="65.82417" lon="21.6771">
        <ele>51.685081</ele>
        <time>2020-09-22T13:46:56.432Z</time>
      </trkpt>
      <trkpt lat="65.8243" lon="21.6771">
        <ele>52.147826</ele>
        <time>2020-09-22T13:46:59.488Z</time>
      </trkpt>
      <trkpt lat="65.82439" lon="21.67711">
        <ele>52.474468</ele>
        <time>2020-09-22T13:47:01.434Z</time>
      </trkpt>
      <trkpt lat="65.82452" lon="21.67711">
        <ele>52.682957</ele>
        <time>2020-09-22T13:47:04.419Z</time>
      </trkpt>
      <trkpt lat="65.82464" lon="21.67711">
        <ele>52.839879</ele>
        <time>2020-09-22T13:47:07.445Z</time>
      </trkpt>
      <trkpt lat="65.82474" lon="21.67708">
        <ele>52.979544</ele>
        <time>2020-09-22T13:47:10.416Z</time>
      </trkpt>
      <trkpt lat="65.82486" lon="21.67705">
        <ele>53.126941</ele>
        <time>2020-09-22T13:47:13.422Z</time>
      </trkpt>
      <trkpt lat="65.82498" lon="21.67703">
        <ele>53.284324</ele>
        <time>2020-09-22T13:47:16.418Z</time>
      </trkpt>
      <trkpt lat="65.82508" lon="21.677">
        <ele>53.42154</ele>
        <time>2020-09-22T13:47:19.426Z</time>
      </trkpt>
      <trkpt lat="65.82518" lon="21.67699">
        <ele>53.552621</ele>
        <time>2020-09-22T13:47:22.413Z</time>
      </trkpt>
      <trkpt lat="65.82528" lon="21.67697">
        <ele>53.673482</ele>
        <time>2020-09-22T13:47:25.434Z</time>
      </trkpt>
      <trkpt lat="65.82534" lon="21.6768">
        <ele>53.79916</ele>
        <time>2020-09-22T13:47:30.481Z</time>
      </trkpt>
      <trkpt lat="65.82544" lon="21.67676">
        <ele>53.920157</ele>
        <time>2020-09-22T13:47:36.450Z</time>
      </trkpt>
      <trkpt lat="65.82546" lon="21.67701">
        <ele>54.056471</ele>
        <time>2020-09-22T13:47:41.437Z</time>
      </trkpt>
      <trkpt lat="65.82555" lon="21.6771">
        <ele>54.187133</ele>
        <time>2020-09-22T13:47:44.463Z</time>
      </trkpt>
      <trkpt lat="65.82564" lon="21.67708">
        <ele>54.308198</ele>
        <time>2020-09-22T13:47:46.410Z</time>
      </trkpt>
      <trkpt lat="65.82574" lon="21.67705">
        <ele>54.431894</ele>
        <time>2020-09-22T13:47:48.432Z</time>
      </trkpt>
      <trkpt lat="65.82583" lon="21.67703">
        <ele>54.554759</ele>
        <time>2020-09-22T13:47:50.446Z</time>
      </trkpt>
      <trkpt lat="65.82592" lon="21.677">
        <ele>54.673632</ele>
        <time>2020-09-22T13:47:52.419Z</time>
      </trkpt>
      <trkpt lat="65.82601" lon="21.67697">
        <ele>54.789931</ele>
        <time>2020-09-22T13:47:54.462Z</time>
      </trkpt>
      <trkpt lat="65.8261" lon="21.67695">
        <ele>54.692614</ele>
        <time>2020-09-22T13:47:56.430Z</time>
      </trkpt>
      <trkpt lat="65.82624" lon="21.67693">
        <ele>53.714274</ele>
        <time>2020-09-22T13:47:59.420Z</time>
      </trkpt>
      <trkpt lat="65.82633" lon="21.67692">
        <ele>53.036789</ele>
        <time>2020-09-22T13:48:01.442Z</time>
      </trkpt>
      <trkpt lat="65.82646" lon="21.6769">
        <ele>52.044902</ele>
        <time>2020-09-22T13:48:04.423Z</time>
      </trkpt>
      <trkpt lat="65.82655" lon="21.6769">
        <ele>51.337331</ele>
        <time>2020-09-22T13:48:06.432Z</time>
      </trkpt>
      <trkpt lat="65.82665" lon="21.67689">
        <ele>50.629648</ele>
        <time>2020-09-22T13:48:08.433Z</time>
      </trkpt>
      <trkpt lat="65.82674" lon="21.67687">
        <ele>49.943683</ele>
        <time>2020-09-22T13:48:10.439Z</time>
      </trkpt>
      <trkpt lat="65.82683" lon="21.67686">
        <ele>49.249249</ele>
        <time>2020-09-22T13:48:12.418Z</time>
      </trkpt>
      <trkpt lat="65.82693" lon="21.67684">
        <ele>48.55602</ele>
        <time>2020-09-22T13:48:14.420Z</time>
      </trkpt>
      <trkpt lat="65.82702" lon="21.67681">
        <ele>47.842174</ele>
        <time>2020-09-22T13:48:16.430Z</time>
      </trkpt>
      <trkpt lat="65.82712" lon="21.67677">
        <ele>47.138172</ele>
        <time>2020-09-22T13:48:18.418Z</time>
      </trkpt>
      <trkpt lat="65.82725" lon="21.67674">
        <ele>46.142751</ele>
        <time>2020-09-22T13:48:21.417Z</time>
      </trkpt>
      <trkpt lat="65.82737" lon="21.67674">
        <ele>45.226929</ele>
        <time>2020-09-22T13:48:24.470Z</time>
      </trkpt>
      <trkpt lat="65.82744" lon="21.67695">
        <ele>44.406281</ele>
        <time>2020-09-22T13:48:27.440Z</time>
      </trkpt>
      <trkpt lat="65.82745" lon="21.67722">
        <ele>43.577537</ele>
        <time>2020-09-22T13:48:30.435Z</time>
      </trkpt>
      <trkpt lat="65.82746" lon="21.67749">
        <ele>42.746321</ele>
        <time>2020-09-22T13:48:33.441Z</time>
      </trkpt>
      <trkpt lat="65.82747" lon="21.67775">
        <ele>41.957067</ele>
        <time>2020-09-22T13:48:36.435Z</time>
      </trkpt>
      <trkpt lat="65.82749" lon="21.678">
        <ele>41.334868</ele>
        <time>2020-09-22T13:48:39.466Z</time>
      </trkpt>
      <trkpt lat="65.82757" lon="21.67818">
        <ele>40.898152</ele>
        <time>2020-09-22T13:48:42.441Z</time>
      </trkpt>
      <trkpt lat="65.82769" lon="21.67811">
        <ele>40.441392</ele>
        <time>2020-09-22T13:48:45.474Z</time>
      </trkpt>
      <trkpt lat="65.82776" lon="21.67786">
        <ele>39.94627</ele>
        <time>2020-09-22T13:48:48.424Z</time>
      </trkpt>
      <trkpt lat="65.82781" lon="21.67766">
        <ele>39.592591</ele>
        <time>2020-09-22T13:48:50.438Z</time>
      </trkpt>
      <trkpt lat="65.82785" lon="21.67747">
        <ele>39.231634</ele>
        <time>2020-09-22T13:48:52.438Z</time>
      </trkpt>
      <trkpt lat="65.8279" lon="21.67728">
        <ele>38.880171</ele>
        <time>2020-09-22T13:48:54.441Z</time>
      </trkpt>
      <trkpt lat="65.82797" lon="21.67701">
        <ele>38.373941</ele>
        <time>2020-09-22T13:48:57.436Z</time>
      </trkpt>
      <trkpt lat="65.82806" lon="21.67679">
        <ele>37.862356</ele>
        <time>2020-09-22T13:49:00.437Z</time>
      </trkpt>
      <trkpt lat="65.82816" lon="21.67671">
        <ele>37.48038</ele>
        <time>2020-09-22T13:49:02.438Z</time>
      </trkpt>
      <trkpt lat="65.82828" lon="21.67659">
        <ele>36.955572</ele>
        <time>2020-09-22T13:49:05.423Z</time>
      </trkpt>
      <trkpt lat="65.82839" lon="21.67645">
        <ele>36.475364</ele>
        <time>2020-09-22T13:49:08.467Z</time>
      </trkpt>
      <trkpt lat="65.8285" lon="21.67629">
        <ele>35.976635</ele>
        <time>2020-09-22T13:49:11.427Z</time>
      </trkpt>
      <trkpt lat="65.82859" lon="21.67617">
        <ele>35.589236</ele>
        <time>2020-09-22T13:49:13.433Z</time>
      </trkpt>
      <trkpt lat="65.82868" lon="21.67605">
        <ele>35.182863</ele>
        <time>2020-09-22T13:49:15.449Z</time>
      </trkpt>
      <trkpt lat="65.82877" lon="21.67594">
        <ele>34.79422</ele>
        <time>2020-09-22T13:49:17.406Z</time>
      </trkpt>
      <trkpt lat="65.82885" lon="21.67583">
        <ele>34.493946</ele>
        <time>2020-09-22T13:49:19.433Z</time>
      </trkpt>
      <trkpt lat="65.82897" lon="21.67569">
        <ele>34.493946</ele>
        <time>2020-09-22T13:49:22.415Z</time>
      </trkpt>
      <trkpt lat="65.82908" lon="21.67555">
        <ele>34.493946</ele>
        <time>2020-09-22T13:49:25.421Z</time>
      </trkpt>
      <trkpt lat="65.82915" lon="21.6754">
        <ele>34.493946</ele>
        <time>2020-09-22T13:49:27.464Z</time>
      </trkpt>
      <trkpt lat="65.82921" lon="21.67515">
        <ele>34.493946</ele>
        <time>2020-09-22T13:49:30.434Z</time>
      </trkpt>
      <trkpt lat="65.82911" lon="21.67513">
        <ele>34.493946</ele>
        <time>2020-09-22T13:49:36.432Z</time>
      </trkpt>
      <trkpt lat="65.82912" lon="21.67538">
        <ele>34.493946</ele>
        <time>2020-09-22T13:49:40.418Z</time>
      </trkpt>
      <trkpt lat="65.82921" lon="21.67542">
        <ele>34.493946</ele>
        <time>2020-09-22T13:49:43.429Z</time>
      </trkpt>
      <trkpt lat="65.82926" lon="21.67521">
        <ele>34.493946</ele>
        <time>2020-09-22T13:49:46.425Z</time>
      </trkpt>
      <trkpt lat="65.82928" lon="21.67499">
        <ele>34.493946</ele>
        <time>2020-09-22T13:49:50.421Z</time>
      </trkpt>
      <trkpt lat="65.82928" lon="21.67487">
        <ele>34.493946</ele>
        <time>2020-09-22T13:50:46.570Z</time>
      </trkpt>
    </trkseg>
  </trk>
</gpx>